<?xml version="1.0" encoding="UTF-8" standalone="no" ?>
<gpx xmlns="http://www.topografix.com/GPX/1/1" xmlns:xsi="http://www.w3.org/2001/XMLSchema-instance" xsi:schemaLocation="http://www.topografix.com/GPX/1/1 http://www.topografix.com/GPX/1/1/gpx.xsd" version="1.1" creator="VisuGPX - https://www.visugpx.com">
  <metadata>
    <name>Un tour dans le Gard</name>
    <desc><![CDATA[Petites routes sympa sur la première partie, seconde moins intéressante ! ]]></desc>
  </metadata>
  <trk>
    <name><![CDATA[Un tour dans le Gard_1]]></name>
    <trkseg>
      <trkpt lat="44.23439" lon="4.58626">
        <ele>190.3</ele>
        <time>2021-10-24T08:07:02Z</time>
      </trkpt>
      <trkpt lat="44.23434" lon="4.58623">
        <ele>190</ele>
        <time>2021-10-24T08:07:03Z</time>
      </trkpt>
      <trkpt lat="44.2343" lon="4.58619">
        <ele>190.2</ele>
        <time>2021-10-24T08:07:04Z</time>
      </trkpt>
      <trkpt lat="44.23426" lon="4.58614">
        <ele>190.7</ele>
        <time>2021-10-24T08:07:05Z</time>
      </trkpt>
      <trkpt lat="44.23421" lon="4.5861">
        <ele>190.8</ele>
        <time>2021-10-24T08:07:06Z</time>
      </trkpt>
      <trkpt lat="44.23417" lon="4.58605">
        <ele>190.9</ele>
        <time>2021-10-24T08:07:07Z</time>
      </trkpt>
      <trkpt lat="44.23412" lon="4.58601">
        <ele>189.6</ele>
        <time>2021-10-24T08:07:08Z</time>
      </trkpt>
      <trkpt lat="44.23408" lon="4.58596">
        <ele>189.6</ele>
        <time>2021-10-24T08:07:09Z</time>
      </trkpt>
      <trkpt lat="44.23404" lon="4.58591">
        <ele>189.6</ele>
        <time>2021-10-24T08:07:10Z</time>
      </trkpt>
      <trkpt lat="44.23399" lon="4.58587">
        <ele>189.8</ele>
        <time>2021-10-24T08:07:11Z</time>
      </trkpt>
      <trkpt lat="44.23395" lon="4.58583">
        <ele>190</ele>
        <time>2021-10-24T08:07:12Z</time>
      </trkpt>
      <trkpt lat="44.2339" lon="4.58579">
        <ele>190.2</ele>
        <time>2021-10-24T08:07:13Z</time>
      </trkpt>
      <trkpt lat="44.23386" lon="4.58575">
        <ele>190.2</ele>
        <time>2021-10-24T08:07:14Z</time>
      </trkpt>
      <trkpt lat="44.23381" lon="4.5857">
        <ele>190.4</ele>
        <time>2021-10-24T08:07:15Z</time>
      </trkpt>
      <trkpt lat="44.23377" lon="4.58567">
        <ele>190.6</ele>
        <time>2021-10-24T08:07:16Z</time>
      </trkpt>
      <trkpt lat="44.23373" lon="4.58563">
        <ele>190.8</ele>
        <time>2021-10-24T08:07:17Z</time>
      </trkpt>
      <trkpt lat="44.23369" lon="4.58559">
        <ele>191</ele>
        <time>2021-10-24T08:07:18Z</time>
      </trkpt>
      <trkpt lat="44.23366" lon="4.58555">
        <ele>191.2</ele>
        <time>2021-10-24T08:07:19Z</time>
      </trkpt>
      <trkpt lat="44.23362" lon="4.58551">
        <ele>191.6</ele>
        <time>2021-10-24T08:07:20Z</time>
      </trkpt>
      <trkpt lat="44.23358" lon="4.58548">
        <ele>192</ele>
        <time>2021-10-24T08:07:21Z</time>
      </trkpt>
      <trkpt lat="44.23355" lon="4.58545">
        <ele>192.4</ele>
        <time>2021-10-24T08:07:22Z</time>
      </trkpt>
      <trkpt lat="44.23351" lon="4.58541">
        <ele>192.6</ele>
        <time>2021-10-24T08:07:23Z</time>
      </trkpt>
      <trkpt lat="44.23348" lon="4.58538">
        <ele>193</ele>
        <time>2021-10-24T08:07:24Z</time>
      </trkpt>
      <trkpt lat="44.23346" lon="4.58535">
        <ele>193.2</ele>
        <time>2021-10-24T08:07:25Z</time>
      </trkpt>
      <trkpt lat="44.23343" lon="4.58532">
        <ele>193.6</ele>
        <time>2021-10-24T08:07:26Z</time>
      </trkpt>
      <trkpt lat="44.2334" lon="4.58528">
        <ele>193.8</ele>
        <time>2021-10-24T08:07:27Z</time>
      </trkpt>
      <trkpt lat="44.23337" lon="4.58525">
        <ele>194.2</ele>
        <time>2021-10-24T08:07:28Z</time>
      </trkpt>
      <trkpt lat="44.23333" lon="4.58522">
        <ele>194.4</ele>
        <time>2021-10-24T08:07:29Z</time>
      </trkpt>
      <trkpt lat="44.2333" lon="4.58518">
        <ele>194.8</ele>
        <time>2021-10-24T08:07:30Z</time>
      </trkpt>
      <trkpt lat="44.23326" lon="4.58514">
        <ele>195</ele>
        <time>2021-10-24T08:07:31Z</time>
      </trkpt>
      <trkpt lat="44.23323" lon="4.5851">
        <ele>195.4</ele>
        <time>2021-10-24T08:07:32Z</time>
      </trkpt>
      <trkpt lat="44.23319" lon="4.58506">
        <ele>195.6</ele>
        <time>2021-10-24T08:07:33Z</time>
      </trkpt>
      <trkpt lat="44.23315" lon="4.58501">
        <ele>196</ele>
        <time>2021-10-24T08:07:34Z</time>
      </trkpt>
      <trkpt lat="44.23311" lon="4.58496">
        <ele>196.2</ele>
        <time>2021-10-24T08:07:35Z</time>
      </trkpt>
      <trkpt lat="44.23307" lon="4.5849">
        <ele>196.4</ele>
        <time>2021-10-24T08:07:36Z</time>
      </trkpt>
      <trkpt lat="44.23303" lon="4.58485">
        <ele>196.4</ele>
        <time>2021-10-24T08:07:37Z</time>
      </trkpt>
      <trkpt lat="44.23299" lon="4.5848">
        <ele>196.4</ele>
        <time>2021-10-24T08:07:38Z</time>
      </trkpt>
      <trkpt lat="44.23296" lon="4.58474">
        <ele>196.4</ele>
        <time>2021-10-24T08:07:39Z</time>
      </trkpt>
      <trkpt lat="44.23292" lon="4.58469">
        <ele>196.4</ele>
        <time>2021-10-24T08:07:40Z</time>
      </trkpt>
      <trkpt lat="44.23288" lon="4.58463">
        <ele>196.6</ele>
        <time>2021-10-24T08:07:41Z</time>
      </trkpt>
      <trkpt lat="44.23284" lon="4.58458">
        <ele>196.6</ele>
        <time>2021-10-24T08:07:42Z</time>
      </trkpt>
      <trkpt lat="44.2328" lon="4.58452">
        <ele>196.6</ele>
        <time>2021-10-24T08:07:43Z</time>
      </trkpt>
      <trkpt lat="44.23276" lon="4.58446">
        <ele>196.8</ele>
        <time>2021-10-24T08:07:44Z</time>
      </trkpt>
      <trkpt lat="44.23273" lon="4.58441">
        <ele>197</ele>
        <time>2021-10-24T08:07:45Z</time>
      </trkpt>
      <trkpt lat="44.23269" lon="4.58436">
        <ele>197</ele>
        <time>2021-10-24T08:07:46Z</time>
      </trkpt>
      <trkpt lat="44.23264" lon="4.58431">
        <ele>197.2</ele>
        <time>2021-10-24T08:07:47Z</time>
      </trkpt>
      <trkpt lat="44.23261" lon="4.58425">
        <ele>197.2</ele>
        <time>2021-10-24T08:07:48Z</time>
      </trkpt>
      <trkpt lat="44.23256" lon="4.5842">
        <ele>197.4</ele>
        <time>2021-10-24T08:07:49Z</time>
      </trkpt>
      <trkpt lat="44.23252" lon="4.58415">
        <ele>197.2</ele>
        <time>2021-10-24T08:07:50Z</time>
      </trkpt>
      <trkpt lat="44.23248" lon="4.5841">
        <ele>197.4</ele>
        <time>2021-10-24T08:07:51Z</time>
      </trkpt>
      <trkpt lat="44.23243" lon="4.58405">
        <ele>197.4</ele>
        <time>2021-10-24T08:07:52Z</time>
      </trkpt>
      <trkpt lat="44.23239" lon="4.584">
        <ele>197.6</ele>
        <time>2021-10-24T08:07:53Z</time>
      </trkpt>
      <trkpt lat="44.23234" lon="4.58395">
        <ele>197.6</ele>
        <time>2021-10-24T08:07:54Z</time>
      </trkpt>
      <trkpt lat="44.23229" lon="4.58391">
        <ele>197.6</ele>
        <time>2021-10-24T08:07:55Z</time>
      </trkpt>
      <trkpt lat="44.23224" lon="4.58388">
        <ele>197.6</ele>
        <time>2021-10-24T08:07:56Z</time>
      </trkpt>
      <trkpt lat="44.23218" lon="4.58384">
        <ele>197.8</ele>
        <time>2021-10-24T08:07:57Z</time>
      </trkpt>
      <trkpt lat="44.23213" lon="4.58381">
        <ele>197.8</ele>
        <time>2021-10-24T08:07:58Z</time>
      </trkpt>
      <trkpt lat="44.23207" lon="4.58378">
        <ele>198</ele>
        <time>2021-10-24T08:07:59Z</time>
      </trkpt>
      <trkpt lat="44.23202" lon="4.58375">
        <ele>198.2</ele>
        <time>2021-10-24T08:08:00Z</time>
      </trkpt>
      <trkpt lat="44.23196" lon="4.58371">
        <ele>198.2</ele>
        <time>2021-10-24T08:08:01Z</time>
      </trkpt>
      <trkpt lat="44.23191" lon="4.58368">
        <ele>198.4</ele>
        <time>2021-10-24T08:08:02Z</time>
      </trkpt>
      <trkpt lat="44.23185" lon="4.58364">
        <ele>198.4</ele>
        <time>2021-10-24T08:08:03Z</time>
      </trkpt>
      <trkpt lat="44.2318" lon="4.58361">
        <ele>198.4</ele>
        <time>2021-10-24T08:08:04Z</time>
      </trkpt>
      <trkpt lat="44.23174" lon="4.58357">
        <ele>198.6</ele>
        <time>2021-10-24T08:08:05Z</time>
      </trkpt>
      <trkpt lat="44.23169" lon="4.58353">
        <ele>198.8</ele>
        <time>2021-10-24T08:08:06Z</time>
      </trkpt>
      <trkpt lat="44.23163" lon="4.58349">
        <ele>198.8</ele>
        <time>2021-10-24T08:08:07Z</time>
      </trkpt>
      <trkpt lat="44.23157" lon="4.58345">
        <ele>198.6</ele>
        <time>2021-10-24T08:08:08Z</time>
      </trkpt>
      <trkpt lat="44.23152" lon="4.58341">
        <ele>198.8</ele>
        <time>2021-10-24T08:08:09Z</time>
      </trkpt>
      <trkpt lat="44.23146" lon="4.58337">
        <ele>198.8</ele>
        <time>2021-10-24T08:08:10Z</time>
      </trkpt>
      <trkpt lat="44.23141" lon="4.58333">
        <ele>199.2</ele>
        <time>2021-10-24T08:08:11Z</time>
      </trkpt>
      <trkpt lat="44.23136" lon="4.58329">
        <ele>199.2</ele>
        <time>2021-10-24T08:08:12Z</time>
      </trkpt>
      <trkpt lat="44.23131" lon="4.58325">
        <ele>199.4</ele>
        <time>2021-10-24T08:08:13Z</time>
      </trkpt>
      <trkpt lat="44.23125" lon="4.58322">
        <ele>199.4</ele>
        <time>2021-10-24T08:08:14Z</time>
      </trkpt>
      <trkpt lat="44.2312" lon="4.5832">
        <ele>199.6</ele>
        <time>2021-10-24T08:08:15Z</time>
      </trkpt>
      <trkpt lat="44.23114" lon="4.58318">
        <ele>199.6</ele>
        <time>2021-10-24T08:08:16Z</time>
      </trkpt>
      <trkpt lat="44.23108" lon="4.58316">
        <ele>199.6</ele>
        <time>2021-10-24T08:08:17Z</time>
      </trkpt>
      <trkpt lat="44.23102" lon="4.58314">
        <ele>199.8</ele>
        <time>2021-10-24T08:08:18Z</time>
      </trkpt>
      <trkpt lat="44.23096" lon="4.58313">
        <ele>200</ele>
        <time>2021-10-24T08:08:19Z</time>
      </trkpt>
      <trkpt lat="44.23091" lon="4.58312">
        <ele>200</ele>
        <time>2021-10-24T08:08:20Z</time>
      </trkpt>
      <trkpt lat="44.23085" lon="4.58311">
        <ele>200.2</ele>
        <time>2021-10-24T08:08:21Z</time>
      </trkpt>
      <trkpt lat="44.23078" lon="4.58311">
        <ele>200.4</ele>
        <time>2021-10-24T08:08:22Z</time>
      </trkpt>
      <trkpt lat="44.23072" lon="4.58311">
        <ele>200.6</ele>
        <time>2021-10-24T08:08:23Z</time>
      </trkpt>
      <trkpt lat="44.23066" lon="4.58312">
        <ele>200.6</ele>
        <time>2021-10-24T08:08:24Z</time>
      </trkpt>
      <trkpt lat="44.2306" lon="4.58312">
        <ele>200.8</ele>
        <time>2021-10-24T08:08:25Z</time>
      </trkpt>
      <trkpt lat="44.23054" lon="4.58312">
        <ele>201</ele>
        <time>2021-10-24T08:08:26Z</time>
      </trkpt>
      <trkpt lat="44.23048" lon="4.58312">
        <ele>201</ele>
        <time>2021-10-24T08:08:27Z</time>
      </trkpt>
      <trkpt lat="44.23043" lon="4.58311">
        <ele>201.2</ele>
        <time>2021-10-24T08:08:28Z</time>
      </trkpt>
      <trkpt lat="44.23037" lon="4.5831">
        <ele>201.2</ele>
        <time>2021-10-24T08:08:29Z</time>
      </trkpt>
      <trkpt lat="44.23031" lon="4.58309">
        <ele>201.6</ele>
        <time>2021-10-24T08:08:30Z</time>
      </trkpt>
      <trkpt lat="44.23025" lon="4.58308">
        <ele>202</ele>
        <time>2021-10-24T08:08:31Z</time>
      </trkpt>
      <trkpt lat="44.2302" lon="4.58307">
        <ele>202.2</ele>
        <time>2021-10-24T08:08:32Z</time>
      </trkpt>
      <trkpt lat="44.23015" lon="4.58305">
        <ele>202.4</ele>
        <time>2021-10-24T08:08:33Z</time>
      </trkpt>
      <trkpt lat="44.2301" lon="4.58304">
        <ele>202.8</ele>
        <time>2021-10-24T08:08:34Z</time>
      </trkpt>
      <trkpt lat="44.23005" lon="4.58303">
        <ele>202.8</ele>
        <time>2021-10-24T08:08:35Z</time>
      </trkpt>
      <trkpt lat="44.23" lon="4.58302">
        <ele>203.2</ele>
        <time>2021-10-24T08:08:36Z</time>
      </trkpt>
      <trkpt lat="44.22995" lon="4.58301">
        <ele>203.4</ele>
        <time>2021-10-24T08:08:37Z</time>
      </trkpt>
      <trkpt lat="44.2299" lon="4.583">
        <ele>203.6</ele>
        <time>2021-10-24T08:08:38Z</time>
      </trkpt>
      <trkpt lat="44.22985" lon="4.58301">
        <ele>203.8</ele>
        <time>2021-10-24T08:08:39Z</time>
      </trkpt>
      <trkpt lat="44.22981" lon="4.58302">
        <ele>204</ele>
        <time>2021-10-24T08:08:40Z</time>
      </trkpt>
      <trkpt lat="44.22977" lon="4.58303">
        <ele>204.2</ele>
        <time>2021-10-24T08:08:41Z</time>
      </trkpt>
      <trkpt lat="44.22973" lon="4.58305">
        <ele>204.6</ele>
        <time>2021-10-24T08:08:42Z</time>
      </trkpt>
      <trkpt lat="44.22969" lon="4.58307">
        <ele>204.8</ele>
        <time>2021-10-24T08:08:43Z</time>
      </trkpt>
      <trkpt lat="44.22965" lon="4.58308">
        <ele>205</ele>
        <time>2021-10-24T08:08:44Z</time>
      </trkpt>
      <trkpt lat="44.22961" lon="4.58309">
        <ele>205.2</ele>
        <time>2021-10-24T08:08:45Z</time>
      </trkpt>
      <trkpt lat="44.22956" lon="4.5831">
        <ele>205.4</ele>
        <time>2021-10-24T08:08:46Z</time>
      </trkpt>
      <trkpt lat="44.22952" lon="4.58311">
        <ele>205.8</ele>
        <time>2021-10-24T08:08:47Z</time>
      </trkpt>
      <trkpt lat="44.22947" lon="4.58312">
        <ele>205.8</ele>
        <time>2021-10-24T08:08:48Z</time>
      </trkpt>
      <trkpt lat="44.22942" lon="4.58313">
        <ele>206.2</ele>
        <time>2021-10-24T08:08:49Z</time>
      </trkpt>
      <trkpt lat="44.22937" lon="4.58314">
        <ele>206.2</ele>
        <time>2021-10-24T08:08:50Z</time>
      </trkpt>
      <trkpt lat="44.22933" lon="4.58315">
        <ele>206.4</ele>
        <time>2021-10-24T08:08:51Z</time>
      </trkpt>
      <trkpt lat="44.22928" lon="4.58316">
        <ele>206.8</ele>
        <time>2021-10-24T08:08:52Z</time>
      </trkpt>
      <trkpt lat="44.22923" lon="4.58317">
        <ele>207.2</ele>
        <time>2021-10-24T08:08:53Z</time>
      </trkpt>
      <trkpt lat="44.22919" lon="4.58318">
        <ele>207.4</ele>
        <time>2021-10-24T08:08:54Z</time>
      </trkpt>
      <trkpt lat="44.22915" lon="4.58319">
        <ele>207.6</ele>
        <time>2021-10-24T08:08:55Z</time>
      </trkpt>
      <trkpt lat="44.2291" lon="4.58319">
        <ele>207.8</ele>
        <time>2021-10-24T08:08:56Z</time>
      </trkpt>
      <trkpt lat="44.22906" lon="4.5832">
        <ele>208</ele>
        <time>2021-10-24T08:08:57Z</time>
      </trkpt>
      <trkpt lat="44.22902" lon="4.58322">
        <ele>208.2</ele>
        <time>2021-10-24T08:08:58Z</time>
      </trkpt>
      <trkpt lat="44.22899" lon="4.58324">
        <ele>208.4</ele>
        <time>2021-10-24T08:08:59Z</time>
      </trkpt>
      <trkpt lat="44.22895" lon="4.58326">
        <ele>208.6</ele>
        <time>2021-10-24T08:09:00Z</time>
      </trkpt>
      <trkpt lat="44.22891" lon="4.58327">
        <ele>208.8</ele>
        <time>2021-10-24T08:09:01Z</time>
      </trkpt>
      <trkpt lat="44.22888" lon="4.58329">
        <ele>209.2</ele>
        <time>2021-10-24T08:09:02Z</time>
      </trkpt>
      <trkpt lat="44.22884" lon="4.58331">
        <ele>209.4</ele>
        <time>2021-10-24T08:09:03Z</time>
      </trkpt>
      <trkpt lat="44.22881" lon="4.58333">
        <ele>209.8</ele>
        <time>2021-10-24T08:09:04Z</time>
      </trkpt>
      <trkpt lat="44.22877" lon="4.58336">
        <ele>210</ele>
        <time>2021-10-24T08:09:05Z</time>
      </trkpt>
      <trkpt lat="44.22874" lon="4.58338">
        <ele>210.2</ele>
        <time>2021-10-24T08:09:06Z</time>
      </trkpt>
      <trkpt lat="44.2287" lon="4.58341">
        <ele>210.6</ele>
        <time>2021-10-24T08:09:07Z</time>
      </trkpt>
      <trkpt lat="44.22867" lon="4.58342">
        <ele>211</ele>
        <time>2021-10-24T08:09:08Z</time>
      </trkpt>
      <trkpt lat="44.22863" lon="4.58341">
        <ele>211.2</ele>
        <time>2021-10-24T08:09:09Z</time>
      </trkpt>
      <trkpt lat="44.2286" lon="4.58338">
        <ele>211.4</ele>
        <time>2021-10-24T08:09:10Z</time>
      </trkpt>
      <trkpt lat="44.22858" lon="4.58334">
        <ele>211.4</ele>
        <time>2021-10-24T08:09:11Z</time>
      </trkpt>
      <trkpt lat="44.22856" lon="4.58328">
        <ele>211.8</ele>
        <time>2021-10-24T08:09:12Z</time>
      </trkpt>
      <trkpt lat="44.22854" lon="4.58323">
        <ele>212</ele>
        <time>2021-10-24T08:09:13Z</time>
      </trkpt>
      <trkpt lat="44.22852" lon="4.58317">
        <ele>212.2</ele>
        <time>2021-10-24T08:09:14Z</time>
      </trkpt>
      <trkpt lat="44.2285" lon="4.58312">
        <ele>212.4</ele>
        <time>2021-10-24T08:09:15Z</time>
      </trkpt>
      <trkpt lat="44.22848" lon="4.58306">
        <ele>212.4</ele>
        <time>2021-10-24T08:09:16Z</time>
      </trkpt>
      <trkpt lat="44.22846" lon="4.583">
        <ele>212.6</ele>
        <time>2021-10-24T08:09:17Z</time>
      </trkpt>
      <trkpt lat="44.22844" lon="4.58294">
        <ele>213</ele>
        <time>2021-10-24T08:09:18Z</time>
      </trkpt>
      <trkpt lat="44.22841" lon="4.58288">
        <ele>213</ele>
        <time>2021-10-24T08:09:19Z</time>
      </trkpt>
      <trkpt lat="44.22839" lon="4.58282">
        <ele>213.2</ele>
        <time>2021-10-24T08:09:20Z</time>
      </trkpt>
      <trkpt lat="44.22836" lon="4.58276">
        <ele>213.4</ele>
        <time>2021-10-24T08:09:21Z</time>
      </trkpt>
      <trkpt lat="44.22833" lon="4.58271">
        <ele>213.8</ele>
        <time>2021-10-24T08:09:22Z</time>
      </trkpt>
      <trkpt lat="44.2283" lon="4.58266">
        <ele>213.8</ele>
        <time>2021-10-24T08:09:23Z</time>
      </trkpt>
      <trkpt lat="44.22826" lon="4.58261">
        <ele>214</ele>
        <time>2021-10-24T08:09:24Z</time>
      </trkpt>
      <trkpt lat="44.22822" lon="4.58257">
        <ele>214.2</ele>
        <time>2021-10-24T08:09:25Z</time>
      </trkpt>
      <trkpt lat="44.22818" lon="4.58253">
        <ele>214.2</ele>
        <time>2021-10-24T08:09:26Z</time>
      </trkpt>
      <trkpt lat="44.22813" lon="4.58251">
        <ele>214.6</ele>
        <time>2021-10-24T08:09:27Z</time>
      </trkpt>
      <trkpt lat="44.22809" lon="4.5825">
        <ele>214.8</ele>
        <time>2021-10-24T08:09:28Z</time>
      </trkpt>
      <trkpt lat="44.22805" lon="4.58248">
        <ele>215.2</ele>
        <time>2021-10-24T08:09:29Z</time>
      </trkpt>
      <trkpt lat="44.22801" lon="4.58246">
        <ele>215.4</ele>
        <time>2021-10-24T08:09:30Z</time>
      </trkpt>
      <trkpt lat="44.22797" lon="4.58245">
        <ele>215.8</ele>
        <time>2021-10-24T08:09:31Z</time>
      </trkpt>
      <trkpt lat="44.22794" lon="4.58243">
        <ele>216.2</ele>
        <time>2021-10-24T08:09:32Z</time>
      </trkpt>
      <trkpt lat="44.22791" lon="4.58242">
        <ele>216.4</ele>
        <time>2021-10-24T08:09:33Z</time>
      </trkpt>
      <trkpt lat="44.22788" lon="4.58239">
        <ele>216.8</ele>
        <time>2021-10-24T08:09:34Z</time>
      </trkpt>
      <trkpt lat="44.22785" lon="4.58237">
        <ele>217</ele>
        <time>2021-10-24T08:09:35Z</time>
      </trkpt>
      <trkpt lat="44.22783" lon="4.58233">
        <ele>217.6</ele>
        <time>2021-10-24T08:09:36Z</time>
      </trkpt>
      <trkpt lat="44.22781" lon="4.58229">
        <ele>217.8</ele>
        <time>2021-10-24T08:09:37Z</time>
      </trkpt>
      <trkpt lat="44.22779" lon="4.58224">
        <ele>218</ele>
        <time>2021-10-24T08:09:38Z</time>
      </trkpt>
      <trkpt lat="44.22779" lon="4.58219">
        <ele>218.4</ele>
        <time>2021-10-24T08:09:39Z</time>
      </trkpt>
      <trkpt lat="44.22779" lon="4.58214">
        <ele>218.4</ele>
        <time>2021-10-24T08:09:40Z</time>
      </trkpt>
      <trkpt lat="44.22779" lon="4.58209">
        <ele>218.8</ele>
        <time>2021-10-24T08:09:41Z</time>
      </trkpt>
      <trkpt lat="44.22779" lon="4.58204">
        <ele>218.8</ele>
        <time>2021-10-24T08:09:42Z</time>
      </trkpt>
      <trkpt lat="44.22779" lon="4.58199">
        <ele>219.2</ele>
        <time>2021-10-24T08:09:43Z</time>
      </trkpt>
      <trkpt lat="44.22779" lon="4.58194">
        <ele>219.8</ele>
        <time>2021-10-24T08:09:44Z</time>
      </trkpt>
      <trkpt lat="44.22779" lon="4.58189">
        <ele>220</ele>
        <time>2021-10-24T08:09:45Z</time>
      </trkpt>
      <trkpt lat="44.2278" lon="4.58184">
        <ele>220.6</ele>
        <time>2021-10-24T08:09:46Z</time>
      </trkpt>
      <trkpt lat="44.22779" lon="4.58179">
        <ele>220.8</ele>
        <time>2021-10-24T08:09:47Z</time>
      </trkpt>
      <trkpt lat="44.22779" lon="4.58174">
        <ele>220.8</ele>
        <time>2021-10-24T08:09:48Z</time>
      </trkpt>
      <trkpt lat="44.2278" lon="4.58169">
        <ele>221.2</ele>
        <time>2021-10-24T08:09:49Z</time>
      </trkpt>
      <trkpt lat="44.2278" lon="4.58164">
        <ele>221.4</ele>
        <time>2021-10-24T08:09:50Z</time>
      </trkpt>
      <trkpt lat="44.22781" lon="4.5816">
        <ele>221.8</ele>
        <time>2021-10-24T08:09:51Z</time>
      </trkpt>
      <trkpt lat="44.22782" lon="4.58155">
        <ele>221.8</ele>
        <time>2021-10-24T08:09:52Z</time>
      </trkpt>
      <trkpt lat="44.22783" lon="4.5815">
        <ele>221.8</ele>
        <time>2021-10-24T08:09:53Z</time>
      </trkpt>
      <trkpt lat="44.22785" lon="4.58146">
        <ele>222</ele>
        <time>2021-10-24T08:09:54Z</time>
      </trkpt>
      <trkpt lat="44.22786" lon="4.58141">
        <ele>222.2</ele>
        <time>2021-10-24T08:09:55Z</time>
      </trkpt>
      <trkpt lat="44.22788" lon="4.58137">
        <ele>222.6</ele>
        <time>2021-10-24T08:09:56Z</time>
      </trkpt>
      <trkpt lat="44.2279" lon="4.58133">
        <ele>222.8</ele>
        <time>2021-10-24T08:09:57Z</time>
      </trkpt>
      <trkpt lat="44.22791" lon="4.58129">
        <ele>223</ele>
        <time>2021-10-24T08:09:58Z</time>
      </trkpt>
      <trkpt lat="44.22793" lon="4.58125">
        <ele>223</ele>
        <time>2021-10-24T08:09:59Z</time>
      </trkpt>
      <trkpt lat="44.22794" lon="4.58121">
        <ele>223.6</ele>
        <time>2021-10-24T08:10:00Z</time>
      </trkpt>
      <trkpt lat="44.22796" lon="4.58118">
        <ele>224</ele>
        <time>2021-10-24T08:10:01Z</time>
      </trkpt>
      <trkpt lat="44.22797" lon="4.58114">
        <ele>224.2</ele>
        <time>2021-10-24T08:10:02Z</time>
      </trkpt>
      <trkpt lat="44.22799" lon="4.5811">
        <ele>224.2</ele>
        <time>2021-10-24T08:10:03Z</time>
      </trkpt>
      <trkpt lat="44.228" lon="4.58106">
        <ele>224.8</ele>
        <time>2021-10-24T08:10:04Z</time>
      </trkpt>
      <trkpt lat="44.22801" lon="4.58102">
        <ele>225</ele>
        <time>2021-10-24T08:10:05Z</time>
      </trkpt>
      <trkpt lat="44.22803" lon="4.58098">
        <ele>225.4</ele>
        <time>2021-10-24T08:10:06Z</time>
      </trkpt>
      <trkpt lat="44.22803" lon="4.58094">
        <ele>225.8</ele>
        <time>2021-10-24T08:10:07Z</time>
      </trkpt>
      <trkpt lat="44.22804" lon="4.5809">
        <ele>226</ele>
        <time>2021-10-24T08:10:08Z</time>
      </trkpt>
      <trkpt lat="44.22805" lon="4.58085">
        <ele>226</ele>
        <time>2021-10-24T08:10:09Z</time>
      </trkpt>
      <trkpt lat="44.22805" lon="4.58081">
        <ele>226.2</ele>
        <time>2021-10-24T08:10:10Z</time>
      </trkpt>
      <trkpt lat="44.22804" lon="4.58077">
        <ele>226.6</ele>
        <time>2021-10-24T08:10:11Z</time>
      </trkpt>
      <trkpt lat="44.22804" lon="4.58073">
        <ele>226.8</ele>
        <time>2021-10-24T08:10:12Z</time>
      </trkpt>
      <trkpt lat="44.22803" lon="4.58069">
        <ele>227.2</ele>
        <time>2021-10-24T08:10:13Z</time>
      </trkpt>
      <trkpt lat="44.22801" lon="4.58066">
        <ele>227.4</ele>
        <time>2021-10-24T08:10:14Z</time>
      </trkpt>
      <trkpt lat="44.228" lon="4.58063">
        <ele>227.6</ele>
        <time>2021-10-24T08:10:15Z</time>
      </trkpt>
      <trkpt lat="44.22798" lon="4.58059">
        <ele>228</ele>
        <time>2021-10-24T08:10:16Z</time>
      </trkpt>
      <trkpt lat="44.22795" lon="4.58057">
        <ele>228.4</ele>
        <time>2021-10-24T08:10:17Z</time>
      </trkpt>
      <trkpt lat="44.22793" lon="4.58054">
        <ele>228.8</ele>
        <time>2021-10-24T08:10:18Z</time>
      </trkpt>
      <trkpt lat="44.22791" lon="4.58051">
        <ele>229</ele>
        <time>2021-10-24T08:10:19Z</time>
      </trkpt>
      <trkpt lat="44.22789" lon="4.58049">
        <ele>229.4</ele>
        <time>2021-10-24T08:10:20Z</time>
      </trkpt>
      <trkpt lat="44.22787" lon="4.58047">
        <ele>229.8</ele>
        <time>2021-10-24T08:10:21Z</time>
      </trkpt>
      <trkpt lat="44.22785" lon="4.58044">
        <ele>230.2</ele>
        <time>2021-10-24T08:10:22Z</time>
      </trkpt>
      <trkpt lat="44.22783" lon="4.58042">
        <ele>230.6</ele>
        <time>2021-10-24T08:10:23Z</time>
      </trkpt>
      <trkpt lat="44.22782" lon="4.58039">
        <ele>230.8</ele>
        <time>2021-10-24T08:10:24Z</time>
      </trkpt>
      <trkpt lat="44.2278" lon="4.58037">
        <ele>231</ele>
        <time>2021-10-24T08:10:25Z</time>
      </trkpt>
      <trkpt lat="44.22777" lon="4.58034">
        <ele>231.4</ele>
        <time>2021-10-24T08:10:26Z</time>
      </trkpt>
      <trkpt lat="44.22775" lon="4.58032">
        <ele>231.8</ele>
        <time>2021-10-24T08:10:27Z</time>
      </trkpt>
      <trkpt lat="44.22773" lon="4.5803">
        <ele>232</ele>
        <time>2021-10-24T08:10:28Z</time>
      </trkpt>
      <trkpt lat="44.2277" lon="4.58029">
        <ele>232.2</ele>
        <time>2021-10-24T08:10:29Z</time>
      </trkpt>
      <trkpt lat="44.22768" lon="4.58027">
        <ele>232.6</ele>
        <time>2021-10-24T08:10:30Z</time>
      </trkpt>
      <trkpt lat="44.22765" lon="4.58026">
        <ele>232.6</ele>
        <time>2021-10-24T08:10:31Z</time>
      </trkpt>
      <trkpt lat="44.22763" lon="4.58024">
        <ele>232.8</ele>
        <time>2021-10-24T08:10:32Z</time>
      </trkpt>
      <trkpt lat="44.2276" lon="4.58023">
        <ele>233.2</ele>
        <time>2021-10-24T08:10:33Z</time>
      </trkpt>
      <trkpt lat="44.22757" lon="4.58022">
        <ele>233.6</ele>
        <time>2021-10-24T08:10:34Z</time>
      </trkpt>
      <trkpt lat="44.22754" lon="4.58021">
        <ele>233.6</ele>
        <time>2021-10-24T08:10:35Z</time>
      </trkpt>
      <trkpt lat="44.22752" lon="4.5802">
        <ele>234.2</ele>
        <time>2021-10-24T08:10:36Z</time>
      </trkpt>
      <trkpt lat="44.22749" lon="4.58018">
        <ele>234.2</ele>
        <time>2021-10-24T08:10:37Z</time>
      </trkpt>
      <trkpt lat="44.22746" lon="4.58017">
        <ele>234.6</ele>
        <time>2021-10-24T08:10:38Z</time>
      </trkpt>
      <trkpt lat="44.22744" lon="4.58015">
        <ele>235</ele>
        <time>2021-10-24T08:10:39Z</time>
      </trkpt>
      <trkpt lat="44.22741" lon="4.58013">
        <ele>235.4</ele>
        <time>2021-10-24T08:10:40Z</time>
      </trkpt>
      <trkpt lat="44.22739" lon="4.58011">
        <ele>235.4</ele>
        <time>2021-10-24T08:10:41Z</time>
      </trkpt>
      <trkpt lat="44.22737" lon="4.58008">
        <ele>236</ele>
        <time>2021-10-24T08:10:42Z</time>
      </trkpt>
      <trkpt lat="44.22735" lon="4.58006">
        <ele>236.2</ele>
        <time>2021-10-24T08:10:43Z</time>
      </trkpt>
      <trkpt lat="44.22732" lon="4.58003">
        <ele>236.6</ele>
        <time>2021-10-24T08:10:44Z</time>
      </trkpt>
      <trkpt lat="44.2273" lon="4.58001">
        <ele>236.8</ele>
        <time>2021-10-24T08:10:45Z</time>
      </trkpt>
      <trkpt lat="44.22728" lon="4.57998">
        <ele>237.2</ele>
        <time>2021-10-24T08:10:46Z</time>
      </trkpt>
      <trkpt lat="44.22726" lon="4.57995">
        <ele>237.4</ele>
        <time>2021-10-24T08:10:47Z</time>
      </trkpt>
      <trkpt lat="44.22724" lon="4.57993">
        <ele>237.8</ele>
        <time>2021-10-24T08:10:48Z</time>
      </trkpt>
      <trkpt lat="44.22722" lon="4.5799">
        <ele>238.2</ele>
        <time>2021-10-24T08:10:49Z</time>
      </trkpt>
      <trkpt lat="44.2272" lon="4.57987">
        <ele>238.4</ele>
        <time>2021-10-24T08:10:50Z</time>
      </trkpt>
      <trkpt lat="44.22718" lon="4.57985">
        <ele>238.6</ele>
        <time>2021-10-24T08:10:51Z</time>
      </trkpt>
      <trkpt lat="44.22716" lon="4.57983">
        <ele>238.8</ele>
        <time>2021-10-24T08:10:52Z</time>
      </trkpt>
      <trkpt lat="44.22713" lon="4.57981">
        <ele>239.2</ele>
        <time>2021-10-24T08:10:53Z</time>
      </trkpt>
      <trkpt lat="44.22711" lon="4.57978">
        <ele>239.4</ele>
        <time>2021-10-24T08:10:54Z</time>
      </trkpt>
      <trkpt lat="44.22709" lon="4.57976">
        <ele>239.6</ele>
        <time>2021-10-24T08:10:55Z</time>
      </trkpt>
      <trkpt lat="44.22706" lon="4.57974">
        <ele>239.8</ele>
        <time>2021-10-24T08:10:56Z</time>
      </trkpt>
      <trkpt lat="44.22703" lon="4.57971">
        <ele>240</ele>
        <time>2021-10-24T08:10:57Z</time>
      </trkpt>
      <trkpt lat="44.227" lon="4.57969">
        <ele>240.2</ele>
        <time>2021-10-24T08:10:58Z</time>
      </trkpt>
      <trkpt lat="44.22698" lon="4.57966">
        <ele>240.4</ele>
        <time>2021-10-24T08:10:59Z</time>
      </trkpt>
      <trkpt lat="44.22695" lon="4.57963">
        <ele>240.8</ele>
        <time>2021-10-24T08:11:00Z</time>
      </trkpt>
      <trkpt lat="44.22692" lon="4.57959">
        <ele>241</ele>
        <time>2021-10-24T08:11:01Z</time>
      </trkpt>
      <trkpt lat="44.2269" lon="4.57955">
        <ele>241.2</ele>
        <time>2021-10-24T08:11:02Z</time>
      </trkpt>
      <trkpt lat="44.22687" lon="4.57951">
        <ele>241.4</ele>
        <time>2021-10-24T08:11:03Z</time>
      </trkpt>
      <trkpt lat="44.22685" lon="4.57946">
        <ele>241.4</ele>
        <time>2021-10-24T08:11:04Z</time>
      </trkpt>
      <trkpt lat="44.22683" lon="4.57941">
        <ele>241.6</ele>
        <time>2021-10-24T08:11:05Z</time>
      </trkpt>
      <trkpt lat="44.22683" lon="4.57935">
        <ele>241.8</ele>
        <time>2021-10-24T08:11:06Z</time>
      </trkpt>
      <trkpt lat="44.22683" lon="4.57928">
        <ele>241.6</ele>
        <time>2021-10-24T08:11:07Z</time>
      </trkpt>
      <trkpt lat="44.22683" lon="4.57922">
        <ele>242</ele>
        <time>2021-10-24T08:11:08Z</time>
      </trkpt>
      <trkpt lat="44.22684" lon="4.57916">
        <ele>242.2</ele>
        <time>2021-10-24T08:11:09Z</time>
      </trkpt>
      <trkpt lat="44.22686" lon="4.5791">
        <ele>242.4</ele>
        <time>2021-10-24T08:11:10Z</time>
      </trkpt>
      <trkpt lat="44.22687" lon="4.57905">
        <ele>242.6</ele>
        <time>2021-10-24T08:11:11Z</time>
      </trkpt>
      <trkpt lat="44.22689" lon="4.57899">
        <ele>243</ele>
        <time>2021-10-24T08:11:12Z</time>
      </trkpt>
      <trkpt lat="44.2269" lon="4.57893">
        <ele>243</ele>
        <time>2021-10-24T08:11:13Z</time>
      </trkpt>
      <trkpt lat="44.22692" lon="4.57888">
        <ele>243.2</ele>
        <time>2021-10-24T08:11:14Z</time>
      </trkpt>
      <trkpt lat="44.22694" lon="4.57882">
        <ele>243.2</ele>
        <time>2021-10-24T08:11:15Z</time>
      </trkpt>
      <trkpt lat="44.22696" lon="4.57876">
        <ele>243.6</ele>
        <time>2021-10-24T08:11:16Z</time>
      </trkpt>
      <trkpt lat="44.22698" lon="4.5787">
        <ele>243.8</ele>
        <time>2021-10-24T08:11:17Z</time>
      </trkpt>
      <trkpt lat="44.22699" lon="4.57864">
        <ele>243.8</ele>
        <time>2021-10-24T08:11:18Z</time>
      </trkpt>
      <trkpt lat="44.22701" lon="4.57857">
        <ele>244</ele>
        <time>2021-10-24T08:11:19Z</time>
      </trkpt>
      <trkpt lat="44.22702" lon="4.57849">
        <ele>243.8</ele>
        <time>2021-10-24T08:11:20Z</time>
      </trkpt>
      <trkpt lat="44.22703" lon="4.57841">
        <ele>243.8</ele>
        <time>2021-10-24T08:11:21Z</time>
      </trkpt>
      <trkpt lat="44.22703" lon="4.57832">
        <ele>243.8</ele>
        <time>2021-10-24T08:11:22Z</time>
      </trkpt>
      <trkpt lat="44.22704" lon="4.57822">
        <ele>243.8</ele>
        <time>2021-10-24T08:11:23Z</time>
      </trkpt>
      <trkpt lat="44.22705" lon="4.57811">
        <ele>243.8</ele>
        <time>2021-10-24T08:11:24Z</time>
      </trkpt>
      <trkpt lat="44.22707" lon="4.57799">
        <ele>243.6</ele>
        <time>2021-10-24T08:11:25Z</time>
      </trkpt>
      <trkpt lat="44.22708" lon="4.57787">
        <ele>243.4</ele>
        <time>2021-10-24T08:11:26Z</time>
      </trkpt>
      <trkpt lat="44.22711" lon="4.57773">
        <ele>243</ele>
        <time>2021-10-24T08:11:27Z</time>
      </trkpt>
      <trkpt lat="44.22713" lon="4.57759">
        <ele>242.6</ele>
        <time>2021-10-24T08:11:28Z</time>
      </trkpt>
      <trkpt lat="44.22716" lon="4.57745">
        <ele>242.2</ele>
        <time>2021-10-24T08:11:29Z</time>
      </trkpt>
      <trkpt lat="44.22719" lon="4.57731">
        <ele>241.4</ele>
        <time>2021-10-24T08:11:30Z</time>
      </trkpt>
      <trkpt lat="44.22721" lon="4.57718">
        <ele>240.8</ele>
        <time>2021-10-24T08:11:31Z</time>
      </trkpt>
      <trkpt lat="44.22724" lon="4.57705">
        <ele>240.2</ele>
        <time>2021-10-24T08:11:32Z</time>
      </trkpt>
      <trkpt lat="44.22728" lon="4.57691">
        <ele>239.6</ele>
        <time>2021-10-24T08:11:33Z</time>
      </trkpt>
      <trkpt lat="44.22733" lon="4.57676">
        <ele>238.6</ele>
        <time>2021-10-24T08:11:34Z</time>
      </trkpt>
      <trkpt lat="44.22738" lon="4.5766">
        <ele>237.8</ele>
        <time>2021-10-24T08:11:35Z</time>
      </trkpt>
      <trkpt lat="44.22742" lon="4.57645">
        <ele>236.8</ele>
        <time>2021-10-24T08:11:36Z</time>
      </trkpt>
      <trkpt lat="44.22747" lon="4.5763">
        <ele>236</ele>
        <time>2021-10-24T08:11:37Z</time>
      </trkpt>
      <trkpt lat="44.22751" lon="4.57616">
        <ele>235.2</ele>
        <time>2021-10-24T08:11:38Z</time>
      </trkpt>
      <trkpt lat="44.22756" lon="4.57602">
        <ele>234.2</ele>
        <time>2021-10-24T08:11:39Z</time>
      </trkpt>
      <trkpt lat="44.22761" lon="4.57588">
        <ele>233.6</ele>
        <time>2021-10-24T08:11:40Z</time>
      </trkpt>
      <trkpt lat="44.22765" lon="4.57574">
        <ele>232.8</ele>
        <time>2021-10-24T08:11:41Z</time>
      </trkpt>
      <trkpt lat="44.22769" lon="4.57562">
        <ele>232</ele>
        <time>2021-10-24T08:11:42Z</time>
      </trkpt>
      <trkpt lat="44.22773" lon="4.57549">
        <ele>231.6</ele>
        <time>2021-10-24T08:11:43Z</time>
      </trkpt>
      <trkpt lat="44.22776" lon="4.57537">
        <ele>231</ele>
        <time>2021-10-24T08:11:44Z</time>
      </trkpt>
      <trkpt lat="44.2278" lon="4.57525">
        <ele>230.4</ele>
        <time>2021-10-24T08:11:45Z</time>
      </trkpt>
      <trkpt lat="44.22783" lon="4.57513">
        <ele>230.2</ele>
        <time>2021-10-24T08:11:46Z</time>
      </trkpt>
      <trkpt lat="44.22787" lon="4.57501">
        <ele>230.2</ele>
        <time>2021-10-24T08:11:47Z</time>
      </trkpt>
      <trkpt lat="44.2279" lon="4.57489">
        <ele>230</ele>
        <time>2021-10-24T08:11:48Z</time>
      </trkpt>
      <trkpt lat="44.22793" lon="4.57478">
        <ele>229.8</ele>
        <time>2021-10-24T08:11:49Z</time>
      </trkpt>
      <trkpt lat="44.22796" lon="4.57467">
        <ele>229.4</ele>
        <time>2021-10-24T08:11:50Z</time>
      </trkpt>
      <trkpt lat="44.22798" lon="4.57456">
        <ele>229.4</ele>
        <time>2021-10-24T08:11:51Z</time>
      </trkpt>
      <trkpt lat="44.22801" lon="4.57445">
        <ele>229.2</ele>
        <time>2021-10-24T08:11:52Z</time>
      </trkpt>
      <trkpt lat="44.22803" lon="4.57435">
        <ele>229</ele>
        <time>2021-10-24T08:11:53Z</time>
      </trkpt>
      <trkpt lat="44.22806" lon="4.57424">
        <ele>228.8</ele>
        <time>2021-10-24T08:11:54Z</time>
      </trkpt>
      <trkpt lat="44.22808" lon="4.57414">
        <ele>228.8</ele>
        <time>2021-10-24T08:11:55Z</time>
      </trkpt>
      <trkpt lat="44.22811" lon="4.57404">
        <ele>229</ele>
        <time>2021-10-24T08:11:56Z</time>
      </trkpt>
      <trkpt lat="44.22813" lon="4.57395">
        <ele>229.2</ele>
        <time>2021-10-24T08:11:57Z</time>
      </trkpt>
      <trkpt lat="44.22815" lon="4.57385">
        <ele>229.2</ele>
        <time>2021-10-24T08:11:58Z</time>
      </trkpt>
      <trkpt lat="44.22818" lon="4.57376">
        <ele>229</ele>
        <time>2021-10-24T08:11:59Z</time>
      </trkpt>
      <trkpt lat="44.2282" lon="4.57367">
        <ele>229</ele>
        <time>2021-10-24T08:12:00Z</time>
      </trkpt>
      <trkpt lat="44.22821" lon="4.57358">
        <ele>229</ele>
        <time>2021-10-24T08:12:01Z</time>
      </trkpt>
      <trkpt lat="44.22823" lon="4.57349">
        <ele>229.2</ele>
        <time>2021-10-24T08:12:02Z</time>
      </trkpt>
      <trkpt lat="44.22825" lon="4.57341">
        <ele>229.2</ele>
        <time>2021-10-24T08:12:03Z</time>
      </trkpt>
      <trkpt lat="44.22827" lon="4.57332">
        <ele>229.4</ele>
        <time>2021-10-24T08:12:04Z</time>
      </trkpt>
      <trkpt lat="44.22829" lon="4.57324">
        <ele>229.4</ele>
        <time>2021-10-24T08:12:05Z</time>
      </trkpt>
      <trkpt lat="44.2283" lon="4.57317">
        <ele>229.6</ele>
        <time>2021-10-24T08:12:06Z</time>
      </trkpt>
      <trkpt lat="44.22832" lon="4.57309">
        <ele>229.8</ele>
        <time>2021-10-24T08:12:07Z</time>
      </trkpt>
      <trkpt lat="44.22833" lon="4.57302">
        <ele>230</ele>
        <time>2021-10-24T08:12:08Z</time>
      </trkpt>
      <trkpt lat="44.22835" lon="4.57296">
        <ele>230</ele>
        <time>2021-10-24T08:12:09Z</time>
      </trkpt>
      <trkpt lat="44.22836" lon="4.57289">
        <ele>230.2</ele>
        <time>2021-10-24T08:12:10Z</time>
      </trkpt>
      <trkpt lat="44.22838" lon="4.57283">
        <ele>230.4</ele>
        <time>2021-10-24T08:12:11Z</time>
      </trkpt>
      <trkpt lat="44.22839" lon="4.57277">
        <ele>230.6</ele>
        <time>2021-10-24T08:12:12Z</time>
      </trkpt>
      <trkpt lat="44.2284" lon="4.57271">
        <ele>230.8</ele>
        <time>2021-10-24T08:12:13Z</time>
      </trkpt>
      <trkpt lat="44.22841" lon="4.57265">
        <ele>231.2</ele>
        <time>2021-10-24T08:12:14Z</time>
      </trkpt>
      <trkpt lat="44.22842" lon="4.57258">
        <ele>231.6</ele>
        <time>2021-10-24T08:12:15Z</time>
      </trkpt>
      <trkpt lat="44.2284" lon="4.57252">
        <ele>231.6</ele>
        <time>2021-10-24T08:12:16Z</time>
      </trkpt>
      <trkpt lat="44.22838" lon="4.57247">
        <ele>231.8</ele>
        <time>2021-10-24T08:12:17Z</time>
      </trkpt>
      <trkpt lat="44.22834" lon="4.57244">
        <ele>232</ele>
        <time>2021-10-24T08:12:18Z</time>
      </trkpt>
      <trkpt lat="44.22829" lon="4.57242">
        <ele>232</ele>
        <time>2021-10-24T08:12:19Z</time>
      </trkpt>
      <trkpt lat="44.22825" lon="4.57242">
        <ele>232.4</ele>
        <time>2021-10-24T08:12:20Z</time>
      </trkpt>
      <trkpt lat="44.2282" lon="4.57241">
        <ele>232.6</ele>
        <time>2021-10-24T08:12:21Z</time>
      </trkpt>
      <trkpt lat="44.22814" lon="4.5724">
        <ele>232.8</ele>
        <time>2021-10-24T08:12:22Z</time>
      </trkpt>
      <trkpt lat="44.22809" lon="4.57239">
        <ele>233.4</ele>
        <time>2021-10-24T08:12:23Z</time>
      </trkpt>
      <trkpt lat="44.22804" lon="4.57237">
        <ele>233.6</ele>
        <time>2021-10-24T08:12:24Z</time>
      </trkpt>
      <trkpt lat="44.22799" lon="4.57234">
        <ele>233.6</ele>
        <time>2021-10-24T08:12:25Z</time>
      </trkpt>
      <trkpt lat="44.22793" lon="4.57232">
        <ele>233.8</ele>
        <time>2021-10-24T08:12:26Z</time>
      </trkpt>
      <trkpt lat="44.22788" lon="4.57229">
        <ele>233.8</ele>
        <time>2021-10-24T08:12:27Z</time>
      </trkpt>
      <trkpt lat="44.22783" lon="4.57227">
        <ele>234</ele>
        <time>2021-10-24T08:12:28Z</time>
      </trkpt>
      <trkpt lat="44.22778" lon="4.57224">
        <ele>234.2</ele>
        <time>2021-10-24T08:12:29Z</time>
      </trkpt>
      <trkpt lat="44.22774" lon="4.57221">
        <ele>234.2</ele>
        <time>2021-10-24T08:12:30Z</time>
      </trkpt>
      <trkpt lat="44.22769" lon="4.57217">
        <ele>234.4</ele>
        <time>2021-10-24T08:12:31Z</time>
      </trkpt>
      <trkpt lat="44.22764" lon="4.57215">
        <ele>234.6</ele>
        <time>2021-10-24T08:12:32Z</time>
      </trkpt>
      <trkpt lat="44.2276" lon="4.57213">
        <ele>234.8</ele>
        <time>2021-10-24T08:12:33Z</time>
      </trkpt>
      <trkpt lat="44.22755" lon="4.57212">
        <ele>235.2</ele>
        <time>2021-10-24T08:12:34Z</time>
      </trkpt>
      <trkpt lat="44.22751" lon="4.57211">
        <ele>235.4</ele>
        <time>2021-10-24T08:12:35Z</time>
      </trkpt>
      <trkpt lat="44.22746" lon="4.57209">
        <ele>235.6</ele>
        <time>2021-10-24T08:12:36Z</time>
      </trkpt>
      <trkpt lat="44.22742" lon="4.57208">
        <ele>235.8</ele>
        <time>2021-10-24T08:12:37Z</time>
      </trkpt>
      <trkpt lat="44.22737" lon="4.57207">
        <ele>236.2</ele>
        <time>2021-10-24T08:12:38Z</time>
      </trkpt>
      <trkpt lat="44.22732" lon="4.57206">
        <ele>236.8</ele>
        <time>2021-10-24T08:12:39Z</time>
      </trkpt>
      <trkpt lat="44.22727" lon="4.57205">
        <ele>237</ele>
        <time>2021-10-24T08:12:40Z</time>
      </trkpt>
      <trkpt lat="44.22722" lon="4.57204">
        <ele>237.4</ele>
        <time>2021-10-24T08:12:41Z</time>
      </trkpt>
      <trkpt lat="44.22717" lon="4.57204">
        <ele>237.2</ele>
        <time>2021-10-24T08:12:42Z</time>
      </trkpt>
      <trkpt lat="44.22711" lon="4.57204">
        <ele>237.2</ele>
        <time>2021-10-24T08:12:43Z</time>
      </trkpt>
      <trkpt lat="44.22705" lon="4.57204">
        <ele>237.4</ele>
        <time>2021-10-24T08:12:44Z</time>
      </trkpt>
      <trkpt lat="44.227" lon="4.57204">
        <ele>237.4</ele>
        <time>2021-10-24T08:12:45Z</time>
      </trkpt>
      <trkpt lat="44.22694" lon="4.57204">
        <ele>237.4</ele>
        <time>2021-10-24T08:12:46Z</time>
      </trkpt>
      <trkpt lat="44.22688" lon="4.57204">
        <ele>237.2</ele>
        <time>2021-10-24T08:12:47Z</time>
      </trkpt>
      <trkpt lat="44.22682" lon="4.57203">
        <ele>237.4</ele>
        <time>2021-10-24T08:12:48Z</time>
      </trkpt>
      <trkpt lat="44.22676" lon="4.57203">
        <ele>237.4</ele>
        <time>2021-10-24T08:12:49Z</time>
      </trkpt>
      <trkpt lat="44.22671" lon="4.57201">
        <ele>237.4</ele>
        <time>2021-10-24T08:12:50Z</time>
      </trkpt>
      <trkpt lat="44.22666" lon="4.57201">
        <ele>237.2</ele>
        <time>2021-10-24T08:12:51Z</time>
      </trkpt>
      <trkpt lat="44.22662" lon="4.572">
        <ele>237.2</ele>
        <time>2021-10-24T08:12:52Z</time>
      </trkpt>
      <trkpt lat="44.2266" lon="4.57201">
        <ele>237</ele>
        <time>2021-10-24T08:12:53Z</time>
      </trkpt>
      <trkpt lat="44.22663" lon="4.572">
        <ele>234.8</ele>
        <time>2021-10-24T08:13:33Z</time>
      </trkpt>
      <trkpt lat="44.22666" lon="4.57201">
        <ele>234.8</ele>
        <time>2021-10-24T08:13:35Z</time>
      </trkpt>
      <trkpt lat="44.22668" lon="4.57201">
        <ele>234.6</ele>
        <time>2021-10-24T08:13:36Z</time>
      </trkpt>
      <trkpt lat="44.2267" lon="4.57201">
        <ele>234.8</ele>
        <time>2021-10-24T08:13:37Z</time>
      </trkpt>
      <trkpt lat="44.22672" lon="4.57202">
        <ele>235.2</ele>
        <time>2021-10-24T08:13:38Z</time>
      </trkpt>
      <trkpt lat="44.22675" lon="4.57203">
        <ele>235.4</ele>
        <time>2021-10-24T08:13:39Z</time>
      </trkpt>
      <trkpt lat="44.22677" lon="4.57203">
        <ele>235.6</ele>
        <time>2021-10-24T08:13:40Z</time>
      </trkpt>
      <trkpt lat="44.2268" lon="4.57203">
        <ele>235.8</ele>
        <time>2021-10-24T08:13:41Z</time>
      </trkpt>
      <trkpt lat="44.22683" lon="4.57203">
        <ele>236</ele>
        <time>2021-10-24T08:13:42Z</time>
      </trkpt>
      <trkpt lat="44.22686" lon="4.57201">
        <ele>236</ele>
        <time>2021-10-24T08:13:43Z</time>
      </trkpt>
      <trkpt lat="44.2269" lon="4.57201">
        <ele>236.2</ele>
        <time>2021-10-24T08:13:44Z</time>
      </trkpt>
      <trkpt lat="44.22695" lon="4.572">
        <ele>236.6</ele>
        <time>2021-10-24T08:13:45Z</time>
      </trkpt>
      <trkpt lat="44.227" lon="4.572">
        <ele>236.6</ele>
        <time>2021-10-24T08:13:46Z</time>
      </trkpt>
      <trkpt lat="44.22705" lon="4.57201">
        <ele>236.8</ele>
        <time>2021-10-24T08:13:47Z</time>
      </trkpt>
      <trkpt lat="44.22711" lon="4.57202">
        <ele>236.8</ele>
        <time>2021-10-24T08:13:48Z</time>
      </trkpt>
      <trkpt lat="44.22717" lon="4.57204">
        <ele>237</ele>
        <time>2021-10-24T08:13:49Z</time>
      </trkpt>
      <trkpt lat="44.22724" lon="4.57205">
        <ele>237.2</ele>
        <time>2021-10-24T08:13:50Z</time>
      </trkpt>
      <trkpt lat="44.2273" lon="4.57207">
        <ele>237.4</ele>
        <time>2021-10-24T08:13:51Z</time>
      </trkpt>
      <trkpt lat="44.22736" lon="4.57209">
        <ele>237.8</ele>
        <time>2021-10-24T08:13:52Z</time>
      </trkpt>
      <trkpt lat="44.22742" lon="4.5721">
        <ele>237.8</ele>
        <time>2021-10-24T08:13:53Z</time>
      </trkpt>
      <trkpt lat="44.22748" lon="4.57212">
        <ele>238</ele>
        <time>2021-10-24T08:13:54Z</time>
      </trkpt>
      <trkpt lat="44.22755" lon="4.57215">
        <ele>238.2</ele>
        <time>2021-10-24T08:13:55Z</time>
      </trkpt>
      <trkpt lat="44.22763" lon="4.57218">
        <ele>238.4</ele>
        <time>2021-10-24T08:13:56Z</time>
      </trkpt>
      <trkpt lat="44.2277" lon="4.57222">
        <ele>238.4</ele>
        <time>2021-10-24T08:13:57Z</time>
      </trkpt>
      <trkpt lat="44.22778" lon="4.57227">
        <ele>238.2</ele>
        <time>2021-10-24T08:13:58Z</time>
      </trkpt>
      <trkpt lat="44.22786" lon="4.57232">
        <ele>238</ele>
        <time>2021-10-24T08:13:59Z</time>
      </trkpt>
      <trkpt lat="44.22794" lon="4.57237">
        <ele>237.8</ele>
        <time>2021-10-24T08:14:00Z</time>
      </trkpt>
      <trkpt lat="44.22802" lon="4.57241">
        <ele>237.8</ele>
        <time>2021-10-24T08:14:01Z</time>
      </trkpt>
      <trkpt lat="44.2281" lon="4.57244">
        <ele>237.4</ele>
        <time>2021-10-24T08:14:02Z</time>
      </trkpt>
      <trkpt lat="44.22817" lon="4.57246">
        <ele>237.2</ele>
        <time>2021-10-24T08:14:03Z</time>
      </trkpt>
      <trkpt lat="44.22824" lon="4.57248">
        <ele>236.8</ele>
        <time>2021-10-24T08:14:04Z</time>
      </trkpt>
      <trkpt lat="44.22831" lon="4.57248">
        <ele>236.4</ele>
        <time>2021-10-24T08:14:05Z</time>
      </trkpt>
      <trkpt lat="44.22837" lon="4.57247">
        <ele>236.2</ele>
        <time>2021-10-24T08:14:06Z</time>
      </trkpt>
      <trkpt lat="44.22841" lon="4.57245">
        <ele>236</ele>
        <time>2021-10-24T08:14:07Z</time>
      </trkpt>
      <trkpt lat="44.22845" lon="4.5724">
        <ele>235.6</ele>
        <time>2021-10-24T08:14:08Z</time>
      </trkpt>
      <trkpt lat="44.22847" lon="4.57234">
        <ele>235</ele>
        <time>2021-10-24T08:14:09Z</time>
      </trkpt>
      <trkpt lat="44.22849" lon="4.57227">
        <ele>234.8</ele>
        <time>2021-10-24T08:14:10Z</time>
      </trkpt>
      <trkpt lat="44.2285" lon="4.57222">
        <ele>234.6</ele>
        <time>2021-10-24T08:14:11Z</time>
      </trkpt>
      <trkpt lat="44.22851" lon="4.57217">
        <ele>234.2</ele>
        <time>2021-10-24T08:14:12Z</time>
      </trkpt>
      <trkpt lat="44.22852" lon="4.57212">
        <ele>234.2</ele>
        <time>2021-10-24T08:14:13Z</time>
      </trkpt>
      <trkpt lat="44.22853" lon="4.57208">
        <ele>234.4</ele>
        <time>2021-10-24T08:14:14Z</time>
      </trkpt>
      <trkpt lat="44.22855" lon="4.57204">
        <ele>234.4</ele>
        <time>2021-10-24T08:14:15Z</time>
      </trkpt>
      <trkpt lat="44.22856" lon="4.572">
        <ele>234.8</ele>
        <time>2021-10-24T08:14:16Z</time>
      </trkpt>
      <trkpt lat="44.22858" lon="4.57196">
        <ele>235</ele>
        <time>2021-10-24T08:14:17Z</time>
      </trkpt>
      <trkpt lat="44.22859" lon="4.57193">
        <ele>235.4</ele>
        <time>2021-10-24T08:14:18Z</time>
      </trkpt>
      <trkpt lat="44.22861" lon="4.5719">
        <ele>235.4</ele>
        <time>2021-10-24T08:14:19Z</time>
      </trkpt>
      <trkpt lat="44.22863" lon="4.57187">
        <ele>235.8</ele>
        <time>2021-10-24T08:14:20Z</time>
      </trkpt>
      <trkpt lat="44.22865" lon="4.57183">
        <ele>236.2</ele>
        <time>2021-10-24T08:14:21Z</time>
      </trkpt>
      <trkpt lat="44.22867" lon="4.5718">
        <ele>236.6</ele>
        <time>2021-10-24T08:14:22Z</time>
      </trkpt>
      <trkpt lat="44.2287" lon="4.57177">
        <ele>237</ele>
        <time>2021-10-24T08:14:23Z</time>
      </trkpt>
      <trkpt lat="44.22872" lon="4.57174">
        <ele>237.2</ele>
        <time>2021-10-24T08:14:24Z</time>
      </trkpt>
      <trkpt lat="44.22874" lon="4.57171">
        <ele>237.4</ele>
        <time>2021-10-24T08:14:25Z</time>
      </trkpt>
      <trkpt lat="44.22876" lon="4.57168">
        <ele>237.6</ele>
        <time>2021-10-24T08:14:26Z</time>
      </trkpt>
      <trkpt lat="44.22878" lon="4.57165">
        <ele>238</ele>
        <time>2021-10-24T08:14:27Z</time>
      </trkpt>
      <trkpt lat="44.2288" lon="4.57162">
        <ele>238.4</ele>
        <time>2021-10-24T08:14:28Z</time>
      </trkpt>
      <trkpt lat="44.22882" lon="4.57159">
        <ele>238.6</ele>
        <time>2021-10-24T08:14:29Z</time>
      </trkpt>
      <trkpt lat="44.22884" lon="4.57156">
        <ele>239</ele>
        <time>2021-10-24T08:14:30Z</time>
      </trkpt>
      <trkpt lat="44.22886" lon="4.57153">
        <ele>239.2</ele>
        <time>2021-10-24T08:14:31Z</time>
      </trkpt>
      <trkpt lat="44.22888" lon="4.5715">
        <ele>239.4</ele>
        <time>2021-10-24T08:14:32Z</time>
      </trkpt>
      <trkpt lat="44.2289" lon="4.57147">
        <ele>239.8</ele>
        <time>2021-10-24T08:14:33Z</time>
      </trkpt>
      <trkpt lat="44.22892" lon="4.57144">
        <ele>240.2</ele>
        <time>2021-10-24T08:14:34Z</time>
      </trkpt>
      <trkpt lat="44.22893" lon="4.57141">
        <ele>240.6</ele>
        <time>2021-10-24T08:14:35Z</time>
      </trkpt>
      <trkpt lat="44.22895" lon="4.57138">
        <ele>240.6</ele>
        <time>2021-10-24T08:14:36Z</time>
      </trkpt>
      <trkpt lat="44.22896" lon="4.57134">
        <ele>241</ele>
        <time>2021-10-24T08:14:37Z</time>
      </trkpt>
      <trkpt lat="44.22897" lon="4.5713">
        <ele>241.4</ele>
        <time>2021-10-24T08:14:38Z</time>
      </trkpt>
      <trkpt lat="44.22898" lon="4.57126">
        <ele>241.8</ele>
        <time>2021-10-24T08:14:39Z</time>
      </trkpt>
      <trkpt lat="44.22898" lon="4.57122">
        <ele>242.2</ele>
        <time>2021-10-24T08:14:40Z</time>
      </trkpt>
      <trkpt lat="44.22899" lon="4.57118">
        <ele>242.2</ele>
        <time>2021-10-24T08:14:41Z</time>
      </trkpt>
      <trkpt lat="44.229" lon="4.57113">
        <ele>242.6</ele>
        <time>2021-10-24T08:14:42Z</time>
      </trkpt>
      <trkpt lat="44.22901" lon="4.57109">
        <ele>243</ele>
        <time>2021-10-24T08:14:43Z</time>
      </trkpt>
      <trkpt lat="44.22901" lon="4.57104">
        <ele>243.4</ele>
        <time>2021-10-24T08:14:44Z</time>
      </trkpt>
      <trkpt lat="44.22901" lon="4.571">
        <ele>243.6</ele>
        <time>2021-10-24T08:14:45Z</time>
      </trkpt>
      <trkpt lat="44.22902" lon="4.57096">
        <ele>243.6</ele>
        <time>2021-10-24T08:14:46Z</time>
      </trkpt>
      <trkpt lat="44.22903" lon="4.57092">
        <ele>243.8</ele>
        <time>2021-10-24T08:14:47Z</time>
      </trkpt>
      <trkpt lat="44.22904" lon="4.57088">
        <ele>244.2</ele>
        <time>2021-10-24T08:14:48Z</time>
      </trkpt>
      <trkpt lat="44.22904" lon="4.57083">
        <ele>244.2</ele>
        <time>2021-10-24T08:14:49Z</time>
      </trkpt>
      <trkpt lat="44.22906" lon="4.57079">
        <ele>244.4</ele>
        <time>2021-10-24T08:14:50Z</time>
      </trkpt>
      <trkpt lat="44.22907" lon="4.57075">
        <ele>244.6</ele>
        <time>2021-10-24T08:14:51Z</time>
      </trkpt>
      <trkpt lat="44.22907" lon="4.57071">
        <ele>244.8</ele>
        <time>2021-10-24T08:14:52Z</time>
      </trkpt>
      <trkpt lat="44.22908" lon="4.57067">
        <ele>245.2</ele>
        <time>2021-10-24T08:14:53Z</time>
      </trkpt>
      <trkpt lat="44.22909" lon="4.57062">
        <ele>245.6</ele>
        <time>2021-10-24T08:14:54Z</time>
      </trkpt>
      <trkpt lat="44.22909" lon="4.57058">
        <ele>245.8</ele>
        <time>2021-10-24T08:14:55Z</time>
      </trkpt>
      <trkpt lat="44.2291" lon="4.57054">
        <ele>246</ele>
        <time>2021-10-24T08:14:56Z</time>
      </trkpt>
      <trkpt lat="44.22911" lon="4.5705">
        <ele>246.2</ele>
        <time>2021-10-24T08:14:57Z</time>
      </trkpt>
      <trkpt lat="44.22911" lon="4.57046">
        <ele>246.6</ele>
        <time>2021-10-24T08:14:58Z</time>
      </trkpt>
      <trkpt lat="44.22912" lon="4.57042">
        <ele>246.8</ele>
        <time>2021-10-24T08:14:59Z</time>
      </trkpt>
      <trkpt lat="44.22914" lon="4.57038">
        <ele>247.2</ele>
        <time>2021-10-24T08:15:00Z</time>
      </trkpt>
      <trkpt lat="44.22915" lon="4.57034">
        <ele>247.6</ele>
        <time>2021-10-24T08:15:01Z</time>
      </trkpt>
      <trkpt lat="44.22916" lon="4.5703">
        <ele>248</ele>
        <time>2021-10-24T08:15:02Z</time>
      </trkpt>
      <trkpt lat="44.22918" lon="4.57026">
        <ele>248.4</ele>
        <time>2021-10-24T08:15:03Z</time>
      </trkpt>
      <trkpt lat="44.22918" lon="4.57022">
        <ele>248.6</ele>
        <time>2021-10-24T08:15:04Z</time>
      </trkpt>
      <trkpt lat="44.22919" lon="4.57018">
        <ele>249</ele>
        <time>2021-10-24T08:15:05Z</time>
      </trkpt>
      <trkpt lat="44.2292" lon="4.57013">
        <ele>249.2</ele>
        <time>2021-10-24T08:15:06Z</time>
      </trkpt>
      <trkpt lat="44.22921" lon="4.57009">
        <ele>249.2</ele>
        <time>2021-10-24T08:15:07Z</time>
      </trkpt>
      <trkpt lat="44.22921" lon="4.57005">
        <ele>249.6</ele>
        <time>2021-10-24T08:15:08Z</time>
      </trkpt>
      <trkpt lat="44.22922" lon="4.57">
        <ele>250</ele>
        <time>2021-10-24T08:15:09Z</time>
      </trkpt>
      <trkpt lat="44.22924" lon="4.56995">
        <ele>250.2</ele>
        <time>2021-10-24T08:15:10Z</time>
      </trkpt>
      <trkpt lat="44.22926" lon="4.56989">
        <ele>250.4</ele>
        <time>2021-10-24T08:15:11Z</time>
      </trkpt>
      <trkpt lat="44.22928" lon="4.56984">
        <ele>250.8</ele>
        <time>2021-10-24T08:15:12Z</time>
      </trkpt>
      <trkpt lat="44.2293" lon="4.56979">
        <ele>250.8</ele>
        <time>2021-10-24T08:15:13Z</time>
      </trkpt>
      <trkpt lat="44.22932" lon="4.56974">
        <ele>251.2</ele>
        <time>2021-10-24T08:15:14Z</time>
      </trkpt>
      <trkpt lat="44.22934" lon="4.56969">
        <ele>251.6</ele>
        <time>2021-10-24T08:15:15Z</time>
      </trkpt>
      <trkpt lat="44.22936" lon="4.56964">
        <ele>251.4</ele>
        <time>2021-10-24T08:15:16Z</time>
      </trkpt>
      <trkpt lat="44.22938" lon="4.56958">
        <ele>251.6</ele>
        <time>2021-10-24T08:15:17Z</time>
      </trkpt>
      <trkpt lat="44.2294" lon="4.56953">
        <ele>251.8</ele>
        <time>2021-10-24T08:15:18Z</time>
      </trkpt>
      <trkpt lat="44.22942" lon="4.56949">
        <ele>252</ele>
        <time>2021-10-24T08:15:19Z</time>
      </trkpt>
      <trkpt lat="44.22944" lon="4.56944">
        <ele>252.2</ele>
        <time>2021-10-24T08:15:20Z</time>
      </trkpt>
      <trkpt lat="44.22946" lon="4.56939">
        <ele>252.4</ele>
        <time>2021-10-24T08:15:21Z</time>
      </trkpt>
      <trkpt lat="44.22948" lon="4.56934">
        <ele>252.4</ele>
        <time>2021-10-24T08:15:22Z</time>
      </trkpt>
      <trkpt lat="44.2295" lon="4.5693">
        <ele>252.4</ele>
        <time>2021-10-24T08:15:23Z</time>
      </trkpt>
      <trkpt lat="44.22953" lon="4.56925">
        <ele>252.6</ele>
        <time>2021-10-24T08:15:24Z</time>
      </trkpt>
      <trkpt lat="44.22955" lon="4.56921">
        <ele>252.8</ele>
        <time>2021-10-24T08:15:25Z</time>
      </trkpt>
      <trkpt lat="44.22957" lon="4.56916">
        <ele>252.8</ele>
        <time>2021-10-24T08:15:26Z</time>
      </trkpt>
      <trkpt lat="44.22959" lon="4.56911">
        <ele>253</ele>
        <time>2021-10-24T08:15:27Z</time>
      </trkpt>
      <trkpt lat="44.22961" lon="4.56907">
        <ele>253</ele>
        <time>2021-10-24T08:15:28Z</time>
      </trkpt>
      <trkpt lat="44.22963" lon="4.56902">
        <ele>253.2</ele>
        <time>2021-10-24T08:15:29Z</time>
      </trkpt>
      <trkpt lat="44.22965" lon="4.56897">
        <ele>253.2</ele>
        <time>2021-10-24T08:15:30Z</time>
      </trkpt>
      <trkpt lat="44.22967" lon="4.56892">
        <ele>253.4</ele>
        <time>2021-10-24T08:15:31Z</time>
      </trkpt>
      <trkpt lat="44.2297" lon="4.56887">
        <ele>253.6</ele>
        <time>2021-10-24T08:15:32Z</time>
      </trkpt>
      <trkpt lat="44.22972" lon="4.56882">
        <ele>253.8</ele>
        <time>2021-10-24T08:15:33Z</time>
      </trkpt>
      <trkpt lat="44.22975" lon="4.56876">
        <ele>254.2</ele>
        <time>2021-10-24T08:15:34Z</time>
      </trkpt>
      <trkpt lat="44.22978" lon="4.56871">
        <ele>254.4</ele>
        <time>2021-10-24T08:15:35Z</time>
      </trkpt>
      <trkpt lat="44.2298" lon="4.56865">
        <ele>254.6</ele>
        <time>2021-10-24T08:15:36Z</time>
      </trkpt>
      <trkpt lat="44.22982" lon="4.56859">
        <ele>254.8</ele>
        <time>2021-10-24T08:15:37Z</time>
      </trkpt>
      <trkpt lat="44.22985" lon="4.56853">
        <ele>255</ele>
        <time>2021-10-24T08:15:38Z</time>
      </trkpt>
      <trkpt lat="44.22988" lon="4.56847">
        <ele>255.2</ele>
        <time>2021-10-24T08:15:39Z</time>
      </trkpt>
      <trkpt lat="44.22991" lon="4.56841">
        <ele>255.4</ele>
        <time>2021-10-24T08:15:40Z</time>
      </trkpt>
      <trkpt lat="44.22993" lon="4.56835">
        <ele>255.4</ele>
        <time>2021-10-24T08:15:41Z</time>
      </trkpt>
      <trkpt lat="44.22995" lon="4.56829">
        <ele>255.6</ele>
        <time>2021-10-24T08:15:42Z</time>
      </trkpt>
      <trkpt lat="44.22997" lon="4.56822">
        <ele>255.8</ele>
        <time>2021-10-24T08:15:43Z</time>
      </trkpt>
      <trkpt lat="44.22998" lon="4.56816">
        <ele>255.8</ele>
        <time>2021-10-24T08:15:44Z</time>
      </trkpt>
      <trkpt lat="44.22999" lon="4.56809">
        <ele>256</ele>
        <time>2021-10-24T08:15:45Z</time>
      </trkpt>
      <trkpt lat="44.23" lon="4.56802">
        <ele>256.2</ele>
        <time>2021-10-24T08:15:46Z</time>
      </trkpt>
      <trkpt lat="44.23001" lon="4.56796">
        <ele>256.6</ele>
        <time>2021-10-24T08:15:47Z</time>
      </trkpt>
      <trkpt lat="44.23002" lon="4.5679">
        <ele>256.8</ele>
        <time>2021-10-24T08:15:48Z</time>
      </trkpt>
      <trkpt lat="44.23003" lon="4.56783">
        <ele>256.8</ele>
        <time>2021-10-24T08:15:49Z</time>
      </trkpt>
      <trkpt lat="44.23004" lon="4.56777">
        <ele>257</ele>
        <time>2021-10-24T08:15:50Z</time>
      </trkpt>
      <trkpt lat="44.23005" lon="4.56771">
        <ele>257</ele>
        <time>2021-10-24T08:15:51Z</time>
      </trkpt>
      <trkpt lat="44.23006" lon="4.56765">
        <ele>257.4</ele>
        <time>2021-10-24T08:15:52Z</time>
      </trkpt>
      <trkpt lat="44.23007" lon="4.56759">
        <ele>257.6</ele>
        <time>2021-10-24T08:15:53Z</time>
      </trkpt>
      <trkpt lat="44.23008" lon="4.56753">
        <ele>258</ele>
        <time>2021-10-24T08:15:54Z</time>
      </trkpt>
      <trkpt lat="44.23009" lon="4.56747">
        <ele>258.4</ele>
        <time>2021-10-24T08:15:55Z</time>
      </trkpt>
      <trkpt lat="44.23009" lon="4.56742">
        <ele>258.8</ele>
        <time>2021-10-24T08:15:56Z</time>
      </trkpt>
      <trkpt lat="44.23011" lon="4.56737">
        <ele>259.2</ele>
        <time>2021-10-24T08:15:57Z</time>
      </trkpt>
      <trkpt lat="44.23011" lon="4.56732">
        <ele>259.4</ele>
        <time>2021-10-24T08:15:58Z</time>
      </trkpt>
      <trkpt lat="44.23011" lon="4.56728">
        <ele>259.8</ele>
        <time>2021-10-24T08:15:59Z</time>
      </trkpt>
      <trkpt lat="44.23018" lon="4.56714">
        <ele>260.8</ele>
        <time>2021-10-24T08:16:03Z</time>
      </trkpt>
      <trkpt lat="44.23019" lon="4.56711">
        <ele>260.8</ele>
        <time>2021-10-24T08:16:04Z</time>
      </trkpt>
      <trkpt lat="44.23016" lon="4.56703">
        <ele>262.2</ele>
        <time>2021-10-24T08:16:07Z</time>
      </trkpt>
      <trkpt lat="44.23013" lon="4.56698">
        <ele>262.6</ele>
        <time>2021-10-24T08:16:08Z</time>
      </trkpt>
      <trkpt lat="44.2301" lon="4.56691">
        <ele>262.8</ele>
        <time>2021-10-24T08:16:09Z</time>
      </trkpt>
      <trkpt lat="44.23006" lon="4.56685">
        <ele>263</ele>
        <time>2021-10-24T08:16:10Z</time>
      </trkpt>
      <trkpt lat="44.23003" lon="4.56678">
        <ele>263.4</ele>
        <time>2021-10-24T08:16:11Z</time>
      </trkpt>
      <trkpt lat="44.23" lon="4.5667">
        <ele>263.6</ele>
        <time>2021-10-24T08:16:12Z</time>
      </trkpt>
      <trkpt lat="44.22997" lon="4.56663">
        <ele>264</ele>
        <time>2021-10-24T08:16:13Z</time>
      </trkpt>
      <trkpt lat="44.22993" lon="4.56655">
        <ele>264.4</ele>
        <time>2021-10-24T08:16:14Z</time>
      </trkpt>
      <trkpt lat="44.2299" lon="4.56647">
        <ele>264.8</ele>
        <time>2021-10-24T08:16:15Z</time>
      </trkpt>
      <trkpt lat="44.22988" lon="4.56639">
        <ele>264.8</ele>
        <time>2021-10-24T08:16:16Z</time>
      </trkpt>
      <trkpt lat="44.22985" lon="4.56631">
        <ele>264.8</ele>
        <time>2021-10-24T08:16:17Z</time>
      </trkpt>
      <trkpt lat="44.22982" lon="4.56623">
        <ele>264.8</ele>
        <time>2021-10-24T08:16:18Z</time>
      </trkpt>
      <trkpt lat="44.22978" lon="4.56614">
        <ele>264.6</ele>
        <time>2021-10-24T08:16:19Z</time>
      </trkpt>
      <trkpt lat="44.22973" lon="4.56605">
        <ele>264.6</ele>
        <time>2021-10-24T08:16:20Z</time>
      </trkpt>
      <trkpt lat="44.22968" lon="4.56597">
        <ele>264.6</ele>
        <time>2021-10-24T08:16:21Z</time>
      </trkpt>
      <trkpt lat="44.22963" lon="4.56589">
        <ele>264.6</ele>
        <time>2021-10-24T08:16:22Z</time>
      </trkpt>
      <trkpt lat="44.22957" lon="4.56583">
        <ele>264.8</ele>
        <time>2021-10-24T08:16:23Z</time>
      </trkpt>
      <trkpt lat="44.22952" lon="4.56577">
        <ele>265</ele>
        <time>2021-10-24T08:16:24Z</time>
      </trkpt>
      <trkpt lat="44.22948" lon="4.56572">
        <ele>265.2</ele>
        <time>2021-10-24T08:16:25Z</time>
      </trkpt>
      <trkpt lat="44.22943" lon="4.56567">
        <ele>265.2</ele>
        <time>2021-10-24T08:16:26Z</time>
      </trkpt>
      <trkpt lat="44.22939" lon="4.56562">
        <ele>265.4</ele>
        <time>2021-10-24T08:16:27Z</time>
      </trkpt>
      <trkpt lat="44.22935" lon="4.56556">
        <ele>265.8</ele>
        <time>2021-10-24T08:16:28Z</time>
      </trkpt>
      <trkpt lat="44.22932" lon="4.5655">
        <ele>265.8</ele>
        <time>2021-10-24T08:16:29Z</time>
      </trkpt>
      <trkpt lat="44.22929" lon="4.56544">
        <ele>266.2</ele>
        <time>2021-10-24T08:16:30Z</time>
      </trkpt>
      <trkpt lat="44.22927" lon="4.56537">
        <ele>266.4</ele>
        <time>2021-10-24T08:16:31Z</time>
      </trkpt>
      <trkpt lat="44.22925" lon="4.56529">
        <ele>266.8</ele>
        <time>2021-10-24T08:16:32Z</time>
      </trkpt>
      <trkpt lat="44.22923" lon="4.56522">
        <ele>267.2</ele>
        <time>2021-10-24T08:16:33Z</time>
      </trkpt>
      <trkpt lat="44.22922" lon="4.56513">
        <ele>267.4</ele>
        <time>2021-10-24T08:16:34Z</time>
      </trkpt>
      <trkpt lat="44.22921" lon="4.56495">
        <ele>267.4</ele>
        <time>2021-10-24T08:16:36Z</time>
      </trkpt>
      <trkpt lat="44.2292" lon="4.56486">
        <ele>267.6</ele>
        <time>2021-10-24T08:16:37Z</time>
      </trkpt>
      <trkpt lat="44.2292" lon="4.56469">
        <ele>268</ele>
        <time>2021-10-24T08:16:39Z</time>
      </trkpt>
      <trkpt lat="44.22921" lon="4.5646">
        <ele>268</ele>
        <time>2021-10-24T08:16:40Z</time>
      </trkpt>
      <trkpt lat="44.22922" lon="4.56452">
        <ele>268.2</ele>
        <time>2021-10-24T08:16:41Z</time>
      </trkpt>
      <trkpt lat="44.22923" lon="4.56444">
        <ele>268.4</ele>
        <time>2021-10-24T08:16:42Z</time>
      </trkpt>
      <trkpt lat="44.22923" lon="4.56436">
        <ele>268.6</ele>
        <time>2021-10-24T08:16:43Z</time>
      </trkpt>
      <trkpt lat="44.22923" lon="4.56429">
        <ele>269</ele>
        <time>2021-10-24T08:16:44Z</time>
      </trkpt>
      <trkpt lat="44.22924" lon="4.56422">
        <ele>269</ele>
        <time>2021-10-24T08:16:45Z</time>
      </trkpt>
      <trkpt lat="44.22924" lon="4.56416">
        <ele>269.4</ele>
        <time>2021-10-24T08:16:46Z</time>
      </trkpt>
      <trkpt lat="44.22925" lon="4.5641">
        <ele>269.8</ele>
        <time>2021-10-24T08:16:47Z</time>
      </trkpt>
      <trkpt lat="44.22924" lon="4.56404">
        <ele>270</ele>
        <time>2021-10-24T08:16:48Z</time>
      </trkpt>
      <trkpt lat="44.22924" lon="4.56398">
        <ele>270.4</ele>
        <time>2021-10-24T08:16:49Z</time>
      </trkpt>
      <trkpt lat="44.22923" lon="4.56392">
        <ele>270.6</ele>
        <time>2021-10-24T08:16:50Z</time>
      </trkpt>
      <trkpt lat="44.22922" lon="4.56387">
        <ele>270.8</ele>
        <time>2021-10-24T08:16:51Z</time>
      </trkpt>
      <trkpt lat="44.22921" lon="4.56383">
        <ele>271.4</ele>
        <time>2021-10-24T08:16:52Z</time>
      </trkpt>
      <trkpt lat="44.2292" lon="4.56378">
        <ele>271.4</ele>
        <time>2021-10-24T08:16:53Z</time>
      </trkpt>
      <trkpt lat="44.22919" lon="4.56373">
        <ele>271.8</ele>
        <time>2021-10-24T08:16:54Z</time>
      </trkpt>
      <trkpt lat="44.22917" lon="4.56368">
        <ele>272.2</ele>
        <time>2021-10-24T08:16:55Z</time>
      </trkpt>
      <trkpt lat="44.22916" lon="4.56364">
        <ele>272.6</ele>
        <time>2021-10-24T08:16:56Z</time>
      </trkpt>
      <trkpt lat="44.22915" lon="4.5636">
        <ele>272.8</ele>
        <time>2021-10-24T08:16:57Z</time>
      </trkpt>
      <trkpt lat="44.22914" lon="4.56355">
        <ele>273.2</ele>
        <time>2021-10-24T08:16:58Z</time>
      </trkpt>
      <trkpt lat="44.22912" lon="4.56351">
        <ele>273.6</ele>
        <time>2021-10-24T08:16:59Z</time>
      </trkpt>
      <trkpt lat="44.22911" lon="4.56346">
        <ele>273.8</ele>
        <time>2021-10-24T08:17:00Z</time>
      </trkpt>
      <trkpt lat="44.22909" lon="4.56342">
        <ele>274.2</ele>
        <time>2021-10-24T08:17:01Z</time>
      </trkpt>
      <trkpt lat="44.22907" lon="4.56337">
        <ele>274.4</ele>
        <time>2021-10-24T08:17:02Z</time>
      </trkpt>
      <trkpt lat="44.22905" lon="4.56333">
        <ele>274.6</ele>
        <time>2021-10-24T08:17:03Z</time>
      </trkpt>
      <trkpt lat="44.22904" lon="4.56328">
        <ele>275</ele>
        <time>2021-10-24T08:17:04Z</time>
      </trkpt>
      <trkpt lat="44.22903" lon="4.56324">
        <ele>275.4</ele>
        <time>2021-10-24T08:17:05Z</time>
      </trkpt>
      <trkpt lat="44.22901" lon="4.56319">
        <ele>275.8</ele>
        <time>2021-10-24T08:17:06Z</time>
      </trkpt>
      <trkpt lat="44.229" lon="4.56315">
        <ele>276.2</ele>
        <time>2021-10-24T08:17:07Z</time>
      </trkpt>
      <trkpt lat="44.22898" lon="4.5631">
        <ele>276.6</ele>
        <time>2021-10-24T08:17:08Z</time>
      </trkpt>
      <trkpt lat="44.22897" lon="4.56305">
        <ele>276.8</ele>
        <time>2021-10-24T08:17:09Z</time>
      </trkpt>
      <trkpt lat="44.22897" lon="4.563">
        <ele>277.2</ele>
        <time>2021-10-24T08:17:10Z</time>
      </trkpt>
      <trkpt lat="44.22896" lon="4.56294">
        <ele>277.6</ele>
        <time>2021-10-24T08:17:11Z</time>
      </trkpt>
      <trkpt lat="44.22896" lon="4.56289">
        <ele>278</ele>
        <time>2021-10-24T08:17:12Z</time>
      </trkpt>
      <trkpt lat="44.22896" lon="4.56282">
        <ele>278.4</ele>
        <time>2021-10-24T08:17:13Z</time>
      </trkpt>
      <trkpt lat="44.22896" lon="4.56276">
        <ele>278.4</ele>
        <time>2021-10-24T08:17:14Z</time>
      </trkpt>
      <trkpt lat="44.22896" lon="4.5627">
        <ele>278.6</ele>
        <time>2021-10-24T08:17:15Z</time>
      </trkpt>
      <trkpt lat="44.22896" lon="4.56263">
        <ele>278.6</ele>
        <time>2021-10-24T08:17:16Z</time>
      </trkpt>
      <trkpt lat="44.22897" lon="4.56257">
        <ele>278.6</ele>
        <time>2021-10-24T08:17:17Z</time>
      </trkpt>
      <trkpt lat="44.22898" lon="4.56249">
        <ele>279</ele>
        <time>2021-10-24T08:17:18Z</time>
      </trkpt>
      <trkpt lat="44.22899" lon="4.56242">
        <ele>279.2</ele>
        <time>2021-10-24T08:17:19Z</time>
      </trkpt>
      <trkpt lat="44.229" lon="4.56234">
        <ele>279</ele>
        <time>2021-10-24T08:17:20Z</time>
      </trkpt>
      <trkpt lat="44.229" lon="4.56225">
        <ele>279.2</ele>
        <time>2021-10-24T08:17:21Z</time>
      </trkpt>
      <trkpt lat="44.22901" lon="4.56216">
        <ele>279.2</ele>
        <time>2021-10-24T08:17:22Z</time>
      </trkpt>
      <trkpt lat="44.22902" lon="4.56206">
        <ele>279.2</ele>
        <time>2021-10-24T08:17:23Z</time>
      </trkpt>
      <trkpt lat="44.22903" lon="4.56197">
        <ele>279.2</ele>
        <time>2021-10-24T08:17:24Z</time>
      </trkpt>
      <trkpt lat="44.22904" lon="4.56187">
        <ele>279.2</ele>
        <time>2021-10-24T08:17:25Z</time>
      </trkpt>
      <trkpt lat="44.22905" lon="4.56177">
        <ele>279</ele>
        <time>2021-10-24T08:17:26Z</time>
      </trkpt>
      <trkpt lat="44.22906" lon="4.56168">
        <ele>278.8</ele>
        <time>2021-10-24T08:17:27Z</time>
      </trkpt>
      <trkpt lat="44.22907" lon="4.5616">
        <ele>279.2</ele>
        <time>2021-10-24T08:17:28Z</time>
      </trkpt>
      <trkpt lat="44.22908" lon="4.5615">
        <ele>279</ele>
        <time>2021-10-24T08:17:29Z</time>
      </trkpt>
      <trkpt lat="44.22909" lon="4.56139">
        <ele>279</ele>
        <time>2021-10-24T08:17:30Z</time>
      </trkpt>
      <trkpt lat="44.2291" lon="4.56128">
        <ele>279</ele>
        <time>2021-10-24T08:17:31Z</time>
      </trkpt>
      <trkpt lat="44.22911" lon="4.56117">
        <ele>279</ele>
        <time>2021-10-24T08:17:32Z</time>
      </trkpt>
      <trkpt lat="44.22911" lon="4.56107">
        <ele>279.2</ele>
        <time>2021-10-24T08:17:33Z</time>
      </trkpt>
      <trkpt lat="44.22912" lon="4.56097">
        <ele>279</ele>
        <time>2021-10-24T08:17:34Z</time>
      </trkpt>
      <trkpt lat="44.22911" lon="4.56087">
        <ele>279</ele>
        <time>2021-10-24T08:17:35Z</time>
      </trkpt>
      <trkpt lat="44.22909" lon="4.56078">
        <ele>279.2</ele>
        <time>2021-10-24T08:17:36Z</time>
      </trkpt>
      <trkpt lat="44.22906" lon="4.56071">
        <ele>279.2</ele>
        <time>2021-10-24T08:17:37Z</time>
      </trkpt>
      <trkpt lat="44.22902" lon="4.56065">
        <ele>279.8</ele>
        <time>2021-10-24T08:17:38Z</time>
      </trkpt>
      <trkpt lat="44.22897" lon="4.5606">
        <ele>279.8</ele>
        <time>2021-10-24T08:17:39Z</time>
      </trkpt>
      <trkpt lat="44.22892" lon="4.56057">
        <ele>279.8</ele>
        <time>2021-10-24T08:17:40Z</time>
      </trkpt>
      <trkpt lat="44.22887" lon="4.56056">
        <ele>279.8</ele>
        <time>2021-10-24T08:17:41Z</time>
      </trkpt>
      <trkpt lat="44.22882" lon="4.56055">
        <ele>280.2</ele>
        <time>2021-10-24T08:17:42Z</time>
      </trkpt>
      <trkpt lat="44.22876" lon="4.56053">
        <ele>280.4</ele>
        <time>2021-10-24T08:17:43Z</time>
      </trkpt>
      <trkpt lat="44.22871" lon="4.56053">
        <ele>280.8</ele>
        <time>2021-10-24T08:17:44Z</time>
      </trkpt>
      <trkpt lat="44.22866" lon="4.56053">
        <ele>281</ele>
        <time>2021-10-24T08:17:45Z</time>
      </trkpt>
      <trkpt lat="44.22861" lon="4.56053">
        <ele>281.2</ele>
        <time>2021-10-24T08:17:46Z</time>
      </trkpt>
      <trkpt lat="44.22855" lon="4.56053">
        <ele>281.4</ele>
        <time>2021-10-24T08:17:47Z</time>
      </trkpt>
      <trkpt lat="44.2285" lon="4.56054">
        <ele>281.8</ele>
        <time>2021-10-24T08:17:48Z</time>
      </trkpt>
      <trkpt lat="44.22845" lon="4.56054">
        <ele>282.2</ele>
        <time>2021-10-24T08:17:49Z</time>
      </trkpt>
      <trkpt lat="44.22839" lon="4.56054">
        <ele>282.4</ele>
        <time>2021-10-24T08:17:50Z</time>
      </trkpt>
      <trkpt lat="44.22833" lon="4.56055">
        <ele>282.8</ele>
        <time>2021-10-24T08:17:51Z</time>
      </trkpt>
      <trkpt lat="44.22828" lon="4.56055">
        <ele>283.2</ele>
        <time>2021-10-24T08:17:52Z</time>
      </trkpt>
      <trkpt lat="44.22822" lon="4.56055">
        <ele>283.6</ele>
        <time>2021-10-24T08:17:53Z</time>
      </trkpt>
      <trkpt lat="44.22817" lon="4.56056">
        <ele>283.6</ele>
        <time>2021-10-24T08:17:54Z</time>
      </trkpt>
      <trkpt lat="44.22811" lon="4.56056">
        <ele>283.8</ele>
        <time>2021-10-24T08:17:55Z</time>
      </trkpt>
      <trkpt lat="44.22806" lon="4.56057">
        <ele>284.2</ele>
        <time>2021-10-24T08:17:56Z</time>
      </trkpt>
      <trkpt lat="44.22801" lon="4.56057">
        <ele>284.6</ele>
        <time>2021-10-24T08:17:57Z</time>
      </trkpt>
      <trkpt lat="44.22796" lon="4.56057">
        <ele>285.2</ele>
        <time>2021-10-24T08:17:58Z</time>
      </trkpt>
      <trkpt lat="44.22791" lon="4.56058">
        <ele>285.4</ele>
        <time>2021-10-24T08:17:59Z</time>
      </trkpt>
      <trkpt lat="44.22785" lon="4.56059">
        <ele>285.8</ele>
        <time>2021-10-24T08:18:00Z</time>
      </trkpt>
      <trkpt lat="44.22779" lon="4.56061">
        <ele>286</ele>
        <time>2021-10-24T08:18:01Z</time>
      </trkpt>
      <trkpt lat="44.22774" lon="4.56063">
        <ele>286.2</ele>
        <time>2021-10-24T08:18:02Z</time>
      </trkpt>
      <trkpt lat="44.22768" lon="4.56065">
        <ele>286.2</ele>
        <time>2021-10-24T08:18:03Z</time>
      </trkpt>
      <trkpt lat="44.22762" lon="4.56067">
        <ele>286.2</ele>
        <time>2021-10-24T08:18:04Z</time>
      </trkpt>
      <trkpt lat="44.22756" lon="4.56069">
        <ele>286.2</ele>
        <time>2021-10-24T08:18:05Z</time>
      </trkpt>
      <trkpt lat="44.22749" lon="4.56072">
        <ele>286.2</ele>
        <time>2021-10-24T08:18:06Z</time>
      </trkpt>
      <trkpt lat="44.22743" lon="4.56074">
        <ele>286.2</ele>
        <time>2021-10-24T08:18:07Z</time>
      </trkpt>
      <trkpt lat="44.22736" lon="4.56076">
        <ele>286.2</ele>
        <time>2021-10-24T08:18:08Z</time>
      </trkpt>
      <trkpt lat="44.22729" lon="4.56079">
        <ele>286.2</ele>
        <time>2021-10-24T08:18:09Z</time>
      </trkpt>
      <trkpt lat="44.22722" lon="4.56081">
        <ele>286.4</ele>
        <time>2021-10-24T08:18:10Z</time>
      </trkpt>
      <trkpt lat="44.22715" lon="4.56084">
        <ele>286.4</ele>
        <time>2021-10-24T08:18:11Z</time>
      </trkpt>
      <trkpt lat="44.22707" lon="4.56087">
        <ele>286</ele>
        <time>2021-10-24T08:18:12Z</time>
      </trkpt>
      <trkpt lat="44.227" lon="4.5609">
        <ele>285.8</ele>
        <time>2021-10-24T08:18:13Z</time>
      </trkpt>
      <trkpt lat="44.22692" lon="4.56092">
        <ele>285.6</ele>
        <time>2021-10-24T08:18:14Z</time>
      </trkpt>
      <trkpt lat="44.22684" lon="4.56095">
        <ele>285.4</ele>
        <time>2021-10-24T08:18:15Z</time>
      </trkpt>
      <trkpt lat="44.22676" lon="4.56098">
        <ele>285.2</ele>
        <time>2021-10-24T08:18:16Z</time>
      </trkpt>
      <trkpt lat="44.22667" lon="4.56101">
        <ele>285</ele>
        <time>2021-10-24T08:18:17Z</time>
      </trkpt>
      <trkpt lat="44.22658" lon="4.56103">
        <ele>284.8</ele>
        <time>2021-10-24T08:18:18Z</time>
      </trkpt>
      <trkpt lat="44.22649" lon="4.56104">
        <ele>284.6</ele>
        <time>2021-10-24T08:18:19Z</time>
      </trkpt>
      <trkpt lat="44.2264" lon="4.56104">
        <ele>284.2</ele>
        <time>2021-10-24T08:18:20Z</time>
      </trkpt>
      <trkpt lat="44.2263" lon="4.56102">
        <ele>284</ele>
        <time>2021-10-24T08:18:21Z</time>
      </trkpt>
      <trkpt lat="44.22621" lon="4.56099">
        <ele>283.8</ele>
        <time>2021-10-24T08:18:22Z</time>
      </trkpt>
      <trkpt lat="44.22612" lon="4.56092">
        <ele>283.4</ele>
        <time>2021-10-24T08:18:23Z</time>
      </trkpt>
      <trkpt lat="44.22604" lon="4.56084">
        <ele>283</ele>
        <time>2021-10-24T08:18:24Z</time>
      </trkpt>
      <trkpt lat="44.22597" lon="4.56075">
        <ele>282.4</ele>
        <time>2021-10-24T08:18:25Z</time>
      </trkpt>
      <trkpt lat="44.22589" lon="4.56065">
        <ele>282</ele>
        <time>2021-10-24T08:18:26Z</time>
      </trkpt>
      <trkpt lat="44.22582" lon="4.56056">
        <ele>281.8</ele>
        <time>2021-10-24T08:18:27Z</time>
      </trkpt>
      <trkpt lat="44.22574" lon="4.56048">
        <ele>281.2</ele>
        <time>2021-10-24T08:18:28Z</time>
      </trkpt>
      <trkpt lat="44.22567" lon="4.5604">
        <ele>280.8</ele>
        <time>2021-10-24T08:18:29Z</time>
      </trkpt>
      <trkpt lat="44.22559" lon="4.56032">
        <ele>280.4</ele>
        <time>2021-10-24T08:18:30Z</time>
      </trkpt>
      <trkpt lat="44.22551" lon="4.56025">
        <ele>280.2</ele>
        <time>2021-10-24T08:18:31Z</time>
      </trkpt>
      <trkpt lat="44.22543" lon="4.56018">
        <ele>280</ele>
        <time>2021-10-24T08:18:32Z</time>
      </trkpt>
      <trkpt lat="44.22536" lon="4.56011">
        <ele>279.8</ele>
        <time>2021-10-24T08:18:33Z</time>
      </trkpt>
      <trkpt lat="44.22528" lon="4.56004">
        <ele>279.6</ele>
        <time>2021-10-24T08:18:34Z</time>
      </trkpt>
      <trkpt lat="44.22521" lon="4.55997">
        <ele>279.2</ele>
        <time>2021-10-24T08:18:35Z</time>
      </trkpt>
      <trkpt lat="44.22514" lon="4.55989">
        <ele>278.8</ele>
        <time>2021-10-24T08:18:36Z</time>
      </trkpt>
      <trkpt lat="44.22507" lon="4.55981">
        <ele>278.8</ele>
        <time>2021-10-24T08:18:37Z</time>
      </trkpt>
      <trkpt lat="44.22501" lon="4.55973">
        <ele>278.8</ele>
        <time>2021-10-24T08:18:38Z</time>
      </trkpt>
      <trkpt lat="44.22494" lon="4.55964">
        <ele>278.6</ele>
        <time>2021-10-24T08:18:39Z</time>
      </trkpt>
      <trkpt lat="44.22488" lon="4.55957">
        <ele>278.6</ele>
        <time>2021-10-24T08:18:40Z</time>
      </trkpt>
      <trkpt lat="44.22481" lon="4.55949">
        <ele>279</ele>
        <time>2021-10-24T08:18:41Z</time>
      </trkpt>
      <trkpt lat="44.22474" lon="4.55943">
        <ele>279.2</ele>
        <time>2021-10-24T08:18:42Z</time>
      </trkpt>
      <trkpt lat="44.22466" lon="4.55936">
        <ele>278.8</ele>
        <time>2021-10-24T08:18:43Z</time>
      </trkpt>
      <trkpt lat="44.22458" lon="4.5593">
        <ele>278.4</ele>
        <time>2021-10-24T08:18:44Z</time>
      </trkpt>
      <trkpt lat="44.22451" lon="4.55925">
        <ele>278.2</ele>
        <time>2021-10-24T08:18:45Z</time>
      </trkpt>
      <trkpt lat="44.22443" lon="4.55919">
        <ele>278</ele>
        <time>2021-10-24T08:18:46Z</time>
      </trkpt>
      <trkpt lat="44.22435" lon="4.55914">
        <ele>277.8</ele>
        <time>2021-10-24T08:18:47Z</time>
      </trkpt>
      <trkpt lat="44.22426" lon="4.55909">
        <ele>277.8</ele>
        <time>2021-10-24T08:18:48Z</time>
      </trkpt>
      <trkpt lat="44.22418" lon="4.55904">
        <ele>277.8</ele>
        <time>2021-10-24T08:18:49Z</time>
      </trkpt>
      <trkpt lat="44.22411" lon="4.55898">
        <ele>278</ele>
        <time>2021-10-24T08:18:50Z</time>
      </trkpt>
      <trkpt lat="44.22403" lon="4.55893">
        <ele>277.8</ele>
        <time>2021-10-24T08:18:51Z</time>
      </trkpt>
      <trkpt lat="44.22396" lon="4.55887">
        <ele>277.6</ele>
        <time>2021-10-24T08:18:52Z</time>
      </trkpt>
      <trkpt lat="44.22388" lon="4.55881">
        <ele>277.6</ele>
        <time>2021-10-24T08:18:53Z</time>
      </trkpt>
      <trkpt lat="44.22381" lon="4.55875">
        <ele>277.8</ele>
        <time>2021-10-24T08:18:54Z</time>
      </trkpt>
      <trkpt lat="44.22375" lon="4.55869">
        <ele>278.2</ele>
        <time>2021-10-24T08:18:55Z</time>
      </trkpt>
      <trkpt lat="44.22369" lon="4.55862">
        <ele>278.6</ele>
        <time>2021-10-24T08:18:56Z</time>
      </trkpt>
      <trkpt lat="44.22363" lon="4.55856">
        <ele>278.8</ele>
        <time>2021-10-24T08:18:57Z</time>
      </trkpt>
      <trkpt lat="44.22357" lon="4.55849">
        <ele>279.2</ele>
        <time>2021-10-24T08:18:58Z</time>
      </trkpt>
      <trkpt lat="44.22351" lon="4.55843">
        <ele>279.4</ele>
        <time>2021-10-24T08:18:59Z</time>
      </trkpt>
      <trkpt lat="44.22346" lon="4.55837">
        <ele>279.6</ele>
        <time>2021-10-24T08:19:00Z</time>
      </trkpt>
      <trkpt lat="44.2234" lon="4.55831">
        <ele>279.8</ele>
        <time>2021-10-24T08:19:01Z</time>
      </trkpt>
      <trkpt lat="44.22335" lon="4.55825">
        <ele>280.2</ele>
        <time>2021-10-24T08:19:02Z</time>
      </trkpt>
      <trkpt lat="44.22329" lon="4.55819">
        <ele>280.2</ele>
        <time>2021-10-24T08:19:03Z</time>
      </trkpt>
      <trkpt lat="44.22323" lon="4.55812">
        <ele>280.4</ele>
        <time>2021-10-24T08:19:04Z</time>
      </trkpt>
      <trkpt lat="44.22318" lon="4.55806">
        <ele>280.8</ele>
        <time>2021-10-24T08:19:05Z</time>
      </trkpt>
      <trkpt lat="44.22313" lon="4.558">
        <ele>281</ele>
        <time>2021-10-24T08:19:06Z</time>
      </trkpt>
      <trkpt lat="44.22308" lon="4.55793">
        <ele>281</ele>
        <time>2021-10-24T08:19:07Z</time>
      </trkpt>
      <trkpt lat="44.22303" lon="4.55787">
        <ele>281.2</ele>
        <time>2021-10-24T08:19:08Z</time>
      </trkpt>
      <trkpt lat="44.22297" lon="4.55781">
        <ele>281.2</ele>
        <time>2021-10-24T08:19:09Z</time>
      </trkpt>
      <trkpt lat="44.22292" lon="4.55776">
        <ele>281.6</ele>
        <time>2021-10-24T08:19:10Z</time>
      </trkpt>
      <trkpt lat="44.22287" lon="4.5577">
        <ele>281.8</ele>
        <time>2021-10-24T08:19:11Z</time>
      </trkpt>
      <trkpt lat="44.22282" lon="4.55765">
        <ele>281.8</ele>
        <time>2021-10-24T08:19:12Z</time>
      </trkpt>
      <trkpt lat="44.22277" lon="4.5576">
        <ele>282</ele>
        <time>2021-10-24T08:19:13Z</time>
      </trkpt>
      <trkpt lat="44.22272" lon="4.55756">
        <ele>282.4</ele>
        <time>2021-10-24T08:19:14Z</time>
      </trkpt>
      <trkpt lat="44.22266" lon="4.55752">
        <ele>282.8</ele>
        <time>2021-10-24T08:19:15Z</time>
      </trkpt>
      <trkpt lat="44.2226" lon="4.55749">
        <ele>283</ele>
        <time>2021-10-24T08:19:16Z</time>
      </trkpt>
      <trkpt lat="44.22254" lon="4.55748">
        <ele>283.2</ele>
        <time>2021-10-24T08:19:17Z</time>
      </trkpt>
      <trkpt lat="44.22247" lon="4.55748">
        <ele>283.4</ele>
        <time>2021-10-24T08:19:18Z</time>
      </trkpt>
      <trkpt lat="44.22241" lon="4.55749">
        <ele>283.6</ele>
        <time>2021-10-24T08:19:19Z</time>
      </trkpt>
      <trkpt lat="44.22235" lon="4.5575">
        <ele>283.8</ele>
        <time>2021-10-24T08:19:20Z</time>
      </trkpt>
      <trkpt lat="44.22229" lon="4.55752">
        <ele>283.8</ele>
        <time>2021-10-24T08:19:21Z</time>
      </trkpt>
      <trkpt lat="44.22223" lon="4.55755">
        <ele>284</ele>
        <time>2021-10-24T08:19:22Z</time>
      </trkpt>
      <trkpt lat="44.22217" lon="4.55756">
        <ele>284.2</ele>
        <time>2021-10-24T08:19:23Z</time>
      </trkpt>
      <trkpt lat="44.22212" lon="4.55758">
        <ele>284.6</ele>
        <time>2021-10-24T08:19:24Z</time>
      </trkpt>
      <trkpt lat="44.22206" lon="4.55758">
        <ele>284.8</ele>
        <time>2021-10-24T08:19:25Z</time>
      </trkpt>
      <trkpt lat="44.222" lon="4.55757">
        <ele>285</ele>
        <time>2021-10-24T08:19:26Z</time>
      </trkpt>
      <trkpt lat="44.22193" lon="4.55755">
        <ele>285.2</ele>
        <time>2021-10-24T08:19:27Z</time>
      </trkpt>
      <trkpt lat="44.22187" lon="4.55752">
        <ele>285.6</ele>
        <time>2021-10-24T08:19:28Z</time>
      </trkpt>
      <trkpt lat="44.22181" lon="4.55749">
        <ele>286</ele>
        <time>2021-10-24T08:19:29Z</time>
      </trkpt>
      <trkpt lat="44.22174" lon="4.55746">
        <ele>286</ele>
        <time>2021-10-24T08:19:30Z</time>
      </trkpt>
      <trkpt lat="44.22167" lon="4.55742">
        <ele>286.2</ele>
        <time>2021-10-24T08:19:31Z</time>
      </trkpt>
      <trkpt lat="44.2216" lon="4.55739">
        <ele>286.4</ele>
        <time>2021-10-24T08:19:32Z</time>
      </trkpt>
      <trkpt lat="44.22153" lon="4.55736">
        <ele>286.6</ele>
        <time>2021-10-24T08:19:33Z</time>
      </trkpt>
      <trkpt lat="44.22146" lon="4.55732">
        <ele>286.2</ele>
        <time>2021-10-24T08:19:34Z</time>
      </trkpt>
      <trkpt lat="44.22139" lon="4.55729">
        <ele>286.2</ele>
        <time>2021-10-24T08:19:35Z</time>
      </trkpt>
      <trkpt lat="44.22131" lon="4.55725">
        <ele>286.2</ele>
        <time>2021-10-24T08:19:36Z</time>
      </trkpt>
      <trkpt lat="44.22123" lon="4.55722">
        <ele>286</ele>
        <time>2021-10-24T08:19:37Z</time>
      </trkpt>
      <trkpt lat="44.22115" lon="4.55718">
        <ele>285.8</ele>
        <time>2021-10-24T08:19:38Z</time>
      </trkpt>
      <trkpt lat="44.22107" lon="4.55714">
        <ele>285.8</ele>
        <time>2021-10-24T08:19:39Z</time>
      </trkpt>
      <trkpt lat="44.22099" lon="4.5571">
        <ele>285.6</ele>
        <time>2021-10-24T08:19:40Z</time>
      </trkpt>
      <trkpt lat="44.22091" lon="4.55707">
        <ele>285.4</ele>
        <time>2021-10-24T08:19:41Z</time>
      </trkpt>
      <trkpt lat="44.22082" lon="4.55703">
        <ele>285</ele>
        <time>2021-10-24T08:19:42Z</time>
      </trkpt>
      <trkpt lat="44.22073" lon="4.55699">
        <ele>285</ele>
        <time>2021-10-24T08:19:43Z</time>
      </trkpt>
      <trkpt lat="44.22064" lon="4.55695">
        <ele>284.4</ele>
        <time>2021-10-24T08:19:44Z</time>
      </trkpt>
      <trkpt lat="44.22054" lon="4.55689">
        <ele>284</ele>
        <time>2021-10-24T08:19:45Z</time>
      </trkpt>
      <trkpt lat="44.22045" lon="4.55682">
        <ele>283.6</ele>
        <time>2021-10-24T08:19:46Z</time>
      </trkpt>
      <trkpt lat="44.22037" lon="4.55672">
        <ele>282.8</ele>
        <time>2021-10-24T08:19:47Z</time>
      </trkpt>
      <trkpt lat="44.22029" lon="4.55659">
        <ele>282.4</ele>
        <time>2021-10-24T08:19:48Z</time>
      </trkpt>
      <trkpt lat="44.22022" lon="4.55646">
        <ele>282</ele>
        <time>2021-10-24T08:19:49Z</time>
      </trkpt>
      <trkpt lat="44.22015" lon="4.55633">
        <ele>281.4</ele>
        <time>2021-10-24T08:19:50Z</time>
      </trkpt>
      <trkpt lat="44.22008" lon="4.55619">
        <ele>280.6</ele>
        <time>2021-10-24T08:19:51Z</time>
      </trkpt>
      <trkpt lat="44.22" lon="4.55606">
        <ele>279.8</ele>
        <time>2021-10-24T08:19:52Z</time>
      </trkpt>
      <trkpt lat="44.21992" lon="4.55591">
        <ele>279</ele>
        <time>2021-10-24T08:19:53Z</time>
      </trkpt>
      <trkpt lat="44.21984" lon="4.55577">
        <ele>277.6</ele>
        <time>2021-10-24T08:19:54Z</time>
      </trkpt>
      <trkpt lat="44.21976" lon="4.55562">
        <ele>276.4</ele>
        <time>2021-10-24T08:19:55Z</time>
      </trkpt>
      <trkpt lat="44.21968" lon="4.55547">
        <ele>275.6</ele>
        <time>2021-10-24T08:19:56Z</time>
      </trkpt>
      <trkpt lat="44.21959" lon="4.55533">
        <ele>274.4</ele>
        <time>2021-10-24T08:19:57Z</time>
      </trkpt>
      <trkpt lat="44.21951" lon="4.55518">
        <ele>273.4</ele>
        <time>2021-10-24T08:19:58Z</time>
      </trkpt>
      <trkpt lat="44.21942" lon="4.55505">
        <ele>272.4</ele>
        <time>2021-10-24T08:19:59Z</time>
      </trkpt>
      <trkpt lat="44.21932" lon="4.55493">
        <ele>271</ele>
        <time>2021-10-24T08:20:00Z</time>
      </trkpt>
      <trkpt lat="44.21922" lon="4.55482">
        <ele>269.8</ele>
        <time>2021-10-24T08:20:01Z</time>
      </trkpt>
      <trkpt lat="44.2191" lon="4.55471">
        <ele>268.4</ele>
        <time>2021-10-24T08:20:02Z</time>
      </trkpt>
      <trkpt lat="44.21898" lon="4.55461">
        <ele>267.6</ele>
        <time>2021-10-24T08:20:03Z</time>
      </trkpt>
      <trkpt lat="44.21886" lon="4.55451">
        <ele>266.6</ele>
        <time>2021-10-24T08:20:04Z</time>
      </trkpt>
      <trkpt lat="44.21874" lon="4.55442">
        <ele>265.6</ele>
        <time>2021-10-24T08:20:05Z</time>
      </trkpt>
      <trkpt lat="44.21861" lon="4.55435">
        <ele>264.2</ele>
        <time>2021-10-24T08:20:06Z</time>
      </trkpt>
      <trkpt lat="44.21847" lon="4.55428">
        <ele>263.6</ele>
        <time>2021-10-24T08:20:07Z</time>
      </trkpt>
      <trkpt lat="44.21833" lon="4.55421">
        <ele>262.4</ele>
        <time>2021-10-24T08:20:08Z</time>
      </trkpt>
      <trkpt lat="44.2182" lon="4.55414">
        <ele>261.6</ele>
        <time>2021-10-24T08:20:09Z</time>
      </trkpt>
      <trkpt lat="44.21807" lon="4.55405">
        <ele>260.2</ele>
        <time>2021-10-24T08:20:10Z</time>
      </trkpt>
      <trkpt lat="44.21794" lon="4.55397">
        <ele>258.6</ele>
        <time>2021-10-24T08:20:11Z</time>
      </trkpt>
      <trkpt lat="44.21781" lon="4.55389">
        <ele>257.2</ele>
        <time>2021-10-24T08:20:12Z</time>
      </trkpt>
      <trkpt lat="44.21768" lon="4.55382">
        <ele>256</ele>
        <time>2021-10-24T08:20:13Z</time>
      </trkpt>
      <trkpt lat="44.21755" lon="4.55376">
        <ele>254.2</ele>
        <time>2021-10-24T08:20:14Z</time>
      </trkpt>
      <trkpt lat="44.21741" lon="4.5537">
        <ele>252.6</ele>
        <time>2021-10-24T08:20:15Z</time>
      </trkpt>
      <trkpt lat="44.21728" lon="4.55362">
        <ele>251</ele>
        <time>2021-10-24T08:20:16Z</time>
      </trkpt>
      <trkpt lat="44.21716" lon="4.55353">
        <ele>249.6</ele>
        <time>2021-10-24T08:20:17Z</time>
      </trkpt>
      <trkpt lat="44.21704" lon="4.55344">
        <ele>248.4</ele>
        <time>2021-10-24T08:20:18Z</time>
      </trkpt>
      <trkpt lat="44.21694" lon="4.55334">
        <ele>247</ele>
        <time>2021-10-24T08:20:19Z</time>
      </trkpt>
      <trkpt lat="44.21683" lon="4.55326">
        <ele>245.4</ele>
        <time>2021-10-24T08:20:20Z</time>
      </trkpt>
      <trkpt lat="44.21672" lon="4.5532">
        <ele>243.6</ele>
        <time>2021-10-24T08:20:21Z</time>
      </trkpt>
      <trkpt lat="44.21661" lon="4.55318">
        <ele>241.8</ele>
        <time>2021-10-24T08:20:22Z</time>
      </trkpt>
      <trkpt lat="44.21649" lon="4.55318">
        <ele>239.8</ele>
        <time>2021-10-24T08:20:23Z</time>
      </trkpt>
      <trkpt lat="44.21636" lon="4.5532">
        <ele>238.4</ele>
        <time>2021-10-24T08:20:24Z</time>
      </trkpt>
      <trkpt lat="44.21623" lon="4.55322">
        <ele>237.2</ele>
        <time>2021-10-24T08:20:25Z</time>
      </trkpt>
      <trkpt lat="44.21611" lon="4.55323">
        <ele>235.8</ele>
        <time>2021-10-24T08:20:26Z</time>
      </trkpt>
      <trkpt lat="44.21598" lon="4.55323">
        <ele>234.6</ele>
        <time>2021-10-24T08:20:27Z</time>
      </trkpt>
      <trkpt lat="44.21585" lon="4.55321">
        <ele>233.4</ele>
        <time>2021-10-24T08:20:28Z</time>
      </trkpt>
      <trkpt lat="44.21573" lon="4.55317">
        <ele>232</ele>
        <time>2021-10-24T08:20:29Z</time>
      </trkpt>
      <trkpt lat="44.21561" lon="4.55311">
        <ele>230.8</ele>
        <time>2021-10-24T08:20:30Z</time>
      </trkpt>
      <trkpt lat="44.2155" lon="4.55306">
        <ele>229.4</ele>
        <time>2021-10-24T08:20:31Z</time>
      </trkpt>
      <trkpt lat="44.2154" lon="4.55303">
        <ele>227.8</ele>
        <time>2021-10-24T08:20:32Z</time>
      </trkpt>
      <trkpt lat="44.2153" lon="4.55299">
        <ele>226.4</ele>
        <time>2021-10-24T08:20:33Z</time>
      </trkpt>
      <trkpt lat="44.21522" lon="4.55293">
        <ele>224.8</ele>
        <time>2021-10-24T08:20:34Z</time>
      </trkpt>
      <trkpt lat="44.21516" lon="4.55284">
        <ele>223</ele>
        <time>2021-10-24T08:20:35Z</time>
      </trkpt>
      <trkpt lat="44.21512" lon="4.55272">
        <ele>221</ele>
        <time>2021-10-24T08:20:36Z</time>
      </trkpt>
      <trkpt lat="44.2151" lon="4.5526">
        <ele>219.2</ele>
        <time>2021-10-24T08:20:37Z</time>
      </trkpt>
      <trkpt lat="44.21507" lon="4.5525">
        <ele>217.6</ele>
        <time>2021-10-24T08:20:38Z</time>
      </trkpt>
      <trkpt lat="44.21503" lon="4.55242">
        <ele>216.2</ele>
        <time>2021-10-24T08:20:39Z</time>
      </trkpt>
      <trkpt lat="44.21498" lon="4.55237">
        <ele>214.8</ele>
        <time>2021-10-24T08:20:40Z</time>
      </trkpt>
      <trkpt lat="44.2149" lon="4.55234">
        <ele>212.8</ele>
        <time>2021-10-24T08:20:41Z</time>
      </trkpt>
      <trkpt lat="44.21481" lon="4.55232">
        <ele>211.2</ele>
        <time>2021-10-24T08:20:42Z</time>
      </trkpt>
      <trkpt lat="44.21471" lon="4.5523">
        <ele>210</ele>
        <time>2021-10-24T08:20:43Z</time>
      </trkpt>
      <trkpt lat="44.21459" lon="4.55228">
        <ele>208.8</ele>
        <time>2021-10-24T08:20:44Z</time>
      </trkpt>
      <trkpt lat="44.21448" lon="4.55225">
        <ele>207.8</ele>
        <time>2021-10-24T08:20:45Z</time>
      </trkpt>
      <trkpt lat="44.21436" lon="4.55221">
        <ele>207</ele>
        <time>2021-10-24T08:20:46Z</time>
      </trkpt>
      <trkpt lat="44.21425" lon="4.55217">
        <ele>205.8</ele>
        <time>2021-10-24T08:20:47Z</time>
      </trkpt>
      <trkpt lat="44.21414" lon="4.55213">
        <ele>204.4</ele>
        <time>2021-10-24T08:20:48Z</time>
      </trkpt>
      <trkpt lat="44.21403" lon="4.55211">
        <ele>203.4</ele>
        <time>2021-10-24T08:20:49Z</time>
      </trkpt>
      <trkpt lat="44.21391" lon="4.55209">
        <ele>202</ele>
        <time>2021-10-24T08:20:50Z</time>
      </trkpt>
      <trkpt lat="44.2138" lon="4.5521">
        <ele>200.4</ele>
        <time>2021-10-24T08:20:51Z</time>
      </trkpt>
      <trkpt lat="44.21369" lon="4.55211">
        <ele>199</ele>
        <time>2021-10-24T08:20:52Z</time>
      </trkpt>
      <trkpt lat="44.21357" lon="4.55212">
        <ele>197.8</ele>
        <time>2021-10-24T08:20:53Z</time>
      </trkpt>
      <trkpt lat="44.21345" lon="4.55213">
        <ele>196.6</ele>
        <time>2021-10-24T08:20:54Z</time>
      </trkpt>
      <trkpt lat="44.21333" lon="4.55215">
        <ele>195.6</ele>
        <time>2021-10-24T08:20:55Z</time>
      </trkpt>
      <trkpt lat="44.2132" lon="4.55216">
        <ele>194.8</ele>
        <time>2021-10-24T08:20:56Z</time>
      </trkpt>
      <trkpt lat="44.21308" lon="4.55217">
        <ele>193.8</ele>
        <time>2021-10-24T08:20:57Z</time>
      </trkpt>
      <trkpt lat="44.21297" lon="4.55217">
        <ele>192.4</ele>
        <time>2021-10-24T08:20:58Z</time>
      </trkpt>
      <trkpt lat="44.21285" lon="4.55219">
        <ele>191.4</ele>
        <time>2021-10-24T08:20:59Z</time>
      </trkpt>
      <trkpt lat="44.21273" lon="4.55221">
        <ele>189.6</ele>
        <time>2021-10-24T08:21:00Z</time>
      </trkpt>
      <trkpt lat="44.21262" lon="4.55223">
        <ele>188.8</ele>
        <time>2021-10-24T08:21:01Z</time>
      </trkpt>
      <trkpt lat="44.21251" lon="4.55226">
        <ele>187.4</ele>
        <time>2021-10-24T08:21:02Z</time>
      </trkpt>
      <trkpt lat="44.2124" lon="4.55228">
        <ele>186.4</ele>
        <time>2021-10-24T08:21:03Z</time>
      </trkpt>
      <trkpt lat="44.21228" lon="4.55228">
        <ele>185</ele>
        <time>2021-10-24T08:21:04Z</time>
      </trkpt>
      <trkpt lat="44.21217" lon="4.55225">
        <ele>183.4</ele>
        <time>2021-10-24T08:21:05Z</time>
      </trkpt>
      <trkpt lat="44.21207" lon="4.55219">
        <ele>182.2</ele>
        <time>2021-10-24T08:21:06Z</time>
      </trkpt>
      <trkpt lat="44.21198" lon="4.55212">
        <ele>180.8</ele>
        <time>2021-10-24T08:21:07Z</time>
      </trkpt>
      <trkpt lat="44.21189" lon="4.55206">
        <ele>179.6</ele>
        <time>2021-10-24T08:21:08Z</time>
      </trkpt>
      <trkpt lat="44.21181" lon="4.552">
        <ele>178.6</ele>
        <time>2021-10-24T08:21:09Z</time>
      </trkpt>
      <trkpt lat="44.21174" lon="4.55193">
        <ele>177.4</ele>
        <time>2021-10-24T08:21:10Z</time>
      </trkpt>
      <trkpt lat="44.21168" lon="4.55183">
        <ele>176</ele>
        <time>2021-10-24T08:21:11Z</time>
      </trkpt>
      <trkpt lat="44.21163" lon="4.55173">
        <ele>174.8</ele>
        <time>2021-10-24T08:21:12Z</time>
      </trkpt>
      <trkpt lat="44.21157" lon="4.55162">
        <ele>174.2</ele>
        <time>2021-10-24T08:21:13Z</time>
      </trkpt>
      <trkpt lat="44.21151" lon="4.55151">
        <ele>173.6</ele>
        <time>2021-10-24T08:21:14Z</time>
      </trkpt>
      <trkpt lat="44.21145" lon="4.55142">
        <ele>173</ele>
        <time>2021-10-24T08:21:15Z</time>
      </trkpt>
      <trkpt lat="44.21138" lon="4.55133">
        <ele>172.2</ele>
        <time>2021-10-24T08:21:16Z</time>
      </trkpt>
      <trkpt lat="44.2113" lon="4.55126">
        <ele>171.6</ele>
        <time>2021-10-24T08:21:17Z</time>
      </trkpt>
      <trkpt lat="44.21122" lon="4.55121">
        <ele>171</ele>
        <time>2021-10-24T08:21:18Z</time>
      </trkpt>
      <trkpt lat="44.21113" lon="4.55115">
        <ele>170.6</ele>
        <time>2021-10-24T08:21:19Z</time>
      </trkpt>
      <trkpt lat="44.21105" lon="4.55109">
        <ele>169.8</ele>
        <time>2021-10-24T08:21:20Z</time>
      </trkpt>
      <trkpt lat="44.21098" lon="4.55101">
        <ele>169.6</ele>
        <time>2021-10-24T08:21:21Z</time>
      </trkpt>
      <trkpt lat="44.21093" lon="4.5509">
        <ele>169.4</ele>
        <time>2021-10-24T08:21:22Z</time>
      </trkpt>
      <trkpt lat="44.21091" lon="4.55078">
        <ele>168</ele>
        <time>2021-10-24T08:21:23Z</time>
      </trkpt>
      <trkpt lat="44.21089" lon="4.55066">
        <ele>167.8</ele>
        <time>2021-10-24T08:21:24Z</time>
      </trkpt>
      <trkpt lat="44.21086" lon="4.55053">
        <ele>167.4</ele>
        <time>2021-10-24T08:21:25Z</time>
      </trkpt>
      <trkpt lat="44.21082" lon="4.55041">
        <ele>166.6</ele>
        <time>2021-10-24T08:21:26Z</time>
      </trkpt>
      <trkpt lat="44.21077" lon="4.55031">
        <ele>166.2</ele>
        <time>2021-10-24T08:21:27Z</time>
      </trkpt>
      <trkpt lat="44.2107" lon="4.55022">
        <ele>166.4</ele>
        <time>2021-10-24T08:21:28Z</time>
      </trkpt>
      <trkpt lat="44.21062" lon="4.55014">
        <ele>166.4</ele>
        <time>2021-10-24T08:21:29Z</time>
      </trkpt>
      <trkpt lat="44.21053" lon="4.55008">
        <ele>166.4</ele>
        <time>2021-10-24T08:21:30Z</time>
      </trkpt>
      <trkpt lat="44.21044" lon="4.55003">
        <ele>166</ele>
        <time>2021-10-24T08:21:31Z</time>
      </trkpt>
      <trkpt lat="44.21035" lon="4.54998">
        <ele>165.8</ele>
        <time>2021-10-24T08:21:32Z</time>
      </trkpt>
      <trkpt lat="44.21026" lon="4.54995">
        <ele>165.8</ele>
        <time>2021-10-24T08:21:33Z</time>
      </trkpt>
      <trkpt lat="44.21017" lon="4.54992">
        <ele>165.4</ele>
        <time>2021-10-24T08:21:34Z</time>
      </trkpt>
      <trkpt lat="44.21008" lon="4.5499">
        <ele>165.2</ele>
        <time>2021-10-24T08:21:35Z</time>
      </trkpt>
      <trkpt lat="44.20998" lon="4.5499">
        <ele>165.2</ele>
        <time>2021-10-24T08:21:36Z</time>
      </trkpt>
      <trkpt lat="44.20988" lon="4.5499">
        <ele>164.8</ele>
        <time>2021-10-24T08:21:37Z</time>
      </trkpt>
      <trkpt lat="44.20978" lon="4.54991">
        <ele>164.6</ele>
        <time>2021-10-24T08:21:38Z</time>
      </trkpt>
      <trkpt lat="44.20969" lon="4.54991">
        <ele>163.8</ele>
        <time>2021-10-24T08:21:39Z</time>
      </trkpt>
      <trkpt lat="44.20959" lon="4.54992">
        <ele>163.8</ele>
        <time>2021-10-24T08:21:40Z</time>
      </trkpt>
      <trkpt lat="44.20949" lon="4.54993">
        <ele>163.4</ele>
        <time>2021-10-24T08:21:41Z</time>
      </trkpt>
      <trkpt lat="44.20939" lon="4.54993">
        <ele>163</ele>
        <time>2021-10-24T08:21:42Z</time>
      </trkpt>
      <trkpt lat="44.20928" lon="4.54993">
        <ele>162.6</ele>
        <time>2021-10-24T08:21:43Z</time>
      </trkpt>
      <trkpt lat="44.20918" lon="4.54993">
        <ele>162.4</ele>
        <time>2021-10-24T08:21:44Z</time>
      </trkpt>
      <trkpt lat="44.20908" lon="4.54991">
        <ele>162</ele>
        <time>2021-10-24T08:21:45Z</time>
      </trkpt>
      <trkpt lat="44.20898" lon="4.5499">
        <ele>161.8</ele>
        <time>2021-10-24T08:21:46Z</time>
      </trkpt>
      <trkpt lat="44.20888" lon="4.54988">
        <ele>161.2</ele>
        <time>2021-10-24T08:21:47Z</time>
      </trkpt>
      <trkpt lat="44.20878" lon="4.54987">
        <ele>160.8</ele>
        <time>2021-10-24T08:21:48Z</time>
      </trkpt>
      <trkpt lat="44.20868" lon="4.54985">
        <ele>160.6</ele>
        <time>2021-10-24T08:21:49Z</time>
      </trkpt>
      <trkpt lat="44.20858" lon="4.54984">
        <ele>160.2</ele>
        <time>2021-10-24T08:21:50Z</time>
      </trkpt>
      <trkpt lat="44.20848" lon="4.54982">
        <ele>159.6</ele>
        <time>2021-10-24T08:21:51Z</time>
      </trkpt>
      <trkpt lat="44.20838" lon="4.54979">
        <ele>159.2</ele>
        <time>2021-10-24T08:21:52Z</time>
      </trkpt>
      <trkpt lat="44.20829" lon="4.54977">
        <ele>159</ele>
        <time>2021-10-24T08:21:53Z</time>
      </trkpt>
      <trkpt lat="44.20819" lon="4.54974">
        <ele>158.8</ele>
        <time>2021-10-24T08:21:54Z</time>
      </trkpt>
      <trkpt lat="44.20809" lon="4.54971">
        <ele>158.6</ele>
        <time>2021-10-24T08:21:55Z</time>
      </trkpt>
      <trkpt lat="44.20799" lon="4.54968">
        <ele>158.4</ele>
        <time>2021-10-24T08:21:56Z</time>
      </trkpt>
      <trkpt lat="44.2079" lon="4.54965">
        <ele>158</ele>
        <time>2021-10-24T08:21:57Z</time>
      </trkpt>
      <trkpt lat="44.2078" lon="4.54961">
        <ele>157.8</ele>
        <time>2021-10-24T08:21:58Z</time>
      </trkpt>
      <trkpt lat="44.20771" lon="4.54956">
        <ele>157.2</ele>
        <time>2021-10-24T08:21:59Z</time>
      </trkpt>
      <trkpt lat="44.20762" lon="4.54951">
        <ele>157</ele>
        <time>2021-10-24T08:22:00Z</time>
      </trkpt>
      <trkpt lat="44.20753" lon="4.54945">
        <ele>156.4</ele>
        <time>2021-10-24T08:22:01Z</time>
      </trkpt>
      <trkpt lat="44.20745" lon="4.54939">
        <ele>156.2</ele>
        <time>2021-10-24T08:22:02Z</time>
      </trkpt>
      <trkpt lat="44.20736" lon="4.54933">
        <ele>155.8</ele>
        <time>2021-10-24T08:22:03Z</time>
      </trkpt>
      <trkpt lat="44.20728" lon="4.54927">
        <ele>155.6</ele>
        <time>2021-10-24T08:22:04Z</time>
      </trkpt>
      <trkpt lat="44.20719" lon="4.54921">
        <ele>155.2</ele>
        <time>2021-10-24T08:22:05Z</time>
      </trkpt>
      <trkpt lat="44.20711" lon="4.54914">
        <ele>154.8</ele>
        <time>2021-10-24T08:22:06Z</time>
      </trkpt>
      <trkpt lat="44.20704" lon="4.54906">
        <ele>154.6</ele>
        <time>2021-10-24T08:22:07Z</time>
      </trkpt>
      <trkpt lat="44.20696" lon="4.54898">
        <ele>154.2</ele>
        <time>2021-10-24T08:22:08Z</time>
      </trkpt>
      <trkpt lat="44.20688" lon="4.5489">
        <ele>154</ele>
        <time>2021-10-24T08:22:09Z</time>
      </trkpt>
      <trkpt lat="44.20681" lon="4.54883">
        <ele>153.8</ele>
        <time>2021-10-24T08:22:10Z</time>
      </trkpt>
      <trkpt lat="44.20673" lon="4.54876">
        <ele>153.8</ele>
        <time>2021-10-24T08:22:11Z</time>
      </trkpt>
      <trkpt lat="44.20665" lon="4.54868">
        <ele>153.4</ele>
        <time>2021-10-24T08:22:12Z</time>
      </trkpt>
      <trkpt lat="44.20656" lon="4.54861">
        <ele>152.8</ele>
        <time>2021-10-24T08:22:13Z</time>
      </trkpt>
      <trkpt lat="44.20648" lon="4.54853">
        <ele>152.2</ele>
        <time>2021-10-24T08:22:14Z</time>
      </trkpt>
      <trkpt lat="44.20639" lon="4.54846">
        <ele>151.8</ele>
        <time>2021-10-24T08:22:15Z</time>
      </trkpt>
      <trkpt lat="44.2063" lon="4.54839">
        <ele>151.2</ele>
        <time>2021-10-24T08:22:16Z</time>
      </trkpt>
      <trkpt lat="44.20622" lon="4.54832">
        <ele>150.6</ele>
        <time>2021-10-24T08:22:17Z</time>
      </trkpt>
      <trkpt lat="44.20614" lon="4.54826">
        <ele>150</ele>
        <time>2021-10-24T08:22:18Z</time>
      </trkpt>
      <trkpt lat="44.20605" lon="4.5482">
        <ele>149</ele>
        <time>2021-10-24T08:22:19Z</time>
      </trkpt>
      <trkpt lat="44.20597" lon="4.54814">
        <ele>148</ele>
        <time>2021-10-24T08:22:20Z</time>
      </trkpt>
      <trkpt lat="44.20587" lon="4.54807">
        <ele>146.6</ele>
        <time>2021-10-24T08:22:21Z</time>
      </trkpt>
      <trkpt lat="44.20578" lon="4.548">
        <ele>145.6</ele>
        <time>2021-10-24T08:22:22Z</time>
      </trkpt>
      <trkpt lat="44.2057" lon="4.54793">
        <ele>144.6</ele>
        <time>2021-10-24T08:22:23Z</time>
      </trkpt>
      <trkpt lat="44.20562" lon="4.54785">
        <ele>143.4</ele>
        <time>2021-10-24T08:22:24Z</time>
      </trkpt>
      <trkpt lat="44.20556" lon="4.54775">
        <ele>142</ele>
        <time>2021-10-24T08:22:25Z</time>
      </trkpt>
      <trkpt lat="44.2055" lon="4.54764">
        <ele>140.6</ele>
        <time>2021-10-24T08:22:26Z</time>
      </trkpt>
      <trkpt lat="44.20545" lon="4.54753">
        <ele>139.2</ele>
        <time>2021-10-24T08:22:27Z</time>
      </trkpt>
      <trkpt lat="44.2054" lon="4.54743">
        <ele>138</ele>
        <time>2021-10-24T08:22:28Z</time>
      </trkpt>
      <trkpt lat="44.20535" lon="4.54735">
        <ele>137</ele>
        <time>2021-10-24T08:22:29Z</time>
      </trkpt>
      <trkpt lat="44.2053" lon="4.54727">
        <ele>135.8</ele>
        <time>2021-10-24T08:22:30Z</time>
      </trkpt>
      <trkpt lat="44.20523" lon="4.54719">
        <ele>134.4</ele>
        <time>2021-10-24T08:22:31Z</time>
      </trkpt>
      <trkpt lat="44.20516" lon="4.54712">
        <ele>133.2</ele>
        <time>2021-10-24T08:22:32Z</time>
      </trkpt>
      <trkpt lat="44.20508" lon="4.54705">
        <ele>132.4</ele>
        <time>2021-10-24T08:22:33Z</time>
      </trkpt>
      <trkpt lat="44.20501" lon="4.54699">
        <ele>131.8</ele>
        <time>2021-10-24T08:22:34Z</time>
      </trkpt>
      <trkpt lat="44.20493" lon="4.54693">
        <ele>131</ele>
        <time>2021-10-24T08:22:35Z</time>
      </trkpt>
      <trkpt lat="44.20486" lon="4.54688">
        <ele>130.8</ele>
        <time>2021-10-24T08:22:36Z</time>
      </trkpt>
      <trkpt lat="44.20479" lon="4.54684">
        <ele>130.6</ele>
        <time>2021-10-24T08:22:37Z</time>
      </trkpt>
      <trkpt lat="44.20474" lon="4.54681">
        <ele>130</ele>
        <time>2021-10-24T08:22:38Z</time>
      </trkpt>
      <trkpt lat="44.20469" lon="4.54678">
        <ele>129.4</ele>
        <time>2021-10-24T08:22:39Z</time>
      </trkpt>
      <trkpt lat="44.20464" lon="4.54679">
        <ele>128.6</ele>
        <time>2021-10-24T08:22:40Z</time>
      </trkpt>
      <trkpt lat="44.20459" lon="4.54681">
        <ele>128</ele>
        <time>2021-10-24T08:22:41Z</time>
      </trkpt>
      <trkpt lat="44.20453" lon="4.54683">
        <ele>127.4</ele>
        <time>2021-10-24T08:22:42Z</time>
      </trkpt>
      <trkpt lat="44.20447" lon="4.54685">
        <ele>126.8</ele>
        <time>2021-10-24T08:22:43Z</time>
      </trkpt>
      <trkpt lat="44.2044" lon="4.54687">
        <ele>126.6</ele>
        <time>2021-10-24T08:22:44Z</time>
      </trkpt>
      <trkpt lat="44.20433" lon="4.54689">
        <ele>126.2</ele>
        <time>2021-10-24T08:22:45Z</time>
      </trkpt>
      <trkpt lat="44.20425" lon="4.54691">
        <ele>126</ele>
        <time>2021-10-24T08:22:46Z</time>
      </trkpt>
      <trkpt lat="44.20416" lon="4.54694">
        <ele>125.8</ele>
        <time>2021-10-24T08:22:47Z</time>
      </trkpt>
      <trkpt lat="44.20408" lon="4.54696">
        <ele>125.4</ele>
        <time>2021-10-24T08:22:48Z</time>
      </trkpt>
      <trkpt lat="44.20399" lon="4.54699">
        <ele>125</ele>
        <time>2021-10-24T08:22:49Z</time>
      </trkpt>
      <trkpt lat="44.20389" lon="4.54702">
        <ele>124.4</ele>
        <time>2021-10-24T08:22:50Z</time>
      </trkpt>
      <trkpt lat="44.2038" lon="4.54705">
        <ele>124.4</ele>
        <time>2021-10-24T08:22:51Z</time>
      </trkpt>
      <trkpt lat="44.20371" lon="4.54708">
        <ele>124</ele>
        <time>2021-10-24T08:22:52Z</time>
      </trkpt>
      <trkpt lat="44.20361" lon="4.5471">
        <ele>123.8</ele>
        <time>2021-10-24T08:22:53Z</time>
      </trkpt>
      <trkpt lat="44.20351" lon="4.54713">
        <ele>123.2</ele>
        <time>2021-10-24T08:22:54Z</time>
      </trkpt>
      <trkpt lat="44.20341" lon="4.54716">
        <ele>122.8</ele>
        <time>2021-10-24T08:22:55Z</time>
      </trkpt>
      <trkpt lat="44.2033" lon="4.54718">
        <ele>122.2</ele>
        <time>2021-10-24T08:22:56Z</time>
      </trkpt>
      <trkpt lat="44.20319" lon="4.5472">
        <ele>121.6</ele>
        <time>2021-10-24T08:22:57Z</time>
      </trkpt>
      <trkpt lat="44.20309" lon="4.54721">
        <ele>121</ele>
        <time>2021-10-24T08:22:58Z</time>
      </trkpt>
      <trkpt lat="44.20297" lon="4.54721">
        <ele>120.4</ele>
        <time>2021-10-24T08:22:59Z</time>
      </trkpt>
      <trkpt lat="44.20287" lon="4.54718">
        <ele>119.6</ele>
        <time>2021-10-24T08:23:00Z</time>
      </trkpt>
      <trkpt lat="44.20278" lon="4.54715">
        <ele>118.8</ele>
        <time>2021-10-24T08:23:01Z</time>
      </trkpt>
      <trkpt lat="44.2027" lon="4.54709">
        <ele>117.8</ele>
        <time>2021-10-24T08:23:02Z</time>
      </trkpt>
      <trkpt lat="44.20263" lon="4.54701">
        <ele>116.8</ele>
        <time>2021-10-24T08:23:03Z</time>
      </trkpt>
      <trkpt lat="44.20255" lon="4.54692">
        <ele>115.6</ele>
        <time>2021-10-24T08:23:04Z</time>
      </trkpt>
      <trkpt lat="44.20248" lon="4.54682">
        <ele>114.6</ele>
        <time>2021-10-24T08:23:05Z</time>
      </trkpt>
      <trkpt lat="44.20241" lon="4.54672">
        <ele>113.8</ele>
        <time>2021-10-24T08:23:06Z</time>
      </trkpt>
      <trkpt lat="44.20234" lon="4.54662">
        <ele>112.8</ele>
        <time>2021-10-24T08:23:07Z</time>
      </trkpt>
      <trkpt lat="44.20227" lon="4.54652">
        <ele>112.2</ele>
        <time>2021-10-24T08:23:08Z</time>
      </trkpt>
      <trkpt lat="44.20219" lon="4.54643">
        <ele>111.2</ele>
        <time>2021-10-24T08:23:09Z</time>
      </trkpt>
      <trkpt lat="44.20211" lon="4.54634">
        <ele>110.8</ele>
        <time>2021-10-24T08:23:10Z</time>
      </trkpt>
      <trkpt lat="44.20203" lon="4.54625">
        <ele>110.4</ele>
        <time>2021-10-24T08:23:11Z</time>
      </trkpt>
      <trkpt lat="44.20194" lon="4.54617">
        <ele>110.2</ele>
        <time>2021-10-24T08:23:12Z</time>
      </trkpt>
      <trkpt lat="44.20185" lon="4.54608">
        <ele>109.2</ele>
        <time>2021-10-24T08:23:13Z</time>
      </trkpt>
      <trkpt lat="44.20176" lon="4.54599">
        <ele>108.6</ele>
        <time>2021-10-24T08:23:14Z</time>
      </trkpt>
      <trkpt lat="44.20168" lon="4.5459">
        <ele>108</ele>
        <time>2021-10-24T08:23:15Z</time>
      </trkpt>
      <trkpt lat="44.20159" lon="4.54581">
        <ele>107.8</ele>
        <time>2021-10-24T08:23:16Z</time>
      </trkpt>
      <trkpt lat="44.20151" lon="4.54572">
        <ele>107</ele>
        <time>2021-10-24T08:23:17Z</time>
      </trkpt>
      <trkpt lat="44.20143" lon="4.54565">
        <ele>106.2</ele>
        <time>2021-10-24T08:23:18Z</time>
      </trkpt>
      <trkpt lat="44.20138" lon="4.54558">
        <ele>106</ele>
        <time>2021-10-24T08:23:19Z</time>
      </trkpt>
      <trkpt lat="44.20133" lon="4.54555">
        <ele>105.2</ele>
        <time>2021-10-24T08:23:20Z</time>
      </trkpt>
      <trkpt lat="44.20128" lon="4.54554">
        <ele>103.8</ele>
        <time>2021-10-24T08:23:21Z</time>
      </trkpt>
      <trkpt lat="44.20124" lon="4.54555">
        <ele>102.6</ele>
        <time>2021-10-24T08:23:22Z</time>
      </trkpt>
      <trkpt lat="44.2012" lon="4.54559">
        <ele>101.4</ele>
        <time>2021-10-24T08:23:23Z</time>
      </trkpt>
      <trkpt lat="44.20116" lon="4.54563">
        <ele>100.4</ele>
        <time>2021-10-24T08:23:24Z</time>
      </trkpt>
      <trkpt lat="44.2011" lon="4.54567">
        <ele>99.4</ele>
        <time>2021-10-24T08:23:25Z</time>
      </trkpt>
      <trkpt lat="44.20105" lon="4.54571">
        <ele>98.8</ele>
        <time>2021-10-24T08:23:26Z</time>
      </trkpt>
      <trkpt lat="44.20099" lon="4.54575">
        <ele>98.4</ele>
        <time>2021-10-24T08:23:27Z</time>
      </trkpt>
      <trkpt lat="44.20092" lon="4.54579">
        <ele>98</ele>
        <time>2021-10-24T08:23:28Z</time>
      </trkpt>
      <trkpt lat="44.20085" lon="4.54583">
        <ele>97.6</ele>
        <time>2021-10-24T08:23:29Z</time>
      </trkpt>
      <trkpt lat="44.20078" lon="4.54587">
        <ele>97.4</ele>
        <time>2021-10-24T08:23:30Z</time>
      </trkpt>
      <trkpt lat="44.2007" lon="4.54591">
        <ele>97.2</ele>
        <time>2021-10-24T08:23:31Z</time>
      </trkpt>
      <trkpt lat="44.20062" lon="4.54594">
        <ele>97</ele>
        <time>2021-10-24T08:23:32Z</time>
      </trkpt>
      <trkpt lat="44.20053" lon="4.54596">
        <ele>96.6</ele>
        <time>2021-10-24T08:23:33Z</time>
      </trkpt>
      <trkpt lat="44.20044" lon="4.54597">
        <ele>96.6</ele>
        <time>2021-10-24T08:23:34Z</time>
      </trkpt>
      <trkpt lat="44.20035" lon="4.54596">
        <ele>96</ele>
        <time>2021-10-24T08:23:35Z</time>
      </trkpt>
      <trkpt lat="44.20026" lon="4.54595">
        <ele>95.8</ele>
        <time>2021-10-24T08:23:36Z</time>
      </trkpt>
      <trkpt lat="44.20017" lon="4.54594">
        <ele>95.6</ele>
        <time>2021-10-24T08:23:37Z</time>
      </trkpt>
      <trkpt lat="44.20007" lon="4.54593">
        <ele>95</ele>
        <time>2021-10-24T08:23:38Z</time>
      </trkpt>
      <trkpt lat="44.19997" lon="4.54591">
        <ele>94.6</ele>
        <time>2021-10-24T08:23:39Z</time>
      </trkpt>
      <trkpt lat="44.19988" lon="4.5459">
        <ele>94.2</ele>
        <time>2021-10-24T08:23:40Z</time>
      </trkpt>
      <trkpt lat="44.19978" lon="4.54588">
        <ele>93.6</ele>
        <time>2021-10-24T08:23:41Z</time>
      </trkpt>
      <trkpt lat="44.19968" lon="4.54586">
        <ele>93.2</ele>
        <time>2021-10-24T08:23:42Z</time>
      </trkpt>
      <trkpt lat="44.19958" lon="4.54584">
        <ele>92.6</ele>
        <time>2021-10-24T08:23:43Z</time>
      </trkpt>
      <trkpt lat="44.19947" lon="4.54582">
        <ele>92</ele>
        <time>2021-10-24T08:23:44Z</time>
      </trkpt>
      <trkpt lat="44.19937" lon="4.5458">
        <ele>91.4</ele>
        <time>2021-10-24T08:23:45Z</time>
      </trkpt>
      <trkpt lat="44.19926" lon="4.54578">
        <ele>91</ele>
        <time>2021-10-24T08:23:46Z</time>
      </trkpt>
      <trkpt lat="44.19916" lon="4.54575">
        <ele>90.4</ele>
        <time>2021-10-24T08:23:47Z</time>
      </trkpt>
      <trkpt lat="44.19906" lon="4.54573">
        <ele>90</ele>
        <time>2021-10-24T08:23:48Z</time>
      </trkpt>
      <trkpt lat="44.19895" lon="4.5457">
        <ele>89.8</ele>
        <time>2021-10-24T08:23:49Z</time>
      </trkpt>
      <trkpt lat="44.19885" lon="4.54567">
        <ele>89.2</ele>
        <time>2021-10-24T08:23:50Z</time>
      </trkpt>
      <trkpt lat="44.19875" lon="4.54564">
        <ele>88.6</ele>
        <time>2021-10-24T08:23:51Z</time>
      </trkpt>
      <trkpt lat="44.19864" lon="4.54561">
        <ele>87.8</ele>
        <time>2021-10-24T08:23:52Z</time>
      </trkpt>
      <trkpt lat="44.19854" lon="4.54558">
        <ele>87.2</ele>
        <time>2021-10-24T08:23:53Z</time>
      </trkpt>
      <trkpt lat="44.19843" lon="4.54555">
        <ele>87</ele>
        <time>2021-10-24T08:23:54Z</time>
      </trkpt>
      <trkpt lat="44.19833" lon="4.54552">
        <ele>86.2</ele>
        <time>2021-10-24T08:23:55Z</time>
      </trkpt>
      <trkpt lat="44.19822" lon="4.54548">
        <ele>85.8</ele>
        <time>2021-10-24T08:23:56Z</time>
      </trkpt>
      <trkpt lat="44.19811" lon="4.54544">
        <ele>85.4</ele>
        <time>2021-10-24T08:23:57Z</time>
      </trkpt>
      <trkpt lat="44.19801" lon="4.5454">
        <ele>85</ele>
        <time>2021-10-24T08:23:58Z</time>
      </trkpt>
      <trkpt lat="44.19791" lon="4.54536">
        <ele>84.6</ele>
        <time>2021-10-24T08:23:59Z</time>
      </trkpt>
      <trkpt lat="44.1978" lon="4.5453">
        <ele>84.2</ele>
        <time>2021-10-24T08:24:00Z</time>
      </trkpt>
      <trkpt lat="44.1977" lon="4.54525">
        <ele>83.6</ele>
        <time>2021-10-24T08:24:01Z</time>
      </trkpt>
      <trkpt lat="44.1976" lon="4.54519">
        <ele>83.4</ele>
        <time>2021-10-24T08:24:02Z</time>
      </trkpt>
      <trkpt lat="44.19751" lon="4.54513">
        <ele>83.2</ele>
        <time>2021-10-24T08:24:03Z</time>
      </trkpt>
      <trkpt lat="44.19741" lon="4.54507">
        <ele>82.8</ele>
        <time>2021-10-24T08:24:04Z</time>
      </trkpt>
      <trkpt lat="44.19731" lon="4.54501">
        <ele>82.2</ele>
        <time>2021-10-24T08:24:05Z</time>
      </trkpt>
      <trkpt lat="44.19721" lon="4.54495">
        <ele>81.8</ele>
        <time>2021-10-24T08:24:06Z</time>
      </trkpt>
      <trkpt lat="44.19712" lon="4.54489">
        <ele>81.4</ele>
        <time>2021-10-24T08:24:07Z</time>
      </trkpt>
      <trkpt lat="44.19702" lon="4.54483">
        <ele>81</ele>
        <time>2021-10-24T08:24:08Z</time>
      </trkpt>
      <trkpt lat="44.19693" lon="4.54477">
        <ele>80.4</ele>
        <time>2021-10-24T08:24:09Z</time>
      </trkpt>
      <trkpt lat="44.19683" lon="4.54471">
        <ele>80.2</ele>
        <time>2021-10-24T08:24:10Z</time>
      </trkpt>
      <trkpt lat="44.19673" lon="4.54465">
        <ele>79.6</ele>
        <time>2021-10-24T08:24:11Z</time>
      </trkpt>
      <trkpt lat="44.19664" lon="4.54459">
        <ele>79.2</ele>
        <time>2021-10-24T08:24:12Z</time>
      </trkpt>
      <trkpt lat="44.19655" lon="4.54453">
        <ele>79</ele>
        <time>2021-10-24T08:24:13Z</time>
      </trkpt>
      <trkpt lat="44.19645" lon="4.54447">
        <ele>78.4</ele>
        <time>2021-10-24T08:24:14Z</time>
      </trkpt>
      <trkpt lat="44.19636" lon="4.54441">
        <ele>77.6</ele>
        <time>2021-10-24T08:24:15Z</time>
      </trkpt>
      <trkpt lat="44.19627" lon="4.54436">
        <ele>77.2</ele>
        <time>2021-10-24T08:24:16Z</time>
      </trkpt>
      <trkpt lat="44.19618" lon="4.5443">
        <ele>77</ele>
        <time>2021-10-24T08:24:17Z</time>
      </trkpt>
      <trkpt lat="44.19609" lon="4.54424">
        <ele>76.8</ele>
        <time>2021-10-24T08:24:18Z</time>
      </trkpt>
      <trkpt lat="44.196" lon="4.54418">
        <ele>76.4</ele>
        <time>2021-10-24T08:24:19Z</time>
      </trkpt>
      <trkpt lat="44.19591" lon="4.54412">
        <ele>75.8</ele>
        <time>2021-10-24T08:24:20Z</time>
      </trkpt>
      <trkpt lat="44.19583" lon="4.54406">
        <ele>75.6</ele>
        <time>2021-10-24T08:24:21Z</time>
      </trkpt>
      <trkpt lat="44.19575" lon="4.54398">
        <ele>75.2</ele>
        <time>2021-10-24T08:24:22Z</time>
      </trkpt>
      <trkpt lat="44.19569" lon="4.5439">
        <ele>74.6</ele>
        <time>2021-10-24T08:24:23Z</time>
      </trkpt>
      <trkpt lat="44.19564" lon="4.54382">
        <ele>74</ele>
        <time>2021-10-24T08:24:24Z</time>
      </trkpt>
      <trkpt lat="44.1956" lon="4.54373">
        <ele>73.4</ele>
        <time>2021-10-24T08:24:25Z</time>
      </trkpt>
      <trkpt lat="44.19558" lon="4.54364">
        <ele>73</ele>
        <time>2021-10-24T08:24:26Z</time>
      </trkpt>
      <trkpt lat="44.19558" lon="4.54355">
        <ele>72.4</ele>
        <time>2021-10-24T08:24:27Z</time>
      </trkpt>
      <trkpt lat="44.1956" lon="4.54346">
        <ele>71.6</ele>
        <time>2021-10-24T08:24:28Z</time>
      </trkpt>
      <trkpt lat="44.19563" lon="4.54338">
        <ele>71.2</ele>
        <time>2021-10-24T08:24:29Z</time>
      </trkpt>
      <trkpt lat="44.19567" lon="4.5433">
        <ele>71</ele>
        <time>2021-10-24T08:24:30Z</time>
      </trkpt>
      <trkpt lat="44.19571" lon="4.54323">
        <ele>70.8</ele>
        <time>2021-10-24T08:24:31Z</time>
      </trkpt>
      <trkpt lat="44.19575" lon="4.54315">
        <ele>70.6</ele>
        <time>2021-10-24T08:24:32Z</time>
      </trkpt>
      <trkpt lat="44.19579" lon="4.54308">
        <ele>71</ele>
        <time>2021-10-24T08:24:33Z</time>
      </trkpt>
      <trkpt lat="44.19583" lon="4.54301">
        <ele>70.8</ele>
        <time>2021-10-24T08:24:34Z</time>
      </trkpt>
      <trkpt lat="44.19588" lon="4.54293">
        <ele>71</ele>
        <time>2021-10-24T08:24:35Z</time>
      </trkpt>
      <trkpt lat="44.19592" lon="4.54286">
        <ele>71</ele>
        <time>2021-10-24T08:24:36Z</time>
      </trkpt>
      <trkpt lat="44.19596" lon="4.54278">
        <ele>71.2</ele>
        <time>2021-10-24T08:24:37Z</time>
      </trkpt>
      <trkpt lat="44.196" lon="4.54271">
        <ele>71.2</ele>
        <time>2021-10-24T08:24:38Z</time>
      </trkpt>
      <trkpt lat="44.19604" lon="4.54263">
        <ele>71.2</ele>
        <time>2021-10-24T08:24:39Z</time>
      </trkpt>
      <trkpt lat="44.19608" lon="4.54256">
        <ele>71.4</ele>
        <time>2021-10-24T08:24:40Z</time>
      </trkpt>
      <trkpt lat="44.19612" lon="4.54249">
        <ele>71.8</ele>
        <time>2021-10-24T08:24:41Z</time>
      </trkpt>
      <trkpt lat="44.19616" lon="4.54241">
        <ele>72</ele>
        <time>2021-10-24T08:24:42Z</time>
      </trkpt>
      <trkpt lat="44.1962" lon="4.54234">
        <ele>72.2</ele>
        <time>2021-10-24T08:24:43Z</time>
      </trkpt>
      <trkpt lat="44.19624" lon="4.54227">
        <ele>72.2</ele>
        <time>2021-10-24T08:24:44Z</time>
      </trkpt>
      <trkpt lat="44.19628" lon="4.5422">
        <ele>72.2</ele>
        <time>2021-10-24T08:24:45Z</time>
      </trkpt>
      <trkpt lat="44.19632" lon="4.54213">
        <ele>72.6</ele>
        <time>2021-10-24T08:24:46Z</time>
      </trkpt>
      <trkpt lat="44.19636" lon="4.54206">
        <ele>72.6</ele>
        <time>2021-10-24T08:24:47Z</time>
      </trkpt>
      <trkpt lat="44.1964" lon="4.54199">
        <ele>72.6</ele>
        <time>2021-10-24T08:24:48Z</time>
      </trkpt>
      <trkpt lat="44.19644" lon="4.54192">
        <ele>73</ele>
        <time>2021-10-24T08:24:49Z</time>
      </trkpt>
      <trkpt lat="44.19647" lon="4.54185">
        <ele>73.2</ele>
        <time>2021-10-24T08:24:50Z</time>
      </trkpt>
      <trkpt lat="44.19651" lon="4.54179">
        <ele>73.4</ele>
        <time>2021-10-24T08:24:51Z</time>
      </trkpt>
      <trkpt lat="44.19655" lon="4.54172">
        <ele>73.6</ele>
        <time>2021-10-24T08:24:52Z</time>
      </trkpt>
      <trkpt lat="44.19658" lon="4.54165">
        <ele>73.8</ele>
        <time>2021-10-24T08:24:53Z</time>
      </trkpt>
      <trkpt lat="44.19662" lon="4.54159">
        <ele>74</ele>
        <time>2021-10-24T08:24:54Z</time>
      </trkpt>
      <trkpt lat="44.19666" lon="4.54152">
        <ele>73.8</ele>
        <time>2021-10-24T08:24:55Z</time>
      </trkpt>
      <trkpt lat="44.19669" lon="4.54146">
        <ele>74.2</ele>
        <time>2021-10-24T08:24:56Z</time>
      </trkpt>
      <trkpt lat="44.19673" lon="4.5414">
        <ele>74.2</ele>
        <time>2021-10-24T08:24:57Z</time>
      </trkpt>
      <trkpt lat="44.19676" lon="4.54134">
        <ele>74.4</ele>
        <time>2021-10-24T08:24:58Z</time>
      </trkpt>
      <trkpt lat="44.19679" lon="4.54127">
        <ele>74.6</ele>
        <time>2021-10-24T08:24:59Z</time>
      </trkpt>
      <trkpt lat="44.19683" lon="4.54121">
        <ele>75</ele>
        <time>2021-10-24T08:25:00Z</time>
      </trkpt>
      <trkpt lat="44.19686" lon="4.54115">
        <ele>75.2</ele>
        <time>2021-10-24T08:25:01Z</time>
      </trkpt>
      <trkpt lat="44.1969" lon="4.54109">
        <ele>75.4</ele>
        <time>2021-10-24T08:25:02Z</time>
      </trkpt>
      <trkpt lat="44.19693" lon="4.54102">
        <ele>75.6</ele>
        <time>2021-10-24T08:25:03Z</time>
      </trkpt>
      <trkpt lat="44.19696" lon="4.54097">
        <ele>75.8</ele>
        <time>2021-10-24T08:25:04Z</time>
      </trkpt>
      <trkpt lat="44.197" lon="4.54091">
        <ele>76</ele>
        <time>2021-10-24T08:25:05Z</time>
      </trkpt>
      <trkpt lat="44.19703" lon="4.54084">
        <ele>76</ele>
        <time>2021-10-24T08:25:06Z</time>
      </trkpt>
      <trkpt lat="44.19706" lon="4.54078">
        <ele>76.2</ele>
        <time>2021-10-24T08:25:07Z</time>
      </trkpt>
      <trkpt lat="44.1971" lon="4.54072">
        <ele>76.6</ele>
        <time>2021-10-24T08:25:08Z</time>
      </trkpt>
      <trkpt lat="44.19713" lon="4.54066">
        <ele>76.6</ele>
        <time>2021-10-24T08:25:09Z</time>
      </trkpt>
      <trkpt lat="44.19716" lon="4.5406">
        <ele>77.2</ele>
        <time>2021-10-24T08:25:10Z</time>
      </trkpt>
      <trkpt lat="44.1972" lon="4.54054">
        <ele>77.2</ele>
        <time>2021-10-24T08:25:11Z</time>
      </trkpt>
      <trkpt lat="44.19723" lon="4.54048">
        <ele>78.2</ele>
        <time>2021-10-24T08:25:12Z</time>
      </trkpt>
      <trkpt lat="44.19726" lon="4.54042">
        <ele>77.8</ele>
        <time>2021-10-24T08:25:13Z</time>
      </trkpt>
      <trkpt lat="44.1973" lon="4.54036">
        <ele>78</ele>
        <time>2021-10-24T08:25:14Z</time>
      </trkpt>
      <trkpt lat="44.19733" lon="4.5403">
        <ele>78</ele>
        <time>2021-10-24T08:25:15Z</time>
      </trkpt>
      <trkpt lat="44.19736" lon="4.54024">
        <ele>78.4</ele>
        <time>2021-10-24T08:25:16Z</time>
      </trkpt>
      <trkpt lat="44.19739" lon="4.54017">
        <ele>78.4</ele>
        <time>2021-10-24T08:25:17Z</time>
      </trkpt>
      <trkpt lat="44.19743" lon="4.54011">
        <ele>78.6</ele>
        <time>2021-10-24T08:25:18Z</time>
      </trkpt>
      <trkpt lat="44.19746" lon="4.54005">
        <ele>78.8</ele>
        <time>2021-10-24T08:25:19Z</time>
      </trkpt>
      <trkpt lat="44.19749" lon="4.53999">
        <ele>79</ele>
        <time>2021-10-24T08:25:20Z</time>
      </trkpt>
      <trkpt lat="44.19752" lon="4.53992">
        <ele>79.2</ele>
        <time>2021-10-24T08:25:21Z</time>
      </trkpt>
      <trkpt lat="44.19756" lon="4.53986">
        <ele>79.4</ele>
        <time>2021-10-24T08:25:22Z</time>
      </trkpt>
      <trkpt lat="44.19759" lon="4.5398">
        <ele>79.6</ele>
        <time>2021-10-24T08:25:23Z</time>
      </trkpt>
      <trkpt lat="44.19762" lon="4.53974">
        <ele>79.8</ele>
        <time>2021-10-24T08:25:24Z</time>
      </trkpt>
      <trkpt lat="44.19765" lon="4.53967">
        <ele>80</ele>
        <time>2021-10-24T08:25:25Z</time>
      </trkpt>
      <trkpt lat="44.19769" lon="4.53961">
        <ele>80.2</ele>
        <time>2021-10-24T08:25:26Z</time>
      </trkpt>
      <trkpt lat="44.19772" lon="4.53955">
        <ele>80.4</ele>
        <time>2021-10-24T08:25:27Z</time>
      </trkpt>
      <trkpt lat="44.19775" lon="4.53948">
        <ele>81</ele>
        <time>2021-10-24T08:25:28Z</time>
      </trkpt>
      <trkpt lat="44.19779" lon="4.53942">
        <ele>81.2</ele>
        <time>2021-10-24T08:25:29Z</time>
      </trkpt>
      <trkpt lat="44.19782" lon="4.53936">
        <ele>81.4</ele>
        <time>2021-10-24T08:25:30Z</time>
      </trkpt>
      <trkpt lat="44.19786" lon="4.53929">
        <ele>81.6</ele>
        <time>2021-10-24T08:25:31Z</time>
      </trkpt>
      <trkpt lat="44.19789" lon="4.53923">
        <ele>81.8</ele>
        <time>2021-10-24T08:25:32Z</time>
      </trkpt>
      <trkpt lat="44.19792" lon="4.53916">
        <ele>82</ele>
        <time>2021-10-24T08:25:33Z</time>
      </trkpt>
      <trkpt lat="44.19796" lon="4.5391">
        <ele>82.2</ele>
        <time>2021-10-24T08:25:34Z</time>
      </trkpt>
      <trkpt lat="44.19799" lon="4.53903">
        <ele>82.2</ele>
        <time>2021-10-24T08:25:35Z</time>
      </trkpt>
      <trkpt lat="44.19803" lon="4.53897">
        <ele>82.4</ele>
        <time>2021-10-24T08:25:36Z</time>
      </trkpt>
      <trkpt lat="44.19805" lon="4.5389">
        <ele>82.6</ele>
        <time>2021-10-24T08:25:37Z</time>
      </trkpt>
      <trkpt lat="44.19808" lon="4.53883">
        <ele>82.8</ele>
        <time>2021-10-24T08:25:38Z</time>
      </trkpt>
      <trkpt lat="44.1981" lon="4.53875">
        <ele>83</ele>
        <time>2021-10-24T08:25:39Z</time>
      </trkpt>
      <trkpt lat="44.19813" lon="4.53867">
        <ele>82.8</ele>
        <time>2021-10-24T08:25:40Z</time>
      </trkpt>
      <trkpt lat="44.19815" lon="4.53859">
        <ele>83.2</ele>
        <time>2021-10-24T08:25:41Z</time>
      </trkpt>
      <trkpt lat="44.19815" lon="4.53851">
        <ele>83.4</ele>
        <time>2021-10-24T08:25:42Z</time>
      </trkpt>
      <trkpt lat="44.19813" lon="4.53843">
        <ele>83.8</ele>
        <time>2021-10-24T08:25:43Z</time>
      </trkpt>
      <trkpt lat="44.19809" lon="4.53837">
        <ele>83.8</ele>
        <time>2021-10-24T08:25:44Z</time>
      </trkpt>
      <trkpt lat="44.19805" lon="4.53832">
        <ele>83.8</ele>
        <time>2021-10-24T08:25:45Z</time>
      </trkpt>
      <trkpt lat="44.19802" lon="4.53826">
        <ele>83.8</ele>
        <time>2021-10-24T08:25:46Z</time>
      </trkpt>
      <trkpt lat="44.19798" lon="4.53821">
        <ele>84</ele>
        <time>2021-10-24T08:25:47Z</time>
      </trkpt>
      <trkpt lat="44.19794" lon="4.53816">
        <ele>84.2</ele>
        <time>2021-10-24T08:25:48Z</time>
      </trkpt>
      <trkpt lat="44.19791" lon="4.53811">
        <ele>84.4</ele>
        <time>2021-10-24T08:25:49Z</time>
      </trkpt>
      <trkpt lat="44.19787" lon="4.53806">
        <ele>84.6</ele>
        <time>2021-10-24T08:25:50Z</time>
      </trkpt>
      <trkpt lat="44.19784" lon="4.53801">
        <ele>85.2</ele>
        <time>2021-10-24T08:25:51Z</time>
      </trkpt>
      <trkpt lat="44.19781" lon="4.53796">
        <ele>85.2</ele>
        <time>2021-10-24T08:25:52Z</time>
      </trkpt>
      <trkpt lat="44.19777" lon="4.5379">
        <ele>85.4</ele>
        <time>2021-10-24T08:25:53Z</time>
      </trkpt>
      <trkpt lat="44.19774" lon="4.53785">
        <ele>85.8</ele>
        <time>2021-10-24T08:25:54Z</time>
      </trkpt>
      <trkpt lat="44.19771" lon="4.53779">
        <ele>86</ele>
        <time>2021-10-24T08:25:55Z</time>
      </trkpt>
      <trkpt lat="44.19769" lon="4.53773">
        <ele>86.2</ele>
        <time>2021-10-24T08:25:56Z</time>
      </trkpt>
      <trkpt lat="44.19766" lon="4.53767">
        <ele>86.4</ele>
        <time>2021-10-24T08:25:57Z</time>
      </trkpt>
      <trkpt lat="44.19763" lon="4.5376">
        <ele>86.8</ele>
        <time>2021-10-24T08:25:58Z</time>
      </trkpt>
      <trkpt lat="44.19761" lon="4.53754">
        <ele>86.8</ele>
        <time>2021-10-24T08:25:59Z</time>
      </trkpt>
      <trkpt lat="44.19758" lon="4.53748">
        <ele>87</ele>
        <time>2021-10-24T08:26:00Z</time>
      </trkpt>
      <trkpt lat="44.19756" lon="4.53742">
        <ele>87.2</ele>
        <time>2021-10-24T08:26:01Z</time>
      </trkpt>
      <trkpt lat="44.19754" lon="4.53736">
        <ele>87.6</ele>
        <time>2021-10-24T08:26:02Z</time>
      </trkpt>
      <trkpt lat="44.19751" lon="4.53729">
        <ele>87.4</ele>
        <time>2021-10-24T08:26:03Z</time>
      </trkpt>
      <trkpt lat="44.19749" lon="4.53723">
        <ele>87.6</ele>
        <time>2021-10-24T08:26:04Z</time>
      </trkpt>
      <trkpt lat="44.19746" lon="4.53717">
        <ele>87.8</ele>
        <time>2021-10-24T08:26:05Z</time>
      </trkpt>
      <trkpt lat="44.19744" lon="4.53712">
        <ele>88</ele>
        <time>2021-10-24T08:26:06Z</time>
      </trkpt>
      <trkpt lat="44.19741" lon="4.53707">
        <ele>88.2</ele>
        <time>2021-10-24T08:26:07Z</time>
      </trkpt>
      <trkpt lat="44.19738" lon="4.53701">
        <ele>88.2</ele>
        <time>2021-10-24T08:26:08Z</time>
      </trkpt>
      <trkpt lat="44.19736" lon="4.53696">
        <ele>88.6</ele>
        <time>2021-10-24T08:26:09Z</time>
      </trkpt>
      <trkpt lat="44.19733" lon="4.5369">
        <ele>88.6</ele>
        <time>2021-10-24T08:26:10Z</time>
      </trkpt>
      <trkpt lat="44.1973" lon="4.53686">
        <ele>88.6</ele>
        <time>2021-10-24T08:26:11Z</time>
      </trkpt>
      <trkpt lat="44.19727" lon="4.53681">
        <ele>89</ele>
        <time>2021-10-24T08:26:12Z</time>
      </trkpt>
      <trkpt lat="44.19724" lon="4.53675">
        <ele>89.2</ele>
        <time>2021-10-24T08:26:13Z</time>
      </trkpt>
      <trkpt lat="44.19721" lon="4.5367">
        <ele>89.6</ele>
        <time>2021-10-24T08:26:14Z</time>
      </trkpt>
      <trkpt lat="44.19717" lon="4.53665">
        <ele>89.6</ele>
        <time>2021-10-24T08:26:15Z</time>
      </trkpt>
      <trkpt lat="44.19714" lon="4.53659">
        <ele>89.8</ele>
        <time>2021-10-24T08:26:16Z</time>
      </trkpt>
      <trkpt lat="44.19711" lon="4.53654">
        <ele>90</ele>
        <time>2021-10-24T08:26:17Z</time>
      </trkpt>
      <trkpt lat="44.19708" lon="4.53649">
        <ele>90.2</ele>
        <time>2021-10-24T08:26:18Z</time>
      </trkpt>
      <trkpt lat="44.19705" lon="4.53643">
        <ele>90.4</ele>
        <time>2021-10-24T08:26:19Z</time>
      </trkpt>
      <trkpt lat="44.19702" lon="4.53638">
        <ele>90.4</ele>
        <time>2021-10-24T08:26:20Z</time>
      </trkpt>
      <trkpt lat="44.19699" lon="4.53633">
        <ele>90.8</ele>
        <time>2021-10-24T08:26:21Z</time>
      </trkpt>
      <trkpt lat="44.19696" lon="4.53627">
        <ele>91</ele>
        <time>2021-10-24T08:26:22Z</time>
      </trkpt>
      <trkpt lat="44.19692" lon="4.53622">
        <ele>91.2</ele>
        <time>2021-10-24T08:26:23Z</time>
      </trkpt>
      <trkpt lat="44.19689" lon="4.53617">
        <ele>91.4</ele>
        <time>2021-10-24T08:26:24Z</time>
      </trkpt>
      <trkpt lat="44.19686" lon="4.53612">
        <ele>91.4</ele>
        <time>2021-10-24T08:26:25Z</time>
      </trkpt>
      <trkpt lat="44.19683" lon="4.53608">
        <ele>91.6</ele>
        <time>2021-10-24T08:26:26Z</time>
      </trkpt>
      <trkpt lat="44.1968" lon="4.53603">
        <ele>91.8</ele>
        <time>2021-10-24T08:26:27Z</time>
      </trkpt>
      <trkpt lat="44.19676" lon="4.53599">
        <ele>92.2</ele>
        <time>2021-10-24T08:26:28Z</time>
      </trkpt>
      <trkpt lat="44.19673" lon="4.53594">
        <ele>92.2</ele>
        <time>2021-10-24T08:26:29Z</time>
      </trkpt>
      <trkpt lat="44.19669" lon="4.5359">
        <ele>92.4</ele>
        <time>2021-10-24T08:26:30Z</time>
      </trkpt>
      <trkpt lat="44.19666" lon="4.53585">
        <ele>92.8</ele>
        <time>2021-10-24T08:26:31Z</time>
      </trkpt>
      <trkpt lat="44.19662" lon="4.5358">
        <ele>93</ele>
        <time>2021-10-24T08:26:32Z</time>
      </trkpt>
      <trkpt lat="44.19658" lon="4.53576">
        <ele>93.4</ele>
        <time>2021-10-24T08:26:33Z</time>
      </trkpt>
      <trkpt lat="44.19654" lon="4.53571">
        <ele>93.4</ele>
        <time>2021-10-24T08:26:34Z</time>
      </trkpt>
      <trkpt lat="44.19651" lon="4.53567">
        <ele>93.6</ele>
        <time>2021-10-24T08:26:35Z</time>
      </trkpt>
      <trkpt lat="44.19647" lon="4.53562">
        <ele>94</ele>
        <time>2021-10-24T08:26:36Z</time>
      </trkpt>
      <trkpt lat="44.19644" lon="4.53558">
        <ele>94.2</ele>
        <time>2021-10-24T08:26:37Z</time>
      </trkpt>
      <trkpt lat="44.19641" lon="4.53553">
        <ele>94.6</ele>
        <time>2021-10-24T08:26:38Z</time>
      </trkpt>
      <trkpt lat="44.19638" lon="4.53548">
        <ele>95</ele>
        <time>2021-10-24T08:26:39Z</time>
      </trkpt>
      <trkpt lat="44.19635" lon="4.53543">
        <ele>95.2</ele>
        <time>2021-10-24T08:26:40Z</time>
      </trkpt>
      <trkpt lat="44.19633" lon="4.53537">
        <ele>95.4</ele>
        <time>2021-10-24T08:26:41Z</time>
      </trkpt>
      <trkpt lat="44.1963" lon="4.53532">
        <ele>95.4</ele>
        <time>2021-10-24T08:26:42Z</time>
      </trkpt>
      <trkpt lat="44.19628" lon="4.53526">
        <ele>96.2</ele>
        <time>2021-10-24T08:26:43Z</time>
      </trkpt>
      <trkpt lat="44.19625" lon="4.5352">
        <ele>96.2</ele>
        <time>2021-10-24T08:26:44Z</time>
      </trkpt>
      <trkpt lat="44.19623" lon="4.53513">
        <ele>96.2</ele>
        <time>2021-10-24T08:26:45Z</time>
      </trkpt>
      <trkpt lat="44.19621" lon="4.53507">
        <ele>96.4</ele>
        <time>2021-10-24T08:26:46Z</time>
      </trkpt>
      <trkpt lat="44.19618" lon="4.535">
        <ele>96.6</ele>
        <time>2021-10-24T08:26:47Z</time>
      </trkpt>
      <trkpt lat="44.19616" lon="4.53493">
        <ele>96.4</ele>
        <time>2021-10-24T08:26:48Z</time>
      </trkpt>
      <trkpt lat="44.19614" lon="4.53486">
        <ele>96.6</ele>
        <time>2021-10-24T08:26:49Z</time>
      </trkpt>
      <trkpt lat="44.19612" lon="4.53479">
        <ele>96.6</ele>
        <time>2021-10-24T08:26:50Z</time>
      </trkpt>
      <trkpt lat="44.19609" lon="4.53472">
        <ele>96.6</ele>
        <time>2021-10-24T08:26:51Z</time>
      </trkpt>
      <trkpt lat="44.19607" lon="4.53466">
        <ele>96.6</ele>
        <time>2021-10-24T08:26:52Z</time>
      </trkpt>
      <trkpt lat="44.19605" lon="4.53459">
        <ele>96.8</ele>
        <time>2021-10-24T08:26:53Z</time>
      </trkpt>
      <trkpt lat="44.19603" lon="4.53452">
        <ele>96.8</ele>
        <time>2021-10-24T08:26:54Z</time>
      </trkpt>
      <trkpt lat="44.19601" lon="4.53446">
        <ele>97</ele>
        <time>2021-10-24T08:26:55Z</time>
      </trkpt>
      <trkpt lat="44.196" lon="4.53439">
        <ele>97.2</ele>
        <time>2021-10-24T08:26:56Z</time>
      </trkpt>
      <trkpt lat="44.19598" lon="4.53433">
        <ele>97.4</ele>
        <time>2021-10-24T08:26:57Z</time>
      </trkpt>
      <trkpt lat="44.19595" lon="4.53427">
        <ele>97.8</ele>
        <time>2021-10-24T08:26:58Z</time>
      </trkpt>
      <trkpt lat="44.19592" lon="4.5342">
        <ele>98</ele>
        <time>2021-10-24T08:26:59Z</time>
      </trkpt>
      <trkpt lat="44.1959" lon="4.53414">
        <ele>98.2</ele>
        <time>2021-10-24T08:27:00Z</time>
      </trkpt>
      <trkpt lat="44.19587" lon="4.53408">
        <ele>98.4</ele>
        <time>2021-10-24T08:27:01Z</time>
      </trkpt>
      <trkpt lat="44.19585" lon="4.53402">
        <ele>98.4</ele>
        <time>2021-10-24T08:27:02Z</time>
      </trkpt>
      <trkpt lat="44.19583" lon="4.53395">
        <ele>98.6</ele>
        <time>2021-10-24T08:27:03Z</time>
      </trkpt>
      <trkpt lat="44.19581" lon="4.53389">
        <ele>99</ele>
        <time>2021-10-24T08:27:04Z</time>
      </trkpt>
      <trkpt lat="44.19579" lon="4.53382">
        <ele>99.2</ele>
        <time>2021-10-24T08:27:05Z</time>
      </trkpt>
      <trkpt lat="44.19577" lon="4.53374">
        <ele>99.4</ele>
        <time>2021-10-24T08:27:06Z</time>
      </trkpt>
      <trkpt lat="44.19576" lon="4.53367">
        <ele>99.8</ele>
        <time>2021-10-24T08:27:07Z</time>
      </trkpt>
      <trkpt lat="44.19574" lon="4.53359">
        <ele>99.8</ele>
        <time>2021-10-24T08:27:08Z</time>
      </trkpt>
      <trkpt lat="44.19573" lon="4.53351">
        <ele>100</ele>
        <time>2021-10-24T08:27:09Z</time>
      </trkpt>
      <trkpt lat="44.19572" lon="4.53344">
        <ele>100</ele>
        <time>2021-10-24T08:27:10Z</time>
      </trkpt>
      <trkpt lat="44.19571" lon="4.53336">
        <ele>100.2</ele>
        <time>2021-10-24T08:27:11Z</time>
      </trkpt>
      <trkpt lat="44.19569" lon="4.53328">
        <ele>100.4</ele>
        <time>2021-10-24T08:27:12Z</time>
      </trkpt>
      <trkpt lat="44.19568" lon="4.5332">
        <ele>100.4</ele>
        <time>2021-10-24T08:27:13Z</time>
      </trkpt>
      <trkpt lat="44.19566" lon="4.53312">
        <ele>100.6</ele>
        <time>2021-10-24T08:27:14Z</time>
      </trkpt>
      <trkpt lat="44.19565" lon="4.53304">
        <ele>100.8</ele>
        <time>2021-10-24T08:27:15Z</time>
      </trkpt>
      <trkpt lat="44.19563" lon="4.53296">
        <ele>101</ele>
        <time>2021-10-24T08:27:16Z</time>
      </trkpt>
      <trkpt lat="44.19562" lon="4.53287">
        <ele>101</ele>
        <time>2021-10-24T08:27:17Z</time>
      </trkpt>
      <trkpt lat="44.1956" lon="4.53279">
        <ele>101.2</ele>
        <time>2021-10-24T08:27:18Z</time>
      </trkpt>
      <trkpt lat="44.19558" lon="4.5327">
        <ele>101.2</ele>
        <time>2021-10-24T08:27:19Z</time>
      </trkpt>
      <trkpt lat="44.19557" lon="4.53262">
        <ele>101.4</ele>
        <time>2021-10-24T08:27:20Z</time>
      </trkpt>
      <trkpt lat="44.19556" lon="4.53253">
        <ele>101.4</ele>
        <time>2021-10-24T08:27:21Z</time>
      </trkpt>
      <trkpt lat="44.19555" lon="4.53244">
        <ele>101.4</ele>
        <time>2021-10-24T08:27:22Z</time>
      </trkpt>
      <trkpt lat="44.19554" lon="4.53235">
        <ele>101.6</ele>
        <time>2021-10-24T08:27:23Z</time>
      </trkpt>
      <trkpt lat="44.19553" lon="4.53226">
        <ele>101.4</ele>
        <time>2021-10-24T08:27:24Z</time>
      </trkpt>
      <trkpt lat="44.19552" lon="4.53217">
        <ele>101.8</ele>
        <time>2021-10-24T08:27:25Z</time>
      </trkpt>
      <trkpt lat="44.19552" lon="4.53208">
        <ele>101.8</ele>
        <time>2021-10-24T08:27:26Z</time>
      </trkpt>
      <trkpt lat="44.19551" lon="4.53199">
        <ele>102</ele>
        <time>2021-10-24T08:27:27Z</time>
      </trkpt>
      <trkpt lat="44.19551" lon="4.53191">
        <ele>102.2</ele>
        <time>2021-10-24T08:27:28Z</time>
      </trkpt>
      <trkpt lat="44.1955" lon="4.53182">
        <ele>102.4</ele>
        <time>2021-10-24T08:27:29Z</time>
      </trkpt>
      <trkpt lat="44.19549" lon="4.53174">
        <ele>102.6</ele>
        <time>2021-10-24T08:27:30Z</time>
      </trkpt>
      <trkpt lat="44.19548" lon="4.53167">
        <ele>103</ele>
        <time>2021-10-24T08:27:31Z</time>
      </trkpt>
      <trkpt lat="44.19546" lon="4.53159">
        <ele>103.2</ele>
        <time>2021-10-24T08:27:32Z</time>
      </trkpt>
      <trkpt lat="44.19545" lon="4.53153">
        <ele>103.4</ele>
        <time>2021-10-24T08:27:33Z</time>
      </trkpt>
      <trkpt lat="44.19544" lon="4.53146">
        <ele>103.6</ele>
        <time>2021-10-24T08:27:34Z</time>
      </trkpt>
      <trkpt lat="44.19544" lon="4.53138">
        <ele>103.8</ele>
        <time>2021-10-24T08:27:35Z</time>
      </trkpt>
      <trkpt lat="44.19542" lon="4.53131">
        <ele>104.2</ele>
        <time>2021-10-24T08:27:36Z</time>
      </trkpt>
      <trkpt lat="44.1954" lon="4.53123">
        <ele>104.2</ele>
        <time>2021-10-24T08:27:37Z</time>
      </trkpt>
      <trkpt lat="44.19538" lon="4.53116">
        <ele>104.6</ele>
        <time>2021-10-24T08:27:38Z</time>
      </trkpt>
      <trkpt lat="44.19535" lon="4.53108">
        <ele>105</ele>
        <time>2021-10-24T08:27:39Z</time>
      </trkpt>
      <trkpt lat="44.19533" lon="4.531">
        <ele>105</ele>
        <time>2021-10-24T08:27:40Z</time>
      </trkpt>
      <trkpt lat="44.1953" lon="4.53091">
        <ele>105.2</ele>
        <time>2021-10-24T08:27:41Z</time>
      </trkpt>
      <trkpt lat="44.19527" lon="4.53081">
        <ele>105.2</ele>
        <time>2021-10-24T08:27:42Z</time>
      </trkpt>
      <trkpt lat="44.19525" lon="4.53071">
        <ele>105</ele>
        <time>2021-10-24T08:27:43Z</time>
      </trkpt>
      <trkpt lat="44.19522" lon="4.53059">
        <ele>104.6</ele>
        <time>2021-10-24T08:27:44Z</time>
      </trkpt>
      <trkpt lat="44.19519" lon="4.53048">
        <ele>104.4</ele>
        <time>2021-10-24T08:27:45Z</time>
      </trkpt>
      <trkpt lat="44.19516" lon="4.53035">
        <ele>104.2</ele>
        <time>2021-10-24T08:27:46Z</time>
      </trkpt>
      <trkpt lat="44.19513" lon="4.53022">
        <ele>103.6</ele>
        <time>2021-10-24T08:27:47Z</time>
      </trkpt>
      <trkpt lat="44.19512" lon="4.53008">
        <ele>103.4</ele>
        <time>2021-10-24T08:27:48Z</time>
      </trkpt>
      <trkpt lat="44.1951" lon="4.52995">
        <ele>103</ele>
        <time>2021-10-24T08:27:49Z</time>
      </trkpt>
      <trkpt lat="44.1951" lon="4.52981">
        <ele>102.6</ele>
        <time>2021-10-24T08:27:50Z</time>
      </trkpt>
      <trkpt lat="44.1951" lon="4.52967">
        <ele>102</ele>
        <time>2021-10-24T08:27:51Z</time>
      </trkpt>
      <trkpt lat="44.1951" lon="4.52953">
        <ele>101.4</ele>
        <time>2021-10-24T08:27:52Z</time>
      </trkpt>
      <trkpt lat="44.19511" lon="4.52939">
        <ele>101</ele>
        <time>2021-10-24T08:27:53Z</time>
      </trkpt>
      <trkpt lat="44.19511" lon="4.52924">
        <ele>100.6</ele>
        <time>2021-10-24T08:27:54Z</time>
      </trkpt>
      <trkpt lat="44.19512" lon="4.5291">
        <ele>100</ele>
        <time>2021-10-24T08:27:55Z</time>
      </trkpt>
      <trkpt lat="44.19514" lon="4.52895">
        <ele>99.4</ele>
        <time>2021-10-24T08:27:56Z</time>
      </trkpt>
      <trkpt lat="44.19515" lon="4.5288">
        <ele>98.8</ele>
        <time>2021-10-24T08:27:57Z</time>
      </trkpt>
      <trkpt lat="44.19515" lon="4.52867">
        <ele>98.6</ele>
        <time>2021-10-24T08:27:58Z</time>
      </trkpt>
      <trkpt lat="44.19515" lon="4.52854">
        <ele>98.2</ele>
        <time>2021-10-24T08:27:59Z</time>
      </trkpt>
      <trkpt lat="44.19514" lon="4.52841">
        <ele>97.4</ele>
        <time>2021-10-24T08:28:00Z</time>
      </trkpt>
      <trkpt lat="44.19512" lon="4.52828">
        <ele>96.6</ele>
        <time>2021-10-24T08:28:01Z</time>
      </trkpt>
      <trkpt lat="44.1951" lon="4.52815">
        <ele>95.8</ele>
        <time>2021-10-24T08:28:02Z</time>
      </trkpt>
      <trkpt lat="44.19508" lon="4.52802">
        <ele>95.2</ele>
        <time>2021-10-24T08:28:03Z</time>
      </trkpt>
      <trkpt lat="44.19505" lon="4.52789">
        <ele>94.6</ele>
        <time>2021-10-24T08:28:04Z</time>
      </trkpt>
      <trkpt lat="44.19501" lon="4.52776">
        <ele>94</ele>
        <time>2021-10-24T08:28:05Z</time>
      </trkpt>
      <trkpt lat="44.19497" lon="4.52763">
        <ele>93.2</ele>
        <time>2021-10-24T08:28:06Z</time>
      </trkpt>
      <trkpt lat="44.19491" lon="4.5275">
        <ele>92</ele>
        <time>2021-10-24T08:28:07Z</time>
      </trkpt>
      <trkpt lat="44.19485" lon="4.52736">
        <ele>91</ele>
        <time>2021-10-24T08:28:08Z</time>
      </trkpt>
      <trkpt lat="44.19479" lon="4.52722">
        <ele>90.4</ele>
        <time>2021-10-24T08:28:09Z</time>
      </trkpt>
      <trkpt lat="44.19472" lon="4.52709">
        <ele>89.2</ele>
        <time>2021-10-24T08:28:10Z</time>
      </trkpt>
      <trkpt lat="44.19465" lon="4.52695">
        <ele>88</ele>
        <time>2021-10-24T08:28:11Z</time>
      </trkpt>
      <trkpt lat="44.19458" lon="4.52682">
        <ele>86.6</ele>
        <time>2021-10-24T08:28:12Z</time>
      </trkpt>
      <trkpt lat="44.19452" lon="4.52669">
        <ele>85.2</ele>
        <time>2021-10-24T08:28:13Z</time>
      </trkpt>
      <trkpt lat="44.19446" lon="4.52657">
        <ele>83.8</ele>
        <time>2021-10-24T08:28:14Z</time>
      </trkpt>
      <trkpt lat="44.1944" lon="4.52645">
        <ele>82.2</ele>
        <time>2021-10-24T08:28:15Z</time>
      </trkpt>
      <trkpt lat="44.19436" lon="4.52634">
        <ele>80.8</ele>
        <time>2021-10-24T08:28:16Z</time>
      </trkpt>
      <trkpt lat="44.19432" lon="4.52623">
        <ele>79.2</ele>
        <time>2021-10-24T08:28:17Z</time>
      </trkpt>
      <trkpt lat="44.19429" lon="4.52611">
        <ele>77</ele>
        <time>2021-10-24T08:28:18Z</time>
      </trkpt>
      <trkpt lat="44.19426" lon="4.52599">
        <ele>75.6</ele>
        <time>2021-10-24T08:28:19Z</time>
      </trkpt>
      <trkpt lat="44.19423" lon="4.52587">
        <ele>74.2</ele>
        <time>2021-10-24T08:28:20Z</time>
      </trkpt>
      <trkpt lat="44.19418" lon="4.52573">
        <ele>73</ele>
        <time>2021-10-24T08:28:21Z</time>
      </trkpt>
      <trkpt lat="44.19414" lon="4.52559">
        <ele>71.8</ele>
        <time>2021-10-24T08:28:22Z</time>
      </trkpt>
      <trkpt lat="44.19409" lon="4.52546">
        <ele>70.6</ele>
        <time>2021-10-24T08:28:23Z</time>
      </trkpt>
      <trkpt lat="44.19404" lon="4.52534">
        <ele>69.6</ele>
        <time>2021-10-24T08:28:24Z</time>
      </trkpt>
      <trkpt lat="44.19399" lon="4.52522">
        <ele>68.8</ele>
        <time>2021-10-24T08:28:25Z</time>
      </trkpt>
      <trkpt lat="44.19395" lon="4.5251">
        <ele>67.8</ele>
        <time>2021-10-24T08:28:26Z</time>
      </trkpt>
      <trkpt lat="44.1939" lon="4.52498">
        <ele>67.2</ele>
        <time>2021-10-24T08:28:27Z</time>
      </trkpt>
      <trkpt lat="44.19386" lon="4.52487">
        <ele>66.6</ele>
        <time>2021-10-24T08:28:28Z</time>
      </trkpt>
      <trkpt lat="44.19382" lon="4.52476">
        <ele>65.8</ele>
        <time>2021-10-24T08:28:29Z</time>
      </trkpt>
      <trkpt lat="44.19379" lon="4.52466">
        <ele>65.2</ele>
        <time>2021-10-24T08:28:30Z</time>
      </trkpt>
      <trkpt lat="44.19377" lon="4.52455">
        <ele>64.6</ele>
        <time>2021-10-24T08:28:31Z</time>
      </trkpt>
      <trkpt lat="44.19375" lon="4.52445">
        <ele>63.6</ele>
        <time>2021-10-24T08:28:32Z</time>
      </trkpt>
      <trkpt lat="44.19373" lon="4.52438">
        <ele>63.2</ele>
        <time>2021-10-24T08:28:33Z</time>
      </trkpt>
      <trkpt lat="44.19371" lon="4.52431">
        <ele>62.8</ele>
        <time>2021-10-24T08:28:34Z</time>
      </trkpt>
      <trkpt lat="44.19368" lon="4.52425">
        <ele>62</ele>
        <time>2021-10-24T08:28:35Z</time>
      </trkpt>
      <trkpt lat="44.19365" lon="4.52419">
        <ele>61.4</ele>
        <time>2021-10-24T08:28:36Z</time>
      </trkpt>
      <trkpt lat="44.19362" lon="4.52414">
        <ele>60.8</ele>
        <time>2021-10-24T08:28:37Z</time>
      </trkpt>
      <trkpt lat="44.19359" lon="4.52407">
        <ele>60.6</ele>
        <time>2021-10-24T08:28:38Z</time>
      </trkpt>
      <trkpt lat="44.19357" lon="4.52401">
        <ele>61</ele>
        <time>2021-10-24T08:28:39Z</time>
      </trkpt>
      <trkpt lat="44.19354" lon="4.52394">
        <ele>61</ele>
        <time>2021-10-24T08:28:40Z</time>
      </trkpt>
      <trkpt lat="44.19351" lon="4.52387">
        <ele>61.2</ele>
        <time>2021-10-24T08:28:41Z</time>
      </trkpt>
      <trkpt lat="44.19349" lon="4.5238">
        <ele>61.4</ele>
        <time>2021-10-24T08:28:42Z</time>
      </trkpt>
      <trkpt lat="44.19346" lon="4.52374">
        <ele>62</ele>
        <time>2021-10-24T08:28:43Z</time>
      </trkpt>
      <trkpt lat="44.19344" lon="4.52368">
        <ele>62.4</ele>
        <time>2021-10-24T08:28:44Z</time>
      </trkpt>
      <trkpt lat="44.19343" lon="4.52364">
        <ele>62.4</ele>
        <time>2021-10-24T08:28:45Z</time>
      </trkpt>
      <trkpt lat="44.19341" lon="4.52364">
        <ele>62.2</ele>
        <time>2021-10-24T08:29:03Z</time>
      </trkpt>
      <trkpt lat="44.1934" lon="4.52361">
        <ele>62.2</ele>
        <time>2021-10-24T08:29:40Z</time>
      </trkpt>
      <trkpt lat="44.19338" lon="4.52357">
        <ele>62.6</ele>
        <time>2021-10-24T08:29:42Z</time>
      </trkpt>
      <trkpt lat="44.19337" lon="4.52354">
        <ele>62.6</ele>
        <time>2021-10-24T08:29:43Z</time>
      </trkpt>
      <trkpt lat="44.19336" lon="4.5235">
        <ele>62.6</ele>
        <time>2021-10-24T08:29:44Z</time>
      </trkpt>
      <trkpt lat="44.19335" lon="4.52346">
        <ele>62.6</ele>
        <time>2021-10-24T08:29:45Z</time>
      </trkpt>
      <trkpt lat="44.19333" lon="4.52342">
        <ele>62.8</ele>
        <time>2021-10-24T08:29:46Z</time>
      </trkpt>
      <trkpt lat="44.19331" lon="4.52338">
        <ele>62.8</ele>
        <time>2021-10-24T08:29:47Z</time>
      </trkpt>
      <trkpt lat="44.19329" lon="4.52333">
        <ele>62.8</ele>
        <time>2021-10-24T08:29:48Z</time>
      </trkpt>
      <trkpt lat="44.19327" lon="4.52328">
        <ele>63</ele>
        <time>2021-10-24T08:29:49Z</time>
      </trkpt>
      <trkpt lat="44.19325" lon="4.52322">
        <ele>63</ele>
        <time>2021-10-24T08:29:50Z</time>
      </trkpt>
      <trkpt lat="44.19323" lon="4.52317">
        <ele>62.8</ele>
        <time>2021-10-24T08:29:51Z</time>
      </trkpt>
      <trkpt lat="44.19321" lon="4.52312">
        <ele>63</ele>
        <time>2021-10-24T08:29:52Z</time>
      </trkpt>
      <trkpt lat="44.19318" lon="4.52306">
        <ele>63</ele>
        <time>2021-10-24T08:29:53Z</time>
      </trkpt>
      <trkpt lat="44.19316" lon="4.52299">
        <ele>62.8</ele>
        <time>2021-10-24T08:29:54Z</time>
      </trkpt>
      <trkpt lat="44.19314" lon="4.52293">
        <ele>62.8</ele>
        <time>2021-10-24T08:29:55Z</time>
      </trkpt>
      <trkpt lat="44.19311" lon="4.52286">
        <ele>62.4</ele>
        <time>2021-10-24T08:29:56Z</time>
      </trkpt>
      <trkpt lat="44.19308" lon="4.52278">
        <ele>62.6</ele>
        <time>2021-10-24T08:29:57Z</time>
      </trkpt>
      <trkpt lat="44.19305" lon="4.52271">
        <ele>62.6</ele>
        <time>2021-10-24T08:29:58Z</time>
      </trkpt>
      <trkpt lat="44.19303" lon="4.52264">
        <ele>62.4</ele>
        <time>2021-10-24T08:29:59Z</time>
      </trkpt>
      <trkpt lat="44.19301" lon="4.52257">
        <ele>62</ele>
        <time>2021-10-24T08:30:00Z</time>
      </trkpt>
      <trkpt lat="44.19301" lon="4.5225">
        <ele>61.8</ele>
        <time>2021-10-24T08:30:01Z</time>
      </trkpt>
      <trkpt lat="44.19302" lon="4.52242">
        <ele>61.4</ele>
        <time>2021-10-24T08:30:02Z</time>
      </trkpt>
      <trkpt lat="44.19305" lon="4.52236">
        <ele>61.2</ele>
        <time>2021-10-24T08:30:03Z</time>
      </trkpt>
      <trkpt lat="44.19307" lon="4.52229">
        <ele>60.8</ele>
        <time>2021-10-24T08:30:04Z</time>
      </trkpt>
      <trkpt lat="44.1931" lon="4.52224">
        <ele>60.6</ele>
        <time>2021-10-24T08:30:05Z</time>
      </trkpt>
      <trkpt lat="44.19313" lon="4.52218">
        <ele>60.6</ele>
        <time>2021-10-24T08:30:06Z</time>
      </trkpt>
      <trkpt lat="44.19315" lon="4.52213">
        <ele>60.6</ele>
        <time>2021-10-24T08:30:07Z</time>
      </trkpt>
      <trkpt lat="44.19316" lon="4.52208">
        <ele>60.4</ele>
        <time>2021-10-24T08:30:08Z</time>
      </trkpt>
      <trkpt lat="44.19318" lon="4.52202">
        <ele>60.2</ele>
        <time>2021-10-24T08:30:09Z</time>
      </trkpt>
      <trkpt lat="44.19319" lon="4.52196">
        <ele>60.2</ele>
        <time>2021-10-24T08:30:10Z</time>
      </trkpt>
      <trkpt lat="44.1932" lon="4.52191">
        <ele>60.4</ele>
        <time>2021-10-24T08:30:11Z</time>
      </trkpt>
      <trkpt lat="44.1932" lon="4.52185">
        <ele>60.6</ele>
        <time>2021-10-24T08:30:12Z</time>
      </trkpt>
      <trkpt lat="44.1932" lon="4.52179">
        <ele>60.6</ele>
        <time>2021-10-24T08:30:13Z</time>
      </trkpt>
      <trkpt lat="44.19319" lon="4.52174">
        <ele>60.8</ele>
        <time>2021-10-24T08:30:14Z</time>
      </trkpt>
      <trkpt lat="44.19318" lon="4.52168">
        <ele>61</ele>
        <time>2021-10-24T08:30:15Z</time>
      </trkpt>
      <trkpt lat="44.19317" lon="4.52163">
        <ele>61.4</ele>
        <time>2021-10-24T08:30:16Z</time>
      </trkpt>
      <trkpt lat="44.19316" lon="4.52158">
        <ele>61.6</ele>
        <time>2021-10-24T08:30:17Z</time>
      </trkpt>
      <trkpt lat="44.19315" lon="4.52152">
        <ele>61.4</ele>
        <time>2021-10-24T08:30:18Z</time>
      </trkpt>
      <trkpt lat="44.19313" lon="4.52147">
        <ele>61.6</ele>
        <time>2021-10-24T08:30:19Z</time>
      </trkpt>
      <trkpt lat="44.19311" lon="4.52143">
        <ele>61.8</ele>
        <time>2021-10-24T08:30:20Z</time>
      </trkpt>
      <trkpt lat="44.19309" lon="4.52138">
        <ele>62</ele>
        <time>2021-10-24T08:30:21Z</time>
      </trkpt>
      <trkpt lat="44.19307" lon="4.52134">
        <ele>62.2</ele>
        <time>2021-10-24T08:30:22Z</time>
      </trkpt>
      <trkpt lat="44.19305" lon="4.5213">
        <ele>62.2</ele>
        <time>2021-10-24T08:30:23Z</time>
      </trkpt>
      <trkpt lat="44.19302" lon="4.52126">
        <ele>62.4</ele>
        <time>2021-10-24T08:30:24Z</time>
      </trkpt>
      <trkpt lat="44.19299" lon="4.52123">
        <ele>62.6</ele>
        <time>2021-10-24T08:30:25Z</time>
      </trkpt>
      <trkpt lat="44.19296" lon="4.52121">
        <ele>62.8</ele>
        <time>2021-10-24T08:30:26Z</time>
      </trkpt>
      <trkpt lat="44.19292" lon="4.52119">
        <ele>63</ele>
        <time>2021-10-24T08:30:27Z</time>
      </trkpt>
      <trkpt lat="44.19287" lon="4.52119">
        <ele>63.2</ele>
        <time>2021-10-24T08:30:28Z</time>
      </trkpt>
      <trkpt lat="44.19283" lon="4.5212">
        <ele>63.6</ele>
        <time>2021-10-24T08:30:29Z</time>
      </trkpt>
      <trkpt lat="44.19277" lon="4.52122">
        <ele>63.6</ele>
        <time>2021-10-24T08:30:30Z</time>
      </trkpt>
      <trkpt lat="44.19272" lon="4.52124">
        <ele>63.6</ele>
        <time>2021-10-24T08:30:31Z</time>
      </trkpt>
      <trkpt lat="44.19267" lon="4.52126">
        <ele>63.6</ele>
        <time>2021-10-24T08:30:32Z</time>
      </trkpt>
      <trkpt lat="44.19262" lon="4.52128">
        <ele>63.8</ele>
        <time>2021-10-24T08:30:33Z</time>
      </trkpt>
      <trkpt lat="44.19257" lon="4.52131">
        <ele>64</ele>
        <time>2021-10-24T08:30:34Z</time>
      </trkpt>
      <trkpt lat="44.19252" lon="4.52133">
        <ele>64</ele>
        <time>2021-10-24T08:30:35Z</time>
      </trkpt>
      <trkpt lat="44.19247" lon="4.52135">
        <ele>64.4</ele>
        <time>2021-10-24T08:30:36Z</time>
      </trkpt>
      <trkpt lat="44.19242" lon="4.52137">
        <ele>64.6</ele>
        <time>2021-10-24T08:30:37Z</time>
      </trkpt>
      <trkpt lat="44.19237" lon="4.5214">
        <ele>64.8</ele>
        <time>2021-10-24T08:30:38Z</time>
      </trkpt>
      <trkpt lat="44.19232" lon="4.52142">
        <ele>65</ele>
        <time>2021-10-24T08:30:39Z</time>
      </trkpt>
      <trkpt lat="44.19227" lon="4.52145">
        <ele>65.2</ele>
        <time>2021-10-24T08:30:40Z</time>
      </trkpt>
      <trkpt lat="44.19222" lon="4.52147">
        <ele>65.4</ele>
        <time>2021-10-24T08:30:41Z</time>
      </trkpt>
      <trkpt lat="44.19218" lon="4.5215">
        <ele>65.6</ele>
        <time>2021-10-24T08:30:42Z</time>
      </trkpt>
      <trkpt lat="44.19213" lon="4.52153">
        <ele>65.8</ele>
        <time>2021-10-24T08:30:43Z</time>
      </trkpt>
      <trkpt lat="44.19208" lon="4.52157">
        <ele>66</ele>
        <time>2021-10-24T08:30:44Z</time>
      </trkpt>
      <trkpt lat="44.19204" lon="4.5216">
        <ele>66.4</ele>
        <time>2021-10-24T08:30:45Z</time>
      </trkpt>
      <trkpt lat="44.19199" lon="4.52164">
        <ele>66.6</ele>
        <time>2021-10-24T08:30:46Z</time>
      </trkpt>
      <trkpt lat="44.19195" lon="4.52167">
        <ele>67</ele>
        <time>2021-10-24T08:30:47Z</time>
      </trkpt>
      <trkpt lat="44.1919" lon="4.5217">
        <ele>67.2</ele>
        <time>2021-10-24T08:30:48Z</time>
      </trkpt>
      <trkpt lat="44.19186" lon="4.52174">
        <ele>67.4</ele>
        <time>2021-10-24T08:30:49Z</time>
      </trkpt>
      <trkpt lat="44.19182" lon="4.52178">
        <ele>67.4</ele>
        <time>2021-10-24T08:30:50Z</time>
      </trkpt>
      <trkpt lat="44.19178" lon="4.52182">
        <ele>67.6</ele>
        <time>2021-10-24T08:30:51Z</time>
      </trkpt>
      <trkpt lat="44.19174" lon="4.52185">
        <ele>67.8</ele>
        <time>2021-10-24T08:30:52Z</time>
      </trkpt>
      <trkpt lat="44.1917" lon="4.52189">
        <ele>68</ele>
        <time>2021-10-24T08:30:53Z</time>
      </trkpt>
      <trkpt lat="44.19166" lon="4.52193">
        <ele>68.2</ele>
        <time>2021-10-24T08:30:54Z</time>
      </trkpt>
      <trkpt lat="44.19162" lon="4.52197">
        <ele>68.6</ele>
        <time>2021-10-24T08:30:55Z</time>
      </trkpt>
      <trkpt lat="44.19158" lon="4.52202">
        <ele>68.8</ele>
        <time>2021-10-24T08:30:56Z</time>
      </trkpt>
      <trkpt lat="44.1915" lon="4.52212">
        <ele>69.4</ele>
        <time>2021-10-24T08:30:58Z</time>
      </trkpt>
      <trkpt lat="44.19143" lon="4.52222">
        <ele>69.6</ele>
        <time>2021-10-24T08:31:00Z</time>
      </trkpt>
      <trkpt lat="44.19139" lon="4.52226">
        <ele>69.8</ele>
        <time>2021-10-24T08:31:01Z</time>
      </trkpt>
      <trkpt lat="44.19135" lon="4.52231">
        <ele>69.8</ele>
        <time>2021-10-24T08:31:02Z</time>
      </trkpt>
      <trkpt lat="44.19131" lon="4.52236">
        <ele>70.2</ele>
        <time>2021-10-24T08:31:03Z</time>
      </trkpt>
      <trkpt lat="44.19127" lon="4.52241">
        <ele>70.4</ele>
        <time>2021-10-24T08:31:04Z</time>
      </trkpt>
      <trkpt lat="44.19123" lon="4.52246">
        <ele>70.6</ele>
        <time>2021-10-24T08:31:05Z</time>
      </trkpt>
      <trkpt lat="44.1912" lon="4.52251">
        <ele>70.8</ele>
        <time>2021-10-24T08:31:06Z</time>
      </trkpt>
      <trkpt lat="44.19116" lon="4.52256">
        <ele>70.8</ele>
        <time>2021-10-24T08:31:07Z</time>
      </trkpt>
      <trkpt lat="44.19111" lon="4.5226">
        <ele>71</ele>
        <time>2021-10-24T08:31:08Z</time>
      </trkpt>
      <trkpt lat="44.19107" lon="4.52265">
        <ele>71.2</ele>
        <time>2021-10-24T08:31:09Z</time>
      </trkpt>
      <trkpt lat="44.19103" lon="4.52269">
        <ele>71.6</ele>
        <time>2021-10-24T08:31:10Z</time>
      </trkpt>
      <trkpt lat="44.19098" lon="4.52273">
        <ele>71.8</ele>
        <time>2021-10-24T08:31:11Z</time>
      </trkpt>
      <trkpt lat="44.19094" lon="4.52278">
        <ele>72</ele>
        <time>2021-10-24T08:31:12Z</time>
      </trkpt>
      <trkpt lat="44.1909" lon="4.52283">
        <ele>72.2</ele>
        <time>2021-10-24T08:31:13Z</time>
      </trkpt>
      <trkpt lat="44.19085" lon="4.52286">
        <ele>72.4</ele>
        <time>2021-10-24T08:31:14Z</time>
      </trkpt>
      <trkpt lat="44.19081" lon="4.52289">
        <ele>72.6</ele>
        <time>2021-10-24T08:31:15Z</time>
      </trkpt>
      <trkpt lat="44.19076" lon="4.52291">
        <ele>72.8</ele>
        <time>2021-10-24T08:31:16Z</time>
      </trkpt>
      <trkpt lat="44.19066" lon="4.52295">
        <ele>73</ele>
        <time>2021-10-24T08:31:18Z</time>
      </trkpt>
      <trkpt lat="44.19061" lon="4.52298">
        <ele>73.2</ele>
        <time>2021-10-24T08:31:19Z</time>
      </trkpt>
      <trkpt lat="44.19056" lon="4.52301">
        <ele>73.6</ele>
        <time>2021-10-24T08:31:20Z</time>
      </trkpt>
      <trkpt lat="44.19051" lon="4.52305">
        <ele>73.8</ele>
        <time>2021-10-24T08:31:21Z</time>
      </trkpt>
      <trkpt lat="44.19048" lon="4.52309">
        <ele>74.2</ele>
        <time>2021-10-24T08:31:22Z</time>
      </trkpt>
      <trkpt lat="44.19045" lon="4.52314">
        <ele>74.6</ele>
        <time>2021-10-24T08:31:23Z</time>
      </trkpt>
      <trkpt lat="44.19042" lon="4.5232">
        <ele>74.8</ele>
        <time>2021-10-24T08:31:24Z</time>
      </trkpt>
      <trkpt lat="44.19041" lon="4.52326">
        <ele>75.2</ele>
        <time>2021-10-24T08:31:25Z</time>
      </trkpt>
      <trkpt lat="44.19039" lon="4.52332">
        <ele>75.4</ele>
        <time>2021-10-24T08:31:26Z</time>
      </trkpt>
      <trkpt lat="44.19036" lon="4.52337">
        <ele>75.6</ele>
        <time>2021-10-24T08:31:27Z</time>
      </trkpt>
      <trkpt lat="44.19034" lon="4.52343">
        <ele>75.8</ele>
        <time>2021-10-24T08:31:28Z</time>
      </trkpt>
      <trkpt lat="44.19031" lon="4.52349">
        <ele>75.8</ele>
        <time>2021-10-24T08:31:29Z</time>
      </trkpt>
      <trkpt lat="44.19028" lon="4.52354">
        <ele>76.2</ele>
        <time>2021-10-24T08:31:30Z</time>
      </trkpt>
      <trkpt lat="44.19025" lon="4.52359">
        <ele>76.4</ele>
        <time>2021-10-24T08:31:31Z</time>
      </trkpt>
      <trkpt lat="44.19022" lon="4.52363">
        <ele>76.6</ele>
        <time>2021-10-24T08:31:32Z</time>
      </trkpt>
      <trkpt lat="44.19018" lon="4.52367">
        <ele>76.8</ele>
        <time>2021-10-24T08:31:33Z</time>
      </trkpt>
      <trkpt lat="44.19015" lon="4.52371">
        <ele>77.2</ele>
        <time>2021-10-24T08:31:34Z</time>
      </trkpt>
      <trkpt lat="44.19011" lon="4.52375">
        <ele>77.4</ele>
        <time>2021-10-24T08:31:35Z</time>
      </trkpt>
      <trkpt lat="44.19007" lon="4.52379">
        <ele>77.8</ele>
        <time>2021-10-24T08:31:36Z</time>
      </trkpt>
      <trkpt lat="44.19004" lon="4.52383">
        <ele>78.2</ele>
        <time>2021-10-24T08:31:37Z</time>
      </trkpt>
      <trkpt lat="44.19" lon="4.52387">
        <ele>78.4</ele>
        <time>2021-10-24T08:31:38Z</time>
      </trkpt>
      <trkpt lat="44.18996" lon="4.52392">
        <ele>78.6</ele>
        <time>2021-10-24T08:31:39Z</time>
      </trkpt>
      <trkpt lat="44.18991" lon="4.52396">
        <ele>78.8</ele>
        <time>2021-10-24T08:31:40Z</time>
      </trkpt>
      <trkpt lat="44.18987" lon="4.524">
        <ele>79.2</ele>
        <time>2021-10-24T08:31:41Z</time>
      </trkpt>
      <trkpt lat="44.18982" lon="4.52405">
        <ele>79.4</ele>
        <time>2021-10-24T08:31:42Z</time>
      </trkpt>
      <trkpt lat="44.18977" lon="4.52409">
        <ele>79.4</ele>
        <time>2021-10-24T08:31:43Z</time>
      </trkpt>
      <trkpt lat="44.18972" lon="4.52412">
        <ele>79.4</ele>
        <time>2021-10-24T08:31:44Z</time>
      </trkpt>
      <trkpt lat="44.18967" lon="4.52415">
        <ele>79.6</ele>
        <time>2021-10-24T08:31:45Z</time>
      </trkpt>
      <trkpt lat="44.18961" lon="4.52418">
        <ele>79.4</ele>
        <time>2021-10-24T08:31:46Z</time>
      </trkpt>
      <trkpt lat="44.18956" lon="4.5242">
        <ele>79.8</ele>
        <time>2021-10-24T08:31:47Z</time>
      </trkpt>
      <trkpt lat="44.18951" lon="4.52421">
        <ele>80</ele>
        <time>2021-10-24T08:31:48Z</time>
      </trkpt>
      <trkpt lat="44.18945" lon="4.52423">
        <ele>80</ele>
        <time>2021-10-24T08:31:49Z</time>
      </trkpt>
      <trkpt lat="44.1894" lon="4.52425">
        <ele>80.2</ele>
        <time>2021-10-24T08:31:50Z</time>
      </trkpt>
      <trkpt lat="44.18934" lon="4.52428">
        <ele>80.4</ele>
        <time>2021-10-24T08:31:51Z</time>
      </trkpt>
      <trkpt lat="44.18929" lon="4.5243">
        <ele>80.8</ele>
        <time>2021-10-24T08:31:52Z</time>
      </trkpt>
      <trkpt lat="44.18924" lon="4.52434">
        <ele>80.6</ele>
        <time>2021-10-24T08:31:53Z</time>
      </trkpt>
      <trkpt lat="44.18919" lon="4.52437">
        <ele>81</ele>
        <time>2021-10-24T08:31:54Z</time>
      </trkpt>
      <trkpt lat="44.18914" lon="4.52441">
        <ele>81</ele>
        <time>2021-10-24T08:31:55Z</time>
      </trkpt>
      <trkpt lat="44.1891" lon="4.52445">
        <ele>81.2</ele>
        <time>2021-10-24T08:31:56Z</time>
      </trkpt>
      <trkpt lat="44.18905" lon="4.5245">
        <ele>81.4</ele>
        <time>2021-10-24T08:31:57Z</time>
      </trkpt>
      <trkpt lat="44.18901" lon="4.52454">
        <ele>81.8</ele>
        <time>2021-10-24T08:31:58Z</time>
      </trkpt>
      <trkpt lat="44.18896" lon="4.52458">
        <ele>82</ele>
        <time>2021-10-24T08:31:59Z</time>
      </trkpt>
      <trkpt lat="44.18891" lon="4.52461">
        <ele>82.2</ele>
        <time>2021-10-24T08:32:00Z</time>
      </trkpt>
      <trkpt lat="44.18885" lon="4.52462">
        <ele>82.4</ele>
        <time>2021-10-24T08:32:01Z</time>
      </trkpt>
      <trkpt lat="44.18879" lon="4.52463">
        <ele>82.6</ele>
        <time>2021-10-24T08:32:02Z</time>
      </trkpt>
      <trkpt lat="44.18874" lon="4.52461">
        <ele>82.8</ele>
        <time>2021-10-24T08:32:03Z</time>
      </trkpt>
      <trkpt lat="44.18868" lon="4.52458">
        <ele>82.8</ele>
        <time>2021-10-24T08:32:04Z</time>
      </trkpt>
      <trkpt lat="44.18863" lon="4.52454">
        <ele>83</ele>
        <time>2021-10-24T08:32:05Z</time>
      </trkpt>
      <trkpt lat="44.18858" lon="4.52448">
        <ele>83.2</ele>
        <time>2021-10-24T08:32:06Z</time>
      </trkpt>
      <trkpt lat="44.18853" lon="4.5244">
        <ele>83.2</ele>
        <time>2021-10-24T08:32:07Z</time>
      </trkpt>
      <trkpt lat="44.18848" lon="4.52432">
        <ele>83.4</ele>
        <time>2021-10-24T08:32:08Z</time>
      </trkpt>
      <trkpt lat="44.18844" lon="4.52423">
        <ele>83.4</ele>
        <time>2021-10-24T08:32:09Z</time>
      </trkpt>
      <trkpt lat="44.1884" lon="4.52414">
        <ele>83.2</ele>
        <time>2021-10-24T08:32:10Z</time>
      </trkpt>
      <trkpt lat="44.18835" lon="4.52404">
        <ele>83</ele>
        <time>2021-10-24T08:32:11Z</time>
      </trkpt>
      <trkpt lat="44.18831" lon="4.52394">
        <ele>82.8</ele>
        <time>2021-10-24T08:32:12Z</time>
      </trkpt>
      <trkpt lat="44.18826" lon="4.52384">
        <ele>82.6</ele>
        <time>2021-10-24T08:32:13Z</time>
      </trkpt>
      <trkpt lat="44.18821" lon="4.52373">
        <ele>82.4</ele>
        <time>2021-10-24T08:32:14Z</time>
      </trkpt>
      <trkpt lat="44.18816" lon="4.52363">
        <ele>82.2</ele>
        <time>2021-10-24T08:32:15Z</time>
      </trkpt>
      <trkpt lat="44.1881" lon="4.52352">
        <ele>82</ele>
        <time>2021-10-24T08:32:16Z</time>
      </trkpt>
      <trkpt lat="44.18804" lon="4.52342">
        <ele>81.8</ele>
        <time>2021-10-24T08:32:17Z</time>
      </trkpt>
      <trkpt lat="44.18799" lon="4.52332">
        <ele>81.4</ele>
        <time>2021-10-24T08:32:18Z</time>
      </trkpt>
      <trkpt lat="44.18793" lon="4.5232">
        <ele>81.4</ele>
        <time>2021-10-24T08:32:19Z</time>
      </trkpt>
      <trkpt lat="44.18789" lon="4.52308">
        <ele>80.8</ele>
        <time>2021-10-24T08:32:20Z</time>
      </trkpt>
      <trkpt lat="44.18788" lon="4.52294">
        <ele>80.4</ele>
        <time>2021-10-24T08:32:21Z</time>
      </trkpt>
      <trkpt lat="44.18788" lon="4.5228">
        <ele>80.2</ele>
        <time>2021-10-24T08:32:22Z</time>
      </trkpt>
      <trkpt lat="44.18789" lon="4.52267">
        <ele>79.8</ele>
        <time>2021-10-24T08:32:23Z</time>
      </trkpt>
      <trkpt lat="44.18791" lon="4.52253">
        <ele>79.4</ele>
        <time>2021-10-24T08:32:24Z</time>
      </trkpt>
      <trkpt lat="44.18793" lon="4.5224">
        <ele>79</ele>
        <time>2021-10-24T08:32:25Z</time>
      </trkpt>
      <trkpt lat="44.18793" lon="4.52227">
        <ele>78.4</ele>
        <time>2021-10-24T08:32:26Z</time>
      </trkpt>
      <trkpt lat="44.18791" lon="4.52214">
        <ele>78.2</ele>
        <time>2021-10-24T08:32:27Z</time>
      </trkpt>
      <trkpt lat="44.18786" lon="4.52203">
        <ele>78</ele>
        <time>2021-10-24T08:32:28Z</time>
      </trkpt>
      <trkpt lat="44.18779" lon="4.52195">
        <ele>77.6</ele>
        <time>2021-10-24T08:32:29Z</time>
      </trkpt>
      <trkpt lat="44.1877" lon="4.52192">
        <ele>77.2</ele>
        <time>2021-10-24T08:32:30Z</time>
      </trkpt>
      <trkpt lat="44.18762" lon="4.52194">
        <ele>76.8</ele>
        <time>2021-10-24T08:32:31Z</time>
      </trkpt>
      <trkpt lat="44.18755" lon="4.52199">
        <ele>76.2</ele>
        <time>2021-10-24T08:32:32Z</time>
      </trkpt>
      <trkpt lat="44.18749" lon="4.52207">
        <ele>75.8</ele>
        <time>2021-10-24T08:32:33Z</time>
      </trkpt>
      <trkpt lat="44.18746" lon="4.52217">
        <ele>75.6</ele>
        <time>2021-10-24T08:32:34Z</time>
      </trkpt>
      <trkpt lat="44.18742" lon="4.52227">
        <ele>75.2</ele>
        <time>2021-10-24T08:32:35Z</time>
      </trkpt>
      <trkpt lat="44.18738" lon="4.52237">
        <ele>75.2</ele>
        <time>2021-10-24T08:32:36Z</time>
      </trkpt>
      <trkpt lat="44.18736" lon="4.52248">
        <ele>75</ele>
        <time>2021-10-24T08:32:37Z</time>
      </trkpt>
      <trkpt lat="44.18734" lon="4.5226">
        <ele>75</ele>
        <time>2021-10-24T08:32:38Z</time>
      </trkpt>
      <trkpt lat="44.18732" lon="4.52271">
        <ele>75</ele>
        <time>2021-10-24T08:32:39Z</time>
      </trkpt>
      <trkpt lat="44.1873" lon="4.52282">
        <ele>74.6</ele>
        <time>2021-10-24T08:32:40Z</time>
      </trkpt>
      <trkpt lat="44.18728" lon="4.52294">
        <ele>74.4</ele>
        <time>2021-10-24T08:32:41Z</time>
      </trkpt>
      <trkpt lat="44.18727" lon="4.52306">
        <ele>74.2</ele>
        <time>2021-10-24T08:32:42Z</time>
      </trkpt>
      <trkpt lat="44.18725" lon="4.52318">
        <ele>74.2</ele>
        <time>2021-10-24T08:32:43Z</time>
      </trkpt>
      <trkpt lat="44.18723" lon="4.5233">
        <ele>74</ele>
        <time>2021-10-24T08:32:44Z</time>
      </trkpt>
      <trkpt lat="44.1872" lon="4.52341">
        <ele>73.8</ele>
        <time>2021-10-24T08:32:45Z</time>
      </trkpt>
      <trkpt lat="44.18717" lon="4.52352">
        <ele>73.8</ele>
        <time>2021-10-24T08:32:46Z</time>
      </trkpt>
      <trkpt lat="44.18713" lon="4.52363">
        <ele>73.8</ele>
        <time>2021-10-24T08:32:47Z</time>
      </trkpt>
      <trkpt lat="44.18709" lon="4.52373">
        <ele>73.6</ele>
        <time>2021-10-24T08:32:48Z</time>
      </trkpt>
      <trkpt lat="44.18704" lon="4.52384">
        <ele>73.4</ele>
        <time>2021-10-24T08:32:49Z</time>
      </trkpt>
      <trkpt lat="44.187" lon="4.52394">
        <ele>73.2</ele>
        <time>2021-10-24T08:32:50Z</time>
      </trkpt>
      <trkpt lat="44.18696" lon="4.52404">
        <ele>73</ele>
        <time>2021-10-24T08:32:51Z</time>
      </trkpt>
      <trkpt lat="44.18692" lon="4.52415">
        <ele>73</ele>
        <time>2021-10-24T08:32:52Z</time>
      </trkpt>
      <trkpt lat="44.18688" lon="4.52425">
        <ele>73</ele>
        <time>2021-10-24T08:32:53Z</time>
      </trkpt>
      <trkpt lat="44.18684" lon="4.52435">
        <ele>73.2</ele>
        <time>2021-10-24T08:32:54Z</time>
      </trkpt>
      <trkpt lat="44.18679" lon="4.52445">
        <ele>73</ele>
        <time>2021-10-24T08:32:55Z</time>
      </trkpt>
      <trkpt lat="44.18673" lon="4.52454">
        <ele>73</ele>
        <time>2021-10-24T08:32:56Z</time>
      </trkpt>
      <trkpt lat="44.18667" lon="4.52462">
        <ele>72.6</ele>
        <time>2021-10-24T08:32:57Z</time>
      </trkpt>
      <trkpt lat="44.18659" lon="4.52468">
        <ele>72.6</ele>
        <time>2021-10-24T08:32:58Z</time>
      </trkpt>
      <trkpt lat="44.18652" lon="4.52473">
        <ele>72.2</ele>
        <time>2021-10-24T08:32:59Z</time>
      </trkpt>
      <trkpt lat="44.18643" lon="4.52475">
        <ele>72.2</ele>
        <time>2021-10-24T08:33:00Z</time>
      </trkpt>
      <trkpt lat="44.18633" lon="4.52476">
        <ele>72.2</ele>
        <time>2021-10-24T08:33:01Z</time>
      </trkpt>
      <trkpt lat="44.18625" lon="4.52477">
        <ele>72</ele>
        <time>2021-10-24T08:33:02Z</time>
      </trkpt>
      <trkpt lat="44.18616" lon="4.52477">
        <ele>72</ele>
        <time>2021-10-24T08:33:03Z</time>
      </trkpt>
      <trkpt lat="44.18606" lon="4.52476">
        <ele>71.8</ele>
        <time>2021-10-24T08:33:04Z</time>
      </trkpt>
      <trkpt lat="44.18597" lon="4.52475">
        <ele>71.6</ele>
        <time>2021-10-24T08:33:05Z</time>
      </trkpt>
      <trkpt lat="44.18589" lon="4.52473">
        <ele>71.4</ele>
        <time>2021-10-24T08:33:06Z</time>
      </trkpt>
      <trkpt lat="44.1858" lon="4.52472">
        <ele>71.2</ele>
        <time>2021-10-24T08:33:07Z</time>
      </trkpt>
      <trkpt lat="44.18571" lon="4.5247">
        <ele>71.2</ele>
        <time>2021-10-24T08:33:08Z</time>
      </trkpt>
      <trkpt lat="44.18563" lon="4.52469">
        <ele>70.8</ele>
        <time>2021-10-24T08:33:09Z</time>
      </trkpt>
      <trkpt lat="44.18555" lon="4.52467">
        <ele>70.6</ele>
        <time>2021-10-24T08:33:10Z</time>
      </trkpt>
      <trkpt lat="44.18547" lon="4.52464">
        <ele>70.4</ele>
        <time>2021-10-24T08:33:11Z</time>
      </trkpt>
      <trkpt lat="44.1854" lon="4.52461">
        <ele>70.2</ele>
        <time>2021-10-24T08:33:12Z</time>
      </trkpt>
      <trkpt lat="44.18533" lon="4.52458">
        <ele>70.4</ele>
        <time>2021-10-24T08:33:13Z</time>
      </trkpt>
      <trkpt lat="44.18526" lon="4.52454">
        <ele>70.6</ele>
        <time>2021-10-24T08:33:14Z</time>
      </trkpt>
      <trkpt lat="44.18519" lon="4.5245">
        <ele>70.4</ele>
        <time>2021-10-24T08:33:15Z</time>
      </trkpt>
      <trkpt lat="44.18512" lon="4.52446">
        <ele>70.4</ele>
        <time>2021-10-24T08:33:16Z</time>
      </trkpt>
      <trkpt lat="44.18505" lon="4.52442">
        <ele>70.6</ele>
        <time>2021-10-24T08:33:17Z</time>
      </trkpt>
      <trkpt lat="44.18498" lon="4.52437">
        <ele>70.8</ele>
        <time>2021-10-24T08:33:18Z</time>
      </trkpt>
      <trkpt lat="44.18492" lon="4.52432">
        <ele>70.6</ele>
        <time>2021-10-24T08:33:19Z</time>
      </trkpt>
      <trkpt lat="44.18485" lon="4.52427">
        <ele>70.6</ele>
        <time>2021-10-24T08:33:20Z</time>
      </trkpt>
      <trkpt lat="44.18479" lon="4.52422">
        <ele>70.8</ele>
        <time>2021-10-24T08:33:21Z</time>
      </trkpt>
      <trkpt lat="44.18472" lon="4.52418">
        <ele>70.8</ele>
        <time>2021-10-24T08:33:22Z</time>
      </trkpt>
      <trkpt lat="44.18466" lon="4.52413">
        <ele>70.8</ele>
        <time>2021-10-24T08:33:23Z</time>
      </trkpt>
      <trkpt lat="44.1846" lon="4.5241">
        <ele>71</ele>
        <time>2021-10-24T08:33:24Z</time>
      </trkpt>
      <trkpt lat="44.18454" lon="4.52407">
        <ele>71</ele>
        <time>2021-10-24T08:33:25Z</time>
      </trkpt>
      <trkpt lat="44.18447" lon="4.52406">
        <ele>71</ele>
        <time>2021-10-24T08:33:26Z</time>
      </trkpt>
      <trkpt lat="44.18441" lon="4.52405">
        <ele>71</ele>
        <time>2021-10-24T08:33:27Z</time>
      </trkpt>
      <trkpt lat="44.18436" lon="4.52404">
        <ele>71.2</ele>
        <time>2021-10-24T08:33:28Z</time>
      </trkpt>
      <trkpt lat="44.1843" lon="4.52403">
        <ele>71.4</ele>
        <time>2021-10-24T08:33:29Z</time>
      </trkpt>
      <trkpt lat="44.18424" lon="4.52403">
        <ele>71.8</ele>
        <time>2021-10-24T08:33:30Z</time>
      </trkpt>
      <trkpt lat="44.18418" lon="4.52403">
        <ele>72</ele>
        <time>2021-10-24T08:33:31Z</time>
      </trkpt>
      <trkpt lat="44.18413" lon="4.52402">
        <ele>72.4</ele>
        <time>2021-10-24T08:33:32Z</time>
      </trkpt>
      <trkpt lat="44.18407" lon="4.52402">
        <ele>72.6</ele>
        <time>2021-10-24T08:33:33Z</time>
      </trkpt>
      <trkpt lat="44.18401" lon="4.52401">
        <ele>72.8</ele>
        <time>2021-10-24T08:33:34Z</time>
      </trkpt>
      <trkpt lat="44.18396" lon="4.52401">
        <ele>73.2</ele>
        <time>2021-10-24T08:33:35Z</time>
      </trkpt>
      <trkpt lat="44.1839" lon="4.52401">
        <ele>73.4</ele>
        <time>2021-10-24T08:33:36Z</time>
      </trkpt>
      <trkpt lat="44.18385" lon="4.524">
        <ele>73.8</ele>
        <time>2021-10-24T08:33:37Z</time>
      </trkpt>
      <trkpt lat="44.18379" lon="4.524">
        <ele>74</ele>
        <time>2021-10-24T08:33:38Z</time>
      </trkpt>
      <trkpt lat="44.18374" lon="4.52399">
        <ele>74.2</ele>
        <time>2021-10-24T08:33:39Z</time>
      </trkpt>
      <trkpt lat="44.18368" lon="4.52398">
        <ele>74.6</ele>
        <time>2021-10-24T08:33:40Z</time>
      </trkpt>
      <trkpt lat="44.18363" lon="4.52398">
        <ele>74.8</ele>
        <time>2021-10-24T08:33:41Z</time>
      </trkpt>
      <trkpt lat="44.18357" lon="4.52397">
        <ele>75</ele>
        <time>2021-10-24T08:33:42Z</time>
      </trkpt>
      <trkpt lat="44.18351" lon="4.52397">
        <ele>75.2</ele>
        <time>2021-10-24T08:33:43Z</time>
      </trkpt>
      <trkpt lat="44.18346" lon="4.52397">
        <ele>75.4</ele>
        <time>2021-10-24T08:33:44Z</time>
      </trkpt>
      <trkpt lat="44.1834" lon="4.52397">
        <ele>75.6</ele>
        <time>2021-10-24T08:33:45Z</time>
      </trkpt>
      <trkpt lat="44.18334" lon="4.52397">
        <ele>75.8</ele>
        <time>2021-10-24T08:33:46Z</time>
      </trkpt>
      <trkpt lat="44.18329" lon="4.52397">
        <ele>76.2</ele>
        <time>2021-10-24T08:33:47Z</time>
      </trkpt>
      <trkpt lat="44.18323" lon="4.52397">
        <ele>76.4</ele>
        <time>2021-10-24T08:33:48Z</time>
      </trkpt>
      <trkpt lat="44.18317" lon="4.52397">
        <ele>76.6</ele>
        <time>2021-10-24T08:33:49Z</time>
      </trkpt>
      <trkpt lat="44.18312" lon="4.52397">
        <ele>76.6</ele>
        <time>2021-10-24T08:33:50Z</time>
      </trkpt>
      <trkpt lat="44.18306" lon="4.52397">
        <ele>76.8</ele>
        <time>2021-10-24T08:33:51Z</time>
      </trkpt>
      <trkpt lat="44.18301" lon="4.52397">
        <ele>77.2</ele>
        <time>2021-10-24T08:33:52Z</time>
      </trkpt>
      <trkpt lat="44.18296" lon="4.52396">
        <ele>77.4</ele>
        <time>2021-10-24T08:33:53Z</time>
      </trkpt>
      <trkpt lat="44.1829" lon="4.52396">
        <ele>77.8</ele>
        <time>2021-10-24T08:33:54Z</time>
      </trkpt>
      <trkpt lat="44.18285" lon="4.52396">
        <ele>78</ele>
        <time>2021-10-24T08:33:55Z</time>
      </trkpt>
      <trkpt lat="44.1828" lon="4.52396">
        <ele>78.2</ele>
        <time>2021-10-24T08:33:56Z</time>
      </trkpt>
      <trkpt lat="44.18275" lon="4.52396">
        <ele>78.4</ele>
        <time>2021-10-24T08:33:57Z</time>
      </trkpt>
      <trkpt lat="44.1827" lon="4.52397">
        <ele>78.8</ele>
        <time>2021-10-24T08:33:58Z</time>
      </trkpt>
      <trkpt lat="44.18264" lon="4.52398">
        <ele>79</ele>
        <time>2021-10-24T08:33:59Z</time>
      </trkpt>
      <trkpt lat="44.18259" lon="4.52399">
        <ele>79.2</ele>
        <time>2021-10-24T08:34:00Z</time>
      </trkpt>
      <trkpt lat="44.18254" lon="4.524">
        <ele>79.4</ele>
        <time>2021-10-24T08:34:01Z</time>
      </trkpt>
      <trkpt lat="44.18249" lon="4.52402">
        <ele>79.6</ele>
        <time>2021-10-24T08:34:02Z</time>
      </trkpt>
      <trkpt lat="44.18244" lon="4.52405">
        <ele>79.8</ele>
        <time>2021-10-24T08:34:03Z</time>
      </trkpt>
      <trkpt lat="44.18239" lon="4.52407">
        <ele>80</ele>
        <time>2021-10-24T08:34:04Z</time>
      </trkpt>
      <trkpt lat="44.18234" lon="4.52409">
        <ele>80</ele>
        <time>2021-10-24T08:34:05Z</time>
      </trkpt>
      <trkpt lat="44.18229" lon="4.52412">
        <ele>80.2</ele>
        <time>2021-10-24T08:34:06Z</time>
      </trkpt>
      <trkpt lat="44.18224" lon="4.52415">
        <ele>80.6</ele>
        <time>2021-10-24T08:34:07Z</time>
      </trkpt>
      <trkpt lat="44.18219" lon="4.52418">
        <ele>80.6</ele>
        <time>2021-10-24T08:34:08Z</time>
      </trkpt>
      <trkpt lat="44.18213" lon="4.5242">
        <ele>81</ele>
        <time>2021-10-24T08:34:09Z</time>
      </trkpt>
      <trkpt lat="44.18208" lon="4.52422">
        <ele>81.4</ele>
        <time>2021-10-24T08:34:10Z</time>
      </trkpt>
      <trkpt lat="44.18203" lon="4.52424">
        <ele>81.6</ele>
        <time>2021-10-24T08:34:11Z</time>
      </trkpt>
      <trkpt lat="44.18198" lon="4.52426">
        <ele>81.6</ele>
        <time>2021-10-24T08:34:12Z</time>
      </trkpt>
      <trkpt lat="44.18193" lon="4.52428">
        <ele>82</ele>
        <time>2021-10-24T08:34:13Z</time>
      </trkpt>
      <trkpt lat="44.18188" lon="4.52429">
        <ele>82.2</ele>
        <time>2021-10-24T08:34:14Z</time>
      </trkpt>
      <trkpt lat="44.18183" lon="4.5243">
        <ele>82.6</ele>
        <time>2021-10-24T08:34:15Z</time>
      </trkpt>
      <trkpt lat="44.18178" lon="4.52431">
        <ele>83</ele>
        <time>2021-10-24T08:34:16Z</time>
      </trkpt>
      <trkpt lat="44.18174" lon="4.52432">
        <ele>83.2</ele>
        <time>2021-10-24T08:34:17Z</time>
      </trkpt>
      <trkpt lat="44.18169" lon="4.52433">
        <ele>83.6</ele>
        <time>2021-10-24T08:34:18Z</time>
      </trkpt>
      <trkpt lat="44.18165" lon="4.52434">
        <ele>84</ele>
        <time>2021-10-24T08:34:19Z</time>
      </trkpt>
      <trkpt lat="44.1816" lon="4.52435">
        <ele>84.2</ele>
        <time>2021-10-24T08:34:20Z</time>
      </trkpt>
      <trkpt lat="44.18156" lon="4.52436">
        <ele>84.2</ele>
        <time>2021-10-24T08:34:21Z</time>
      </trkpt>
      <trkpt lat="44.18151" lon="4.52437">
        <ele>84.4</ele>
        <time>2021-10-24T08:34:22Z</time>
      </trkpt>
      <trkpt lat="44.18147" lon="4.52438">
        <ele>84.4</ele>
        <time>2021-10-24T08:34:23Z</time>
      </trkpt>
      <trkpt lat="44.18142" lon="4.52439">
        <ele>84.6</ele>
        <time>2021-10-24T08:34:24Z</time>
      </trkpt>
      <trkpt lat="44.18137" lon="4.5244">
        <ele>85</ele>
        <time>2021-10-24T08:34:25Z</time>
      </trkpt>
      <trkpt lat="44.18132" lon="4.5244">
        <ele>85.2</ele>
        <time>2021-10-24T08:34:26Z</time>
      </trkpt>
      <trkpt lat="44.18128" lon="4.5244">
        <ele>85.4</ele>
        <time>2021-10-24T08:34:27Z</time>
      </trkpt>
      <trkpt lat="44.18123" lon="4.5244">
        <ele>85.6</ele>
        <time>2021-10-24T08:34:28Z</time>
      </trkpt>
      <trkpt lat="44.18118" lon="4.52439">
        <ele>85.8</ele>
        <time>2021-10-24T08:34:29Z</time>
      </trkpt>
      <trkpt lat="44.18113" lon="4.52438">
        <ele>85.8</ele>
        <time>2021-10-24T08:34:30Z</time>
      </trkpt>
      <trkpt lat="44.18108" lon="4.52436">
        <ele>86.2</ele>
        <time>2021-10-24T08:34:31Z</time>
      </trkpt>
      <trkpt lat="44.18104" lon="4.52433">
        <ele>86.6</ele>
        <time>2021-10-24T08:34:32Z</time>
      </trkpt>
      <trkpt lat="44.181" lon="4.5243">
        <ele>86.8</ele>
        <time>2021-10-24T08:34:33Z</time>
      </trkpt>
      <trkpt lat="44.18096" lon="4.52426">
        <ele>87</ele>
        <time>2021-10-24T08:34:34Z</time>
      </trkpt>
      <trkpt lat="44.18093" lon="4.52421">
        <ele>87.2</ele>
        <time>2021-10-24T08:34:35Z</time>
      </trkpt>
      <trkpt lat="44.1809" lon="4.52417">
        <ele>87.6</ele>
        <time>2021-10-24T08:34:36Z</time>
      </trkpt>
      <trkpt lat="44.18086" lon="4.52412">
        <ele>87.8</ele>
        <time>2021-10-24T08:34:37Z</time>
      </trkpt>
      <trkpt lat="44.18083" lon="4.52406">
        <ele>88</ele>
        <time>2021-10-24T08:34:38Z</time>
      </trkpt>
      <trkpt lat="44.1808" lon="4.524">
        <ele>88.4</ele>
        <time>2021-10-24T08:34:39Z</time>
      </trkpt>
      <trkpt lat="44.18076" lon="4.52395">
        <ele>88.6</ele>
        <time>2021-10-24T08:34:40Z</time>
      </trkpt>
      <trkpt lat="44.18073" lon="4.5239">
        <ele>88.8</ele>
        <time>2021-10-24T08:34:41Z</time>
      </trkpt>
      <trkpt lat="44.1807" lon="4.52385">
        <ele>89.2</ele>
        <time>2021-10-24T08:34:42Z</time>
      </trkpt>
      <trkpt lat="44.18067" lon="4.5238">
        <ele>89.6</ele>
        <time>2021-10-24T08:34:43Z</time>
      </trkpt>
      <trkpt lat="44.18064" lon="4.52375">
        <ele>89.6</ele>
        <time>2021-10-24T08:34:44Z</time>
      </trkpt>
      <trkpt lat="44.18061" lon="4.5237">
        <ele>90</ele>
        <time>2021-10-24T08:34:45Z</time>
      </trkpt>
      <trkpt lat="44.18057" lon="4.52365">
        <ele>90.4</ele>
        <time>2021-10-24T08:34:46Z</time>
      </trkpt>
      <trkpt lat="44.18054" lon="4.52361">
        <ele>90.6</ele>
        <time>2021-10-24T08:34:47Z</time>
      </trkpt>
      <trkpt lat="44.1805" lon="4.52356">
        <ele>91</ele>
        <time>2021-10-24T08:34:48Z</time>
      </trkpt>
      <trkpt lat="44.18047" lon="4.52352">
        <ele>91.4</ele>
        <time>2021-10-24T08:34:49Z</time>
      </trkpt>
      <trkpt lat="44.18043" lon="4.52348">
        <ele>91.6</ele>
        <time>2021-10-24T08:34:50Z</time>
      </trkpt>
      <trkpt lat="44.1804" lon="4.52343">
        <ele>91.8</ele>
        <time>2021-10-24T08:34:51Z</time>
      </trkpt>
      <trkpt lat="44.18036" lon="4.52339">
        <ele>92.2</ele>
        <time>2021-10-24T08:34:52Z</time>
      </trkpt>
      <trkpt lat="44.18032" lon="4.52334">
        <ele>92.4</ele>
        <time>2021-10-24T08:34:53Z</time>
      </trkpt>
      <trkpt lat="44.18029" lon="4.5233">
        <ele>92.6</ele>
        <time>2021-10-24T08:34:54Z</time>
      </trkpt>
      <trkpt lat="44.18025" lon="4.52325">
        <ele>92.8</ele>
        <time>2021-10-24T08:34:55Z</time>
      </trkpt>
      <trkpt lat="44.18022" lon="4.5232">
        <ele>93</ele>
        <time>2021-10-24T08:34:56Z</time>
      </trkpt>
      <trkpt lat="44.18019" lon="4.52316">
        <ele>93.2</ele>
        <time>2021-10-24T08:34:57Z</time>
      </trkpt>
      <trkpt lat="44.18015" lon="4.52311">
        <ele>93.4</ele>
        <time>2021-10-24T08:34:58Z</time>
      </trkpt>
      <trkpt lat="44.18012" lon="4.52306">
        <ele>93.8</ele>
        <time>2021-10-24T08:34:59Z</time>
      </trkpt>
      <trkpt lat="44.18008" lon="4.52302">
        <ele>94</ele>
        <time>2021-10-24T08:35:00Z</time>
      </trkpt>
      <trkpt lat="44.18005" lon="4.52298">
        <ele>94.2</ele>
        <time>2021-10-24T08:35:01Z</time>
      </trkpt>
      <trkpt lat="44.18002" lon="4.52293">
        <ele>94.6</ele>
        <time>2021-10-24T08:35:02Z</time>
      </trkpt>
      <trkpt lat="44.17999" lon="4.5229">
        <ele>95</ele>
        <time>2021-10-24T08:35:03Z</time>
      </trkpt>
      <trkpt lat="44.17995" lon="4.52286">
        <ele>95.2</ele>
        <time>2021-10-24T08:35:04Z</time>
      </trkpt>
      <trkpt lat="44.17992" lon="4.52283">
        <ele>95.4</ele>
        <time>2021-10-24T08:35:05Z</time>
      </trkpt>
      <trkpt lat="44.17988" lon="4.52279">
        <ele>95.8</ele>
        <time>2021-10-24T08:35:06Z</time>
      </trkpt>
      <trkpt lat="44.17984" lon="4.52275">
        <ele>96</ele>
        <time>2021-10-24T08:35:07Z</time>
      </trkpt>
      <trkpt lat="44.1798" lon="4.5227">
        <ele>96.2</ele>
        <time>2021-10-24T08:35:08Z</time>
      </trkpt>
      <trkpt lat="44.17976" lon="4.52265">
        <ele>96.4</ele>
        <time>2021-10-24T08:35:09Z</time>
      </trkpt>
      <trkpt lat="44.17972" lon="4.52261">
        <ele>96.4</ele>
        <time>2021-10-24T08:35:10Z</time>
      </trkpt>
      <trkpt lat="44.17968" lon="4.52257">
        <ele>96.6</ele>
        <time>2021-10-24T08:35:11Z</time>
      </trkpt>
      <trkpt lat="44.17964" lon="4.52254">
        <ele>97</ele>
        <time>2021-10-24T08:35:12Z</time>
      </trkpt>
      <trkpt lat="44.17959" lon="4.52251">
        <ele>97.2</ele>
        <time>2021-10-24T08:35:13Z</time>
      </trkpt>
      <trkpt lat="44.17955" lon="4.52249">
        <ele>97.6</ele>
        <time>2021-10-24T08:35:14Z</time>
      </trkpt>
      <trkpt lat="44.1795" lon="4.52247">
        <ele>97.8</ele>
        <time>2021-10-24T08:35:15Z</time>
      </trkpt>
      <trkpt lat="44.17945" lon="4.52245">
        <ele>98</ele>
        <time>2021-10-24T08:35:16Z</time>
      </trkpt>
      <trkpt lat="44.17941" lon="4.52244">
        <ele>98.2</ele>
        <time>2021-10-24T08:35:17Z</time>
      </trkpt>
      <trkpt lat="44.17936" lon="4.52244">
        <ele>98.6</ele>
        <time>2021-10-24T08:35:18Z</time>
      </trkpt>
      <trkpt lat="44.17931" lon="4.52244">
        <ele>99</ele>
        <time>2021-10-24T08:35:19Z</time>
      </trkpt>
      <trkpt lat="44.17927" lon="4.52245">
        <ele>99.4</ele>
        <time>2021-10-24T08:35:20Z</time>
      </trkpt>
      <trkpt lat="44.17922" lon="4.52246">
        <ele>99.4</ele>
        <time>2021-10-24T08:35:21Z</time>
      </trkpt>
      <trkpt lat="44.17917" lon="4.52248">
        <ele>99.6</ele>
        <time>2021-10-24T08:35:22Z</time>
      </trkpt>
      <trkpt lat="44.17913" lon="4.5225">
        <ele>99.8</ele>
        <time>2021-10-24T08:35:23Z</time>
      </trkpt>
      <trkpt lat="44.17908" lon="4.52253">
        <ele>100</ele>
        <time>2021-10-24T08:35:24Z</time>
      </trkpt>
      <trkpt lat="44.17904" lon="4.52257">
        <ele>100.4</ele>
        <time>2021-10-24T08:35:25Z</time>
      </trkpt>
      <trkpt lat="44.17901" lon="4.52262">
        <ele>100.8</ele>
        <time>2021-10-24T08:35:26Z</time>
      </trkpt>
      <trkpt lat="44.17897" lon="4.52266">
        <ele>101.2</ele>
        <time>2021-10-24T08:35:27Z</time>
      </trkpt>
      <trkpt lat="44.17893" lon="4.52271">
        <ele>101.2</ele>
        <time>2021-10-24T08:35:28Z</time>
      </trkpt>
      <trkpt lat="44.17889" lon="4.52277">
        <ele>101.4</ele>
        <time>2021-10-24T08:35:29Z</time>
      </trkpt>
      <trkpt lat="44.17885" lon="4.52281">
        <ele>101.6</ele>
        <time>2021-10-24T08:35:30Z</time>
      </trkpt>
      <trkpt lat="44.17881" lon="4.52287">
        <ele>101.8</ele>
        <time>2021-10-24T08:35:31Z</time>
      </trkpt>
      <trkpt lat="44.17877" lon="4.52292">
        <ele>102</ele>
        <time>2021-10-24T08:35:32Z</time>
      </trkpt>
      <trkpt lat="44.17873" lon="4.52297">
        <ele>102.2</ele>
        <time>2021-10-24T08:35:33Z</time>
      </trkpt>
      <trkpt lat="44.17869" lon="4.52303">
        <ele>102.2</ele>
        <time>2021-10-24T08:35:34Z</time>
      </trkpt>
      <trkpt lat="44.17866" lon="4.52309">
        <ele>102.2</ele>
        <time>2021-10-24T08:35:35Z</time>
      </trkpt>
      <trkpt lat="44.17863" lon="4.52315">
        <ele>102.4</ele>
        <time>2021-10-24T08:35:36Z</time>
      </trkpt>
      <trkpt lat="44.1786" lon="4.52322">
        <ele>102.6</ele>
        <time>2021-10-24T08:35:37Z</time>
      </trkpt>
      <trkpt lat="44.17859" lon="4.5233">
        <ele>102.8</ele>
        <time>2021-10-24T08:35:38Z</time>
      </trkpt>
      <trkpt lat="44.17858" lon="4.52338">
        <ele>103</ele>
        <time>2021-10-24T08:35:39Z</time>
      </trkpt>
      <trkpt lat="44.17857" lon="4.52345">
        <ele>103</ele>
        <time>2021-10-24T08:35:40Z</time>
      </trkpt>
      <trkpt lat="44.17857" lon="4.52353">
        <ele>103.4</ele>
        <time>2021-10-24T08:35:41Z</time>
      </trkpt>
      <trkpt lat="44.17856" lon="4.52361">
        <ele>103.6</ele>
        <time>2021-10-24T08:35:42Z</time>
      </trkpt>
      <trkpt lat="44.17856" lon="4.52369">
        <ele>104</ele>
        <time>2021-10-24T08:35:43Z</time>
      </trkpt>
      <trkpt lat="44.17855" lon="4.52376">
        <ele>104.2</ele>
        <time>2021-10-24T08:35:44Z</time>
      </trkpt>
      <trkpt lat="44.17855" lon="4.52384">
        <ele>104.4</ele>
        <time>2021-10-24T08:35:45Z</time>
      </trkpt>
      <trkpt lat="44.17854" lon="4.52391">
        <ele>104.6</ele>
        <time>2021-10-24T08:35:46Z</time>
      </trkpt>
      <trkpt lat="44.17854" lon="4.52398">
        <ele>104.8</ele>
        <time>2021-10-24T08:35:47Z</time>
      </trkpt>
      <trkpt lat="44.17853" lon="4.52406">
        <ele>105.2</ele>
        <time>2021-10-24T08:35:48Z</time>
      </trkpt>
      <trkpt lat="44.17852" lon="4.52413">
        <ele>105.4</ele>
        <time>2021-10-24T08:35:49Z</time>
      </trkpt>
      <trkpt lat="44.17852" lon="4.52421">
        <ele>105.6</ele>
        <time>2021-10-24T08:35:50Z</time>
      </trkpt>
      <trkpt lat="44.17851" lon="4.52428">
        <ele>105.8</ele>
        <time>2021-10-24T08:35:51Z</time>
      </trkpt>
      <trkpt lat="44.17851" lon="4.52435">
        <ele>106</ele>
        <time>2021-10-24T08:35:52Z</time>
      </trkpt>
      <trkpt lat="44.1785" lon="4.52443">
        <ele>106.2</ele>
        <time>2021-10-24T08:35:53Z</time>
      </trkpt>
      <trkpt lat="44.1785" lon="4.5245">
        <ele>106.6</ele>
        <time>2021-10-24T08:35:54Z</time>
      </trkpt>
      <trkpt lat="44.17849" lon="4.52457">
        <ele>106.8</ele>
        <time>2021-10-24T08:35:55Z</time>
      </trkpt>
      <trkpt lat="44.17848" lon="4.52463">
        <ele>107</ele>
        <time>2021-10-24T08:35:56Z</time>
      </trkpt>
      <trkpt lat="44.17846" lon="4.5247">
        <ele>107.2</ele>
        <time>2021-10-24T08:35:57Z</time>
      </trkpt>
      <trkpt lat="44.17845" lon="4.52477">
        <ele>107.4</ele>
        <time>2021-10-24T08:35:58Z</time>
      </trkpt>
      <trkpt lat="44.17842" lon="4.52483">
        <ele>107.6</ele>
        <time>2021-10-24T08:35:59Z</time>
      </trkpt>
      <trkpt lat="44.1784" lon="4.52489">
        <ele>107.6</ele>
        <time>2021-10-24T08:36:00Z</time>
      </trkpt>
      <trkpt lat="44.17836" lon="4.52494">
        <ele>108.2</ele>
        <time>2021-10-24T08:36:01Z</time>
      </trkpt>
      <trkpt lat="44.17833" lon="4.525">
        <ele>108.4</ele>
        <time>2021-10-24T08:36:02Z</time>
      </trkpt>
      <trkpt lat="44.17829" lon="4.52505">
        <ele>108.6</ele>
        <time>2021-10-24T08:36:03Z</time>
      </trkpt>
      <trkpt lat="44.17825" lon="4.5251">
        <ele>108.8</ele>
        <time>2021-10-24T08:36:04Z</time>
      </trkpt>
      <trkpt lat="44.17821" lon="4.52517">
        <ele>108.8</ele>
        <time>2021-10-24T08:36:05Z</time>
      </trkpt>
      <trkpt lat="44.17818" lon="4.52524">
        <ele>109</ele>
        <time>2021-10-24T08:36:06Z</time>
      </trkpt>
      <trkpt lat="44.17815" lon="4.52533">
        <ele>109.2</ele>
        <time>2021-10-24T08:36:07Z</time>
      </trkpt>
      <trkpt lat="44.17812" lon="4.52542">
        <ele>109.4</ele>
        <time>2021-10-24T08:36:08Z</time>
      </trkpt>
      <trkpt lat="44.17809" lon="4.52551">
        <ele>109.4</ele>
        <time>2021-10-24T08:36:09Z</time>
      </trkpt>
      <trkpt lat="44.17806" lon="4.52562">
        <ele>109.2</ele>
        <time>2021-10-24T08:36:10Z</time>
      </trkpt>
      <trkpt lat="44.17803" lon="4.52572">
        <ele>109</ele>
        <time>2021-10-24T08:36:11Z</time>
      </trkpt>
      <trkpt lat="44.178" lon="4.52583">
        <ele>108.8</ele>
        <time>2021-10-24T08:36:12Z</time>
      </trkpt>
      <trkpt lat="44.17796" lon="4.52594">
        <ele>108.8</ele>
        <time>2021-10-24T08:36:13Z</time>
      </trkpt>
      <trkpt lat="44.17793" lon="4.52605">
        <ele>108.6</ele>
        <time>2021-10-24T08:36:14Z</time>
      </trkpt>
      <trkpt lat="44.1779" lon="4.52617">
        <ele>108.6</ele>
        <time>2021-10-24T08:36:15Z</time>
      </trkpt>
      <trkpt lat="44.17787" lon="4.52629">
        <ele>108.4</ele>
        <time>2021-10-24T08:36:16Z</time>
      </trkpt>
      <trkpt lat="44.17783" lon="4.5264">
        <ele>108.2</ele>
        <time>2021-10-24T08:36:17Z</time>
      </trkpt>
      <trkpt lat="44.1778" lon="4.52652">
        <ele>108</ele>
        <time>2021-10-24T08:36:18Z</time>
      </trkpt>
      <trkpt lat="44.17776" lon="4.52664">
        <ele>107.8</ele>
        <time>2021-10-24T08:36:19Z</time>
      </trkpt>
      <trkpt lat="44.17773" lon="4.52677">
        <ele>107.6</ele>
        <time>2021-10-24T08:36:20Z</time>
      </trkpt>
      <trkpt lat="44.17769" lon="4.52689">
        <ele>107.2</ele>
        <time>2021-10-24T08:36:21Z</time>
      </trkpt>
      <trkpt lat="44.17765" lon="4.52701">
        <ele>106.8</ele>
        <time>2021-10-24T08:36:22Z</time>
      </trkpt>
      <trkpt lat="44.17761" lon="4.52714">
        <ele>106.6</ele>
        <time>2021-10-24T08:36:23Z</time>
      </trkpt>
      <trkpt lat="44.17757" lon="4.52726">
        <ele>106.4</ele>
        <time>2021-10-24T08:36:24Z</time>
      </trkpt>
      <trkpt lat="44.17752" lon="4.52738">
        <ele>106</ele>
        <time>2021-10-24T08:36:25Z</time>
      </trkpt>
      <trkpt lat="44.17748" lon="4.52751">
        <ele>105.6</ele>
        <time>2021-10-24T08:36:26Z</time>
      </trkpt>
      <trkpt lat="44.17744" lon="4.52764">
        <ele>105.2</ele>
        <time>2021-10-24T08:36:27Z</time>
      </trkpt>
      <trkpt lat="44.17741" lon="4.52777">
        <ele>105.2</ele>
        <time>2021-10-24T08:36:28Z</time>
      </trkpt>
      <trkpt lat="44.17739" lon="4.52791">
        <ele>104.6</ele>
        <time>2021-10-24T08:36:29Z</time>
      </trkpt>
      <trkpt lat="44.17738" lon="4.52804">
        <ele>104.4</ele>
        <time>2021-10-24T08:36:30Z</time>
      </trkpt>
      <trkpt lat="44.17736" lon="4.52818">
        <ele>104.2</ele>
        <time>2021-10-24T08:36:31Z</time>
      </trkpt>
      <trkpt lat="44.17735" lon="4.52832">
        <ele>103.6</ele>
        <time>2021-10-24T08:36:32Z</time>
      </trkpt>
      <trkpt lat="44.17734" lon="4.52845">
        <ele>103.2</ele>
        <time>2021-10-24T08:36:33Z</time>
      </trkpt>
      <trkpt lat="44.17732" lon="4.52858">
        <ele>103</ele>
        <time>2021-10-24T08:36:34Z</time>
      </trkpt>
      <trkpt lat="44.17731" lon="4.52871">
        <ele>102.8</ele>
        <time>2021-10-24T08:36:35Z</time>
      </trkpt>
      <trkpt lat="44.1773" lon="4.52885">
        <ele>102.4</ele>
        <time>2021-10-24T08:36:36Z</time>
      </trkpt>
      <trkpt lat="44.17728" lon="4.52898">
        <ele>102.6</ele>
        <time>2021-10-24T08:36:37Z</time>
      </trkpt>
      <trkpt lat="44.17727" lon="4.5291">
        <ele>102</ele>
        <time>2021-10-24T08:36:38Z</time>
      </trkpt>
      <trkpt lat="44.17725" lon="4.52923">
        <ele>102</ele>
        <time>2021-10-24T08:36:39Z</time>
      </trkpt>
      <trkpt lat="44.17723" lon="4.52937">
        <ele>101.8</ele>
        <time>2021-10-24T08:36:40Z</time>
      </trkpt>
      <trkpt lat="44.17721" lon="4.5295">
        <ele>101.2</ele>
        <time>2021-10-24T08:36:41Z</time>
      </trkpt>
      <trkpt lat="44.17718" lon="4.52963">
        <ele>100.8</ele>
        <time>2021-10-24T08:36:42Z</time>
      </trkpt>
      <trkpt lat="44.17713" lon="4.52975">
        <ele>100.4</ele>
        <time>2021-10-24T08:36:43Z</time>
      </trkpt>
      <trkpt lat="44.17708" lon="4.52986">
        <ele>100.4</ele>
        <time>2021-10-24T08:36:44Z</time>
      </trkpt>
      <trkpt lat="44.17702" lon="4.52997">
        <ele>100.4</ele>
        <time>2021-10-24T08:36:45Z</time>
      </trkpt>
      <trkpt lat="44.17696" lon="4.53007">
        <ele>100.2</ele>
        <time>2021-10-24T08:36:46Z</time>
      </trkpt>
      <trkpt lat="44.1769" lon="4.53017">
        <ele>99.6</ele>
        <time>2021-10-24T08:36:47Z</time>
      </trkpt>
      <trkpt lat="44.17683" lon="4.53024">
        <ele>99.4</ele>
        <time>2021-10-24T08:36:48Z</time>
      </trkpt>
      <trkpt lat="44.17675" lon="4.53027">
        <ele>99</ele>
        <time>2021-10-24T08:36:49Z</time>
      </trkpt>
      <trkpt lat="44.17666" lon="4.53027">
        <ele>98.4</ele>
        <time>2021-10-24T08:36:50Z</time>
      </trkpt>
      <trkpt lat="44.17659" lon="4.5302">
        <ele>97.6</ele>
        <time>2021-10-24T08:36:51Z</time>
      </trkpt>
      <trkpt lat="44.17656" lon="4.5301">
        <ele>97.2</ele>
        <time>2021-10-24T08:36:52Z</time>
      </trkpt>
      <trkpt lat="44.17653" lon="4.52999">
        <ele>96.6</ele>
        <time>2021-10-24T08:36:53Z</time>
      </trkpt>
      <trkpt lat="44.1765" lon="4.52987">
        <ele>95.6</ele>
        <time>2021-10-24T08:36:54Z</time>
      </trkpt>
      <trkpt lat="44.17648" lon="4.52975">
        <ele>94.6</ele>
        <time>2021-10-24T08:36:55Z</time>
      </trkpt>
      <trkpt lat="44.17645" lon="4.52962">
        <ele>94</ele>
        <time>2021-10-24T08:36:56Z</time>
      </trkpt>
      <trkpt lat="44.17643" lon="4.52949">
        <ele>93.6</ele>
        <time>2021-10-24T08:36:57Z</time>
      </trkpt>
      <trkpt lat="44.1764" lon="4.52936">
        <ele>93.4</ele>
        <time>2021-10-24T08:36:58Z</time>
      </trkpt>
      <trkpt lat="44.17639" lon="4.52923">
        <ele>93</ele>
        <time>2021-10-24T08:36:59Z</time>
      </trkpt>
      <trkpt lat="44.17637" lon="4.5291">
        <ele>92.4</ele>
        <time>2021-10-24T08:37:00Z</time>
      </trkpt>
      <trkpt lat="44.17635" lon="4.52896">
        <ele>92.2</ele>
        <time>2021-10-24T08:37:01Z</time>
      </trkpt>
      <trkpt lat="44.17632" lon="4.52884">
        <ele>92.2</ele>
        <time>2021-10-24T08:37:02Z</time>
      </trkpt>
      <trkpt lat="44.17626" lon="4.52874">
        <ele>92</ele>
        <time>2021-10-24T08:37:03Z</time>
      </trkpt>
      <trkpt lat="44.17617" lon="4.52868">
        <ele>91.6</ele>
        <time>2021-10-24T08:37:04Z</time>
      </trkpt>
      <trkpt lat="44.17609" lon="4.52864">
        <ele>91.2</ele>
        <time>2021-10-24T08:37:05Z</time>
      </trkpt>
      <trkpt lat="44.176" lon="4.52861">
        <ele>90.8</ele>
        <time>2021-10-24T08:37:06Z</time>
      </trkpt>
      <trkpt lat="44.17592" lon="4.52859">
        <ele>90.8</ele>
        <time>2021-10-24T08:37:07Z</time>
      </trkpt>
      <trkpt lat="44.17584" lon="4.52857">
        <ele>90.8</ele>
        <time>2021-10-24T08:37:08Z</time>
      </trkpt>
      <trkpt lat="44.17576" lon="4.52855">
        <ele>91</ele>
        <time>2021-10-24T08:37:09Z</time>
      </trkpt>
      <trkpt lat="44.17569" lon="4.52853">
        <ele>90.8</ele>
        <time>2021-10-24T08:37:10Z</time>
      </trkpt>
      <trkpt lat="44.17561" lon="4.5285">
        <ele>91.2</ele>
        <time>2021-10-24T08:37:11Z</time>
      </trkpt>
      <trkpt lat="44.17554" lon="4.52848">
        <ele>91.2</ele>
        <time>2021-10-24T08:37:12Z</time>
      </trkpt>
      <trkpt lat="44.17548" lon="4.52846">
        <ele>91.4</ele>
        <time>2021-10-24T08:37:13Z</time>
      </trkpt>
      <trkpt lat="44.17541" lon="4.52844">
        <ele>91.4</ele>
        <time>2021-10-24T08:37:14Z</time>
      </trkpt>
      <trkpt lat="44.17535" lon="4.52842">
        <ele>91.6</ele>
        <time>2021-10-24T08:37:15Z</time>
      </trkpt>
      <trkpt lat="44.17528" lon="4.5284">
        <ele>91.6</ele>
        <time>2021-10-24T08:37:16Z</time>
      </trkpt>
      <trkpt lat="44.17522" lon="4.52839">
        <ele>91.8</ele>
        <time>2021-10-24T08:37:17Z</time>
      </trkpt>
      <trkpt lat="44.17516" lon="4.52837">
        <ele>91.8</ele>
        <time>2021-10-24T08:37:18Z</time>
      </trkpt>
      <trkpt lat="44.1751" lon="4.52835">
        <ele>91.8</ele>
        <time>2021-10-24T08:37:19Z</time>
      </trkpt>
      <trkpt lat="44.17503" lon="4.52833">
        <ele>91.8</ele>
        <time>2021-10-24T08:37:20Z</time>
      </trkpt>
      <trkpt lat="44.17497" lon="4.52831">
        <ele>92.2</ele>
        <time>2021-10-24T08:37:21Z</time>
      </trkpt>
      <trkpt lat="44.17491" lon="4.52829">
        <ele>92.2</ele>
        <time>2021-10-24T08:37:22Z</time>
      </trkpt>
      <trkpt lat="44.17485" lon="4.52827">
        <ele>92.4</ele>
        <time>2021-10-24T08:37:23Z</time>
      </trkpt>
      <trkpt lat="44.17479" lon="4.52825">
        <ele>92.6</ele>
        <time>2021-10-24T08:37:24Z</time>
      </trkpt>
      <trkpt lat="44.17473" lon="4.52823">
        <ele>92.6</ele>
        <time>2021-10-24T08:37:25Z</time>
      </trkpt>
      <trkpt lat="44.17467" lon="4.5282">
        <ele>92.8</ele>
        <time>2021-10-24T08:37:26Z</time>
      </trkpt>
      <trkpt lat="44.17461" lon="4.52817">
        <ele>93.2</ele>
        <time>2021-10-24T08:37:27Z</time>
      </trkpt>
      <trkpt lat="44.17456" lon="4.52814">
        <ele>93.4</ele>
        <time>2021-10-24T08:37:28Z</time>
      </trkpt>
      <trkpt lat="44.1745" lon="4.5281">
        <ele>93.4</ele>
        <time>2021-10-24T08:37:29Z</time>
      </trkpt>
      <trkpt lat="44.17445" lon="4.52806">
        <ele>93.8</ele>
        <time>2021-10-24T08:37:30Z</time>
      </trkpt>
      <trkpt lat="44.1744" lon="4.52801">
        <ele>94.2</ele>
        <time>2021-10-24T08:37:31Z</time>
      </trkpt>
      <trkpt lat="44.17435" lon="4.52797">
        <ele>94.4</ele>
        <time>2021-10-24T08:37:32Z</time>
      </trkpt>
      <trkpt lat="44.1743" lon="4.52793">
        <ele>94.4</ele>
        <time>2021-10-24T08:37:33Z</time>
      </trkpt>
      <trkpt lat="44.17425" lon="4.52788">
        <ele>94.2</ele>
        <time>2021-10-24T08:37:34Z</time>
      </trkpt>
      <trkpt lat="44.17421" lon="4.52784">
        <ele>94.4</ele>
        <time>2021-10-24T08:37:35Z</time>
      </trkpt>
      <trkpt lat="44.17416" lon="4.52779">
        <ele>94.6</ele>
        <time>2021-10-24T08:37:36Z</time>
      </trkpt>
      <trkpt lat="44.17411" lon="4.52775">
        <ele>94.6</ele>
        <time>2021-10-24T08:37:37Z</time>
      </trkpt>
      <trkpt lat="44.17406" lon="4.5277">
        <ele>94.8</ele>
        <time>2021-10-24T08:37:38Z</time>
      </trkpt>
      <trkpt lat="44.17401" lon="4.52766">
        <ele>95</ele>
        <time>2021-10-24T08:37:39Z</time>
      </trkpt>
      <trkpt lat="44.17396" lon="4.52762">
        <ele>95.2</ele>
        <time>2021-10-24T08:37:40Z</time>
      </trkpt>
      <trkpt lat="44.17391" lon="4.52759">
        <ele>95.4</ele>
        <time>2021-10-24T08:37:41Z</time>
      </trkpt>
      <trkpt lat="44.17386" lon="4.52756">
        <ele>95.6</ele>
        <time>2021-10-24T08:37:42Z</time>
      </trkpt>
      <trkpt lat="44.17381" lon="4.52754">
        <ele>95.8</ele>
        <time>2021-10-24T08:37:43Z</time>
      </trkpt>
      <trkpt lat="44.17376" lon="4.52751">
        <ele>95.8</ele>
        <time>2021-10-24T08:37:44Z</time>
      </trkpt>
      <trkpt lat="44.17371" lon="4.52749">
        <ele>96</ele>
        <time>2021-10-24T08:37:45Z</time>
      </trkpt>
      <trkpt lat="44.17367" lon="4.52747">
        <ele>96.2</ele>
        <time>2021-10-24T08:37:46Z</time>
      </trkpt>
      <trkpt lat="44.17364" lon="4.52746">
        <ele>96.4</ele>
        <time>2021-10-24T08:37:47Z</time>
      </trkpt>
      <trkpt lat="44.1736" lon="4.52744">
        <ele>96.2</ele>
        <time>2021-10-24T08:37:48Z</time>
      </trkpt>
      <trkpt lat="44.17357" lon="4.52745">
        <ele>96.2</ele>
        <time>2021-10-24T08:37:49Z</time>
      </trkpt>
      <trkpt lat="44.17353" lon="4.52747">
        <ele>96.2</ele>
        <time>2021-10-24T08:37:50Z</time>
      </trkpt>
      <trkpt lat="44.1735" lon="4.52752">
        <ele>96.2</ele>
        <time>2021-10-24T08:37:51Z</time>
      </trkpt>
      <trkpt lat="44.17345" lon="4.52758">
        <ele>96.2</ele>
        <time>2021-10-24T08:37:52Z</time>
      </trkpt>
      <trkpt lat="44.17341" lon="4.52764">
        <ele>96.4</ele>
        <time>2021-10-24T08:37:53Z</time>
      </trkpt>
      <trkpt lat="44.17336" lon="4.52771">
        <ele>96.2</ele>
        <time>2021-10-24T08:37:54Z</time>
      </trkpt>
      <trkpt lat="44.17332" lon="4.52779">
        <ele>96</ele>
        <time>2021-10-24T08:37:55Z</time>
      </trkpt>
      <trkpt lat="44.17328" lon="4.52788">
        <ele>95.8</ele>
        <time>2021-10-24T08:37:56Z</time>
      </trkpt>
      <trkpt lat="44.17324" lon="4.52798">
        <ele>95.8</ele>
        <time>2021-10-24T08:37:57Z</time>
      </trkpt>
      <trkpt lat="44.17322" lon="4.52808">
        <ele>95.4</ele>
        <time>2021-10-24T08:37:58Z</time>
      </trkpt>
      <trkpt lat="44.1732" lon="4.52819">
        <ele>95.4</ele>
        <time>2021-10-24T08:37:59Z</time>
      </trkpt>
      <trkpt lat="44.17319" lon="4.5283">
        <ele>95.4</ele>
        <time>2021-10-24T08:38:00Z</time>
      </trkpt>
      <trkpt lat="44.1732" lon="4.5284">
        <ele>95.2</ele>
        <time>2021-10-24T08:38:01Z</time>
      </trkpt>
      <trkpt lat="44.17322" lon="4.52851">
        <ele>95.2</ele>
        <time>2021-10-24T08:38:02Z</time>
      </trkpt>
      <trkpt lat="44.17324" lon="4.5286">
        <ele>95.2</ele>
        <time>2021-10-24T08:38:03Z</time>
      </trkpt>
      <trkpt lat="44.17326" lon="4.5287">
        <ele>95.2</ele>
        <time>2021-10-24T08:38:04Z</time>
      </trkpt>
      <trkpt lat="44.17329" lon="4.52879">
        <ele>95.2</ele>
        <time>2021-10-24T08:38:05Z</time>
      </trkpt>
      <trkpt lat="44.17331" lon="4.52888">
        <ele>95.4</ele>
        <time>2021-10-24T08:38:06Z</time>
      </trkpt>
      <trkpt lat="44.17332" lon="4.52896">
        <ele>95.8</ele>
        <time>2021-10-24T08:38:07Z</time>
      </trkpt>
      <trkpt lat="44.17334" lon="4.52904">
        <ele>96</ele>
        <time>2021-10-24T08:38:08Z</time>
      </trkpt>
      <trkpt lat="44.17335" lon="4.52911">
        <ele>96.2</ele>
        <time>2021-10-24T08:38:09Z</time>
      </trkpt>
      <trkpt lat="44.17336" lon="4.52919">
        <ele>96.2</ele>
        <time>2021-10-24T08:38:10Z</time>
      </trkpt>
      <trkpt lat="44.17337" lon="4.52926">
        <ele>96.2</ele>
        <time>2021-10-24T08:38:11Z</time>
      </trkpt>
      <trkpt lat="44.17338" lon="4.52932">
        <ele>96.4</ele>
        <time>2021-10-24T08:38:12Z</time>
      </trkpt>
      <trkpt lat="44.17339" lon="4.52939">
        <ele>96.6</ele>
        <time>2021-10-24T08:38:13Z</time>
      </trkpt>
      <trkpt lat="44.1734" lon="4.52946">
        <ele>97</ele>
        <time>2021-10-24T08:38:14Z</time>
      </trkpt>
      <trkpt lat="44.17341" lon="4.52953">
        <ele>97.4</ele>
        <time>2021-10-24T08:38:15Z</time>
      </trkpt>
      <trkpt lat="44.17342" lon="4.52966">
        <ele>98.2</ele>
        <time>2021-10-24T08:38:17Z</time>
      </trkpt>
      <trkpt lat="44.17343" lon="4.52979">
        <ele>98.8</ele>
        <time>2021-10-24T08:38:19Z</time>
      </trkpt>
      <trkpt lat="44.17344" lon="4.52986">
        <ele>99.2</ele>
        <time>2021-10-24T08:38:20Z</time>
      </trkpt>
      <trkpt lat="44.17344" lon="4.52993">
        <ele>99.4</ele>
        <time>2021-10-24T08:38:21Z</time>
      </trkpt>
      <trkpt lat="44.17344" lon="4.53">
        <ele>99.6</ele>
        <time>2021-10-24T08:38:22Z</time>
      </trkpt>
      <trkpt lat="44.17344" lon="4.53007">
        <ele>99.8</ele>
        <time>2021-10-24T08:38:23Z</time>
      </trkpt>
      <trkpt lat="44.17344" lon="4.53015">
        <ele>99.8</ele>
        <time>2021-10-24T08:38:24Z</time>
      </trkpt>
      <trkpt lat="44.17344" lon="4.53023">
        <ele>100</ele>
        <time>2021-10-24T08:38:25Z</time>
      </trkpt>
      <trkpt lat="44.17344" lon="4.53031">
        <ele>100</ele>
        <time>2021-10-24T08:38:26Z</time>
      </trkpt>
      <trkpt lat="44.17343" lon="4.53039">
        <ele>100.2</ele>
        <time>2021-10-24T08:38:27Z</time>
      </trkpt>
      <trkpt lat="44.17342" lon="4.53047">
        <ele>100</ele>
        <time>2021-10-24T08:38:28Z</time>
      </trkpt>
      <trkpt lat="44.1734" lon="4.53056">
        <ele>100.2</ele>
        <time>2021-10-24T08:38:29Z</time>
      </trkpt>
      <trkpt lat="44.17339" lon="4.53064">
        <ele>100.4</ele>
        <time>2021-10-24T08:38:30Z</time>
      </trkpt>
      <trkpt lat="44.17337" lon="4.53073">
        <ele>100.6</ele>
        <time>2021-10-24T08:38:31Z</time>
      </trkpt>
      <trkpt lat="44.17336" lon="4.53082">
        <ele>100.6</ele>
        <time>2021-10-24T08:38:32Z</time>
      </trkpt>
      <trkpt lat="44.17334" lon="4.53091">
        <ele>100.6</ele>
        <time>2021-10-24T08:38:33Z</time>
      </trkpt>
      <trkpt lat="44.17333" lon="4.531">
        <ele>100.8</ele>
        <time>2021-10-24T08:38:34Z</time>
      </trkpt>
      <trkpt lat="44.17331" lon="4.5311">
        <ele>100.8</ele>
        <time>2021-10-24T08:38:35Z</time>
      </trkpt>
      <trkpt lat="44.1733" lon="4.5312">
        <ele>101</ele>
        <time>2021-10-24T08:38:36Z</time>
      </trkpt>
      <trkpt lat="44.17328" lon="4.5313">
        <ele>101</ele>
        <time>2021-10-24T08:38:37Z</time>
      </trkpt>
      <trkpt lat="44.17326" lon="4.5314">
        <ele>100.8</ele>
        <time>2021-10-24T08:38:38Z</time>
      </trkpt>
      <trkpt lat="44.17325" lon="4.53151">
        <ele>100.8</ele>
        <time>2021-10-24T08:38:39Z</time>
      </trkpt>
      <trkpt lat="44.17323" lon="4.53162">
        <ele>100.6</ele>
        <time>2021-10-24T08:38:40Z</time>
      </trkpt>
      <trkpt lat="44.17322" lon="4.53173">
        <ele>100.4</ele>
        <time>2021-10-24T08:38:41Z</time>
      </trkpt>
      <trkpt lat="44.17321" lon="4.53184">
        <ele>100.4</ele>
        <time>2021-10-24T08:38:42Z</time>
      </trkpt>
      <trkpt lat="44.1732" lon="4.53195">
        <ele>100.2</ele>
        <time>2021-10-24T08:38:43Z</time>
      </trkpt>
      <trkpt lat="44.17319" lon="4.53207">
        <ele>100.2</ele>
        <time>2021-10-24T08:38:44Z</time>
      </trkpt>
      <trkpt lat="44.17319" lon="4.53218">
        <ele>100.4</ele>
        <time>2021-10-24T08:38:45Z</time>
      </trkpt>
      <trkpt lat="44.17319" lon="4.5323">
        <ele>100</ele>
        <time>2021-10-24T08:38:46Z</time>
      </trkpt>
      <trkpt lat="44.1732" lon="4.53241">
        <ele>100.2</ele>
        <time>2021-10-24T08:38:47Z</time>
      </trkpt>
      <trkpt lat="44.1732" lon="4.53253">
        <ele>100</ele>
        <time>2021-10-24T08:38:48Z</time>
      </trkpt>
      <trkpt lat="44.17321" lon="4.53264">
        <ele>100.2</ele>
        <time>2021-10-24T08:38:49Z</time>
      </trkpt>
      <trkpt lat="44.17321" lon="4.53276">
        <ele>100</ele>
        <time>2021-10-24T08:38:50Z</time>
      </trkpt>
      <trkpt lat="44.17321" lon="4.53288">
        <ele>99.6</ele>
        <time>2021-10-24T08:38:51Z</time>
      </trkpt>
      <trkpt lat="44.1732" lon="4.53299">
        <ele>99.4</ele>
        <time>2021-10-24T08:38:52Z</time>
      </trkpt>
      <trkpt lat="44.17318" lon="4.53311">
        <ele>99.2</ele>
        <time>2021-10-24T08:38:53Z</time>
      </trkpt>
      <trkpt lat="44.17316" lon="4.53322">
        <ele>98.8</ele>
        <time>2021-10-24T08:38:54Z</time>
      </trkpt>
      <trkpt lat="44.17313" lon="4.53333">
        <ele>98.8</ele>
        <time>2021-10-24T08:38:55Z</time>
      </trkpt>
      <trkpt lat="44.1731" lon="4.53344">
        <ele>98.6</ele>
        <time>2021-10-24T08:38:56Z</time>
      </trkpt>
      <trkpt lat="44.17306" lon="4.53355">
        <ele>98.4</ele>
        <time>2021-10-24T08:38:57Z</time>
      </trkpt>
      <trkpt lat="44.17303" lon="4.53365">
        <ele>98.6</ele>
        <time>2021-10-24T08:38:58Z</time>
      </trkpt>
      <trkpt lat="44.173" lon="4.53376">
        <ele>98.2</ele>
        <time>2021-10-24T08:38:59Z</time>
      </trkpt>
      <trkpt lat="44.17297" lon="4.53387">
        <ele>98.4</ele>
        <time>2021-10-24T08:39:00Z</time>
      </trkpt>
      <trkpt lat="44.17295" lon="4.53398">
        <ele>98.4</ele>
        <time>2021-10-24T08:39:01Z</time>
      </trkpt>
      <trkpt lat="44.17294" lon="4.53409">
        <ele>98.4</ele>
        <time>2021-10-24T08:39:02Z</time>
      </trkpt>
      <trkpt lat="44.17293" lon="4.5342">
        <ele>98.8</ele>
        <time>2021-10-24T08:39:03Z</time>
      </trkpt>
      <trkpt lat="44.17293" lon="4.53431">
        <ele>98.4</ele>
        <time>2021-10-24T08:39:04Z</time>
      </trkpt>
      <trkpt lat="44.17292" lon="4.53442">
        <ele>98.4</ele>
        <time>2021-10-24T08:39:05Z</time>
      </trkpt>
      <trkpt lat="44.17291" lon="4.53452">
        <ele>98.2</ele>
        <time>2021-10-24T08:39:06Z</time>
      </trkpt>
      <trkpt lat="44.17288" lon="4.53462">
        <ele>98.2</ele>
        <time>2021-10-24T08:39:07Z</time>
      </trkpt>
      <trkpt lat="44.17285" lon="4.53471">
        <ele>98.6</ele>
        <time>2021-10-24T08:39:08Z</time>
      </trkpt>
      <trkpt lat="44.17282" lon="4.53479">
        <ele>98.8</ele>
        <time>2021-10-24T08:39:09Z</time>
      </trkpt>
      <trkpt lat="44.17277" lon="4.53487">
        <ele>99</ele>
        <time>2021-10-24T08:39:10Z</time>
      </trkpt>
      <trkpt lat="44.17272" lon="4.53494">
        <ele>99.2</ele>
        <time>2021-10-24T08:39:11Z</time>
      </trkpt>
      <trkpt lat="44.17267" lon="4.535">
        <ele>99</ele>
        <time>2021-10-24T08:39:12Z</time>
      </trkpt>
      <trkpt lat="44.17262" lon="4.53508">
        <ele>99.4</ele>
        <time>2021-10-24T08:39:13Z</time>
      </trkpt>
      <trkpt lat="44.17258" lon="4.53516">
        <ele>99.6</ele>
        <time>2021-10-24T08:39:14Z</time>
      </trkpt>
      <trkpt lat="44.17254" lon="4.53524">
        <ele>100</ele>
        <time>2021-10-24T08:39:15Z</time>
      </trkpt>
      <trkpt lat="44.17251" lon="4.53533">
        <ele>100</ele>
        <time>2021-10-24T08:39:16Z</time>
      </trkpt>
      <trkpt lat="44.17248" lon="4.53543">
        <ele>100</ele>
        <time>2021-10-24T08:39:17Z</time>
      </trkpt>
      <trkpt lat="44.17246" lon="4.53552">
        <ele>100</ele>
        <time>2021-10-24T08:39:18Z</time>
      </trkpt>
      <trkpt lat="44.17244" lon="4.53562">
        <ele>100</ele>
        <time>2021-10-24T08:39:19Z</time>
      </trkpt>
      <trkpt lat="44.17242" lon="4.53572">
        <ele>100.2</ele>
        <time>2021-10-24T08:39:20Z</time>
      </trkpt>
      <trkpt lat="44.17239" lon="4.53582">
        <ele>100.4</ele>
        <time>2021-10-24T08:39:21Z</time>
      </trkpt>
      <trkpt lat="44.17237" lon="4.53592">
        <ele>100.6</ele>
        <time>2021-10-24T08:39:22Z</time>
      </trkpt>
      <trkpt lat="44.17235" lon="4.53602">
        <ele>100.8</ele>
        <time>2021-10-24T08:39:23Z</time>
      </trkpt>
      <trkpt lat="44.17233" lon="4.53612">
        <ele>100.6</ele>
        <time>2021-10-24T08:39:24Z</time>
      </trkpt>
      <trkpt lat="44.17232" lon="4.53623">
        <ele>100.6</ele>
        <time>2021-10-24T08:39:25Z</time>
      </trkpt>
      <trkpt lat="44.17232" lon="4.53633">
        <ele>100.6</ele>
        <time>2021-10-24T08:39:26Z</time>
      </trkpt>
      <trkpt lat="44.17232" lon="4.53644">
        <ele>100.6</ele>
        <time>2021-10-24T08:39:27Z</time>
      </trkpt>
      <trkpt lat="44.17232" lon="4.53655">
        <ele>100.6</ele>
        <time>2021-10-24T08:39:28Z</time>
      </trkpt>
      <trkpt lat="44.17231" lon="4.53666">
        <ele>101</ele>
        <time>2021-10-24T08:39:29Z</time>
      </trkpt>
      <trkpt lat="44.17228" lon="4.53676">
        <ele>100.8</ele>
        <time>2021-10-24T08:39:30Z</time>
      </trkpt>
      <trkpt lat="44.17225" lon="4.53685">
        <ele>100.8</ele>
        <time>2021-10-24T08:39:31Z</time>
      </trkpt>
      <trkpt lat="44.17222" lon="4.53695">
        <ele>101</ele>
        <time>2021-10-24T08:39:32Z</time>
      </trkpt>
      <trkpt lat="44.17218" lon="4.53704">
        <ele>101</ele>
        <time>2021-10-24T08:39:33Z</time>
      </trkpt>
      <trkpt lat="44.17213" lon="4.53713">
        <ele>100.8</ele>
        <time>2021-10-24T08:39:34Z</time>
      </trkpt>
      <trkpt lat="44.17207" lon="4.53721">
        <ele>100.8</ele>
        <time>2021-10-24T08:39:35Z</time>
      </trkpt>
      <trkpt lat="44.17201" lon="4.53728">
        <ele>100.8</ele>
        <time>2021-10-24T08:39:36Z</time>
      </trkpt>
      <trkpt lat="44.17194" lon="4.53733">
        <ele>101</ele>
        <time>2021-10-24T08:39:37Z</time>
      </trkpt>
      <trkpt lat="44.17186" lon="4.53739">
        <ele>101</ele>
        <time>2021-10-24T08:39:38Z</time>
      </trkpt>
      <trkpt lat="44.17178" lon="4.53742">
        <ele>101.2</ele>
        <time>2021-10-24T08:39:39Z</time>
      </trkpt>
      <trkpt lat="44.17169" lon="4.53744">
        <ele>101</ele>
        <time>2021-10-24T08:39:40Z</time>
      </trkpt>
      <trkpt lat="44.1716" lon="4.53745">
        <ele>101</ele>
        <time>2021-10-24T08:39:41Z</time>
      </trkpt>
      <trkpt lat="44.17151" lon="4.53746">
        <ele>100.8</ele>
        <time>2021-10-24T08:39:42Z</time>
      </trkpt>
      <trkpt lat="44.17142" lon="4.53748">
        <ele>100.8</ele>
        <time>2021-10-24T08:39:43Z</time>
      </trkpt>
      <trkpt lat="44.17133" lon="4.53749">
        <ele>100.6</ele>
        <time>2021-10-24T08:39:44Z</time>
      </trkpt>
      <trkpt lat="44.17125" lon="4.53751">
        <ele>100.2</ele>
        <time>2021-10-24T08:39:45Z</time>
      </trkpt>
      <trkpt lat="44.17115" lon="4.53753">
        <ele>99.8</ele>
        <time>2021-10-24T08:39:46Z</time>
      </trkpt>
      <trkpt lat="44.17106" lon="4.53757">
        <ele>99.6</ele>
        <time>2021-10-24T08:39:47Z</time>
      </trkpt>
      <trkpt lat="44.17097" lon="4.53763">
        <ele>99.2</ele>
        <time>2021-10-24T08:39:48Z</time>
      </trkpt>
      <trkpt lat="44.17092" lon="4.53773">
        <ele>98.8</ele>
        <time>2021-10-24T08:39:49Z</time>
      </trkpt>
      <trkpt lat="44.17091" lon="4.53785">
        <ele>98.4</ele>
        <time>2021-10-24T08:39:50Z</time>
      </trkpt>
      <trkpt lat="44.17092" lon="4.53797">
        <ele>97.8</ele>
        <time>2021-10-24T08:39:51Z</time>
      </trkpt>
      <trkpt lat="44.17095" lon="4.53807">
        <ele>97.2</ele>
        <time>2021-10-24T08:39:52Z</time>
      </trkpt>
      <trkpt lat="44.17099" lon="4.53817">
        <ele>97</ele>
        <time>2021-10-24T08:39:53Z</time>
      </trkpt>
      <trkpt lat="44.17103" lon="4.53827">
        <ele>97</ele>
        <time>2021-10-24T08:39:54Z</time>
      </trkpt>
      <trkpt lat="44.17108" lon="4.53837">
        <ele>96.8</ele>
        <time>2021-10-24T08:39:55Z</time>
      </trkpt>
      <trkpt lat="44.17112" lon="4.53847">
        <ele>96.8</ele>
        <time>2021-10-24T08:39:56Z</time>
      </trkpt>
      <trkpt lat="44.17119" lon="4.53869">
        <ele>96.8</ele>
        <time>2021-10-24T08:39:58Z</time>
      </trkpt>
      <trkpt lat="44.17121" lon="4.53882">
        <ele>96.8</ele>
        <time>2021-10-24T08:39:59Z</time>
      </trkpt>
      <trkpt lat="44.17122" lon="4.53894">
        <ele>96.4</ele>
        <time>2021-10-24T08:40:00Z</time>
      </trkpt>
      <trkpt lat="44.17122" lon="4.53906">
        <ele>96.2</ele>
        <time>2021-10-24T08:40:01Z</time>
      </trkpt>
      <trkpt lat="44.17122" lon="4.53919">
        <ele>96</ele>
        <time>2021-10-24T08:40:02Z</time>
      </trkpt>
      <trkpt lat="44.17122" lon="4.53931">
        <ele>95.6</ele>
        <time>2021-10-24T08:40:03Z</time>
      </trkpt>
      <trkpt lat="44.17121" lon="4.53944">
        <ele>95.4</ele>
        <time>2021-10-24T08:40:04Z</time>
      </trkpt>
      <trkpt lat="44.1712" lon="4.53958">
        <ele>95</ele>
        <time>2021-10-24T08:40:05Z</time>
      </trkpt>
      <trkpt lat="44.1712" lon="4.53971">
        <ele>94.8</ele>
        <time>2021-10-24T08:40:06Z</time>
      </trkpt>
      <trkpt lat="44.1712" lon="4.53986">
        <ele>94.2</ele>
        <time>2021-10-24T08:40:07Z</time>
      </trkpt>
      <trkpt lat="44.1712" lon="4.54001">
        <ele>93.6</ele>
        <time>2021-10-24T08:40:08Z</time>
      </trkpt>
      <trkpt lat="44.1712" lon="4.54016">
        <ele>93.4</ele>
        <time>2021-10-24T08:40:09Z</time>
      </trkpt>
      <trkpt lat="44.1712" lon="4.54032">
        <ele>93</ele>
        <time>2021-10-24T08:40:10Z</time>
      </trkpt>
      <trkpt lat="44.17121" lon="4.54049">
        <ele>92.6</ele>
        <time>2021-10-24T08:40:11Z</time>
      </trkpt>
      <trkpt lat="44.17119" lon="4.54066">
        <ele>92</ele>
        <time>2021-10-24T08:40:12Z</time>
      </trkpt>
      <trkpt lat="44.17116" lon="4.54083">
        <ele>91.4</ele>
        <time>2021-10-24T08:40:13Z</time>
      </trkpt>
      <trkpt lat="44.17113" lon="4.54099">
        <ele>91</ele>
        <time>2021-10-24T08:40:14Z</time>
      </trkpt>
      <trkpt lat="44.1711" lon="4.54115">
        <ele>90.4</ele>
        <time>2021-10-24T08:40:15Z</time>
      </trkpt>
      <trkpt lat="44.17106" lon="4.54131">
        <ele>89.2</ele>
        <time>2021-10-24T08:40:16Z</time>
      </trkpt>
      <trkpt lat="44.17102" lon="4.54147">
        <ele>88.6</ele>
        <time>2021-10-24T08:40:17Z</time>
      </trkpt>
      <trkpt lat="44.17099" lon="4.54163">
        <ele>88</ele>
        <time>2021-10-24T08:40:18Z</time>
      </trkpt>
      <trkpt lat="44.17095" lon="4.54177">
        <ele>87.4</ele>
        <time>2021-10-24T08:40:19Z</time>
      </trkpt>
      <trkpt lat="44.17092" lon="4.54191">
        <ele>86.4</ele>
        <time>2021-10-24T08:40:20Z</time>
      </trkpt>
      <trkpt lat="44.17089" lon="4.54205">
        <ele>85.8</ele>
        <time>2021-10-24T08:40:21Z</time>
      </trkpt>
      <trkpt lat="44.17089" lon="4.54218">
        <ele>85.2</ele>
        <time>2021-10-24T08:40:22Z</time>
      </trkpt>
      <trkpt lat="44.1709" lon="4.54229">
        <ele>84.6</ele>
        <time>2021-10-24T08:40:23Z</time>
      </trkpt>
      <trkpt lat="44.17094" lon="4.54237">
        <ele>84.2</ele>
        <time>2021-10-24T08:40:24Z</time>
      </trkpt>
      <trkpt lat="44.17098" lon="4.54245">
        <ele>83.8</ele>
        <time>2021-10-24T08:40:25Z</time>
      </trkpt>
      <trkpt lat="44.17102" lon="4.54253">
        <ele>83.4</ele>
        <time>2021-10-24T08:40:26Z</time>
      </trkpt>
      <trkpt lat="44.17106" lon="4.5426">
        <ele>83.2</ele>
        <time>2021-10-24T08:40:27Z</time>
      </trkpt>
      <trkpt lat="44.17109" lon="4.54267">
        <ele>83.2</ele>
        <time>2021-10-24T08:40:28Z</time>
      </trkpt>
      <trkpt lat="44.17112" lon="4.54275">
        <ele>83.2</ele>
        <time>2021-10-24T08:40:29Z</time>
      </trkpt>
      <trkpt lat="44.17114" lon="4.54282">
        <ele>83.2</ele>
        <time>2021-10-24T08:40:30Z</time>
      </trkpt>
      <trkpt lat="44.17116" lon="4.5429">
        <ele>83.6</ele>
        <time>2021-10-24T08:40:31Z</time>
      </trkpt>
      <trkpt lat="44.17118" lon="4.54297">
        <ele>83.8</ele>
        <time>2021-10-24T08:40:32Z</time>
      </trkpt>
      <trkpt lat="44.17119" lon="4.54305">
        <ele>83.8</ele>
        <time>2021-10-24T08:40:33Z</time>
      </trkpt>
      <trkpt lat="44.17121" lon="4.54314">
        <ele>84</ele>
        <time>2021-10-24T08:40:34Z</time>
      </trkpt>
      <trkpt lat="44.17122" lon="4.54322">
        <ele>84.2</ele>
        <time>2021-10-24T08:40:35Z</time>
      </trkpt>
      <trkpt lat="44.17124" lon="4.54331">
        <ele>84.4</ele>
        <time>2021-10-24T08:40:36Z</time>
      </trkpt>
      <trkpt lat="44.17125" lon="4.5434">
        <ele>84.2</ele>
        <time>2021-10-24T08:40:37Z</time>
      </trkpt>
      <trkpt lat="44.17127" lon="4.54349">
        <ele>84.4</ele>
        <time>2021-10-24T08:40:38Z</time>
      </trkpt>
      <trkpt lat="44.17128" lon="4.54358">
        <ele>84.4</ele>
        <time>2021-10-24T08:40:39Z</time>
      </trkpt>
      <trkpt lat="44.17129" lon="4.54368">
        <ele>84.6</ele>
        <time>2021-10-24T08:40:40Z</time>
      </trkpt>
      <trkpt lat="44.17131" lon="4.54377">
        <ele>84.4</ele>
        <time>2021-10-24T08:40:41Z</time>
      </trkpt>
      <trkpt lat="44.17132" lon="4.54386">
        <ele>84.2</ele>
        <time>2021-10-24T08:40:42Z</time>
      </trkpt>
      <trkpt lat="44.17133" lon="4.54395">
        <ele>84.2</ele>
        <time>2021-10-24T08:40:43Z</time>
      </trkpt>
      <trkpt lat="44.17134" lon="4.54405">
        <ele>84</ele>
        <time>2021-10-24T08:40:44Z</time>
      </trkpt>
      <trkpt lat="44.17135" lon="4.54414">
        <ele>84</ele>
        <time>2021-10-24T08:40:45Z</time>
      </trkpt>
      <trkpt lat="44.17137" lon="4.54424">
        <ele>83.8</ele>
        <time>2021-10-24T08:40:46Z</time>
      </trkpt>
      <trkpt lat="44.17138" lon="4.54433">
        <ele>83.6</ele>
        <time>2021-10-24T08:40:47Z</time>
      </trkpt>
      <trkpt lat="44.17139" lon="4.54443">
        <ele>83.6</ele>
        <time>2021-10-24T08:40:48Z</time>
      </trkpt>
      <trkpt lat="44.1714" lon="4.54454">
        <ele>83.4</ele>
        <time>2021-10-24T08:40:49Z</time>
      </trkpt>
      <trkpt lat="44.1714" lon="4.54464">
        <ele>83.4</ele>
        <time>2021-10-24T08:40:50Z</time>
      </trkpt>
      <trkpt lat="44.17139" lon="4.54475">
        <ele>83</ele>
        <time>2021-10-24T08:40:51Z</time>
      </trkpt>
      <trkpt lat="44.17137" lon="4.54485">
        <ele>82.8</ele>
        <time>2021-10-24T08:40:52Z</time>
      </trkpt>
      <trkpt lat="44.17133" lon="4.54495">
        <ele>82.6</ele>
        <time>2021-10-24T08:40:53Z</time>
      </trkpt>
      <trkpt lat="44.17129" lon="4.54504">
        <ele>82.4</ele>
        <time>2021-10-24T08:40:54Z</time>
      </trkpt>
      <trkpt lat="44.17125" lon="4.54513">
        <ele>82.2</ele>
        <time>2021-10-24T08:40:55Z</time>
      </trkpt>
      <trkpt lat="44.17122" lon="4.54522">
        <ele>81.8</ele>
        <time>2021-10-24T08:40:56Z</time>
      </trkpt>
      <trkpt lat="44.17118" lon="4.54532">
        <ele>81.8</ele>
        <time>2021-10-24T08:40:57Z</time>
      </trkpt>
      <trkpt lat="44.17115" lon="4.54541">
        <ele>81.8</ele>
        <time>2021-10-24T08:40:58Z</time>
      </trkpt>
      <trkpt lat="44.17112" lon="4.54551">
        <ele>81.6</ele>
        <time>2021-10-24T08:40:59Z</time>
      </trkpt>
      <trkpt lat="44.1711" lon="4.54561">
        <ele>81.4</ele>
        <time>2021-10-24T08:41:00Z</time>
      </trkpt>
      <trkpt lat="44.17108" lon="4.54571">
        <ele>81</ele>
        <time>2021-10-24T08:41:01Z</time>
      </trkpt>
      <trkpt lat="44.17106" lon="4.54582">
        <ele>80.8</ele>
        <time>2021-10-24T08:41:02Z</time>
      </trkpt>
      <trkpt lat="44.17104" lon="4.54592">
        <ele>80.4</ele>
        <time>2021-10-24T08:41:03Z</time>
      </trkpt>
      <trkpt lat="44.17102" lon="4.54602">
        <ele>80.2</ele>
        <time>2021-10-24T08:41:04Z</time>
      </trkpt>
      <trkpt lat="44.17101" lon="4.54612">
        <ele>79.8</ele>
        <time>2021-10-24T08:41:05Z</time>
      </trkpt>
      <trkpt lat="44.17099" lon="4.54622">
        <ele>79.8</ele>
        <time>2021-10-24T08:41:06Z</time>
      </trkpt>
      <trkpt lat="44.17097" lon="4.54632">
        <ele>79.6</ele>
        <time>2021-10-24T08:41:07Z</time>
      </trkpt>
      <trkpt lat="44.17095" lon="4.54643">
        <ele>79.6</ele>
        <time>2021-10-24T08:41:08Z</time>
      </trkpt>
      <trkpt lat="44.17093" lon="4.54653">
        <ele>79.6</ele>
        <time>2021-10-24T08:41:09Z</time>
      </trkpt>
      <trkpt lat="44.17091" lon="4.54664">
        <ele>79.4</ele>
        <time>2021-10-24T08:41:10Z</time>
      </trkpt>
      <trkpt lat="44.1709" lon="4.54675">
        <ele>79.2</ele>
        <time>2021-10-24T08:41:11Z</time>
      </trkpt>
      <trkpt lat="44.17089" lon="4.54686">
        <ele>79.2</ele>
        <time>2021-10-24T08:41:12Z</time>
      </trkpt>
      <trkpt lat="44.17089" lon="4.54697">
        <ele>79.2</ele>
        <time>2021-10-24T08:41:13Z</time>
      </trkpt>
      <trkpt lat="44.17089" lon="4.54708">
        <ele>79</ele>
        <time>2021-10-24T08:41:14Z</time>
      </trkpt>
      <trkpt lat="44.17089" lon="4.5472">
        <ele>79</ele>
        <time>2021-10-24T08:41:15Z</time>
      </trkpt>
      <trkpt lat="44.1709" lon="4.54732">
        <ele>79</ele>
        <time>2021-10-24T08:41:16Z</time>
      </trkpt>
      <trkpt lat="44.1709" lon="4.54744">
        <ele>78.8</ele>
        <time>2021-10-24T08:41:17Z</time>
      </trkpt>
      <trkpt lat="44.1709" lon="4.54757">
        <ele>78.6</ele>
        <time>2021-10-24T08:41:18Z</time>
      </trkpt>
      <trkpt lat="44.17091" lon="4.54769">
        <ele>78.4</ele>
        <time>2021-10-24T08:41:19Z</time>
      </trkpt>
      <trkpt lat="44.17091" lon="4.54781">
        <ele>78.4</ele>
        <time>2021-10-24T08:41:20Z</time>
      </trkpt>
      <trkpt lat="44.1709" lon="4.54794">
        <ele>78.4</ele>
        <time>2021-10-24T08:41:21Z</time>
      </trkpt>
      <trkpt lat="44.17089" lon="4.54807">
        <ele>78</ele>
        <time>2021-10-24T08:41:22Z</time>
      </trkpt>
      <trkpt lat="44.17087" lon="4.54819">
        <ele>78</ele>
        <time>2021-10-24T08:41:23Z</time>
      </trkpt>
      <trkpt lat="44.17085" lon="4.54831">
        <ele>77.8</ele>
        <time>2021-10-24T08:41:24Z</time>
      </trkpt>
      <trkpt lat="44.17082" lon="4.54844">
        <ele>77.6</ele>
        <time>2021-10-24T08:41:25Z</time>
      </trkpt>
      <trkpt lat="44.1708" lon="4.54856">
        <ele>77.6</ele>
        <time>2021-10-24T08:41:26Z</time>
      </trkpt>
      <trkpt lat="44.17078" lon="4.54868">
        <ele>77.2</ele>
        <time>2021-10-24T08:41:27Z</time>
      </trkpt>
      <trkpt lat="44.17076" lon="4.54878">
        <ele>76.8</ele>
        <time>2021-10-24T08:41:28Z</time>
      </trkpt>
      <trkpt lat="44.17073" lon="4.54886">
        <ele>77</ele>
        <time>2021-10-24T08:41:29Z</time>
      </trkpt>
      <trkpt lat="44.1707" lon="4.5489">
        <ele>76.4</ele>
        <time>2021-10-24T08:41:30Z</time>
      </trkpt>
      <trkpt lat="44.17066" lon="4.54892">
        <ele>75.8</ele>
        <time>2021-10-24T08:41:31Z</time>
      </trkpt>
      <trkpt lat="44.17062" lon="4.54892">
        <ele>75</ele>
        <time>2021-10-24T08:41:32Z</time>
      </trkpt>
      <trkpt lat="44.17058" lon="4.5489">
        <ele>74.2</ele>
        <time>2021-10-24T08:41:33Z</time>
      </trkpt>
      <trkpt lat="44.17054" lon="4.54887">
        <ele>74</ele>
        <time>2021-10-24T08:41:34Z</time>
      </trkpt>
      <trkpt lat="44.1705" lon="4.54885">
        <ele>73.8</ele>
        <time>2021-10-24T08:41:35Z</time>
      </trkpt>
      <trkpt lat="44.17046" lon="4.54882">
        <ele>73.6</ele>
        <time>2021-10-24T08:41:36Z</time>
      </trkpt>
      <trkpt lat="44.17042" lon="4.54879">
        <ele>73.6</ele>
        <time>2021-10-24T08:41:37Z</time>
      </trkpt>
      <trkpt lat="44.17038" lon="4.54874">
        <ele>73.8</ele>
        <time>2021-10-24T08:41:38Z</time>
      </trkpt>
      <trkpt lat="44.17035" lon="4.5487">
        <ele>73.6</ele>
        <time>2021-10-24T08:41:39Z</time>
      </trkpt>
      <trkpt lat="44.17032" lon="4.54865">
        <ele>74</ele>
        <time>2021-10-24T08:41:40Z</time>
      </trkpt>
      <trkpt lat="44.17029" lon="4.5486">
        <ele>74</ele>
        <time>2021-10-24T08:41:41Z</time>
      </trkpt>
      <trkpt lat="44.17026" lon="4.54854">
        <ele>74.2</ele>
        <time>2021-10-24T08:41:42Z</time>
      </trkpt>
      <trkpt lat="44.17023" lon="4.54849">
        <ele>74.4</ele>
        <time>2021-10-24T08:41:43Z</time>
      </trkpt>
      <trkpt lat="44.1702" lon="4.54844">
        <ele>74.4</ele>
        <time>2021-10-24T08:41:44Z</time>
      </trkpt>
      <trkpt lat="44.17017" lon="4.54839">
        <ele>74.4</ele>
        <time>2021-10-24T08:41:45Z</time>
      </trkpt>
      <trkpt lat="44.17014" lon="4.54834">
        <ele>74.8</ele>
        <time>2021-10-24T08:41:46Z</time>
      </trkpt>
      <trkpt lat="44.17011" lon="4.54829">
        <ele>75</ele>
        <time>2021-10-24T08:41:47Z</time>
      </trkpt>
      <trkpt lat="44.17008" lon="4.54824">
        <ele>75.4</ele>
        <time>2021-10-24T08:41:48Z</time>
      </trkpt>
      <trkpt lat="44.17004" lon="4.5482">
        <ele>76</ele>
        <time>2021-10-24T08:41:49Z</time>
      </trkpt>
      <trkpt lat="44.17001" lon="4.54816">
        <ele>76.4</ele>
        <time>2021-10-24T08:41:50Z</time>
      </trkpt>
      <trkpt lat="44.16998" lon="4.54812">
        <ele>76.6</ele>
        <time>2021-10-24T08:41:51Z</time>
      </trkpt>
      <trkpt lat="44.16995" lon="4.54808">
        <ele>77</ele>
        <time>2021-10-24T08:41:52Z</time>
      </trkpt>
      <trkpt lat="44.16992" lon="4.54805">
        <ele>77.4</ele>
        <time>2021-10-24T08:41:53Z</time>
      </trkpt>
      <trkpt lat="44.16989" lon="4.54802">
        <ele>77.6</ele>
        <time>2021-10-24T08:41:54Z</time>
      </trkpt>
      <trkpt lat="44.16985" lon="4.54799">
        <ele>77.8</ele>
        <time>2021-10-24T08:41:55Z</time>
      </trkpt>
      <trkpt lat="44.16982" lon="4.54797">
        <ele>77.8</ele>
        <time>2021-10-24T08:41:56Z</time>
      </trkpt>
      <trkpt lat="44.16978" lon="4.54794">
        <ele>78.2</ele>
        <time>2021-10-24T08:41:57Z</time>
      </trkpt>
      <trkpt lat="44.16975" lon="4.54792">
        <ele>78.4</ele>
        <time>2021-10-24T08:41:58Z</time>
      </trkpt>
      <trkpt lat="44.16971" lon="4.5479">
        <ele>78.8</ele>
        <time>2021-10-24T08:41:59Z</time>
      </trkpt>
      <trkpt lat="44.16968" lon="4.54789">
        <ele>78.8</ele>
        <time>2021-10-24T08:42:00Z</time>
      </trkpt>
      <trkpt lat="44.16964" lon="4.54787">
        <ele>79.2</ele>
        <time>2021-10-24T08:42:01Z</time>
      </trkpt>
      <trkpt lat="44.1696" lon="4.54784">
        <ele>79.4</ele>
        <time>2021-10-24T08:42:02Z</time>
      </trkpt>
      <trkpt lat="44.16956" lon="4.54782">
        <ele>79.8</ele>
        <time>2021-10-24T08:42:03Z</time>
      </trkpt>
      <trkpt lat="44.16952" lon="4.54781">
        <ele>80.2</ele>
        <time>2021-10-24T08:42:04Z</time>
      </trkpt>
      <trkpt lat="44.16948" lon="4.54779">
        <ele>80.4</ele>
        <time>2021-10-24T08:42:05Z</time>
      </trkpt>
      <trkpt lat="44.16944" lon="4.54778">
        <ele>80.6</ele>
        <time>2021-10-24T08:42:06Z</time>
      </trkpt>
      <trkpt lat="44.1694" lon="4.54776">
        <ele>80.8</ele>
        <time>2021-10-24T08:42:07Z</time>
      </trkpt>
      <trkpt lat="44.16937" lon="4.54775">
        <ele>81</ele>
        <time>2021-10-24T08:42:08Z</time>
      </trkpt>
      <trkpt lat="44.16933" lon="4.54773">
        <ele>81.4</ele>
        <time>2021-10-24T08:42:09Z</time>
      </trkpt>
      <trkpt lat="44.16929" lon="4.54772">
        <ele>81.6</ele>
        <time>2021-10-24T08:42:10Z</time>
      </trkpt>
      <trkpt lat="44.16925" lon="4.5477">
        <ele>81.6</ele>
        <time>2021-10-24T08:42:11Z</time>
      </trkpt>
      <trkpt lat="44.16921" lon="4.54768">
        <ele>82</ele>
        <time>2021-10-24T08:42:12Z</time>
      </trkpt>
      <trkpt lat="44.16917" lon="4.54766">
        <ele>82.2</ele>
        <time>2021-10-24T08:42:13Z</time>
      </trkpt>
      <trkpt lat="44.16914" lon="4.54764">
        <ele>82.6</ele>
        <time>2021-10-24T08:42:14Z</time>
      </trkpt>
      <trkpt lat="44.1691" lon="4.54763">
        <ele>82.8</ele>
        <time>2021-10-24T08:42:15Z</time>
      </trkpt>
      <trkpt lat="44.16906" lon="4.54761">
        <ele>83.2</ele>
        <time>2021-10-24T08:42:16Z</time>
      </trkpt>
      <trkpt lat="44.16902" lon="4.5476">
        <ele>83.6</ele>
        <time>2021-10-24T08:42:17Z</time>
      </trkpt>
      <trkpt lat="44.16898" lon="4.54759">
        <ele>83.8</ele>
        <time>2021-10-24T08:42:18Z</time>
      </trkpt>
      <trkpt lat="44.16894" lon="4.54759">
        <ele>83.8</ele>
        <time>2021-10-24T08:42:19Z</time>
      </trkpt>
      <trkpt lat="44.1689" lon="4.54759">
        <ele>84</ele>
        <time>2021-10-24T08:42:20Z</time>
      </trkpt>
      <trkpt lat="44.16885" lon="4.54759">
        <ele>84.2</ele>
        <time>2021-10-24T08:42:21Z</time>
      </trkpt>
      <trkpt lat="44.16881" lon="4.54759">
        <ele>84.2</ele>
        <time>2021-10-24T08:42:22Z</time>
      </trkpt>
      <trkpt lat="44.16877" lon="4.5476">
        <ele>84.8</ele>
        <time>2021-10-24T08:42:23Z</time>
      </trkpt>
      <trkpt lat="44.16873" lon="4.54761">
        <ele>85</ele>
        <time>2021-10-24T08:42:24Z</time>
      </trkpt>
      <trkpt lat="44.16869" lon="4.54762">
        <ele>85.2</ele>
        <time>2021-10-24T08:42:25Z</time>
      </trkpt>
      <trkpt lat="44.16865" lon="4.54764">
        <ele>85.4</ele>
        <time>2021-10-24T08:42:26Z</time>
      </trkpt>
      <trkpt lat="44.16861" lon="4.54765">
        <ele>85.4</ele>
        <time>2021-10-24T08:42:27Z</time>
      </trkpt>
      <trkpt lat="44.16857" lon="4.54767">
        <ele>85.6</ele>
        <time>2021-10-24T08:42:28Z</time>
      </trkpt>
      <trkpt lat="44.16853" lon="4.54768">
        <ele>85.8</ele>
        <time>2021-10-24T08:42:29Z</time>
      </trkpt>
      <trkpt lat="44.16849" lon="4.5477">
        <ele>85.8</ele>
        <time>2021-10-24T08:42:30Z</time>
      </trkpt>
      <trkpt lat="44.16844" lon="4.54771">
        <ele>86.2</ele>
        <time>2021-10-24T08:42:31Z</time>
      </trkpt>
      <trkpt lat="44.1684" lon="4.54773">
        <ele>86.4</ele>
        <time>2021-10-24T08:42:32Z</time>
      </trkpt>
      <trkpt lat="44.16836" lon="4.54774">
        <ele>86.6</ele>
        <time>2021-10-24T08:42:33Z</time>
      </trkpt>
      <trkpt lat="44.16832" lon="4.54776">
        <ele>86.8</ele>
        <time>2021-10-24T08:42:34Z</time>
      </trkpt>
      <trkpt lat="44.16828" lon="4.54777">
        <ele>87.2</ele>
        <time>2021-10-24T08:42:35Z</time>
      </trkpt>
      <trkpt lat="44.16824" lon="4.54779">
        <ele>87.2</ele>
        <time>2021-10-24T08:42:36Z</time>
      </trkpt>
      <trkpt lat="44.1682" lon="4.54781">
        <ele>87.4</ele>
        <time>2021-10-24T08:42:37Z</time>
      </trkpt>
      <trkpt lat="44.16816" lon="4.54783">
        <ele>87.4</ele>
        <time>2021-10-24T08:42:38Z</time>
      </trkpt>
      <trkpt lat="44.16812" lon="4.54785">
        <ele>87.8</ele>
        <time>2021-10-24T08:42:39Z</time>
      </trkpt>
      <trkpt lat="44.16807" lon="4.54787">
        <ele>88.2</ele>
        <time>2021-10-24T08:42:40Z</time>
      </trkpt>
      <trkpt lat="44.16803" lon="4.54788">
        <ele>88.2</ele>
        <time>2021-10-24T08:42:41Z</time>
      </trkpt>
      <trkpt lat="44.16799" lon="4.5479">
        <ele>88.4</ele>
        <time>2021-10-24T08:42:42Z</time>
      </trkpt>
      <trkpt lat="44.16795" lon="4.54792">
        <ele>88.6</ele>
        <time>2021-10-24T08:42:43Z</time>
      </trkpt>
      <trkpt lat="44.16792" lon="4.54794">
        <ele>88.8</ele>
        <time>2021-10-24T08:42:44Z</time>
      </trkpt>
      <trkpt lat="44.16788" lon="4.54796">
        <ele>89</ele>
        <time>2021-10-24T08:42:45Z</time>
      </trkpt>
      <trkpt lat="44.16784" lon="4.54798">
        <ele>89.2</ele>
        <time>2021-10-24T08:42:46Z</time>
      </trkpt>
      <trkpt lat="44.16781" lon="4.548">
        <ele>89.2</ele>
        <time>2021-10-24T08:42:47Z</time>
      </trkpt>
      <trkpt lat="44.16777" lon="4.54802">
        <ele>89.2</ele>
        <time>2021-10-24T08:42:48Z</time>
      </trkpt>
      <trkpt lat="44.16773" lon="4.54804">
        <ele>89.4</ele>
        <time>2021-10-24T08:42:49Z</time>
      </trkpt>
      <trkpt lat="44.16769" lon="4.54806">
        <ele>89.6</ele>
        <time>2021-10-24T08:42:50Z</time>
      </trkpt>
      <trkpt lat="44.16766" lon="4.54808">
        <ele>89.8</ele>
        <time>2021-10-24T08:42:51Z</time>
      </trkpt>
      <trkpt lat="44.16762" lon="4.5481">
        <ele>90.4</ele>
        <time>2021-10-24T08:42:52Z</time>
      </trkpt>
      <trkpt lat="44.16758" lon="4.54811">
        <ele>90.6</ele>
        <time>2021-10-24T08:42:53Z</time>
      </trkpt>
      <trkpt lat="44.16754" lon="4.54813">
        <ele>90.6</ele>
        <time>2021-10-24T08:42:54Z</time>
      </trkpt>
      <trkpt lat="44.1675" lon="4.54815">
        <ele>91</ele>
        <time>2021-10-24T08:42:55Z</time>
      </trkpt>
      <trkpt lat="44.16746" lon="4.54817">
        <ele>91</ele>
        <time>2021-10-24T08:42:56Z</time>
      </trkpt>
      <trkpt lat="44.16743" lon="4.54819">
        <ele>91.4</ele>
        <time>2021-10-24T08:42:57Z</time>
      </trkpt>
      <trkpt lat="44.16739" lon="4.5482">
        <ele>91.6</ele>
        <time>2021-10-24T08:42:58Z</time>
      </trkpt>
      <trkpt lat="44.16735" lon="4.54821">
        <ele>92</ele>
        <time>2021-10-24T08:42:59Z</time>
      </trkpt>
      <trkpt lat="44.1673" lon="4.54822">
        <ele>92.2</ele>
        <time>2021-10-24T08:43:00Z</time>
      </trkpt>
      <trkpt lat="44.16726" lon="4.54823">
        <ele>92.4</ele>
        <time>2021-10-24T08:43:01Z</time>
      </trkpt>
      <trkpt lat="44.16722" lon="4.54823">
        <ele>92.4</ele>
        <time>2021-10-24T08:43:02Z</time>
      </trkpt>
      <trkpt lat="44.16717" lon="4.54823">
        <ele>93</ele>
        <time>2021-10-24T08:43:03Z</time>
      </trkpt>
      <trkpt lat="44.16713" lon="4.54823">
        <ele>93</ele>
        <time>2021-10-24T08:43:04Z</time>
      </trkpt>
      <trkpt lat="44.16709" lon="4.54822">
        <ele>93.4</ele>
        <time>2021-10-24T08:43:05Z</time>
      </trkpt>
      <trkpt lat="44.16704" lon="4.54821">
        <ele>93.4</ele>
        <time>2021-10-24T08:43:06Z</time>
      </trkpt>
      <trkpt lat="44.167" lon="4.5482">
        <ele>93.6</ele>
        <time>2021-10-24T08:43:07Z</time>
      </trkpt>
      <trkpt lat="44.16695" lon="4.54819">
        <ele>93.8</ele>
        <time>2021-10-24T08:43:08Z</time>
      </trkpt>
      <trkpt lat="44.16691" lon="4.54817">
        <ele>94.2</ele>
        <time>2021-10-24T08:43:09Z</time>
      </trkpt>
      <trkpt lat="44.16687" lon="4.54815">
        <ele>94.4</ele>
        <time>2021-10-24T08:43:10Z</time>
      </trkpt>
      <trkpt lat="44.16683" lon="4.54813">
        <ele>94.6</ele>
        <time>2021-10-24T08:43:11Z</time>
      </trkpt>
      <trkpt lat="44.16678" lon="4.54811">
        <ele>95</ele>
        <time>2021-10-24T08:43:12Z</time>
      </trkpt>
      <trkpt lat="44.16674" lon="4.54809">
        <ele>95.2</ele>
        <time>2021-10-24T08:43:13Z</time>
      </trkpt>
      <trkpt lat="44.16669" lon="4.54806">
        <ele>95.2</ele>
        <time>2021-10-24T08:43:14Z</time>
      </trkpt>
      <trkpt lat="44.16665" lon="4.54804">
        <ele>95.6</ele>
        <time>2021-10-24T08:43:15Z</time>
      </trkpt>
      <trkpt lat="44.16661" lon="4.54802">
        <ele>95.6</ele>
        <time>2021-10-24T08:43:16Z</time>
      </trkpt>
      <trkpt lat="44.16656" lon="4.54799">
        <ele>96</ele>
        <time>2021-10-24T08:43:17Z</time>
      </trkpt>
      <trkpt lat="44.16651" lon="4.54796">
        <ele>96</ele>
        <time>2021-10-24T08:43:18Z</time>
      </trkpt>
      <trkpt lat="44.16646" lon="4.54794">
        <ele>96.6</ele>
        <time>2021-10-24T08:43:19Z</time>
      </trkpt>
      <trkpt lat="44.16641" lon="4.54791">
        <ele>96.8</ele>
        <time>2021-10-24T08:43:20Z</time>
      </trkpt>
      <trkpt lat="44.16636" lon="4.54787">
        <ele>96.8</ele>
        <time>2021-10-24T08:43:21Z</time>
      </trkpt>
      <trkpt lat="44.16632" lon="4.54784">
        <ele>96.8</ele>
        <time>2021-10-24T08:43:22Z</time>
      </trkpt>
      <trkpt lat="44.16627" lon="4.54779">
        <ele>97</ele>
        <time>2021-10-24T08:43:23Z</time>
      </trkpt>
      <trkpt lat="44.16623" lon="4.54774">
        <ele>97.4</ele>
        <time>2021-10-24T08:43:24Z</time>
      </trkpt>
      <trkpt lat="44.1662" lon="4.54768">
        <ele>97.6</ele>
        <time>2021-10-24T08:43:25Z</time>
      </trkpt>
      <trkpt lat="44.16617" lon="4.54762">
        <ele>97.8</ele>
        <time>2021-10-24T08:43:26Z</time>
      </trkpt>
      <trkpt lat="44.16615" lon="4.54755">
        <ele>97.8</ele>
        <time>2021-10-24T08:43:27Z</time>
      </trkpt>
      <trkpt lat="44.16613" lon="4.54748">
        <ele>97.6</ele>
        <time>2021-10-24T08:43:28Z</time>
      </trkpt>
      <trkpt lat="44.16611" lon="4.54741">
        <ele>97.8</ele>
        <time>2021-10-24T08:43:29Z</time>
      </trkpt>
      <trkpt lat="44.16611" lon="4.54734">
        <ele>98</ele>
        <time>2021-10-24T08:43:30Z</time>
      </trkpt>
      <trkpt lat="44.1661" lon="4.54727">
        <ele>98.2</ele>
        <time>2021-10-24T08:43:31Z</time>
      </trkpt>
      <trkpt lat="44.1661" lon="4.5472">
        <ele>98.4</ele>
        <time>2021-10-24T08:43:32Z</time>
      </trkpt>
      <trkpt lat="44.1661" lon="4.54713">
        <ele>98.6</ele>
        <time>2021-10-24T08:43:33Z</time>
      </trkpt>
      <trkpt lat="44.16609" lon="4.54706">
        <ele>98.8</ele>
        <time>2021-10-24T08:43:34Z</time>
      </trkpt>
      <trkpt lat="44.16609" lon="4.54699">
        <ele>99</ele>
        <time>2021-10-24T08:43:35Z</time>
      </trkpt>
      <trkpt lat="44.16609" lon="4.54692">
        <ele>99.4</ele>
        <time>2021-10-24T08:43:36Z</time>
      </trkpt>
      <trkpt lat="44.16608" lon="4.54686">
        <ele>99.6</ele>
        <time>2021-10-24T08:43:37Z</time>
      </trkpt>
      <trkpt lat="44.16608" lon="4.54679">
        <ele>99.8</ele>
        <time>2021-10-24T08:43:38Z</time>
      </trkpt>
      <trkpt lat="44.16607" lon="4.54673">
        <ele>100</ele>
        <time>2021-10-24T08:43:39Z</time>
      </trkpt>
      <trkpt lat="44.16606" lon="4.54666">
        <ele>100.2</ele>
        <time>2021-10-24T08:43:40Z</time>
      </trkpt>
      <trkpt lat="44.16605" lon="4.5466">
        <ele>100.4</ele>
        <time>2021-10-24T08:43:41Z</time>
      </trkpt>
      <trkpt lat="44.16604" lon="4.54654">
        <ele>100.8</ele>
        <time>2021-10-24T08:43:42Z</time>
      </trkpt>
      <trkpt lat="44.16602" lon="4.54648">
        <ele>101</ele>
        <time>2021-10-24T08:43:43Z</time>
      </trkpt>
      <trkpt lat="44.166" lon="4.54642">
        <ele>101.4</ele>
        <time>2021-10-24T08:43:44Z</time>
      </trkpt>
      <trkpt lat="44.16598" lon="4.54637">
        <ele>101.8</ele>
        <time>2021-10-24T08:43:45Z</time>
      </trkpt>
      <trkpt lat="44.16594" lon="4.54632">
        <ele>102</ele>
        <time>2021-10-24T08:43:46Z</time>
      </trkpt>
      <trkpt lat="44.16591" lon="4.54628">
        <ele>102.4</ele>
        <time>2021-10-24T08:43:47Z</time>
      </trkpt>
      <trkpt lat="44.16587" lon="4.54624">
        <ele>102.6</ele>
        <time>2021-10-24T08:43:48Z</time>
      </trkpt>
      <trkpt lat="44.16583" lon="4.54621">
        <ele>102.8</ele>
        <time>2021-10-24T08:43:49Z</time>
      </trkpt>
      <trkpt lat="44.16579" lon="4.54618">
        <ele>103</ele>
        <time>2021-10-24T08:43:50Z</time>
      </trkpt>
      <trkpt lat="44.16575" lon="4.54615">
        <ele>103.2</ele>
        <time>2021-10-24T08:43:51Z</time>
      </trkpt>
      <trkpt lat="44.1657" lon="4.54612">
        <ele>103.6</ele>
        <time>2021-10-24T08:43:52Z</time>
      </trkpt>
      <trkpt lat="44.16566" lon="4.54609">
        <ele>103.8</ele>
        <time>2021-10-24T08:43:53Z</time>
      </trkpt>
      <trkpt lat="44.16561" lon="4.54607">
        <ele>103.8</ele>
        <time>2021-10-24T08:43:54Z</time>
      </trkpt>
      <trkpt lat="44.16556" lon="4.54604">
        <ele>104.4</ele>
        <time>2021-10-24T08:43:55Z</time>
      </trkpt>
      <trkpt lat="44.16551" lon="4.546">
        <ele>104.4</ele>
        <time>2021-10-24T08:43:56Z</time>
      </trkpt>
      <trkpt lat="44.16546" lon="4.54597">
        <ele>104.6</ele>
        <time>2021-10-24T08:43:57Z</time>
      </trkpt>
      <trkpt lat="44.16541" lon="4.54593">
        <ele>105</ele>
        <time>2021-10-24T08:43:58Z</time>
      </trkpt>
      <trkpt lat="44.16536" lon="4.54588">
        <ele>105.2</ele>
        <time>2021-10-24T08:43:59Z</time>
      </trkpt>
      <trkpt lat="44.16532" lon="4.54584">
        <ele>105</ele>
        <time>2021-10-24T08:44:00Z</time>
      </trkpt>
      <trkpt lat="44.16527" lon="4.54579">
        <ele>105.2</ele>
        <time>2021-10-24T08:44:01Z</time>
      </trkpt>
      <trkpt lat="44.16522" lon="4.54574">
        <ele>105.4</ele>
        <time>2021-10-24T08:44:02Z</time>
      </trkpt>
      <trkpt lat="44.16518" lon="4.54569">
        <ele>105.4</ele>
        <time>2021-10-24T08:44:03Z</time>
      </trkpt>
      <trkpt lat="44.16513" lon="4.54564">
        <ele>105.6</ele>
        <time>2021-10-24T08:44:04Z</time>
      </trkpt>
      <trkpt lat="44.16509" lon="4.54558">
        <ele>105.8</ele>
        <time>2021-10-24T08:44:05Z</time>
      </trkpt>
      <trkpt lat="44.16504" lon="4.54553">
        <ele>105.8</ele>
        <time>2021-10-24T08:44:06Z</time>
      </trkpt>
      <trkpt lat="44.165" lon="4.54547">
        <ele>105.8</ele>
        <time>2021-10-24T08:44:07Z</time>
      </trkpt>
      <trkpt lat="44.16495" lon="4.54541">
        <ele>106</ele>
        <time>2021-10-24T08:44:08Z</time>
      </trkpt>
      <trkpt lat="44.16491" lon="4.54535">
        <ele>106.2</ele>
        <time>2021-10-24T08:44:09Z</time>
      </trkpt>
      <trkpt lat="44.16486" lon="4.54529">
        <ele>106.4</ele>
        <time>2021-10-24T08:44:10Z</time>
      </trkpt>
      <trkpt lat="44.16481" lon="4.54523">
        <ele>106.2</ele>
        <time>2021-10-24T08:44:11Z</time>
      </trkpt>
      <trkpt lat="44.16476" lon="4.54517">
        <ele>106.4</ele>
        <time>2021-10-24T08:44:12Z</time>
      </trkpt>
      <trkpt lat="44.16471" lon="4.54511">
        <ele>106.6</ele>
        <time>2021-10-24T08:44:13Z</time>
      </trkpt>
      <trkpt lat="44.16466" lon="4.54505">
        <ele>106.6</ele>
        <time>2021-10-24T08:44:14Z</time>
      </trkpt>
      <trkpt lat="44.16461" lon="4.54499">
        <ele>106.6</ele>
        <time>2021-10-24T08:44:15Z</time>
      </trkpt>
      <trkpt lat="44.16456" lon="4.54493">
        <ele>106.8</ele>
        <time>2021-10-24T08:44:16Z</time>
      </trkpt>
      <trkpt lat="44.16451" lon="4.54486">
        <ele>106.6</ele>
        <time>2021-10-24T08:44:17Z</time>
      </trkpt>
      <trkpt lat="44.16446" lon="4.5448">
        <ele>106.8</ele>
        <time>2021-10-24T08:44:18Z</time>
      </trkpt>
      <trkpt lat="44.16441" lon="4.54473">
        <ele>106.6</ele>
        <time>2021-10-24T08:44:19Z</time>
      </trkpt>
      <trkpt lat="44.16436" lon="4.54467">
        <ele>106.6</ele>
        <time>2021-10-24T08:44:20Z</time>
      </trkpt>
      <trkpt lat="44.16431" lon="4.5446">
        <ele>106.8</ele>
        <time>2021-10-24T08:44:21Z</time>
      </trkpt>
      <trkpt lat="44.16426" lon="4.54453">
        <ele>106.8</ele>
        <time>2021-10-24T08:44:22Z</time>
      </trkpt>
      <trkpt lat="44.16421" lon="4.54446">
        <ele>107.2</ele>
        <time>2021-10-24T08:44:23Z</time>
      </trkpt>
      <trkpt lat="44.16417" lon="4.54439">
        <ele>107.2</ele>
        <time>2021-10-24T08:44:24Z</time>
      </trkpt>
      <trkpt lat="44.16413" lon="4.54431">
        <ele>107.4</ele>
        <time>2021-10-24T08:44:25Z</time>
      </trkpt>
      <trkpt lat="44.16409" lon="4.54423">
        <ele>107.4</ele>
        <time>2021-10-24T08:44:26Z</time>
      </trkpt>
      <trkpt lat="44.16404" lon="4.54416">
        <ele>107.4</ele>
        <time>2021-10-24T08:44:27Z</time>
      </trkpt>
      <trkpt lat="44.164" lon="4.54408">
        <ele>107.6</ele>
        <time>2021-10-24T08:44:28Z</time>
      </trkpt>
      <trkpt lat="44.16396" lon="4.544">
        <ele>107.8</ele>
        <time>2021-10-24T08:44:29Z</time>
      </trkpt>
      <trkpt lat="44.16392" lon="4.54393">
        <ele>107.8</ele>
        <time>2021-10-24T08:44:30Z</time>
      </trkpt>
      <trkpt lat="44.16388" lon="4.54385">
        <ele>107.8</ele>
        <time>2021-10-24T08:44:31Z</time>
      </trkpt>
      <trkpt lat="44.16384" lon="4.54377">
        <ele>107.8</ele>
        <time>2021-10-24T08:44:32Z</time>
      </trkpt>
      <trkpt lat="44.1638" lon="4.54369">
        <ele>107.8</ele>
        <time>2021-10-24T08:44:33Z</time>
      </trkpt>
      <trkpt lat="44.16376" lon="4.54361">
        <ele>108</ele>
        <time>2021-10-24T08:44:34Z</time>
      </trkpt>
      <trkpt lat="44.16373" lon="4.54353">
        <ele>108.2</ele>
        <time>2021-10-24T08:44:35Z</time>
      </trkpt>
      <trkpt lat="44.1637" lon="4.54345">
        <ele>108.4</ele>
        <time>2021-10-24T08:44:36Z</time>
      </trkpt>
      <trkpt lat="44.16367" lon="4.54337">
        <ele>108.6</ele>
        <time>2021-10-24T08:44:37Z</time>
      </trkpt>
      <trkpt lat="44.16364" lon="4.54329">
        <ele>108.6</ele>
        <time>2021-10-24T08:44:38Z</time>
      </trkpt>
      <trkpt lat="44.16362" lon="4.5432">
        <ele>108.6</ele>
        <time>2021-10-24T08:44:39Z</time>
      </trkpt>
      <trkpt lat="44.16361" lon="4.54312">
        <ele>108.8</ele>
        <time>2021-10-24T08:44:40Z</time>
      </trkpt>
      <trkpt lat="44.1636" lon="4.54303">
        <ele>109</ele>
        <time>2021-10-24T08:44:41Z</time>
      </trkpt>
      <trkpt lat="44.1636" lon="4.54295">
        <ele>109</ele>
        <time>2021-10-24T08:44:42Z</time>
      </trkpt>
      <trkpt lat="44.16361" lon="4.54286">
        <ele>109.2</ele>
        <time>2021-10-24T08:44:43Z</time>
      </trkpt>
      <trkpt lat="44.16362" lon="4.54277">
        <ele>109.4</ele>
        <time>2021-10-24T08:44:44Z</time>
      </trkpt>
      <trkpt lat="44.16364" lon="4.54269">
        <ele>109.4</ele>
        <time>2021-10-24T08:44:45Z</time>
      </trkpt>
      <trkpt lat="44.16366" lon="4.5426">
        <ele>109.4</ele>
        <time>2021-10-24T08:44:46Z</time>
      </trkpt>
      <trkpt lat="44.16367" lon="4.54252">
        <ele>109.8</ele>
        <time>2021-10-24T08:44:47Z</time>
      </trkpt>
      <trkpt lat="44.16368" lon="4.54243">
        <ele>109.8</ele>
        <time>2021-10-24T08:44:48Z</time>
      </trkpt>
      <trkpt lat="44.16369" lon="4.54235">
        <ele>109.8</ele>
        <time>2021-10-24T08:44:49Z</time>
      </trkpt>
      <trkpt lat="44.16369" lon="4.54226">
        <ele>110</ele>
        <time>2021-10-24T08:44:50Z</time>
      </trkpt>
      <trkpt lat="44.16369" lon="4.54218">
        <ele>110.2</ele>
        <time>2021-10-24T08:44:51Z</time>
      </trkpt>
      <trkpt lat="44.16369" lon="4.54209">
        <ele>110.4</ele>
        <time>2021-10-24T08:44:52Z</time>
      </trkpt>
      <trkpt lat="44.16368" lon="4.542">
        <ele>110.4</ele>
        <time>2021-10-24T08:44:53Z</time>
      </trkpt>
      <trkpt lat="44.16367" lon="4.54192">
        <ele>110.8</ele>
        <time>2021-10-24T08:44:54Z</time>
      </trkpt>
      <trkpt lat="44.16366" lon="4.54183">
        <ele>111</ele>
        <time>2021-10-24T08:44:55Z</time>
      </trkpt>
      <trkpt lat="44.16365" lon="4.54174">
        <ele>111.2</ele>
        <time>2021-10-24T08:44:56Z</time>
      </trkpt>
      <trkpt lat="44.16364" lon="4.54164">
        <ele>111.4</ele>
        <time>2021-10-24T08:44:57Z</time>
      </trkpt>
      <trkpt lat="44.16363" lon="4.54155">
        <ele>111.6</ele>
        <time>2021-10-24T08:44:58Z</time>
      </trkpt>
      <trkpt lat="44.16362" lon="4.54146">
        <ele>111.6</ele>
        <time>2021-10-24T08:44:59Z</time>
      </trkpt>
      <trkpt lat="44.16361" lon="4.54137">
        <ele>112</ele>
        <time>2021-10-24T08:45:00Z</time>
      </trkpt>
      <trkpt lat="44.1636" lon="4.54127">
        <ele>112</ele>
        <time>2021-10-24T08:45:01Z</time>
      </trkpt>
      <trkpt lat="44.16359" lon="4.54118">
        <ele>112</ele>
        <time>2021-10-24T08:45:02Z</time>
      </trkpt>
      <trkpt lat="44.16358" lon="4.54109">
        <ele>112.2</ele>
        <time>2021-10-24T08:45:03Z</time>
      </trkpt>
      <trkpt lat="44.16357" lon="4.541">
        <ele>112</ele>
        <time>2021-10-24T08:45:04Z</time>
      </trkpt>
      <trkpt lat="44.16356" lon="4.5409">
        <ele>112.4</ele>
        <time>2021-10-24T08:45:05Z</time>
      </trkpt>
      <trkpt lat="44.16355" lon="4.54081">
        <ele>112.4</ele>
        <time>2021-10-24T08:45:06Z</time>
      </trkpt>
      <trkpt lat="44.16354" lon="4.54072">
        <ele>112.6</ele>
        <time>2021-10-24T08:45:07Z</time>
      </trkpt>
      <trkpt lat="44.16353" lon="4.54063">
        <ele>112.4</ele>
        <time>2021-10-24T08:45:08Z</time>
      </trkpt>
      <trkpt lat="44.16352" lon="4.54054">
        <ele>112.8</ele>
        <time>2021-10-24T08:45:09Z</time>
      </trkpt>
      <trkpt lat="44.1635" lon="4.54045">
        <ele>113</ele>
        <time>2021-10-24T08:45:10Z</time>
      </trkpt>
      <trkpt lat="44.16346" lon="4.54037">
        <ele>113.2</ele>
        <time>2021-10-24T08:45:11Z</time>
      </trkpt>
      <trkpt lat="44.16342" lon="4.5403">
        <ele>113.2</ele>
        <time>2021-10-24T08:45:12Z</time>
      </trkpt>
      <trkpt lat="44.16336" lon="4.54025">
        <ele>113.2</ele>
        <time>2021-10-24T08:45:13Z</time>
      </trkpt>
      <trkpt lat="44.16329" lon="4.54024">
        <ele>113.2</ele>
        <time>2021-10-24T08:45:14Z</time>
      </trkpt>
      <trkpt lat="44.16322" lon="4.54023">
        <ele>113.4</ele>
        <time>2021-10-24T08:45:15Z</time>
      </trkpt>
      <trkpt lat="44.16316" lon="4.54022">
        <ele>113.4</ele>
        <time>2021-10-24T08:45:16Z</time>
      </trkpt>
      <trkpt lat="44.16309" lon="4.54021">
        <ele>113.2</ele>
        <time>2021-10-24T08:45:17Z</time>
      </trkpt>
      <trkpt lat="44.16302" lon="4.54021">
        <ele>113.2</ele>
        <time>2021-10-24T08:45:18Z</time>
      </trkpt>
      <trkpt lat="44.16295" lon="4.5402">
        <ele>113.6</ele>
        <time>2021-10-24T08:45:19Z</time>
      </trkpt>
      <trkpt lat="44.16288" lon="4.54019">
        <ele>113.6</ele>
        <time>2021-10-24T08:45:20Z</time>
      </trkpt>
      <trkpt lat="44.1628" lon="4.54018">
        <ele>113.6</ele>
        <time>2021-10-24T08:45:21Z</time>
      </trkpt>
      <trkpt lat="44.16273" lon="4.54015">
        <ele>113.6</ele>
        <time>2021-10-24T08:45:22Z</time>
      </trkpt>
      <trkpt lat="44.16267" lon="4.54011">
        <ele>113.6</ele>
        <time>2021-10-24T08:45:23Z</time>
      </trkpt>
      <trkpt lat="44.16261" lon="4.54004">
        <ele>113.6</ele>
        <time>2021-10-24T08:45:24Z</time>
      </trkpt>
      <trkpt lat="44.16258" lon="4.53994">
        <ele>113.4</ele>
        <time>2021-10-24T08:45:25Z</time>
      </trkpt>
      <trkpt lat="44.16255" lon="4.53984">
        <ele>113.2</ele>
        <time>2021-10-24T08:45:26Z</time>
      </trkpt>
      <trkpt lat="44.16253" lon="4.53973">
        <ele>113</ele>
        <time>2021-10-24T08:45:27Z</time>
      </trkpt>
      <trkpt lat="44.1625" lon="4.53962">
        <ele>112.8</ele>
        <time>2021-10-24T08:45:28Z</time>
      </trkpt>
      <trkpt lat="44.16248" lon="4.53951">
        <ele>113</ele>
        <time>2021-10-24T08:45:29Z</time>
      </trkpt>
      <trkpt lat="44.16245" lon="4.53941">
        <ele>112.8</ele>
        <time>2021-10-24T08:45:30Z</time>
      </trkpt>
      <trkpt lat="44.16243" lon="4.53931">
        <ele>112.4</ele>
        <time>2021-10-24T08:45:31Z</time>
      </trkpt>
      <trkpt lat="44.16241" lon="4.5392">
        <ele>112</ele>
        <time>2021-10-24T08:45:32Z</time>
      </trkpt>
      <trkpt lat="44.1624" lon="4.5391">
        <ele>112</ele>
        <time>2021-10-24T08:45:33Z</time>
      </trkpt>
      <trkpt lat="44.16238" lon="4.53899">
        <ele>111.8</ele>
        <time>2021-10-24T08:45:34Z</time>
      </trkpt>
      <trkpt lat="44.16236" lon="4.53889">
        <ele>111.8</ele>
        <time>2021-10-24T08:45:35Z</time>
      </trkpt>
      <trkpt lat="44.16234" lon="4.53879">
        <ele>111.6</ele>
        <time>2021-10-24T08:45:36Z</time>
      </trkpt>
      <trkpt lat="44.16233" lon="4.53869">
        <ele>111.8</ele>
        <time>2021-10-24T08:45:37Z</time>
      </trkpt>
      <trkpt lat="44.16232" lon="4.5386">
        <ele>112</ele>
        <time>2021-10-24T08:45:38Z</time>
      </trkpt>
      <trkpt lat="44.16232" lon="4.53851">
        <ele>112</ele>
        <time>2021-10-24T08:45:39Z</time>
      </trkpt>
      <trkpt lat="44.16233" lon="4.53843">
        <ele>112.4</ele>
        <time>2021-10-24T08:45:40Z</time>
      </trkpt>
      <trkpt lat="44.16234" lon="4.53836">
        <ele>112.6</ele>
        <time>2021-10-24T08:45:41Z</time>
      </trkpt>
      <trkpt lat="44.16236" lon="4.53829">
        <ele>112.8</ele>
        <time>2021-10-24T08:45:42Z</time>
      </trkpt>
      <trkpt lat="44.16238" lon="4.53822">
        <ele>113.2</ele>
        <time>2021-10-24T08:45:43Z</time>
      </trkpt>
      <trkpt lat="44.16241" lon="4.53816">
        <ele>113.8</ele>
        <time>2021-10-24T08:45:44Z</time>
      </trkpt>
      <trkpt lat="44.16242" lon="4.53809">
        <ele>113.8</ele>
        <time>2021-10-24T08:45:45Z</time>
      </trkpt>
      <trkpt lat="44.16243" lon="4.53803">
        <ele>114</ele>
        <time>2021-10-24T08:45:46Z</time>
      </trkpt>
      <trkpt lat="44.16243" lon="4.53796">
        <ele>114.2</ele>
        <time>2021-10-24T08:45:47Z</time>
      </trkpt>
      <trkpt lat="44.16241" lon="4.5379">
        <ele>114.4</ele>
        <time>2021-10-24T08:45:48Z</time>
      </trkpt>
      <trkpt lat="44.16238" lon="4.53785">
        <ele>114.4</ele>
        <time>2021-10-24T08:45:49Z</time>
      </trkpt>
      <trkpt lat="44.16235" lon="4.5378">
        <ele>114.8</ele>
        <time>2021-10-24T08:45:50Z</time>
      </trkpt>
      <trkpt lat="44.16231" lon="4.53776">
        <ele>115.2</ele>
        <time>2021-10-24T08:45:51Z</time>
      </trkpt>
      <trkpt lat="44.16227" lon="4.53772">
        <ele>115.6</ele>
        <time>2021-10-24T08:45:52Z</time>
      </trkpt>
      <trkpt lat="44.16223" lon="4.53769">
        <ele>115.6</ele>
        <time>2021-10-24T08:45:53Z</time>
      </trkpt>
      <trkpt lat="44.16219" lon="4.53765">
        <ele>115.6</ele>
        <time>2021-10-24T08:45:54Z</time>
      </trkpt>
      <trkpt lat="44.16214" lon="4.53761">
        <ele>116.2</ele>
        <time>2021-10-24T08:45:55Z</time>
      </trkpt>
      <trkpt lat="44.1621" lon="4.53757">
        <ele>116.6</ele>
        <time>2021-10-24T08:45:56Z</time>
      </trkpt>
      <trkpt lat="44.16207" lon="4.53753">
        <ele>117</ele>
        <time>2021-10-24T08:45:57Z</time>
      </trkpt>
      <trkpt lat="44.16203" lon="4.53748">
        <ele>117.2</ele>
        <time>2021-10-24T08:45:58Z</time>
      </trkpt>
      <trkpt lat="44.16199" lon="4.53743">
        <ele>117.4</ele>
        <time>2021-10-24T08:45:59Z</time>
      </trkpt>
      <trkpt lat="44.16196" lon="4.53737">
        <ele>117.6</ele>
        <time>2021-10-24T08:46:00Z</time>
      </trkpt>
      <trkpt lat="44.16194" lon="4.53731">
        <ele>118.2</ele>
        <time>2021-10-24T08:46:01Z</time>
      </trkpt>
      <trkpt lat="44.16193" lon="4.53724">
        <ele>118.4</ele>
        <time>2021-10-24T08:46:02Z</time>
      </trkpt>
      <trkpt lat="44.16193" lon="4.53717">
        <ele>119</ele>
        <time>2021-10-24T08:46:03Z</time>
      </trkpt>
      <trkpt lat="44.16192" lon="4.5371">
        <ele>119</ele>
        <time>2021-10-24T08:46:04Z</time>
      </trkpt>
      <trkpt lat="44.1619" lon="4.53703">
        <ele>119.4</ele>
        <time>2021-10-24T08:46:05Z</time>
      </trkpt>
      <trkpt lat="44.16187" lon="4.53698">
        <ele>120.2</ele>
        <time>2021-10-24T08:46:06Z</time>
      </trkpt>
      <trkpt lat="44.16183" lon="4.53693">
        <ele>120.4</ele>
        <time>2021-10-24T08:46:07Z</time>
      </trkpt>
      <trkpt lat="44.16178" lon="4.53688">
        <ele>120.8</ele>
        <time>2021-10-24T08:46:08Z</time>
      </trkpt>
      <trkpt lat="44.16174" lon="4.53683">
        <ele>121.2</ele>
        <time>2021-10-24T08:46:09Z</time>
      </trkpt>
      <trkpt lat="44.1617" lon="4.53678">
        <ele>121.4</ele>
        <time>2021-10-24T08:46:10Z</time>
      </trkpt>
      <trkpt lat="44.16165" lon="4.53674">
        <ele>121.6</ele>
        <time>2021-10-24T08:46:11Z</time>
      </trkpt>
      <trkpt lat="44.1616" lon="4.5367">
        <ele>121.8</ele>
        <time>2021-10-24T08:46:12Z</time>
      </trkpt>
      <trkpt lat="44.16155" lon="4.53666">
        <ele>122</ele>
        <time>2021-10-24T08:46:13Z</time>
      </trkpt>
      <trkpt lat="44.1615" lon="4.53663">
        <ele>122.2</ele>
        <time>2021-10-24T08:46:14Z</time>
      </trkpt>
      <trkpt lat="44.16144" lon="4.5366">
        <ele>122.4</ele>
        <time>2021-10-24T08:46:15Z</time>
      </trkpt>
      <trkpt lat="44.16139" lon="4.53657">
        <ele>122.6</ele>
        <time>2021-10-24T08:46:16Z</time>
      </trkpt>
      <trkpt lat="44.16133" lon="4.53654">
        <ele>123.2</ele>
        <time>2021-10-24T08:46:17Z</time>
      </trkpt>
      <trkpt lat="44.16128" lon="4.5365">
        <ele>123.4</ele>
        <time>2021-10-24T08:46:18Z</time>
      </trkpt>
      <trkpt lat="44.16122" lon="4.53646">
        <ele>123.4</ele>
        <time>2021-10-24T08:46:19Z</time>
      </trkpt>
      <trkpt lat="44.16117" lon="4.53642">
        <ele>123.6</ele>
        <time>2021-10-24T08:46:20Z</time>
      </trkpt>
      <trkpt lat="44.16111" lon="4.53637">
        <ele>123.8</ele>
        <time>2021-10-24T08:46:21Z</time>
      </trkpt>
      <trkpt lat="44.16106" lon="4.53632">
        <ele>123.8</ele>
        <time>2021-10-24T08:46:22Z</time>
      </trkpt>
      <trkpt lat="44.16101" lon="4.53627">
        <ele>124</ele>
        <time>2021-10-24T08:46:23Z</time>
      </trkpt>
      <trkpt lat="44.16097" lon="4.53622">
        <ele>124.2</ele>
        <time>2021-10-24T08:46:24Z</time>
      </trkpt>
      <trkpt lat="44.16092" lon="4.53617">
        <ele>124.4</ele>
        <time>2021-10-24T08:46:25Z</time>
      </trkpt>
      <trkpt lat="44.16087" lon="4.53611">
        <ele>124.4</ele>
        <time>2021-10-24T08:46:26Z</time>
      </trkpt>
      <trkpt lat="44.16082" lon="4.53606">
        <ele>124.6</ele>
        <time>2021-10-24T08:46:27Z</time>
      </trkpt>
      <trkpt lat="44.16077" lon="4.536">
        <ele>124.8</ele>
        <time>2021-10-24T08:46:28Z</time>
      </trkpt>
      <trkpt lat="44.16072" lon="4.53595">
        <ele>124.8</ele>
        <time>2021-10-24T08:46:29Z</time>
      </trkpt>
      <trkpt lat="44.16066" lon="4.53589">
        <ele>124.8</ele>
        <time>2021-10-24T08:46:30Z</time>
      </trkpt>
      <trkpt lat="44.16061" lon="4.53584">
        <ele>124.8</ele>
        <time>2021-10-24T08:46:31Z</time>
      </trkpt>
      <trkpt lat="44.16055" lon="4.53579">
        <ele>125</ele>
        <time>2021-10-24T08:46:32Z</time>
      </trkpt>
      <trkpt lat="44.16049" lon="4.53574">
        <ele>124.8</ele>
        <time>2021-10-24T08:46:33Z</time>
      </trkpt>
      <trkpt lat="44.16043" lon="4.53569">
        <ele>124.8</ele>
        <time>2021-10-24T08:46:34Z</time>
      </trkpt>
      <trkpt lat="44.16036" lon="4.53564">
        <ele>124.8</ele>
        <time>2021-10-24T08:46:35Z</time>
      </trkpt>
      <trkpt lat="44.1603" lon="4.5356">
        <ele>124.8</ele>
        <time>2021-10-24T08:46:36Z</time>
      </trkpt>
      <trkpt lat="44.16024" lon="4.53555">
        <ele>125</ele>
        <time>2021-10-24T08:46:37Z</time>
      </trkpt>
      <trkpt lat="44.16017" lon="4.53551">
        <ele>125</ele>
        <time>2021-10-24T08:46:38Z</time>
      </trkpt>
      <trkpt lat="44.16011" lon="4.53547">
        <ele>125.2</ele>
        <time>2021-10-24T08:46:39Z</time>
      </trkpt>
      <trkpt lat="44.16004" lon="4.53544">
        <ele>125.2</ele>
        <time>2021-10-24T08:46:40Z</time>
      </trkpt>
      <trkpt lat="44.15997" lon="4.53542">
        <ele>125.4</ele>
        <time>2021-10-24T08:46:41Z</time>
      </trkpt>
      <trkpt lat="44.1599" lon="4.53539">
        <ele>125.4</ele>
        <time>2021-10-24T08:46:42Z</time>
      </trkpt>
      <trkpt lat="44.15983" lon="4.53537">
        <ele>125.4</ele>
        <time>2021-10-24T08:46:43Z</time>
      </trkpt>
      <trkpt lat="44.15976" lon="4.53535">
        <ele>125.6</ele>
        <time>2021-10-24T08:46:44Z</time>
      </trkpt>
      <trkpt lat="44.15969" lon="4.53533">
        <ele>125.6</ele>
        <time>2021-10-24T08:46:45Z</time>
      </trkpt>
      <trkpt lat="44.15962" lon="4.53531">
        <ele>125.8</ele>
        <time>2021-10-24T08:46:46Z</time>
      </trkpt>
      <trkpt lat="44.15955" lon="4.53529">
        <ele>125.8</ele>
        <time>2021-10-24T08:46:47Z</time>
      </trkpt>
      <trkpt lat="44.15948" lon="4.53528">
        <ele>125.8</ele>
        <time>2021-10-24T08:46:48Z</time>
      </trkpt>
      <trkpt lat="44.15941" lon="4.53526">
        <ele>125.8</ele>
        <time>2021-10-24T08:46:49Z</time>
      </trkpt>
      <trkpt lat="44.15935" lon="4.53524">
        <ele>126.2</ele>
        <time>2021-10-24T08:46:50Z</time>
      </trkpt>
      <trkpt lat="44.15928" lon="4.53521">
        <ele>126.2</ele>
        <time>2021-10-24T08:46:51Z</time>
      </trkpt>
      <trkpt lat="44.15922" lon="4.53519">
        <ele>126.2</ele>
        <time>2021-10-24T08:46:52Z</time>
      </trkpt>
      <trkpt lat="44.15917" lon="4.53518">
        <ele>126.4</ele>
        <time>2021-10-24T08:46:53Z</time>
      </trkpt>
      <trkpt lat="44.15912" lon="4.53517">
        <ele>126.8</ele>
        <time>2021-10-24T08:46:54Z</time>
      </trkpt>
      <trkpt lat="44.15907" lon="4.53516">
        <ele>126.8</ele>
        <time>2021-10-24T08:46:55Z</time>
      </trkpt>
      <trkpt lat="44.15903" lon="4.53513">
        <ele>126.8</ele>
        <time>2021-10-24T08:46:56Z</time>
      </trkpt>
      <trkpt lat="44.15899" lon="4.53509">
        <ele>126.8</ele>
        <time>2021-10-24T08:46:57Z</time>
      </trkpt>
      <trkpt lat="44.15896" lon="4.53503">
        <ele>126.8</ele>
        <time>2021-10-24T08:46:58Z</time>
      </trkpt>
      <trkpt lat="44.15893" lon="4.53497">
        <ele>126.8</ele>
        <time>2021-10-24T08:46:59Z</time>
      </trkpt>
      <trkpt lat="44.15891" lon="4.5349">
        <ele>126.8</ele>
        <time>2021-10-24T08:47:00Z</time>
      </trkpt>
      <trkpt lat="44.15888" lon="4.53483">
        <ele>127</ele>
        <time>2021-10-24T08:47:01Z</time>
      </trkpt>
      <trkpt lat="44.15885" lon="4.53475">
        <ele>127.2</ele>
        <time>2021-10-24T08:47:02Z</time>
      </trkpt>
      <trkpt lat="44.15881" lon="4.53467">
        <ele>127.4</ele>
        <time>2021-10-24T08:47:03Z</time>
      </trkpt>
      <trkpt lat="44.15878" lon="4.53459">
        <ele>127.4</ele>
        <time>2021-10-24T08:47:04Z</time>
      </trkpt>
      <trkpt lat="44.15875" lon="4.53451">
        <ele>127.6</ele>
        <time>2021-10-24T08:47:05Z</time>
      </trkpt>
      <trkpt lat="44.15871" lon="4.53442">
        <ele>127.6</ele>
        <time>2021-10-24T08:47:06Z</time>
      </trkpt>
      <trkpt lat="44.15868" lon="4.53434">
        <ele>127.8</ele>
        <time>2021-10-24T08:47:07Z</time>
      </trkpt>
      <trkpt lat="44.15864" lon="4.53426">
        <ele>128.2</ele>
        <time>2021-10-24T08:47:08Z</time>
      </trkpt>
      <trkpt lat="44.1586" lon="4.53418">
        <ele>128.6</ele>
        <time>2021-10-24T08:47:09Z</time>
      </trkpt>
      <trkpt lat="44.15857" lon="4.53409">
        <ele>129</ele>
        <time>2021-10-24T08:47:10Z</time>
      </trkpt>
      <trkpt lat="44.15854" lon="4.53401">
        <ele>129.2</ele>
        <time>2021-10-24T08:47:11Z</time>
      </trkpt>
      <trkpt lat="44.1585" lon="4.53393">
        <ele>129.4</ele>
        <time>2021-10-24T08:47:12Z</time>
      </trkpt>
      <trkpt lat="44.15847" lon="4.53385">
        <ele>129.6</ele>
        <time>2021-10-24T08:47:13Z</time>
      </trkpt>
      <trkpt lat="44.15844" lon="4.53377">
        <ele>129.6</ele>
        <time>2021-10-24T08:47:14Z</time>
      </trkpt>
      <trkpt lat="44.15841" lon="4.53368">
        <ele>129.6</ele>
        <time>2021-10-24T08:47:15Z</time>
      </trkpt>
      <trkpt lat="44.15838" lon="4.5336">
        <ele>129.8</ele>
        <time>2021-10-24T08:47:16Z</time>
      </trkpt>
      <trkpt lat="44.15834" lon="4.53352">
        <ele>130</ele>
        <time>2021-10-24T08:47:17Z</time>
      </trkpt>
      <trkpt lat="44.15831" lon="4.53343">
        <ele>130.2</ele>
        <time>2021-10-24T08:47:18Z</time>
      </trkpt>
      <trkpt lat="44.15828" lon="4.53335">
        <ele>130.2</ele>
        <time>2021-10-24T08:47:19Z</time>
      </trkpt>
      <trkpt lat="44.15825" lon="4.53325">
        <ele>130.4</ele>
        <time>2021-10-24T08:47:20Z</time>
      </trkpt>
      <trkpt lat="44.15823" lon="4.53316">
        <ele>130.8</ele>
        <time>2021-10-24T08:47:21Z</time>
      </trkpt>
      <trkpt lat="44.15821" lon="4.53306">
        <ele>130.8</ele>
        <time>2021-10-24T08:47:22Z</time>
      </trkpt>
      <trkpt lat="44.15819" lon="4.53297">
        <ele>131</ele>
        <time>2021-10-24T08:47:23Z</time>
      </trkpt>
      <trkpt lat="44.15817" lon="4.53287">
        <ele>130.8</ele>
        <time>2021-10-24T08:47:24Z</time>
      </trkpt>
      <trkpt lat="44.15816" lon="4.53278">
        <ele>131.2</ele>
        <time>2021-10-24T08:47:25Z</time>
      </trkpt>
      <trkpt lat="44.15813" lon="4.53272">
        <ele>131.4</ele>
        <time>2021-10-24T08:47:26Z</time>
      </trkpt>
      <trkpt lat="44.15809" lon="4.53268">
        <ele>131.4</ele>
        <time>2021-10-24T08:47:27Z</time>
      </trkpt>
      <trkpt lat="44.15805" lon="4.53268">
        <ele>131.4</ele>
        <time>2021-10-24T08:47:28Z</time>
      </trkpt>
      <trkpt lat="44.158" lon="4.53271">
        <ele>131.6</ele>
        <time>2021-10-24T08:47:29Z</time>
      </trkpt>
      <trkpt lat="44.15797" lon="4.53276">
        <ele>131.4</ele>
        <time>2021-10-24T08:47:30Z</time>
      </trkpt>
      <trkpt lat="44.15795" lon="4.5328">
        <ele>131.4</ele>
        <time>2021-10-24T08:47:31Z</time>
      </trkpt>
      <trkpt lat="44.15793" lon="4.53286">
        <ele>131.4</ele>
        <time>2021-10-24T08:47:32Z</time>
      </trkpt>
      <trkpt lat="44.15792" lon="4.53292">
        <ele>131.6</ele>
        <time>2021-10-24T08:47:33Z</time>
      </trkpt>
      <trkpt lat="44.15792" lon="4.53297">
        <ele>131.8</ele>
        <time>2021-10-24T08:47:34Z</time>
      </trkpt>
      <trkpt lat="44.15794" lon="4.53303">
        <ele>132</ele>
        <time>2021-10-24T08:47:35Z</time>
      </trkpt>
      <trkpt lat="44.15796" lon="4.53309">
        <ele>132.2</ele>
        <time>2021-10-24T08:47:36Z</time>
      </trkpt>
      <trkpt lat="44.15799" lon="4.53315">
        <ele>132.2</ele>
        <time>2021-10-24T08:47:37Z</time>
      </trkpt>
      <trkpt lat="44.15801" lon="4.53321">
        <ele>132.4</ele>
        <time>2021-10-24T08:47:38Z</time>
      </trkpt>
      <trkpt lat="44.15803" lon="4.53327">
        <ele>132.6</ele>
        <time>2021-10-24T08:47:39Z</time>
      </trkpt>
      <trkpt lat="44.15805" lon="4.53334">
        <ele>133</ele>
        <time>2021-10-24T08:47:40Z</time>
      </trkpt>
      <trkpt lat="44.15808" lon="4.5334">
        <ele>133</ele>
        <time>2021-10-24T08:47:41Z</time>
      </trkpt>
      <trkpt lat="44.1581" lon="4.53346">
        <ele>133</ele>
        <time>2021-10-24T08:47:42Z</time>
      </trkpt>
      <trkpt lat="44.15812" lon="4.53353">
        <ele>133.2</ele>
        <time>2021-10-24T08:47:43Z</time>
      </trkpt>
      <trkpt lat="44.15814" lon="4.5336">
        <ele>133.6</ele>
        <time>2021-10-24T08:47:44Z</time>
      </trkpt>
      <trkpt lat="44.15815" lon="4.53367">
        <ele>133.8</ele>
        <time>2021-10-24T08:47:45Z</time>
      </trkpt>
      <trkpt lat="44.15816" lon="4.53375">
        <ele>134.2</ele>
        <time>2021-10-24T08:47:46Z</time>
      </trkpt>
      <trkpt lat="44.15816" lon="4.53382">
        <ele>134.2</ele>
        <time>2021-10-24T08:47:47Z</time>
      </trkpt>
      <trkpt lat="44.15816" lon="4.53389">
        <ele>134.4</ele>
        <time>2021-10-24T08:47:48Z</time>
      </trkpt>
      <trkpt lat="44.15815" lon="4.53396">
        <ele>134.6</ele>
        <time>2021-10-24T08:47:49Z</time>
      </trkpt>
      <trkpt lat="44.15814" lon="4.53403">
        <ele>135</ele>
        <time>2021-10-24T08:47:50Z</time>
      </trkpt>
      <trkpt lat="44.15813" lon="4.5341">
        <ele>135</ele>
        <time>2021-10-24T08:47:51Z</time>
      </trkpt>
      <trkpt lat="44.1581" lon="4.53416">
        <ele>135.4</ele>
        <time>2021-10-24T08:47:52Z</time>
      </trkpt>
      <trkpt lat="44.15808" lon="4.53422">
        <ele>135.6</ele>
        <time>2021-10-24T08:47:53Z</time>
      </trkpt>
      <trkpt lat="44.15805" lon="4.53428">
        <ele>135.8</ele>
        <time>2021-10-24T08:47:54Z</time>
      </trkpt>
      <trkpt lat="44.15802" lon="4.53433">
        <ele>136.2</ele>
        <time>2021-10-24T08:47:55Z</time>
      </trkpt>
      <trkpt lat="44.15798" lon="4.53438">
        <ele>136.4</ele>
        <time>2021-10-24T08:47:56Z</time>
      </trkpt>
      <trkpt lat="44.15795" lon="4.53442">
        <ele>136.6</ele>
        <time>2021-10-24T08:47:57Z</time>
      </trkpt>
      <trkpt lat="44.15791" lon="4.53445">
        <ele>137</ele>
        <time>2021-10-24T08:47:58Z</time>
      </trkpt>
      <trkpt lat="44.15787" lon="4.53449">
        <ele>137.4</ele>
        <time>2021-10-24T08:47:59Z</time>
      </trkpt>
      <trkpt lat="44.15783" lon="4.53451">
        <ele>137.6</ele>
        <time>2021-10-24T08:48:00Z</time>
      </trkpt>
      <trkpt lat="44.15779" lon="4.53454">
        <ele>138</ele>
        <time>2021-10-24T08:48:01Z</time>
      </trkpt>
      <trkpt lat="44.15776" lon="4.53456">
        <ele>138</ele>
        <time>2021-10-24T08:48:02Z</time>
      </trkpt>
      <trkpt lat="44.15772" lon="4.53458">
        <ele>138.2</ele>
        <time>2021-10-24T08:48:03Z</time>
      </trkpt>
      <trkpt lat="44.15768" lon="4.5346">
        <ele>138.4</ele>
        <time>2021-10-24T08:48:04Z</time>
      </trkpt>
      <trkpt lat="44.15764" lon="4.53463">
        <ele>138.6</ele>
        <time>2021-10-24T08:48:05Z</time>
      </trkpt>
      <trkpt lat="44.15761" lon="4.53465">
        <ele>138.8</ele>
        <time>2021-10-24T08:48:06Z</time>
      </trkpt>
      <trkpt lat="44.15757" lon="4.53467">
        <ele>139</ele>
        <time>2021-10-24T08:48:07Z</time>
      </trkpt>
      <trkpt lat="44.15753" lon="4.53469">
        <ele>139.4</ele>
        <time>2021-10-24T08:48:08Z</time>
      </trkpt>
      <trkpt lat="44.1575" lon="4.53471">
        <ele>139.6</ele>
        <time>2021-10-24T08:48:09Z</time>
      </trkpt>
      <trkpt lat="44.15746" lon="4.53472">
        <ele>140</ele>
        <time>2021-10-24T08:48:10Z</time>
      </trkpt>
      <trkpt lat="44.15742" lon="4.53472">
        <ele>140.2</ele>
        <time>2021-10-24T08:48:11Z</time>
      </trkpt>
      <trkpt lat="44.15738" lon="4.53472">
        <ele>140.6</ele>
        <time>2021-10-24T08:48:12Z</time>
      </trkpt>
      <trkpt lat="44.15734" lon="4.53473">
        <ele>140.8</ele>
        <time>2021-10-24T08:48:13Z</time>
      </trkpt>
      <trkpt lat="44.15729" lon="4.53472">
        <ele>141</ele>
        <time>2021-10-24T08:48:14Z</time>
      </trkpt>
      <trkpt lat="44.15725" lon="4.53472">
        <ele>141.4</ele>
        <time>2021-10-24T08:48:15Z</time>
      </trkpt>
      <trkpt lat="44.15721" lon="4.53472">
        <ele>141.8</ele>
        <time>2021-10-24T08:48:16Z</time>
      </trkpt>
      <trkpt lat="44.15717" lon="4.53471">
        <ele>142</ele>
        <time>2021-10-24T08:48:17Z</time>
      </trkpt>
      <trkpt lat="44.15713" lon="4.53471">
        <ele>142.2</ele>
        <time>2021-10-24T08:48:18Z</time>
      </trkpt>
      <trkpt lat="44.15709" lon="4.53471">
        <ele>142.6</ele>
        <time>2021-10-24T08:48:19Z</time>
      </trkpt>
      <trkpt lat="44.15705" lon="4.53471">
        <ele>143</ele>
        <time>2021-10-24T08:48:20Z</time>
      </trkpt>
      <trkpt lat="44.15701" lon="4.53471">
        <ele>143.4</ele>
        <time>2021-10-24T08:48:21Z</time>
      </trkpt>
      <trkpt lat="44.15697" lon="4.53471">
        <ele>143.8</ele>
        <time>2021-10-24T08:48:22Z</time>
      </trkpt>
      <trkpt lat="44.15693" lon="4.53471">
        <ele>144</ele>
        <time>2021-10-24T08:48:23Z</time>
      </trkpt>
      <trkpt lat="44.15689" lon="4.5347">
        <ele>144.4</ele>
        <time>2021-10-24T08:48:24Z</time>
      </trkpt>
      <trkpt lat="44.15685" lon="4.5347">
        <ele>144.6</ele>
        <time>2021-10-24T08:48:25Z</time>
      </trkpt>
      <trkpt lat="44.15681" lon="4.53469">
        <ele>144.8</ele>
        <time>2021-10-24T08:48:26Z</time>
      </trkpt>
      <trkpt lat="44.15677" lon="4.53468">
        <ele>145.4</ele>
        <time>2021-10-24T08:48:27Z</time>
      </trkpt>
      <trkpt lat="44.15673" lon="4.53467">
        <ele>145.6</ele>
        <time>2021-10-24T08:48:28Z</time>
      </trkpt>
      <trkpt lat="44.15669" lon="4.53464">
        <ele>146</ele>
        <time>2021-10-24T08:48:29Z</time>
      </trkpt>
      <trkpt lat="44.15665" lon="4.53462">
        <ele>146.2</ele>
        <time>2021-10-24T08:48:30Z</time>
      </trkpt>
      <trkpt lat="44.15662" lon="4.53459">
        <ele>146.4</ele>
        <time>2021-10-24T08:48:31Z</time>
      </trkpt>
      <trkpt lat="44.15659" lon="4.53455">
        <ele>146.6</ele>
        <time>2021-10-24T08:48:32Z</time>
      </trkpt>
      <trkpt lat="44.15656" lon="4.53452">
        <ele>147</ele>
        <time>2021-10-24T08:48:33Z</time>
      </trkpt>
      <trkpt lat="44.15653" lon="4.53448">
        <ele>147.2</ele>
        <time>2021-10-24T08:48:34Z</time>
      </trkpt>
      <trkpt lat="44.15651" lon="4.53444">
        <ele>147.4</ele>
        <time>2021-10-24T08:48:35Z</time>
      </trkpt>
      <trkpt lat="44.15648" lon="4.53441">
        <ele>147.8</ele>
        <time>2021-10-24T08:48:36Z</time>
      </trkpt>
      <trkpt lat="44.15646" lon="4.53437">
        <ele>148.2</ele>
        <time>2021-10-24T08:48:37Z</time>
      </trkpt>
      <trkpt lat="44.15643" lon="4.53433">
        <ele>148.4</ele>
        <time>2021-10-24T08:48:38Z</time>
      </trkpt>
      <trkpt lat="44.1564" lon="4.53429">
        <ele>148.6</ele>
        <time>2021-10-24T08:48:39Z</time>
      </trkpt>
      <trkpt lat="44.15637" lon="4.53425">
        <ele>148.8</ele>
        <time>2021-10-24T08:48:40Z</time>
      </trkpt>
      <trkpt lat="44.15633" lon="4.53421">
        <ele>149.2</ele>
        <time>2021-10-24T08:48:41Z</time>
      </trkpt>
      <trkpt lat="44.15629" lon="4.53418">
        <ele>149.6</ele>
        <time>2021-10-24T08:48:42Z</time>
      </trkpt>
      <trkpt lat="44.15625" lon="4.53416">
        <ele>150</ele>
        <time>2021-10-24T08:48:43Z</time>
      </trkpt>
      <trkpt lat="44.15621" lon="4.53416">
        <ele>150.2</ele>
        <time>2021-10-24T08:48:44Z</time>
      </trkpt>
      <trkpt lat="44.15616" lon="4.53416">
        <ele>150.4</ele>
        <time>2021-10-24T08:48:45Z</time>
      </trkpt>
      <trkpt lat="44.15612" lon="4.53417">
        <ele>150.6</ele>
        <time>2021-10-24T08:48:46Z</time>
      </trkpt>
      <trkpt lat="44.15608" lon="4.5342">
        <ele>150.8</ele>
        <time>2021-10-24T08:48:47Z</time>
      </trkpt>
      <trkpt lat="44.15605" lon="4.53424">
        <ele>151</ele>
        <time>2021-10-24T08:48:48Z</time>
      </trkpt>
      <trkpt lat="44.15602" lon="4.53428">
        <ele>151.4</ele>
        <time>2021-10-24T08:48:49Z</time>
      </trkpt>
      <trkpt lat="44.15599" lon="4.53434">
        <ele>151.6</ele>
        <time>2021-10-24T08:48:50Z</time>
      </trkpt>
      <trkpt lat="44.15598" lon="4.53439">
        <ele>152</ele>
        <time>2021-10-24T08:48:51Z</time>
      </trkpt>
      <trkpt lat="44.15599" lon="4.53445">
        <ele>152.2</ele>
        <time>2021-10-24T08:48:52Z</time>
      </trkpt>
      <trkpt lat="44.156" lon="4.53451">
        <ele>152.4</ele>
        <time>2021-10-24T08:48:53Z</time>
      </trkpt>
      <trkpt lat="44.15602" lon="4.53457">
        <ele>152.4</ele>
        <time>2021-10-24T08:48:54Z</time>
      </trkpt>
      <trkpt lat="44.15604" lon="4.53463">
        <ele>152.6</ele>
        <time>2021-10-24T08:48:55Z</time>
      </trkpt>
      <trkpt lat="44.15607" lon="4.53468">
        <ele>153</ele>
        <time>2021-10-24T08:48:56Z</time>
      </trkpt>
      <trkpt lat="44.15609" lon="4.53473">
        <ele>153.2</ele>
        <time>2021-10-24T08:48:57Z</time>
      </trkpt>
      <trkpt lat="44.15612" lon="4.53479">
        <ele>153.6</ele>
        <time>2021-10-24T08:48:58Z</time>
      </trkpt>
      <trkpt lat="44.15614" lon="4.53485">
        <ele>153.8</ele>
        <time>2021-10-24T08:48:59Z</time>
      </trkpt>
      <trkpt lat="44.15616" lon="4.53491">
        <ele>154.2</ele>
        <time>2021-10-24T08:49:00Z</time>
      </trkpt>
      <trkpt lat="44.15618" lon="4.53497">
        <ele>154.4</ele>
        <time>2021-10-24T08:49:01Z</time>
      </trkpt>
      <trkpt lat="44.15621" lon="4.53503">
        <ele>154.4</ele>
        <time>2021-10-24T08:49:02Z</time>
      </trkpt>
      <trkpt lat="44.15622" lon="4.53508">
        <ele>154.8</ele>
        <time>2021-10-24T08:49:03Z</time>
      </trkpt>
      <trkpt lat="44.15625" lon="4.53514">
        <ele>155</ele>
        <time>2021-10-24T08:49:04Z</time>
      </trkpt>
      <trkpt lat="44.15627" lon="4.5352">
        <ele>155.6</ele>
        <time>2021-10-24T08:49:05Z</time>
      </trkpt>
      <trkpt lat="44.15629" lon="4.53525">
        <ele>155.6</ele>
        <time>2021-10-24T08:49:06Z</time>
      </trkpt>
      <trkpt lat="44.15632" lon="4.5353">
        <ele>156</ele>
        <time>2021-10-24T08:49:07Z</time>
      </trkpt>
      <trkpt lat="44.15635" lon="4.53535">
        <ele>156</ele>
        <time>2021-10-24T08:49:08Z</time>
      </trkpt>
      <trkpt lat="44.15637" lon="4.53539">
        <ele>156.4</ele>
        <time>2021-10-24T08:49:09Z</time>
      </trkpt>
      <trkpt lat="44.1564" lon="4.53544">
        <ele>156.8</ele>
        <time>2021-10-24T08:49:10Z</time>
      </trkpt>
      <trkpt lat="44.15643" lon="4.53548">
        <ele>157</ele>
        <time>2021-10-24T08:49:11Z</time>
      </trkpt>
      <trkpt lat="44.15647" lon="4.53552">
        <ele>157.2</ele>
        <time>2021-10-24T08:49:12Z</time>
      </trkpt>
      <trkpt lat="44.1565" lon="4.53557">
        <ele>157.4</ele>
        <time>2021-10-24T08:49:13Z</time>
      </trkpt>
      <trkpt lat="44.15653" lon="4.53562">
        <ele>157.6</ele>
        <time>2021-10-24T08:49:14Z</time>
      </trkpt>
      <trkpt lat="44.15656" lon="4.53566">
        <ele>157.8</ele>
        <time>2021-10-24T08:49:15Z</time>
      </trkpt>
      <trkpt lat="44.1566" lon="4.53571">
        <ele>158</ele>
        <time>2021-10-24T08:49:16Z</time>
      </trkpt>
      <trkpt lat="44.15664" lon="4.53575">
        <ele>158.4</ele>
        <time>2021-10-24T08:49:17Z</time>
      </trkpt>
      <trkpt lat="44.15667" lon="4.5358">
        <ele>158.2</ele>
        <time>2021-10-24T08:49:18Z</time>
      </trkpt>
      <trkpt lat="44.15671" lon="4.53584">
        <ele>158.4</ele>
        <time>2021-10-24T08:49:19Z</time>
      </trkpt>
      <trkpt lat="44.15674" lon="4.53588">
        <ele>158.8</ele>
        <time>2021-10-24T08:49:20Z</time>
      </trkpt>
      <trkpt lat="44.15678" lon="4.53593">
        <ele>159.2</ele>
        <time>2021-10-24T08:49:21Z</time>
      </trkpt>
      <trkpt lat="44.15681" lon="4.53597">
        <ele>159.4</ele>
        <time>2021-10-24T08:49:22Z</time>
      </trkpt>
      <trkpt lat="44.15684" lon="4.53601">
        <ele>159.6</ele>
        <time>2021-10-24T08:49:23Z</time>
      </trkpt>
      <trkpt lat="44.15687" lon="4.53605">
        <ele>159.6</ele>
        <time>2021-10-24T08:49:24Z</time>
      </trkpt>
      <trkpt lat="44.1569" lon="4.53609">
        <ele>159.6</ele>
        <time>2021-10-24T08:49:25Z</time>
      </trkpt>
      <trkpt lat="44.15693" lon="4.53614">
        <ele>159.8</ele>
        <time>2021-10-24T08:49:26Z</time>
      </trkpt>
      <trkpt lat="44.15696" lon="4.53618">
        <ele>160.2</ele>
        <time>2021-10-24T08:49:27Z</time>
      </trkpt>
      <trkpt lat="44.15699" lon="4.53623">
        <ele>160.4</ele>
        <time>2021-10-24T08:49:28Z</time>
      </trkpt>
      <trkpt lat="44.15701" lon="4.53628">
        <ele>160.6</ele>
        <time>2021-10-24T08:49:29Z</time>
      </trkpt>
      <trkpt lat="44.15703" lon="4.53634">
        <ele>160.6</ele>
        <time>2021-10-24T08:49:30Z</time>
      </trkpt>
      <trkpt lat="44.15703" lon="4.5364">
        <ele>161</ele>
        <time>2021-10-24T08:49:31Z</time>
      </trkpt>
      <trkpt lat="44.15702" lon="4.53647">
        <ele>161.2</ele>
        <time>2021-10-24T08:49:32Z</time>
      </trkpt>
      <trkpt lat="44.157" lon="4.53653">
        <ele>161.4</ele>
        <time>2021-10-24T08:49:33Z</time>
      </trkpt>
      <trkpt lat="44.15696" lon="4.53658">
        <ele>161.4</ele>
        <time>2021-10-24T08:49:34Z</time>
      </trkpt>
      <trkpt lat="44.15691" lon="4.53662">
        <ele>161.8</ele>
        <time>2021-10-24T08:49:35Z</time>
      </trkpt>
      <trkpt lat="44.15685" lon="4.53664">
        <ele>162</ele>
        <time>2021-10-24T08:49:36Z</time>
      </trkpt>
      <trkpt lat="44.15679" lon="4.53665">
        <ele>162</ele>
        <time>2021-10-24T08:49:37Z</time>
      </trkpt>
      <trkpt lat="44.15672" lon="4.53666">
        <ele>162.2</ele>
        <time>2021-10-24T08:49:38Z</time>
      </trkpt>
      <trkpt lat="44.15666" lon="4.53666">
        <ele>162.4</ele>
        <time>2021-10-24T08:49:39Z</time>
      </trkpt>
      <trkpt lat="44.1566" lon="4.53667">
        <ele>162.4</ele>
        <time>2021-10-24T08:49:40Z</time>
      </trkpt>
      <trkpt lat="44.15654" lon="4.53667">
        <ele>162.4</ele>
        <time>2021-10-24T08:49:41Z</time>
      </trkpt>
      <trkpt lat="44.15647" lon="4.53668">
        <ele>162.6</ele>
        <time>2021-10-24T08:49:42Z</time>
      </trkpt>
      <trkpt lat="44.15641" lon="4.53668">
        <ele>162.4</ele>
        <time>2021-10-24T08:49:43Z</time>
      </trkpt>
      <trkpt lat="44.15634" lon="4.53668">
        <ele>162.4</ele>
        <time>2021-10-24T08:49:44Z</time>
      </trkpt>
      <trkpt lat="44.15627" lon="4.53668">
        <ele>162.6</ele>
        <time>2021-10-24T08:49:45Z</time>
      </trkpt>
      <trkpt lat="44.15621" lon="4.53668">
        <ele>162.8</ele>
        <time>2021-10-24T08:49:46Z</time>
      </trkpt>
      <trkpt lat="44.15614" lon="4.53668">
        <ele>162.8</ele>
        <time>2021-10-24T08:49:47Z</time>
      </trkpt>
      <trkpt lat="44.15607" lon="4.53667">
        <ele>163.2</ele>
        <time>2021-10-24T08:49:48Z</time>
      </trkpt>
      <trkpt lat="44.156" lon="4.53667">
        <ele>163.4</ele>
        <time>2021-10-24T08:49:49Z</time>
      </trkpt>
      <trkpt lat="44.15594" lon="4.53667">
        <ele>163.6</ele>
        <time>2021-10-24T08:49:50Z</time>
      </trkpt>
      <trkpt lat="44.15587" lon="4.53666">
        <ele>163.8</ele>
        <time>2021-10-24T08:49:51Z</time>
      </trkpt>
      <trkpt lat="44.1558" lon="4.53666">
        <ele>163.8</ele>
        <time>2021-10-24T08:49:52Z</time>
      </trkpt>
      <trkpt lat="44.15574" lon="4.53666">
        <ele>164</ele>
        <time>2021-10-24T08:49:53Z</time>
      </trkpt>
      <trkpt lat="44.15567" lon="4.53665">
        <ele>164</ele>
        <time>2021-10-24T08:49:54Z</time>
      </trkpt>
      <trkpt lat="44.1556" lon="4.53665">
        <ele>164.2</ele>
        <time>2021-10-24T08:49:55Z</time>
      </trkpt>
      <trkpt lat="44.15554" lon="4.53664">
        <ele>164.4</ele>
        <time>2021-10-24T08:49:56Z</time>
      </trkpt>
      <trkpt lat="44.15547" lon="4.53664">
        <ele>164.4</ele>
        <time>2021-10-24T08:49:57Z</time>
      </trkpt>
      <trkpt lat="44.1554" lon="4.53663">
        <ele>164.4</ele>
        <time>2021-10-24T08:49:58Z</time>
      </trkpt>
      <trkpt lat="44.15534" lon="4.53662">
        <ele>164.2</ele>
        <time>2021-10-24T08:49:59Z</time>
      </trkpt>
      <trkpt lat="44.15528" lon="4.53661">
        <ele>164.2</ele>
        <time>2021-10-24T08:50:00Z</time>
      </trkpt>
      <trkpt lat="44.15521" lon="4.5366">
        <ele>164.4</ele>
        <time>2021-10-24T08:50:01Z</time>
      </trkpt>
      <trkpt lat="44.15515" lon="4.53659">
        <ele>164.6</ele>
        <time>2021-10-24T08:50:02Z</time>
      </trkpt>
      <trkpt lat="44.15509" lon="4.53658">
        <ele>164.6</ele>
        <time>2021-10-24T08:50:03Z</time>
      </trkpt>
      <trkpt lat="44.15503" lon="4.53657">
        <ele>164.8</ele>
        <time>2021-10-24T08:50:04Z</time>
      </trkpt>
      <trkpt lat="44.15497" lon="4.53656">
        <ele>164.8</ele>
        <time>2021-10-24T08:50:05Z</time>
      </trkpt>
      <trkpt lat="44.15491" lon="4.53655">
        <ele>165</ele>
        <time>2021-10-24T08:50:06Z</time>
      </trkpt>
      <trkpt lat="44.15485" lon="4.53654">
        <ele>165</ele>
        <time>2021-10-24T08:50:07Z</time>
      </trkpt>
      <trkpt lat="44.1548" lon="4.53652">
        <ele>165.4</ele>
        <time>2021-10-24T08:50:08Z</time>
      </trkpt>
      <trkpt lat="44.15474" lon="4.53651">
        <ele>165.6</ele>
        <time>2021-10-24T08:50:09Z</time>
      </trkpt>
      <trkpt lat="44.15468" lon="4.5365">
        <ele>166</ele>
        <time>2021-10-24T08:50:10Z</time>
      </trkpt>
      <trkpt lat="44.15462" lon="4.53649">
        <ele>166.2</ele>
        <time>2021-10-24T08:50:11Z</time>
      </trkpt>
      <trkpt lat="44.15456" lon="4.53648">
        <ele>166.6</ele>
        <time>2021-10-24T08:50:12Z</time>
      </trkpt>
      <trkpt lat="44.15451" lon="4.53647">
        <ele>166.8</ele>
        <time>2021-10-24T08:50:13Z</time>
      </trkpt>
      <trkpt lat="44.15445" lon="4.53647">
        <ele>167</ele>
        <time>2021-10-24T08:50:14Z</time>
      </trkpt>
      <trkpt lat="44.15439" lon="4.53646">
        <ele>167.4</ele>
        <time>2021-10-24T08:50:15Z</time>
      </trkpt>
      <trkpt lat="44.15434" lon="4.53646">
        <ele>167.8</ele>
        <time>2021-10-24T08:50:16Z</time>
      </trkpt>
      <trkpt lat="44.15428" lon="4.53646">
        <ele>168</ele>
        <time>2021-10-24T08:50:17Z</time>
      </trkpt>
      <trkpt lat="44.15422" lon="4.53646">
        <ele>168.4</ele>
        <time>2021-10-24T08:50:18Z</time>
      </trkpt>
      <trkpt lat="44.15416" lon="4.53646">
        <ele>168.4</ele>
        <time>2021-10-24T08:50:19Z</time>
      </trkpt>
      <trkpt lat="44.15411" lon="4.53647">
        <ele>168.6</ele>
        <time>2021-10-24T08:50:20Z</time>
      </trkpt>
      <trkpt lat="44.15405" lon="4.53647">
        <ele>168.8</ele>
        <time>2021-10-24T08:50:21Z</time>
      </trkpt>
      <trkpt lat="44.15399" lon="4.53647">
        <ele>169</ele>
        <time>2021-10-24T08:50:22Z</time>
      </trkpt>
      <trkpt lat="44.15393" lon="4.53647">
        <ele>169</ele>
        <time>2021-10-24T08:50:23Z</time>
      </trkpt>
      <trkpt lat="44.15388" lon="4.53647">
        <ele>169.2</ele>
        <time>2021-10-24T08:50:24Z</time>
      </trkpt>
      <trkpt lat="44.15382" lon="4.53648">
        <ele>169.6</ele>
        <time>2021-10-24T08:50:25Z</time>
      </trkpt>
      <trkpt lat="44.15376" lon="4.53648">
        <ele>169.8</ele>
        <time>2021-10-24T08:50:26Z</time>
      </trkpt>
      <trkpt lat="44.15371" lon="4.53648">
        <ele>170.2</ele>
        <time>2021-10-24T08:50:27Z</time>
      </trkpt>
      <trkpt lat="44.15365" lon="4.53649">
        <ele>170.4</ele>
        <time>2021-10-24T08:50:28Z</time>
      </trkpt>
      <trkpt lat="44.1536" lon="4.53649">
        <ele>170.6</ele>
        <time>2021-10-24T08:50:29Z</time>
      </trkpt>
      <trkpt lat="44.15354" lon="4.53649">
        <ele>170.6</ele>
        <time>2021-10-24T08:50:30Z</time>
      </trkpt>
      <trkpt lat="44.15349" lon="4.53649">
        <ele>170.8</ele>
        <time>2021-10-24T08:50:31Z</time>
      </trkpt>
      <trkpt lat="44.15344" lon="4.53649">
        <ele>171</ele>
        <time>2021-10-24T08:50:32Z</time>
      </trkpt>
      <trkpt lat="44.15338" lon="4.53649">
        <ele>171.2</ele>
        <time>2021-10-24T08:50:33Z</time>
      </trkpt>
      <trkpt lat="44.15333" lon="4.5365">
        <ele>171.4</ele>
        <time>2021-10-24T08:50:34Z</time>
      </trkpt>
      <trkpt lat="44.15327" lon="4.5365">
        <ele>171.8</ele>
        <time>2021-10-24T08:50:35Z</time>
      </trkpt>
      <trkpt lat="44.15322" lon="4.5365">
        <ele>171.8</ele>
        <time>2021-10-24T08:50:36Z</time>
      </trkpt>
      <trkpt lat="44.15316" lon="4.5365">
        <ele>172.2</ele>
        <time>2021-10-24T08:50:37Z</time>
      </trkpt>
      <trkpt lat="44.15311" lon="4.5365">
        <ele>172.6</ele>
        <time>2021-10-24T08:50:38Z</time>
      </trkpt>
      <trkpt lat="44.15305" lon="4.5365">
        <ele>173</ele>
        <time>2021-10-24T08:50:39Z</time>
      </trkpt>
      <trkpt lat="44.153" lon="4.53651">
        <ele>173.4</ele>
        <time>2021-10-24T08:50:40Z</time>
      </trkpt>
      <trkpt lat="44.15294" lon="4.53651">
        <ele>173.2</ele>
        <time>2021-10-24T08:50:41Z</time>
      </trkpt>
      <trkpt lat="44.15289" lon="4.53652">
        <ele>173.6</ele>
        <time>2021-10-24T08:50:42Z</time>
      </trkpt>
      <trkpt lat="44.15284" lon="4.53654">
        <ele>173.6</ele>
        <time>2021-10-24T08:50:43Z</time>
      </trkpt>
      <trkpt lat="44.15279" lon="4.53658">
        <ele>173.6</ele>
        <time>2021-10-24T08:50:44Z</time>
      </trkpt>
      <trkpt lat="44.15275" lon="4.53664">
        <ele>173.6</ele>
        <time>2021-10-24T08:50:45Z</time>
      </trkpt>
      <trkpt lat="44.15272" lon="4.5367">
        <ele>173.8</ele>
        <time>2021-10-24T08:50:46Z</time>
      </trkpt>
      <trkpt lat="44.1527" lon="4.53677">
        <ele>174</ele>
        <time>2021-10-24T08:50:47Z</time>
      </trkpt>
      <trkpt lat="44.15268" lon="4.53684">
        <ele>174.2</ele>
        <time>2021-10-24T08:50:48Z</time>
      </trkpt>
      <trkpt lat="44.15266" lon="4.53691">
        <ele>174.2</ele>
        <time>2021-10-24T08:50:49Z</time>
      </trkpt>
      <trkpt lat="44.15263" lon="4.53698">
        <ele>174.4</ele>
        <time>2021-10-24T08:50:50Z</time>
      </trkpt>
      <trkpt lat="44.15261" lon="4.53703">
        <ele>174.6</ele>
        <time>2021-10-24T08:50:51Z</time>
      </trkpt>
      <trkpt lat="44.15257" lon="4.53708">
        <ele>174.8</ele>
        <time>2021-10-24T08:50:52Z</time>
      </trkpt>
      <trkpt lat="44.15253" lon="4.53711">
        <ele>175.2</ele>
        <time>2021-10-24T08:50:53Z</time>
      </trkpt>
      <trkpt lat="44.15248" lon="4.53713">
        <ele>175.4</ele>
        <time>2021-10-24T08:50:54Z</time>
      </trkpt>
      <trkpt lat="44.15244" lon="4.53715">
        <ele>175.8</ele>
        <time>2021-10-24T08:50:55Z</time>
      </trkpt>
      <trkpt lat="44.15239" lon="4.53716">
        <ele>176.2</ele>
        <time>2021-10-24T08:50:56Z</time>
      </trkpt>
      <trkpt lat="44.15235" lon="4.53717">
        <ele>176.4</ele>
        <time>2021-10-24T08:50:57Z</time>
      </trkpt>
      <trkpt lat="44.1523" lon="4.53718">
        <ele>176.6</ele>
        <time>2021-10-24T08:50:58Z</time>
      </trkpt>
      <trkpt lat="44.15226" lon="4.53719">
        <ele>177</ele>
        <time>2021-10-24T08:50:59Z</time>
      </trkpt>
      <trkpt lat="44.15221" lon="4.5372">
        <ele>177.4</ele>
        <time>2021-10-24T08:51:00Z</time>
      </trkpt>
      <trkpt lat="44.15216" lon="4.5372">
        <ele>177.6</ele>
        <time>2021-10-24T08:51:01Z</time>
      </trkpt>
      <trkpt lat="44.15211" lon="4.53721">
        <ele>178</ele>
        <time>2021-10-24T08:51:02Z</time>
      </trkpt>
      <trkpt lat="44.15207" lon="4.53722">
        <ele>178.2</ele>
        <time>2021-10-24T08:51:03Z</time>
      </trkpt>
      <trkpt lat="44.15202" lon="4.53723">
        <ele>178.6</ele>
        <time>2021-10-24T08:51:04Z</time>
      </trkpt>
      <trkpt lat="44.15197" lon="4.53724">
        <ele>179</ele>
        <time>2021-10-24T08:51:05Z</time>
      </trkpt>
      <trkpt lat="44.15192" lon="4.53725">
        <ele>179.2</ele>
        <time>2021-10-24T08:51:06Z</time>
      </trkpt>
      <trkpt lat="44.15187" lon="4.53726">
        <ele>179.4</ele>
        <time>2021-10-24T08:51:07Z</time>
      </trkpt>
      <trkpt lat="44.15182" lon="4.53727">
        <ele>179.6</ele>
        <time>2021-10-24T08:51:08Z</time>
      </trkpt>
      <trkpt lat="44.15178" lon="4.53729">
        <ele>180</ele>
        <time>2021-10-24T08:51:09Z</time>
      </trkpt>
      <trkpt lat="44.15173" lon="4.5373">
        <ele>180.6</ele>
        <time>2021-10-24T08:51:10Z</time>
      </trkpt>
      <trkpt lat="44.15168" lon="4.53731">
        <ele>181.4</ele>
        <time>2021-10-24T08:51:11Z</time>
      </trkpt>
      <trkpt lat="44.15163" lon="4.53731">
        <ele>181.6</ele>
        <time>2021-10-24T08:51:12Z</time>
      </trkpt>
      <trkpt lat="44.15158" lon="4.53732">
        <ele>181.8</ele>
        <time>2021-10-24T08:51:13Z</time>
      </trkpt>
      <trkpt lat="44.15154" lon="4.53733">
        <ele>182</ele>
        <time>2021-10-24T08:51:14Z</time>
      </trkpt>
      <trkpt lat="44.15149" lon="4.53734">
        <ele>182</ele>
        <time>2021-10-24T08:51:15Z</time>
      </trkpt>
      <trkpt lat="44.15144" lon="4.53735">
        <ele>182.2</ele>
        <time>2021-10-24T08:51:16Z</time>
      </trkpt>
      <trkpt lat="44.1514" lon="4.53736">
        <ele>182.4</ele>
        <time>2021-10-24T08:51:17Z</time>
      </trkpt>
      <trkpt lat="44.15135" lon="4.53738">
        <ele>182.8</ele>
        <time>2021-10-24T08:51:18Z</time>
      </trkpt>
      <trkpt lat="44.1513" lon="4.53738">
        <ele>183.2</ele>
        <time>2021-10-24T08:51:19Z</time>
      </trkpt>
      <trkpt lat="44.15126" lon="4.53739">
        <ele>183.2</ele>
        <time>2021-10-24T08:51:20Z</time>
      </trkpt>
      <trkpt lat="44.15121" lon="4.53739">
        <ele>183.4</ele>
        <time>2021-10-24T08:51:21Z</time>
      </trkpt>
      <trkpt lat="44.15116" lon="4.5374">
        <ele>183.6</ele>
        <time>2021-10-24T08:51:22Z</time>
      </trkpt>
      <trkpt lat="44.15112" lon="4.53742">
        <ele>183.8</ele>
        <time>2021-10-24T08:51:23Z</time>
      </trkpt>
      <trkpt lat="44.15107" lon="4.53743">
        <ele>184.4</ele>
        <time>2021-10-24T08:51:24Z</time>
      </trkpt>
      <trkpt lat="44.15102" lon="4.53744">
        <ele>184.6</ele>
        <time>2021-10-24T08:51:25Z</time>
      </trkpt>
      <trkpt lat="44.15097" lon="4.53745">
        <ele>184.8</ele>
        <time>2021-10-24T08:51:26Z</time>
      </trkpt>
      <trkpt lat="44.15092" lon="4.53745">
        <ele>185.2</ele>
        <time>2021-10-24T08:51:27Z</time>
      </trkpt>
      <trkpt lat="44.15087" lon="4.53746">
        <ele>185.4</ele>
        <time>2021-10-24T08:51:28Z</time>
      </trkpt>
      <trkpt lat="44.15082" lon="4.53748">
        <ele>185.4</ele>
        <time>2021-10-24T08:51:29Z</time>
      </trkpt>
      <trkpt lat="44.15077" lon="4.53749">
        <ele>185.6</ele>
        <time>2021-10-24T08:51:30Z</time>
      </trkpt>
      <trkpt lat="44.15072" lon="4.5375">
        <ele>185.8</ele>
        <time>2021-10-24T08:51:31Z</time>
      </trkpt>
      <trkpt lat="44.15067" lon="4.53751">
        <ele>186</ele>
        <time>2021-10-24T08:51:32Z</time>
      </trkpt>
      <trkpt lat="44.15061" lon="4.53753">
        <ele>186.2</ele>
        <time>2021-10-24T08:51:33Z</time>
      </trkpt>
      <trkpt lat="44.15056" lon="4.53754">
        <ele>186.2</ele>
        <time>2021-10-24T08:51:34Z</time>
      </trkpt>
      <trkpt lat="44.1505" lon="4.53754">
        <ele>186.4</ele>
        <time>2021-10-24T08:51:35Z</time>
      </trkpt>
      <trkpt lat="44.15045" lon="4.53753">
        <ele>186.4</ele>
        <time>2021-10-24T08:51:36Z</time>
      </trkpt>
      <trkpt lat="44.1504" lon="4.53752">
        <ele>186.6</ele>
        <time>2021-10-24T08:51:37Z</time>
      </trkpt>
      <trkpt lat="44.15034" lon="4.53749">
        <ele>186.8</ele>
        <time>2021-10-24T08:51:38Z</time>
      </trkpt>
      <trkpt lat="44.15029" lon="4.53746">
        <ele>187</ele>
        <time>2021-10-24T08:51:39Z</time>
      </trkpt>
      <trkpt lat="44.15023" lon="4.53743">
        <ele>187.2</ele>
        <time>2021-10-24T08:51:40Z</time>
      </trkpt>
      <trkpt lat="44.15018" lon="4.5374">
        <ele>187.6</ele>
        <time>2021-10-24T08:51:41Z</time>
      </trkpt>
      <trkpt lat="44.15012" lon="4.53737">
        <ele>187.6</ele>
        <time>2021-10-24T08:51:42Z</time>
      </trkpt>
      <trkpt lat="44.15006" lon="4.53734">
        <ele>187.8</ele>
        <time>2021-10-24T08:51:43Z</time>
      </trkpt>
      <trkpt lat="44.15" lon="4.53734">
        <ele>188</ele>
        <time>2021-10-24T08:51:44Z</time>
      </trkpt>
      <trkpt lat="44.14994" lon="4.53735">
        <ele>188.2</ele>
        <time>2021-10-24T08:51:45Z</time>
      </trkpt>
      <trkpt lat="44.14988" lon="4.53739">
        <ele>188.4</ele>
        <time>2021-10-24T08:51:46Z</time>
      </trkpt>
      <trkpt lat="44.14984" lon="4.53746">
        <ele>188.8</ele>
        <time>2021-10-24T08:51:47Z</time>
      </trkpt>
      <trkpt lat="44.14981" lon="4.53753">
        <ele>188.8</ele>
        <time>2021-10-24T08:51:48Z</time>
      </trkpt>
      <trkpt lat="44.14979" lon="4.53761">
        <ele>189.2</ele>
        <time>2021-10-24T08:51:49Z</time>
      </trkpt>
      <trkpt lat="44.14979" lon="4.53769">
        <ele>189.2</ele>
        <time>2021-10-24T08:51:50Z</time>
      </trkpt>
      <trkpt lat="44.1498" lon="4.53777">
        <ele>189.4</ele>
        <time>2021-10-24T08:51:51Z</time>
      </trkpt>
      <trkpt lat="44.14981" lon="4.53785">
        <ele>189.6</ele>
        <time>2021-10-24T08:51:52Z</time>
      </trkpt>
      <trkpt lat="44.14983" lon="4.53794">
        <ele>189.8</ele>
        <time>2021-10-24T08:51:53Z</time>
      </trkpt>
      <trkpt lat="44.14985" lon="4.53803">
        <ele>190.2</ele>
        <time>2021-10-24T08:51:54Z</time>
      </trkpt>
      <trkpt lat="44.14985" lon="4.53812">
        <ele>190.2</ele>
        <time>2021-10-24T08:51:55Z</time>
      </trkpt>
      <trkpt lat="44.14985" lon="4.53821">
        <ele>190.4</ele>
        <time>2021-10-24T08:51:56Z</time>
      </trkpt>
      <trkpt lat="44.14984" lon="4.5383">
        <ele>190.8</ele>
        <time>2021-10-24T08:51:57Z</time>
      </trkpt>
      <trkpt lat="44.14982" lon="4.53838">
        <ele>191</ele>
        <time>2021-10-24T08:51:58Z</time>
      </trkpt>
      <trkpt lat="44.14978" lon="4.53844">
        <ele>191.2</ele>
        <time>2021-10-24T08:51:59Z</time>
      </trkpt>
      <trkpt lat="44.14974" lon="4.53851">
        <ele>191.4</ele>
        <time>2021-10-24T08:52:00Z</time>
      </trkpt>
      <trkpt lat="44.1497" lon="4.53856">
        <ele>191.8</ele>
        <time>2021-10-24T08:52:01Z</time>
      </trkpt>
      <trkpt lat="44.14965" lon="4.53862">
        <ele>192</ele>
        <time>2021-10-24T08:52:02Z</time>
      </trkpt>
      <trkpt lat="44.14961" lon="4.53867">
        <ele>192.2</ele>
        <time>2021-10-24T08:52:03Z</time>
      </trkpt>
      <trkpt lat="44.14956" lon="4.53872">
        <ele>192.2</ele>
        <time>2021-10-24T08:52:04Z</time>
      </trkpt>
      <trkpt lat="44.14952" lon="4.53878">
        <ele>192.4</ele>
        <time>2021-10-24T08:52:05Z</time>
      </trkpt>
      <trkpt lat="44.14947" lon="4.53884">
        <ele>192.8</ele>
        <time>2021-10-24T08:52:06Z</time>
      </trkpt>
      <trkpt lat="44.14943" lon="4.5389">
        <ele>193</ele>
        <time>2021-10-24T08:52:07Z</time>
      </trkpt>
      <trkpt lat="44.14938" lon="4.53896">
        <ele>193</ele>
        <time>2021-10-24T08:52:08Z</time>
      </trkpt>
      <trkpt lat="44.14933" lon="4.53902">
        <ele>193.2</ele>
        <time>2021-10-24T08:52:09Z</time>
      </trkpt>
      <trkpt lat="44.14929" lon="4.53908">
        <ele>193.4</ele>
        <time>2021-10-24T08:52:10Z</time>
      </trkpt>
      <trkpt lat="44.14924" lon="4.53915">
        <ele>193.6</ele>
        <time>2021-10-24T08:52:11Z</time>
      </trkpt>
      <trkpt lat="44.1492" lon="4.53921">
        <ele>193.8</ele>
        <time>2021-10-24T08:52:12Z</time>
      </trkpt>
      <trkpt lat="44.14916" lon="4.53928">
        <ele>194</ele>
        <time>2021-10-24T08:52:13Z</time>
      </trkpt>
      <trkpt lat="44.14912" lon="4.53934">
        <ele>194.2</ele>
        <time>2021-10-24T08:52:14Z</time>
      </trkpt>
      <trkpt lat="44.14908" lon="4.53941">
        <ele>194.4</ele>
        <time>2021-10-24T08:52:15Z</time>
      </trkpt>
      <trkpt lat="44.14904" lon="4.53947">
        <ele>194.6</ele>
        <time>2021-10-24T08:52:16Z</time>
      </trkpt>
      <trkpt lat="44.149" lon="4.53953">
        <ele>194.8</ele>
        <time>2021-10-24T08:52:17Z</time>
      </trkpt>
      <trkpt lat="44.14897" lon="4.5396">
        <ele>195</ele>
        <time>2021-10-24T08:52:18Z</time>
      </trkpt>
      <trkpt lat="44.14893" lon="4.53966">
        <ele>195.2</ele>
        <time>2021-10-24T08:52:19Z</time>
      </trkpt>
      <trkpt lat="44.14889" lon="4.53972">
        <ele>195.4</ele>
        <time>2021-10-24T08:52:20Z</time>
      </trkpt>
      <trkpt lat="44.14886" lon="4.53978">
        <ele>195.6</ele>
        <time>2021-10-24T08:52:21Z</time>
      </trkpt>
      <trkpt lat="44.14882" lon="4.53983">
        <ele>195.8</ele>
        <time>2021-10-24T08:52:22Z</time>
      </trkpt>
      <trkpt lat="44.14879" lon="4.53989">
        <ele>196</ele>
        <time>2021-10-24T08:52:23Z</time>
      </trkpt>
      <trkpt lat="44.14876" lon="4.53994">
        <ele>196.4</ele>
        <time>2021-10-24T08:52:24Z</time>
      </trkpt>
      <trkpt lat="44.14872" lon="4.53999">
        <ele>196.6</ele>
        <time>2021-10-24T08:52:25Z</time>
      </trkpt>
      <trkpt lat="44.14868" lon="4.54003">
        <ele>196.6</ele>
        <time>2021-10-24T08:52:26Z</time>
      </trkpt>
      <trkpt lat="44.14864" lon="4.54008">
        <ele>197</ele>
        <time>2021-10-24T08:52:27Z</time>
      </trkpt>
      <trkpt lat="44.14861" lon="4.54013">
        <ele>197.4</ele>
        <time>2021-10-24T08:52:28Z</time>
      </trkpt>
      <trkpt lat="44.14857" lon="4.54018">
        <ele>197.4</ele>
        <time>2021-10-24T08:52:29Z</time>
      </trkpt>
      <trkpt lat="44.14854" lon="4.54022">
        <ele>197.6</ele>
        <time>2021-10-24T08:52:30Z</time>
      </trkpt>
      <trkpt lat="44.1485" lon="4.54028">
        <ele>198</ele>
        <time>2021-10-24T08:52:31Z</time>
      </trkpt>
      <trkpt lat="44.14847" lon="4.54033">
        <ele>198</ele>
        <time>2021-10-24T08:52:32Z</time>
      </trkpt>
      <trkpt lat="44.14845" lon="4.5404">
        <ele>198.4</ele>
        <time>2021-10-24T08:52:33Z</time>
      </trkpt>
      <trkpt lat="44.14844" lon="4.54047">
        <ele>198.4</ele>
        <time>2021-10-24T08:52:34Z</time>
      </trkpt>
      <trkpt lat="44.14844" lon="4.54054">
        <ele>198.6</ele>
        <time>2021-10-24T08:52:35Z</time>
      </trkpt>
      <trkpt lat="44.14846" lon="4.54061">
        <ele>198.6</ele>
        <time>2021-10-24T08:52:36Z</time>
      </trkpt>
      <trkpt lat="44.14848" lon="4.54068">
        <ele>198.6</ele>
        <time>2021-10-24T08:52:37Z</time>
      </trkpt>
      <trkpt lat="44.14851" lon="4.54073">
        <ele>199</ele>
        <time>2021-10-24T08:52:38Z</time>
      </trkpt>
      <trkpt lat="44.14854" lon="4.54079">
        <ele>199.4</ele>
        <time>2021-10-24T08:52:39Z</time>
      </trkpt>
      <trkpt lat="44.14857" lon="4.54085">
        <ele>199.4</ele>
        <time>2021-10-24T08:52:40Z</time>
      </trkpt>
      <trkpt lat="44.1486" lon="4.5409">
        <ele>199.6</ele>
        <time>2021-10-24T08:52:41Z</time>
      </trkpt>
      <trkpt lat="44.14864" lon="4.54096">
        <ele>199.8</ele>
        <time>2021-10-24T08:52:42Z</time>
      </trkpt>
      <trkpt lat="44.14867" lon="4.54101">
        <ele>200.2</ele>
        <time>2021-10-24T08:52:43Z</time>
      </trkpt>
      <trkpt lat="44.1487" lon="4.54107">
        <ele>200.4</ele>
        <time>2021-10-24T08:52:44Z</time>
      </trkpt>
      <trkpt lat="44.14874" lon="4.54113">
        <ele>200.6</ele>
        <time>2021-10-24T08:52:45Z</time>
      </trkpt>
      <trkpt lat="44.14877" lon="4.54118">
        <ele>200.8</ele>
        <time>2021-10-24T08:52:46Z</time>
      </trkpt>
      <trkpt lat="44.14879" lon="4.54125">
        <ele>201</ele>
        <time>2021-10-24T08:52:47Z</time>
      </trkpt>
      <trkpt lat="44.14881" lon="4.54131">
        <ele>201.2</ele>
        <time>2021-10-24T08:52:48Z</time>
      </trkpt>
      <trkpt lat="44.14883" lon="4.54138">
        <ele>201.6</ele>
        <time>2021-10-24T08:52:49Z</time>
      </trkpt>
      <trkpt lat="44.14885" lon="4.54145">
        <ele>201.8</ele>
        <time>2021-10-24T08:52:50Z</time>
      </trkpt>
      <trkpt lat="44.14886" lon="4.54152">
        <ele>202</ele>
        <time>2021-10-24T08:52:51Z</time>
      </trkpt>
      <trkpt lat="44.14887" lon="4.54159">
        <ele>202.2</ele>
        <time>2021-10-24T08:52:52Z</time>
      </trkpt>
      <trkpt lat="44.14889" lon="4.54166">
        <ele>202.4</ele>
        <time>2021-10-24T08:52:53Z</time>
      </trkpt>
      <trkpt lat="44.14889" lon="4.54173">
        <ele>202.4</ele>
        <time>2021-10-24T08:52:54Z</time>
      </trkpt>
      <trkpt lat="44.1489" lon="4.5418">
        <ele>202.8</ele>
        <time>2021-10-24T08:52:55Z</time>
      </trkpt>
      <trkpt lat="44.14892" lon="4.54187">
        <ele>203</ele>
        <time>2021-10-24T08:52:56Z</time>
      </trkpt>
      <trkpt lat="44.14893" lon="4.54194">
        <ele>203.2</ele>
        <time>2021-10-24T08:52:57Z</time>
      </trkpt>
      <trkpt lat="44.14893" lon="4.54201">
        <ele>203.2</ele>
        <time>2021-10-24T08:52:58Z</time>
      </trkpt>
      <trkpt lat="44.14894" lon="4.54208">
        <ele>203.6</ele>
        <time>2021-10-24T08:52:59Z</time>
      </trkpt>
      <trkpt lat="44.14895" lon="4.54215">
        <ele>203.8</ele>
        <time>2021-10-24T08:53:00Z</time>
      </trkpt>
      <trkpt lat="44.14896" lon="4.54221">
        <ele>204</ele>
        <time>2021-10-24T08:53:01Z</time>
      </trkpt>
      <trkpt lat="44.14897" lon="4.54229">
        <ele>204</ele>
        <time>2021-10-24T08:53:02Z</time>
      </trkpt>
      <trkpt lat="44.14899" lon="4.54236">
        <ele>204</ele>
        <time>2021-10-24T08:53:03Z</time>
      </trkpt>
      <trkpt lat="44.149" lon="4.54243">
        <ele>204.2</ele>
        <time>2021-10-24T08:53:04Z</time>
      </trkpt>
      <trkpt lat="44.14902" lon="4.5425">
        <ele>204.6</ele>
        <time>2021-10-24T08:53:05Z</time>
      </trkpt>
      <trkpt lat="44.14904" lon="4.54258">
        <ele>204.8</ele>
        <time>2021-10-24T08:53:06Z</time>
      </trkpt>
      <trkpt lat="44.14907" lon="4.54265">
        <ele>205.2</ele>
        <time>2021-10-24T08:53:07Z</time>
      </trkpt>
      <trkpt lat="44.1491" lon="4.54272">
        <ele>205.6</ele>
        <time>2021-10-24T08:53:08Z</time>
      </trkpt>
      <trkpt lat="44.14913" lon="4.54278">
        <ele>206</ele>
        <time>2021-10-24T08:53:09Z</time>
      </trkpt>
      <trkpt lat="44.14917" lon="4.54283">
        <ele>206.2</ele>
        <time>2021-10-24T08:53:10Z</time>
      </trkpt>
      <trkpt lat="44.1492" lon="4.54288">
        <ele>206.2</ele>
        <time>2021-10-24T08:53:11Z</time>
      </trkpt>
      <trkpt lat="44.14923" lon="4.54294">
        <ele>206.6</ele>
        <time>2021-10-24T08:53:12Z</time>
      </trkpt>
      <trkpt lat="44.14926" lon="4.54299">
        <ele>206.8</ele>
        <time>2021-10-24T08:53:13Z</time>
      </trkpt>
      <trkpt lat="44.14928" lon="4.54305">
        <ele>207</ele>
        <time>2021-10-24T08:53:14Z</time>
      </trkpt>
      <trkpt lat="44.14931" lon="4.54311">
        <ele>207.2</ele>
        <time>2021-10-24T08:53:15Z</time>
      </trkpt>
      <trkpt lat="44.14933" lon="4.54318">
        <ele>207.4</ele>
        <time>2021-10-24T08:53:16Z</time>
      </trkpt>
      <trkpt lat="44.14934" lon="4.54324">
        <ele>207.8</ele>
        <time>2021-10-24T08:53:17Z</time>
      </trkpt>
      <trkpt lat="44.14935" lon="4.54331">
        <ele>208</ele>
        <time>2021-10-24T08:53:18Z</time>
      </trkpt>
      <trkpt lat="44.14937" lon="4.54338">
        <ele>208.2</ele>
        <time>2021-10-24T08:53:19Z</time>
      </trkpt>
      <trkpt lat="44.14938" lon="4.54345">
        <ele>208.6</ele>
        <time>2021-10-24T08:53:20Z</time>
      </trkpt>
      <trkpt lat="44.14939" lon="4.54352">
        <ele>208.8</ele>
        <time>2021-10-24T08:53:21Z</time>
      </trkpt>
      <trkpt lat="44.1494" lon="4.54359">
        <ele>209.2</ele>
        <time>2021-10-24T08:53:22Z</time>
      </trkpt>
      <trkpt lat="44.1494" lon="4.54366">
        <ele>209.4</ele>
        <time>2021-10-24T08:53:23Z</time>
      </trkpt>
      <trkpt lat="44.14941" lon="4.54374">
        <ele>209.8</ele>
        <time>2021-10-24T08:53:24Z</time>
      </trkpt>
      <trkpt lat="44.14941" lon="4.54381">
        <ele>210</ele>
        <time>2021-10-24T08:53:25Z</time>
      </trkpt>
      <trkpt lat="44.14941" lon="4.54388">
        <ele>210</ele>
        <time>2021-10-24T08:53:26Z</time>
      </trkpt>
      <trkpt lat="44.14941" lon="4.54394">
        <ele>210.6</ele>
        <time>2021-10-24T08:53:27Z</time>
      </trkpt>
      <trkpt lat="44.14941" lon="4.54401">
        <ele>210.8</ele>
        <time>2021-10-24T08:53:28Z</time>
      </trkpt>
      <trkpt lat="44.1494" lon="4.54408">
        <ele>211.2</ele>
        <time>2021-10-24T08:53:29Z</time>
      </trkpt>
      <trkpt lat="44.1494" lon="4.54414">
        <ele>211.4</ele>
        <time>2021-10-24T08:53:30Z</time>
      </trkpt>
      <trkpt lat="44.14939" lon="4.54421">
        <ele>211.4</ele>
        <time>2021-10-24T08:53:31Z</time>
      </trkpt>
      <trkpt lat="44.14939" lon="4.54427">
        <ele>211.6</ele>
        <time>2021-10-24T08:53:32Z</time>
      </trkpt>
      <trkpt lat="44.14938" lon="4.54433">
        <ele>211.6</ele>
        <time>2021-10-24T08:53:33Z</time>
      </trkpt>
      <trkpt lat="44.14937" lon="4.54439">
        <ele>212.2</ele>
        <time>2021-10-24T08:53:34Z</time>
      </trkpt>
      <trkpt lat="44.14936" lon="4.54445">
        <ele>212.4</ele>
        <time>2021-10-24T08:53:35Z</time>
      </trkpt>
      <trkpt lat="44.14934" lon="4.54451">
        <ele>212.8</ele>
        <time>2021-10-24T08:53:36Z</time>
      </trkpt>
      <trkpt lat="44.14933" lon="4.54458">
        <ele>213</ele>
        <time>2021-10-24T08:53:37Z</time>
      </trkpt>
      <trkpt lat="44.14931" lon="4.54464">
        <ele>213.6</ele>
        <time>2021-10-24T08:53:38Z</time>
      </trkpt>
      <trkpt lat="44.14929" lon="4.5447">
        <ele>213.8</ele>
        <time>2021-10-24T08:53:39Z</time>
      </trkpt>
      <trkpt lat="44.14927" lon="4.54476">
        <ele>214</ele>
        <time>2021-10-24T08:53:40Z</time>
      </trkpt>
      <trkpt lat="44.14924" lon="4.54482">
        <ele>214.4</ele>
        <time>2021-10-24T08:53:41Z</time>
      </trkpt>
      <trkpt lat="44.14922" lon="4.54488">
        <ele>214.6</ele>
        <time>2021-10-24T08:53:42Z</time>
      </trkpt>
      <trkpt lat="44.14919" lon="4.54494">
        <ele>214.8</ele>
        <time>2021-10-24T08:53:43Z</time>
      </trkpt>
      <trkpt lat="44.14917" lon="4.54499">
        <ele>215</ele>
        <time>2021-10-24T08:53:44Z</time>
      </trkpt>
      <trkpt lat="44.14914" lon="4.54505">
        <ele>215.2</ele>
        <time>2021-10-24T08:53:45Z</time>
      </trkpt>
      <trkpt lat="44.14911" lon="4.54511">
        <ele>215.2</ele>
        <time>2021-10-24T08:53:46Z</time>
      </trkpt>
      <trkpt lat="44.14907" lon="4.54516">
        <ele>215.2</ele>
        <time>2021-10-24T08:53:47Z</time>
      </trkpt>
      <trkpt lat="44.14904" lon="4.54521">
        <ele>215.4</ele>
        <time>2021-10-24T08:53:48Z</time>
      </trkpt>
      <trkpt lat="44.149" lon="4.54526">
        <ele>215.6</ele>
        <time>2021-10-24T08:53:49Z</time>
      </trkpt>
      <trkpt lat="44.14896" lon="4.54531">
        <ele>215.6</ele>
        <time>2021-10-24T08:53:50Z</time>
      </trkpt>
      <trkpt lat="44.14892" lon="4.54536">
        <ele>215.6</ele>
        <time>2021-10-24T08:53:51Z</time>
      </trkpt>
      <trkpt lat="44.14888" lon="4.54541">
        <ele>215.8</ele>
        <time>2021-10-24T08:53:52Z</time>
      </trkpt>
      <trkpt lat="44.14884" lon="4.54546">
        <ele>215.8</ele>
        <time>2021-10-24T08:53:53Z</time>
      </trkpt>
      <trkpt lat="44.1488" lon="4.54551">
        <ele>215.8</ele>
        <time>2021-10-24T08:53:54Z</time>
      </trkpt>
      <trkpt lat="44.14876" lon="4.54556">
        <ele>215.6</ele>
        <time>2021-10-24T08:53:55Z</time>
      </trkpt>
      <trkpt lat="44.14872" lon="4.54561">
        <ele>215.8</ele>
        <time>2021-10-24T08:53:56Z</time>
      </trkpt>
      <trkpt lat="44.14868" lon="4.54565">
        <ele>216.6</ele>
        <time>2021-10-24T08:53:57Z</time>
      </trkpt>
      <trkpt lat="44.14863" lon="4.54569">
        <ele>216.4</ele>
        <time>2021-10-24T08:53:58Z</time>
      </trkpt>
      <trkpt lat="44.14858" lon="4.54573">
        <ele>216.8</ele>
        <time>2021-10-24T08:53:59Z</time>
      </trkpt>
      <trkpt lat="44.14853" lon="4.54576">
        <ele>216.8</ele>
        <time>2021-10-24T08:54:00Z</time>
      </trkpt>
      <trkpt lat="44.14848" lon="4.54579">
        <ele>217.2</ele>
        <time>2021-10-24T08:54:01Z</time>
      </trkpt>
      <trkpt lat="44.14843" lon="4.54582">
        <ele>217</ele>
        <time>2021-10-24T08:54:02Z</time>
      </trkpt>
      <trkpt lat="44.14838" lon="4.54585">
        <ele>217.2</ele>
        <time>2021-10-24T08:54:03Z</time>
      </trkpt>
      <trkpt lat="44.14833" lon="4.54587">
        <ele>217.2</ele>
        <time>2021-10-24T08:54:04Z</time>
      </trkpt>
      <trkpt lat="44.14828" lon="4.5459">
        <ele>217.2</ele>
        <time>2021-10-24T08:54:05Z</time>
      </trkpt>
      <trkpt lat="44.14823" lon="4.54592">
        <ele>217.6</ele>
        <time>2021-10-24T08:54:06Z</time>
      </trkpt>
      <trkpt lat="44.14817" lon="4.54594">
        <ele>218</ele>
        <time>2021-10-24T08:54:07Z</time>
      </trkpt>
      <trkpt lat="44.14812" lon="4.54596">
        <ele>218.4</ele>
        <time>2021-10-24T08:54:08Z</time>
      </trkpt>
      <trkpt lat="44.14806" lon="4.54597">
        <ele>218.4</ele>
        <time>2021-10-24T08:54:09Z</time>
      </trkpt>
      <trkpt lat="44.14801" lon="4.54598">
        <ele>218.6</ele>
        <time>2021-10-24T08:54:10Z</time>
      </trkpt>
      <trkpt lat="44.14795" lon="4.54599">
        <ele>218.6</ele>
        <time>2021-10-24T08:54:11Z</time>
      </trkpt>
      <trkpt lat="44.1479" lon="4.546">
        <ele>219</ele>
        <time>2021-10-24T08:54:12Z</time>
      </trkpt>
      <trkpt lat="44.14785" lon="4.54601">
        <ele>219.2</ele>
        <time>2021-10-24T08:54:13Z</time>
      </trkpt>
      <trkpt lat="44.14779" lon="4.54602">
        <ele>219.6</ele>
        <time>2021-10-24T08:54:14Z</time>
      </trkpt>
      <trkpt lat="44.14774" lon="4.54603">
        <ele>219.8</ele>
        <time>2021-10-24T08:54:15Z</time>
      </trkpt>
      <trkpt lat="44.14768" lon="4.54604">
        <ele>220.2</ele>
        <time>2021-10-24T08:54:16Z</time>
      </trkpt>
      <trkpt lat="44.14763" lon="4.54606">
        <ele>220.6</ele>
        <time>2021-10-24T08:54:17Z</time>
      </trkpt>
      <trkpt lat="44.14758" lon="4.54607">
        <ele>220.6</ele>
        <time>2021-10-24T08:54:18Z</time>
      </trkpt>
      <trkpt lat="44.14752" lon="4.54609">
        <ele>220.8</ele>
        <time>2021-10-24T08:54:19Z</time>
      </trkpt>
      <trkpt lat="44.14747" lon="4.54611">
        <ele>221</ele>
        <time>2021-10-24T08:54:20Z</time>
      </trkpt>
      <trkpt lat="44.14742" lon="4.54613">
        <ele>221.2</ele>
        <time>2021-10-24T08:54:21Z</time>
      </trkpt>
      <trkpt lat="44.14737" lon="4.54616">
        <ele>221.2</ele>
        <time>2021-10-24T08:54:22Z</time>
      </trkpt>
      <trkpt lat="44.14733" lon="4.54621">
        <ele>221.6</ele>
        <time>2021-10-24T08:54:23Z</time>
      </trkpt>
      <trkpt lat="44.1473" lon="4.54627">
        <ele>221.8</ele>
        <time>2021-10-24T08:54:24Z</time>
      </trkpt>
      <trkpt lat="44.14728" lon="4.54634">
        <ele>222</ele>
        <time>2021-10-24T08:54:25Z</time>
      </trkpt>
      <trkpt lat="44.14727" lon="4.54642">
        <ele>222.4</ele>
        <time>2021-10-24T08:54:26Z</time>
      </trkpt>
      <trkpt lat="44.14728" lon="4.5465">
        <ele>223</ele>
        <time>2021-10-24T08:54:27Z</time>
      </trkpt>
      <trkpt lat="44.1473" lon="4.54658">
        <ele>223.4</ele>
        <time>2021-10-24T08:54:28Z</time>
      </trkpt>
      <trkpt lat="44.14733" lon="4.54664">
        <ele>223.8</ele>
        <time>2021-10-24T08:54:29Z</time>
      </trkpt>
      <trkpt lat="44.14737" lon="4.5467">
        <ele>224</ele>
        <time>2021-10-24T08:54:30Z</time>
      </trkpt>
      <trkpt lat="44.14742" lon="4.54675">
        <ele>224.2</ele>
        <time>2021-10-24T08:54:31Z</time>
      </trkpt>
      <trkpt lat="44.14748" lon="4.54678">
        <ele>224.4</ele>
        <time>2021-10-24T08:54:32Z</time>
      </trkpt>
      <trkpt lat="44.14754" lon="4.54678">
        <ele>224.4</ele>
        <time>2021-10-24T08:54:33Z</time>
      </trkpt>
      <trkpt lat="44.14759" lon="4.54677">
        <ele>224.4</ele>
        <time>2021-10-24T08:54:34Z</time>
      </trkpt>
      <trkpt lat="44.14765" lon="4.54675">
        <ele>224.8</ele>
        <time>2021-10-24T08:54:35Z</time>
      </trkpt>
      <trkpt lat="44.14771" lon="4.54672">
        <ele>225</ele>
        <time>2021-10-24T08:54:36Z</time>
      </trkpt>
      <trkpt lat="44.14776" lon="4.54669">
        <ele>225.2</ele>
        <time>2021-10-24T08:54:37Z</time>
      </trkpt>
      <trkpt lat="44.14781" lon="4.54665">
        <ele>225.6</ele>
        <time>2021-10-24T08:54:38Z</time>
      </trkpt>
      <trkpt lat="44.14787" lon="4.54663">
        <ele>225.8</ele>
        <time>2021-10-24T08:54:39Z</time>
      </trkpt>
      <trkpt lat="44.14792" lon="4.54661">
        <ele>225.8</ele>
        <time>2021-10-24T08:54:40Z</time>
      </trkpt>
      <trkpt lat="44.14798" lon="4.54659">
        <ele>226.2</ele>
        <time>2021-10-24T08:54:41Z</time>
      </trkpt>
      <trkpt lat="44.14804" lon="4.54659">
        <ele>226.4</ele>
        <time>2021-10-24T08:54:42Z</time>
      </trkpt>
      <trkpt lat="44.14809" lon="4.54659">
        <ele>226.8</ele>
        <time>2021-10-24T08:54:43Z</time>
      </trkpt>
      <trkpt lat="44.14815" lon="4.5466">
        <ele>227</ele>
        <time>2021-10-24T08:54:44Z</time>
      </trkpt>
      <trkpt lat="44.14821" lon="4.54661">
        <ele>227</ele>
        <time>2021-10-24T08:54:45Z</time>
      </trkpt>
      <trkpt lat="44.14827" lon="4.54662">
        <ele>227</ele>
        <time>2021-10-24T08:54:46Z</time>
      </trkpt>
      <trkpt lat="44.14832" lon="4.54662">
        <ele>227.2</ele>
        <time>2021-10-24T08:54:47Z</time>
      </trkpt>
      <trkpt lat="44.14839" lon="4.54663">
        <ele>227.4</ele>
        <time>2021-10-24T08:54:48Z</time>
      </trkpt>
      <trkpt lat="44.14844" lon="4.54664">
        <ele>227.6</ele>
        <time>2021-10-24T08:54:49Z</time>
      </trkpt>
      <trkpt lat="44.1485" lon="4.54664">
        <ele>227.8</ele>
        <time>2021-10-24T08:54:50Z</time>
      </trkpt>
      <trkpt lat="44.14856" lon="4.54664">
        <ele>228</ele>
        <time>2021-10-24T08:54:51Z</time>
      </trkpt>
      <trkpt lat="44.14862" lon="4.54664">
        <ele>228.2</ele>
        <time>2021-10-24T08:54:52Z</time>
      </trkpt>
      <trkpt lat="44.14868" lon="4.54664">
        <ele>228.4</ele>
        <time>2021-10-24T08:54:53Z</time>
      </trkpt>
      <trkpt lat="44.14873" lon="4.54663">
        <ele>228.6</ele>
        <time>2021-10-24T08:54:54Z</time>
      </trkpt>
      <trkpt lat="44.14878" lon="4.54662">
        <ele>228.8</ele>
        <time>2021-10-24T08:54:55Z</time>
      </trkpt>
      <trkpt lat="44.14882" lon="4.54661">
        <ele>229.2</ele>
        <time>2021-10-24T08:54:56Z</time>
      </trkpt>
      <trkpt lat="44.14887" lon="4.54658">
        <ele>229.4</ele>
        <time>2021-10-24T08:54:57Z</time>
      </trkpt>
      <trkpt lat="44.14892" lon="4.54656">
        <ele>230</ele>
        <time>2021-10-24T08:54:58Z</time>
      </trkpt>
      <trkpt lat="44.14898" lon="4.54653">
        <ele>230.2</ele>
        <time>2021-10-24T08:54:59Z</time>
      </trkpt>
      <trkpt lat="44.14903" lon="4.5465">
        <ele>230.4</ele>
        <time>2021-10-24T08:55:00Z</time>
      </trkpt>
      <trkpt lat="44.14908" lon="4.54647">
        <ele>230.6</ele>
        <time>2021-10-24T08:55:01Z</time>
      </trkpt>
      <trkpt lat="44.14914" lon="4.54644">
        <ele>230.8</ele>
        <time>2021-10-24T08:55:02Z</time>
      </trkpt>
      <trkpt lat="44.14919" lon="4.54641">
        <ele>231</ele>
        <time>2021-10-24T08:55:03Z</time>
      </trkpt>
      <trkpt lat="44.14925" lon="4.54638">
        <ele>231.2</ele>
        <time>2021-10-24T08:55:04Z</time>
      </trkpt>
      <trkpt lat="44.1493" lon="4.54635">
        <ele>231.2</ele>
        <time>2021-10-24T08:55:05Z</time>
      </trkpt>
      <trkpt lat="44.14936" lon="4.54632">
        <ele>231.4</ele>
        <time>2021-10-24T08:55:06Z</time>
      </trkpt>
      <trkpt lat="44.14941" lon="4.5463">
        <ele>231.6</ele>
        <time>2021-10-24T08:55:07Z</time>
      </trkpt>
      <trkpt lat="44.14947" lon="4.54627">
        <ele>232</ele>
        <time>2021-10-24T08:55:08Z</time>
      </trkpt>
      <trkpt lat="44.14952" lon="4.54625">
        <ele>232</ele>
        <time>2021-10-24T08:55:09Z</time>
      </trkpt>
      <trkpt lat="44.14958" lon="4.54625">
        <ele>232</ele>
        <time>2021-10-24T08:55:10Z</time>
      </trkpt>
      <trkpt lat="44.14963" lon="4.54626">
        <ele>232.4</ele>
        <time>2021-10-24T08:55:11Z</time>
      </trkpt>
      <trkpt lat="44.14969" lon="4.54628">
        <ele>232.4</ele>
        <time>2021-10-24T08:55:12Z</time>
      </trkpt>
      <trkpt lat="44.14975" lon="4.5463">
        <ele>232.6</ele>
        <time>2021-10-24T08:55:13Z</time>
      </trkpt>
      <trkpt lat="44.1498" lon="4.54634">
        <ele>232.8</ele>
        <time>2021-10-24T08:55:14Z</time>
      </trkpt>
      <trkpt lat="44.14984" lon="4.54638">
        <ele>233.2</ele>
        <time>2021-10-24T08:55:15Z</time>
      </trkpt>
      <trkpt lat="44.14989" lon="4.54642">
        <ele>233.2</ele>
        <time>2021-10-24T08:55:16Z</time>
      </trkpt>
      <trkpt lat="44.14993" lon="4.54646">
        <ele>233.4</ele>
        <time>2021-10-24T08:55:17Z</time>
      </trkpt>
      <trkpt lat="44.14997" lon="4.54651">
        <ele>233.6</ele>
        <time>2021-10-24T08:55:18Z</time>
      </trkpt>
      <trkpt lat="44.15001" lon="4.54655">
        <ele>234</ele>
        <time>2021-10-24T08:55:19Z</time>
      </trkpt>
      <trkpt lat="44.15005" lon="4.5466">
        <ele>234</ele>
        <time>2021-10-24T08:55:20Z</time>
      </trkpt>
      <trkpt lat="44.15008" lon="4.54665">
        <ele>234.2</ele>
        <time>2021-10-24T08:55:21Z</time>
      </trkpt>
      <trkpt lat="44.15011" lon="4.5467">
        <ele>234.6</ele>
        <time>2021-10-24T08:55:22Z</time>
      </trkpt>
      <trkpt lat="44.15014" lon="4.54675">
        <ele>234.8</ele>
        <time>2021-10-24T08:55:23Z</time>
      </trkpt>
      <trkpt lat="44.15016" lon="4.54681">
        <ele>234.8</ele>
        <time>2021-10-24T08:55:24Z</time>
      </trkpt>
      <trkpt lat="44.15019" lon="4.54687">
        <ele>234.6</ele>
        <time>2021-10-24T08:55:25Z</time>
      </trkpt>
      <trkpt lat="44.15021" lon="4.54693">
        <ele>235</ele>
        <time>2021-10-24T08:55:26Z</time>
      </trkpt>
      <trkpt lat="44.15023" lon="4.54699">
        <ele>235</ele>
        <time>2021-10-24T08:55:27Z</time>
      </trkpt>
      <trkpt lat="44.15025" lon="4.54705">
        <ele>235.4</ele>
        <time>2021-10-24T08:55:28Z</time>
      </trkpt>
      <trkpt lat="44.15027" lon="4.54712">
        <ele>236</ele>
        <time>2021-10-24T08:55:29Z</time>
      </trkpt>
      <trkpt lat="44.15029" lon="4.54718">
        <ele>236</ele>
        <time>2021-10-24T08:55:30Z</time>
      </trkpt>
      <trkpt lat="44.15031" lon="4.54724">
        <ele>236.4</ele>
        <time>2021-10-24T08:55:31Z</time>
      </trkpt>
      <trkpt lat="44.15033" lon="4.5473">
        <ele>236.8</ele>
        <time>2021-10-24T08:55:32Z</time>
      </trkpt>
      <trkpt lat="44.15035" lon="4.54736">
        <ele>236.8</ele>
        <time>2021-10-24T08:55:33Z</time>
      </trkpt>
      <trkpt lat="44.15037" lon="4.54742">
        <ele>236.8</ele>
        <time>2021-10-24T08:55:34Z</time>
      </trkpt>
      <trkpt lat="44.1504" lon="4.54748">
        <ele>236.8</ele>
        <time>2021-10-24T08:55:35Z</time>
      </trkpt>
      <trkpt lat="44.15043" lon="4.54753">
        <ele>237.2</ele>
        <time>2021-10-24T08:55:36Z</time>
      </trkpt>
      <trkpt lat="44.15046" lon="4.54757">
        <ele>237.2</ele>
        <time>2021-10-24T08:55:37Z</time>
      </trkpt>
      <trkpt lat="44.1505" lon="4.5476">
        <ele>237.6</ele>
        <time>2021-10-24T08:55:38Z</time>
      </trkpt>
      <trkpt lat="44.15053" lon="4.54762">
        <ele>237.6</ele>
        <time>2021-10-24T08:55:39Z</time>
      </trkpt>
      <trkpt lat="44.15057" lon="4.54765">
        <ele>238</ele>
        <time>2021-10-24T08:55:40Z</time>
      </trkpt>
      <trkpt lat="44.15061" lon="4.54767">
        <ele>238</ele>
        <time>2021-10-24T08:55:41Z</time>
      </trkpt>
      <trkpt lat="44.15065" lon="4.54769">
        <ele>238.2</ele>
        <time>2021-10-24T08:55:42Z</time>
      </trkpt>
      <trkpt lat="44.15069" lon="4.54769">
        <ele>238.2</ele>
        <time>2021-10-24T08:55:43Z</time>
      </trkpt>
      <trkpt lat="44.15073" lon="4.54767">
        <ele>238.4</ele>
        <time>2021-10-24T08:55:44Z</time>
      </trkpt>
      <trkpt lat="44.15077" lon="4.54763">
        <ele>238.8</ele>
        <time>2021-10-24T08:55:45Z</time>
      </trkpt>
      <trkpt lat="44.15081" lon="4.54759">
        <ele>239</ele>
        <time>2021-10-24T08:55:46Z</time>
      </trkpt>
      <trkpt lat="44.15084" lon="4.54753">
        <ele>239.2</ele>
        <time>2021-10-24T08:55:47Z</time>
      </trkpt>
      <trkpt lat="44.15087" lon="4.54747">
        <ele>239.4</ele>
        <time>2021-10-24T08:55:48Z</time>
      </trkpt>
      <trkpt lat="44.15089" lon="4.54741">
        <ele>239.4</ele>
        <time>2021-10-24T08:55:49Z</time>
      </trkpt>
      <trkpt lat="44.15092" lon="4.54735">
        <ele>239.6</ele>
        <time>2021-10-24T08:55:50Z</time>
      </trkpt>
      <trkpt lat="44.15094" lon="4.54728">
        <ele>239.6</ele>
        <time>2021-10-24T08:55:51Z</time>
      </trkpt>
      <trkpt lat="44.15096" lon="4.54721">
        <ele>239.6</ele>
        <time>2021-10-24T08:55:52Z</time>
      </trkpt>
      <trkpt lat="44.15098" lon="4.54715">
        <ele>240.2</ele>
        <time>2021-10-24T08:55:53Z</time>
      </trkpt>
      <trkpt lat="44.151" lon="4.54708">
        <ele>240.4</ele>
        <time>2021-10-24T08:55:54Z</time>
      </trkpt>
      <trkpt lat="44.15102" lon="4.54702">
        <ele>240.4</ele>
        <time>2021-10-24T08:55:55Z</time>
      </trkpt>
      <trkpt lat="44.15104" lon="4.54695">
        <ele>240.6</ele>
        <time>2021-10-24T08:55:56Z</time>
      </trkpt>
      <trkpt lat="44.15106" lon="4.54688">
        <ele>240.6</ele>
        <time>2021-10-24T08:55:57Z</time>
      </trkpt>
      <trkpt lat="44.15109" lon="4.54681">
        <ele>240.8</ele>
        <time>2021-10-24T08:55:58Z</time>
      </trkpt>
      <trkpt lat="44.15112" lon="4.54675">
        <ele>241.2</ele>
        <time>2021-10-24T08:55:59Z</time>
      </trkpt>
      <trkpt lat="44.15116" lon="4.54669">
        <ele>241.4</ele>
        <time>2021-10-24T08:56:00Z</time>
      </trkpt>
      <trkpt lat="44.1512" lon="4.54663">
        <ele>241.4</ele>
        <time>2021-10-24T08:56:01Z</time>
      </trkpt>
      <trkpt lat="44.15124" lon="4.54658">
        <ele>241.4</ele>
        <time>2021-10-24T08:56:02Z</time>
      </trkpt>
      <trkpt lat="44.15128" lon="4.54654">
        <ele>241.8</ele>
        <time>2021-10-24T08:56:03Z</time>
      </trkpt>
      <trkpt lat="44.15133" lon="4.5465">
        <ele>241.8</ele>
        <time>2021-10-24T08:56:04Z</time>
      </trkpt>
      <trkpt lat="44.15137" lon="4.54646">
        <ele>242</ele>
        <time>2021-10-24T08:56:05Z</time>
      </trkpt>
      <trkpt lat="44.15142" lon="4.54641">
        <ele>242.2</ele>
        <time>2021-10-24T08:56:06Z</time>
      </trkpt>
      <trkpt lat="44.15147" lon="4.54638">
        <ele>242.4</ele>
        <time>2021-10-24T08:56:07Z</time>
      </trkpt>
      <trkpt lat="44.15153" lon="4.54635">
        <ele>242.4</ele>
        <time>2021-10-24T08:56:08Z</time>
      </trkpt>
      <trkpt lat="44.15158" lon="4.54633">
        <ele>242.4</ele>
        <time>2021-10-24T08:56:09Z</time>
      </trkpt>
      <trkpt lat="44.15164" lon="4.54633">
        <ele>242.4</ele>
        <time>2021-10-24T08:56:10Z</time>
      </trkpt>
      <trkpt lat="44.15171" lon="4.54633">
        <ele>242.4</ele>
        <time>2021-10-24T08:56:11Z</time>
      </trkpt>
      <trkpt lat="44.15177" lon="4.54633">
        <ele>242.4</ele>
        <time>2021-10-24T08:56:12Z</time>
      </trkpt>
      <trkpt lat="44.15183" lon="4.54633">
        <ele>242.6</ele>
        <time>2021-10-24T08:56:13Z</time>
      </trkpt>
      <trkpt lat="44.15189" lon="4.54634">
        <ele>242.6</ele>
        <time>2021-10-24T08:56:14Z</time>
      </trkpt>
      <trkpt lat="44.15195" lon="4.54635">
        <ele>242.4</ele>
        <time>2021-10-24T08:56:15Z</time>
      </trkpt>
      <trkpt lat="44.15201" lon="4.54636">
        <ele>242.8</ele>
        <time>2021-10-24T08:56:16Z</time>
      </trkpt>
      <trkpt lat="44.15207" lon="4.54639">
        <ele>242.8</ele>
        <time>2021-10-24T08:56:17Z</time>
      </trkpt>
      <trkpt lat="44.15212" lon="4.54644">
        <ele>242.8</ele>
        <time>2021-10-24T08:56:18Z</time>
      </trkpt>
      <trkpt lat="44.15217" lon="4.5465">
        <ele>242.8</ele>
        <time>2021-10-24T08:56:19Z</time>
      </trkpt>
      <trkpt lat="44.1522" lon="4.54657">
        <ele>243.2</ele>
        <time>2021-10-24T08:56:20Z</time>
      </trkpt>
      <trkpt lat="44.15223" lon="4.54663">
        <ele>243.4</ele>
        <time>2021-10-24T08:56:21Z</time>
      </trkpt>
      <trkpt lat="44.15227" lon="4.5467">
        <ele>243.2</ele>
        <time>2021-10-24T08:56:22Z</time>
      </trkpt>
      <trkpt lat="44.1523" lon="4.54677">
        <ele>243.6</ele>
        <time>2021-10-24T08:56:23Z</time>
      </trkpt>
      <trkpt lat="44.15233" lon="4.54684">
        <ele>243.6</ele>
        <time>2021-10-24T08:56:24Z</time>
      </trkpt>
      <trkpt lat="44.15236" lon="4.54691">
        <ele>243.8</ele>
        <time>2021-10-24T08:56:25Z</time>
      </trkpt>
      <trkpt lat="44.1524" lon="4.54697">
        <ele>244.2</ele>
        <time>2021-10-24T08:56:26Z</time>
      </trkpt>
      <trkpt lat="44.15243" lon="4.54703">
        <ele>244.4</ele>
        <time>2021-10-24T08:56:27Z</time>
      </trkpt>
      <trkpt lat="44.15246" lon="4.5471">
        <ele>244.4</ele>
        <time>2021-10-24T08:56:28Z</time>
      </trkpt>
      <trkpt lat="44.15249" lon="4.54717">
        <ele>244.8</ele>
        <time>2021-10-24T08:56:29Z</time>
      </trkpt>
      <trkpt lat="44.15252" lon="4.54724">
        <ele>245</ele>
        <time>2021-10-24T08:56:30Z</time>
      </trkpt>
      <trkpt lat="44.15255" lon="4.54731">
        <ele>245.2</ele>
        <time>2021-10-24T08:56:31Z</time>
      </trkpt>
      <trkpt lat="44.15257" lon="4.54738">
        <ele>245.4</ele>
        <time>2021-10-24T08:56:32Z</time>
      </trkpt>
      <trkpt lat="44.15259" lon="4.54745">
        <ele>245.6</ele>
        <time>2021-10-24T08:56:33Z</time>
      </trkpt>
      <trkpt lat="44.15261" lon="4.54753">
        <ele>245.8</ele>
        <time>2021-10-24T08:56:34Z</time>
      </trkpt>
      <trkpt lat="44.15262" lon="4.54761">
        <ele>246</ele>
        <time>2021-10-24T08:56:35Z</time>
      </trkpt>
      <trkpt lat="44.15261" lon="4.54769">
        <ele>246</ele>
        <time>2021-10-24T08:56:36Z</time>
      </trkpt>
      <trkpt lat="44.15261" lon="4.54777">
        <ele>246.4</ele>
        <time>2021-10-24T08:56:37Z</time>
      </trkpt>
      <trkpt lat="44.1526" lon="4.54785">
        <ele>246.6</ele>
        <time>2021-10-24T08:56:38Z</time>
      </trkpt>
      <trkpt lat="44.15257" lon="4.54792">
        <ele>246.8</ele>
        <time>2021-10-24T08:56:39Z</time>
      </trkpt>
      <trkpt lat="44.15254" lon="4.54799">
        <ele>247</ele>
        <time>2021-10-24T08:56:40Z</time>
      </trkpt>
      <trkpt lat="44.15251" lon="4.54805">
        <ele>247.2</ele>
        <time>2021-10-24T08:56:41Z</time>
      </trkpt>
      <trkpt lat="44.15246" lon="4.54811">
        <ele>247.4</ele>
        <time>2021-10-24T08:56:42Z</time>
      </trkpt>
      <trkpt lat="44.15242" lon="4.54816">
        <ele>247.4</ele>
        <time>2021-10-24T08:56:43Z</time>
      </trkpt>
      <trkpt lat="44.15236" lon="4.5482">
        <ele>247.6</ele>
        <time>2021-10-24T08:56:44Z</time>
      </trkpt>
      <trkpt lat="44.15231" lon="4.54825">
        <ele>247.8</ele>
        <time>2021-10-24T08:56:45Z</time>
      </trkpt>
      <trkpt lat="44.15225" lon="4.54829">
        <ele>248</ele>
        <time>2021-10-24T08:56:46Z</time>
      </trkpt>
      <trkpt lat="44.1522" lon="4.54834">
        <ele>248</ele>
        <time>2021-10-24T08:56:47Z</time>
      </trkpt>
      <trkpt lat="44.15215" lon="4.54838">
        <ele>248.2</ele>
        <time>2021-10-24T08:56:48Z</time>
      </trkpt>
      <trkpt lat="44.15209" lon="4.54842">
        <ele>248.2</ele>
        <time>2021-10-24T08:56:49Z</time>
      </trkpt>
      <trkpt lat="44.15204" lon="4.54846">
        <ele>248.6</ele>
        <time>2021-10-24T08:56:50Z</time>
      </trkpt>
      <trkpt lat="44.15198" lon="4.5485">
        <ele>248.6</ele>
        <time>2021-10-24T08:56:51Z</time>
      </trkpt>
      <trkpt lat="44.15193" lon="4.54854">
        <ele>248.6</ele>
        <time>2021-10-24T08:56:52Z</time>
      </trkpt>
      <trkpt lat="44.15187" lon="4.54858">
        <ele>248.6</ele>
        <time>2021-10-24T08:56:53Z</time>
      </trkpt>
      <trkpt lat="44.15181" lon="4.54862">
        <ele>248.8</ele>
        <time>2021-10-24T08:56:54Z</time>
      </trkpt>
      <trkpt lat="44.15176" lon="4.54865">
        <ele>249</ele>
        <time>2021-10-24T08:56:55Z</time>
      </trkpt>
      <trkpt lat="44.1517" lon="4.54867">
        <ele>248.8</ele>
        <time>2021-10-24T08:56:56Z</time>
      </trkpt>
      <trkpt lat="44.15163" lon="4.5487">
        <ele>249</ele>
        <time>2021-10-24T08:56:57Z</time>
      </trkpt>
      <trkpt lat="44.15157" lon="4.54871">
        <ele>249</ele>
        <time>2021-10-24T08:56:58Z</time>
      </trkpt>
      <trkpt lat="44.15151" lon="4.54873">
        <ele>249.2</ele>
        <time>2021-10-24T08:56:59Z</time>
      </trkpt>
      <trkpt lat="44.15145" lon="4.54875">
        <ele>249.4</ele>
        <time>2021-10-24T08:57:00Z</time>
      </trkpt>
      <trkpt lat="44.15138" lon="4.54876">
        <ele>249.4</ele>
        <time>2021-10-24T08:57:01Z</time>
      </trkpt>
      <trkpt lat="44.15132" lon="4.54878">
        <ele>249.8</ele>
        <time>2021-10-24T08:57:02Z</time>
      </trkpt>
      <trkpt lat="44.15126" lon="4.5488">
        <ele>250</ele>
        <time>2021-10-24T08:57:03Z</time>
      </trkpt>
      <trkpt lat="44.15119" lon="4.54881">
        <ele>250</ele>
        <time>2021-10-24T08:57:04Z</time>
      </trkpt>
      <trkpt lat="44.15113" lon="4.54883">
        <ele>250.2</ele>
        <time>2021-10-24T08:57:05Z</time>
      </trkpt>
      <trkpt lat="44.15106" lon="4.54884">
        <ele>250.6</ele>
        <time>2021-10-24T08:57:06Z</time>
      </trkpt>
      <trkpt lat="44.151" lon="4.54885">
        <ele>250.6</ele>
        <time>2021-10-24T08:57:07Z</time>
      </trkpt>
      <trkpt lat="44.15094" lon="4.54885">
        <ele>251</ele>
        <time>2021-10-24T08:57:08Z</time>
      </trkpt>
      <trkpt lat="44.15088" lon="4.54885">
        <ele>251.2</ele>
        <time>2021-10-24T08:57:09Z</time>
      </trkpt>
      <trkpt lat="44.15082" lon="4.54885">
        <ele>251.2</ele>
        <time>2021-10-24T08:57:10Z</time>
      </trkpt>
      <trkpt lat="44.15076" lon="4.54887">
        <ele>251.6</ele>
        <time>2021-10-24T08:57:11Z</time>
      </trkpt>
      <trkpt lat="44.15072" lon="4.5489">
        <ele>251.8</ele>
        <time>2021-10-24T08:57:12Z</time>
      </trkpt>
      <trkpt lat="44.15068" lon="4.54894">
        <ele>252.2</ele>
        <time>2021-10-24T08:57:13Z</time>
      </trkpt>
      <trkpt lat="44.15065" lon="4.549">
        <ele>252.6</ele>
        <time>2021-10-24T08:57:14Z</time>
      </trkpt>
      <trkpt lat="44.15063" lon="4.54906">
        <ele>253</ele>
        <time>2021-10-24T08:57:15Z</time>
      </trkpt>
      <trkpt lat="44.15062" lon="4.54913">
        <ele>253.2</ele>
        <time>2021-10-24T08:57:16Z</time>
      </trkpt>
      <trkpt lat="44.15062" lon="4.54919">
        <ele>253.6</ele>
        <time>2021-10-24T08:57:17Z</time>
      </trkpt>
      <trkpt lat="44.15061" lon="4.54925">
        <ele>254</ele>
        <time>2021-10-24T08:57:18Z</time>
      </trkpt>
      <trkpt lat="44.15061" lon="4.54932">
        <ele>254.4</ele>
        <time>2021-10-24T08:57:19Z</time>
      </trkpt>
      <trkpt lat="44.1506" lon="4.54938">
        <ele>254.8</ele>
        <time>2021-10-24T08:57:20Z</time>
      </trkpt>
      <trkpt lat="44.15059" lon="4.54945">
        <ele>255.2</ele>
        <time>2021-10-24T08:57:21Z</time>
      </trkpt>
      <trkpt lat="44.15059" lon="4.54951">
        <ele>255.4</ele>
        <time>2021-10-24T08:57:22Z</time>
      </trkpt>
      <trkpt lat="44.15058" lon="4.54958">
        <ele>255.6</ele>
        <time>2021-10-24T08:57:23Z</time>
      </trkpt>
      <trkpt lat="44.15058" lon="4.54964">
        <ele>255.6</ele>
        <time>2021-10-24T08:57:24Z</time>
      </trkpt>
      <trkpt lat="44.15057" lon="4.54971">
        <ele>256</ele>
        <time>2021-10-24T08:57:25Z</time>
      </trkpt>
      <trkpt lat="44.15055" lon="4.54977">
        <ele>256.2</ele>
        <time>2021-10-24T08:57:26Z</time>
      </trkpt>
      <trkpt lat="44.15053" lon="4.54983">
        <ele>256.6</ele>
        <time>2021-10-24T08:57:27Z</time>
      </trkpt>
      <trkpt lat="44.15051" lon="4.54989">
        <ele>256.8</ele>
        <time>2021-10-24T08:57:28Z</time>
      </trkpt>
      <trkpt lat="44.15047" lon="4.54994">
        <ele>257</ele>
        <time>2021-10-24T08:57:29Z</time>
      </trkpt>
      <trkpt lat="44.15044" lon="4.54998">
        <ele>257.4</ele>
        <time>2021-10-24T08:57:30Z</time>
      </trkpt>
      <trkpt lat="44.1504" lon="4.55002">
        <ele>257.6</ele>
        <time>2021-10-24T08:57:31Z</time>
      </trkpt>
      <trkpt lat="44.15035" lon="4.55005">
        <ele>258</ele>
        <time>2021-10-24T08:57:32Z</time>
      </trkpt>
      <trkpt lat="44.15031" lon="4.55008">
        <ele>258.2</ele>
        <time>2021-10-24T08:57:33Z</time>
      </trkpt>
      <trkpt lat="44.15027" lon="4.55012">
        <ele>258.4</ele>
        <time>2021-10-24T08:57:34Z</time>
      </trkpt>
      <trkpt lat="44.15023" lon="4.55015">
        <ele>258.8</ele>
        <time>2021-10-24T08:57:35Z</time>
      </trkpt>
      <trkpt lat="44.1502" lon="4.55018">
        <ele>259</ele>
        <time>2021-10-24T08:57:36Z</time>
      </trkpt>
      <trkpt lat="44.15016" lon="4.55021">
        <ele>259.2</ele>
        <time>2021-10-24T08:57:37Z</time>
      </trkpt>
      <trkpt lat="44.15012" lon="4.55024">
        <ele>259.4</ele>
        <time>2021-10-24T08:57:38Z</time>
      </trkpt>
      <trkpt lat="44.15008" lon="4.55028">
        <ele>259.6</ele>
        <time>2021-10-24T08:57:39Z</time>
      </trkpt>
      <trkpt lat="44.15004" lon="4.55031">
        <ele>259.8</ele>
        <time>2021-10-24T08:57:40Z</time>
      </trkpt>
      <trkpt lat="44.15" lon="4.55034">
        <ele>260.2</ele>
        <time>2021-10-24T08:57:41Z</time>
      </trkpt>
      <trkpt lat="44.14996" lon="4.55037">
        <ele>260.4</ele>
        <time>2021-10-24T08:57:42Z</time>
      </trkpt>
      <trkpt lat="44.14992" lon="4.5504">
        <ele>260.6</ele>
        <time>2021-10-24T08:57:43Z</time>
      </trkpt>
      <trkpt lat="44.14988" lon="4.55043">
        <ele>261</ele>
        <time>2021-10-24T08:57:44Z</time>
      </trkpt>
      <trkpt lat="44.14984" lon="4.55047">
        <ele>261</ele>
        <time>2021-10-24T08:57:45Z</time>
      </trkpt>
      <trkpt lat="44.1498" lon="4.5505">
        <ele>261.6</ele>
        <time>2021-10-24T08:57:46Z</time>
      </trkpt>
      <trkpt lat="44.14975" lon="4.55054">
        <ele>261.8</ele>
        <time>2021-10-24T08:57:47Z</time>
      </trkpt>
      <trkpt lat="44.14971" lon="4.55058">
        <ele>262</ele>
        <time>2021-10-24T08:57:48Z</time>
      </trkpt>
      <trkpt lat="44.14967" lon="4.55062">
        <ele>262</ele>
        <time>2021-10-24T08:57:49Z</time>
      </trkpt>
      <trkpt lat="44.14962" lon="4.55066">
        <ele>262</ele>
        <time>2021-10-24T08:57:50Z</time>
      </trkpt>
      <trkpt lat="44.14959" lon="4.55072">
        <ele>262</ele>
        <time>2021-10-24T08:57:51Z</time>
      </trkpt>
      <trkpt lat="44.14956" lon="4.55079">
        <ele>262.2</ele>
        <time>2021-10-24T08:57:52Z</time>
      </trkpt>
      <trkpt lat="44.14954" lon="4.55087">
        <ele>262.2</ele>
        <time>2021-10-24T08:57:53Z</time>
      </trkpt>
      <trkpt lat="44.14953" lon="4.55096">
        <ele>262</ele>
        <time>2021-10-24T08:57:54Z</time>
      </trkpt>
      <trkpt lat="44.14952" lon="4.55106">
        <ele>262.2</ele>
        <time>2021-10-24T08:57:55Z</time>
      </trkpt>
      <trkpt lat="44.14951" lon="4.55115">
        <ele>262.2</ele>
        <time>2021-10-24T08:57:56Z</time>
      </trkpt>
      <trkpt lat="44.14951" lon="4.55126">
        <ele>262</ele>
        <time>2021-10-24T08:57:57Z</time>
      </trkpt>
      <trkpt lat="44.1495" lon="4.55136">
        <ele>262.2</ele>
        <time>2021-10-24T08:57:58Z</time>
      </trkpt>
      <trkpt lat="44.14948" lon="4.55146">
        <ele>262.2</ele>
        <time>2021-10-24T08:57:59Z</time>
      </trkpt>
      <trkpt lat="44.14945" lon="4.55156">
        <ele>262.2</ele>
        <time>2021-10-24T08:58:00Z</time>
      </trkpt>
      <trkpt lat="44.1494" lon="4.55164">
        <ele>262.2</ele>
        <time>2021-10-24T08:58:01Z</time>
      </trkpt>
      <trkpt lat="44.14933" lon="4.55168">
        <ele>262.2</ele>
        <time>2021-10-24T08:58:02Z</time>
      </trkpt>
      <trkpt lat="44.14926" lon="4.55169">
        <ele>262.2</ele>
        <time>2021-10-24T08:58:03Z</time>
      </trkpt>
      <trkpt lat="44.14919" lon="4.55167">
        <ele>261.8</ele>
        <time>2021-10-24T08:58:04Z</time>
      </trkpt>
      <trkpt lat="44.14913" lon="4.55164">
        <ele>261.6</ele>
        <time>2021-10-24T08:58:05Z</time>
      </trkpt>
      <trkpt lat="44.14907" lon="4.5516">
        <ele>261.8</ele>
        <time>2021-10-24T08:58:06Z</time>
      </trkpt>
      <trkpt lat="44.14901" lon="4.55156">
        <ele>261.6</ele>
        <time>2021-10-24T08:58:07Z</time>
      </trkpt>
      <trkpt lat="44.14895" lon="4.55153">
        <ele>261.6</ele>
        <time>2021-10-24T08:58:08Z</time>
      </trkpt>
      <trkpt lat="44.14889" lon="4.55149">
        <ele>261.6</ele>
        <time>2021-10-24T08:58:09Z</time>
      </trkpt>
      <trkpt lat="44.14883" lon="4.55146">
        <ele>261.6</ele>
        <time>2021-10-24T08:58:10Z</time>
      </trkpt>
      <trkpt lat="44.14877" lon="4.55142">
        <ele>261.6</ele>
        <time>2021-10-24T08:58:11Z</time>
      </trkpt>
      <trkpt lat="44.14871" lon="4.55139">
        <ele>261.8</ele>
        <time>2021-10-24T08:58:12Z</time>
      </trkpt>
      <trkpt lat="44.14865" lon="4.55136">
        <ele>261.8</ele>
        <time>2021-10-24T08:58:13Z</time>
      </trkpt>
      <trkpt lat="44.14859" lon="4.55133">
        <ele>261.6</ele>
        <time>2021-10-24T08:58:14Z</time>
      </trkpt>
      <trkpt lat="44.14854" lon="4.5513">
        <ele>262</ele>
        <time>2021-10-24T08:58:15Z</time>
      </trkpt>
      <trkpt lat="44.14848" lon="4.55127">
        <ele>261.8</ele>
        <time>2021-10-24T08:58:16Z</time>
      </trkpt>
      <trkpt lat="44.14841" lon="4.55125">
        <ele>262.2</ele>
        <time>2021-10-24T08:58:17Z</time>
      </trkpt>
      <trkpt lat="44.14835" lon="4.55124">
        <ele>262</ele>
        <time>2021-10-24T08:58:18Z</time>
      </trkpt>
      <trkpt lat="44.14829" lon="4.55125">
        <ele>262</ele>
        <time>2021-10-24T08:58:19Z</time>
      </trkpt>
      <trkpt lat="44.14822" lon="4.55126">
        <ele>262</ele>
        <time>2021-10-24T08:58:20Z</time>
      </trkpt>
      <trkpt lat="44.14816" lon="4.55127">
        <ele>262.4</ele>
        <time>2021-10-24T08:58:21Z</time>
      </trkpt>
      <trkpt lat="44.1481" lon="4.55129">
        <ele>262.8</ele>
        <time>2021-10-24T08:58:22Z</time>
      </trkpt>
      <trkpt lat="44.14804" lon="4.5513">
        <ele>262.6</ele>
        <time>2021-10-24T08:58:23Z</time>
      </trkpt>
      <trkpt lat="44.14798" lon="4.55132">
        <ele>263</ele>
        <time>2021-10-24T08:58:24Z</time>
      </trkpt>
      <trkpt lat="44.14791" lon="4.55134">
        <ele>263</ele>
        <time>2021-10-24T08:58:25Z</time>
      </trkpt>
      <trkpt lat="44.14785" lon="4.55135">
        <ele>263.2</ele>
        <time>2021-10-24T08:58:26Z</time>
      </trkpt>
      <trkpt lat="44.14779" lon="4.55137">
        <ele>263.2</ele>
        <time>2021-10-24T08:58:27Z</time>
      </trkpt>
      <trkpt lat="44.14773" lon="4.55138">
        <ele>263.4</ele>
        <time>2021-10-24T08:58:28Z</time>
      </trkpt>
      <trkpt lat="44.14766" lon="4.55139">
        <ele>263.2</ele>
        <time>2021-10-24T08:58:29Z</time>
      </trkpt>
      <trkpt lat="44.1476" lon="4.55139">
        <ele>263.2</ele>
        <time>2021-10-24T08:58:30Z</time>
      </trkpt>
      <trkpt lat="44.14754" lon="4.55138">
        <ele>263</ele>
        <time>2021-10-24T08:58:31Z</time>
      </trkpt>
      <trkpt lat="44.14748" lon="4.55137">
        <ele>263.4</ele>
        <time>2021-10-24T08:58:32Z</time>
      </trkpt>
      <trkpt lat="44.14742" lon="4.55136">
        <ele>263.2</ele>
        <time>2021-10-24T08:58:33Z</time>
      </trkpt>
      <trkpt lat="44.14736" lon="4.55134">
        <ele>263.4</ele>
        <time>2021-10-24T08:58:34Z</time>
      </trkpt>
      <trkpt lat="44.1473" lon="4.55132">
        <ele>263.4</ele>
        <time>2021-10-24T08:58:35Z</time>
      </trkpt>
      <trkpt lat="44.14724" lon="4.55129">
        <ele>263.8</ele>
        <time>2021-10-24T08:58:36Z</time>
      </trkpt>
      <trkpt lat="44.14719" lon="4.55127">
        <ele>263.8</ele>
        <time>2021-10-24T08:58:37Z</time>
      </trkpt>
      <trkpt lat="44.14713" lon="4.55125">
        <ele>263.8</ele>
        <time>2021-10-24T08:58:38Z</time>
      </trkpt>
      <trkpt lat="44.14707" lon="4.55123">
        <ele>264</ele>
        <time>2021-10-24T08:58:39Z</time>
      </trkpt>
      <trkpt lat="44.14701" lon="4.5512">
        <ele>264.2</ele>
        <time>2021-10-24T08:58:40Z</time>
      </trkpt>
      <trkpt lat="44.14695" lon="4.55118">
        <ele>264</ele>
        <time>2021-10-24T08:58:41Z</time>
      </trkpt>
      <trkpt lat="44.14689" lon="4.55116">
        <ele>264.6</ele>
        <time>2021-10-24T08:58:42Z</time>
      </trkpt>
      <trkpt lat="44.14683" lon="4.55113">
        <ele>264.4</ele>
        <time>2021-10-24T08:58:43Z</time>
      </trkpt>
      <trkpt lat="44.14677" lon="4.5511">
        <ele>264.8</ele>
        <time>2021-10-24T08:58:44Z</time>
      </trkpt>
      <trkpt lat="44.1467" lon="4.55108">
        <ele>264.6</ele>
        <time>2021-10-24T08:58:45Z</time>
      </trkpt>
      <trkpt lat="44.14664" lon="4.55105">
        <ele>264.8</ele>
        <time>2021-10-24T08:58:46Z</time>
      </trkpt>
      <trkpt lat="44.14658" lon="4.55103">
        <ele>264.6</ele>
        <time>2021-10-24T08:58:47Z</time>
      </trkpt>
      <trkpt lat="44.14652" lon="4.55101">
        <ele>265</ele>
        <time>2021-10-24T08:58:48Z</time>
      </trkpt>
      <trkpt lat="44.14645" lon="4.55099">
        <ele>265.2</ele>
        <time>2021-10-24T08:58:49Z</time>
      </trkpt>
      <trkpt lat="44.14638" lon="4.55099">
        <ele>265.2</ele>
        <time>2021-10-24T08:58:50Z</time>
      </trkpt>
      <trkpt lat="44.14632" lon="4.55099">
        <ele>265.2</ele>
        <time>2021-10-24T08:58:51Z</time>
      </trkpt>
      <trkpt lat="44.14625" lon="4.55099">
        <ele>265.4</ele>
        <time>2021-10-24T08:58:52Z</time>
      </trkpt>
      <trkpt lat="44.14618" lon="4.55099">
        <ele>265.2</ele>
        <time>2021-10-24T08:58:53Z</time>
      </trkpt>
      <trkpt lat="44.14611" lon="4.55099">
        <ele>265.4</ele>
        <time>2021-10-24T08:58:54Z</time>
      </trkpt>
      <trkpt lat="44.14603" lon="4.551">
        <ele>265.4</ele>
        <time>2021-10-24T08:58:55Z</time>
      </trkpt>
      <trkpt lat="44.14596" lon="4.551">
        <ele>265.4</ele>
        <time>2021-10-24T08:58:56Z</time>
      </trkpt>
      <trkpt lat="44.14588" lon="4.55101">
        <ele>265.4</ele>
        <time>2021-10-24T08:58:57Z</time>
      </trkpt>
      <trkpt lat="44.1458" lon="4.55101">
        <ele>265.2</ele>
        <time>2021-10-24T08:58:58Z</time>
      </trkpt>
      <trkpt lat="44.14572" lon="4.55102">
        <ele>265</ele>
        <time>2021-10-24T08:58:59Z</time>
      </trkpt>
      <trkpt lat="44.14564" lon="4.55102">
        <ele>265</ele>
        <time>2021-10-24T08:59:00Z</time>
      </trkpt>
      <trkpt lat="44.14555" lon="4.55103">
        <ele>264.6</ele>
        <time>2021-10-24T08:59:01Z</time>
      </trkpt>
      <trkpt lat="44.14547" lon="4.55104">
        <ele>264.6</ele>
        <time>2021-10-24T08:59:02Z</time>
      </trkpt>
      <trkpt lat="44.14538" lon="4.55104">
        <ele>264.6</ele>
        <time>2021-10-24T08:59:03Z</time>
      </trkpt>
      <trkpt lat="44.1453" lon="4.55103">
        <ele>264.2</ele>
        <time>2021-10-24T08:59:04Z</time>
      </trkpt>
      <trkpt lat="44.14521" lon="4.55103">
        <ele>264.2</ele>
        <time>2021-10-24T08:59:05Z</time>
      </trkpt>
      <trkpt lat="44.14513" lon="4.551">
        <ele>264.6</ele>
        <time>2021-10-24T08:59:06Z</time>
      </trkpt>
      <trkpt lat="44.14505" lon="4.55097">
        <ele>264.4</ele>
        <time>2021-10-24T08:59:07Z</time>
      </trkpt>
      <trkpt lat="44.14497" lon="4.55091">
        <ele>264</ele>
        <time>2021-10-24T08:59:08Z</time>
      </trkpt>
      <trkpt lat="44.1449" lon="4.55085">
        <ele>263.8</ele>
        <time>2021-10-24T08:59:09Z</time>
      </trkpt>
      <trkpt lat="44.14483" lon="4.55077">
        <ele>263.6</ele>
        <time>2021-10-24T08:59:10Z</time>
      </trkpt>
      <trkpt lat="44.14477" lon="4.55068">
        <ele>263.4</ele>
        <time>2021-10-24T08:59:11Z</time>
      </trkpt>
      <trkpt lat="44.14472" lon="4.55059">
        <ele>263.2</ele>
        <time>2021-10-24T08:59:12Z</time>
      </trkpt>
      <trkpt lat="44.14466" lon="4.5505">
        <ele>263</ele>
        <time>2021-10-24T08:59:13Z</time>
      </trkpt>
      <trkpt lat="44.1446" lon="4.55041">
        <ele>263</ele>
        <time>2021-10-24T08:59:14Z</time>
      </trkpt>
      <trkpt lat="44.14454" lon="4.55031">
        <ele>263</ele>
        <time>2021-10-24T08:59:15Z</time>
      </trkpt>
      <trkpt lat="44.14449" lon="4.55022">
        <ele>263</ele>
        <time>2021-10-24T08:59:16Z</time>
      </trkpt>
      <trkpt lat="44.14443" lon="4.55013">
        <ele>263</ele>
        <time>2021-10-24T08:59:17Z</time>
      </trkpt>
      <trkpt lat="44.14437" lon="4.55003">
        <ele>262.4</ele>
        <time>2021-10-24T08:59:18Z</time>
      </trkpt>
      <trkpt lat="44.14431" lon="4.54994">
        <ele>262.4</ele>
        <time>2021-10-24T08:59:19Z</time>
      </trkpt>
      <trkpt lat="44.14425" lon="4.54985">
        <ele>262.2</ele>
        <time>2021-10-24T08:59:20Z</time>
      </trkpt>
      <trkpt lat="44.14419" lon="4.54976">
        <ele>262.2</ele>
        <time>2021-10-24T08:59:21Z</time>
      </trkpt>
      <trkpt lat="44.14413" lon="4.54966">
        <ele>262.2</ele>
        <time>2021-10-24T08:59:22Z</time>
      </trkpt>
      <trkpt lat="44.14407" lon="4.54957">
        <ele>262</ele>
        <time>2021-10-24T08:59:23Z</time>
      </trkpt>
      <trkpt lat="44.14401" lon="4.54947">
        <ele>261.8</ele>
        <time>2021-10-24T08:59:24Z</time>
      </trkpt>
      <trkpt lat="44.14395" lon="4.54938">
        <ele>262</ele>
        <time>2021-10-24T08:59:25Z</time>
      </trkpt>
      <trkpt lat="44.14389" lon="4.54929">
        <ele>261.6</ele>
        <time>2021-10-24T08:59:26Z</time>
      </trkpt>
      <trkpt lat="44.14383" lon="4.54919">
        <ele>261.4</ele>
        <time>2021-10-24T08:59:27Z</time>
      </trkpt>
      <trkpt lat="44.14378" lon="4.5491">
        <ele>261.6</ele>
        <time>2021-10-24T08:59:28Z</time>
      </trkpt>
      <trkpt lat="44.14372" lon="4.54901">
        <ele>261.6</ele>
        <time>2021-10-24T08:59:29Z</time>
      </trkpt>
      <trkpt lat="44.14367" lon="4.54892">
        <ele>261.2</ele>
        <time>2021-10-24T08:59:30Z</time>
      </trkpt>
      <trkpt lat="44.14361" lon="4.54882">
        <ele>261</ele>
        <time>2021-10-24T08:59:31Z</time>
      </trkpt>
      <trkpt lat="44.14356" lon="4.54872">
        <ele>260.6</ele>
        <time>2021-10-24T08:59:32Z</time>
      </trkpt>
      <trkpt lat="44.14352" lon="4.54861">
        <ele>260.4</ele>
        <time>2021-10-24T08:59:33Z</time>
      </trkpt>
      <trkpt lat="44.14348" lon="4.5485">
        <ele>260.2</ele>
        <time>2021-10-24T08:59:34Z</time>
      </trkpt>
      <trkpt lat="44.14345" lon="4.54838">
        <ele>260.2</ele>
        <time>2021-10-24T08:59:35Z</time>
      </trkpt>
      <trkpt lat="44.14342" lon="4.54827">
        <ele>260.2</ele>
        <time>2021-10-24T08:59:36Z</time>
      </trkpt>
      <trkpt lat="44.14339" lon="4.54815">
        <ele>260</ele>
        <time>2021-10-24T08:59:37Z</time>
      </trkpt>
      <trkpt lat="44.14336" lon="4.54804">
        <ele>259.8</ele>
        <time>2021-10-24T08:59:38Z</time>
      </trkpt>
      <trkpt lat="44.14333" lon="4.54793">
        <ele>259.4</ele>
        <time>2021-10-24T08:59:39Z</time>
      </trkpt>
      <trkpt lat="44.14331" lon="4.54782">
        <ele>259.2</ele>
        <time>2021-10-24T08:59:40Z</time>
      </trkpt>
      <trkpt lat="44.14328" lon="4.54771">
        <ele>259.4</ele>
        <time>2021-10-24T08:59:41Z</time>
      </trkpt>
      <trkpt lat="44.14325" lon="4.5476">
        <ele>259.2</ele>
        <time>2021-10-24T08:59:42Z</time>
      </trkpt>
      <trkpt lat="44.14323" lon="4.54749">
        <ele>258.6</ele>
        <time>2021-10-24T08:59:43Z</time>
      </trkpt>
      <trkpt lat="44.14321" lon="4.54737">
        <ele>258.2</ele>
        <time>2021-10-24T08:59:44Z</time>
      </trkpt>
      <trkpt lat="44.1432" lon="4.54725">
        <ele>258.2</ele>
        <time>2021-10-24T08:59:45Z</time>
      </trkpt>
      <trkpt lat="44.1432" lon="4.54713">
        <ele>258</ele>
        <time>2021-10-24T08:59:46Z</time>
      </trkpt>
      <trkpt lat="44.14322" lon="4.54702">
        <ele>258.2</ele>
        <time>2021-10-24T08:59:47Z</time>
      </trkpt>
      <trkpt lat="44.14325" lon="4.54691">
        <ele>258</ele>
        <time>2021-10-24T08:59:48Z</time>
      </trkpt>
      <trkpt lat="44.14329" lon="4.54681">
        <ele>257.8</ele>
        <time>2021-10-24T08:59:49Z</time>
      </trkpt>
      <trkpt lat="44.14334" lon="4.54672">
        <ele>257.6</ele>
        <time>2021-10-24T08:59:50Z</time>
      </trkpt>
      <trkpt lat="44.1434" lon="4.54663">
        <ele>257.4</ele>
        <time>2021-10-24T08:59:51Z</time>
      </trkpt>
      <trkpt lat="44.14345" lon="4.54654">
        <ele>257.6</ele>
        <time>2021-10-24T08:59:52Z</time>
      </trkpt>
      <trkpt lat="44.1435" lon="4.54645">
        <ele>257.8</ele>
        <time>2021-10-24T08:59:53Z</time>
      </trkpt>
      <trkpt lat="44.14354" lon="4.54636">
        <ele>257.2</ele>
        <time>2021-10-24T08:59:54Z</time>
      </trkpt>
      <trkpt lat="44.14358" lon="4.54627">
        <ele>257.2</ele>
        <time>2021-10-24T08:59:55Z</time>
      </trkpt>
      <trkpt lat="44.14361" lon="4.54618">
        <ele>257</ele>
        <time>2021-10-24T08:59:56Z</time>
      </trkpt>
      <trkpt lat="44.14363" lon="4.54609">
        <ele>256.8</ele>
        <time>2021-10-24T08:59:57Z</time>
      </trkpt>
      <trkpt lat="44.14364" lon="4.54599">
        <ele>256.8</ele>
        <time>2021-10-24T08:59:58Z</time>
      </trkpt>
      <trkpt lat="44.14364" lon="4.5459">
        <ele>256.6</ele>
        <time>2021-10-24T08:59:59Z</time>
      </trkpt>
      <trkpt lat="44.14363" lon="4.54581">
        <ele>256.2</ele>
        <time>2021-10-24T09:00:00Z</time>
      </trkpt>
      <trkpt lat="44.14361" lon="4.54572">
        <ele>256</ele>
        <time>2021-10-24T09:00:01Z</time>
      </trkpt>
      <trkpt lat="44.14358" lon="4.54565">
        <ele>256</ele>
        <time>2021-10-24T09:00:02Z</time>
      </trkpt>
      <trkpt lat="44.14355" lon="4.54557">
        <ele>255.8</ele>
        <time>2021-10-24T09:00:03Z</time>
      </trkpt>
      <trkpt lat="44.1435" lon="4.54549">
        <ele>255.8</ele>
        <time>2021-10-24T09:00:04Z</time>
      </trkpt>
      <trkpt lat="44.14346" lon="4.54542">
        <ele>255.8</ele>
        <time>2021-10-24T09:00:05Z</time>
      </trkpt>
      <trkpt lat="44.1434" lon="4.54534">
        <ele>255.6</ele>
        <time>2021-10-24T09:00:06Z</time>
      </trkpt>
      <trkpt lat="44.14335" lon="4.54527">
        <ele>255.6</ele>
        <time>2021-10-24T09:00:07Z</time>
      </trkpt>
      <trkpt lat="44.14329" lon="4.54519">
        <ele>255.4</ele>
        <time>2021-10-24T09:00:08Z</time>
      </trkpt>
      <trkpt lat="44.14322" lon="4.54511">
        <ele>255.6</ele>
        <time>2021-10-24T09:00:09Z</time>
      </trkpt>
      <trkpt lat="44.14316" lon="4.54503">
        <ele>255.4</ele>
        <time>2021-10-24T09:00:10Z</time>
      </trkpt>
      <trkpt lat="44.14309" lon="4.54495">
        <ele>255.4</ele>
        <time>2021-10-24T09:00:11Z</time>
      </trkpt>
      <trkpt lat="44.14302" lon="4.54486">
        <ele>255.4</ele>
        <time>2021-10-24T09:00:12Z</time>
      </trkpt>
      <trkpt lat="44.14296" lon="4.54478">
        <ele>255.6</ele>
        <time>2021-10-24T09:00:13Z</time>
      </trkpt>
      <trkpt lat="44.14288" lon="4.54469">
        <ele>255.6</ele>
        <time>2021-10-24T09:00:14Z</time>
      </trkpt>
      <trkpt lat="44.14281" lon="4.54461">
        <ele>255.6</ele>
        <time>2021-10-24T09:00:15Z</time>
      </trkpt>
      <trkpt lat="44.14274" lon="4.54452">
        <ele>255.6</ele>
        <time>2021-10-24T09:00:16Z</time>
      </trkpt>
      <trkpt lat="44.14267" lon="4.54444">
        <ele>255.6</ele>
        <time>2021-10-24T09:00:17Z</time>
      </trkpt>
      <trkpt lat="44.14259" lon="4.54437">
        <ele>255.6</ele>
        <time>2021-10-24T09:00:18Z</time>
      </trkpt>
      <trkpt lat="44.14251" lon="4.5443">
        <ele>255.4</ele>
        <time>2021-10-24T09:00:19Z</time>
      </trkpt>
      <trkpt lat="44.14243" lon="4.54423">
        <ele>255.2</ele>
        <time>2021-10-24T09:00:20Z</time>
      </trkpt>
      <trkpt lat="44.14234" lon="4.54417">
        <ele>255</ele>
        <time>2021-10-24T09:00:21Z</time>
      </trkpt>
      <trkpt lat="44.14224" lon="4.54412">
        <ele>254.6</ele>
        <time>2021-10-24T09:00:22Z</time>
      </trkpt>
      <trkpt lat="44.14215" lon="4.54406">
        <ele>254.8</ele>
        <time>2021-10-24T09:00:23Z</time>
      </trkpt>
      <trkpt lat="44.14205" lon="4.544">
        <ele>254.8</ele>
        <time>2021-10-24T09:00:24Z</time>
      </trkpt>
      <trkpt lat="44.14195" lon="4.54395">
        <ele>254.6</ele>
        <time>2021-10-24T09:00:25Z</time>
      </trkpt>
      <trkpt lat="44.14185" lon="4.54389">
        <ele>254.6</ele>
        <time>2021-10-24T09:00:26Z</time>
      </trkpt>
      <trkpt lat="44.14175" lon="4.54383">
        <ele>254.6</ele>
        <time>2021-10-24T09:00:27Z</time>
      </trkpt>
      <trkpt lat="44.14165" lon="4.54377">
        <ele>254.2</ele>
        <time>2021-10-24T09:00:28Z</time>
      </trkpt>
      <trkpt lat="44.14155" lon="4.54372">
        <ele>253.8</ele>
        <time>2021-10-24T09:00:29Z</time>
      </trkpt>
      <trkpt lat="44.14145" lon="4.54366">
        <ele>253.8</ele>
        <time>2021-10-24T09:00:30Z</time>
      </trkpt>
      <trkpt lat="44.14136" lon="4.54359">
        <ele>254</ele>
        <time>2021-10-24T09:00:31Z</time>
      </trkpt>
      <trkpt lat="44.14127" lon="4.54352">
        <ele>253.8</ele>
        <time>2021-10-24T09:00:32Z</time>
      </trkpt>
      <trkpt lat="44.14119" lon="4.54343">
        <ele>253.6</ele>
        <time>2021-10-24T09:00:33Z</time>
      </trkpt>
      <trkpt lat="44.14112" lon="4.54333">
        <ele>253.2</ele>
        <time>2021-10-24T09:00:34Z</time>
      </trkpt>
      <trkpt lat="44.14107" lon="4.54321">
        <ele>253</ele>
        <time>2021-10-24T09:00:35Z</time>
      </trkpt>
      <trkpt lat="44.14103" lon="4.54309">
        <ele>252.6</ele>
        <time>2021-10-24T09:00:36Z</time>
      </trkpt>
      <trkpt lat="44.141" lon="4.54297">
        <ele>252.2</ele>
        <time>2021-10-24T09:00:37Z</time>
      </trkpt>
      <trkpt lat="44.14097" lon="4.54286">
        <ele>252.2</ele>
        <time>2021-10-24T09:00:38Z</time>
      </trkpt>
      <trkpt lat="44.14093" lon="4.54275">
        <ele>251.8</ele>
        <time>2021-10-24T09:00:39Z</time>
      </trkpt>
      <trkpt lat="44.14087" lon="4.54264">
        <ele>251.8</ele>
        <time>2021-10-24T09:00:40Z</time>
      </trkpt>
      <trkpt lat="44.14081" lon="4.54254">
        <ele>251.8</ele>
        <time>2021-10-24T09:00:41Z</time>
      </trkpt>
      <trkpt lat="44.14075" lon="4.54245">
        <ele>251.6</ele>
        <time>2021-10-24T09:00:42Z</time>
      </trkpt>
      <trkpt lat="44.14068" lon="4.54237">
        <ele>251.6</ele>
        <time>2021-10-24T09:00:43Z</time>
      </trkpt>
      <trkpt lat="44.14061" lon="4.54229">
        <ele>251.8</ele>
        <time>2021-10-24T09:00:44Z</time>
      </trkpt>
      <trkpt lat="44.14054" lon="4.54221">
        <ele>251.6</ele>
        <time>2021-10-24T09:00:45Z</time>
      </trkpt>
      <trkpt lat="44.14046" lon="4.54212">
        <ele>251.4</ele>
        <time>2021-10-24T09:00:46Z</time>
      </trkpt>
      <trkpt lat="44.14039" lon="4.54205">
        <ele>251.2</ele>
        <time>2021-10-24T09:00:47Z</time>
      </trkpt>
      <trkpt lat="44.14031" lon="4.54198">
        <ele>250.6</ele>
        <time>2021-10-24T09:00:48Z</time>
      </trkpt>
      <trkpt lat="44.14023" lon="4.54191">
        <ele>250.4</ele>
        <time>2021-10-24T09:00:49Z</time>
      </trkpt>
      <trkpt lat="44.14015" lon="4.54186">
        <ele>250.2</ele>
        <time>2021-10-24T09:00:50Z</time>
      </trkpt>
      <trkpt lat="44.14007" lon="4.54181">
        <ele>250.2</ele>
        <time>2021-10-24T09:00:51Z</time>
      </trkpt>
      <trkpt lat="44.13999" lon="4.54177">
        <ele>250</ele>
        <time>2021-10-24T09:00:52Z</time>
      </trkpt>
      <trkpt lat="44.13991" lon="4.54172">
        <ele>249.8</ele>
        <time>2021-10-24T09:00:53Z</time>
      </trkpt>
      <trkpt lat="44.13983" lon="4.54169">
        <ele>250</ele>
        <time>2021-10-24T09:00:54Z</time>
      </trkpt>
      <trkpt lat="44.13975" lon="4.54165">
        <ele>249.6</ele>
        <time>2021-10-24T09:00:55Z</time>
      </trkpt>
      <trkpt lat="44.13967" lon="4.54162">
        <ele>249.6</ele>
        <time>2021-10-24T09:00:56Z</time>
      </trkpt>
      <trkpt lat="44.13959" lon="4.5416">
        <ele>249.2</ele>
        <time>2021-10-24T09:00:57Z</time>
      </trkpt>
      <trkpt lat="44.13951" lon="4.54158">
        <ele>249</ele>
        <time>2021-10-24T09:00:58Z</time>
      </trkpt>
      <trkpt lat="44.13944" lon="4.54158">
        <ele>249.2</ele>
        <time>2021-10-24T09:00:59Z</time>
      </trkpt>
      <trkpt lat="44.13938" lon="4.54157">
        <ele>249.4</ele>
        <time>2021-10-24T09:01:00Z</time>
      </trkpt>
      <trkpt lat="44.13935" lon="4.54156">
        <ele>249.2</ele>
        <time>2021-10-24T09:01:01Z</time>
      </trkpt>
      <trkpt lat="44.13933" lon="4.54157">
        <ele>248.8</ele>
        <time>2021-10-24T09:01:02Z</time>
      </trkpt>
      <trkpt lat="44.13932" lon="4.5416">
        <ele>246.6</ele>
        <time>2021-10-24T09:01:14Z</time>
      </trkpt>
      <trkpt lat="44.13929" lon="4.54161">
        <ele>246.4</ele>
        <time>2021-10-24T09:01:33Z</time>
      </trkpt>
      <trkpt lat="44.13927" lon="4.54162">
        <ele>246.6</ele>
        <time>2021-10-24T09:01:34Z</time>
      </trkpt>
      <trkpt lat="44.13925" lon="4.54162">
        <ele>246.6</ele>
        <time>2021-10-24T09:01:35Z</time>
      </trkpt>
      <trkpt lat="44.13922" lon="4.54162">
        <ele>246.6</ele>
        <time>2021-10-24T09:01:36Z</time>
      </trkpt>
      <trkpt lat="44.13919" lon="4.54163">
        <ele>246.6</ele>
        <time>2021-10-24T09:01:37Z</time>
      </trkpt>
      <trkpt lat="44.13916" lon="4.54164">
        <ele>246.4</ele>
        <time>2021-10-24T09:01:38Z</time>
      </trkpt>
      <trkpt lat="44.13911" lon="4.54165">
        <ele>246.4</ele>
        <time>2021-10-24T09:01:39Z</time>
      </trkpt>
      <trkpt lat="44.13906" lon="4.54168">
        <ele>246.4</ele>
        <time>2021-10-24T09:01:40Z</time>
      </trkpt>
      <trkpt lat="44.13902" lon="4.54171">
        <ele>246.6</ele>
        <time>2021-10-24T09:01:41Z</time>
      </trkpt>
      <trkpt lat="44.13897" lon="4.54175">
        <ele>246.6</ele>
        <time>2021-10-24T09:01:42Z</time>
      </trkpt>
      <trkpt lat="44.13891" lon="4.5418">
        <ele>246.6</ele>
        <time>2021-10-24T09:01:43Z</time>
      </trkpt>
      <trkpt lat="44.13885" lon="4.54186">
        <ele>246.4</ele>
        <time>2021-10-24T09:01:44Z</time>
      </trkpt>
      <trkpt lat="44.13879" lon="4.54191">
        <ele>246.6</ele>
        <time>2021-10-24T09:01:45Z</time>
      </trkpt>
      <trkpt lat="44.13873" lon="4.54197">
        <ele>246.8</ele>
        <time>2021-10-24T09:01:46Z</time>
      </trkpt>
      <trkpt lat="44.13867" lon="4.54203">
        <ele>247.2</ele>
        <time>2021-10-24T09:01:47Z</time>
      </trkpt>
      <trkpt lat="44.1386" lon="4.5421">
        <ele>247.6</ele>
        <time>2021-10-24T09:01:48Z</time>
      </trkpt>
      <trkpt lat="44.13854" lon="4.54216">
        <ele>248</ele>
        <time>2021-10-24T09:01:49Z</time>
      </trkpt>
      <trkpt lat="44.13848" lon="4.54223">
        <ele>247.8</ele>
        <time>2021-10-24T09:01:50Z</time>
      </trkpt>
      <trkpt lat="44.13841" lon="4.54229">
        <ele>247.8</ele>
        <time>2021-10-24T09:01:51Z</time>
      </trkpt>
      <trkpt lat="44.13835" lon="4.54236">
        <ele>248.2</ele>
        <time>2021-10-24T09:01:52Z</time>
      </trkpt>
      <trkpt lat="44.13829" lon="4.54242">
        <ele>248</ele>
        <time>2021-10-24T09:01:53Z</time>
      </trkpt>
      <trkpt lat="44.13823" lon="4.54249">
        <ele>247.8</ele>
        <time>2021-10-24T09:01:54Z</time>
      </trkpt>
      <trkpt lat="44.13817" lon="4.54257">
        <ele>248</ele>
        <time>2021-10-24T09:01:55Z</time>
      </trkpt>
      <trkpt lat="44.13812" lon="4.54265">
        <ele>248</ele>
        <time>2021-10-24T09:01:56Z</time>
      </trkpt>
      <trkpt lat="44.13807" lon="4.54273">
        <ele>247.8</ele>
        <time>2021-10-24T09:01:57Z</time>
      </trkpt>
      <trkpt lat="44.13803" lon="4.54282">
        <ele>247.8</ele>
        <time>2021-10-24T09:01:58Z</time>
      </trkpt>
      <trkpt lat="44.13799" lon="4.54292">
        <ele>247.8</ele>
        <time>2021-10-24T09:01:59Z</time>
      </trkpt>
      <trkpt lat="44.13795" lon="4.54301">
        <ele>248</ele>
        <time>2021-10-24T09:02:00Z</time>
      </trkpt>
      <trkpt lat="44.1379" lon="4.54311">
        <ele>247.8</ele>
        <time>2021-10-24T09:02:01Z</time>
      </trkpt>
      <trkpt lat="44.13786" lon="4.5432">
        <ele>247.4</ele>
        <time>2021-10-24T09:02:02Z</time>
      </trkpt>
      <trkpt lat="44.13781" lon="4.5433">
        <ele>247.2</ele>
        <time>2021-10-24T09:02:03Z</time>
      </trkpt>
      <trkpt lat="44.13776" lon="4.54339">
        <ele>247</ele>
        <time>2021-10-24T09:02:04Z</time>
      </trkpt>
      <trkpt lat="44.1377" lon="4.54347">
        <ele>246.6</ele>
        <time>2021-10-24T09:02:05Z</time>
      </trkpt>
      <trkpt lat="44.13762" lon="4.54353">
        <ele>246.4</ele>
        <time>2021-10-24T09:02:06Z</time>
      </trkpt>
      <trkpt lat="44.13754" lon="4.54358">
        <ele>246.2</ele>
        <time>2021-10-24T09:02:07Z</time>
      </trkpt>
      <trkpt lat="44.13745" lon="4.5436">
        <ele>245.8</ele>
        <time>2021-10-24T09:02:08Z</time>
      </trkpt>
      <trkpt lat="44.13736" lon="4.54361">
        <ele>245.6</ele>
        <time>2021-10-24T09:02:09Z</time>
      </trkpt>
      <trkpt lat="44.13727" lon="4.5436">
        <ele>245.2</ele>
        <time>2021-10-24T09:02:10Z</time>
      </trkpt>
      <trkpt lat="44.13718" lon="4.54358">
        <ele>245</ele>
        <time>2021-10-24T09:02:11Z</time>
      </trkpt>
      <trkpt lat="44.13709" lon="4.54357">
        <ele>245</ele>
        <time>2021-10-24T09:02:12Z</time>
      </trkpt>
      <trkpt lat="44.137" lon="4.54356">
        <ele>244.8</ele>
        <time>2021-10-24T09:02:13Z</time>
      </trkpt>
      <trkpt lat="44.13691" lon="4.54356">
        <ele>244.8</ele>
        <time>2021-10-24T09:02:14Z</time>
      </trkpt>
      <trkpt lat="44.13681" lon="4.54358">
        <ele>244.8</ele>
        <time>2021-10-24T09:02:15Z</time>
      </trkpt>
      <trkpt lat="44.13673" lon="4.54362">
        <ele>244.4</ele>
        <time>2021-10-24T09:02:16Z</time>
      </trkpt>
      <trkpt lat="44.13664" lon="4.54368">
        <ele>244.2</ele>
        <time>2021-10-24T09:02:17Z</time>
      </trkpt>
      <trkpt lat="44.13656" lon="4.54375">
        <ele>243.8</ele>
        <time>2021-10-24T09:02:18Z</time>
      </trkpt>
      <trkpt lat="44.13647" lon="4.54381">
        <ele>243.4</ele>
        <time>2021-10-24T09:02:19Z</time>
      </trkpt>
      <trkpt lat="44.13638" lon="4.54386">
        <ele>243.4</ele>
        <time>2021-10-24T09:02:20Z</time>
      </trkpt>
      <trkpt lat="44.13628" lon="4.54389">
        <ele>243</ele>
        <time>2021-10-24T09:02:21Z</time>
      </trkpt>
      <trkpt lat="44.13618" lon="4.54392">
        <ele>242.6</ele>
        <time>2021-10-24T09:02:22Z</time>
      </trkpt>
      <trkpt lat="44.13608" lon="4.54394">
        <ele>242</ele>
        <time>2021-10-24T09:02:23Z</time>
      </trkpt>
      <trkpt lat="44.13598" lon="4.54396">
        <ele>241.6</ele>
        <time>2021-10-24T09:02:24Z</time>
      </trkpt>
      <trkpt lat="44.13587" lon="4.54397">
        <ele>241</ele>
        <time>2021-10-24T09:02:25Z</time>
      </trkpt>
      <trkpt lat="44.13577" lon="4.54399">
        <ele>240.6</ele>
        <time>2021-10-24T09:02:26Z</time>
      </trkpt>
      <trkpt lat="44.13566" lon="4.54401">
        <ele>240</ele>
        <time>2021-10-24T09:02:27Z</time>
      </trkpt>
      <trkpt lat="44.13556" lon="4.54403">
        <ele>240</ele>
        <time>2021-10-24T09:02:28Z</time>
      </trkpt>
      <trkpt lat="44.13546" lon="4.54405">
        <ele>239.4</ele>
        <time>2021-10-24T09:02:29Z</time>
      </trkpt>
      <trkpt lat="44.13535" lon="4.54407">
        <ele>239.4</ele>
        <time>2021-10-24T09:02:30Z</time>
      </trkpt>
      <trkpt lat="44.13525" lon="4.54409">
        <ele>239.4</ele>
        <time>2021-10-24T09:02:31Z</time>
      </trkpt>
      <trkpt lat="44.13515" lon="4.5441">
        <ele>239</ele>
        <time>2021-10-24T09:02:32Z</time>
      </trkpt>
      <trkpt lat="44.13505" lon="4.54409">
        <ele>238.8</ele>
        <time>2021-10-24T09:02:33Z</time>
      </trkpt>
      <trkpt lat="44.13495" lon="4.54406">
        <ele>238.4</ele>
        <time>2021-10-24T09:02:34Z</time>
      </trkpt>
      <trkpt lat="44.13486" lon="4.54401">
        <ele>237.8</ele>
        <time>2021-10-24T09:02:35Z</time>
      </trkpt>
      <trkpt lat="44.13477" lon="4.54393">
        <ele>237.2</ele>
        <time>2021-10-24T09:02:36Z</time>
      </trkpt>
      <trkpt lat="44.13468" lon="4.54386">
        <ele>236.6</ele>
        <time>2021-10-24T09:02:37Z</time>
      </trkpt>
      <trkpt lat="44.1346" lon="4.54377">
        <ele>236.2</ele>
        <time>2021-10-24T09:02:38Z</time>
      </trkpt>
      <trkpt lat="44.13451" lon="4.54368">
        <ele>235.8</ele>
        <time>2021-10-24T09:02:39Z</time>
      </trkpt>
      <trkpt lat="44.13443" lon="4.54359">
        <ele>235.2</ele>
        <time>2021-10-24T09:02:40Z</time>
      </trkpt>
      <trkpt lat="44.13434" lon="4.5435">
        <ele>234.8</ele>
        <time>2021-10-24T09:02:41Z</time>
      </trkpt>
      <trkpt lat="44.13426" lon="4.54341">
        <ele>234.4</ele>
        <time>2021-10-24T09:02:42Z</time>
      </trkpt>
      <trkpt lat="44.13417" lon="4.54332">
        <ele>233.6</ele>
        <time>2021-10-24T09:02:43Z</time>
      </trkpt>
      <trkpt lat="44.13408" lon="4.54324">
        <ele>233.2</ele>
        <time>2021-10-24T09:02:44Z</time>
      </trkpt>
      <trkpt lat="44.13399" lon="4.54315">
        <ele>232.6</ele>
        <time>2021-10-24T09:02:45Z</time>
      </trkpt>
      <trkpt lat="44.13391" lon="4.54306">
        <ele>232.6</ele>
        <time>2021-10-24T09:02:46Z</time>
      </trkpt>
      <trkpt lat="44.13382" lon="4.54297">
        <ele>232.2</ele>
        <time>2021-10-24T09:02:47Z</time>
      </trkpt>
      <trkpt lat="44.13374" lon="4.54286">
        <ele>231.8</ele>
        <time>2021-10-24T09:02:48Z</time>
      </trkpt>
      <trkpt lat="44.13367" lon="4.54275">
        <ele>231.4</ele>
        <time>2021-10-24T09:02:49Z</time>
      </trkpt>
      <trkpt lat="44.1336" lon="4.54265">
        <ele>231</ele>
        <time>2021-10-24T09:02:50Z</time>
      </trkpt>
      <trkpt lat="44.13353" lon="4.54254">
        <ele>230.8</ele>
        <time>2021-10-24T09:02:51Z</time>
      </trkpt>
      <trkpt lat="44.13346" lon="4.54242">
        <ele>230.2</ele>
        <time>2021-10-24T09:02:52Z</time>
      </trkpt>
      <trkpt lat="44.1334" lon="4.54231">
        <ele>229.6</ele>
        <time>2021-10-24T09:02:53Z</time>
      </trkpt>
      <trkpt lat="44.13335" lon="4.54219">
        <ele>229.2</ele>
        <time>2021-10-24T09:02:54Z</time>
      </trkpt>
      <trkpt lat="44.13331" lon="4.54205">
        <ele>228.8</ele>
        <time>2021-10-24T09:02:55Z</time>
      </trkpt>
      <trkpt lat="44.13328" lon="4.54192">
        <ele>228.2</ele>
        <time>2021-10-24T09:02:56Z</time>
      </trkpt>
      <trkpt lat="44.13326" lon="4.54179">
        <ele>228</ele>
        <time>2021-10-24T09:02:57Z</time>
      </trkpt>
      <trkpt lat="44.13324" lon="4.54165">
        <ele>227.6</ele>
        <time>2021-10-24T09:02:58Z</time>
      </trkpt>
      <trkpt lat="44.13322" lon="4.54151">
        <ele>227.4</ele>
        <time>2021-10-24T09:02:59Z</time>
      </trkpt>
      <trkpt lat="44.1332" lon="4.54137">
        <ele>227</ele>
        <time>2021-10-24T09:03:00Z</time>
      </trkpt>
      <trkpt lat="44.13317" lon="4.54123">
        <ele>227</ele>
        <time>2021-10-24T09:03:01Z</time>
      </trkpt>
      <trkpt lat="44.13315" lon="4.54109">
        <ele>226.8</ele>
        <time>2021-10-24T09:03:02Z</time>
      </trkpt>
      <trkpt lat="44.13313" lon="4.54095">
        <ele>226.4</ele>
        <time>2021-10-24T09:03:03Z</time>
      </trkpt>
      <trkpt lat="44.1331" lon="4.54081">
        <ele>226.2</ele>
        <time>2021-10-24T09:03:04Z</time>
      </trkpt>
      <trkpt lat="44.13308" lon="4.54067">
        <ele>225.8</ele>
        <time>2021-10-24T09:03:05Z</time>
      </trkpt>
      <trkpt lat="44.13305" lon="4.54053">
        <ele>225.2</ele>
        <time>2021-10-24T09:03:06Z</time>
      </trkpt>
      <trkpt lat="44.13303" lon="4.54039">
        <ele>224.6</ele>
        <time>2021-10-24T09:03:07Z</time>
      </trkpt>
      <trkpt lat="44.133" lon="4.54025">
        <ele>224.2</ele>
        <time>2021-10-24T09:03:08Z</time>
      </trkpt>
      <trkpt lat="44.13298" lon="4.5401">
        <ele>223.6</ele>
        <time>2021-10-24T09:03:09Z</time>
      </trkpt>
      <trkpt lat="44.13296" lon="4.53996">
        <ele>223</ele>
        <time>2021-10-24T09:03:10Z</time>
      </trkpt>
      <trkpt lat="44.13294" lon="4.53982">
        <ele>222.6</ele>
        <time>2021-10-24T09:03:11Z</time>
      </trkpt>
      <trkpt lat="44.13291" lon="4.53968">
        <ele>221.8</ele>
        <time>2021-10-24T09:03:12Z</time>
      </trkpt>
      <trkpt lat="44.13287" lon="4.53954">
        <ele>221.6</ele>
        <time>2021-10-24T09:03:13Z</time>
      </trkpt>
      <trkpt lat="44.13283" lon="4.5394">
        <ele>221</ele>
        <time>2021-10-24T09:03:14Z</time>
      </trkpt>
      <trkpt lat="44.13277" lon="4.53926">
        <ele>220.8</ele>
        <time>2021-10-24T09:03:15Z</time>
      </trkpt>
      <trkpt lat="44.13271" lon="4.53914">
        <ele>220.6</ele>
        <time>2021-10-24T09:03:16Z</time>
      </trkpt>
      <trkpt lat="44.13264" lon="4.53902">
        <ele>220.4</ele>
        <time>2021-10-24T09:03:17Z</time>
      </trkpt>
      <trkpt lat="44.13258" lon="4.5389">
        <ele>220</ele>
        <time>2021-10-24T09:03:18Z</time>
      </trkpt>
      <trkpt lat="44.13251" lon="4.53879">
        <ele>219.4</ele>
        <time>2021-10-24T09:03:19Z</time>
      </trkpt>
      <trkpt lat="44.13246" lon="4.53867">
        <ele>219</ele>
        <time>2021-10-24T09:03:20Z</time>
      </trkpt>
      <trkpt lat="44.13243" lon="4.53854">
        <ele>218.8</ele>
        <time>2021-10-24T09:03:21Z</time>
      </trkpt>
      <trkpt lat="44.13241" lon="4.53841">
        <ele>218.2</ele>
        <time>2021-10-24T09:03:22Z</time>
      </trkpt>
      <trkpt lat="44.13238" lon="4.53829">
        <ele>217.6</ele>
        <time>2021-10-24T09:03:23Z</time>
      </trkpt>
      <trkpt lat="44.13232" lon="4.53818">
        <ele>216.8</ele>
        <time>2021-10-24T09:03:24Z</time>
      </trkpt>
      <trkpt lat="44.13225" lon="4.5381">
        <ele>216.2</ele>
        <time>2021-10-24T09:03:25Z</time>
      </trkpt>
      <trkpt lat="44.13215" lon="4.53805">
        <ele>215.6</ele>
        <time>2021-10-24T09:03:26Z</time>
      </trkpt>
      <trkpt lat="44.13206" lon="4.53803">
        <ele>215.2</ele>
        <time>2021-10-24T09:03:27Z</time>
      </trkpt>
      <trkpt lat="44.13196" lon="4.53803">
        <ele>214.6</ele>
        <time>2021-10-24T09:03:28Z</time>
      </trkpt>
      <trkpt lat="44.13186" lon="4.53804">
        <ele>214.2</ele>
        <time>2021-10-24T09:03:29Z</time>
      </trkpt>
      <trkpt lat="44.13176" lon="4.53805">
        <ele>214</ele>
        <time>2021-10-24T09:03:30Z</time>
      </trkpt>
      <trkpt lat="44.13166" lon="4.53805">
        <ele>213.6</ele>
        <time>2021-10-24T09:03:31Z</time>
      </trkpt>
      <trkpt lat="44.13155" lon="4.53804">
        <ele>213.2</ele>
        <time>2021-10-24T09:03:32Z</time>
      </trkpt>
      <trkpt lat="44.13145" lon="4.53801">
        <ele>212.6</ele>
        <time>2021-10-24T09:03:33Z</time>
      </trkpt>
      <trkpt lat="44.13136" lon="4.53797">
        <ele>212.4</ele>
        <time>2021-10-24T09:03:34Z</time>
      </trkpt>
      <trkpt lat="44.13126" lon="4.53793">
        <ele>212.2</ele>
        <time>2021-10-24T09:03:35Z</time>
      </trkpt>
      <trkpt lat="44.13117" lon="4.53789">
        <ele>212</ele>
        <time>2021-10-24T09:03:36Z</time>
      </trkpt>
      <trkpt lat="44.13107" lon="4.53787">
        <ele>211.6</ele>
        <time>2021-10-24T09:03:37Z</time>
      </trkpt>
      <trkpt lat="44.13097" lon="4.53787">
        <ele>211</ele>
        <time>2021-10-24T09:03:38Z</time>
      </trkpt>
      <trkpt lat="44.13087" lon="4.53789">
        <ele>210.6</ele>
        <time>2021-10-24T09:03:39Z</time>
      </trkpt>
      <trkpt lat="44.13078" lon="4.53795">
        <ele>210</ele>
        <time>2021-10-24T09:03:40Z</time>
      </trkpt>
      <trkpt lat="44.1307" lon="4.53805">
        <ele>209.6</ele>
        <time>2021-10-24T09:03:41Z</time>
      </trkpt>
      <trkpt lat="44.13063" lon="4.53816">
        <ele>209.2</ele>
        <time>2021-10-24T09:03:42Z</time>
      </trkpt>
      <trkpt lat="44.13057" lon="4.53828">
        <ele>208.6</ele>
        <time>2021-10-24T09:03:43Z</time>
      </trkpt>
      <trkpt lat="44.13051" lon="4.5384">
        <ele>207.8</ele>
        <time>2021-10-24T09:03:44Z</time>
      </trkpt>
      <trkpt lat="44.13045" lon="4.53852">
        <ele>207.2</ele>
        <time>2021-10-24T09:03:45Z</time>
      </trkpt>
      <trkpt lat="44.13039" lon="4.53864">
        <ele>207.2</ele>
        <time>2021-10-24T09:03:46Z</time>
      </trkpt>
      <trkpt lat="44.13032" lon="4.53874">
        <ele>207.2</ele>
        <time>2021-10-24T09:03:47Z</time>
      </trkpt>
      <trkpt lat="44.13024" lon="4.53884">
        <ele>206.6</ele>
        <time>2021-10-24T09:03:48Z</time>
      </trkpt>
      <trkpt lat="44.13015" lon="4.5389">
        <ele>206</ele>
        <time>2021-10-24T09:03:49Z</time>
      </trkpt>
      <trkpt lat="44.13006" lon="4.53893">
        <ele>205.6</ele>
        <time>2021-10-24T09:03:50Z</time>
      </trkpt>
      <trkpt lat="44.12996" lon="4.53896">
        <ele>205.2</ele>
        <time>2021-10-24T09:03:51Z</time>
      </trkpt>
      <trkpt lat="44.12986" lon="4.53897">
        <ele>204.8</ele>
        <time>2021-10-24T09:03:52Z</time>
      </trkpt>
      <trkpt lat="44.12976" lon="4.53898">
        <ele>204.4</ele>
        <time>2021-10-24T09:03:53Z</time>
      </trkpt>
      <trkpt lat="44.12967" lon="4.53899">
        <ele>204.2</ele>
        <time>2021-10-24T09:03:54Z</time>
      </trkpt>
      <trkpt lat="44.12957" lon="4.539">
        <ele>203.6</ele>
        <time>2021-10-24T09:03:55Z</time>
      </trkpt>
      <trkpt lat="44.12947" lon="4.53901">
        <ele>203.2</ele>
        <time>2021-10-24T09:03:56Z</time>
      </trkpt>
      <trkpt lat="44.12937" lon="4.53903">
        <ele>202.6</ele>
        <time>2021-10-24T09:03:57Z</time>
      </trkpt>
      <trkpt lat="44.12927" lon="4.53904">
        <ele>202.2</ele>
        <time>2021-10-24T09:03:58Z</time>
      </trkpt>
      <trkpt lat="44.12917" lon="4.53905">
        <ele>201.8</ele>
        <time>2021-10-24T09:03:59Z</time>
      </trkpt>
      <trkpt lat="44.12907" lon="4.53906">
        <ele>201.8</ele>
        <time>2021-10-24T09:04:00Z</time>
      </trkpt>
      <trkpt lat="44.12897" lon="4.53907">
        <ele>201.6</ele>
        <time>2021-10-24T09:04:01Z</time>
      </trkpt>
      <trkpt lat="44.12887" lon="4.53909">
        <ele>201.4</ele>
        <time>2021-10-24T09:04:02Z</time>
      </trkpt>
      <trkpt lat="44.12877" lon="4.5391">
        <ele>201.2</ele>
        <time>2021-10-24T09:04:03Z</time>
      </trkpt>
      <trkpt lat="44.12867" lon="4.53911">
        <ele>201.2</ele>
        <time>2021-10-24T09:04:04Z</time>
      </trkpt>
      <trkpt lat="44.12857" lon="4.53912">
        <ele>200.8</ele>
        <time>2021-10-24T09:04:05Z</time>
      </trkpt>
      <trkpt lat="44.12847" lon="4.53915">
        <ele>200.8</ele>
        <time>2021-10-24T09:04:06Z</time>
      </trkpt>
      <trkpt lat="44.12838" lon="4.5392">
        <ele>200.4</ele>
        <time>2021-10-24T09:04:07Z</time>
      </trkpt>
      <trkpt lat="44.1283" lon="4.53928">
        <ele>200</ele>
        <time>2021-10-24T09:04:08Z</time>
      </trkpt>
      <trkpt lat="44.12824" lon="4.53939">
        <ele>199.2</ele>
        <time>2021-10-24T09:04:09Z</time>
      </trkpt>
      <trkpt lat="44.12818" lon="4.53951">
        <ele>199</ele>
        <time>2021-10-24T09:04:10Z</time>
      </trkpt>
      <trkpt lat="44.12813" lon="4.53963">
        <ele>198.4</ele>
        <time>2021-10-24T09:04:11Z</time>
      </trkpt>
      <trkpt lat="44.12808" lon="4.53975">
        <ele>198.2</ele>
        <time>2021-10-24T09:04:12Z</time>
      </trkpt>
      <trkpt lat="44.12804" lon="4.53988">
        <ele>198</ele>
        <time>2021-10-24T09:04:13Z</time>
      </trkpt>
      <trkpt lat="44.12799" lon="4.54001">
        <ele>197.6</ele>
        <time>2021-10-24T09:04:14Z</time>
      </trkpt>
      <trkpt lat="44.12794" lon="4.54014">
        <ele>197.2</ele>
        <time>2021-10-24T09:04:15Z</time>
      </trkpt>
      <trkpt lat="44.12789" lon="4.54027">
        <ele>196.8</ele>
        <time>2021-10-24T09:04:16Z</time>
      </trkpt>
      <trkpt lat="44.12784" lon="4.5404">
        <ele>196.2</ele>
        <time>2021-10-24T09:04:17Z</time>
      </trkpt>
      <trkpt lat="44.12779" lon="4.54053">
        <ele>196</ele>
        <time>2021-10-24T09:04:18Z</time>
      </trkpt>
      <trkpt lat="44.12773" lon="4.54065">
        <ele>195.4</ele>
        <time>2021-10-24T09:04:19Z</time>
      </trkpt>
      <trkpt lat="44.12767" lon="4.54077">
        <ele>194.8</ele>
        <time>2021-10-24T09:04:20Z</time>
      </trkpt>
      <trkpt lat="44.12761" lon="4.54088">
        <ele>195</ele>
        <time>2021-10-24T09:04:21Z</time>
      </trkpt>
      <trkpt lat="44.12753" lon="4.54098">
        <ele>194.6</ele>
        <time>2021-10-24T09:04:22Z</time>
      </trkpt>
      <trkpt lat="44.12745" lon="4.54105">
        <ele>194.4</ele>
        <time>2021-10-24T09:04:23Z</time>
      </trkpt>
      <trkpt lat="44.12735" lon="4.5411">
        <ele>193.8</ele>
        <time>2021-10-24T09:04:24Z</time>
      </trkpt>
      <trkpt lat="44.12725" lon="4.54113">
        <ele>193.4</ele>
        <time>2021-10-24T09:04:25Z</time>
      </trkpt>
      <trkpt lat="44.12715" lon="4.54115">
        <ele>192.4</ele>
        <time>2021-10-24T09:04:26Z</time>
      </trkpt>
      <trkpt lat="44.12704" lon="4.54116">
        <ele>192</ele>
        <time>2021-10-24T09:04:27Z</time>
      </trkpt>
      <trkpt lat="44.12694" lon="4.54117">
        <ele>191.4</ele>
        <time>2021-10-24T09:04:28Z</time>
      </trkpt>
      <trkpt lat="44.12684" lon="4.54117">
        <ele>191.2</ele>
        <time>2021-10-24T09:04:29Z</time>
      </trkpt>
      <trkpt lat="44.12674" lon="4.54117">
        <ele>190.6</ele>
        <time>2021-10-24T09:04:30Z</time>
      </trkpt>
      <trkpt lat="44.12664" lon="4.54118">
        <ele>190.2</ele>
        <time>2021-10-24T09:04:31Z</time>
      </trkpt>
      <trkpt lat="44.12654" lon="4.54118">
        <ele>189.8</ele>
        <time>2021-10-24T09:04:32Z</time>
      </trkpt>
      <trkpt lat="44.12644" lon="4.54118">
        <ele>189.2</ele>
        <time>2021-10-24T09:04:33Z</time>
      </trkpt>
      <trkpt lat="44.12634" lon="4.54118">
        <ele>188.6</ele>
        <time>2021-10-24T09:04:34Z</time>
      </trkpt>
      <trkpt lat="44.12625" lon="4.54119">
        <ele>188.2</ele>
        <time>2021-10-24T09:04:35Z</time>
      </trkpt>
      <trkpt lat="44.12615" lon="4.54119">
        <ele>188</ele>
        <time>2021-10-24T09:04:36Z</time>
      </trkpt>
      <trkpt lat="44.12606" lon="4.54121">
        <ele>187.8</ele>
        <time>2021-10-24T09:04:37Z</time>
      </trkpt>
      <trkpt lat="44.12599" lon="4.54123">
        <ele>187.4</ele>
        <time>2021-10-24T09:04:38Z</time>
      </trkpt>
      <trkpt lat="44.12592" lon="4.54125">
        <ele>187</ele>
        <time>2021-10-24T09:04:39Z</time>
      </trkpt>
      <trkpt lat="44.12588" lon="4.54127">
        <ele>186.8</ele>
        <time>2021-10-24T09:04:40Z</time>
      </trkpt>
      <trkpt lat="44.12584" lon="4.54129">
        <ele>185.8</ele>
        <time>2021-10-24T09:04:41Z</time>
      </trkpt>
      <trkpt lat="44.12581" lon="4.5413">
        <ele>185</ele>
        <time>2021-10-24T09:04:42Z</time>
      </trkpt>
      <trkpt lat="44.12578" lon="4.54133">
        <ele>184.6</ele>
        <time>2021-10-24T09:04:43Z</time>
      </trkpt>
      <trkpt lat="44.12576" lon="4.54137">
        <ele>184</ele>
        <time>2021-10-24T09:04:44Z</time>
      </trkpt>
      <trkpt lat="44.12573" lon="4.54142">
        <ele>183.8</ele>
        <time>2021-10-24T09:04:45Z</time>
      </trkpt>
      <trkpt lat="44.12569" lon="4.54148">
        <ele>183.4</ele>
        <time>2021-10-24T09:04:46Z</time>
      </trkpt>
      <trkpt lat="44.12565" lon="4.54152">
        <ele>183.4</ele>
        <time>2021-10-24T09:04:47Z</time>
      </trkpt>
      <trkpt lat="44.12558" lon="4.54155">
        <ele>183.4</ele>
        <time>2021-10-24T09:04:48Z</time>
      </trkpt>
      <trkpt lat="44.12552" lon="4.54156">
        <ele>183.4</ele>
        <time>2021-10-24T09:04:49Z</time>
      </trkpt>
      <trkpt lat="44.12544" lon="4.54154">
        <ele>183.4</ele>
        <time>2021-10-24T09:04:50Z</time>
      </trkpt>
      <trkpt lat="44.12538" lon="4.54148">
        <ele>183</ele>
        <time>2021-10-24T09:04:51Z</time>
      </trkpt>
      <trkpt lat="44.12532" lon="4.5414">
        <ele>182.8</ele>
        <time>2021-10-24T09:04:52Z</time>
      </trkpt>
      <trkpt lat="44.12526" lon="4.54131">
        <ele>182.6</ele>
        <time>2021-10-24T09:04:53Z</time>
      </trkpt>
      <trkpt lat="44.12521" lon="4.54121">
        <ele>182.4</ele>
        <time>2021-10-24T09:04:54Z</time>
      </trkpt>
      <trkpt lat="44.12517" lon="4.54109">
        <ele>182.2</ele>
        <time>2021-10-24T09:04:55Z</time>
      </trkpt>
      <trkpt lat="44.12515" lon="4.54097">
        <ele>182</ele>
        <time>2021-10-24T09:04:56Z</time>
      </trkpt>
      <trkpt lat="44.12513" lon="4.54085">
        <ele>181.8</ele>
        <time>2021-10-24T09:04:57Z</time>
      </trkpt>
      <trkpt lat="44.12511" lon="4.54073">
        <ele>181.4</ele>
        <time>2021-10-24T09:04:58Z</time>
      </trkpt>
      <trkpt lat="44.12507" lon="4.54062">
        <ele>181.2</ele>
        <time>2021-10-24T09:04:59Z</time>
      </trkpt>
      <trkpt lat="44.12501" lon="4.54053">
        <ele>181.2</ele>
        <time>2021-10-24T09:05:00Z</time>
      </trkpt>
      <trkpt lat="44.12493" lon="4.54048">
        <ele>181.2</ele>
        <time>2021-10-24T09:05:01Z</time>
      </trkpt>
      <trkpt lat="44.12484" lon="4.54045">
        <ele>181.2</ele>
        <time>2021-10-24T09:05:02Z</time>
      </trkpt>
      <trkpt lat="44.12475" lon="4.54044">
        <ele>180.6</ele>
        <time>2021-10-24T09:05:03Z</time>
      </trkpt>
      <trkpt lat="44.12465" lon="4.54043">
        <ele>180.2</ele>
        <time>2021-10-24T09:05:04Z</time>
      </trkpt>
      <trkpt lat="44.12456" lon="4.54042">
        <ele>179.8</ele>
        <time>2021-10-24T09:05:05Z</time>
      </trkpt>
      <trkpt lat="44.12446" lon="4.54042">
        <ele>179.4</ele>
        <time>2021-10-24T09:05:06Z</time>
      </trkpt>
      <trkpt lat="44.12436" lon="4.54041">
        <ele>179.2</ele>
        <time>2021-10-24T09:05:07Z</time>
      </trkpt>
      <trkpt lat="44.12426" lon="4.5404">
        <ele>179.2</ele>
        <time>2021-10-24T09:05:08Z</time>
      </trkpt>
      <trkpt lat="44.12416" lon="4.54039">
        <ele>179.2</ele>
        <time>2021-10-24T09:05:09Z</time>
      </trkpt>
      <trkpt lat="44.12406" lon="4.54039">
        <ele>178.6</ele>
        <time>2021-10-24T09:05:10Z</time>
      </trkpt>
      <trkpt lat="44.12396" lon="4.54038">
        <ele>178.2</ele>
        <time>2021-10-24T09:05:11Z</time>
      </trkpt>
      <trkpt lat="44.12385" lon="4.54037">
        <ele>177.8</ele>
        <time>2021-10-24T09:05:12Z</time>
      </trkpt>
      <trkpt lat="44.12375" lon="4.54036">
        <ele>177.4</ele>
        <time>2021-10-24T09:05:13Z</time>
      </trkpt>
      <trkpt lat="44.12365" lon="4.54036">
        <ele>177.2</ele>
        <time>2021-10-24T09:05:14Z</time>
      </trkpt>
      <trkpt lat="44.12355" lon="4.54035">
        <ele>177</ele>
        <time>2021-10-24T09:05:15Z</time>
      </trkpt>
      <trkpt lat="44.12345" lon="4.54034">
        <ele>176.4</ele>
        <time>2021-10-24T09:05:16Z</time>
      </trkpt>
      <trkpt lat="44.12335" lon="4.54033">
        <ele>175.8</ele>
        <time>2021-10-24T09:05:17Z</time>
      </trkpt>
      <trkpt lat="44.12325" lon="4.54032">
        <ele>175.8</ele>
        <time>2021-10-24T09:05:18Z</time>
      </trkpt>
      <trkpt lat="44.12316" lon="4.54031">
        <ele>175.4</ele>
        <time>2021-10-24T09:05:19Z</time>
      </trkpt>
      <trkpt lat="44.12307" lon="4.54032">
        <ele>175.6</ele>
        <time>2021-10-24T09:05:20Z</time>
      </trkpt>
      <trkpt lat="44.12298" lon="4.54035">
        <ele>175.2</ele>
        <time>2021-10-24T09:05:21Z</time>
      </trkpt>
      <trkpt lat="44.12292" lon="4.54041">
        <ele>175.4</ele>
        <time>2021-10-24T09:05:22Z</time>
      </trkpt>
      <trkpt lat="44.12287" lon="4.5405">
        <ele>175.6</ele>
        <time>2021-10-24T09:05:23Z</time>
      </trkpt>
      <trkpt lat="44.12284" lon="4.5406">
        <ele>175.8</ele>
        <time>2021-10-24T09:05:24Z</time>
      </trkpt>
      <trkpt lat="44.12281" lon="4.5407">
        <ele>176.2</ele>
        <time>2021-10-24T09:05:25Z</time>
      </trkpt>
      <trkpt lat="44.12279" lon="4.5408">
        <ele>176.4</ele>
        <time>2021-10-24T09:05:26Z</time>
      </trkpt>
      <trkpt lat="44.12276" lon="4.5409">
        <ele>176.6</ele>
        <time>2021-10-24T09:05:27Z</time>
      </trkpt>
      <trkpt lat="44.12274" lon="4.541">
        <ele>176.6</ele>
        <time>2021-10-24T09:05:28Z</time>
      </trkpt>
      <trkpt lat="44.12271" lon="4.5411">
        <ele>176.8</ele>
        <time>2021-10-24T09:05:29Z</time>
      </trkpt>
      <trkpt lat="44.12268" lon="4.54119">
        <ele>177</ele>
        <time>2021-10-24T09:05:30Z</time>
      </trkpt>
      <trkpt lat="44.12264" lon="4.54128">
        <ele>177</ele>
        <time>2021-10-24T09:05:31Z</time>
      </trkpt>
      <trkpt lat="44.12258" lon="4.54134">
        <ele>177.4</ele>
        <time>2021-10-24T09:05:32Z</time>
      </trkpt>
      <trkpt lat="44.12252" lon="4.54138">
        <ele>177.4</ele>
        <time>2021-10-24T09:05:33Z</time>
      </trkpt>
      <trkpt lat="44.12245" lon="4.54139">
        <ele>177.4</ele>
        <time>2021-10-24T09:05:34Z</time>
      </trkpt>
      <trkpt lat="44.12238" lon="4.54141">
        <ele>177.2</ele>
        <time>2021-10-24T09:05:35Z</time>
      </trkpt>
      <trkpt lat="44.12231" lon="4.54142">
        <ele>177.4</ele>
        <time>2021-10-24T09:05:36Z</time>
      </trkpt>
      <trkpt lat="44.12225" lon="4.54144">
        <ele>177.2</ele>
        <time>2021-10-24T09:05:37Z</time>
      </trkpt>
      <trkpt lat="44.12219" lon="4.54146">
        <ele>177.4</ele>
        <time>2021-10-24T09:05:38Z</time>
      </trkpt>
      <trkpt lat="44.12214" lon="4.54149">
        <ele>177.6</ele>
        <time>2021-10-24T09:05:39Z</time>
      </trkpt>
      <trkpt lat="44.12209" lon="4.54153">
        <ele>177.6</ele>
        <time>2021-10-24T09:05:40Z</time>
      </trkpt>
      <trkpt lat="44.12204" lon="4.54157">
        <ele>177.8</ele>
        <time>2021-10-24T09:05:41Z</time>
      </trkpt>
      <trkpt lat="44.122" lon="4.54163">
        <ele>178</ele>
        <time>2021-10-24T09:05:42Z</time>
      </trkpt>
      <trkpt lat="44.12197" lon="4.54169">
        <ele>178.2</ele>
        <time>2021-10-24T09:05:43Z</time>
      </trkpt>
      <trkpt lat="44.12195" lon="4.54177">
        <ele>178.4</ele>
        <time>2021-10-24T09:05:44Z</time>
      </trkpt>
      <trkpt lat="44.12194" lon="4.54184">
        <ele>178.6</ele>
        <time>2021-10-24T09:05:45Z</time>
      </trkpt>
      <trkpt lat="44.12193" lon="4.54193">
        <ele>178.8</ele>
        <time>2021-10-24T09:05:46Z</time>
      </trkpt>
      <trkpt lat="44.12194" lon="4.54201">
        <ele>179.2</ele>
        <time>2021-10-24T09:05:47Z</time>
      </trkpt>
      <trkpt lat="44.12194" lon="4.54209">
        <ele>179.4</ele>
        <time>2021-10-24T09:05:48Z</time>
      </trkpt>
      <trkpt lat="44.12193" lon="4.54216">
        <ele>179.6</ele>
        <time>2021-10-24T09:05:49Z</time>
      </trkpt>
      <trkpt lat="44.12192" lon="4.54223">
        <ele>180</ele>
        <time>2021-10-24T09:05:50Z</time>
      </trkpt>
      <trkpt lat="44.1219" lon="4.5423">
        <ele>180.2</ele>
        <time>2021-10-24T09:05:51Z</time>
      </trkpt>
      <trkpt lat="44.12188" lon="4.54237">
        <ele>180.6</ele>
        <time>2021-10-24T09:05:52Z</time>
      </trkpt>
      <trkpt lat="44.12185" lon="4.54243">
        <ele>180.6</ele>
        <time>2021-10-24T09:05:53Z</time>
      </trkpt>
      <trkpt lat="44.12182" lon="4.54248">
        <ele>180.6</ele>
        <time>2021-10-24T09:05:54Z</time>
      </trkpt>
      <trkpt lat="44.12178" lon="4.54252">
        <ele>180.8</ele>
        <time>2021-10-24T09:05:55Z</time>
      </trkpt>
      <trkpt lat="44.12174" lon="4.54256">
        <ele>181</ele>
        <time>2021-10-24T09:05:56Z</time>
      </trkpt>
      <trkpt lat="44.1217" lon="4.5426">
        <ele>181.2</ele>
        <time>2021-10-24T09:05:57Z</time>
      </trkpt>
      <trkpt lat="44.12166" lon="4.54263">
        <ele>181.6</ele>
        <time>2021-10-24T09:05:58Z</time>
      </trkpt>
      <trkpt lat="44.12162" lon="4.54266">
        <ele>181.6</ele>
        <time>2021-10-24T09:05:59Z</time>
      </trkpt>
      <trkpt lat="44.12158" lon="4.54269">
        <ele>181.8</ele>
        <time>2021-10-24T09:06:00Z</time>
      </trkpt>
      <trkpt lat="44.12153" lon="4.54271">
        <ele>182</ele>
        <time>2021-10-24T09:06:01Z</time>
      </trkpt>
      <trkpt lat="44.12148" lon="4.54272">
        <ele>182.2</ele>
        <time>2021-10-24T09:06:02Z</time>
      </trkpt>
      <trkpt lat="44.12143" lon="4.54272">
        <ele>182.2</ele>
        <time>2021-10-24T09:06:03Z</time>
      </trkpt>
      <trkpt lat="44.12138" lon="4.54272">
        <ele>182.6</ele>
        <time>2021-10-24T09:06:04Z</time>
      </trkpt>
      <trkpt lat="44.12133" lon="4.54272">
        <ele>182.8</ele>
        <time>2021-10-24T09:06:05Z</time>
      </trkpt>
      <trkpt lat="44.12128" lon="4.54272">
        <ele>183.2</ele>
        <time>2021-10-24T09:06:06Z</time>
      </trkpt>
      <trkpt lat="44.12123" lon="4.54272">
        <ele>183.4</ele>
        <time>2021-10-24T09:06:07Z</time>
      </trkpt>
      <trkpt lat="44.12117" lon="4.54272">
        <ele>183.6</ele>
        <time>2021-10-24T09:06:08Z</time>
      </trkpt>
      <trkpt lat="44.12112" lon="4.54273">
        <ele>183.8</ele>
        <time>2021-10-24T09:06:09Z</time>
      </trkpt>
      <trkpt lat="44.12106" lon="4.54273">
        <ele>184</ele>
        <time>2021-10-24T09:06:10Z</time>
      </trkpt>
      <trkpt lat="44.12101" lon="4.54273">
        <ele>184</ele>
        <time>2021-10-24T09:06:11Z</time>
      </trkpt>
      <trkpt lat="44.12095" lon="4.54273">
        <ele>184</ele>
        <time>2021-10-24T09:06:12Z</time>
      </trkpt>
      <trkpt lat="44.12089" lon="4.54274">
        <ele>184.2</ele>
        <time>2021-10-24T09:06:13Z</time>
      </trkpt>
      <trkpt lat="44.12084" lon="4.54274">
        <ele>184.4</ele>
        <time>2021-10-24T09:06:14Z</time>
      </trkpt>
      <trkpt lat="44.12078" lon="4.54274">
        <ele>185</ele>
        <time>2021-10-24T09:06:15Z</time>
      </trkpt>
      <trkpt lat="44.12072" lon="4.54274">
        <ele>185.2</ele>
        <time>2021-10-24T09:06:16Z</time>
      </trkpt>
      <trkpt lat="44.12067" lon="4.54274">
        <ele>185.4</ele>
        <time>2021-10-24T09:06:17Z</time>
      </trkpt>
      <trkpt lat="44.12061" lon="4.54273">
        <ele>185.8</ele>
        <time>2021-10-24T09:06:18Z</time>
      </trkpt>
      <trkpt lat="44.12055" lon="4.5427">
        <ele>186</ele>
        <time>2021-10-24T09:06:19Z</time>
      </trkpt>
      <trkpt lat="44.1205" lon="4.54264">
        <ele>186</ele>
        <time>2021-10-24T09:06:20Z</time>
      </trkpt>
      <trkpt lat="44.12045" lon="4.54257">
        <ele>186</ele>
        <time>2021-10-24T09:06:21Z</time>
      </trkpt>
      <trkpt lat="44.12041" lon="4.54247">
        <ele>186</ele>
        <time>2021-10-24T09:06:22Z</time>
      </trkpt>
      <trkpt lat="44.12038" lon="4.54236">
        <ele>186</ele>
        <time>2021-10-24T09:06:23Z</time>
      </trkpt>
      <trkpt lat="44.12036" lon="4.54225">
        <ele>186</ele>
        <time>2021-10-24T09:06:24Z</time>
      </trkpt>
      <trkpt lat="44.12034" lon="4.54214">
        <ele>186</ele>
        <time>2021-10-24T09:06:25Z</time>
      </trkpt>
      <trkpt lat="44.12033" lon="4.54202">
        <ele>185.8</ele>
        <time>2021-10-24T09:06:26Z</time>
      </trkpt>
      <trkpt lat="44.12031" lon="4.5419">
        <ele>185.8</ele>
        <time>2021-10-24T09:06:27Z</time>
      </trkpt>
      <trkpt lat="44.12029" lon="4.54178">
        <ele>185.6</ele>
        <time>2021-10-24T09:06:28Z</time>
      </trkpt>
      <trkpt lat="44.12028" lon="4.54166">
        <ele>185.4</ele>
        <time>2021-10-24T09:06:29Z</time>
      </trkpt>
      <trkpt lat="44.12026" lon="4.54154">
        <ele>185.4</ele>
        <time>2021-10-24T09:06:30Z</time>
      </trkpt>
      <trkpt lat="44.12024" lon="4.54142">
        <ele>185</ele>
        <time>2021-10-24T09:06:31Z</time>
      </trkpt>
      <trkpt lat="44.12022" lon="4.5413">
        <ele>185</ele>
        <time>2021-10-24T09:06:32Z</time>
      </trkpt>
      <trkpt lat="44.12019" lon="4.54118">
        <ele>184.6</ele>
        <time>2021-10-24T09:06:33Z</time>
      </trkpt>
      <trkpt lat="44.12014" lon="4.54108">
        <ele>184.8</ele>
        <time>2021-10-24T09:06:34Z</time>
      </trkpt>
      <trkpt lat="44.12008" lon="4.54098">
        <ele>184.2</ele>
        <time>2021-10-24T09:06:35Z</time>
      </trkpt>
      <trkpt lat="44.12002" lon="4.54088">
        <ele>183.8</ele>
        <time>2021-10-24T09:06:36Z</time>
      </trkpt>
      <trkpt lat="44.11996" lon="4.54079">
        <ele>183.6</ele>
        <time>2021-10-24T09:06:37Z</time>
      </trkpt>
      <trkpt lat="44.11989" lon="4.5407">
        <ele>183.4</ele>
        <time>2021-10-24T09:06:38Z</time>
      </trkpt>
      <trkpt lat="44.11981" lon="4.54063">
        <ele>183</ele>
        <time>2021-10-24T09:06:39Z</time>
      </trkpt>
      <trkpt lat="44.11972" lon="4.54058">
        <ele>182.6</ele>
        <time>2021-10-24T09:06:40Z</time>
      </trkpt>
      <trkpt lat="44.11962" lon="4.54055">
        <ele>182.4</ele>
        <time>2021-10-24T09:06:41Z</time>
      </trkpt>
      <trkpt lat="44.11952" lon="4.54054">
        <ele>182</ele>
        <time>2021-10-24T09:06:42Z</time>
      </trkpt>
      <trkpt lat="44.11943" lon="4.54053">
        <ele>182</ele>
        <time>2021-10-24T09:06:43Z</time>
      </trkpt>
      <trkpt lat="44.11933" lon="4.54053">
        <ele>181.6</ele>
        <time>2021-10-24T09:06:44Z</time>
      </trkpt>
      <trkpt lat="44.11923" lon="4.54054">
        <ele>181.2</ele>
        <time>2021-10-24T09:06:45Z</time>
      </trkpt>
      <trkpt lat="44.11913" lon="4.54057">
        <ele>180.8</ele>
        <time>2021-10-24T09:06:46Z</time>
      </trkpt>
      <trkpt lat="44.11903" lon="4.54061">
        <ele>180.4</ele>
        <time>2021-10-24T09:06:47Z</time>
      </trkpt>
      <trkpt lat="44.11894" lon="4.54065">
        <ele>180</ele>
        <time>2021-10-24T09:06:48Z</time>
      </trkpt>
      <trkpt lat="44.11884" lon="4.54069">
        <ele>179.4</ele>
        <time>2021-10-24T09:06:49Z</time>
      </trkpt>
      <trkpt lat="44.11875" lon="4.54073">
        <ele>179</ele>
        <time>2021-10-24T09:06:50Z</time>
      </trkpt>
      <trkpt lat="44.11865" lon="4.54076">
        <ele>178.6</ele>
        <time>2021-10-24T09:06:51Z</time>
      </trkpt>
      <trkpt lat="44.11855" lon="4.54077">
        <ele>178.2</ele>
        <time>2021-10-24T09:06:52Z</time>
      </trkpt>
      <trkpt lat="44.11845" lon="4.54077">
        <ele>177.6</ele>
        <time>2021-10-24T09:06:53Z</time>
      </trkpt>
      <trkpt lat="44.11834" lon="4.54077">
        <ele>177.6</ele>
        <time>2021-10-24T09:06:54Z</time>
      </trkpt>
      <trkpt lat="44.11824" lon="4.54077">
        <ele>177</ele>
        <time>2021-10-24T09:06:55Z</time>
      </trkpt>
      <trkpt lat="44.11814" lon="4.54077">
        <ele>176.4</ele>
        <time>2021-10-24T09:06:56Z</time>
      </trkpt>
      <trkpt lat="44.11803" lon="4.54076">
        <ele>176.2</ele>
        <time>2021-10-24T09:06:57Z</time>
      </trkpt>
      <trkpt lat="44.11793" lon="4.54076">
        <ele>175.8</ele>
        <time>2021-10-24T09:06:58Z</time>
      </trkpt>
      <trkpt lat="44.11783" lon="4.54075">
        <ele>175.6</ele>
        <time>2021-10-24T09:06:59Z</time>
      </trkpt>
      <trkpt lat="44.11773" lon="4.54073">
        <ele>174.8</ele>
        <time>2021-10-24T09:07:00Z</time>
      </trkpt>
      <trkpt lat="44.11763" lon="4.54069">
        <ele>174.2</ele>
        <time>2021-10-24T09:07:01Z</time>
      </trkpt>
      <trkpt lat="44.11755" lon="4.54061">
        <ele>174</ele>
        <time>2021-10-24T09:07:02Z</time>
      </trkpt>
      <trkpt lat="44.11748" lon="4.54052">
        <ele>173.8</ele>
        <time>2021-10-24T09:07:03Z</time>
      </trkpt>
      <trkpt lat="44.1174" lon="4.54044">
        <ele>173.4</ele>
        <time>2021-10-24T09:07:04Z</time>
      </trkpt>
      <trkpt lat="44.11732" lon="4.54037">
        <ele>172.8</ele>
        <time>2021-10-24T09:07:05Z</time>
      </trkpt>
      <trkpt lat="44.11722" lon="4.54032">
        <ele>172.2</ele>
        <time>2021-10-24T09:07:06Z</time>
      </trkpt>
      <trkpt lat="44.11712" lon="4.54029">
        <ele>171.8</ele>
        <time>2021-10-24T09:07:07Z</time>
      </trkpt>
      <trkpt lat="44.11702" lon="4.54029">
        <ele>171.4</ele>
        <time>2021-10-24T09:07:08Z</time>
      </trkpt>
      <trkpt lat="44.11693" lon="4.54032">
        <ele>171</ele>
        <time>2021-10-24T09:07:09Z</time>
      </trkpt>
      <trkpt lat="44.11683" lon="4.54038">
        <ele>170.8</ele>
        <time>2021-10-24T09:07:10Z</time>
      </trkpt>
      <trkpt lat="44.11675" lon="4.54045">
        <ele>170.4</ele>
        <time>2021-10-24T09:07:11Z</time>
      </trkpt>
      <trkpt lat="44.11667" lon="4.54055">
        <ele>170</ele>
        <time>2021-10-24T09:07:12Z</time>
      </trkpt>
      <trkpt lat="44.11659" lon="4.54064">
        <ele>169.6</ele>
        <time>2021-10-24T09:07:13Z</time>
      </trkpt>
      <trkpt lat="44.11651" lon="4.54074">
        <ele>169.4</ele>
        <time>2021-10-24T09:07:14Z</time>
      </trkpt>
      <trkpt lat="44.11643" lon="4.54083">
        <ele>168.8</ele>
        <time>2021-10-24T09:07:15Z</time>
      </trkpt>
      <trkpt lat="44.11634" lon="4.54092">
        <ele>168.2</ele>
        <time>2021-10-24T09:07:16Z</time>
      </trkpt>
      <trkpt lat="44.11626" lon="4.541">
        <ele>168.2</ele>
        <time>2021-10-24T09:07:17Z</time>
      </trkpt>
      <trkpt lat="44.11616" lon="4.54107">
        <ele>168</ele>
        <time>2021-10-24T09:07:18Z</time>
      </trkpt>
      <trkpt lat="44.11606" lon="4.54112">
        <ele>167.2</ele>
        <time>2021-10-24T09:07:19Z</time>
      </trkpt>
      <trkpt lat="44.11596" lon="4.54116">
        <ele>166.8</ele>
        <time>2021-10-24T09:07:20Z</time>
      </trkpt>
      <trkpt lat="44.11586" lon="4.54118">
        <ele>166.6</ele>
        <time>2021-10-24T09:07:21Z</time>
      </trkpt>
      <trkpt lat="44.11576" lon="4.54118">
        <ele>166.4</ele>
        <time>2021-10-24T09:07:22Z</time>
      </trkpt>
      <trkpt lat="44.11566" lon="4.54117">
        <ele>166.4</ele>
        <time>2021-10-24T09:07:23Z</time>
      </trkpt>
      <trkpt lat="44.11557" lon="4.54116">
        <ele>166.2</ele>
        <time>2021-10-24T09:07:24Z</time>
      </trkpt>
      <trkpt lat="44.11547" lon="4.54114">
        <ele>166.2</ele>
        <time>2021-10-24T09:07:25Z</time>
      </trkpt>
      <trkpt lat="44.11538" lon="4.54112">
        <ele>166</ele>
        <time>2021-10-24T09:07:26Z</time>
      </trkpt>
      <trkpt lat="44.11529" lon="4.5411">
        <ele>165.8</ele>
        <time>2021-10-24T09:07:27Z</time>
      </trkpt>
      <trkpt lat="44.1152" lon="4.54106">
        <ele>165.6</ele>
        <time>2021-10-24T09:07:28Z</time>
      </trkpt>
      <trkpt lat="44.11513" lon="4.541">
        <ele>165</ele>
        <time>2021-10-24T09:07:29Z</time>
      </trkpt>
      <trkpt lat="44.11509" lon="4.54092">
        <ele>164.4</ele>
        <time>2021-10-24T09:07:30Z</time>
      </trkpt>
      <trkpt lat="44.11506" lon="4.54081">
        <ele>163.6</ele>
        <time>2021-10-24T09:07:31Z</time>
      </trkpt>
      <trkpt lat="44.11507" lon="4.54069">
        <ele>163.2</ele>
        <time>2021-10-24T09:07:32Z</time>
      </trkpt>
      <trkpt lat="44.1151" lon="4.54059">
        <ele>162.8</ele>
        <time>2021-10-24T09:07:33Z</time>
      </trkpt>
      <trkpt lat="44.11515" lon="4.54049">
        <ele>162.2</ele>
        <time>2021-10-24T09:07:34Z</time>
      </trkpt>
      <trkpt lat="44.11521" lon="4.54041">
        <ele>161.8</ele>
        <time>2021-10-24T09:07:35Z</time>
      </trkpt>
      <trkpt lat="44.11528" lon="4.54034">
        <ele>161.4</ele>
        <time>2021-10-24T09:07:36Z</time>
      </trkpt>
      <trkpt lat="44.11535" lon="4.54026">
        <ele>161</ele>
        <time>2021-10-24T09:07:37Z</time>
      </trkpt>
      <trkpt lat="44.11542" lon="4.54018">
        <ele>160.8</ele>
        <time>2021-10-24T09:07:38Z</time>
      </trkpt>
      <trkpt lat="44.11548" lon="4.54008">
        <ele>160.6</ele>
        <time>2021-10-24T09:07:39Z</time>
      </trkpt>
      <trkpt lat="44.11553" lon="4.53997">
        <ele>160.2</ele>
        <time>2021-10-24T09:07:40Z</time>
      </trkpt>
      <trkpt lat="44.11556" lon="4.53985">
        <ele>159.6</ele>
        <time>2021-10-24T09:07:41Z</time>
      </trkpt>
      <trkpt lat="44.11558" lon="4.53973">
        <ele>159</ele>
        <time>2021-10-24T09:07:42Z</time>
      </trkpt>
      <trkpt lat="44.11557" lon="4.53962">
        <ele>159</ele>
        <time>2021-10-24T09:07:43Z</time>
      </trkpt>
      <trkpt lat="44.11555" lon="4.53951">
        <ele>158.6</ele>
        <time>2021-10-24T09:07:44Z</time>
      </trkpt>
      <trkpt lat="44.11552" lon="4.53938">
        <ele>158.4</ele>
        <time>2021-10-24T09:07:45Z</time>
      </trkpt>
      <trkpt lat="44.11549" lon="4.53925">
        <ele>157.8</ele>
        <time>2021-10-24T09:07:46Z</time>
      </trkpt>
      <trkpt lat="44.11547" lon="4.53911">
        <ele>157.6</ele>
        <time>2021-10-24T09:07:47Z</time>
      </trkpt>
      <trkpt lat="44.11546" lon="4.53897">
        <ele>157</ele>
        <time>2021-10-24T09:07:48Z</time>
      </trkpt>
      <trkpt lat="44.11545" lon="4.53883">
        <ele>156.6</ele>
        <time>2021-10-24T09:07:49Z</time>
      </trkpt>
      <trkpt lat="44.11545" lon="4.53869">
        <ele>156.2</ele>
        <time>2021-10-24T09:07:50Z</time>
      </trkpt>
      <trkpt lat="44.11546" lon="4.53855">
        <ele>156</ele>
        <time>2021-10-24T09:07:51Z</time>
      </trkpt>
      <trkpt lat="44.11547" lon="4.53842">
        <ele>155.8</ele>
        <time>2021-10-24T09:07:52Z</time>
      </trkpt>
      <trkpt lat="44.11548" lon="4.53828">
        <ele>155.2</ele>
        <time>2021-10-24T09:07:53Z</time>
      </trkpt>
      <trkpt lat="44.11548" lon="4.53815">
        <ele>154.8</ele>
        <time>2021-10-24T09:07:54Z</time>
      </trkpt>
      <trkpt lat="44.11547" lon="4.53801">
        <ele>154.6</ele>
        <time>2021-10-24T09:07:55Z</time>
      </trkpt>
      <trkpt lat="44.11545" lon="4.53788">
        <ele>154.4</ele>
        <time>2021-10-24T09:07:56Z</time>
      </trkpt>
      <trkpt lat="44.11542" lon="4.53775">
        <ele>154</ele>
        <time>2021-10-24T09:07:57Z</time>
      </trkpt>
      <trkpt lat="44.11539" lon="4.53761">
        <ele>154</ele>
        <time>2021-10-24T09:07:58Z</time>
      </trkpt>
      <trkpt lat="44.11538" lon="4.53747">
        <ele>153.6</ele>
        <time>2021-10-24T09:07:59Z</time>
      </trkpt>
      <trkpt lat="44.11538" lon="4.53733">
        <ele>153.4</ele>
        <time>2021-10-24T09:08:00Z</time>
      </trkpt>
      <trkpt lat="44.11538" lon="4.53718">
        <ele>153.2</ele>
        <time>2021-10-24T09:08:01Z</time>
      </trkpt>
      <trkpt lat="44.1154" lon="4.53704">
        <ele>152.8</ele>
        <time>2021-10-24T09:08:02Z</time>
      </trkpt>
      <trkpt lat="44.11542" lon="4.53689">
        <ele>152.6</ele>
        <time>2021-10-24T09:08:03Z</time>
      </trkpt>
      <trkpt lat="44.11544" lon="4.53675">
        <ele>152.2</ele>
        <time>2021-10-24T09:08:04Z</time>
      </trkpt>
      <trkpt lat="44.11546" lon="4.53661">
        <ele>152</ele>
        <time>2021-10-24T09:08:05Z</time>
      </trkpt>
      <trkpt lat="44.11549" lon="4.53648">
        <ele>152</ele>
        <time>2021-10-24T09:08:06Z</time>
      </trkpt>
      <trkpt lat="44.11552" lon="4.53635">
        <ele>151.6</ele>
        <time>2021-10-24T09:08:07Z</time>
      </trkpt>
      <trkpt lat="44.11557" lon="4.53624">
        <ele>151</ele>
        <time>2021-10-24T09:08:08Z</time>
      </trkpt>
      <trkpt lat="44.11564" lon="4.53613">
        <ele>150.6</ele>
        <time>2021-10-24T09:08:09Z</time>
      </trkpt>
      <trkpt lat="44.11571" lon="4.53603">
        <ele>150.2</ele>
        <time>2021-10-24T09:08:10Z</time>
      </trkpt>
      <trkpt lat="44.11578" lon="4.53593">
        <ele>149.8</ele>
        <time>2021-10-24T09:08:11Z</time>
      </trkpt>
      <trkpt lat="44.11585" lon="4.53583">
        <ele>149.4</ele>
        <time>2021-10-24T09:08:12Z</time>
      </trkpt>
      <trkpt lat="44.11592" lon="4.53573">
        <ele>149</ele>
        <time>2021-10-24T09:08:13Z</time>
      </trkpt>
      <trkpt lat="44.11598" lon="4.53562">
        <ele>148.6</ele>
        <time>2021-10-24T09:08:14Z</time>
      </trkpt>
      <trkpt lat="44.11604" lon="4.53551">
        <ele>148.4</ele>
        <time>2021-10-24T09:08:15Z</time>
      </trkpt>
      <trkpt lat="44.11609" lon="4.5354">
        <ele>148</ele>
        <time>2021-10-24T09:08:16Z</time>
      </trkpt>
      <trkpt lat="44.11612" lon="4.53528">
        <ele>147.6</ele>
        <time>2021-10-24T09:08:17Z</time>
      </trkpt>
      <trkpt lat="44.11613" lon="4.53515">
        <ele>147.2</ele>
        <time>2021-10-24T09:08:18Z</time>
      </trkpt>
      <trkpt lat="44.11613" lon="4.53502">
        <ele>146.8</ele>
        <time>2021-10-24T09:08:19Z</time>
      </trkpt>
      <trkpt lat="44.11611" lon="4.5349">
        <ele>147</ele>
        <time>2021-10-24T09:08:20Z</time>
      </trkpt>
      <trkpt lat="44.11607" lon="4.53478">
        <ele>147</ele>
        <time>2021-10-24T09:08:21Z</time>
      </trkpt>
      <trkpt lat="44.11603" lon="4.53466">
        <ele>146.4</ele>
        <time>2021-10-24T09:08:22Z</time>
      </trkpt>
      <trkpt lat="44.11599" lon="4.53454">
        <ele>146.2</ele>
        <time>2021-10-24T09:08:23Z</time>
      </trkpt>
      <trkpt lat="44.11595" lon="4.53443">
        <ele>146</ele>
        <time>2021-10-24T09:08:24Z</time>
      </trkpt>
      <trkpt lat="44.1159" lon="4.53431">
        <ele>146</ele>
        <time>2021-10-24T09:08:25Z</time>
      </trkpt>
      <trkpt lat="44.11586" lon="4.53419">
        <ele>145.8</ele>
        <time>2021-10-24T09:08:26Z</time>
      </trkpt>
      <trkpt lat="44.11581" lon="4.53407">
        <ele>145.2</ele>
        <time>2021-10-24T09:08:27Z</time>
      </trkpt>
      <trkpt lat="44.11576" lon="4.53395">
        <ele>144.8</ele>
        <time>2021-10-24T09:08:28Z</time>
      </trkpt>
      <trkpt lat="44.11572" lon="4.53383">
        <ele>144.4</ele>
        <time>2021-10-24T09:08:29Z</time>
      </trkpt>
      <trkpt lat="44.11568" lon="4.5337">
        <ele>144</ele>
        <time>2021-10-24T09:08:30Z</time>
      </trkpt>
      <trkpt lat="44.11566" lon="4.53357">
        <ele>143.6</ele>
        <time>2021-10-24T09:08:31Z</time>
      </trkpt>
      <trkpt lat="44.11564" lon="4.53344">
        <ele>143.2</ele>
        <time>2021-10-24T09:08:32Z</time>
      </trkpt>
      <trkpt lat="44.11562" lon="4.53331">
        <ele>143.2</ele>
        <time>2021-10-24T09:08:33Z</time>
      </trkpt>
      <trkpt lat="44.11561" lon="4.53318">
        <ele>143.2</ele>
        <time>2021-10-24T09:08:34Z</time>
      </trkpt>
      <trkpt lat="44.1156" lon="4.53305">
        <ele>143.2</ele>
        <time>2021-10-24T09:08:35Z</time>
      </trkpt>
      <trkpt lat="44.11559" lon="4.53292">
        <ele>142.8</ele>
        <time>2021-10-24T09:08:36Z</time>
      </trkpt>
      <trkpt lat="44.11559" lon="4.53279">
        <ele>142.4</ele>
        <time>2021-10-24T09:08:37Z</time>
      </trkpt>
      <trkpt lat="44.1156" lon="4.53267">
        <ele>142.4</ele>
        <time>2021-10-24T09:08:38Z</time>
      </trkpt>
      <trkpt lat="44.11561" lon="4.53254">
        <ele>142.2</ele>
        <time>2021-10-24T09:08:39Z</time>
      </trkpt>
      <trkpt lat="44.11562" lon="4.53242">
        <ele>142</ele>
        <time>2021-10-24T09:08:40Z</time>
      </trkpt>
      <trkpt lat="44.11564" lon="4.5323">
        <ele>141.8</ele>
        <time>2021-10-24T09:08:41Z</time>
      </trkpt>
      <trkpt lat="44.11565" lon="4.53218">
        <ele>141.6</ele>
        <time>2021-10-24T09:08:42Z</time>
      </trkpt>
      <trkpt lat="44.11567" lon="4.53207">
        <ele>141.6</ele>
        <time>2021-10-24T09:08:43Z</time>
      </trkpt>
      <trkpt lat="44.11567" lon="4.53195">
        <ele>141.6</ele>
        <time>2021-10-24T09:08:44Z</time>
      </trkpt>
      <trkpt lat="44.11565" lon="4.53184">
        <ele>141.4</ele>
        <time>2021-10-24T09:08:45Z</time>
      </trkpt>
      <trkpt lat="44.11561" lon="4.53175">
        <ele>141.2</ele>
        <time>2021-10-24T09:08:46Z</time>
      </trkpt>
      <trkpt lat="44.11554" lon="4.53169">
        <ele>141.2</ele>
        <time>2021-10-24T09:08:47Z</time>
      </trkpt>
      <trkpt lat="44.11547" lon="4.53164">
        <ele>141</ele>
        <time>2021-10-24T09:08:48Z</time>
      </trkpt>
      <trkpt lat="44.1154" lon="4.53159">
        <ele>140.6</ele>
        <time>2021-10-24T09:08:49Z</time>
      </trkpt>
      <trkpt lat="44.11532" lon="4.53155">
        <ele>140.4</ele>
        <time>2021-10-24T09:08:50Z</time>
      </trkpt>
      <trkpt lat="44.11525" lon="4.5315">
        <ele>140.2</ele>
        <time>2021-10-24T09:08:51Z</time>
      </trkpt>
      <trkpt lat="44.11519" lon="4.53143">
        <ele>140.2</ele>
        <time>2021-10-24T09:08:52Z</time>
      </trkpt>
      <trkpt lat="44.11515" lon="4.53133">
        <ele>140.2</ele>
        <time>2021-10-24T09:08:53Z</time>
      </trkpt>
      <trkpt lat="44.11513" lon="4.53123">
        <ele>139.8</ele>
        <time>2021-10-24T09:08:54Z</time>
      </trkpt>
      <trkpt lat="44.11514" lon="4.53113">
        <ele>139.6</ele>
        <time>2021-10-24T09:08:55Z</time>
      </trkpt>
      <trkpt lat="44.11515" lon="4.53102">
        <ele>139.4</ele>
        <time>2021-10-24T09:08:56Z</time>
      </trkpt>
      <trkpt lat="44.11517" lon="4.53092">
        <ele>139.4</ele>
        <time>2021-10-24T09:08:57Z</time>
      </trkpt>
      <trkpt lat="44.11519" lon="4.53081">
        <ele>139.2</ele>
        <time>2021-10-24T09:08:58Z</time>
      </trkpt>
      <trkpt lat="44.11521" lon="4.5307">
        <ele>139</ele>
        <time>2021-10-24T09:08:59Z</time>
      </trkpt>
      <trkpt lat="44.11522" lon="4.5306">
        <ele>138.6</ele>
        <time>2021-10-24T09:09:00Z</time>
      </trkpt>
      <trkpt lat="44.11524" lon="4.53049">
        <ele>138.6</ele>
        <time>2021-10-24T09:09:01Z</time>
      </trkpt>
      <trkpt lat="44.11524" lon="4.53038">
        <ele>138.8</ele>
        <time>2021-10-24T09:09:02Z</time>
      </trkpt>
      <trkpt lat="44.11523" lon="4.53027">
        <ele>138.6</ele>
        <time>2021-10-24T09:09:03Z</time>
      </trkpt>
      <trkpt lat="44.11521" lon="4.53016">
        <ele>138.6</ele>
        <time>2021-10-24T09:09:04Z</time>
      </trkpt>
      <trkpt lat="44.11518" lon="4.53006">
        <ele>138.8</ele>
        <time>2021-10-24T09:09:05Z</time>
      </trkpt>
      <trkpt lat="44.11514" lon="4.52996">
        <ele>138.6</ele>
        <time>2021-10-24T09:09:06Z</time>
      </trkpt>
      <trkpt lat="44.11509" lon="4.52987">
        <ele>138.6</ele>
        <time>2021-10-24T09:09:07Z</time>
      </trkpt>
      <trkpt lat="44.11503" lon="4.52978">
        <ele>138.4</ele>
        <time>2021-10-24T09:09:08Z</time>
      </trkpt>
      <trkpt lat="44.11498" lon="4.5297">
        <ele>138.4</ele>
        <time>2021-10-24T09:09:09Z</time>
      </trkpt>
      <trkpt lat="44.11493" lon="4.52961">
        <ele>138.4</ele>
        <time>2021-10-24T09:09:10Z</time>
      </trkpt>
      <trkpt lat="44.11488" lon="4.52953">
        <ele>138.2</ele>
        <time>2021-10-24T09:09:11Z</time>
      </trkpt>
      <trkpt lat="44.11482" lon="4.52944">
        <ele>138</ele>
        <time>2021-10-24T09:09:12Z</time>
      </trkpt>
      <trkpt lat="44.11477" lon="4.52936">
        <ele>137.8</ele>
        <time>2021-10-24T09:09:13Z</time>
      </trkpt>
      <trkpt lat="44.11471" lon="4.52927">
        <ele>138</ele>
        <time>2021-10-24T09:09:14Z</time>
      </trkpt>
      <trkpt lat="44.11466" lon="4.52919">
        <ele>138</ele>
        <time>2021-10-24T09:09:15Z</time>
      </trkpt>
      <trkpt lat="44.11462" lon="4.5291">
        <ele>138.2</ele>
        <time>2021-10-24T09:09:16Z</time>
      </trkpt>
      <trkpt lat="44.11458" lon="4.529">
        <ele>138</ele>
        <time>2021-10-24T09:09:17Z</time>
      </trkpt>
      <trkpt lat="44.11455" lon="4.52891">
        <ele>137.8</ele>
        <time>2021-10-24T09:09:18Z</time>
      </trkpt>
      <trkpt lat="44.11452" lon="4.52881">
        <ele>137.4</ele>
        <time>2021-10-24T09:09:19Z</time>
      </trkpt>
      <trkpt lat="44.11448" lon="4.52872">
        <ele>137.4</ele>
        <time>2021-10-24T09:09:20Z</time>
      </trkpt>
      <trkpt lat="44.11444" lon="4.52862">
        <ele>137.6</ele>
        <time>2021-10-24T09:09:21Z</time>
      </trkpt>
      <trkpt lat="44.11441" lon="4.52853">
        <ele>137.6</ele>
        <time>2021-10-24T09:09:22Z</time>
      </trkpt>
      <trkpt lat="44.11437" lon="4.52843">
        <ele>137.6</ele>
        <time>2021-10-24T09:09:23Z</time>
      </trkpt>
      <trkpt lat="44.11434" lon="4.52833">
        <ele>137.6</ele>
        <time>2021-10-24T09:09:24Z</time>
      </trkpt>
      <trkpt lat="44.1143" lon="4.52823">
        <ele>137.4</ele>
        <time>2021-10-24T09:09:25Z</time>
      </trkpt>
      <trkpt lat="44.11428" lon="4.52813">
        <ele>137.2</ele>
        <time>2021-10-24T09:09:26Z</time>
      </trkpt>
      <trkpt lat="44.11426" lon="4.52802">
        <ele>137.2</ele>
        <time>2021-10-24T09:09:27Z</time>
      </trkpt>
      <trkpt lat="44.11426" lon="4.52791">
        <ele>137</ele>
        <time>2021-10-24T09:09:28Z</time>
      </trkpt>
      <trkpt lat="44.11426" lon="4.5278">
        <ele>136.8</ele>
        <time>2021-10-24T09:09:29Z</time>
      </trkpt>
      <trkpt lat="44.11427" lon="4.52769">
        <ele>136.8</ele>
        <time>2021-10-24T09:09:30Z</time>
      </trkpt>
      <trkpt lat="44.11429" lon="4.52758">
        <ele>136.8</ele>
        <time>2021-10-24T09:09:31Z</time>
      </trkpt>
      <trkpt lat="44.1143" lon="4.52747">
        <ele>136.8</ele>
        <time>2021-10-24T09:09:32Z</time>
      </trkpt>
      <trkpt lat="44.11432" lon="4.52736">
        <ele>136.8</ele>
        <time>2021-10-24T09:09:33Z</time>
      </trkpt>
      <trkpt lat="44.11433" lon="4.52725">
        <ele>136.8</ele>
        <time>2021-10-24T09:09:34Z</time>
      </trkpt>
      <trkpt lat="44.11435" lon="4.52714">
        <ele>136.6</ele>
        <time>2021-10-24T09:09:35Z</time>
      </trkpt>
      <trkpt lat="44.11436" lon="4.52702">
        <ele>136.8</ele>
        <time>2021-10-24T09:09:36Z</time>
      </trkpt>
      <trkpt lat="44.11437" lon="4.52691">
        <ele>136.4</ele>
        <time>2021-10-24T09:09:37Z</time>
      </trkpt>
      <trkpt lat="44.11439" lon="4.5268">
        <ele>136.4</ele>
        <time>2021-10-24T09:09:38Z</time>
      </trkpt>
      <trkpt lat="44.1144" lon="4.52668">
        <ele>136.4</ele>
        <time>2021-10-24T09:09:39Z</time>
      </trkpt>
      <trkpt lat="44.11441" lon="4.52657">
        <ele>136.4</ele>
        <time>2021-10-24T09:09:40Z</time>
      </trkpt>
      <trkpt lat="44.11442" lon="4.52645">
        <ele>136.4</ele>
        <time>2021-10-24T09:09:41Z</time>
      </trkpt>
      <trkpt lat="44.11442" lon="4.52633">
        <ele>136.2</ele>
        <time>2021-10-24T09:09:42Z</time>
      </trkpt>
      <trkpt lat="44.11442" lon="4.52621">
        <ele>136.2</ele>
        <time>2021-10-24T09:09:43Z</time>
      </trkpt>
      <trkpt lat="44.11442" lon="4.52609">
        <ele>136.2</ele>
        <time>2021-10-24T09:09:44Z</time>
      </trkpt>
      <trkpt lat="44.11441" lon="4.52596">
        <ele>136.4</ele>
        <time>2021-10-24T09:09:45Z</time>
      </trkpt>
      <trkpt lat="44.11441" lon="4.52584">
        <ele>136.6</ele>
        <time>2021-10-24T09:09:46Z</time>
      </trkpt>
      <trkpt lat="44.1144" lon="4.52571">
        <ele>136.4</ele>
        <time>2021-10-24T09:09:47Z</time>
      </trkpt>
      <trkpt lat="44.1144" lon="4.52558">
        <ele>136.2</ele>
        <time>2021-10-24T09:09:48Z</time>
      </trkpt>
      <trkpt lat="44.11439" lon="4.52546">
        <ele>136.2</ele>
        <time>2021-10-24T09:09:49Z</time>
      </trkpt>
      <trkpt lat="44.11439" lon="4.52533">
        <ele>136</ele>
        <time>2021-10-24T09:09:50Z</time>
      </trkpt>
      <trkpt lat="44.11439" lon="4.5252">
        <ele>136</ele>
        <time>2021-10-24T09:09:51Z</time>
      </trkpt>
      <trkpt lat="44.11439" lon="4.52508">
        <ele>136.2</ele>
        <time>2021-10-24T09:09:52Z</time>
      </trkpt>
      <trkpt lat="44.11439" lon="4.52495">
        <ele>136.2</ele>
        <time>2021-10-24T09:09:53Z</time>
      </trkpt>
      <trkpt lat="44.11439" lon="4.52482">
        <ele>136</ele>
        <time>2021-10-24T09:09:54Z</time>
      </trkpt>
      <trkpt lat="44.11438" lon="4.5247">
        <ele>136.2</ele>
        <time>2021-10-24T09:09:55Z</time>
      </trkpt>
      <trkpt lat="44.11437" lon="4.52457">
        <ele>136</ele>
        <time>2021-10-24T09:09:56Z</time>
      </trkpt>
      <trkpt lat="44.11436" lon="4.52445">
        <ele>135.6</ele>
        <time>2021-10-24T09:09:57Z</time>
      </trkpt>
      <trkpt lat="44.11435" lon="4.52432">
        <ele>135.2</ele>
        <time>2021-10-24T09:09:58Z</time>
      </trkpt>
      <trkpt lat="44.11433" lon="4.5242">
        <ele>134.8</ele>
        <time>2021-10-24T09:09:59Z</time>
      </trkpt>
      <trkpt lat="44.11431" lon="4.52408">
        <ele>134.6</ele>
        <time>2021-10-24T09:10:00Z</time>
      </trkpt>
      <trkpt lat="44.11428" lon="4.52396">
        <ele>134.6</ele>
        <time>2021-10-24T09:10:01Z</time>
      </trkpt>
      <trkpt lat="44.11425" lon="4.52384">
        <ele>134.4</ele>
        <time>2021-10-24T09:10:02Z</time>
      </trkpt>
      <trkpt lat="44.11422" lon="4.52373">
        <ele>134.2</ele>
        <time>2021-10-24T09:10:03Z</time>
      </trkpt>
      <trkpt lat="44.11419" lon="4.52363">
        <ele>134</ele>
        <time>2021-10-24T09:10:04Z</time>
      </trkpt>
      <trkpt lat="44.11417" lon="4.52354">
        <ele>133.8</ele>
        <time>2021-10-24T09:10:05Z</time>
      </trkpt>
      <trkpt lat="44.11416" lon="4.52347">
        <ele>133.6</ele>
        <time>2021-10-24T09:10:06Z</time>
      </trkpt>
      <trkpt lat="44.11415" lon="4.52342">
        <ele>133.2</ele>
        <time>2021-10-24T09:10:07Z</time>
      </trkpt>
      <trkpt lat="44.11415" lon="4.52339">
        <ele>132.6</ele>
        <time>2021-10-24T09:10:08Z</time>
      </trkpt>
      <trkpt lat="44.11415" lon="4.52336">
        <ele>130</ele>
        <time>2021-10-24T09:10:51Z</time>
      </trkpt>
      <trkpt lat="44.11411" lon="4.52333">
        <ele>130</ele>
        <time>2021-10-24T09:10:53Z</time>
      </trkpt>
      <trkpt lat="44.11409" lon="4.52331">
        <ele>130.2</ele>
        <time>2021-10-24T09:10:54Z</time>
      </trkpt>
      <trkpt lat="44.11406" lon="4.52329">
        <ele>130.2</ele>
        <time>2021-10-24T09:10:55Z</time>
      </trkpt>
      <trkpt lat="44.11402" lon="4.52327">
        <ele>130.2</ele>
        <time>2021-10-24T09:10:56Z</time>
      </trkpt>
      <trkpt lat="44.11397" lon="4.52326">
        <ele>130.4</ele>
        <time>2021-10-24T09:10:57Z</time>
      </trkpt>
      <trkpt lat="44.11392" lon="4.52325">
        <ele>130.4</ele>
        <time>2021-10-24T09:10:58Z</time>
      </trkpt>
      <trkpt lat="44.11386" lon="4.52324">
        <ele>130.4</ele>
        <time>2021-10-24T09:10:59Z</time>
      </trkpt>
      <trkpt lat="44.11381" lon="4.52323">
        <ele>130.2</ele>
        <time>2021-10-24T09:11:00Z</time>
      </trkpt>
      <trkpt lat="44.11375" lon="4.52322">
        <ele>130.4</ele>
        <time>2021-10-24T09:11:01Z</time>
      </trkpt>
      <trkpt lat="44.1137" lon="4.52319">
        <ele>130.6</ele>
        <time>2021-10-24T09:11:02Z</time>
      </trkpt>
      <trkpt lat="44.11367" lon="4.52315">
        <ele>130.6</ele>
        <time>2021-10-24T09:11:03Z</time>
      </trkpt>
      <trkpt lat="44.11366" lon="4.52309">
        <ele>130.4</ele>
        <time>2021-10-24T09:11:04Z</time>
      </trkpt>
      <trkpt lat="44.11366" lon="4.52303">
        <ele>130.4</ele>
        <time>2021-10-24T09:11:05Z</time>
      </trkpt>
      <trkpt lat="44.11367" lon="4.52297">
        <ele>130</ele>
        <time>2021-10-24T09:11:06Z</time>
      </trkpt>
      <trkpt lat="44.11368" lon="4.52291">
        <ele>129.8</ele>
        <time>2021-10-24T09:11:07Z</time>
      </trkpt>
      <trkpt lat="44.11369" lon="4.52284">
        <ele>129.4</ele>
        <time>2021-10-24T09:11:08Z</time>
      </trkpt>
      <trkpt lat="44.11371" lon="4.52277">
        <ele>129.4</ele>
        <time>2021-10-24T09:11:09Z</time>
      </trkpt>
      <trkpt lat="44.11372" lon="4.52269">
        <ele>129.4</ele>
        <time>2021-10-24T09:11:10Z</time>
      </trkpt>
      <trkpt lat="44.11374" lon="4.52261">
        <ele>129.6</ele>
        <time>2021-10-24T09:11:11Z</time>
      </trkpt>
      <trkpt lat="44.11375" lon="4.52253">
        <ele>129.4</ele>
        <time>2021-10-24T09:11:12Z</time>
      </trkpt>
      <trkpt lat="44.11377" lon="4.52245">
        <ele>129.4</ele>
        <time>2021-10-24T09:11:13Z</time>
      </trkpt>
      <trkpt lat="44.11378" lon="4.52237">
        <ele>129.4</ele>
        <time>2021-10-24T09:11:14Z</time>
      </trkpt>
      <trkpt lat="44.11379" lon="4.52229">
        <ele>129.6</ele>
        <time>2021-10-24T09:11:15Z</time>
      </trkpt>
      <trkpt lat="44.11381" lon="4.52221">
        <ele>129.8</ele>
        <time>2021-10-24T09:11:16Z</time>
      </trkpt>
      <trkpt lat="44.11383" lon="4.52214">
        <ele>130</ele>
        <time>2021-10-24T09:11:17Z</time>
      </trkpt>
      <trkpt lat="44.11385" lon="4.52208">
        <ele>130.2</ele>
        <time>2021-10-24T09:11:18Z</time>
      </trkpt>
      <trkpt lat="44.11387" lon="4.52201">
        <ele>130.4</ele>
        <time>2021-10-24T09:11:19Z</time>
      </trkpt>
      <trkpt lat="44.11389" lon="4.52193">
        <ele>130.6</ele>
        <time>2021-10-24T09:11:20Z</time>
      </trkpt>
      <trkpt lat="44.11389" lon="4.52186">
        <ele>130.8</ele>
        <time>2021-10-24T09:11:21Z</time>
      </trkpt>
      <trkpt lat="44.11389" lon="4.52178">
        <ele>130.8</ele>
        <time>2021-10-24T09:11:22Z</time>
      </trkpt>
      <trkpt lat="44.1139" lon="4.5217">
        <ele>130.8</ele>
        <time>2021-10-24T09:11:23Z</time>
      </trkpt>
      <trkpt lat="44.11391" lon="4.52163">
        <ele>130.6</ele>
        <time>2021-10-24T09:11:24Z</time>
      </trkpt>
      <trkpt lat="44.11392" lon="4.52156">
        <ele>130.8</ele>
        <time>2021-10-24T09:11:25Z</time>
      </trkpt>
      <trkpt lat="44.11393" lon="4.52148">
        <ele>131</ele>
        <time>2021-10-24T09:11:26Z</time>
      </trkpt>
      <trkpt lat="44.11396" lon="4.52142">
        <ele>131.2</ele>
        <time>2021-10-24T09:11:27Z</time>
      </trkpt>
      <trkpt lat="44.11398" lon="4.52135">
        <ele>131.4</ele>
        <time>2021-10-24T09:11:28Z</time>
      </trkpt>
      <trkpt lat="44.11401" lon="4.52129">
        <ele>131.6</ele>
        <time>2021-10-24T09:11:29Z</time>
      </trkpt>
      <trkpt lat="44.11404" lon="4.52123">
        <ele>131.6</ele>
        <time>2021-10-24T09:11:30Z</time>
      </trkpt>
      <trkpt lat="44.11406" lon="4.52116">
        <ele>131.8</ele>
        <time>2021-10-24T09:11:31Z</time>
      </trkpt>
      <trkpt lat="44.11409" lon="4.5211">
        <ele>131.8</ele>
        <time>2021-10-24T09:11:32Z</time>
      </trkpt>
      <trkpt lat="44.11411" lon="4.52104">
        <ele>132</ele>
        <time>2021-10-24T09:11:33Z</time>
      </trkpt>
      <trkpt lat="44.11414" lon="4.52098">
        <ele>132.2</ele>
        <time>2021-10-24T09:11:34Z</time>
      </trkpt>
      <trkpt lat="44.11417" lon="4.52092">
        <ele>132.2</ele>
        <time>2021-10-24T09:11:35Z</time>
      </trkpt>
      <trkpt lat="44.11419" lon="4.52086">
        <ele>132.4</ele>
        <time>2021-10-24T09:11:36Z</time>
      </trkpt>
      <trkpt lat="44.11422" lon="4.5208">
        <ele>132.4</ele>
        <time>2021-10-24T09:11:37Z</time>
      </trkpt>
      <trkpt lat="44.11425" lon="4.52075">
        <ele>132.4</ele>
        <time>2021-10-24T09:11:38Z</time>
      </trkpt>
      <trkpt lat="44.11428" lon="4.5207">
        <ele>132.6</ele>
        <time>2021-10-24T09:11:39Z</time>
      </trkpt>
      <trkpt lat="44.11432" lon="4.52065">
        <ele>132.8</ele>
        <time>2021-10-24T09:11:40Z</time>
      </trkpt>
      <trkpt lat="44.11435" lon="4.5206">
        <ele>133</ele>
        <time>2021-10-24T09:11:41Z</time>
      </trkpt>
      <trkpt lat="44.11439" lon="4.52056">
        <ele>133</ele>
        <time>2021-10-24T09:11:42Z</time>
      </trkpt>
      <trkpt lat="44.11443" lon="4.52052">
        <ele>133.2</ele>
        <time>2021-10-24T09:11:43Z</time>
      </trkpt>
      <trkpt lat="44.11447" lon="4.52048">
        <ele>133.6</ele>
        <time>2021-10-24T09:11:44Z</time>
      </trkpt>
      <trkpt lat="44.1145" lon="4.52044">
        <ele>133.6</ele>
        <time>2021-10-24T09:11:45Z</time>
      </trkpt>
      <trkpt lat="44.11454" lon="4.52041">
        <ele>133.8</ele>
        <time>2021-10-24T09:11:46Z</time>
      </trkpt>
      <trkpt lat="44.11458" lon="4.52036">
        <ele>134</ele>
        <time>2021-10-24T09:11:47Z</time>
      </trkpt>
      <trkpt lat="44.11461" lon="4.52032">
        <ele>134</ele>
        <time>2021-10-24T09:11:48Z</time>
      </trkpt>
      <trkpt lat="44.11465" lon="4.52028">
        <ele>134.2</ele>
        <time>2021-10-24T09:11:49Z</time>
      </trkpt>
      <trkpt lat="44.11468" lon="4.52023">
        <ele>134.6</ele>
        <time>2021-10-24T09:11:50Z</time>
      </trkpt>
      <trkpt lat="44.11471" lon="4.52018">
        <ele>134.8</ele>
        <time>2021-10-24T09:11:51Z</time>
      </trkpt>
      <trkpt lat="44.11474" lon="4.52013">
        <ele>135</ele>
        <time>2021-10-24T09:11:52Z</time>
      </trkpt>
      <trkpt lat="44.11477" lon="4.52007">
        <ele>135</ele>
        <time>2021-10-24T09:11:53Z</time>
      </trkpt>
      <trkpt lat="44.1148" lon="4.52001">
        <ele>135.2</ele>
        <time>2021-10-24T09:11:54Z</time>
      </trkpt>
      <trkpt lat="44.11483" lon="4.51995">
        <ele>135.2</ele>
        <time>2021-10-24T09:11:55Z</time>
      </trkpt>
      <trkpt lat="44.11485" lon="4.51988">
        <ele>135.4</ele>
        <time>2021-10-24T09:11:56Z</time>
      </trkpt>
      <trkpt lat="44.11488" lon="4.51981">
        <ele>135.2</ele>
        <time>2021-10-24T09:11:57Z</time>
      </trkpt>
      <trkpt lat="44.1149" lon="4.51974">
        <ele>135.2</ele>
        <time>2021-10-24T09:11:58Z</time>
      </trkpt>
      <trkpt lat="44.11492" lon="4.51967">
        <ele>135.4</ele>
        <time>2021-10-24T09:11:59Z</time>
      </trkpt>
      <trkpt lat="44.11494" lon="4.5196">
        <ele>135.8</ele>
        <time>2021-10-24T09:12:00Z</time>
      </trkpt>
      <trkpt lat="44.11496" lon="4.51953">
        <ele>135.8</ele>
        <time>2021-10-24T09:12:01Z</time>
      </trkpt>
      <trkpt lat="44.11498" lon="4.51946">
        <ele>136.2</ele>
        <time>2021-10-24T09:12:02Z</time>
      </trkpt>
      <trkpt lat="44.115" lon="4.51939">
        <ele>136.4</ele>
        <time>2021-10-24T09:12:03Z</time>
      </trkpt>
      <trkpt lat="44.11502" lon="4.51932">
        <ele>136.6</ele>
        <time>2021-10-24T09:12:04Z</time>
      </trkpt>
      <trkpt lat="44.11505" lon="4.51925">
        <ele>136.6</ele>
        <time>2021-10-24T09:12:05Z</time>
      </trkpt>
      <trkpt lat="44.11507" lon="4.51918">
        <ele>137</ele>
        <time>2021-10-24T09:12:06Z</time>
      </trkpt>
      <trkpt lat="44.11509" lon="4.51911">
        <ele>137</ele>
        <time>2021-10-24T09:12:07Z</time>
      </trkpt>
      <trkpt lat="44.11511" lon="4.51904">
        <ele>137.2</ele>
        <time>2021-10-24T09:12:08Z</time>
      </trkpt>
      <trkpt lat="44.11513" lon="4.51897">
        <ele>137.2</ele>
        <time>2021-10-24T09:12:09Z</time>
      </trkpt>
      <trkpt lat="44.11515" lon="4.5189">
        <ele>137</ele>
        <time>2021-10-24T09:12:10Z</time>
      </trkpt>
      <trkpt lat="44.11517" lon="4.51882">
        <ele>137</ele>
        <time>2021-10-24T09:12:11Z</time>
      </trkpt>
      <trkpt lat="44.11519" lon="4.51875">
        <ele>137.2</ele>
        <time>2021-10-24T09:12:12Z</time>
      </trkpt>
      <trkpt lat="44.11521" lon="4.51868">
        <ele>137.4</ele>
        <time>2021-10-24T09:12:13Z</time>
      </trkpt>
      <trkpt lat="44.11523" lon="4.51861">
        <ele>137.4</ele>
        <time>2021-10-24T09:12:14Z</time>
      </trkpt>
      <trkpt lat="44.11525" lon="4.51854">
        <ele>137.4</ele>
        <time>2021-10-24T09:12:15Z</time>
      </trkpt>
      <trkpt lat="44.11527" lon="4.51846">
        <ele>137.4</ele>
        <time>2021-10-24T09:12:16Z</time>
      </trkpt>
      <trkpt lat="44.11529" lon="4.51839">
        <ele>137.6</ele>
        <time>2021-10-24T09:12:17Z</time>
      </trkpt>
      <trkpt lat="44.1153" lon="4.51831">
        <ele>137.4</ele>
        <time>2021-10-24T09:12:18Z</time>
      </trkpt>
      <trkpt lat="44.11532" lon="4.51824">
        <ele>137.8</ele>
        <time>2021-10-24T09:12:19Z</time>
      </trkpt>
      <trkpt lat="44.11534" lon="4.51816">
        <ele>138</ele>
        <time>2021-10-24T09:12:20Z</time>
      </trkpt>
      <trkpt lat="44.11536" lon="4.51809">
        <ele>138</ele>
        <time>2021-10-24T09:12:21Z</time>
      </trkpt>
      <trkpt lat="44.11538" lon="4.51801">
        <ele>138</ele>
        <time>2021-10-24T09:12:22Z</time>
      </trkpt>
      <trkpt lat="44.1154" lon="4.51794">
        <ele>138</ele>
        <time>2021-10-24T09:12:23Z</time>
      </trkpt>
      <trkpt lat="44.11542" lon="4.51786">
        <ele>138.2</ele>
        <time>2021-10-24T09:12:24Z</time>
      </trkpt>
      <trkpt lat="44.11544" lon="4.51779">
        <ele>138.6</ele>
        <time>2021-10-24T09:12:25Z</time>
      </trkpt>
      <trkpt lat="44.11546" lon="4.51771">
        <ele>138.6</ele>
        <time>2021-10-24T09:12:26Z</time>
      </trkpt>
      <trkpt lat="44.11548" lon="4.51763">
        <ele>139</ele>
        <time>2021-10-24T09:12:27Z</time>
      </trkpt>
      <trkpt lat="44.1155" lon="4.51756">
        <ele>139.2</ele>
        <time>2021-10-24T09:12:28Z</time>
      </trkpt>
      <trkpt lat="44.11553" lon="4.51748">
        <ele>139</ele>
        <time>2021-10-24T09:12:29Z</time>
      </trkpt>
      <trkpt lat="44.11555" lon="4.5174">
        <ele>139</ele>
        <time>2021-10-24T09:12:30Z</time>
      </trkpt>
      <trkpt lat="44.11557" lon="4.51732">
        <ele>139</ele>
        <time>2021-10-24T09:12:31Z</time>
      </trkpt>
      <trkpt lat="44.11559" lon="4.51725">
        <ele>139</ele>
        <time>2021-10-24T09:12:32Z</time>
      </trkpt>
      <trkpt lat="44.11561" lon="4.51717">
        <ele>138.8</ele>
        <time>2021-10-24T09:12:33Z</time>
      </trkpt>
      <trkpt lat="44.11564" lon="4.51709">
        <ele>139</ele>
        <time>2021-10-24T09:12:34Z</time>
      </trkpt>
      <trkpt lat="44.11566" lon="4.51702">
        <ele>139.2</ele>
        <time>2021-10-24T09:12:35Z</time>
      </trkpt>
      <trkpt lat="44.11568" lon="4.51694">
        <ele>139.4</ele>
        <time>2021-10-24T09:12:36Z</time>
      </trkpt>
      <trkpt lat="44.1157" lon="4.51686">
        <ele>139.6</ele>
        <time>2021-10-24T09:12:37Z</time>
      </trkpt>
      <trkpt lat="44.11572" lon="4.51678">
        <ele>139.8</ele>
        <time>2021-10-24T09:12:38Z</time>
      </trkpt>
      <trkpt lat="44.11574" lon="4.51671">
        <ele>139.8</ele>
        <time>2021-10-24T09:12:39Z</time>
      </trkpt>
      <trkpt lat="44.11576" lon="4.51663">
        <ele>139.8</ele>
        <time>2021-10-24T09:12:40Z</time>
      </trkpt>
      <trkpt lat="44.11578" lon="4.51655">
        <ele>139.8</ele>
        <time>2021-10-24T09:12:41Z</time>
      </trkpt>
      <trkpt lat="44.1158" lon="4.51646">
        <ele>140</ele>
        <time>2021-10-24T09:12:42Z</time>
      </trkpt>
      <trkpt lat="44.11581" lon="4.51638">
        <ele>140.2</ele>
        <time>2021-10-24T09:12:43Z</time>
      </trkpt>
      <trkpt lat="44.11583" lon="4.51629">
        <ele>140</ele>
        <time>2021-10-24T09:12:44Z</time>
      </trkpt>
      <trkpt lat="44.11585" lon="4.51621">
        <ele>140</ele>
        <time>2021-10-24T09:12:45Z</time>
      </trkpt>
      <trkpt lat="44.11586" lon="4.51612">
        <ele>140</ele>
        <time>2021-10-24T09:12:46Z</time>
      </trkpt>
      <trkpt lat="44.11588" lon="4.51603">
        <ele>140</ele>
        <time>2021-10-24T09:12:47Z</time>
      </trkpt>
      <trkpt lat="44.11589" lon="4.51594">
        <ele>140</ele>
        <time>2021-10-24T09:12:48Z</time>
      </trkpt>
      <trkpt lat="44.11591" lon="4.51585">
        <ele>140.2</ele>
        <time>2021-10-24T09:12:49Z</time>
      </trkpt>
      <trkpt lat="44.11592" lon="4.51576">
        <ele>140.6</ele>
        <time>2021-10-24T09:12:50Z</time>
      </trkpt>
      <trkpt lat="44.11594" lon="4.51567">
        <ele>140.6</ele>
        <time>2021-10-24T09:12:51Z</time>
      </trkpt>
      <trkpt lat="44.11595" lon="4.51558">
        <ele>140.6</ele>
        <time>2021-10-24T09:12:52Z</time>
      </trkpt>
      <trkpt lat="44.11596" lon="4.51548">
        <ele>140.6</ele>
        <time>2021-10-24T09:12:53Z</time>
      </trkpt>
      <trkpt lat="44.11598" lon="4.51539">
        <ele>140.8</ele>
        <time>2021-10-24T09:12:54Z</time>
      </trkpt>
      <trkpt lat="44.116" lon="4.5153">
        <ele>141</ele>
        <time>2021-10-24T09:12:55Z</time>
      </trkpt>
      <trkpt lat="44.11601" lon="4.5152">
        <ele>141.4</ele>
        <time>2021-10-24T09:12:56Z</time>
      </trkpt>
      <trkpt lat="44.11602" lon="4.51511">
        <ele>141.6</ele>
        <time>2021-10-24T09:12:57Z</time>
      </trkpt>
      <trkpt lat="44.11604" lon="4.51502">
        <ele>141.8</ele>
        <time>2021-10-24T09:12:58Z</time>
      </trkpt>
      <trkpt lat="44.11605" lon="4.51492">
        <ele>142</ele>
        <time>2021-10-24T09:12:59Z</time>
      </trkpt>
      <trkpt lat="44.11607" lon="4.51482">
        <ele>142</ele>
        <time>2021-10-24T09:13:00Z</time>
      </trkpt>
      <trkpt lat="44.11608" lon="4.51473">
        <ele>142</ele>
        <time>2021-10-24T09:13:01Z</time>
      </trkpt>
      <trkpt lat="44.1161" lon="4.51463">
        <ele>141.8</ele>
        <time>2021-10-24T09:13:02Z</time>
      </trkpt>
      <trkpt lat="44.11612" lon="4.51454">
        <ele>142</ele>
        <time>2021-10-24T09:13:03Z</time>
      </trkpt>
      <trkpt lat="44.11614" lon="4.51444">
        <ele>142</ele>
        <time>2021-10-24T09:13:04Z</time>
      </trkpt>
      <trkpt lat="44.11616" lon="4.51434">
        <ele>142.2</ele>
        <time>2021-10-24T09:13:05Z</time>
      </trkpt>
      <trkpt lat="44.11618" lon="4.51424">
        <ele>142</ele>
        <time>2021-10-24T09:13:06Z</time>
      </trkpt>
      <trkpt lat="44.1162" lon="4.51413">
        <ele>142</ele>
        <time>2021-10-24T09:13:07Z</time>
      </trkpt>
      <trkpt lat="44.11622" lon="4.51402">
        <ele>142</ele>
        <time>2021-10-24T09:13:08Z</time>
      </trkpt>
      <trkpt lat="44.11624" lon="4.51391">
        <ele>142</ele>
        <time>2021-10-24T09:13:09Z</time>
      </trkpt>
      <trkpt lat="44.11626" lon="4.5138">
        <ele>142</ele>
        <time>2021-10-24T09:13:10Z</time>
      </trkpt>
      <trkpt lat="44.11628" lon="4.51368">
        <ele>142</ele>
        <time>2021-10-24T09:13:11Z</time>
      </trkpt>
      <trkpt lat="44.11631" lon="4.51357">
        <ele>141.8</ele>
        <time>2021-10-24T09:13:12Z</time>
      </trkpt>
      <trkpt lat="44.11633" lon="4.51345">
        <ele>141.8</ele>
        <time>2021-10-24T09:13:13Z</time>
      </trkpt>
      <trkpt lat="44.11635" lon="4.51333">
        <ele>141.6</ele>
        <time>2021-10-24T09:13:14Z</time>
      </trkpt>
      <trkpt lat="44.11637" lon="4.51322">
        <ele>141.6</ele>
        <time>2021-10-24T09:13:15Z</time>
      </trkpt>
      <trkpt lat="44.1164" lon="4.5131">
        <ele>141.4</ele>
        <time>2021-10-24T09:13:16Z</time>
      </trkpt>
      <trkpt lat="44.11642" lon="4.51299">
        <ele>141.2</ele>
        <time>2021-10-24T09:13:17Z</time>
      </trkpt>
      <trkpt lat="44.11644" lon="4.51287">
        <ele>141.2</ele>
        <time>2021-10-24T09:13:18Z</time>
      </trkpt>
      <trkpt lat="44.11646" lon="4.51276">
        <ele>141.2</ele>
        <time>2021-10-24T09:13:19Z</time>
      </trkpt>
      <trkpt lat="44.11648" lon="4.51265">
        <ele>141.4</ele>
        <time>2021-10-24T09:13:20Z</time>
      </trkpt>
      <trkpt lat="44.11651" lon="4.51254">
        <ele>141.4</ele>
        <time>2021-10-24T09:13:21Z</time>
      </trkpt>
      <trkpt lat="44.11653" lon="4.51243">
        <ele>141.6</ele>
        <time>2021-10-24T09:13:22Z</time>
      </trkpt>
      <trkpt lat="44.11655" lon="4.51232">
        <ele>141.8</ele>
        <time>2021-10-24T09:13:23Z</time>
      </trkpt>
      <trkpt lat="44.11657" lon="4.51222">
        <ele>142</ele>
        <time>2021-10-24T09:13:24Z</time>
      </trkpt>
      <trkpt lat="44.1166" lon="4.51211">
        <ele>142</ele>
        <time>2021-10-24T09:13:25Z</time>
      </trkpt>
      <trkpt lat="44.11663" lon="4.51201">
        <ele>142.4</ele>
        <time>2021-10-24T09:13:26Z</time>
      </trkpt>
      <trkpt lat="44.11665" lon="4.51192">
        <ele>142.4</ele>
        <time>2021-10-24T09:13:27Z</time>
      </trkpt>
      <trkpt lat="44.11668" lon="4.51182">
        <ele>142.2</ele>
        <time>2021-10-24T09:13:28Z</time>
      </trkpt>
      <trkpt lat="44.11671" lon="4.51173">
        <ele>142.2</ele>
        <time>2021-10-24T09:13:29Z</time>
      </trkpt>
      <trkpt lat="44.11673" lon="4.51164">
        <ele>142.6</ele>
        <time>2021-10-24T09:13:30Z</time>
      </trkpt>
      <trkpt lat="44.11676" lon="4.51155">
        <ele>142.6</ele>
        <time>2021-10-24T09:13:31Z</time>
      </trkpt>
      <trkpt lat="44.11678" lon="4.51146">
        <ele>142.8</ele>
        <time>2021-10-24T09:13:32Z</time>
      </trkpt>
      <trkpt lat="44.11681" lon="4.51137">
        <ele>142.8</ele>
        <time>2021-10-24T09:13:33Z</time>
      </trkpt>
      <trkpt lat="44.11684" lon="4.51128">
        <ele>143</ele>
        <time>2021-10-24T09:13:34Z</time>
      </trkpt>
      <trkpt lat="44.11686" lon="4.5112">
        <ele>143.4</ele>
        <time>2021-10-24T09:13:35Z</time>
      </trkpt>
      <trkpt lat="44.11689" lon="4.51111">
        <ele>143.2</ele>
        <time>2021-10-24T09:13:36Z</time>
      </trkpt>
      <trkpt lat="44.11691" lon="4.51102">
        <ele>143.4</ele>
        <time>2021-10-24T09:13:37Z</time>
      </trkpt>
      <trkpt lat="44.11694" lon="4.51094">
        <ele>143.8</ele>
        <time>2021-10-24T09:13:38Z</time>
      </trkpt>
      <trkpt lat="44.11696" lon="4.51085">
        <ele>144</ele>
        <time>2021-10-24T09:13:39Z</time>
      </trkpt>
      <trkpt lat="44.11699" lon="4.51077">
        <ele>144.2</ele>
        <time>2021-10-24T09:13:40Z</time>
      </trkpt>
      <trkpt lat="44.11701" lon="4.51068">
        <ele>144.4</ele>
        <time>2021-10-24T09:13:41Z</time>
      </trkpt>
      <trkpt lat="44.11703" lon="4.5106">
        <ele>144.4</ele>
        <time>2021-10-24T09:13:42Z</time>
      </trkpt>
      <trkpt lat="44.11706" lon="4.51052">
        <ele>144.8</ele>
        <time>2021-10-24T09:13:43Z</time>
      </trkpt>
      <trkpt lat="44.11708" lon="4.51044">
        <ele>145.2</ele>
        <time>2021-10-24T09:13:44Z</time>
      </trkpt>
      <trkpt lat="44.11711" lon="4.51037">
        <ele>145.2</ele>
        <time>2021-10-24T09:13:45Z</time>
      </trkpt>
      <trkpt lat="44.11714" lon="4.51029">
        <ele>145.4</ele>
        <time>2021-10-24T09:13:46Z</time>
      </trkpt>
      <trkpt lat="44.11716" lon="4.51021">
        <ele>145.6</ele>
        <time>2021-10-24T09:13:47Z</time>
      </trkpt>
      <trkpt lat="44.11719" lon="4.51013">
        <ele>145.8</ele>
        <time>2021-10-24T09:13:48Z</time>
      </trkpt>
      <trkpt lat="44.11722" lon="4.51006">
        <ele>145.8</ele>
        <time>2021-10-24T09:13:49Z</time>
      </trkpt>
      <trkpt lat="44.11724" lon="4.50998">
        <ele>146.2</ele>
        <time>2021-10-24T09:13:50Z</time>
      </trkpt>
      <trkpt lat="44.11727" lon="4.5099">
        <ele>146.4</ele>
        <time>2021-10-24T09:13:51Z</time>
      </trkpt>
      <trkpt lat="44.1173" lon="4.50983">
        <ele>146.6</ele>
        <time>2021-10-24T09:13:52Z</time>
      </trkpt>
      <trkpt lat="44.11734" lon="4.50975">
        <ele>146.8</ele>
        <time>2021-10-24T09:13:53Z</time>
      </trkpt>
      <trkpt lat="44.11737" lon="4.50968">
        <ele>147</ele>
        <time>2021-10-24T09:13:54Z</time>
      </trkpt>
      <trkpt lat="44.11742" lon="4.50962">
        <ele>147.2</ele>
        <time>2021-10-24T09:13:55Z</time>
      </trkpt>
      <trkpt lat="44.11746" lon="4.50956">
        <ele>147</ele>
        <time>2021-10-24T09:13:56Z</time>
      </trkpt>
      <trkpt lat="44.1175" lon="4.5095">
        <ele>147.2</ele>
        <time>2021-10-24T09:13:57Z</time>
      </trkpt>
      <trkpt lat="44.11755" lon="4.50945">
        <ele>147.2</ele>
        <time>2021-10-24T09:13:58Z</time>
      </trkpt>
      <trkpt lat="44.11759" lon="4.5094">
        <ele>148</ele>
        <time>2021-10-24T09:13:59Z</time>
      </trkpt>
      <trkpt lat="44.11764" lon="4.50935">
        <ele>148.2</ele>
        <time>2021-10-24T09:14:00Z</time>
      </trkpt>
      <trkpt lat="44.11769" lon="4.5093">
        <ele>148.6</ele>
        <time>2021-10-24T09:14:01Z</time>
      </trkpt>
      <trkpt lat="44.11773" lon="4.50925">
        <ele>149</ele>
        <time>2021-10-24T09:14:02Z</time>
      </trkpt>
      <trkpt lat="44.11777" lon="4.5092">
        <ele>149.4</ele>
        <time>2021-10-24T09:14:03Z</time>
      </trkpt>
      <trkpt lat="44.11781" lon="4.50915">
        <ele>149.4</ele>
        <time>2021-10-24T09:14:04Z</time>
      </trkpt>
      <trkpt lat="44.11785" lon="4.5091">
        <ele>149.6</ele>
        <time>2021-10-24T09:14:05Z</time>
      </trkpt>
      <trkpt lat="44.11789" lon="4.50905">
        <ele>149.8</ele>
        <time>2021-10-24T09:14:06Z</time>
      </trkpt>
      <trkpt lat="44.11793" lon="4.50899">
        <ele>150.2</ele>
        <time>2021-10-24T09:14:07Z</time>
      </trkpt>
      <trkpt lat="44.11797" lon="4.50894">
        <ele>150.2</ele>
        <time>2021-10-24T09:14:08Z</time>
      </trkpt>
      <trkpt lat="44.118" lon="4.50889">
        <ele>150.4</ele>
        <time>2021-10-24T09:14:09Z</time>
      </trkpt>
      <trkpt lat="44.11804" lon="4.50884">
        <ele>150.6</ele>
        <time>2021-10-24T09:14:10Z</time>
      </trkpt>
      <trkpt lat="44.11808" lon="4.50879">
        <ele>150.6</ele>
        <time>2021-10-24T09:14:11Z</time>
      </trkpt>
      <trkpt lat="44.11812" lon="4.50874">
        <ele>150.6</ele>
        <time>2021-10-24T09:14:12Z</time>
      </trkpt>
      <trkpt lat="44.11815" lon="4.50868">
        <ele>150.8</ele>
        <time>2021-10-24T09:14:13Z</time>
      </trkpt>
      <trkpt lat="44.11819" lon="4.50863">
        <ele>151</ele>
        <time>2021-10-24T09:14:14Z</time>
      </trkpt>
      <trkpt lat="44.11823" lon="4.50858">
        <ele>151.2</ele>
        <time>2021-10-24T09:14:15Z</time>
      </trkpt>
      <trkpt lat="44.11827" lon="4.50853">
        <ele>151.4</ele>
        <time>2021-10-24T09:14:16Z</time>
      </trkpt>
      <trkpt lat="44.1183" lon="4.50848">
        <ele>151.4</ele>
        <time>2021-10-24T09:14:17Z</time>
      </trkpt>
      <trkpt lat="44.11833" lon="4.50842">
        <ele>151.6</ele>
        <time>2021-10-24T09:14:18Z</time>
      </trkpt>
      <trkpt lat="44.11836" lon="4.50836">
        <ele>152</ele>
        <time>2021-10-24T09:14:19Z</time>
      </trkpt>
      <trkpt lat="44.11839" lon="4.50831">
        <ele>152</ele>
        <time>2021-10-24T09:14:20Z</time>
      </trkpt>
      <trkpt lat="44.11842" lon="4.50825">
        <ele>152.2</ele>
        <time>2021-10-24T09:14:21Z</time>
      </trkpt>
      <trkpt lat="44.11845" lon="4.50819">
        <ele>152.8</ele>
        <time>2021-10-24T09:14:22Z</time>
      </trkpt>
      <trkpt lat="44.11847" lon="4.50812">
        <ele>153</ele>
        <time>2021-10-24T09:14:23Z</time>
      </trkpt>
      <trkpt lat="44.1185" lon="4.50806">
        <ele>153.4</ele>
        <time>2021-10-24T09:14:24Z</time>
      </trkpt>
      <trkpt lat="44.11852" lon="4.50799">
        <ele>153.6</ele>
        <time>2021-10-24T09:14:25Z</time>
      </trkpt>
      <trkpt lat="44.11855" lon="4.50793">
        <ele>153.8</ele>
        <time>2021-10-24T09:14:26Z</time>
      </trkpt>
      <trkpt lat="44.11857" lon="4.50786">
        <ele>154</ele>
        <time>2021-10-24T09:14:27Z</time>
      </trkpt>
      <trkpt lat="44.1186" lon="4.50779">
        <ele>154</ele>
        <time>2021-10-24T09:14:28Z</time>
      </trkpt>
      <trkpt lat="44.11863" lon="4.50773">
        <ele>154</ele>
        <time>2021-10-24T09:14:29Z</time>
      </trkpt>
      <trkpt lat="44.11865" lon="4.50766">
        <ele>154.4</ele>
        <time>2021-10-24T09:14:30Z</time>
      </trkpt>
      <trkpt lat="44.11867" lon="4.5076">
        <ele>154.6</ele>
        <time>2021-10-24T09:14:31Z</time>
      </trkpt>
      <trkpt lat="44.1187" lon="4.50753">
        <ele>154.8</ele>
        <time>2021-10-24T09:14:32Z</time>
      </trkpt>
      <trkpt lat="44.11872" lon="4.50746">
        <ele>155</ele>
        <time>2021-10-24T09:14:33Z</time>
      </trkpt>
      <trkpt lat="44.11875" lon="4.5074">
        <ele>155</ele>
        <time>2021-10-24T09:14:34Z</time>
      </trkpt>
      <trkpt lat="44.11878" lon="4.50734">
        <ele>155.2</ele>
        <time>2021-10-24T09:14:35Z</time>
      </trkpt>
      <trkpt lat="44.1188" lon="4.50727">
        <ele>155.4</ele>
        <time>2021-10-24T09:14:36Z</time>
      </trkpt>
      <trkpt lat="44.11883" lon="4.50721">
        <ele>155.4</ele>
        <time>2021-10-24T09:14:37Z</time>
      </trkpt>
      <trkpt lat="44.11886" lon="4.50714">
        <ele>155.6</ele>
        <time>2021-10-24T09:14:38Z</time>
      </trkpt>
      <trkpt lat="44.11888" lon="4.50707">
        <ele>155.8</ele>
        <time>2021-10-24T09:14:39Z</time>
      </trkpt>
      <trkpt lat="44.1189" lon="4.50701">
        <ele>156.6</ele>
        <time>2021-10-24T09:14:40Z</time>
      </trkpt>
      <trkpt lat="44.11893" lon="4.50694">
        <ele>156.8</ele>
        <time>2021-10-24T09:14:41Z</time>
      </trkpt>
      <trkpt lat="44.11895" lon="4.50688">
        <ele>156.8</ele>
        <time>2021-10-24T09:14:42Z</time>
      </trkpt>
      <trkpt lat="44.11898" lon="4.50681">
        <ele>157</ele>
        <time>2021-10-24T09:14:43Z</time>
      </trkpt>
      <trkpt lat="44.119" lon="4.50674">
        <ele>157.4</ele>
        <time>2021-10-24T09:14:44Z</time>
      </trkpt>
      <trkpt lat="44.11902" lon="4.50668">
        <ele>157.8</ele>
        <time>2021-10-24T09:14:45Z</time>
      </trkpt>
      <trkpt lat="44.11905" lon="4.50661">
        <ele>158</ele>
        <time>2021-10-24T09:14:46Z</time>
      </trkpt>
      <trkpt lat="44.11907" lon="4.50655">
        <ele>158</ele>
        <time>2021-10-24T09:14:47Z</time>
      </trkpt>
      <trkpt lat="44.1191" lon="4.50648">
        <ele>158.4</ele>
        <time>2021-10-24T09:14:48Z</time>
      </trkpt>
      <trkpt lat="44.11912" lon="4.50642">
        <ele>158.8</ele>
        <time>2021-10-24T09:14:49Z</time>
      </trkpt>
      <trkpt lat="44.11915" lon="4.50635">
        <ele>158.8</ele>
        <time>2021-10-24T09:14:50Z</time>
      </trkpt>
      <trkpt lat="44.11917" lon="4.50628">
        <ele>159</ele>
        <time>2021-10-24T09:14:51Z</time>
      </trkpt>
      <trkpt lat="44.1192" lon="4.50621">
        <ele>158.8</ele>
        <time>2021-10-24T09:14:52Z</time>
      </trkpt>
      <trkpt lat="44.11922" lon="4.50615">
        <ele>159</ele>
        <time>2021-10-24T09:14:53Z</time>
      </trkpt>
      <trkpt lat="44.11925" lon="4.50608">
        <ele>159</ele>
        <time>2021-10-24T09:14:54Z</time>
      </trkpt>
      <trkpt lat="44.11928" lon="4.50602">
        <ele>159.4</ele>
        <time>2021-10-24T09:14:55Z</time>
      </trkpt>
      <trkpt lat="44.1193" lon="4.50595">
        <ele>159.2</ele>
        <time>2021-10-24T09:14:56Z</time>
      </trkpt>
      <trkpt lat="44.11933" lon="4.50588">
        <ele>159.2</ele>
        <time>2021-10-24T09:14:57Z</time>
      </trkpt>
      <trkpt lat="44.11936" lon="4.50581">
        <ele>159.4</ele>
        <time>2021-10-24T09:14:58Z</time>
      </trkpt>
      <trkpt lat="44.11938" lon="4.50574">
        <ele>159.8</ele>
        <time>2021-10-24T09:14:59Z</time>
      </trkpt>
      <trkpt lat="44.11941" lon="4.50567">
        <ele>159.8</ele>
        <time>2021-10-24T09:15:00Z</time>
      </trkpt>
      <trkpt lat="44.11944" lon="4.5056">
        <ele>160</ele>
        <time>2021-10-24T09:15:01Z</time>
      </trkpt>
      <trkpt lat="44.11946" lon="4.50553">
        <ele>160.4</ele>
        <time>2021-10-24T09:15:02Z</time>
      </trkpt>
      <trkpt lat="44.11949" lon="4.50546">
        <ele>160.6</ele>
        <time>2021-10-24T09:15:03Z</time>
      </trkpt>
      <trkpt lat="44.11951" lon="4.50539">
        <ele>160.8</ele>
        <time>2021-10-24T09:15:04Z</time>
      </trkpt>
      <trkpt lat="44.11954" lon="4.50532">
        <ele>161</ele>
        <time>2021-10-24T09:15:05Z</time>
      </trkpt>
      <trkpt lat="44.11957" lon="4.50525">
        <ele>161</ele>
        <time>2021-10-24T09:15:06Z</time>
      </trkpt>
      <trkpt lat="44.11959" lon="4.50518">
        <ele>161.2</ele>
        <time>2021-10-24T09:15:07Z</time>
      </trkpt>
      <trkpt lat="44.11962" lon="4.50512">
        <ele>161.4</ele>
        <time>2021-10-24T09:15:08Z</time>
      </trkpt>
      <trkpt lat="44.11964" lon="4.50505">
        <ele>161.6</ele>
        <time>2021-10-24T09:15:09Z</time>
      </trkpt>
      <trkpt lat="44.11967" lon="4.50498">
        <ele>162</ele>
        <time>2021-10-24T09:15:10Z</time>
      </trkpt>
      <trkpt lat="44.1197" lon="4.50491">
        <ele>162</ele>
        <time>2021-10-24T09:15:11Z</time>
      </trkpt>
      <trkpt lat="44.11972" lon="4.50484">
        <ele>162.2</ele>
        <time>2021-10-24T09:15:12Z</time>
      </trkpt>
      <trkpt lat="44.11975" lon="4.50477">
        <ele>162.2</ele>
        <time>2021-10-24T09:15:13Z</time>
      </trkpt>
      <trkpt lat="44.11977" lon="4.5047">
        <ele>162.4</ele>
        <time>2021-10-24T09:15:14Z</time>
      </trkpt>
      <trkpt lat="44.1198" lon="4.50463">
        <ele>162.8</ele>
        <time>2021-10-24T09:15:15Z</time>
      </trkpt>
      <trkpt lat="44.11983" lon="4.50456">
        <ele>162.8</ele>
        <time>2021-10-24T09:15:16Z</time>
      </trkpt>
      <trkpt lat="44.11985" lon="4.50449">
        <ele>163.2</ele>
        <time>2021-10-24T09:15:17Z</time>
      </trkpt>
      <trkpt lat="44.11988" lon="4.50443">
        <ele>163.6</ele>
        <time>2021-10-24T09:15:18Z</time>
      </trkpt>
      <trkpt lat="44.11991" lon="4.50436">
        <ele>163.8</ele>
        <time>2021-10-24T09:15:19Z</time>
      </trkpt>
      <trkpt lat="44.11994" lon="4.50429">
        <ele>163.8</ele>
        <time>2021-10-24T09:15:20Z</time>
      </trkpt>
      <trkpt lat="44.11998" lon="4.50423">
        <ele>164</ele>
        <time>2021-10-24T09:15:21Z</time>
      </trkpt>
      <trkpt lat="44.12001" lon="4.50417">
        <ele>164.4</ele>
        <time>2021-10-24T09:15:22Z</time>
      </trkpt>
      <trkpt lat="44.12005" lon="4.50411">
        <ele>164.4</ele>
        <time>2021-10-24T09:15:23Z</time>
      </trkpt>
      <trkpt lat="44.12009" lon="4.50406">
        <ele>164.8</ele>
        <time>2021-10-24T09:15:24Z</time>
      </trkpt>
      <trkpt lat="44.12014" lon="4.50401">
        <ele>165</ele>
        <time>2021-10-24T09:15:25Z</time>
      </trkpt>
      <trkpt lat="44.12018" lon="4.50396">
        <ele>165.2</ele>
        <time>2021-10-24T09:15:26Z</time>
      </trkpt>
      <trkpt lat="44.12023" lon="4.50392">
        <ele>165.4</ele>
        <time>2021-10-24T09:15:27Z</time>
      </trkpt>
      <trkpt lat="44.12028" lon="4.50388">
        <ele>165.6</ele>
        <time>2021-10-24T09:15:28Z</time>
      </trkpt>
      <trkpt lat="44.12033" lon="4.50384">
        <ele>165.8</ele>
        <time>2021-10-24T09:15:29Z</time>
      </trkpt>
      <trkpt lat="44.12038" lon="4.5038">
        <ele>166</ele>
        <time>2021-10-24T09:15:30Z</time>
      </trkpt>
      <trkpt lat="44.12043" lon="4.50376">
        <ele>166.2</ele>
        <time>2021-10-24T09:15:31Z</time>
      </trkpt>
      <trkpt lat="44.12048" lon="4.50372">
        <ele>166.4</ele>
        <time>2021-10-24T09:15:32Z</time>
      </trkpt>
      <trkpt lat="44.12053" lon="4.50368">
        <ele>166.6</ele>
        <time>2021-10-24T09:15:33Z</time>
      </trkpt>
      <trkpt lat="44.12058" lon="4.50365">
        <ele>167</ele>
        <time>2021-10-24T09:15:34Z</time>
      </trkpt>
      <trkpt lat="44.12063" lon="4.50361">
        <ele>167</ele>
        <time>2021-10-24T09:15:35Z</time>
      </trkpt>
      <trkpt lat="44.12068" lon="4.50357">
        <ele>167.4</ele>
        <time>2021-10-24T09:15:36Z</time>
      </trkpt>
      <trkpt lat="44.12073" lon="4.50353">
        <ele>167.6</ele>
        <time>2021-10-24T09:15:37Z</time>
      </trkpt>
      <trkpt lat="44.12078" lon="4.50349">
        <ele>167.8</ele>
        <time>2021-10-24T09:15:38Z</time>
      </trkpt>
      <trkpt lat="44.12083" lon="4.50345">
        <ele>167.8</ele>
        <time>2021-10-24T09:15:39Z</time>
      </trkpt>
      <trkpt lat="44.12088" lon="4.50341">
        <ele>168</ele>
        <time>2021-10-24T09:15:40Z</time>
      </trkpt>
      <trkpt lat="44.12093" lon="4.50337">
        <ele>168.2</ele>
        <time>2021-10-24T09:15:41Z</time>
      </trkpt>
      <trkpt lat="44.12098" lon="4.50333">
        <ele>168.4</ele>
        <time>2021-10-24T09:15:42Z</time>
      </trkpt>
      <trkpt lat="44.12103" lon="4.50329">
        <ele>168.8</ele>
        <time>2021-10-24T09:15:43Z</time>
      </trkpt>
      <trkpt lat="44.12109" lon="4.50325">
        <ele>169</ele>
        <time>2021-10-24T09:15:44Z</time>
      </trkpt>
      <trkpt lat="44.12114" lon="4.50322">
        <ele>169.2</ele>
        <time>2021-10-24T09:15:45Z</time>
      </trkpt>
      <trkpt lat="44.12119" lon="4.50318">
        <ele>169.4</ele>
        <time>2021-10-24T09:15:46Z</time>
      </trkpt>
      <trkpt lat="44.12124" lon="4.50314">
        <ele>169.6</ele>
        <time>2021-10-24T09:15:47Z</time>
      </trkpt>
      <trkpt lat="44.12129" lon="4.5031">
        <ele>169.8</ele>
        <time>2021-10-24T09:15:48Z</time>
      </trkpt>
      <trkpt lat="44.12134" lon="4.50307">
        <ele>169.8</ele>
        <time>2021-10-24T09:15:49Z</time>
      </trkpt>
      <trkpt lat="44.12139" lon="4.50303">
        <ele>170</ele>
        <time>2021-10-24T09:15:50Z</time>
      </trkpt>
      <trkpt lat="44.12143" lon="4.50299">
        <ele>170.2</ele>
        <time>2021-10-24T09:15:51Z</time>
      </trkpt>
      <trkpt lat="44.12148" lon="4.50296">
        <ele>170.4</ele>
        <time>2021-10-24T09:15:52Z</time>
      </trkpt>
      <trkpt lat="44.12153" lon="4.50292">
        <ele>170.4</ele>
        <time>2021-10-24T09:15:53Z</time>
      </trkpt>
      <trkpt lat="44.12158" lon="4.50289">
        <ele>170.6</ele>
        <time>2021-10-24T09:15:54Z</time>
      </trkpt>
      <trkpt lat="44.12162" lon="4.50285">
        <ele>170.4</ele>
        <time>2021-10-24T09:15:55Z</time>
      </trkpt>
      <trkpt lat="44.12167" lon="4.50281">
        <ele>170.4</ele>
        <time>2021-10-24T09:15:56Z</time>
      </trkpt>
      <trkpt lat="44.12172" lon="4.50277">
        <ele>170.8</ele>
        <time>2021-10-24T09:15:57Z</time>
      </trkpt>
      <trkpt lat="44.12177" lon="4.50274">
        <ele>171.2</ele>
        <time>2021-10-24T09:15:58Z</time>
      </trkpt>
      <trkpt lat="44.12182" lon="4.5027">
        <ele>171.2</ele>
        <time>2021-10-24T09:15:59Z</time>
      </trkpt>
      <trkpt lat="44.12187" lon="4.50266">
        <ele>171.6</ele>
        <time>2021-10-24T09:16:00Z</time>
      </trkpt>
      <trkpt lat="44.12192" lon="4.50263">
        <ele>172.2</ele>
        <time>2021-10-24T09:16:01Z</time>
      </trkpt>
      <trkpt lat="44.12197" lon="4.50259">
        <ele>172.6</ele>
        <time>2021-10-24T09:16:02Z</time>
      </trkpt>
      <trkpt lat="44.12201" lon="4.50255">
        <ele>173</ele>
        <time>2021-10-24T09:16:03Z</time>
      </trkpt>
      <trkpt lat="44.12206" lon="4.50252">
        <ele>173.2</ele>
        <time>2021-10-24T09:16:04Z</time>
      </trkpt>
      <trkpt lat="44.1221" lon="4.50248">
        <ele>173.4</ele>
        <time>2021-10-24T09:16:05Z</time>
      </trkpt>
      <trkpt lat="44.12215" lon="4.50245">
        <ele>173.6</ele>
        <time>2021-10-24T09:16:06Z</time>
      </trkpt>
      <trkpt lat="44.12219" lon="4.50242">
        <ele>173.8</ele>
        <time>2021-10-24T09:16:07Z</time>
      </trkpt>
      <trkpt lat="44.12223" lon="4.50238">
        <ele>173.8</ele>
        <time>2021-10-24T09:16:08Z</time>
      </trkpt>
      <trkpt lat="44.12228" lon="4.50235">
        <ele>174</ele>
        <time>2021-10-24T09:16:09Z</time>
      </trkpt>
      <trkpt lat="44.12232" lon="4.50231">
        <ele>174.2</ele>
        <time>2021-10-24T09:16:10Z</time>
      </trkpt>
      <trkpt lat="44.12237" lon="4.50228">
        <ele>174.2</ele>
        <time>2021-10-24T09:16:11Z</time>
      </trkpt>
      <trkpt lat="44.12241" lon="4.50224">
        <ele>174.4</ele>
        <time>2021-10-24T09:16:12Z</time>
      </trkpt>
      <trkpt lat="44.12245" lon="4.5022">
        <ele>174.8</ele>
        <time>2021-10-24T09:16:13Z</time>
      </trkpt>
      <trkpt lat="44.12249" lon="4.50217">
        <ele>175</ele>
        <time>2021-10-24T09:16:14Z</time>
      </trkpt>
      <trkpt lat="44.12253" lon="4.50213">
        <ele>175.2</ele>
        <time>2021-10-24T09:16:15Z</time>
      </trkpt>
      <trkpt lat="44.12257" lon="4.50209">
        <ele>175</ele>
        <time>2021-10-24T09:16:16Z</time>
      </trkpt>
      <trkpt lat="44.12262" lon="4.50205">
        <ele>175.4</ele>
        <time>2021-10-24T09:16:17Z</time>
      </trkpt>
      <trkpt lat="44.12266" lon="4.50201">
        <ele>175.4</ele>
        <time>2021-10-24T09:16:18Z</time>
      </trkpt>
      <trkpt lat="44.1227" lon="4.50197">
        <ele>175.6</ele>
        <time>2021-10-24T09:16:19Z</time>
      </trkpt>
      <trkpt lat="44.12275" lon="4.50193">
        <ele>175.8</ele>
        <time>2021-10-24T09:16:20Z</time>
      </trkpt>
      <trkpt lat="44.12279" lon="4.50189">
        <ele>176</ele>
        <time>2021-10-24T09:16:21Z</time>
      </trkpt>
      <trkpt lat="44.12283" lon="4.50185">
        <ele>176.2</ele>
        <time>2021-10-24T09:16:22Z</time>
      </trkpt>
      <trkpt lat="44.12287" lon="4.50181">
        <ele>176.6</ele>
        <time>2021-10-24T09:16:23Z</time>
      </trkpt>
      <trkpt lat="44.12291" lon="4.50176">
        <ele>177</ele>
        <time>2021-10-24T09:16:24Z</time>
      </trkpt>
      <trkpt lat="44.12295" lon="4.50172">
        <ele>177.2</ele>
        <time>2021-10-24T09:16:25Z</time>
      </trkpt>
      <trkpt lat="44.123" lon="4.50168">
        <ele>177.6</ele>
        <time>2021-10-24T09:16:26Z</time>
      </trkpt>
      <trkpt lat="44.12304" lon="4.50164">
        <ele>177.8</ele>
        <time>2021-10-24T09:16:27Z</time>
      </trkpt>
      <trkpt lat="44.12308" lon="4.5016">
        <ele>177.8</ele>
        <time>2021-10-24T09:16:28Z</time>
      </trkpt>
      <trkpt lat="44.12312" lon="4.50156">
        <ele>178</ele>
        <time>2021-10-24T09:16:29Z</time>
      </trkpt>
      <trkpt lat="44.12316" lon="4.50151">
        <ele>177.8</ele>
        <time>2021-10-24T09:16:30Z</time>
      </trkpt>
      <trkpt lat="44.12321" lon="4.50147">
        <ele>178</ele>
        <time>2021-10-24T09:16:31Z</time>
      </trkpt>
      <trkpt lat="44.12325" lon="4.50143">
        <ele>178.2</ele>
        <time>2021-10-24T09:16:32Z</time>
      </trkpt>
      <trkpt lat="44.12329" lon="4.50139">
        <ele>178.2</ele>
        <time>2021-10-24T09:16:33Z</time>
      </trkpt>
      <trkpt lat="44.12334" lon="4.50135">
        <ele>178.6</ele>
        <time>2021-10-24T09:16:34Z</time>
      </trkpt>
      <trkpt lat="44.12338" lon="4.5013">
        <ele>179.2</ele>
        <time>2021-10-24T09:16:35Z</time>
      </trkpt>
      <trkpt lat="44.12342" lon="4.50127">
        <ele>179.2</ele>
        <time>2021-10-24T09:16:36Z</time>
      </trkpt>
      <trkpt lat="44.12347" lon="4.50123">
        <ele>179.6</ele>
        <time>2021-10-24T09:16:37Z</time>
      </trkpt>
      <trkpt lat="44.12351" lon="4.50119">
        <ele>179.8</ele>
        <time>2021-10-24T09:16:38Z</time>
      </trkpt>
      <trkpt lat="44.12356" lon="4.50116">
        <ele>179.6</ele>
        <time>2021-10-24T09:16:39Z</time>
      </trkpt>
      <trkpt lat="44.12361" lon="4.50112">
        <ele>179.6</ele>
        <time>2021-10-24T09:16:40Z</time>
      </trkpt>
      <trkpt lat="44.12366" lon="4.5011">
        <ele>179.6</ele>
        <time>2021-10-24T09:16:41Z</time>
      </trkpt>
      <trkpt lat="44.12371" lon="4.50108">
        <ele>179.8</ele>
        <time>2021-10-24T09:16:42Z</time>
      </trkpt>
      <trkpt lat="44.12376" lon="4.50106">
        <ele>180</ele>
        <time>2021-10-24T09:16:43Z</time>
      </trkpt>
      <trkpt lat="44.12382" lon="4.50105">
        <ele>180.2</ele>
        <time>2021-10-24T09:16:44Z</time>
      </trkpt>
      <trkpt lat="44.12387" lon="4.50104">
        <ele>180.4</ele>
        <time>2021-10-24T09:16:45Z</time>
      </trkpt>
      <trkpt lat="44.12393" lon="4.50104">
        <ele>180.6</ele>
        <time>2021-10-24T09:16:46Z</time>
      </trkpt>
      <trkpt lat="44.12398" lon="4.50104">
        <ele>181</ele>
        <time>2021-10-24T09:16:47Z</time>
      </trkpt>
      <trkpt lat="44.12403" lon="4.50105">
        <ele>181</ele>
        <time>2021-10-24T09:16:48Z</time>
      </trkpt>
      <trkpt lat="44.12409" lon="4.50106">
        <ele>181.2</ele>
        <time>2021-10-24T09:16:49Z</time>
      </trkpt>
      <trkpt lat="44.12414" lon="4.50107">
        <ele>181.4</ele>
        <time>2021-10-24T09:16:50Z</time>
      </trkpt>
      <trkpt lat="44.12419" lon="4.50108">
        <ele>181.6</ele>
        <time>2021-10-24T09:16:51Z</time>
      </trkpt>
      <trkpt lat="44.12425" lon="4.50109">
        <ele>181.6</ele>
        <time>2021-10-24T09:16:52Z</time>
      </trkpt>
      <trkpt lat="44.1243" lon="4.5011">
        <ele>181.8</ele>
        <time>2021-10-24T09:16:53Z</time>
      </trkpt>
      <trkpt lat="44.12435" lon="4.5011">
        <ele>182</ele>
        <time>2021-10-24T09:16:54Z</time>
      </trkpt>
      <trkpt lat="44.12441" lon="4.5011">
        <ele>182.2</ele>
        <time>2021-10-24T09:16:55Z</time>
      </trkpt>
      <trkpt lat="44.12446" lon="4.5011">
        <ele>182.4</ele>
        <time>2021-10-24T09:16:56Z</time>
      </trkpt>
      <trkpt lat="44.12452" lon="4.50109">
        <ele>182.8</ele>
        <time>2021-10-24T09:16:57Z</time>
      </trkpt>
      <trkpt lat="44.12457" lon="4.50108">
        <ele>183</ele>
        <time>2021-10-24T09:16:58Z</time>
      </trkpt>
      <trkpt lat="44.12463" lon="4.50107">
        <ele>183.2</ele>
        <time>2021-10-24T09:16:59Z</time>
      </trkpt>
      <trkpt lat="44.12468" lon="4.50105">
        <ele>183.4</ele>
        <time>2021-10-24T09:17:00Z</time>
      </trkpt>
      <trkpt lat="44.12473" lon="4.50102">
        <ele>183.6</ele>
        <time>2021-10-24T09:17:01Z</time>
      </trkpt>
      <trkpt lat="44.12478" lon="4.501">
        <ele>183.8</ele>
        <time>2021-10-24T09:17:02Z</time>
      </trkpt>
      <trkpt lat="44.12483" lon="4.50097">
        <ele>184.2</ele>
        <time>2021-10-24T09:17:03Z</time>
      </trkpt>
      <trkpt lat="44.12488" lon="4.50093">
        <ele>184.2</ele>
        <time>2021-10-24T09:17:04Z</time>
      </trkpt>
      <trkpt lat="44.12493" lon="4.5009">
        <ele>184.6</ele>
        <time>2021-10-24T09:17:05Z</time>
      </trkpt>
      <trkpt lat="44.12498" lon="4.50086">
        <ele>184.8</ele>
        <time>2021-10-24T09:17:06Z</time>
      </trkpt>
      <trkpt lat="44.12503" lon="4.50082">
        <ele>184.8</ele>
        <time>2021-10-24T09:17:07Z</time>
      </trkpt>
      <trkpt lat="44.12508" lon="4.50078">
        <ele>184.8</ele>
        <time>2021-10-24T09:17:08Z</time>
      </trkpt>
      <trkpt lat="44.12513" lon="4.50074">
        <ele>185</ele>
        <time>2021-10-24T09:17:09Z</time>
      </trkpt>
      <trkpt lat="44.12518" lon="4.5007">
        <ele>185.2</ele>
        <time>2021-10-24T09:17:10Z</time>
      </trkpt>
      <trkpt lat="44.12523" lon="4.50067">
        <ele>185.4</ele>
        <time>2021-10-24T09:17:11Z</time>
      </trkpt>
      <trkpt lat="44.12528" lon="4.50063">
        <ele>185.6</ele>
        <time>2021-10-24T09:17:12Z</time>
      </trkpt>
      <trkpt lat="44.12533" lon="4.50059">
        <ele>185.8</ele>
        <time>2021-10-24T09:17:13Z</time>
      </trkpt>
      <trkpt lat="44.12537" lon="4.50055">
        <ele>185.8</ele>
        <time>2021-10-24T09:17:14Z</time>
      </trkpt>
      <trkpt lat="44.12542" lon="4.50051">
        <ele>186</ele>
        <time>2021-10-24T09:17:15Z</time>
      </trkpt>
      <trkpt lat="44.12547" lon="4.50047">
        <ele>186.2</ele>
        <time>2021-10-24T09:17:16Z</time>
      </trkpt>
      <trkpt lat="44.12552" lon="4.50043">
        <ele>186.4</ele>
        <time>2021-10-24T09:17:17Z</time>
      </trkpt>
      <trkpt lat="44.12557" lon="4.50039">
        <ele>186.6</ele>
        <time>2021-10-24T09:17:18Z</time>
      </trkpt>
      <trkpt lat="44.12561" lon="4.50034">
        <ele>186.6</ele>
        <time>2021-10-24T09:17:19Z</time>
      </trkpt>
      <trkpt lat="44.12566" lon="4.5003">
        <ele>187</ele>
        <time>2021-10-24T09:17:20Z</time>
      </trkpt>
      <trkpt lat="44.1257" lon="4.50025">
        <ele>187</ele>
        <time>2021-10-24T09:17:21Z</time>
      </trkpt>
      <trkpt lat="44.12575" lon="4.50021">
        <ele>187.2</ele>
        <time>2021-10-24T09:17:22Z</time>
      </trkpt>
      <trkpt lat="44.12579" lon="4.50016">
        <ele>187.2</ele>
        <time>2021-10-24T09:17:23Z</time>
      </trkpt>
      <trkpt lat="44.12583" lon="4.50011">
        <ele>187.6</ele>
        <time>2021-10-24T09:17:24Z</time>
      </trkpt>
      <trkpt lat="44.12587" lon="4.50006">
        <ele>188</ele>
        <time>2021-10-24T09:17:25Z</time>
      </trkpt>
      <trkpt lat="44.12592" lon="4.50001">
        <ele>188.2</ele>
        <time>2021-10-24T09:17:26Z</time>
      </trkpt>
      <trkpt lat="44.12596" lon="4.49995">
        <ele>188.6</ele>
        <time>2021-10-24T09:17:27Z</time>
      </trkpt>
      <trkpt lat="44.126" lon="4.4999">
        <ele>189</ele>
        <time>2021-10-24T09:17:28Z</time>
      </trkpt>
      <trkpt lat="44.12604" lon="4.49985">
        <ele>189</ele>
        <time>2021-10-24T09:17:29Z</time>
      </trkpt>
      <trkpt lat="44.12608" lon="4.4998">
        <ele>189.2</ele>
        <time>2021-10-24T09:17:30Z</time>
      </trkpt>
      <trkpt lat="44.12612" lon="4.49974">
        <ele>189.4</ele>
        <time>2021-10-24T09:17:31Z</time>
      </trkpt>
      <trkpt lat="44.12616" lon="4.49969">
        <ele>189.8</ele>
        <time>2021-10-24T09:17:32Z</time>
      </trkpt>
      <trkpt lat="44.1262" lon="4.49964">
        <ele>190</ele>
        <time>2021-10-24T09:17:33Z</time>
      </trkpt>
      <trkpt lat="44.12624" lon="4.49959">
        <ele>190</ele>
        <time>2021-10-24T09:17:34Z</time>
      </trkpt>
      <trkpt lat="44.12628" lon="4.49954">
        <ele>190</ele>
        <time>2021-10-24T09:17:35Z</time>
      </trkpt>
      <trkpt lat="44.12632" lon="4.49949">
        <ele>190.4</ele>
        <time>2021-10-24T09:17:36Z</time>
      </trkpt>
      <trkpt lat="44.12637" lon="4.49944">
        <ele>190.6</ele>
        <time>2021-10-24T09:17:37Z</time>
      </trkpt>
      <trkpt lat="44.12641" lon="4.49939">
        <ele>190.8</ele>
        <time>2021-10-24T09:17:38Z</time>
      </trkpt>
      <trkpt lat="44.12645" lon="4.49934">
        <ele>190.8</ele>
        <time>2021-10-24T09:17:39Z</time>
      </trkpt>
      <trkpt lat="44.1265" lon="4.49929">
        <ele>191.2</ele>
        <time>2021-10-24T09:17:40Z</time>
      </trkpt>
      <trkpt lat="44.12654" lon="4.49924">
        <ele>191.4</ele>
        <time>2021-10-24T09:17:41Z</time>
      </trkpt>
      <trkpt lat="44.12659" lon="4.49919">
        <ele>191.8</ele>
        <time>2021-10-24T09:17:42Z</time>
      </trkpt>
      <trkpt lat="44.12664" lon="4.49915">
        <ele>192.2</ele>
        <time>2021-10-24T09:17:43Z</time>
      </trkpt>
      <trkpt lat="44.12668" lon="4.4991">
        <ele>192.2</ele>
        <time>2021-10-24T09:17:44Z</time>
      </trkpt>
      <trkpt lat="44.12673" lon="4.49906">
        <ele>192.4</ele>
        <time>2021-10-24T09:17:45Z</time>
      </trkpt>
      <trkpt lat="44.12677" lon="4.49901">
        <ele>192.4</ele>
        <time>2021-10-24T09:17:46Z</time>
      </trkpt>
      <trkpt lat="44.12682" lon="4.49897">
        <ele>192.6</ele>
        <time>2021-10-24T09:17:47Z</time>
      </trkpt>
      <trkpt lat="44.12687" lon="4.49892">
        <ele>192.4</ele>
        <time>2021-10-24T09:17:48Z</time>
      </trkpt>
      <trkpt lat="44.12691" lon="4.49888">
        <ele>192.6</ele>
        <time>2021-10-24T09:17:49Z</time>
      </trkpt>
      <trkpt lat="44.12696" lon="4.49884">
        <ele>192.6</ele>
        <time>2021-10-24T09:17:50Z</time>
      </trkpt>
      <trkpt lat="44.127" lon="4.49879">
        <ele>193</ele>
        <time>2021-10-24T09:17:51Z</time>
      </trkpt>
      <trkpt lat="44.12705" lon="4.49875">
        <ele>193.2</ele>
        <time>2021-10-24T09:17:52Z</time>
      </trkpt>
      <trkpt lat="44.12709" lon="4.4987">
        <ele>193.4</ele>
        <time>2021-10-24T09:17:53Z</time>
      </trkpt>
      <trkpt lat="44.12714" lon="4.49866">
        <ele>193.4</ele>
        <time>2021-10-24T09:17:54Z</time>
      </trkpt>
      <trkpt lat="44.12718" lon="4.49862">
        <ele>193.8</ele>
        <time>2021-10-24T09:17:55Z</time>
      </trkpt>
      <trkpt lat="44.12723" lon="4.49858">
        <ele>194</ele>
        <time>2021-10-24T09:17:56Z</time>
      </trkpt>
      <trkpt lat="44.12727" lon="4.49854">
        <ele>194.4</ele>
        <time>2021-10-24T09:17:57Z</time>
      </trkpt>
      <trkpt lat="44.12732" lon="4.49849">
        <ele>194.6</ele>
        <time>2021-10-24T09:17:58Z</time>
      </trkpt>
      <trkpt lat="44.12736" lon="4.49845">
        <ele>195</ele>
        <time>2021-10-24T09:17:59Z</time>
      </trkpt>
      <trkpt lat="44.1274" lon="4.49841">
        <ele>195</ele>
        <time>2021-10-24T09:18:00Z</time>
      </trkpt>
      <trkpt lat="44.12745" lon="4.49837">
        <ele>195.2</ele>
        <time>2021-10-24T09:18:01Z</time>
      </trkpt>
      <trkpt lat="44.12749" lon="4.49833">
        <ele>195.4</ele>
        <time>2021-10-24T09:18:02Z</time>
      </trkpt>
      <trkpt lat="44.12753" lon="4.49828">
        <ele>195.6</ele>
        <time>2021-10-24T09:18:03Z</time>
      </trkpt>
      <trkpt lat="44.12757" lon="4.49824">
        <ele>195.6</ele>
        <time>2021-10-24T09:18:04Z</time>
      </trkpt>
      <trkpt lat="44.12762" lon="4.4982">
        <ele>196</ele>
        <time>2021-10-24T09:18:05Z</time>
      </trkpt>
      <trkpt lat="44.12766" lon="4.49816">
        <ele>196.2</ele>
        <time>2021-10-24T09:18:06Z</time>
      </trkpt>
      <trkpt lat="44.1277" lon="4.49812">
        <ele>196.4</ele>
        <time>2021-10-24T09:18:07Z</time>
      </trkpt>
      <trkpt lat="44.12774" lon="4.49808">
        <ele>196.6</ele>
        <time>2021-10-24T09:18:08Z</time>
      </trkpt>
      <trkpt lat="44.12778" lon="4.49804">
        <ele>197</ele>
        <time>2021-10-24T09:18:09Z</time>
      </trkpt>
      <trkpt lat="44.12782" lon="4.498">
        <ele>197.2</ele>
        <time>2021-10-24T09:18:10Z</time>
      </trkpt>
      <trkpt lat="44.12787" lon="4.49796">
        <ele>197</ele>
        <time>2021-10-24T09:18:11Z</time>
      </trkpt>
      <trkpt lat="44.12791" lon="4.49791">
        <ele>197.2</ele>
        <time>2021-10-24T09:18:12Z</time>
      </trkpt>
      <trkpt lat="44.12795" lon="4.49786">
        <ele>197.4</ele>
        <time>2021-10-24T09:18:13Z</time>
      </trkpt>
      <trkpt lat="44.12799" lon="4.49781">
        <ele>197.8</ele>
        <time>2021-10-24T09:18:14Z</time>
      </trkpt>
      <trkpt lat="44.12803" lon="4.49776">
        <ele>198.2</ele>
        <time>2021-10-24T09:18:15Z</time>
      </trkpt>
      <trkpt lat="44.12807" lon="4.49771">
        <ele>198.8</ele>
        <time>2021-10-24T09:18:16Z</time>
      </trkpt>
      <trkpt lat="44.12811" lon="4.49766">
        <ele>199.2</ele>
        <time>2021-10-24T09:18:17Z</time>
      </trkpt>
      <trkpt lat="44.12815" lon="4.49761">
        <ele>199.4</ele>
        <time>2021-10-24T09:18:18Z</time>
      </trkpt>
      <trkpt lat="44.12818" lon="4.49756">
        <ele>199.6</ele>
        <time>2021-10-24T09:18:19Z</time>
      </trkpt>
      <trkpt lat="44.12822" lon="4.49751">
        <ele>199.8</ele>
        <time>2021-10-24T09:18:20Z</time>
      </trkpt>
      <trkpt lat="44.12825" lon="4.49746">
        <ele>200</ele>
        <time>2021-10-24T09:18:21Z</time>
      </trkpt>
      <trkpt lat="44.12829" lon="4.49742">
        <ele>200.2</ele>
        <time>2021-10-24T09:18:22Z</time>
      </trkpt>
      <trkpt lat="44.12832" lon="4.49737">
        <ele>200.2</ele>
        <time>2021-10-24T09:18:23Z</time>
      </trkpt>
      <trkpt lat="44.12836" lon="4.49733">
        <ele>200.2</ele>
        <time>2021-10-24T09:18:24Z</time>
      </trkpt>
      <trkpt lat="44.12839" lon="4.49728">
        <ele>200.2</ele>
        <time>2021-10-24T09:18:25Z</time>
      </trkpt>
      <trkpt lat="44.12842" lon="4.49724">
        <ele>200.6</ele>
        <time>2021-10-24T09:18:26Z</time>
      </trkpt>
      <trkpt lat="44.12846" lon="4.49719">
        <ele>200.6</ele>
        <time>2021-10-24T09:18:27Z</time>
      </trkpt>
      <trkpt lat="44.12849" lon="4.49714">
        <ele>201</ele>
        <time>2021-10-24T09:18:28Z</time>
      </trkpt>
      <trkpt lat="44.12852" lon="4.4971">
        <ele>201.2</ele>
        <time>2021-10-24T09:18:29Z</time>
      </trkpt>
      <trkpt lat="44.12856" lon="4.49705">
        <ele>201.6</ele>
        <time>2021-10-24T09:18:30Z</time>
      </trkpt>
      <trkpt lat="44.12859" lon="4.497">
        <ele>202</ele>
        <time>2021-10-24T09:18:31Z</time>
      </trkpt>
      <trkpt lat="44.12862" lon="4.49696">
        <ele>202</ele>
        <time>2021-10-24T09:18:32Z</time>
      </trkpt>
      <trkpt lat="44.12866" lon="4.49691">
        <ele>202.4</ele>
        <time>2021-10-24T09:18:33Z</time>
      </trkpt>
      <trkpt lat="44.12869" lon="4.49686">
        <ele>202.6</ele>
        <time>2021-10-24T09:18:34Z</time>
      </trkpt>
      <trkpt lat="44.12872" lon="4.49682">
        <ele>202.8</ele>
        <time>2021-10-24T09:18:35Z</time>
      </trkpt>
      <trkpt lat="44.12876" lon="4.49677">
        <ele>203</ele>
        <time>2021-10-24T09:18:36Z</time>
      </trkpt>
      <trkpt lat="44.12879" lon="4.49672">
        <ele>203</ele>
        <time>2021-10-24T09:18:37Z</time>
      </trkpt>
      <trkpt lat="44.12882" lon="4.49668">
        <ele>203.2</ele>
        <time>2021-10-24T09:18:38Z</time>
      </trkpt>
      <trkpt lat="44.12885" lon="4.49663">
        <ele>203.6</ele>
        <time>2021-10-24T09:18:39Z</time>
      </trkpt>
      <trkpt lat="44.12889" lon="4.49659">
        <ele>204</ele>
        <time>2021-10-24T09:18:40Z</time>
      </trkpt>
      <trkpt lat="44.12892" lon="4.49654">
        <ele>204.4</ele>
        <time>2021-10-24T09:18:41Z</time>
      </trkpt>
      <trkpt lat="44.12895" lon="4.4965">
        <ele>204.6</ele>
        <time>2021-10-24T09:18:42Z</time>
      </trkpt>
      <trkpt lat="44.12899" lon="4.49645">
        <ele>204.8</ele>
        <time>2021-10-24T09:18:43Z</time>
      </trkpt>
      <trkpt lat="44.12902" lon="4.49641">
        <ele>205</ele>
        <time>2021-10-24T09:18:44Z</time>
      </trkpt>
      <trkpt lat="44.12905" lon="4.49636">
        <ele>205</ele>
        <time>2021-10-24T09:18:45Z</time>
      </trkpt>
      <trkpt lat="44.12909" lon="4.49632">
        <ele>205</ele>
        <time>2021-10-24T09:18:46Z</time>
      </trkpt>
      <trkpt lat="44.12912" lon="4.49627">
        <ele>205.2</ele>
        <time>2021-10-24T09:18:47Z</time>
      </trkpt>
      <trkpt lat="44.12915" lon="4.49623">
        <ele>205</ele>
        <time>2021-10-24T09:18:48Z</time>
      </trkpt>
      <trkpt lat="44.12919" lon="4.49618">
        <ele>205.4</ele>
        <time>2021-10-24T09:18:49Z</time>
      </trkpt>
      <trkpt lat="44.12922" lon="4.49614">
        <ele>205.8</ele>
        <time>2021-10-24T09:18:50Z</time>
      </trkpt>
      <trkpt lat="44.12925" lon="4.49609">
        <ele>206</ele>
        <time>2021-10-24T09:18:51Z</time>
      </trkpt>
      <trkpt lat="44.12929" lon="4.49604">
        <ele>206.2</ele>
        <time>2021-10-24T09:18:52Z</time>
      </trkpt>
      <trkpt lat="44.12932" lon="4.496">
        <ele>206.2</ele>
        <time>2021-10-24T09:18:53Z</time>
      </trkpt>
      <trkpt lat="44.12935" lon="4.49595">
        <ele>206.2</ele>
        <time>2021-10-24T09:18:54Z</time>
      </trkpt>
      <trkpt lat="44.12939" lon="4.4959">
        <ele>206.4</ele>
        <time>2021-10-24T09:18:55Z</time>
      </trkpt>
      <trkpt lat="44.12942" lon="4.49585">
        <ele>206.6</ele>
        <time>2021-10-24T09:18:56Z</time>
      </trkpt>
      <trkpt lat="44.12945" lon="4.4958">
        <ele>207</ele>
        <time>2021-10-24T09:18:57Z</time>
      </trkpt>
      <trkpt lat="44.12949" lon="4.49576">
        <ele>207.2</ele>
        <time>2021-10-24T09:18:58Z</time>
      </trkpt>
      <trkpt lat="44.12952" lon="4.49571">
        <ele>207.2</ele>
        <time>2021-10-24T09:18:59Z</time>
      </trkpt>
      <trkpt lat="44.12955" lon="4.49566">
        <ele>207.6</ele>
        <time>2021-10-24T09:19:00Z</time>
      </trkpt>
      <trkpt lat="44.12959" lon="4.49561">
        <ele>207.6</ele>
        <time>2021-10-24T09:19:01Z</time>
      </trkpt>
      <trkpt lat="44.12962" lon="4.49556">
        <ele>208</ele>
        <time>2021-10-24T09:19:02Z</time>
      </trkpt>
      <trkpt lat="44.12965" lon="4.49551">
        <ele>208</ele>
        <time>2021-10-24T09:19:03Z</time>
      </trkpt>
      <trkpt lat="44.12968" lon="4.49545">
        <ele>208.4</ele>
        <time>2021-10-24T09:19:04Z</time>
      </trkpt>
      <trkpt lat="44.1297" lon="4.4954">
        <ele>208.6</ele>
        <time>2021-10-24T09:19:05Z</time>
      </trkpt>
      <trkpt lat="44.12973" lon="4.49534">
        <ele>209</ele>
        <time>2021-10-24T09:19:06Z</time>
      </trkpt>
      <trkpt lat="44.12975" lon="4.49528">
        <ele>209.4</ele>
        <time>2021-10-24T09:19:07Z</time>
      </trkpt>
      <trkpt lat="44.12977" lon="4.49522">
        <ele>209.4</ele>
        <time>2021-10-24T09:19:08Z</time>
      </trkpt>
      <trkpt lat="44.12979" lon="4.49515">
        <ele>209.4</ele>
        <time>2021-10-24T09:19:09Z</time>
      </trkpt>
      <trkpt lat="44.12981" lon="4.49509">
        <ele>209.6</ele>
        <time>2021-10-24T09:19:10Z</time>
      </trkpt>
      <trkpt lat="44.12982" lon="4.49502">
        <ele>210</ele>
        <time>2021-10-24T09:19:11Z</time>
      </trkpt>
      <trkpt lat="44.12983" lon="4.49495">
        <ele>210.2</ele>
        <time>2021-10-24T09:19:12Z</time>
      </trkpt>
      <trkpt lat="44.12984" lon="4.49489">
        <ele>210.4</ele>
        <time>2021-10-24T09:19:13Z</time>
      </trkpt>
      <trkpt lat="44.12985" lon="4.49481">
        <ele>210.6</ele>
        <time>2021-10-24T09:19:14Z</time>
      </trkpt>
      <trkpt lat="44.12985" lon="4.49474">
        <ele>210.8</ele>
        <time>2021-10-24T09:19:15Z</time>
      </trkpt>
      <trkpt lat="44.12986" lon="4.49467">
        <ele>210.8</ele>
        <time>2021-10-24T09:19:16Z</time>
      </trkpt>
      <trkpt lat="44.12987" lon="4.4946">
        <ele>211</ele>
        <time>2021-10-24T09:19:17Z</time>
      </trkpt>
      <trkpt lat="44.12988" lon="4.49453">
        <ele>211</ele>
        <time>2021-10-24T09:19:18Z</time>
      </trkpt>
      <trkpt lat="44.12988" lon="4.49446">
        <ele>211.4</ele>
        <time>2021-10-24T09:19:19Z</time>
      </trkpt>
      <trkpt lat="44.12989" lon="4.49439">
        <ele>211.8</ele>
        <time>2021-10-24T09:19:20Z</time>
      </trkpt>
      <trkpt lat="44.1299" lon="4.49432">
        <ele>211.8</ele>
        <time>2021-10-24T09:19:21Z</time>
      </trkpt>
      <trkpt lat="44.12991" lon="4.49425">
        <ele>211.8</ele>
        <time>2021-10-24T09:19:22Z</time>
      </trkpt>
      <trkpt lat="44.12991" lon="4.49418">
        <ele>212.2</ele>
        <time>2021-10-24T09:19:23Z</time>
      </trkpt>
      <trkpt lat="44.12992" lon="4.49411">
        <ele>212.4</ele>
        <time>2021-10-24T09:19:24Z</time>
      </trkpt>
      <trkpt lat="44.12993" lon="4.49404">
        <ele>212.6</ele>
        <time>2021-10-24T09:19:25Z</time>
      </trkpt>
      <trkpt lat="44.12993" lon="4.49397">
        <ele>212.8</ele>
        <time>2021-10-24T09:19:26Z</time>
      </trkpt>
      <trkpt lat="44.12994" lon="4.4939">
        <ele>213</ele>
        <time>2021-10-24T09:19:27Z</time>
      </trkpt>
      <trkpt lat="44.12995" lon="4.49383">
        <ele>213.2</ele>
        <time>2021-10-24T09:19:28Z</time>
      </trkpt>
      <trkpt lat="44.12996" lon="4.49377">
        <ele>213.4</ele>
        <time>2021-10-24T09:19:29Z</time>
      </trkpt>
      <trkpt lat="44.12997" lon="4.4937">
        <ele>213.6</ele>
        <time>2021-10-24T09:19:30Z</time>
      </trkpt>
      <trkpt lat="44.12998" lon="4.49363">
        <ele>213.8</ele>
        <time>2021-10-24T09:19:31Z</time>
      </trkpt>
      <trkpt lat="44.12999" lon="4.49356">
        <ele>214.2</ele>
        <time>2021-10-24T09:19:32Z</time>
      </trkpt>
      <trkpt lat="44.13001" lon="4.49349">
        <ele>214.4</ele>
        <time>2021-10-24T09:19:33Z</time>
      </trkpt>
      <trkpt lat="44.13002" lon="4.49342">
        <ele>214.8</ele>
        <time>2021-10-24T09:19:34Z</time>
      </trkpt>
      <trkpt lat="44.13004" lon="4.49335">
        <ele>214.8</ele>
        <time>2021-10-24T09:19:35Z</time>
      </trkpt>
      <trkpt lat="44.13005" lon="4.49329">
        <ele>215</ele>
        <time>2021-10-24T09:19:36Z</time>
      </trkpt>
      <trkpt lat="44.13007" lon="4.49322">
        <ele>215.2</ele>
        <time>2021-10-24T09:19:37Z</time>
      </trkpt>
      <trkpt lat="44.13008" lon="4.49315">
        <ele>215.6</ele>
        <time>2021-10-24T09:19:38Z</time>
      </trkpt>
      <trkpt lat="44.1301" lon="4.49309">
        <ele>215.8</ele>
        <time>2021-10-24T09:19:39Z</time>
      </trkpt>
      <trkpt lat="44.13011" lon="4.49302">
        <ele>216</ele>
        <time>2021-10-24T09:19:40Z</time>
      </trkpt>
      <trkpt lat="44.13013" lon="4.49295">
        <ele>216.4</ele>
        <time>2021-10-24T09:19:41Z</time>
      </trkpt>
      <trkpt lat="44.13015" lon="4.49289">
        <ele>216.8</ele>
        <time>2021-10-24T09:19:42Z</time>
      </trkpt>
      <trkpt lat="44.13016" lon="4.49282">
        <ele>217</ele>
        <time>2021-10-24T09:19:43Z</time>
      </trkpt>
      <trkpt lat="44.13018" lon="4.49276">
        <ele>217</ele>
        <time>2021-10-24T09:19:44Z</time>
      </trkpt>
      <trkpt lat="44.1302" lon="4.49269">
        <ele>217.4</ele>
        <time>2021-10-24T09:19:45Z</time>
      </trkpt>
      <trkpt lat="44.13021" lon="4.49263">
        <ele>217.6</ele>
        <time>2021-10-24T09:19:46Z</time>
      </trkpt>
      <trkpt lat="44.13023" lon="4.49256">
        <ele>218</ele>
        <time>2021-10-24T09:19:47Z</time>
      </trkpt>
      <trkpt lat="44.13024" lon="4.49249">
        <ele>218.4</ele>
        <time>2021-10-24T09:19:48Z</time>
      </trkpt>
      <trkpt lat="44.13025" lon="4.49243">
        <ele>218.4</ele>
        <time>2021-10-24T09:19:49Z</time>
      </trkpt>
      <trkpt lat="44.13025" lon="4.49236">
        <ele>218.6</ele>
        <time>2021-10-24T09:19:50Z</time>
      </trkpt>
      <trkpt lat="44.13026" lon="4.49229">
        <ele>218.8</ele>
        <time>2021-10-24T09:19:51Z</time>
      </trkpt>
      <trkpt lat="44.13027" lon="4.49222">
        <ele>219.2</ele>
        <time>2021-10-24T09:19:52Z</time>
      </trkpt>
      <trkpt lat="44.13028" lon="4.49215">
        <ele>219.6</ele>
        <time>2021-10-24T09:19:53Z</time>
      </trkpt>
      <trkpt lat="44.13028" lon="4.49209">
        <ele>219.8</ele>
        <time>2021-10-24T09:19:54Z</time>
      </trkpt>
      <trkpt lat="44.13029" lon="4.49202">
        <ele>220</ele>
        <time>2021-10-24T09:19:55Z</time>
      </trkpt>
      <trkpt lat="44.13029" lon="4.49196">
        <ele>220</ele>
        <time>2021-10-24T09:19:56Z</time>
      </trkpt>
      <trkpt lat="44.1303" lon="4.49189">
        <ele>220.2</ele>
        <time>2021-10-24T09:19:57Z</time>
      </trkpt>
      <trkpt lat="44.13031" lon="4.49182">
        <ele>220.4</ele>
        <time>2021-10-24T09:19:58Z</time>
      </trkpt>
      <trkpt lat="44.13032" lon="4.49175">
        <ele>220.8</ele>
        <time>2021-10-24T09:19:59Z</time>
      </trkpt>
      <trkpt lat="44.13033" lon="4.49168">
        <ele>221.2</ele>
        <time>2021-10-24T09:20:00Z</time>
      </trkpt>
      <trkpt lat="44.13034" lon="4.49161">
        <ele>221.4</ele>
        <time>2021-10-24T09:20:01Z</time>
      </trkpt>
      <trkpt lat="44.13036" lon="4.49154">
        <ele>221.8</ele>
        <time>2021-10-24T09:20:02Z</time>
      </trkpt>
      <trkpt lat="44.13037" lon="4.49148">
        <ele>221.8</ele>
        <time>2021-10-24T09:20:03Z</time>
      </trkpt>
      <trkpt lat="44.13038" lon="4.49141">
        <ele>222.2</ele>
        <time>2021-10-24T09:20:04Z</time>
      </trkpt>
      <trkpt lat="44.1304" lon="4.49134">
        <ele>222.6</ele>
        <time>2021-10-24T09:20:05Z</time>
      </trkpt>
      <trkpt lat="44.13041" lon="4.49127">
        <ele>223</ele>
        <time>2021-10-24T09:20:06Z</time>
      </trkpt>
      <trkpt lat="44.13043" lon="4.49121">
        <ele>223</ele>
        <time>2021-10-24T09:20:07Z</time>
      </trkpt>
      <trkpt lat="44.13044" lon="4.49114">
        <ele>223.4</ele>
        <time>2021-10-24T09:20:08Z</time>
      </trkpt>
      <trkpt lat="44.13046" lon="4.49107">
        <ele>223.4</ele>
        <time>2021-10-24T09:20:09Z</time>
      </trkpt>
      <trkpt lat="44.13048" lon="4.49101">
        <ele>223.8</ele>
        <time>2021-10-24T09:20:10Z</time>
      </trkpt>
      <trkpt lat="44.13049" lon="4.49094">
        <ele>224</ele>
        <time>2021-10-24T09:20:11Z</time>
      </trkpt>
      <trkpt lat="44.13051" lon="4.49088">
        <ele>224</ele>
        <time>2021-10-24T09:20:12Z</time>
      </trkpt>
      <trkpt lat="44.13052" lon="4.49081">
        <ele>224.2</ele>
        <time>2021-10-24T09:20:13Z</time>
      </trkpt>
      <trkpt lat="44.13054" lon="4.49074">
        <ele>224.6</ele>
        <time>2021-10-24T09:20:14Z</time>
      </trkpt>
      <trkpt lat="44.13056" lon="4.49068">
        <ele>225</ele>
        <time>2021-10-24T09:20:15Z</time>
      </trkpt>
      <trkpt lat="44.13057" lon="4.49062">
        <ele>225.4</ele>
        <time>2021-10-24T09:20:16Z</time>
      </trkpt>
      <trkpt lat="44.13059" lon="4.49055">
        <ele>225.4</ele>
        <time>2021-10-24T09:20:17Z</time>
      </trkpt>
      <trkpt lat="44.13061" lon="4.49049">
        <ele>225.8</ele>
        <time>2021-10-24T09:20:18Z</time>
      </trkpt>
      <trkpt lat="44.13062" lon="4.49043">
        <ele>225.8</ele>
        <time>2021-10-24T09:20:19Z</time>
      </trkpt>
      <trkpt lat="44.13064" lon="4.49036">
        <ele>226.2</ele>
        <time>2021-10-24T09:20:20Z</time>
      </trkpt>
      <trkpt lat="44.13065" lon="4.4903">
        <ele>226.6</ele>
        <time>2021-10-24T09:20:21Z</time>
      </trkpt>
      <trkpt lat="44.13066" lon="4.49024">
        <ele>226.8</ele>
        <time>2021-10-24T09:20:22Z</time>
      </trkpt>
      <trkpt lat="44.13068" lon="4.49018">
        <ele>227.2</ele>
        <time>2021-10-24T09:20:23Z</time>
      </trkpt>
      <trkpt lat="44.1307" lon="4.49012">
        <ele>227.6</ele>
        <time>2021-10-24T09:20:24Z</time>
      </trkpt>
      <trkpt lat="44.13071" lon="4.49005">
        <ele>228</ele>
        <time>2021-10-24T09:20:25Z</time>
      </trkpt>
      <trkpt lat="44.13073" lon="4.48999">
        <ele>228</ele>
        <time>2021-10-24T09:20:26Z</time>
      </trkpt>
      <trkpt lat="44.13074" lon="4.48993">
        <ele>228.4</ele>
        <time>2021-10-24T09:20:27Z</time>
      </trkpt>
      <trkpt lat="44.13076" lon="4.48986">
        <ele>228.8</ele>
        <time>2021-10-24T09:20:28Z</time>
      </trkpt>
      <trkpt lat="44.13077" lon="4.4898">
        <ele>229</ele>
        <time>2021-10-24T09:20:29Z</time>
      </trkpt>
      <trkpt lat="44.13079" lon="4.48973">
        <ele>229</ele>
        <time>2021-10-24T09:20:30Z</time>
      </trkpt>
      <trkpt lat="44.1308" lon="4.48966">
        <ele>229.4</ele>
        <time>2021-10-24T09:20:31Z</time>
      </trkpt>
      <trkpt lat="44.13081" lon="4.4896">
        <ele>229.4</ele>
        <time>2021-10-24T09:20:32Z</time>
      </trkpt>
      <trkpt lat="44.13083" lon="4.48953">
        <ele>229.8</ele>
        <time>2021-10-24T09:20:33Z</time>
      </trkpt>
      <trkpt lat="44.13084" lon="4.48946">
        <ele>230.2</ele>
        <time>2021-10-24T09:20:34Z</time>
      </trkpt>
      <trkpt lat="44.13085" lon="4.48939">
        <ele>230.2</ele>
        <time>2021-10-24T09:20:35Z</time>
      </trkpt>
      <trkpt lat="44.13087" lon="4.48932">
        <ele>230.6</ele>
        <time>2021-10-24T09:20:36Z</time>
      </trkpt>
      <trkpt lat="44.13088" lon="4.48925">
        <ele>230.8</ele>
        <time>2021-10-24T09:20:37Z</time>
      </trkpt>
      <trkpt lat="44.1309" lon="4.48918">
        <ele>231.4</ele>
        <time>2021-10-24T09:20:38Z</time>
      </trkpt>
      <trkpt lat="44.13092" lon="4.48912">
        <ele>231.6</ele>
        <time>2021-10-24T09:20:39Z</time>
      </trkpt>
      <trkpt lat="44.13094" lon="4.48905">
        <ele>231.8</ele>
        <time>2021-10-24T09:20:40Z</time>
      </trkpt>
      <trkpt lat="44.13096" lon="4.48899">
        <ele>232</ele>
        <time>2021-10-24T09:20:41Z</time>
      </trkpt>
      <trkpt lat="44.13098" lon="4.48893">
        <ele>232</ele>
        <time>2021-10-24T09:20:42Z</time>
      </trkpt>
      <trkpt lat="44.131" lon="4.48887">
        <ele>232.2</ele>
        <time>2021-10-24T09:20:43Z</time>
      </trkpt>
      <trkpt lat="44.13102" lon="4.48881">
        <ele>232.2</ele>
        <time>2021-10-24T09:20:44Z</time>
      </trkpt>
      <trkpt lat="44.13105" lon="4.48875">
        <ele>232.8</ele>
        <time>2021-10-24T09:20:45Z</time>
      </trkpt>
      <trkpt lat="44.13108" lon="4.48869">
        <ele>233.2</ele>
        <time>2021-10-24T09:20:46Z</time>
      </trkpt>
      <trkpt lat="44.1311" lon="4.48863">
        <ele>233.4</ele>
        <time>2021-10-24T09:20:47Z</time>
      </trkpt>
      <trkpt lat="44.13113" lon="4.48858">
        <ele>234</ele>
        <time>2021-10-24T09:20:48Z</time>
      </trkpt>
      <trkpt lat="44.13115" lon="4.48852">
        <ele>234.4</ele>
        <time>2021-10-24T09:20:49Z</time>
      </trkpt>
      <trkpt lat="44.13118" lon="4.48846">
        <ele>234.6</ele>
        <time>2021-10-24T09:20:50Z</time>
      </trkpt>
      <trkpt lat="44.13121" lon="4.48839">
        <ele>234.4</ele>
        <time>2021-10-24T09:20:51Z</time>
      </trkpt>
      <trkpt lat="44.13123" lon="4.48833">
        <ele>234.6</ele>
        <time>2021-10-24T09:20:52Z</time>
      </trkpt>
      <trkpt lat="44.13126" lon="4.48827">
        <ele>235</ele>
        <time>2021-10-24T09:20:53Z</time>
      </trkpt>
      <trkpt lat="44.13128" lon="4.48821">
        <ele>235.4</ele>
        <time>2021-10-24T09:20:54Z</time>
      </trkpt>
      <trkpt lat="44.13131" lon="4.48816">
        <ele>235.8</ele>
        <time>2021-10-24T09:20:55Z</time>
      </trkpt>
      <trkpt lat="44.13134" lon="4.4881">
        <ele>235.8</ele>
        <time>2021-10-24T09:20:56Z</time>
      </trkpt>
      <trkpt lat="44.13136" lon="4.48804">
        <ele>236.2</ele>
        <time>2021-10-24T09:20:57Z</time>
      </trkpt>
      <trkpt lat="44.13138" lon="4.48798">
        <ele>236.4</ele>
        <time>2021-10-24T09:20:58Z</time>
      </trkpt>
      <trkpt lat="44.13141" lon="4.48792">
        <ele>236.4</ele>
        <time>2021-10-24T09:20:59Z</time>
      </trkpt>
      <trkpt lat="44.13144" lon="4.48787">
        <ele>237</ele>
        <time>2021-10-24T09:21:00Z</time>
      </trkpt>
      <trkpt lat="44.13146" lon="4.48781">
        <ele>237.2</ele>
        <time>2021-10-24T09:21:01Z</time>
      </trkpt>
      <trkpt lat="44.13148" lon="4.48775">
        <ele>237.8</ele>
        <time>2021-10-24T09:21:02Z</time>
      </trkpt>
      <trkpt lat="44.13151" lon="4.48769">
        <ele>238.2</ele>
        <time>2021-10-24T09:21:03Z</time>
      </trkpt>
      <trkpt lat="44.13153" lon="4.48762">
        <ele>238</ele>
        <time>2021-10-24T09:21:04Z</time>
      </trkpt>
      <trkpt lat="44.13155" lon="4.48756">
        <ele>238</ele>
        <time>2021-10-24T09:21:05Z</time>
      </trkpt>
      <trkpt lat="44.13158" lon="4.4875">
        <ele>238</ele>
        <time>2021-10-24T09:21:06Z</time>
      </trkpt>
      <trkpt lat="44.1316" lon="4.48743">
        <ele>238.2</ele>
        <time>2021-10-24T09:21:07Z</time>
      </trkpt>
      <trkpt lat="44.13163" lon="4.48737">
        <ele>238.6</ele>
        <time>2021-10-24T09:21:08Z</time>
      </trkpt>
      <trkpt lat="44.13165" lon="4.48731">
        <ele>239</ele>
        <time>2021-10-24T09:21:09Z</time>
      </trkpt>
      <trkpt lat="44.13167" lon="4.48725">
        <ele>239.2</ele>
        <time>2021-10-24T09:21:10Z</time>
      </trkpt>
      <trkpt lat="44.13169" lon="4.48718">
        <ele>239.4</ele>
        <time>2021-10-24T09:21:11Z</time>
      </trkpt>
      <trkpt lat="44.13171" lon="4.48712">
        <ele>239.6</ele>
        <time>2021-10-24T09:21:12Z</time>
      </trkpt>
      <trkpt lat="44.13173" lon="4.48706">
        <ele>240</ele>
        <time>2021-10-24T09:21:13Z</time>
      </trkpt>
      <trkpt lat="44.13174" lon="4.48699">
        <ele>240.4</ele>
        <time>2021-10-24T09:21:14Z</time>
      </trkpt>
      <trkpt lat="44.13176" lon="4.48693">
        <ele>240.6</ele>
        <time>2021-10-24T09:21:15Z</time>
      </trkpt>
      <trkpt lat="44.13178" lon="4.48686">
        <ele>241</ele>
        <time>2021-10-24T09:21:16Z</time>
      </trkpt>
      <trkpt lat="44.1318" lon="4.4868">
        <ele>241.2</ele>
        <time>2021-10-24T09:21:17Z</time>
      </trkpt>
      <trkpt lat="44.13181" lon="4.48673">
        <ele>241.4</ele>
        <time>2021-10-24T09:21:18Z</time>
      </trkpt>
      <trkpt lat="44.13183" lon="4.48667">
        <ele>241.8</ele>
        <time>2021-10-24T09:21:19Z</time>
      </trkpt>
      <trkpt lat="44.13185" lon="4.4866">
        <ele>242</ele>
        <time>2021-10-24T09:21:20Z</time>
      </trkpt>
      <trkpt lat="44.13186" lon="4.48653">
        <ele>242.2</ele>
        <time>2021-10-24T09:21:21Z</time>
      </trkpt>
      <trkpt lat="44.13188" lon="4.48646">
        <ele>242.8</ele>
        <time>2021-10-24T09:21:22Z</time>
      </trkpt>
      <trkpt lat="44.1319" lon="4.48639">
        <ele>242.8</ele>
        <time>2021-10-24T09:21:23Z</time>
      </trkpt>
      <trkpt lat="44.13191" lon="4.48632">
        <ele>243.2</ele>
        <time>2021-10-24T09:21:24Z</time>
      </trkpt>
      <trkpt lat="44.13193" lon="4.48625">
        <ele>243.6</ele>
        <time>2021-10-24T09:21:25Z</time>
      </trkpt>
      <trkpt lat="44.13195" lon="4.48618">
        <ele>243.8</ele>
        <time>2021-10-24T09:21:26Z</time>
      </trkpt>
      <trkpt lat="44.13196" lon="4.48611">
        <ele>243.8</ele>
        <time>2021-10-24T09:21:27Z</time>
      </trkpt>
      <trkpt lat="44.13198" lon="4.48604">
        <ele>244</ele>
        <time>2021-10-24T09:21:28Z</time>
      </trkpt>
      <trkpt lat="44.13199" lon="4.48597">
        <ele>244</ele>
        <time>2021-10-24T09:21:29Z</time>
      </trkpt>
      <trkpt lat="44.13201" lon="4.4859">
        <ele>244.4</ele>
        <time>2021-10-24T09:21:30Z</time>
      </trkpt>
      <trkpt lat="44.13203" lon="4.48583">
        <ele>244.6</ele>
        <time>2021-10-24T09:21:31Z</time>
      </trkpt>
      <trkpt lat="44.13204" lon="4.48575">
        <ele>244.6</ele>
        <time>2021-10-24T09:21:32Z</time>
      </trkpt>
      <trkpt lat="44.13206" lon="4.48568">
        <ele>244.6</ele>
        <time>2021-10-24T09:21:33Z</time>
      </trkpt>
      <trkpt lat="44.13208" lon="4.4856">
        <ele>244.6</ele>
        <time>2021-10-24T09:21:34Z</time>
      </trkpt>
      <trkpt lat="44.1321" lon="4.48552">
        <ele>244.8</ele>
        <time>2021-10-24T09:21:35Z</time>
      </trkpt>
      <trkpt lat="44.13212" lon="4.48544">
        <ele>245</ele>
        <time>2021-10-24T09:21:36Z</time>
      </trkpt>
      <trkpt lat="44.13214" lon="4.48536">
        <ele>244.8</ele>
        <time>2021-10-24T09:21:37Z</time>
      </trkpt>
      <trkpt lat="44.13216" lon="4.48528">
        <ele>244.8</ele>
        <time>2021-10-24T09:21:38Z</time>
      </trkpt>
      <trkpt lat="44.13218" lon="4.48519">
        <ele>245.2</ele>
        <time>2021-10-24T09:21:39Z</time>
      </trkpt>
      <trkpt lat="44.1322" lon="4.48511">
        <ele>245.4</ele>
        <time>2021-10-24T09:21:40Z</time>
      </trkpt>
      <trkpt lat="44.13222" lon="4.48502">
        <ele>245.6</ele>
        <time>2021-10-24T09:21:41Z</time>
      </trkpt>
      <trkpt lat="44.13224" lon="4.48493">
        <ele>245.4</ele>
        <time>2021-10-24T09:21:42Z</time>
      </trkpt>
      <trkpt lat="44.13226" lon="4.48485">
        <ele>245.8</ele>
        <time>2021-10-24T09:21:43Z</time>
      </trkpt>
      <trkpt lat="44.13228" lon="4.48476">
        <ele>245.6</ele>
        <time>2021-10-24T09:21:44Z</time>
      </trkpt>
      <trkpt lat="44.1323" lon="4.48467">
        <ele>245.8</ele>
        <time>2021-10-24T09:21:45Z</time>
      </trkpt>
      <trkpt lat="44.13232" lon="4.48458">
        <ele>245.8</ele>
        <time>2021-10-24T09:21:46Z</time>
      </trkpt>
      <trkpt lat="44.13234" lon="4.48449">
        <ele>245.8</ele>
        <time>2021-10-24T09:21:47Z</time>
      </trkpt>
      <trkpt lat="44.13236" lon="4.4844">
        <ele>246</ele>
        <time>2021-10-24T09:21:48Z</time>
      </trkpt>
      <trkpt lat="44.13239" lon="4.48431">
        <ele>246</ele>
        <time>2021-10-24T09:21:49Z</time>
      </trkpt>
      <trkpt lat="44.13241" lon="4.48422">
        <ele>245.6</ele>
        <time>2021-10-24T09:21:50Z</time>
      </trkpt>
      <trkpt lat="44.13243" lon="4.48413">
        <ele>246</ele>
        <time>2021-10-24T09:21:51Z</time>
      </trkpt>
      <trkpt lat="44.13245" lon="4.48404">
        <ele>246</ele>
        <time>2021-10-24T09:21:52Z</time>
      </trkpt>
      <trkpt lat="44.13247" lon="4.48394">
        <ele>245.8</ele>
        <time>2021-10-24T09:21:53Z</time>
      </trkpt>
      <trkpt lat="44.13249" lon="4.48385">
        <ele>246</ele>
        <time>2021-10-24T09:21:54Z</time>
      </trkpt>
      <trkpt lat="44.13252" lon="4.48376">
        <ele>246</ele>
        <time>2021-10-24T09:21:55Z</time>
      </trkpt>
      <trkpt lat="44.13254" lon="4.48366">
        <ele>246.2</ele>
        <time>2021-10-24T09:21:56Z</time>
      </trkpt>
      <trkpt lat="44.13256" lon="4.48357">
        <ele>246.4</ele>
        <time>2021-10-24T09:21:57Z</time>
      </trkpt>
      <trkpt lat="44.13258" lon="4.48347">
        <ele>246.4</ele>
        <time>2021-10-24T09:21:58Z</time>
      </trkpt>
      <trkpt lat="44.1326" lon="4.48338">
        <ele>246.4</ele>
        <time>2021-10-24T09:21:59Z</time>
      </trkpt>
      <trkpt lat="44.13263" lon="4.48328">
        <ele>246.2</ele>
        <time>2021-10-24T09:22:00Z</time>
      </trkpt>
      <trkpt lat="44.13265" lon="4.48319">
        <ele>246.2</ele>
        <time>2021-10-24T09:22:01Z</time>
      </trkpt>
      <trkpt lat="44.13267" lon="4.4831">
        <ele>246.2</ele>
        <time>2021-10-24T09:22:02Z</time>
      </trkpt>
      <trkpt lat="44.13269" lon="4.483">
        <ele>246.2</ele>
        <time>2021-10-24T09:22:03Z</time>
      </trkpt>
      <trkpt lat="44.13272" lon="4.48291">
        <ele>246.6</ele>
        <time>2021-10-24T09:22:04Z</time>
      </trkpt>
      <trkpt lat="44.13274" lon="4.48281">
        <ele>246.6</ele>
        <time>2021-10-24T09:22:05Z</time>
      </trkpt>
      <trkpt lat="44.13276" lon="4.48272">
        <ele>246.6</ele>
        <time>2021-10-24T09:22:06Z</time>
      </trkpt>
      <trkpt lat="44.13278" lon="4.48263">
        <ele>247</ele>
        <time>2021-10-24T09:22:07Z</time>
      </trkpt>
      <trkpt lat="44.1328" lon="4.48254">
        <ele>247</ele>
        <time>2021-10-24T09:22:08Z</time>
      </trkpt>
      <trkpt lat="44.13282" lon="4.48245">
        <ele>247</ele>
        <time>2021-10-24T09:22:09Z</time>
      </trkpt>
      <trkpt lat="44.13284" lon="4.48237">
        <ele>247</ele>
        <time>2021-10-24T09:22:10Z</time>
      </trkpt>
      <trkpt lat="44.13286" lon="4.48228">
        <ele>247.2</ele>
        <time>2021-10-24T09:22:11Z</time>
      </trkpt>
      <trkpt lat="44.13288" lon="4.48219">
        <ele>247.2</ele>
        <time>2021-10-24T09:22:12Z</time>
      </trkpt>
      <trkpt lat="44.13291" lon="4.4821">
        <ele>247.4</ele>
        <time>2021-10-24T09:22:13Z</time>
      </trkpt>
      <trkpt lat="44.13293" lon="4.48201">
        <ele>247.8</ele>
        <time>2021-10-24T09:22:14Z</time>
      </trkpt>
      <trkpt lat="44.13295" lon="4.48192">
        <ele>248</ele>
        <time>2021-10-24T09:22:15Z</time>
      </trkpt>
      <trkpt lat="44.13297" lon="4.48183">
        <ele>248.2</ele>
        <time>2021-10-24T09:22:16Z</time>
      </trkpt>
      <trkpt lat="44.13299" lon="4.48174">
        <ele>248</ele>
        <time>2021-10-24T09:22:17Z</time>
      </trkpt>
      <trkpt lat="44.13301" lon="4.48164">
        <ele>248.2</ele>
        <time>2021-10-24T09:22:18Z</time>
      </trkpt>
      <trkpt lat="44.13303" lon="4.48155">
        <ele>248</ele>
        <time>2021-10-24T09:22:19Z</time>
      </trkpt>
      <trkpt lat="44.13305" lon="4.48146">
        <ele>248.4</ele>
        <time>2021-10-24T09:22:20Z</time>
      </trkpt>
      <trkpt lat="44.13307" lon="4.48137">
        <ele>248.6</ele>
        <time>2021-10-24T09:22:21Z</time>
      </trkpt>
      <trkpt lat="44.13309" lon="4.48128">
        <ele>248.6</ele>
        <time>2021-10-24T09:22:22Z</time>
      </trkpt>
      <trkpt lat="44.13311" lon="4.4812">
        <ele>249</ele>
        <time>2021-10-24T09:22:23Z</time>
      </trkpt>
      <trkpt lat="44.13313" lon="4.48111">
        <ele>249</ele>
        <time>2021-10-24T09:22:24Z</time>
      </trkpt>
      <trkpt lat="44.13315" lon="4.48102">
        <ele>249.4</ele>
        <time>2021-10-24T09:22:25Z</time>
      </trkpt>
      <trkpt lat="44.13317" lon="4.48094">
        <ele>249.6</ele>
        <time>2021-10-24T09:22:26Z</time>
      </trkpt>
      <trkpt lat="44.13319" lon="4.48085">
        <ele>249.6</ele>
        <time>2021-10-24T09:22:27Z</time>
      </trkpt>
      <trkpt lat="44.13321" lon="4.48077">
        <ele>250</ele>
        <time>2021-10-24T09:22:28Z</time>
      </trkpt>
      <trkpt lat="44.13323" lon="4.48068">
        <ele>250.2</ele>
        <time>2021-10-24T09:22:29Z</time>
      </trkpt>
      <trkpt lat="44.13325" lon="4.4806">
        <ele>250.4</ele>
        <time>2021-10-24T09:22:30Z</time>
      </trkpt>
      <trkpt lat="44.13327" lon="4.48051">
        <ele>250.4</ele>
        <time>2021-10-24T09:22:31Z</time>
      </trkpt>
      <trkpt lat="44.13329" lon="4.48043">
        <ele>250.6</ele>
        <time>2021-10-24T09:22:32Z</time>
      </trkpt>
      <trkpt lat="44.13331" lon="4.48035">
        <ele>250.6</ele>
        <time>2021-10-24T09:22:33Z</time>
      </trkpt>
      <trkpt lat="44.13333" lon="4.48026">
        <ele>250.8</ele>
        <time>2021-10-24T09:22:34Z</time>
      </trkpt>
      <trkpt lat="44.13335" lon="4.48018">
        <ele>251</ele>
        <time>2021-10-24T09:22:35Z</time>
      </trkpt>
      <trkpt lat="44.13337" lon="4.48009">
        <ele>251</ele>
        <time>2021-10-24T09:22:36Z</time>
      </trkpt>
      <trkpt lat="44.13339" lon="4.48001">
        <ele>251</ele>
        <time>2021-10-24T09:22:37Z</time>
      </trkpt>
      <trkpt lat="44.13341" lon="4.47992">
        <ele>251.4</ele>
        <time>2021-10-24T09:22:38Z</time>
      </trkpt>
      <trkpt lat="44.13343" lon="4.47983">
        <ele>251.6</ele>
        <time>2021-10-24T09:22:39Z</time>
      </trkpt>
      <trkpt lat="44.13345" lon="4.47975">
        <ele>251.4</ele>
        <time>2021-10-24T09:22:40Z</time>
      </trkpt>
      <trkpt lat="44.13347" lon="4.47966">
        <ele>251.6</ele>
        <time>2021-10-24T09:22:41Z</time>
      </trkpt>
      <trkpt lat="44.13348" lon="4.47956">
        <ele>251.6</ele>
        <time>2021-10-24T09:22:42Z</time>
      </trkpt>
      <trkpt lat="44.1335" lon="4.47947">
        <ele>251.6</ele>
        <time>2021-10-24T09:22:43Z</time>
      </trkpt>
      <trkpt lat="44.13352" lon="4.47937">
        <ele>251.8</ele>
        <time>2021-10-24T09:22:44Z</time>
      </trkpt>
      <trkpt lat="44.13354" lon="4.47928">
        <ele>251.8</ele>
        <time>2021-10-24T09:22:45Z</time>
      </trkpt>
      <trkpt lat="44.13356" lon="4.47918">
        <ele>251.8</ele>
        <time>2021-10-24T09:22:46Z</time>
      </trkpt>
      <trkpt lat="44.13357" lon="4.47908">
        <ele>252</ele>
        <time>2021-10-24T09:22:47Z</time>
      </trkpt>
      <trkpt lat="44.13359" lon="4.47898">
        <ele>252.4</ele>
        <time>2021-10-24T09:22:48Z</time>
      </trkpt>
      <trkpt lat="44.13361" lon="4.47888">
        <ele>252.4</ele>
        <time>2021-10-24T09:22:49Z</time>
      </trkpt>
      <trkpt lat="44.13363" lon="4.47877">
        <ele>252.4</ele>
        <time>2021-10-24T09:22:50Z</time>
      </trkpt>
      <trkpt lat="44.13364" lon="4.47867">
        <ele>252.4</ele>
        <time>2021-10-24T09:22:51Z</time>
      </trkpt>
      <trkpt lat="44.13366" lon="4.47856">
        <ele>252.4</ele>
        <time>2021-10-24T09:22:52Z</time>
      </trkpt>
      <trkpt lat="44.13368" lon="4.47846">
        <ele>252.2</ele>
        <time>2021-10-24T09:22:53Z</time>
      </trkpt>
      <trkpt lat="44.1337" lon="4.47835">
        <ele>252.2</ele>
        <time>2021-10-24T09:22:54Z</time>
      </trkpt>
      <trkpt lat="44.13372" lon="4.47825">
        <ele>252</ele>
        <time>2021-10-24T09:22:55Z</time>
      </trkpt>
      <trkpt lat="44.13374" lon="4.47814">
        <ele>251.6</ele>
        <time>2021-10-24T09:22:56Z</time>
      </trkpt>
      <trkpt lat="44.13375" lon="4.47802">
        <ele>251.6</ele>
        <time>2021-10-24T09:22:57Z</time>
      </trkpt>
      <trkpt lat="44.13377" lon="4.47791">
        <ele>251.6</ele>
        <time>2021-10-24T09:22:58Z</time>
      </trkpt>
      <trkpt lat="44.13379" lon="4.47779">
        <ele>251.4</ele>
        <time>2021-10-24T09:22:59Z</time>
      </trkpt>
      <trkpt lat="44.13381" lon="4.47766">
        <ele>251.2</ele>
        <time>2021-10-24T09:23:00Z</time>
      </trkpt>
      <trkpt lat="44.13383" lon="4.47754">
        <ele>251</ele>
        <time>2021-10-24T09:23:01Z</time>
      </trkpt>
      <trkpt lat="44.13385" lon="4.47741">
        <ele>250.8</ele>
        <time>2021-10-24T09:23:02Z</time>
      </trkpt>
      <trkpt lat="44.13387" lon="4.47728">
        <ele>250.6</ele>
        <time>2021-10-24T09:23:03Z</time>
      </trkpt>
      <trkpt lat="44.13389" lon="4.47714">
        <ele>250.4</ele>
        <time>2021-10-24T09:23:04Z</time>
      </trkpt>
      <trkpt lat="44.13391" lon="4.477">
        <ele>250</ele>
        <time>2021-10-24T09:23:05Z</time>
      </trkpt>
      <trkpt lat="44.13394" lon="4.47686">
        <ele>249.6</ele>
        <time>2021-10-24T09:23:06Z</time>
      </trkpt>
      <trkpt lat="44.13396" lon="4.47672">
        <ele>249.2</ele>
        <time>2021-10-24T09:23:07Z</time>
      </trkpt>
      <trkpt lat="44.13399" lon="4.47658">
        <ele>248.8</ele>
        <time>2021-10-24T09:23:08Z</time>
      </trkpt>
      <trkpt lat="44.13403" lon="4.47645">
        <ele>248.2</ele>
        <time>2021-10-24T09:23:09Z</time>
      </trkpt>
      <trkpt lat="44.13408" lon="4.47632">
        <ele>247.8</ele>
        <time>2021-10-24T09:23:10Z</time>
      </trkpt>
      <trkpt lat="44.13414" lon="4.4762">
        <ele>247.4</ele>
        <time>2021-10-24T09:23:11Z</time>
      </trkpt>
      <trkpt lat="44.13421" lon="4.47609">
        <ele>247.6</ele>
        <time>2021-10-24T09:23:12Z</time>
      </trkpt>
      <trkpt lat="44.13429" lon="4.476">
        <ele>247.4</ele>
        <time>2021-10-24T09:23:13Z</time>
      </trkpt>
      <trkpt lat="44.13437" lon="4.47592">
        <ele>247</ele>
        <time>2021-10-24T09:23:14Z</time>
      </trkpt>
      <trkpt lat="44.13445" lon="4.47586">
        <ele>246.4</ele>
        <time>2021-10-24T09:23:15Z</time>
      </trkpt>
      <trkpt lat="44.13454" lon="4.4758">
        <ele>245.8</ele>
        <time>2021-10-24T09:23:16Z</time>
      </trkpt>
      <trkpt lat="44.13463" lon="4.47576">
        <ele>245.2</ele>
        <time>2021-10-24T09:23:17Z</time>
      </trkpt>
      <trkpt lat="44.13472" lon="4.47573">
        <ele>244.6</ele>
        <time>2021-10-24T09:23:18Z</time>
      </trkpt>
      <trkpt lat="44.13482" lon="4.47571">
        <ele>244.2</ele>
        <time>2021-10-24T09:23:19Z</time>
      </trkpt>
      <trkpt lat="44.13491" lon="4.47568">
        <ele>244.2</ele>
        <time>2021-10-24T09:23:20Z</time>
      </trkpt>
      <trkpt lat="44.135" lon="4.47565">
        <ele>243.6</ele>
        <time>2021-10-24T09:23:21Z</time>
      </trkpt>
      <trkpt lat="44.13508" lon="4.47562">
        <ele>243.4</ele>
        <time>2021-10-24T09:23:22Z</time>
      </trkpt>
      <trkpt lat="44.13516" lon="4.47557">
        <ele>243.6</ele>
        <time>2021-10-24T09:23:23Z</time>
      </trkpt>
      <trkpt lat="44.13523" lon="4.4755">
        <ele>243.4</ele>
        <time>2021-10-24T09:23:24Z</time>
      </trkpt>
      <trkpt lat="44.13528" lon="4.47542">
        <ele>243</ele>
        <time>2021-10-24T09:23:25Z</time>
      </trkpt>
      <trkpt lat="44.13532" lon="4.47532">
        <ele>243</ele>
        <time>2021-10-24T09:23:26Z</time>
      </trkpt>
      <trkpt lat="44.13535" lon="4.47523">
        <ele>242.8</ele>
        <time>2021-10-24T09:23:27Z</time>
      </trkpt>
      <trkpt lat="44.13538" lon="4.47513">
        <ele>242.4</ele>
        <time>2021-10-24T09:23:28Z</time>
      </trkpt>
      <trkpt lat="44.13541" lon="4.47504">
        <ele>242</ele>
        <time>2021-10-24T09:23:29Z</time>
      </trkpt>
      <trkpt lat="44.13542" lon="4.47495">
        <ele>241.8</ele>
        <time>2021-10-24T09:23:30Z</time>
      </trkpt>
      <trkpt lat="44.13543" lon="4.47486">
        <ele>241.4</ele>
        <time>2021-10-24T09:23:31Z</time>
      </trkpt>
      <trkpt lat="44.13543" lon="4.47476">
        <ele>241.2</ele>
        <time>2021-10-24T09:23:32Z</time>
      </trkpt>
      <trkpt lat="44.13544" lon="4.47467">
        <ele>240.8</ele>
        <time>2021-10-24T09:23:33Z</time>
      </trkpt>
      <trkpt lat="44.13544" lon="4.47456">
        <ele>240.6</ele>
        <time>2021-10-24T09:23:34Z</time>
      </trkpt>
      <trkpt lat="44.13544" lon="4.47445">
        <ele>240.4</ele>
        <time>2021-10-24T09:23:35Z</time>
      </trkpt>
      <trkpt lat="44.13545" lon="4.47434">
        <ele>240.2</ele>
        <time>2021-10-24T09:23:36Z</time>
      </trkpt>
      <trkpt lat="44.13547" lon="4.47423">
        <ele>240.2</ele>
        <time>2021-10-24T09:23:37Z</time>
      </trkpt>
      <trkpt lat="44.1355" lon="4.47412">
        <ele>240.4</ele>
        <time>2021-10-24T09:23:38Z</time>
      </trkpt>
      <trkpt lat="44.13554" lon="4.47401">
        <ele>240.6</ele>
        <time>2021-10-24T09:23:39Z</time>
      </trkpt>
      <trkpt lat="44.13558" lon="4.47391">
        <ele>240.4</ele>
        <time>2021-10-24T09:23:40Z</time>
      </trkpt>
      <trkpt lat="44.13562" lon="4.4738">
        <ele>240.6</ele>
        <time>2021-10-24T09:23:41Z</time>
      </trkpt>
      <trkpt lat="44.13567" lon="4.4737">
        <ele>240.6</ele>
        <time>2021-10-24T09:23:42Z</time>
      </trkpt>
      <trkpt lat="44.13573" lon="4.47361">
        <ele>240.6</ele>
        <time>2021-10-24T09:23:43Z</time>
      </trkpt>
      <trkpt lat="44.13579" lon="4.47352">
        <ele>240.4</ele>
        <time>2021-10-24T09:23:44Z</time>
      </trkpt>
      <trkpt lat="44.13584" lon="4.47342">
        <ele>240.2</ele>
        <time>2021-10-24T09:23:45Z</time>
      </trkpt>
      <trkpt lat="44.1359" lon="4.47333">
        <ele>240.2</ele>
        <time>2021-10-24T09:23:46Z</time>
      </trkpt>
      <trkpt lat="44.13595" lon="4.47323">
        <ele>240.2</ele>
        <time>2021-10-24T09:23:47Z</time>
      </trkpt>
      <trkpt lat="44.136" lon="4.47312">
        <ele>240.2</ele>
        <time>2021-10-24T09:23:48Z</time>
      </trkpt>
      <trkpt lat="44.13604" lon="4.47302">
        <ele>240.2</ele>
        <time>2021-10-24T09:23:49Z</time>
      </trkpt>
      <trkpt lat="44.13608" lon="4.4729">
        <ele>240.2</ele>
        <time>2021-10-24T09:23:50Z</time>
      </trkpt>
      <trkpt lat="44.13611" lon="4.47279">
        <ele>240.4</ele>
        <time>2021-10-24T09:23:51Z</time>
      </trkpt>
      <trkpt lat="44.13614" lon="4.47267">
        <ele>240.4</ele>
        <time>2021-10-24T09:23:52Z</time>
      </trkpt>
      <trkpt lat="44.13616" lon="4.47255">
        <ele>240.2</ele>
        <time>2021-10-24T09:23:53Z</time>
      </trkpt>
      <trkpt lat="44.13618" lon="4.47243">
        <ele>240</ele>
        <time>2021-10-24T09:23:54Z</time>
      </trkpt>
      <trkpt lat="44.13621" lon="4.47231">
        <ele>239.6</ele>
        <time>2021-10-24T09:23:55Z</time>
      </trkpt>
      <trkpt lat="44.13623" lon="4.4722">
        <ele>239.4</ele>
        <time>2021-10-24T09:23:56Z</time>
      </trkpt>
      <trkpt lat="44.13626" lon="4.47208">
        <ele>239.4</ele>
        <time>2021-10-24T09:23:57Z</time>
      </trkpt>
      <trkpt lat="44.13628" lon="4.47196">
        <ele>239.2</ele>
        <time>2021-10-24T09:23:58Z</time>
      </trkpt>
      <trkpt lat="44.13632" lon="4.47184">
        <ele>239.2</ele>
        <time>2021-10-24T09:23:59Z</time>
      </trkpt>
      <trkpt lat="44.13635" lon="4.47172">
        <ele>239.6</ele>
        <time>2021-10-24T09:24:00Z</time>
      </trkpt>
      <trkpt lat="44.13639" lon="4.47159">
        <ele>239.6</ele>
        <time>2021-10-24T09:24:01Z</time>
      </trkpt>
      <trkpt lat="44.13643" lon="4.47147">
        <ele>239.2</ele>
        <time>2021-10-24T09:24:02Z</time>
      </trkpt>
      <trkpt lat="44.13647" lon="4.47134">
        <ele>238.8</ele>
        <time>2021-10-24T09:24:03Z</time>
      </trkpt>
      <trkpt lat="44.1365" lon="4.47121">
        <ele>238.6</ele>
        <time>2021-10-24T09:24:04Z</time>
      </trkpt>
      <trkpt lat="44.13654" lon="4.47107">
        <ele>238.2</ele>
        <time>2021-10-24T09:24:05Z</time>
      </trkpt>
      <trkpt lat="44.13658" lon="4.47093">
        <ele>237.8</ele>
        <time>2021-10-24T09:24:06Z</time>
      </trkpt>
      <trkpt lat="44.13661" lon="4.47079">
        <ele>237.4</ele>
        <time>2021-10-24T09:24:07Z</time>
      </trkpt>
      <trkpt lat="44.13664" lon="4.47065">
        <ele>237.4</ele>
        <time>2021-10-24T09:24:08Z</time>
      </trkpt>
      <trkpt lat="44.13666" lon="4.47051">
        <ele>237</ele>
        <time>2021-10-24T09:24:09Z</time>
      </trkpt>
      <trkpt lat="44.13669" lon="4.47037">
        <ele>237</ele>
        <time>2021-10-24T09:24:10Z</time>
      </trkpt>
      <trkpt lat="44.1367" lon="4.47022">
        <ele>236.6</ele>
        <time>2021-10-24T09:24:11Z</time>
      </trkpt>
      <trkpt lat="44.13672" lon="4.47008">
        <ele>236</ele>
        <time>2021-10-24T09:24:12Z</time>
      </trkpt>
      <trkpt lat="44.13673" lon="4.46993">
        <ele>235.8</ele>
        <time>2021-10-24T09:24:13Z</time>
      </trkpt>
      <trkpt lat="44.13675" lon="4.46978">
        <ele>234.8</ele>
        <time>2021-10-24T09:24:14Z</time>
      </trkpt>
      <trkpt lat="44.13676" lon="4.46963">
        <ele>234.2</ele>
        <time>2021-10-24T09:24:15Z</time>
      </trkpt>
      <trkpt lat="44.13676" lon="4.46947">
        <ele>233.4</ele>
        <time>2021-10-24T09:24:16Z</time>
      </trkpt>
      <trkpt lat="44.13677" lon="4.46932">
        <ele>232.8</ele>
        <time>2021-10-24T09:24:17Z</time>
      </trkpt>
      <trkpt lat="44.13678" lon="4.46917">
        <ele>232.2</ele>
        <time>2021-10-24T09:24:18Z</time>
      </trkpt>
      <trkpt lat="44.13678" lon="4.46901">
        <ele>231.8</ele>
        <time>2021-10-24T09:24:19Z</time>
      </trkpt>
      <trkpt lat="44.13679" lon="4.46885">
        <ele>231.4</ele>
        <time>2021-10-24T09:24:20Z</time>
      </trkpt>
      <trkpt lat="44.13679" lon="4.46869">
        <ele>230.6</ele>
        <time>2021-10-24T09:24:21Z</time>
      </trkpt>
      <trkpt lat="44.13679" lon="4.46853">
        <ele>229.6</ele>
        <time>2021-10-24T09:24:22Z</time>
      </trkpt>
      <trkpt lat="44.1368" lon="4.46836">
        <ele>228.8</ele>
        <time>2021-10-24T09:24:23Z</time>
      </trkpt>
      <trkpt lat="44.13681" lon="4.4682">
        <ele>228.2</ele>
        <time>2021-10-24T09:24:24Z</time>
      </trkpt>
      <trkpt lat="44.13681" lon="4.46804">
        <ele>227.4</ele>
        <time>2021-10-24T09:24:25Z</time>
      </trkpt>
      <trkpt lat="44.13682" lon="4.46787">
        <ele>226.8</ele>
        <time>2021-10-24T09:24:26Z</time>
      </trkpt>
      <trkpt lat="44.13683" lon="4.4677">
        <ele>226.4</ele>
        <time>2021-10-24T09:24:27Z</time>
      </trkpt>
      <trkpt lat="44.13683" lon="4.46753">
        <ele>226</ele>
        <time>2021-10-24T09:24:28Z</time>
      </trkpt>
      <trkpt lat="44.13684" lon="4.46736">
        <ele>225.4</ele>
        <time>2021-10-24T09:24:29Z</time>
      </trkpt>
      <trkpt lat="44.13684" lon="4.46719">
        <ele>224.8</ele>
        <time>2021-10-24T09:24:30Z</time>
      </trkpt>
      <trkpt lat="44.13685" lon="4.46702">
        <ele>223.8</ele>
        <time>2021-10-24T09:24:31Z</time>
      </trkpt>
      <trkpt lat="44.13686" lon="4.46685">
        <ele>223.2</ele>
        <time>2021-10-24T09:24:32Z</time>
      </trkpt>
      <trkpt lat="44.13687" lon="4.46668">
        <ele>222.6</ele>
        <time>2021-10-24T09:24:33Z</time>
      </trkpt>
      <trkpt lat="44.13687" lon="4.4665">
        <ele>221.8</ele>
        <time>2021-10-24T09:24:34Z</time>
      </trkpt>
      <trkpt lat="44.13689" lon="4.46633">
        <ele>221</ele>
        <time>2021-10-24T09:24:35Z</time>
      </trkpt>
      <trkpt lat="44.1369" lon="4.46616">
        <ele>220</ele>
        <time>2021-10-24T09:24:36Z</time>
      </trkpt>
      <trkpt lat="44.13692" lon="4.46599">
        <ele>219.4</ele>
        <time>2021-10-24T09:24:37Z</time>
      </trkpt>
      <trkpt lat="44.13694" lon="4.46583">
        <ele>218.6</ele>
        <time>2021-10-24T09:24:38Z</time>
      </trkpt>
      <trkpt lat="44.13698" lon="4.46567">
        <ele>217.8</ele>
        <time>2021-10-24T09:24:39Z</time>
      </trkpt>
      <trkpt lat="44.13702" lon="4.46551">
        <ele>217</ele>
        <time>2021-10-24T09:24:40Z</time>
      </trkpt>
      <trkpt lat="44.13707" lon="4.46535">
        <ele>216</ele>
        <time>2021-10-24T09:24:41Z</time>
      </trkpt>
      <trkpt lat="44.13712" lon="4.4652">
        <ele>215.2</ele>
        <time>2021-10-24T09:24:42Z</time>
      </trkpt>
      <trkpt lat="44.13717" lon="4.46505">
        <ele>214.6</ele>
        <time>2021-10-24T09:24:43Z</time>
      </trkpt>
      <trkpt lat="44.13722" lon="4.4649">
        <ele>214</ele>
        <time>2021-10-24T09:24:44Z</time>
      </trkpt>
      <trkpt lat="44.13728" lon="4.46475">
        <ele>212.8</ele>
        <time>2021-10-24T09:24:45Z</time>
      </trkpt>
      <trkpt lat="44.13733" lon="4.4646">
        <ele>212.2</ele>
        <time>2021-10-24T09:24:46Z</time>
      </trkpt>
      <trkpt lat="44.13738" lon="4.46445">
        <ele>212</ele>
        <time>2021-10-24T09:24:47Z</time>
      </trkpt>
      <trkpt lat="44.13744" lon="4.46429">
        <ele>211.6</ele>
        <time>2021-10-24T09:24:48Z</time>
      </trkpt>
      <trkpt lat="44.13749" lon="4.46414">
        <ele>211</ele>
        <time>2021-10-24T09:24:49Z</time>
      </trkpt>
      <trkpt lat="44.13755" lon="4.46399">
        <ele>210.4</ele>
        <time>2021-10-24T09:24:50Z</time>
      </trkpt>
      <trkpt lat="44.13761" lon="4.46383">
        <ele>210</ele>
        <time>2021-10-24T09:24:51Z</time>
      </trkpt>
      <trkpt lat="44.13766" lon="4.46368">
        <ele>209.8</ele>
        <time>2021-10-24T09:24:52Z</time>
      </trkpt>
      <trkpt lat="44.13772" lon="4.46352">
        <ele>209.2</ele>
        <time>2021-10-24T09:24:53Z</time>
      </trkpt>
      <trkpt lat="44.13777" lon="4.46337">
        <ele>208.2</ele>
        <time>2021-10-24T09:24:54Z</time>
      </trkpt>
      <trkpt lat="44.13783" lon="4.46321">
        <ele>207.4</ele>
        <time>2021-10-24T09:24:55Z</time>
      </trkpt>
      <trkpt lat="44.13788" lon="4.46305">
        <ele>206.4</ele>
        <time>2021-10-24T09:24:56Z</time>
      </trkpt>
      <trkpt lat="44.13794" lon="4.46289">
        <ele>205.8</ele>
        <time>2021-10-24T09:24:57Z</time>
      </trkpt>
      <trkpt lat="44.13799" lon="4.46273">
        <ele>204.6</ele>
        <time>2021-10-24T09:24:58Z</time>
      </trkpt>
      <trkpt lat="44.13805" lon="4.46257">
        <ele>203.8</ele>
        <time>2021-10-24T09:24:59Z</time>
      </trkpt>
      <trkpt lat="44.1381" lon="4.46241">
        <ele>203.2</ele>
        <time>2021-10-24T09:25:00Z</time>
      </trkpt>
      <trkpt lat="44.13815" lon="4.46224">
        <ele>202.4</ele>
        <time>2021-10-24T09:25:01Z</time>
      </trkpt>
      <trkpt lat="44.13818" lon="4.46207">
        <ele>202</ele>
        <time>2021-10-24T09:25:02Z</time>
      </trkpt>
      <trkpt lat="44.1382" lon="4.4619">
        <ele>201.2</ele>
        <time>2021-10-24T09:25:03Z</time>
      </trkpt>
      <trkpt lat="44.13821" lon="4.46173">
        <ele>200.8</ele>
        <time>2021-10-24T09:25:04Z</time>
      </trkpt>
      <trkpt lat="44.1382" lon="4.46156">
        <ele>200</ele>
        <time>2021-10-24T09:25:05Z</time>
      </trkpt>
      <trkpt lat="44.13819" lon="4.46139">
        <ele>199.4</ele>
        <time>2021-10-24T09:25:06Z</time>
      </trkpt>
      <trkpt lat="44.13817" lon="4.46123">
        <ele>198.4</ele>
        <time>2021-10-24T09:25:07Z</time>
      </trkpt>
      <trkpt lat="44.13814" lon="4.46106">
        <ele>197.8</ele>
        <time>2021-10-24T09:25:08Z</time>
      </trkpt>
      <trkpt lat="44.13811" lon="4.4609">
        <ele>197.2</ele>
        <time>2021-10-24T09:25:09Z</time>
      </trkpt>
      <trkpt lat="44.13808" lon="4.46073">
        <ele>196.4</ele>
        <time>2021-10-24T09:25:10Z</time>
      </trkpt>
      <trkpt lat="44.13806" lon="4.46057">
        <ele>195.6</ele>
        <time>2021-10-24T09:25:11Z</time>
      </trkpt>
      <trkpt lat="44.13804" lon="4.4604">
        <ele>195</ele>
        <time>2021-10-24T09:25:12Z</time>
      </trkpt>
      <trkpt lat="44.13803" lon="4.46023">
        <ele>194</ele>
        <time>2021-10-24T09:25:13Z</time>
      </trkpt>
      <trkpt lat="44.13803" lon="4.46006">
        <ele>193</ele>
        <time>2021-10-24T09:25:14Z</time>
      </trkpt>
      <trkpt lat="44.13804" lon="4.4599">
        <ele>191.8</ele>
        <time>2021-10-24T09:25:15Z</time>
      </trkpt>
      <trkpt lat="44.13808" lon="4.45974">
        <ele>191</ele>
        <time>2021-10-24T09:25:16Z</time>
      </trkpt>
      <trkpt lat="44.13813" lon="4.45959">
        <ele>190.2</ele>
        <time>2021-10-24T09:25:17Z</time>
      </trkpt>
      <trkpt lat="44.13818" lon="4.45944">
        <ele>189.6</ele>
        <time>2021-10-24T09:25:18Z</time>
      </trkpt>
      <trkpt lat="44.13824" lon="4.4593">
        <ele>189</ele>
        <time>2021-10-24T09:25:19Z</time>
      </trkpt>
      <trkpt lat="44.1383" lon="4.45915">
        <ele>188.2</ele>
        <time>2021-10-24T09:25:20Z</time>
      </trkpt>
      <trkpt lat="44.13835" lon="4.459">
        <ele>187.8</ele>
        <time>2021-10-24T09:25:21Z</time>
      </trkpt>
      <trkpt lat="44.13841" lon="4.45886">
        <ele>187.4</ele>
        <time>2021-10-24T09:25:22Z</time>
      </trkpt>
      <trkpt lat="44.13847" lon="4.45871">
        <ele>186.6</ele>
        <time>2021-10-24T09:25:23Z</time>
      </trkpt>
      <trkpt lat="44.13852" lon="4.45857">
        <ele>186.4</ele>
        <time>2021-10-24T09:25:24Z</time>
      </trkpt>
      <trkpt lat="44.13858" lon="4.45843">
        <ele>186</ele>
        <time>2021-10-24T09:25:25Z</time>
      </trkpt>
      <trkpt lat="44.13863" lon="4.45829">
        <ele>186</ele>
        <time>2021-10-24T09:25:26Z</time>
      </trkpt>
      <trkpt lat="44.13869" lon="4.45816">
        <ele>185.4</ele>
        <time>2021-10-24T09:25:27Z</time>
      </trkpt>
      <trkpt lat="44.13875" lon="4.45803">
        <ele>184.8</ele>
        <time>2021-10-24T09:25:28Z</time>
      </trkpt>
      <trkpt lat="44.13881" lon="4.4579">
        <ele>184.6</ele>
        <time>2021-10-24T09:25:29Z</time>
      </trkpt>
      <trkpt lat="44.13887" lon="4.45778">
        <ele>184</ele>
        <time>2021-10-24T09:25:30Z</time>
      </trkpt>
      <trkpt lat="44.13893" lon="4.45765">
        <ele>183.6</ele>
        <time>2021-10-24T09:25:31Z</time>
      </trkpt>
      <trkpt lat="44.13898" lon="4.45753">
        <ele>183.2</ele>
        <time>2021-10-24T09:25:32Z</time>
      </trkpt>
      <trkpt lat="44.13903" lon="4.4574">
        <ele>182.6</ele>
        <time>2021-10-24T09:25:33Z</time>
      </trkpt>
      <trkpt lat="44.13907" lon="4.45728">
        <ele>182.2</ele>
        <time>2021-10-24T09:25:34Z</time>
      </trkpt>
      <trkpt lat="44.1391" lon="4.45714">
        <ele>181.4</ele>
        <time>2021-10-24T09:25:35Z</time>
      </trkpt>
      <trkpt lat="44.13913" lon="4.45701">
        <ele>180.8</ele>
        <time>2021-10-24T09:25:36Z</time>
      </trkpt>
      <trkpt lat="44.13916" lon="4.45688">
        <ele>180</ele>
        <time>2021-10-24T09:25:37Z</time>
      </trkpt>
      <trkpt lat="44.13919" lon="4.45674">
        <ele>180</ele>
        <time>2021-10-24T09:25:38Z</time>
      </trkpt>
      <trkpt lat="44.13922" lon="4.45661">
        <ele>179.6</ele>
        <time>2021-10-24T09:25:39Z</time>
      </trkpt>
      <trkpt lat="44.13925" lon="4.45647">
        <ele>179.2</ele>
        <time>2021-10-24T09:25:40Z</time>
      </trkpt>
      <trkpt lat="44.13928" lon="4.45634">
        <ele>179</ele>
        <time>2021-10-24T09:25:41Z</time>
      </trkpt>
      <trkpt lat="44.13933" lon="4.45621">
        <ele>178.6</ele>
        <time>2021-10-24T09:25:42Z</time>
      </trkpt>
      <trkpt lat="44.13937" lon="4.45608">
        <ele>178.4</ele>
        <time>2021-10-24T09:25:43Z</time>
      </trkpt>
      <trkpt lat="44.13941" lon="4.45595">
        <ele>177.8</ele>
        <time>2021-10-24T09:25:44Z</time>
      </trkpt>
      <trkpt lat="44.13946" lon="4.45582">
        <ele>177</ele>
        <time>2021-10-24T09:25:45Z</time>
      </trkpt>
      <trkpt lat="44.1395" lon="4.45569">
        <ele>176.8</ele>
        <time>2021-10-24T09:25:46Z</time>
      </trkpt>
      <trkpt lat="44.13955" lon="4.45556">
        <ele>176.4</ele>
        <time>2021-10-24T09:25:47Z</time>
      </trkpt>
      <trkpt lat="44.13959" lon="4.45544">
        <ele>175.8</ele>
        <time>2021-10-24T09:25:48Z</time>
      </trkpt>
      <trkpt lat="44.13963" lon="4.45531">
        <ele>176.2</ele>
        <time>2021-10-24T09:25:49Z</time>
      </trkpt>
      <trkpt lat="44.13968" lon="4.45518">
        <ele>175.6</ele>
        <time>2021-10-24T09:25:50Z</time>
      </trkpt>
      <trkpt lat="44.13972" lon="4.45505">
        <ele>175.4</ele>
        <time>2021-10-24T09:25:51Z</time>
      </trkpt>
      <trkpt lat="44.13977" lon="4.45492">
        <ele>175</ele>
        <time>2021-10-24T09:25:52Z</time>
      </trkpt>
      <trkpt lat="44.13981" lon="4.4548">
        <ele>174.8</ele>
        <time>2021-10-24T09:25:53Z</time>
      </trkpt>
      <trkpt lat="44.13985" lon="4.45467">
        <ele>174.4</ele>
        <time>2021-10-24T09:25:54Z</time>
      </trkpt>
      <trkpt lat="44.1399" lon="4.45455">
        <ele>174.4</ele>
        <time>2021-10-24T09:25:55Z</time>
      </trkpt>
      <trkpt lat="44.13994" lon="4.45443">
        <ele>174.2</ele>
        <time>2021-10-24T09:25:56Z</time>
      </trkpt>
      <trkpt lat="44.13999" lon="4.45431">
        <ele>174</ele>
        <time>2021-10-24T09:25:57Z</time>
      </trkpt>
      <trkpt lat="44.14003" lon="4.45419">
        <ele>174</ele>
        <time>2021-10-24T09:25:58Z</time>
      </trkpt>
      <trkpt lat="44.14008" lon="4.45407">
        <ele>174</ele>
        <time>2021-10-24T09:25:59Z</time>
      </trkpt>
      <trkpt lat="44.14013" lon="4.45395">
        <ele>173.6</ele>
        <time>2021-10-24T09:26:00Z</time>
      </trkpt>
      <trkpt lat="44.14017" lon="4.45384">
        <ele>173.6</ele>
        <time>2021-10-24T09:26:01Z</time>
      </trkpt>
      <trkpt lat="44.14022" lon="4.45372">
        <ele>173</ele>
        <time>2021-10-24T09:26:02Z</time>
      </trkpt>
      <trkpt lat="44.14027" lon="4.4536">
        <ele>172.4</ele>
        <time>2021-10-24T09:26:03Z</time>
      </trkpt>
      <trkpt lat="44.14031" lon="4.45349">
        <ele>172.2</ele>
        <time>2021-10-24T09:26:04Z</time>
      </trkpt>
      <trkpt lat="44.14036" lon="4.45337">
        <ele>172.2</ele>
        <time>2021-10-24T09:26:05Z</time>
      </trkpt>
      <trkpt lat="44.1404" lon="4.45326">
        <ele>172.2</ele>
        <time>2021-10-24T09:26:06Z</time>
      </trkpt>
      <trkpt lat="44.14045" lon="4.45314">
        <ele>172.4</ele>
        <time>2021-10-24T09:26:07Z</time>
      </trkpt>
      <trkpt lat="44.14049" lon="4.45303">
        <ele>172.2</ele>
        <time>2021-10-24T09:26:08Z</time>
      </trkpt>
      <trkpt lat="44.14054" lon="4.45292">
        <ele>172.4</ele>
        <time>2021-10-24T09:26:09Z</time>
      </trkpt>
      <trkpt lat="44.14058" lon="4.45281">
        <ele>172.4</ele>
        <time>2021-10-24T09:26:10Z</time>
      </trkpt>
      <trkpt lat="44.14062" lon="4.45269">
        <ele>172.6</ele>
        <time>2021-10-24T09:26:11Z</time>
      </trkpt>
      <trkpt lat="44.14066" lon="4.45258">
        <ele>172</ele>
        <time>2021-10-24T09:26:12Z</time>
      </trkpt>
      <trkpt lat="44.14069" lon="4.45247">
        <ele>171.8</ele>
        <time>2021-10-24T09:26:13Z</time>
      </trkpt>
      <trkpt lat="44.14073" lon="4.45237">
        <ele>171.8</ele>
        <time>2021-10-24T09:26:14Z</time>
      </trkpt>
      <trkpt lat="44.14076" lon="4.45226">
        <ele>171.8</ele>
        <time>2021-10-24T09:26:15Z</time>
      </trkpt>
      <trkpt lat="44.1408" lon="4.45216">
        <ele>171.6</ele>
        <time>2021-10-24T09:26:16Z</time>
      </trkpt>
      <trkpt lat="44.14083" lon="4.45205">
        <ele>171.6</ele>
        <time>2021-10-24T09:26:17Z</time>
      </trkpt>
      <trkpt lat="44.14086" lon="4.45195">
        <ele>171.8</ele>
        <time>2021-10-24T09:26:18Z</time>
      </trkpt>
      <trkpt lat="44.14089" lon="4.45184">
        <ele>172</ele>
        <time>2021-10-24T09:26:19Z</time>
      </trkpt>
      <trkpt lat="44.14093" lon="4.45173">
        <ele>172</ele>
        <time>2021-10-24T09:26:20Z</time>
      </trkpt>
      <trkpt lat="44.14096" lon="4.45162">
        <ele>172</ele>
        <time>2021-10-24T09:26:21Z</time>
      </trkpt>
      <trkpt lat="44.141" lon="4.45151">
        <ele>171.4</ele>
        <time>2021-10-24T09:26:22Z</time>
      </trkpt>
      <trkpt lat="44.14104" lon="4.4514">
        <ele>171.2</ele>
        <time>2021-10-24T09:26:23Z</time>
      </trkpt>
      <trkpt lat="44.14108" lon="4.45128">
        <ele>171</ele>
        <time>2021-10-24T09:26:24Z</time>
      </trkpt>
      <trkpt lat="44.14112" lon="4.45117">
        <ele>170.6</ele>
        <time>2021-10-24T09:26:25Z</time>
      </trkpt>
      <trkpt lat="44.14117" lon="4.45106">
        <ele>170.4</ele>
        <time>2021-10-24T09:26:26Z</time>
      </trkpt>
      <trkpt lat="44.14122" lon="4.45095">
        <ele>170.2</ele>
        <time>2021-10-24T09:26:27Z</time>
      </trkpt>
      <trkpt lat="44.14128" lon="4.45084">
        <ele>170.6</ele>
        <time>2021-10-24T09:26:28Z</time>
      </trkpt>
      <trkpt lat="44.14134" lon="4.45073">
        <ele>170.4</ele>
        <time>2021-10-24T09:26:29Z</time>
      </trkpt>
      <trkpt lat="44.1414" lon="4.45063">
        <ele>169.8</ele>
        <time>2021-10-24T09:26:30Z</time>
      </trkpt>
      <trkpt lat="44.14147" lon="4.45053">
        <ele>170.4</ele>
        <time>2021-10-24T09:26:31Z</time>
      </trkpt>
      <trkpt lat="44.14155" lon="4.45045">
        <ele>169.4</ele>
        <time>2021-10-24T09:26:32Z</time>
      </trkpt>
      <trkpt lat="44.14163" lon="4.45037">
        <ele>168</ele>
        <time>2021-10-24T09:26:33Z</time>
      </trkpt>
      <trkpt lat="44.14171" lon="4.45031">
        <ele>167.6</ele>
        <time>2021-10-24T09:26:34Z</time>
      </trkpt>
      <trkpt lat="44.14179" lon="4.45024">
        <ele>167.4</ele>
        <time>2021-10-24T09:26:35Z</time>
      </trkpt>
      <trkpt lat="44.14187" lon="4.45018">
        <ele>167</ele>
        <time>2021-10-24T09:26:36Z</time>
      </trkpt>
      <trkpt lat="44.14195" lon="4.45012">
        <ele>166.8</ele>
        <time>2021-10-24T09:26:37Z</time>
      </trkpt>
      <trkpt lat="44.14203" lon="4.45007">
        <ele>166.8</ele>
        <time>2021-10-24T09:26:38Z</time>
      </trkpt>
      <trkpt lat="44.14211" lon="4.45001">
        <ele>166.4</ele>
        <time>2021-10-24T09:26:39Z</time>
      </trkpt>
      <trkpt lat="44.14219" lon="4.44995">
        <ele>166.4</ele>
        <time>2021-10-24T09:26:40Z</time>
      </trkpt>
      <trkpt lat="44.14227" lon="4.44989">
        <ele>166.4</ele>
        <time>2021-10-24T09:26:41Z</time>
      </trkpt>
      <trkpt lat="44.14234" lon="4.44983">
        <ele>166.4</ele>
        <time>2021-10-24T09:26:42Z</time>
      </trkpt>
      <trkpt lat="44.14242" lon="4.44977">
        <ele>166.4</ele>
        <time>2021-10-24T09:26:43Z</time>
      </trkpt>
      <trkpt lat="44.14251" lon="4.4497">
        <ele>166.2</ele>
        <time>2021-10-24T09:26:44Z</time>
      </trkpt>
      <trkpt lat="44.14259" lon="4.44964">
        <ele>166.2</ele>
        <time>2021-10-24T09:26:45Z</time>
      </trkpt>
      <trkpt lat="44.14268" lon="4.44957">
        <ele>166.4</ele>
        <time>2021-10-24T09:26:46Z</time>
      </trkpt>
      <trkpt lat="44.14278" lon="4.4495">
        <ele>166.2</ele>
        <time>2021-10-24T09:26:47Z</time>
      </trkpt>
      <trkpt lat="44.14287" lon="4.44943">
        <ele>166.2</ele>
        <time>2021-10-24T09:26:48Z</time>
      </trkpt>
      <trkpt lat="44.14296" lon="4.44936">
        <ele>166</ele>
        <time>2021-10-24T09:26:49Z</time>
      </trkpt>
      <trkpt lat="44.14306" lon="4.44929">
        <ele>165.8</ele>
        <time>2021-10-24T09:26:50Z</time>
      </trkpt>
      <trkpt lat="44.14316" lon="4.44921">
        <ele>165</ele>
        <time>2021-10-24T09:26:51Z</time>
      </trkpt>
      <trkpt lat="44.14325" lon="4.44914">
        <ele>164.2</ele>
        <time>2021-10-24T09:26:52Z</time>
      </trkpt>
      <trkpt lat="44.14335" lon="4.44907">
        <ele>163.2</ele>
        <time>2021-10-24T09:26:53Z</time>
      </trkpt>
      <trkpt lat="44.14345" lon="4.44899">
        <ele>162.6</ele>
        <time>2021-10-24T09:26:54Z</time>
      </trkpt>
      <trkpt lat="44.14354" lon="4.44892">
        <ele>162</ele>
        <time>2021-10-24T09:26:55Z</time>
      </trkpt>
      <trkpt lat="44.14364" lon="4.44885">
        <ele>161.6</ele>
        <time>2021-10-24T09:26:56Z</time>
      </trkpt>
      <trkpt lat="44.14374" lon="4.4488">
        <ele>161</ele>
        <time>2021-10-24T09:26:57Z</time>
      </trkpt>
      <trkpt lat="44.14383" lon="4.44875">
        <ele>160.2</ele>
        <time>2021-10-24T09:26:58Z</time>
      </trkpt>
      <trkpt lat="44.14393" lon="4.4487">
        <ele>159.8</ele>
        <time>2021-10-24T09:26:59Z</time>
      </trkpt>
      <trkpt lat="44.14403" lon="4.44865">
        <ele>159.2</ele>
        <time>2021-10-24T09:27:00Z</time>
      </trkpt>
      <trkpt lat="44.14412" lon="4.44861">
        <ele>158.6</ele>
        <time>2021-10-24T09:27:01Z</time>
      </trkpt>
      <trkpt lat="44.14422" lon="4.44856">
        <ele>158.2</ele>
        <time>2021-10-24T09:27:02Z</time>
      </trkpt>
      <trkpt lat="44.14433" lon="4.44852">
        <ele>157.6</ele>
        <time>2021-10-24T09:27:03Z</time>
      </trkpt>
      <trkpt lat="44.14444" lon="4.44848">
        <ele>157.4</ele>
        <time>2021-10-24T09:27:04Z</time>
      </trkpt>
      <trkpt lat="44.14455" lon="4.44844">
        <ele>156.6</ele>
        <time>2021-10-24T09:27:05Z</time>
      </trkpt>
      <trkpt lat="44.14466" lon="4.44841">
        <ele>156.4</ele>
        <time>2021-10-24T09:27:06Z</time>
      </trkpt>
      <trkpt lat="44.14477" lon="4.44838">
        <ele>156.2</ele>
        <time>2021-10-24T09:27:07Z</time>
      </trkpt>
      <trkpt lat="44.14487" lon="4.44836">
        <ele>155.8</ele>
        <time>2021-10-24T09:27:08Z</time>
      </trkpt>
      <trkpt lat="44.14498" lon="4.44834">
        <ele>155.6</ele>
        <time>2021-10-24T09:27:09Z</time>
      </trkpt>
      <trkpt lat="44.14508" lon="4.44832">
        <ele>155.2</ele>
        <time>2021-10-24T09:27:10Z</time>
      </trkpt>
      <trkpt lat="44.14519" lon="4.44831">
        <ele>154.6</ele>
        <time>2021-10-24T09:27:11Z</time>
      </trkpt>
      <trkpt lat="44.1453" lon="4.4483">
        <ele>154.4</ele>
        <time>2021-10-24T09:27:12Z</time>
      </trkpt>
      <trkpt lat="44.1454" lon="4.44829">
        <ele>154.2</ele>
        <time>2021-10-24T09:27:13Z</time>
      </trkpt>
      <trkpt lat="44.14551" lon="4.44828">
        <ele>153.2</ele>
        <time>2021-10-24T09:27:14Z</time>
      </trkpt>
      <trkpt lat="44.14561" lon="4.44828">
        <ele>152.8</ele>
        <time>2021-10-24T09:27:15Z</time>
      </trkpt>
      <trkpt lat="44.14571" lon="4.44828">
        <ele>153</ele>
        <time>2021-10-24T09:27:16Z</time>
      </trkpt>
      <trkpt lat="44.14581" lon="4.4483">
        <ele>152.4</ele>
        <time>2021-10-24T09:27:17Z</time>
      </trkpt>
      <trkpt lat="44.14591" lon="4.44832">
        <ele>151.8</ele>
        <time>2021-10-24T09:27:18Z</time>
      </trkpt>
      <trkpt lat="44.14601" lon="4.44836">
        <ele>151.2</ele>
        <time>2021-10-24T09:27:19Z</time>
      </trkpt>
      <trkpt lat="44.14611" lon="4.44841">
        <ele>151.2</ele>
        <time>2021-10-24T09:27:20Z</time>
      </trkpt>
      <trkpt lat="44.1462" lon="4.44846">
        <ele>150.4</ele>
        <time>2021-10-24T09:27:21Z</time>
      </trkpt>
      <trkpt lat="44.1463" lon="4.44851">
        <ele>150.6</ele>
        <time>2021-10-24T09:27:22Z</time>
      </trkpt>
      <trkpt lat="44.1464" lon="4.44856">
        <ele>149.4</ele>
        <time>2021-10-24T09:27:23Z</time>
      </trkpt>
      <trkpt lat="44.14649" lon="4.44861">
        <ele>149</ele>
        <time>2021-10-24T09:27:24Z</time>
      </trkpt>
      <trkpt lat="44.14659" lon="4.44866">
        <ele>148.4</ele>
        <time>2021-10-24T09:27:25Z</time>
      </trkpt>
      <trkpt lat="44.14669" lon="4.44871">
        <ele>148</ele>
        <time>2021-10-24T09:27:26Z</time>
      </trkpt>
      <trkpt lat="44.14679" lon="4.44877">
        <ele>147.6</ele>
        <time>2021-10-24T09:27:27Z</time>
      </trkpt>
      <trkpt lat="44.14689" lon="4.44882">
        <ele>147.2</ele>
        <time>2021-10-24T09:27:28Z</time>
      </trkpt>
      <trkpt lat="44.147" lon="4.44888">
        <ele>146.2</ele>
        <time>2021-10-24T09:27:29Z</time>
      </trkpt>
      <trkpt lat="44.1471" lon="4.44893">
        <ele>146</ele>
        <time>2021-10-24T09:27:30Z</time>
      </trkpt>
      <trkpt lat="44.1472" lon="4.44899">
        <ele>145.4</ele>
        <time>2021-10-24T09:27:31Z</time>
      </trkpt>
      <trkpt lat="44.1473" lon="4.44904">
        <ele>145</ele>
        <time>2021-10-24T09:27:32Z</time>
      </trkpt>
      <trkpt lat="44.1474" lon="4.4491">
        <ele>144.8</ele>
        <time>2021-10-24T09:27:33Z</time>
      </trkpt>
      <trkpt lat="44.1475" lon="4.44915">
        <ele>144.6</ele>
        <time>2021-10-24T09:27:34Z</time>
      </trkpt>
      <trkpt lat="44.1476" lon="4.44921">
        <ele>144.2</ele>
        <time>2021-10-24T09:27:35Z</time>
      </trkpt>
      <trkpt lat="44.14769" lon="4.44927">
        <ele>143.8</ele>
        <time>2021-10-24T09:27:36Z</time>
      </trkpt>
      <trkpt lat="44.14779" lon="4.44933">
        <ele>143.6</ele>
        <time>2021-10-24T09:27:37Z</time>
      </trkpt>
      <trkpt lat="44.14789" lon="4.44938">
        <ele>143.2</ele>
        <time>2021-10-24T09:27:38Z</time>
      </trkpt>
      <trkpt lat="44.14799" lon="4.44944">
        <ele>142.8</ele>
        <time>2021-10-24T09:27:39Z</time>
      </trkpt>
      <trkpt lat="44.14808" lon="4.44951">
        <ele>142.4</ele>
        <time>2021-10-24T09:27:40Z</time>
      </trkpt>
      <trkpt lat="44.14818" lon="4.44958">
        <ele>142.2</ele>
        <time>2021-10-24T09:27:41Z</time>
      </trkpt>
      <trkpt lat="44.14827" lon="4.44965">
        <ele>141.8</ele>
        <time>2021-10-24T09:27:42Z</time>
      </trkpt>
      <trkpt lat="44.14837" lon="4.44972">
        <ele>141.6</ele>
        <time>2021-10-24T09:27:43Z</time>
      </trkpt>
      <trkpt lat="44.14846" lon="4.4498">
        <ele>141.2</ele>
        <time>2021-10-24T09:27:44Z</time>
      </trkpt>
      <trkpt lat="44.14854" lon="4.44988">
        <ele>140.8</ele>
        <time>2021-10-24T09:27:45Z</time>
      </trkpt>
      <trkpt lat="44.14863" lon="4.44997">
        <ele>140</ele>
        <time>2021-10-24T09:27:46Z</time>
      </trkpt>
      <trkpt lat="44.14871" lon="4.45006">
        <ele>139.8</ele>
        <time>2021-10-24T09:27:47Z</time>
      </trkpt>
      <trkpt lat="44.14879" lon="4.45016">
        <ele>139.6</ele>
        <time>2021-10-24T09:27:48Z</time>
      </trkpt>
      <trkpt lat="44.14886" lon="4.45027">
        <ele>139.2</ele>
        <time>2021-10-24T09:27:49Z</time>
      </trkpt>
      <trkpt lat="44.14893" lon="4.45038">
        <ele>138.8</ele>
        <time>2021-10-24T09:27:50Z</time>
      </trkpt>
      <trkpt lat="44.14899" lon="4.45049">
        <ele>138.4</ele>
        <time>2021-10-24T09:27:51Z</time>
      </trkpt>
      <trkpt lat="44.14905" lon="4.45061">
        <ele>138.2</ele>
        <time>2021-10-24T09:27:52Z</time>
      </trkpt>
      <trkpt lat="44.1491" lon="4.45073">
        <ele>138</ele>
        <time>2021-10-24T09:27:53Z</time>
      </trkpt>
      <trkpt lat="44.14915" lon="4.45085">
        <ele>137.2</ele>
        <time>2021-10-24T09:27:54Z</time>
      </trkpt>
      <trkpt lat="44.1492" lon="4.45096">
        <ele>137.2</ele>
        <time>2021-10-24T09:27:55Z</time>
      </trkpt>
      <trkpt lat="44.14925" lon="4.45108">
        <ele>137</ele>
        <time>2021-10-24T09:27:56Z</time>
      </trkpt>
      <trkpt lat="44.1493" lon="4.45119">
        <ele>137.2</ele>
        <time>2021-10-24T09:27:57Z</time>
      </trkpt>
      <trkpt lat="44.14935" lon="4.4513">
        <ele>136.6</ele>
        <time>2021-10-24T09:27:58Z</time>
      </trkpt>
      <trkpt lat="44.1494" lon="4.45142">
        <ele>136.4</ele>
        <time>2021-10-24T09:27:59Z</time>
      </trkpt>
      <trkpt lat="44.14945" lon="4.45153">
        <ele>136.4</ele>
        <time>2021-10-24T09:28:00Z</time>
      </trkpt>
      <trkpt lat="44.1495" lon="4.45165">
        <ele>136.2</ele>
        <time>2021-10-24T09:28:01Z</time>
      </trkpt>
      <trkpt lat="44.14955" lon="4.45176">
        <ele>136</ele>
        <time>2021-10-24T09:28:02Z</time>
      </trkpt>
      <trkpt lat="44.1496" lon="4.45187">
        <ele>135.6</ele>
        <time>2021-10-24T09:28:03Z</time>
      </trkpt>
      <trkpt lat="44.14966" lon="4.45197">
        <ele>135.6</ele>
        <time>2021-10-24T09:28:04Z</time>
      </trkpt>
      <trkpt lat="44.14972" lon="4.45206">
        <ele>135.6</ele>
        <time>2021-10-24T09:28:05Z</time>
      </trkpt>
      <trkpt lat="44.1498" lon="4.45215">
        <ele>135.2</ele>
        <time>2021-10-24T09:28:06Z</time>
      </trkpt>
      <trkpt lat="44.14988" lon="4.45222">
        <ele>135</ele>
        <time>2021-10-24T09:28:07Z</time>
      </trkpt>
      <trkpt lat="44.14996" lon="4.45228">
        <ele>134.6</ele>
        <time>2021-10-24T09:28:08Z</time>
      </trkpt>
      <trkpt lat="44.15004" lon="4.45235">
        <ele>134.4</ele>
        <time>2021-10-24T09:28:09Z</time>
      </trkpt>
      <trkpt lat="44.15013" lon="4.45241">
        <ele>134.4</ele>
        <time>2021-10-24T09:28:10Z</time>
      </trkpt>
      <trkpt lat="44.15021" lon="4.45247">
        <ele>134.4</ele>
        <time>2021-10-24T09:28:11Z</time>
      </trkpt>
      <trkpt lat="44.1503" lon="4.45254">
        <ele>134</ele>
        <time>2021-10-24T09:28:12Z</time>
      </trkpt>
      <trkpt lat="44.15039" lon="4.4526">
        <ele>134.2</ele>
        <time>2021-10-24T09:28:13Z</time>
      </trkpt>
      <trkpt lat="44.15048" lon="4.45267">
        <ele>134</ele>
        <time>2021-10-24T09:28:14Z</time>
      </trkpt>
      <trkpt lat="44.15057" lon="4.45273">
        <ele>134.2</ele>
        <time>2021-10-24T09:28:15Z</time>
      </trkpt>
      <trkpt lat="44.15066" lon="4.4528">
        <ele>133.8</ele>
        <time>2021-10-24T09:28:16Z</time>
      </trkpt>
      <trkpt lat="44.15076" lon="4.45287">
        <ele>133.2</ele>
        <time>2021-10-24T09:28:17Z</time>
      </trkpt>
      <trkpt lat="44.15085" lon="4.45293">
        <ele>132.8</ele>
        <time>2021-10-24T09:28:18Z</time>
      </trkpt>
      <trkpt lat="44.15095" lon="4.453">
        <ele>132.2</ele>
        <time>2021-10-24T09:28:19Z</time>
      </trkpt>
      <trkpt lat="44.15104" lon="4.45307">
        <ele>131.6</ele>
        <time>2021-10-24T09:28:20Z</time>
      </trkpt>
      <trkpt lat="44.15113" lon="4.45315">
        <ele>131.2</ele>
        <time>2021-10-24T09:28:21Z</time>
      </trkpt>
      <trkpt lat="44.15122" lon="4.45322">
        <ele>130.8</ele>
        <time>2021-10-24T09:28:22Z</time>
      </trkpt>
      <trkpt lat="44.15132" lon="4.4533">
        <ele>130.4</ele>
        <time>2021-10-24T09:28:23Z</time>
      </trkpt>
      <trkpt lat="44.15141" lon="4.45338">
        <ele>130.2</ele>
        <time>2021-10-24T09:28:24Z</time>
      </trkpt>
      <trkpt lat="44.1515" lon="4.45347">
        <ele>129.8</ele>
        <time>2021-10-24T09:28:25Z</time>
      </trkpt>
      <trkpt lat="44.15159" lon="4.45356">
        <ele>129.2</ele>
        <time>2021-10-24T09:28:26Z</time>
      </trkpt>
      <trkpt lat="44.15168" lon="4.45365">
        <ele>128.8</ele>
        <time>2021-10-24T09:28:27Z</time>
      </trkpt>
      <trkpt lat="44.15177" lon="4.45375">
        <ele>128.2</ele>
        <time>2021-10-24T09:28:28Z</time>
      </trkpt>
      <trkpt lat="44.15186" lon="4.45384">
        <ele>127.4</ele>
        <time>2021-10-24T09:28:29Z</time>
      </trkpt>
      <trkpt lat="44.15196" lon="4.45393">
        <ele>126.8</ele>
        <time>2021-10-24T09:28:30Z</time>
      </trkpt>
      <trkpt lat="44.15206" lon="4.45402">
        <ele>126</ele>
        <time>2021-10-24T09:28:31Z</time>
      </trkpt>
      <trkpt lat="44.15216" lon="4.45412">
        <ele>125.2</ele>
        <time>2021-10-24T09:28:32Z</time>
      </trkpt>
      <trkpt lat="44.15226" lon="4.4542">
        <ele>124.4</ele>
        <time>2021-10-24T09:28:33Z</time>
      </trkpt>
      <trkpt lat="44.15236" lon="4.45429">
        <ele>123.6</ele>
        <time>2021-10-24T09:28:34Z</time>
      </trkpt>
      <trkpt lat="44.15246" lon="4.45437">
        <ele>122.8</ele>
        <time>2021-10-24T09:28:35Z</time>
      </trkpt>
      <trkpt lat="44.15256" lon="4.45445">
        <ele>122.2</ele>
        <time>2021-10-24T09:28:36Z</time>
      </trkpt>
      <trkpt lat="44.15266" lon="4.45452">
        <ele>121.8</ele>
        <time>2021-10-24T09:28:37Z</time>
      </trkpt>
      <trkpt lat="44.15276" lon="4.45459">
        <ele>121.4</ele>
        <time>2021-10-24T09:28:38Z</time>
      </trkpt>
      <trkpt lat="44.15285" lon="4.45466">
        <ele>120.8</ele>
        <time>2021-10-24T09:28:39Z</time>
      </trkpt>
      <trkpt lat="44.15294" lon="4.45473">
        <ele>120.4</ele>
        <time>2021-10-24T09:28:40Z</time>
      </trkpt>
      <trkpt lat="44.15303" lon="4.4548">
        <ele>120.2</ele>
        <time>2021-10-24T09:28:41Z</time>
      </trkpt>
      <trkpt lat="44.15311" lon="4.45487">
        <ele>119.6</ele>
        <time>2021-10-24T09:28:42Z</time>
      </trkpt>
      <trkpt lat="44.15319" lon="4.45494">
        <ele>119.2</ele>
        <time>2021-10-24T09:28:43Z</time>
      </trkpt>
      <trkpt lat="44.15327" lon="4.45501">
        <ele>118.8</ele>
        <time>2021-10-24T09:28:44Z</time>
      </trkpt>
      <trkpt lat="44.15334" lon="4.45508">
        <ele>118.6</ele>
        <time>2021-10-24T09:28:45Z</time>
      </trkpt>
      <trkpt lat="44.15341" lon="4.45515">
        <ele>118.4</ele>
        <time>2021-10-24T09:28:46Z</time>
      </trkpt>
      <trkpt lat="44.15347" lon="4.45522">
        <ele>118.2</ele>
        <time>2021-10-24T09:28:47Z</time>
      </trkpt>
      <trkpt lat="44.15353" lon="4.4553">
        <ele>118.2</ele>
        <time>2021-10-24T09:28:48Z</time>
      </trkpt>
      <trkpt lat="44.15359" lon="4.45538">
        <ele>118</ele>
        <time>2021-10-24T09:28:49Z</time>
      </trkpt>
      <trkpt lat="44.15364" lon="4.45545">
        <ele>118.2</ele>
        <time>2021-10-24T09:28:50Z</time>
      </trkpt>
      <trkpt lat="44.15369" lon="4.45553">
        <ele>118.2</ele>
        <time>2021-10-24T09:28:51Z</time>
      </trkpt>
      <trkpt lat="44.15374" lon="4.45562">
        <ele>118</ele>
        <time>2021-10-24T09:28:52Z</time>
      </trkpt>
      <trkpt lat="44.15378" lon="4.45571">
        <ele>118</ele>
        <time>2021-10-24T09:28:53Z</time>
      </trkpt>
      <trkpt lat="44.15382" lon="4.45581">
        <ele>118</ele>
        <time>2021-10-24T09:28:54Z</time>
      </trkpt>
      <trkpt lat="44.15385" lon="4.45591">
        <ele>118</ele>
        <time>2021-10-24T09:28:55Z</time>
      </trkpt>
      <trkpt lat="44.15388" lon="4.45602">
        <ele>118.2</ele>
        <time>2021-10-24T09:28:56Z</time>
      </trkpt>
      <trkpt lat="44.15391" lon="4.45612">
        <ele>118.2</ele>
        <time>2021-10-24T09:28:57Z</time>
      </trkpt>
      <trkpt lat="44.15394" lon="4.45623">
        <ele>118.2</ele>
        <time>2021-10-24T09:28:58Z</time>
      </trkpt>
      <trkpt lat="44.15397" lon="4.45634">
        <ele>118</ele>
        <time>2021-10-24T09:28:59Z</time>
      </trkpt>
      <trkpt lat="44.154" lon="4.45645">
        <ele>117.6</ele>
        <time>2021-10-24T09:29:00Z</time>
      </trkpt>
      <trkpt lat="44.15403" lon="4.45656">
        <ele>117.4</ele>
        <time>2021-10-24T09:29:01Z</time>
      </trkpt>
      <trkpt lat="44.15406" lon="4.45667">
        <ele>117.2</ele>
        <time>2021-10-24T09:29:02Z</time>
      </trkpt>
      <trkpt lat="44.15408" lon="4.45679">
        <ele>117</ele>
        <time>2021-10-24T09:29:03Z</time>
      </trkpt>
      <trkpt lat="44.15411" lon="4.4569">
        <ele>116.6</ele>
        <time>2021-10-24T09:29:04Z</time>
      </trkpt>
      <trkpt lat="44.15415" lon="4.45702">
        <ele>116.4</ele>
        <time>2021-10-24T09:29:05Z</time>
      </trkpt>
      <trkpt lat="44.15419" lon="4.45713">
        <ele>116.2</ele>
        <time>2021-10-24T09:29:06Z</time>
      </trkpt>
      <trkpt lat="44.15423" lon="4.45724">
        <ele>116.2</ele>
        <time>2021-10-24T09:29:07Z</time>
      </trkpt>
      <trkpt lat="44.15428" lon="4.45734">
        <ele>116</ele>
        <time>2021-10-24T09:29:08Z</time>
      </trkpt>
      <trkpt lat="44.15435" lon="4.45743">
        <ele>115.6</ele>
        <time>2021-10-24T09:29:09Z</time>
      </trkpt>
      <trkpt lat="44.15442" lon="4.4575">
        <ele>115.2</ele>
        <time>2021-10-24T09:29:10Z</time>
      </trkpt>
      <trkpt lat="44.1545" lon="4.45755">
        <ele>115</ele>
        <time>2021-10-24T09:29:11Z</time>
      </trkpt>
      <trkpt lat="44.15458" lon="4.4576">
        <ele>115</ele>
        <time>2021-10-24T09:29:12Z</time>
      </trkpt>
      <trkpt lat="44.15466" lon="4.45764">
        <ele>114.8</ele>
        <time>2021-10-24T09:29:13Z</time>
      </trkpt>
      <trkpt lat="44.15474" lon="4.45768">
        <ele>114.6</ele>
        <time>2021-10-24T09:29:14Z</time>
      </trkpt>
      <trkpt lat="44.15483" lon="4.45771">
        <ele>114.6</ele>
        <time>2021-10-24T09:29:15Z</time>
      </trkpt>
      <trkpt lat="44.15491" lon="4.45775">
        <ele>114.6</ele>
        <time>2021-10-24T09:29:16Z</time>
      </trkpt>
      <trkpt lat="44.155" lon="4.45778">
        <ele>114.4</ele>
        <time>2021-10-24T09:29:17Z</time>
      </trkpt>
      <trkpt lat="44.15508" lon="4.45781">
        <ele>114</ele>
        <time>2021-10-24T09:29:18Z</time>
      </trkpt>
      <trkpt lat="44.15516" lon="4.45785">
        <ele>114</ele>
        <time>2021-10-24T09:29:19Z</time>
      </trkpt>
      <trkpt lat="44.15524" lon="4.45788">
        <ele>114.2</ele>
        <time>2021-10-24T09:29:20Z</time>
      </trkpt>
      <trkpt lat="44.15532" lon="4.45791">
        <ele>113.8</ele>
        <time>2021-10-24T09:29:21Z</time>
      </trkpt>
      <trkpt lat="44.1554" lon="4.45795">
        <ele>113.8</ele>
        <time>2021-10-24T09:29:22Z</time>
      </trkpt>
      <trkpt lat="44.15548" lon="4.45799">
        <ele>113.8</ele>
        <time>2021-10-24T09:29:23Z</time>
      </trkpt>
      <trkpt lat="44.15556" lon="4.45802">
        <ele>113.8</ele>
        <time>2021-10-24T09:29:24Z</time>
      </trkpt>
      <trkpt lat="44.15564" lon="4.45805">
        <ele>114</ele>
        <time>2021-10-24T09:29:25Z</time>
      </trkpt>
      <trkpt lat="44.15572" lon="4.45809">
        <ele>114</ele>
        <time>2021-10-24T09:29:26Z</time>
      </trkpt>
      <trkpt lat="44.1558" lon="4.45812">
        <ele>114</ele>
        <time>2021-10-24T09:29:27Z</time>
      </trkpt>
      <trkpt lat="44.15587" lon="4.45816">
        <ele>114.4</ele>
        <time>2021-10-24T09:29:28Z</time>
      </trkpt>
      <trkpt lat="44.15595" lon="4.45819">
        <ele>114.4</ele>
        <time>2021-10-24T09:29:29Z</time>
      </trkpt>
      <trkpt lat="44.15603" lon="4.45822">
        <ele>114.4</ele>
        <time>2021-10-24T09:29:30Z</time>
      </trkpt>
      <trkpt lat="44.1561" lon="4.45825">
        <ele>114</ele>
        <time>2021-10-24T09:29:31Z</time>
      </trkpt>
      <trkpt lat="44.15618" lon="4.45828">
        <ele>114.2</ele>
        <time>2021-10-24T09:29:32Z</time>
      </trkpt>
      <trkpt lat="44.15626" lon="4.45832">
        <ele>114.2</ele>
        <time>2021-10-24T09:29:33Z</time>
      </trkpt>
      <trkpt lat="44.15634" lon="4.45835">
        <ele>114.4</ele>
        <time>2021-10-24T09:29:34Z</time>
      </trkpt>
      <trkpt lat="44.15641" lon="4.45838">
        <ele>114.4</ele>
        <time>2021-10-24T09:29:35Z</time>
      </trkpt>
      <trkpt lat="44.15649" lon="4.45841">
        <ele>114.4</ele>
        <time>2021-10-24T09:29:36Z</time>
      </trkpt>
      <trkpt lat="44.15657" lon="4.45844">
        <ele>114.6</ele>
        <time>2021-10-24T09:29:37Z</time>
      </trkpt>
      <trkpt lat="44.15665" lon="4.45848">
        <ele>114.6</ele>
        <time>2021-10-24T09:29:38Z</time>
      </trkpt>
      <trkpt lat="44.15672" lon="4.45851">
        <ele>114.4</ele>
        <time>2021-10-24T09:29:39Z</time>
      </trkpt>
      <trkpt lat="44.1568" lon="4.45855">
        <ele>114.2</ele>
        <time>2021-10-24T09:29:40Z</time>
      </trkpt>
      <trkpt lat="44.15688" lon="4.45858">
        <ele>114</ele>
        <time>2021-10-24T09:29:41Z</time>
      </trkpt>
      <trkpt lat="44.15696" lon="4.45861">
        <ele>114</ele>
        <time>2021-10-24T09:29:42Z</time>
      </trkpt>
      <trkpt lat="44.15704" lon="4.45865">
        <ele>114.2</ele>
        <time>2021-10-24T09:29:43Z</time>
      </trkpt>
      <trkpt lat="44.15712" lon="4.45868">
        <ele>114.2</ele>
        <time>2021-10-24T09:29:44Z</time>
      </trkpt>
      <trkpt lat="44.1572" lon="4.45872">
        <ele>114.4</ele>
        <time>2021-10-24T09:29:45Z</time>
      </trkpt>
      <trkpt lat="44.15728" lon="4.45875">
        <ele>114.4</ele>
        <time>2021-10-24T09:29:46Z</time>
      </trkpt>
      <trkpt lat="44.15736" lon="4.45879">
        <ele>114</ele>
        <time>2021-10-24T09:29:47Z</time>
      </trkpt>
      <trkpt lat="44.15744" lon="4.45881">
        <ele>113.8</ele>
        <time>2021-10-24T09:29:48Z</time>
      </trkpt>
      <trkpt lat="44.15752" lon="4.45883">
        <ele>113.6</ele>
        <time>2021-10-24T09:29:49Z</time>
      </trkpt>
      <trkpt lat="44.15761" lon="4.45884">
        <ele>113.4</ele>
        <time>2021-10-24T09:29:50Z</time>
      </trkpt>
      <trkpt lat="44.1577" lon="4.45884">
        <ele>113.6</ele>
        <time>2021-10-24T09:29:51Z</time>
      </trkpt>
      <trkpt lat="44.15778" lon="4.45884">
        <ele>113.4</ele>
        <time>2021-10-24T09:29:52Z</time>
      </trkpt>
      <trkpt lat="44.15787" lon="4.45884">
        <ele>113.2</ele>
        <time>2021-10-24T09:29:53Z</time>
      </trkpt>
      <trkpt lat="44.15796" lon="4.45882">
        <ele>112.8</ele>
        <time>2021-10-24T09:29:54Z</time>
      </trkpt>
      <trkpt lat="44.15805" lon="4.45881">
        <ele>111.8</ele>
        <time>2021-10-24T09:29:55Z</time>
      </trkpt>
      <trkpt lat="44.15813" lon="4.45879">
        <ele>111.4</ele>
        <time>2021-10-24T09:29:56Z</time>
      </trkpt>
      <trkpt lat="44.15822" lon="4.45878">
        <ele>111</ele>
        <time>2021-10-24T09:29:57Z</time>
      </trkpt>
      <trkpt lat="44.1583" lon="4.45876">
        <ele>110.8</ele>
        <time>2021-10-24T09:29:58Z</time>
      </trkpt>
      <trkpt lat="44.15839" lon="4.45875">
        <ele>110.6</ele>
        <time>2021-10-24T09:29:59Z</time>
      </trkpt>
      <trkpt lat="44.15847" lon="4.45874">
        <ele>110.6</ele>
        <time>2021-10-24T09:30:00Z</time>
      </trkpt>
      <trkpt lat="44.15855" lon="4.45873">
        <ele>110.4</ele>
        <time>2021-10-24T09:30:01Z</time>
      </trkpt>
      <trkpt lat="44.15864" lon="4.45873">
        <ele>110.4</ele>
        <time>2021-10-24T09:30:02Z</time>
      </trkpt>
      <trkpt lat="44.15872" lon="4.45873">
        <ele>110.6</ele>
        <time>2021-10-24T09:30:03Z</time>
      </trkpt>
      <trkpt lat="44.1588" lon="4.45873">
        <ele>110.6</ele>
        <time>2021-10-24T09:30:04Z</time>
      </trkpt>
      <trkpt lat="44.15888" lon="4.45872">
        <ele>110.4</ele>
        <time>2021-10-24T09:30:05Z</time>
      </trkpt>
      <trkpt lat="44.15897" lon="4.45872">
        <ele>110.6</ele>
        <time>2021-10-24T09:30:06Z</time>
      </trkpt>
      <trkpt lat="44.15904" lon="4.45872">
        <ele>110.4</ele>
        <time>2021-10-24T09:30:07Z</time>
      </trkpt>
      <trkpt lat="44.15912" lon="4.45871">
        <ele>110.4</ele>
        <time>2021-10-24T09:30:08Z</time>
      </trkpt>
      <trkpt lat="44.15919" lon="4.45871">
        <ele>110.6</ele>
        <time>2021-10-24T09:30:09Z</time>
      </trkpt>
      <trkpt lat="44.15926" lon="4.4587">
        <ele>110.6</ele>
        <time>2021-10-24T09:30:10Z</time>
      </trkpt>
      <trkpt lat="44.15933" lon="4.45869">
        <ele>110.8</ele>
        <time>2021-10-24T09:30:11Z</time>
      </trkpt>
      <trkpt lat="44.1594" lon="4.45868">
        <ele>110.8</ele>
        <time>2021-10-24T09:30:12Z</time>
      </trkpt>
      <trkpt lat="44.15947" lon="4.45867">
        <ele>110.8</ele>
        <time>2021-10-24T09:30:13Z</time>
      </trkpt>
      <trkpt lat="44.15954" lon="4.45866">
        <ele>110.6</ele>
        <time>2021-10-24T09:30:14Z</time>
      </trkpt>
      <trkpt lat="44.1596" lon="4.45865">
        <ele>110.2</ele>
        <time>2021-10-24T09:30:15Z</time>
      </trkpt>
      <trkpt lat="44.15967" lon="4.45864">
        <ele>110</ele>
        <time>2021-10-24T09:30:16Z</time>
      </trkpt>
      <trkpt lat="44.15974" lon="4.45863">
        <ele>109.6</ele>
        <time>2021-10-24T09:30:17Z</time>
      </trkpt>
      <trkpt lat="44.1598" lon="4.45861">
        <ele>109.4</ele>
        <time>2021-10-24T09:30:18Z</time>
      </trkpt>
      <trkpt lat="44.15986" lon="4.4586">
        <ele>109.8</ele>
        <time>2021-10-24T09:30:19Z</time>
      </trkpt>
      <trkpt lat="44.15992" lon="4.45859">
        <ele>109.6</ele>
        <time>2021-10-24T09:30:20Z</time>
      </trkpt>
      <trkpt lat="44.15998" lon="4.45857">
        <ele>109.4</ele>
        <time>2021-10-24T09:30:21Z</time>
      </trkpt>
      <trkpt lat="44.16004" lon="4.45856">
        <ele>108.8</ele>
        <time>2021-10-24T09:30:22Z</time>
      </trkpt>
      <trkpt lat="44.1601" lon="4.45854">
        <ele>108.8</ele>
        <time>2021-10-24T09:30:23Z</time>
      </trkpt>
      <trkpt lat="44.16016" lon="4.45852">
        <ele>108.6</ele>
        <time>2021-10-24T09:30:24Z</time>
      </trkpt>
      <trkpt lat="44.16022" lon="4.45851">
        <ele>108.4</ele>
        <time>2021-10-24T09:30:25Z</time>
      </trkpt>
      <trkpt lat="44.16029" lon="4.45849">
        <ele>108.4</ele>
        <time>2021-10-24T09:30:26Z</time>
      </trkpt>
      <trkpt lat="44.16035" lon="4.45847">
        <ele>108.2</ele>
        <time>2021-10-24T09:30:27Z</time>
      </trkpt>
      <trkpt lat="44.16041" lon="4.45845">
        <ele>108</ele>
        <time>2021-10-24T09:30:28Z</time>
      </trkpt>
      <trkpt lat="44.16048" lon="4.45842">
        <ele>108.2</ele>
        <time>2021-10-24T09:30:29Z</time>
      </trkpt>
      <trkpt lat="44.16055" lon="4.45839">
        <ele>108.4</ele>
        <time>2021-10-24T09:30:30Z</time>
      </trkpt>
      <trkpt lat="44.16062" lon="4.45836">
        <ele>108.8</ele>
        <time>2021-10-24T09:30:31Z</time>
      </trkpt>
      <trkpt lat="44.16068" lon="4.45833">
        <ele>109</ele>
        <time>2021-10-24T09:30:32Z</time>
      </trkpt>
      <trkpt lat="44.16075" lon="4.4583">
        <ele>108.8</ele>
        <time>2021-10-24T09:30:33Z</time>
      </trkpt>
      <trkpt lat="44.16082" lon="4.45826">
        <ele>108.6</ele>
        <time>2021-10-24T09:30:34Z</time>
      </trkpt>
      <trkpt lat="44.16089" lon="4.45823">
        <ele>108.6</ele>
        <time>2021-10-24T09:30:35Z</time>
      </trkpt>
      <trkpt lat="44.16096" lon="4.45819">
        <ele>108.8</ele>
        <time>2021-10-24T09:30:36Z</time>
      </trkpt>
      <trkpt lat="44.16103" lon="4.45815">
        <ele>108.8</ele>
        <time>2021-10-24T09:30:37Z</time>
      </trkpt>
      <trkpt lat="44.16111" lon="4.45812">
        <ele>109</ele>
        <time>2021-10-24T09:30:38Z</time>
      </trkpt>
      <trkpt lat="44.16118" lon="4.45808">
        <ele>109</ele>
        <time>2021-10-24T09:30:39Z</time>
      </trkpt>
      <trkpt lat="44.16125" lon="4.45803">
        <ele>109</ele>
        <time>2021-10-24T09:30:40Z</time>
      </trkpt>
      <trkpt lat="44.16132" lon="4.45799">
        <ele>109</ele>
        <time>2021-10-24T09:30:41Z</time>
      </trkpt>
      <trkpt lat="44.16139" lon="4.45795">
        <ele>109</ele>
        <time>2021-10-24T09:30:42Z</time>
      </trkpt>
      <trkpt lat="44.16146" lon="4.4579">
        <ele>109.2</ele>
        <time>2021-10-24T09:30:43Z</time>
      </trkpt>
      <trkpt lat="44.16153" lon="4.45785">
        <ele>109.4</ele>
        <time>2021-10-24T09:30:44Z</time>
      </trkpt>
      <trkpt lat="44.1616" lon="4.45779">
        <ele>109.4</ele>
        <time>2021-10-24T09:30:45Z</time>
      </trkpt>
      <trkpt lat="44.16166" lon="4.45774">
        <ele>109.4</ele>
        <time>2021-10-24T09:30:46Z</time>
      </trkpt>
      <trkpt lat="44.16172" lon="4.45768">
        <ele>109.6</ele>
        <time>2021-10-24T09:30:47Z</time>
      </trkpt>
      <trkpt lat="44.16179" lon="4.45761">
        <ele>109.6</ele>
        <time>2021-10-24T09:30:48Z</time>
      </trkpt>
      <trkpt lat="44.16185" lon="4.45755">
        <ele>109.4</ele>
        <time>2021-10-24T09:30:49Z</time>
      </trkpt>
      <trkpt lat="44.16191" lon="4.45749">
        <ele>109.8</ele>
        <time>2021-10-24T09:30:50Z</time>
      </trkpt>
      <trkpt lat="44.16197" lon="4.45743">
        <ele>109.8</ele>
        <time>2021-10-24T09:30:51Z</time>
      </trkpt>
      <trkpt lat="44.16203" lon="4.45736">
        <ele>110</ele>
        <time>2021-10-24T09:30:52Z</time>
      </trkpt>
      <trkpt lat="44.16208" lon="4.4573">
        <ele>109.6</ele>
        <time>2021-10-24T09:30:53Z</time>
      </trkpt>
      <trkpt lat="44.16214" lon="4.45724">
        <ele>109.8</ele>
        <time>2021-10-24T09:30:54Z</time>
      </trkpt>
      <trkpt lat="44.1622" lon="4.45718">
        <ele>110</ele>
        <time>2021-10-24T09:30:55Z</time>
      </trkpt>
      <trkpt lat="44.16226" lon="4.45713">
        <ele>110</ele>
        <time>2021-10-24T09:30:56Z</time>
      </trkpt>
      <trkpt lat="44.16232" lon="4.45708">
        <ele>110</ele>
        <time>2021-10-24T09:30:57Z</time>
      </trkpt>
      <trkpt lat="44.16238" lon="4.45703">
        <ele>110.2</ele>
        <time>2021-10-24T09:30:58Z</time>
      </trkpt>
      <trkpt lat="44.16245" lon="4.45699">
        <ele>110.2</ele>
        <time>2021-10-24T09:30:59Z</time>
      </trkpt>
      <trkpt lat="44.16251" lon="4.45696">
        <ele>110.2</ele>
        <time>2021-10-24T09:31:00Z</time>
      </trkpt>
      <trkpt lat="44.16258" lon="4.45693">
        <ele>110.4</ele>
        <time>2021-10-24T09:31:01Z</time>
      </trkpt>
      <trkpt lat="44.16265" lon="4.45689">
        <ele>110.6</ele>
        <time>2021-10-24T09:31:02Z</time>
      </trkpt>
      <trkpt lat="44.16271" lon="4.45685">
        <ele>110.6</ele>
        <time>2021-10-24T09:31:03Z</time>
      </trkpt>
      <trkpt lat="44.16278" lon="4.45681">
        <ele>110.6</ele>
        <time>2021-10-24T09:31:04Z</time>
      </trkpt>
      <trkpt lat="44.16284" lon="4.45676">
        <ele>110.6</ele>
        <time>2021-10-24T09:31:05Z</time>
      </trkpt>
      <trkpt lat="44.1629" lon="4.45672">
        <ele>110.8</ele>
        <time>2021-10-24T09:31:06Z</time>
      </trkpt>
      <trkpt lat="44.16297" lon="4.45667">
        <ele>110.8</ele>
        <time>2021-10-24T09:31:07Z</time>
      </trkpt>
      <trkpt lat="44.16303" lon="4.45661">
        <ele>110.8</ele>
        <time>2021-10-24T09:31:08Z</time>
      </trkpt>
      <trkpt lat="44.16309" lon="4.45656">
        <ele>110.8</ele>
        <time>2021-10-24T09:31:09Z</time>
      </trkpt>
      <trkpt lat="44.16316" lon="4.4565">
        <ele>110.8</ele>
        <time>2021-10-24T09:31:10Z</time>
      </trkpt>
      <trkpt lat="44.16322" lon="4.45644">
        <ele>111.2</ele>
        <time>2021-10-24T09:31:11Z</time>
      </trkpt>
      <trkpt lat="44.16328" lon="4.45638">
        <ele>111.4</ele>
        <time>2021-10-24T09:31:12Z</time>
      </trkpt>
      <trkpt lat="44.16334" lon="4.45632">
        <ele>111.4</ele>
        <time>2021-10-24T09:31:13Z</time>
      </trkpt>
      <trkpt lat="44.1634" lon="4.45626">
        <ele>111.4</ele>
        <time>2021-10-24T09:31:14Z</time>
      </trkpt>
      <trkpt lat="44.16346" lon="4.4562">
        <ele>111.4</ele>
        <time>2021-10-24T09:31:15Z</time>
      </trkpt>
      <trkpt lat="44.16352" lon="4.45613">
        <ele>111.6</ele>
        <time>2021-10-24T09:31:16Z</time>
      </trkpt>
      <trkpt lat="44.16357" lon="4.45607">
        <ele>111.6</ele>
        <time>2021-10-24T09:31:17Z</time>
      </trkpt>
      <trkpt lat="44.16363" lon="4.456">
        <ele>111.6</ele>
        <time>2021-10-24T09:31:18Z</time>
      </trkpt>
      <trkpt lat="44.16368" lon="4.45592">
        <ele>111.8</ele>
        <time>2021-10-24T09:31:19Z</time>
      </trkpt>
      <trkpt lat="44.16373" lon="4.45585">
        <ele>111.8</ele>
        <time>2021-10-24T09:31:20Z</time>
      </trkpt>
      <trkpt lat="44.16379" lon="4.45577">
        <ele>111.8</ele>
        <time>2021-10-24T09:31:21Z</time>
      </trkpt>
      <trkpt lat="44.16384" lon="4.4557">
        <ele>111.8</ele>
        <time>2021-10-24T09:31:22Z</time>
      </trkpt>
      <trkpt lat="44.16388" lon="4.45562">
        <ele>111.6</ele>
        <time>2021-10-24T09:31:23Z</time>
      </trkpt>
      <trkpt lat="44.16393" lon="4.45554">
        <ele>111.6</ele>
        <time>2021-10-24T09:31:24Z</time>
      </trkpt>
      <trkpt lat="44.16398" lon="4.45546">
        <ele>111.6</ele>
        <time>2021-10-24T09:31:25Z</time>
      </trkpt>
      <trkpt lat="44.16404" lon="4.45538">
        <ele>111.6</ele>
        <time>2021-10-24T09:31:26Z</time>
      </trkpt>
      <trkpt lat="44.1641" lon="4.4553">
        <ele>111.4</ele>
        <time>2021-10-24T09:31:27Z</time>
      </trkpt>
      <trkpt lat="44.16416" lon="4.45523">
        <ele>111.4</ele>
        <time>2021-10-24T09:31:28Z</time>
      </trkpt>
      <trkpt lat="44.16423" lon="4.45516">
        <ele>111.4</ele>
        <time>2021-10-24T09:31:29Z</time>
      </trkpt>
      <trkpt lat="44.1643" lon="4.45509">
        <ele>111.6</ele>
        <time>2021-10-24T09:31:30Z</time>
      </trkpt>
      <trkpt lat="44.16437" lon="4.45503">
        <ele>111.6</ele>
        <time>2021-10-24T09:31:31Z</time>
      </trkpt>
      <trkpt lat="44.16444" lon="4.45498">
        <ele>111.6</ele>
        <time>2021-10-24T09:31:32Z</time>
      </trkpt>
      <trkpt lat="44.16452" lon="4.45492">
        <ele>111.2</ele>
        <time>2021-10-24T09:31:33Z</time>
      </trkpt>
      <trkpt lat="44.1646" lon="4.45487">
        <ele>111.2</ele>
        <time>2021-10-24T09:31:34Z</time>
      </trkpt>
      <trkpt lat="44.16468" lon="4.45481">
        <ele>110.8</ele>
        <time>2021-10-24T09:31:35Z</time>
      </trkpt>
      <trkpt lat="44.16476" lon="4.45475">
        <ele>110.8</ele>
        <time>2021-10-24T09:31:36Z</time>
      </trkpt>
      <trkpt lat="44.16484" lon="4.4547">
        <ele>110.8</ele>
        <time>2021-10-24T09:31:37Z</time>
      </trkpt>
      <trkpt lat="44.16492" lon="4.45464">
        <ele>110.6</ele>
        <time>2021-10-24T09:31:38Z</time>
      </trkpt>
      <trkpt lat="44.165" lon="4.45459">
        <ele>110.4</ele>
        <time>2021-10-24T09:31:39Z</time>
      </trkpt>
      <trkpt lat="44.16508" lon="4.45453">
        <ele>110.2</ele>
        <time>2021-10-24T09:31:40Z</time>
      </trkpt>
      <trkpt lat="44.16516" lon="4.45448">
        <ele>110.4</ele>
        <time>2021-10-24T09:31:41Z</time>
      </trkpt>
      <trkpt lat="44.16525" lon="4.45444">
        <ele>110.4</ele>
        <time>2021-10-24T09:31:42Z</time>
      </trkpt>
      <trkpt lat="44.16533" lon="4.45439">
        <ele>110.2</ele>
        <time>2021-10-24T09:31:43Z</time>
      </trkpt>
      <trkpt lat="44.16542" lon="4.45436">
        <ele>110</ele>
        <time>2021-10-24T09:31:44Z</time>
      </trkpt>
      <trkpt lat="44.16551" lon="4.45432">
        <ele>109.6</ele>
        <time>2021-10-24T09:31:45Z</time>
      </trkpt>
      <trkpt lat="44.16559" lon="4.45429">
        <ele>109.4</ele>
        <time>2021-10-24T09:31:46Z</time>
      </trkpt>
      <trkpt lat="44.16568" lon="4.45425">
        <ele>109.2</ele>
        <time>2021-10-24T09:31:47Z</time>
      </trkpt>
      <trkpt lat="44.16576" lon="4.45422">
        <ele>109.2</ele>
        <time>2021-10-24T09:31:48Z</time>
      </trkpt>
      <trkpt lat="44.16585" lon="4.45419">
        <ele>109.2</ele>
        <time>2021-10-24T09:31:49Z</time>
      </trkpt>
      <trkpt lat="44.16593" lon="4.45417">
        <ele>109.2</ele>
        <time>2021-10-24T09:31:50Z</time>
      </trkpt>
      <trkpt lat="44.16602" lon="4.45414">
        <ele>109</ele>
        <time>2021-10-24T09:31:51Z</time>
      </trkpt>
      <trkpt lat="44.16611" lon="4.45411">
        <ele>109.2</ele>
        <time>2021-10-24T09:31:52Z</time>
      </trkpt>
      <trkpt lat="44.16619" lon="4.45408">
        <ele>109.4</ele>
        <time>2021-10-24T09:31:53Z</time>
      </trkpt>
      <trkpt lat="44.16628" lon="4.45405">
        <ele>109</ele>
        <time>2021-10-24T09:31:54Z</time>
      </trkpt>
      <trkpt lat="44.16636" lon="4.45403">
        <ele>108.8</ele>
        <time>2021-10-24T09:31:55Z</time>
      </trkpt>
      <trkpt lat="44.16644" lon="4.45399">
        <ele>108.6</ele>
        <time>2021-10-24T09:31:56Z</time>
      </trkpt>
      <trkpt lat="44.16652" lon="4.45396">
        <ele>108.6</ele>
        <time>2021-10-24T09:31:57Z</time>
      </trkpt>
      <trkpt lat="44.1666" lon="4.45392">
        <ele>108.6</ele>
        <time>2021-10-24T09:31:58Z</time>
      </trkpt>
      <trkpt lat="44.16667" lon="4.45388">
        <ele>108.6</ele>
        <time>2021-10-24T09:31:59Z</time>
      </trkpt>
      <trkpt lat="44.16674" lon="4.45383">
        <ele>108.6</ele>
        <time>2021-10-24T09:32:00Z</time>
      </trkpt>
      <trkpt lat="44.16681" lon="4.45379">
        <ele>108.6</ele>
        <time>2021-10-24T09:32:01Z</time>
      </trkpt>
      <trkpt lat="44.16687" lon="4.45373">
        <ele>108.4</ele>
        <time>2021-10-24T09:32:02Z</time>
      </trkpt>
      <trkpt lat="44.16693" lon="4.45368">
        <ele>108.4</ele>
        <time>2021-10-24T09:32:03Z</time>
      </trkpt>
      <trkpt lat="44.16699" lon="4.45362">
        <ele>108</ele>
        <time>2021-10-24T09:32:04Z</time>
      </trkpt>
      <trkpt lat="44.16705" lon="4.45356">
        <ele>107.8</ele>
        <time>2021-10-24T09:32:05Z</time>
      </trkpt>
      <trkpt lat="44.1671" lon="4.45349">
        <ele>108</ele>
        <time>2021-10-24T09:32:06Z</time>
      </trkpt>
      <trkpt lat="44.16715" lon="4.45341">
        <ele>108</ele>
        <time>2021-10-24T09:32:07Z</time>
      </trkpt>
      <trkpt lat="44.1672" lon="4.45334">
        <ele>107.8</ele>
        <time>2021-10-24T09:32:08Z</time>
      </trkpt>
      <trkpt lat="44.16725" lon="4.45326">
        <ele>107.8</ele>
        <time>2021-10-24T09:32:09Z</time>
      </trkpt>
      <trkpt lat="44.1673" lon="4.45319">
        <ele>107.8</ele>
        <time>2021-10-24T09:32:10Z</time>
      </trkpt>
      <trkpt lat="44.16735" lon="4.45311">
        <ele>107.8</ele>
        <time>2021-10-24T09:32:11Z</time>
      </trkpt>
      <trkpt lat="44.16741" lon="4.45303">
        <ele>107.6</ele>
        <time>2021-10-24T09:32:12Z</time>
      </trkpt>
      <trkpt lat="44.16746" lon="4.45295">
        <ele>107.4</ele>
        <time>2021-10-24T09:32:13Z</time>
      </trkpt>
      <trkpt lat="44.1675" lon="4.45287">
        <ele>107.4</ele>
        <time>2021-10-24T09:32:14Z</time>
      </trkpt>
      <trkpt lat="44.16755" lon="4.45279">
        <ele>107.6</ele>
        <time>2021-10-24T09:32:15Z</time>
      </trkpt>
      <trkpt lat="44.16759" lon="4.45272">
        <ele>107.8</ele>
        <time>2021-10-24T09:32:16Z</time>
      </trkpt>
      <trkpt lat="44.16764" lon="4.45266">
        <ele>107.6</ele>
        <time>2021-10-24T09:32:17Z</time>
      </trkpt>
      <trkpt lat="44.1677" lon="4.45262">
        <ele>107.8</ele>
        <time>2021-10-24T09:32:18Z</time>
      </trkpt>
      <trkpt lat="44.16776" lon="4.45259">
        <ele>107.6</ele>
        <time>2021-10-24T09:32:19Z</time>
      </trkpt>
      <trkpt lat="44.16783" lon="4.45256">
        <ele>107.4</ele>
        <time>2021-10-24T09:32:20Z</time>
      </trkpt>
      <trkpt lat="44.16789" lon="4.45253">
        <ele>107.4</ele>
        <time>2021-10-24T09:32:21Z</time>
      </trkpt>
      <trkpt lat="44.16796" lon="4.4525">
        <ele>107.2</ele>
        <time>2021-10-24T09:32:22Z</time>
      </trkpt>
      <trkpt lat="44.16802" lon="4.45246">
        <ele>107.2</ele>
        <time>2021-10-24T09:32:23Z</time>
      </trkpt>
      <trkpt lat="44.16808" lon="4.45242">
        <ele>107.2</ele>
        <time>2021-10-24T09:32:24Z</time>
      </trkpt>
      <trkpt lat="44.16814" lon="4.45237">
        <ele>107</ele>
        <time>2021-10-24T09:32:25Z</time>
      </trkpt>
      <trkpt lat="44.1682" lon="4.45232">
        <ele>107.4</ele>
        <time>2021-10-24T09:32:26Z</time>
      </trkpt>
      <trkpt lat="44.16825" lon="4.45227">
        <ele>107.4</ele>
        <time>2021-10-24T09:32:27Z</time>
      </trkpt>
      <trkpt lat="44.1683" lon="4.45221">
        <ele>107.6</ele>
        <time>2021-10-24T09:32:28Z</time>
      </trkpt>
      <trkpt lat="44.16835" lon="4.45215">
        <ele>107.6</ele>
        <time>2021-10-24T09:32:29Z</time>
      </trkpt>
      <trkpt lat="44.16839" lon="4.45209">
        <ele>107.8</ele>
        <time>2021-10-24T09:32:30Z</time>
      </trkpt>
      <trkpt lat="44.16843" lon="4.45203">
        <ele>107.8</ele>
        <time>2021-10-24T09:32:31Z</time>
      </trkpt>
      <trkpt lat="44.16847" lon="4.45198">
        <ele>108</ele>
        <time>2021-10-24T09:32:32Z</time>
      </trkpt>
      <trkpt lat="44.1685" lon="4.45192">
        <ele>108.6</ele>
        <time>2021-10-24T09:32:33Z</time>
      </trkpt>
      <trkpt lat="44.16853" lon="4.45187">
        <ele>108.6</ele>
        <time>2021-10-24T09:32:34Z</time>
      </trkpt>
      <trkpt lat="44.16855" lon="4.45181">
        <ele>108.8</ele>
        <time>2021-10-24T09:32:35Z</time>
      </trkpt>
      <trkpt lat="44.16858" lon="4.45176">
        <ele>109.2</ele>
        <time>2021-10-24T09:32:36Z</time>
      </trkpt>
      <trkpt lat="44.1686" lon="4.4517">
        <ele>109.4</ele>
        <time>2021-10-24T09:32:37Z</time>
      </trkpt>
      <trkpt lat="44.16862" lon="4.45164">
        <ele>109.4</ele>
        <time>2021-10-24T09:32:38Z</time>
      </trkpt>
      <trkpt lat="44.16865" lon="4.45158">
        <ele>109.6</ele>
        <time>2021-10-24T09:32:39Z</time>
      </trkpt>
      <trkpt lat="44.16867" lon="4.45153">
        <ele>110</ele>
        <time>2021-10-24T09:32:40Z</time>
      </trkpt>
      <trkpt lat="44.1687" lon="4.45147">
        <ele>110.2</ele>
        <time>2021-10-24T09:32:41Z</time>
      </trkpt>
      <trkpt lat="44.16872" lon="4.4514">
        <ele>110.6</ele>
        <time>2021-10-24T09:32:42Z</time>
      </trkpt>
      <trkpt lat="44.16875" lon="4.45134">
        <ele>111.2</ele>
        <time>2021-10-24T09:32:43Z</time>
      </trkpt>
      <trkpt lat="44.16878" lon="4.45128">
        <ele>111.2</ele>
        <time>2021-10-24T09:32:44Z</time>
      </trkpt>
      <trkpt lat="44.16881" lon="4.45121">
        <ele>111.8</ele>
        <time>2021-10-24T09:32:45Z</time>
      </trkpt>
      <trkpt lat="44.16885" lon="4.45115">
        <ele>112</ele>
        <time>2021-10-24T09:32:46Z</time>
      </trkpt>
      <trkpt lat="44.16888" lon="4.45108">
        <ele>112.2</ele>
        <time>2021-10-24T09:32:47Z</time>
      </trkpt>
      <trkpt lat="44.16892" lon="4.451">
        <ele>112.4</ele>
        <time>2021-10-24T09:32:48Z</time>
      </trkpt>
      <trkpt lat="44.16896" lon="4.45093">
        <ele>112.4</ele>
        <time>2021-10-24T09:32:49Z</time>
      </trkpt>
      <trkpt lat="44.169" lon="4.45085">
        <ele>112.4</ele>
        <time>2021-10-24T09:32:50Z</time>
      </trkpt>
      <trkpt lat="44.16904" lon="4.45077">
        <ele>112.4</ele>
        <time>2021-10-24T09:32:51Z</time>
      </trkpt>
      <trkpt lat="44.16909" lon="4.45069">
        <ele>112.4</ele>
        <time>2021-10-24T09:32:52Z</time>
      </trkpt>
      <trkpt lat="44.16913" lon="4.45061">
        <ele>112.6</ele>
        <time>2021-10-24T09:32:53Z</time>
      </trkpt>
      <trkpt lat="44.16918" lon="4.45053">
        <ele>112.6</ele>
        <time>2021-10-24T09:32:54Z</time>
      </trkpt>
      <trkpt lat="44.16922" lon="4.45044">
        <ele>112.6</ele>
        <time>2021-10-24T09:32:55Z</time>
      </trkpt>
      <trkpt lat="44.16926" lon="4.45035">
        <ele>112.6</ele>
        <time>2021-10-24T09:32:56Z</time>
      </trkpt>
      <trkpt lat="44.16928" lon="4.45026">
        <ele>112.4</ele>
        <time>2021-10-24T09:32:57Z</time>
      </trkpt>
      <trkpt lat="44.16931" lon="4.45018">
        <ele>112.4</ele>
        <time>2021-10-24T09:32:58Z</time>
      </trkpt>
      <trkpt lat="44.16935" lon="4.45012">
        <ele>112.4</ele>
        <time>2021-10-24T09:32:59Z</time>
      </trkpt>
      <trkpt lat="44.1694" lon="4.45007">
        <ele>112.2</ele>
        <time>2021-10-24T09:33:00Z</time>
      </trkpt>
      <trkpt lat="44.16945" lon="4.45003">
        <ele>112</ele>
        <time>2021-10-24T09:33:01Z</time>
      </trkpt>
      <trkpt lat="44.16951" lon="4.44999">
        <ele>111.8</ele>
        <time>2021-10-24T09:33:02Z</time>
      </trkpt>
      <trkpt lat="44.16958" lon="4.44997">
        <ele>112</ele>
        <time>2021-10-24T09:33:03Z</time>
      </trkpt>
      <trkpt lat="44.16964" lon="4.44994">
        <ele>111.8</ele>
        <time>2021-10-24T09:33:04Z</time>
      </trkpt>
      <trkpt lat="44.1697" lon="4.44991">
        <ele>111.6</ele>
        <time>2021-10-24T09:33:05Z</time>
      </trkpt>
      <trkpt lat="44.16977" lon="4.44988">
        <ele>111.6</ele>
        <time>2021-10-24T09:33:06Z</time>
      </trkpt>
      <trkpt lat="44.16982" lon="4.44983">
        <ele>111.6</ele>
        <time>2021-10-24T09:33:07Z</time>
      </trkpt>
      <trkpt lat="44.16988" lon="4.44979">
        <ele>111.2</ele>
        <time>2021-10-24T09:33:08Z</time>
      </trkpt>
      <trkpt lat="44.16994" lon="4.44974">
        <ele>111.2</ele>
        <time>2021-10-24T09:33:09Z</time>
      </trkpt>
      <trkpt lat="44.16999" lon="4.44969">
        <ele>111</ele>
        <time>2021-10-24T09:33:10Z</time>
      </trkpt>
      <trkpt lat="44.17005" lon="4.44964">
        <ele>111</ele>
        <time>2021-10-24T09:33:11Z</time>
      </trkpt>
      <trkpt lat="44.1701" lon="4.44959">
        <ele>110.8</ele>
        <time>2021-10-24T09:33:12Z</time>
      </trkpt>
      <trkpt lat="44.17015" lon="4.44953">
        <ele>110.8</ele>
        <time>2021-10-24T09:33:13Z</time>
      </trkpt>
      <trkpt lat="44.17019" lon="4.44946">
        <ele>110.8</ele>
        <time>2021-10-24T09:33:14Z</time>
      </trkpt>
      <trkpt lat="44.17024" lon="4.44939">
        <ele>110.4</ele>
        <time>2021-10-24T09:33:15Z</time>
      </trkpt>
      <trkpt lat="44.17028" lon="4.44932">
        <ele>110.2</ele>
        <time>2021-10-24T09:33:16Z</time>
      </trkpt>
      <trkpt lat="44.17032" lon="4.44925">
        <ele>110</ele>
        <time>2021-10-24T09:33:17Z</time>
      </trkpt>
      <trkpt lat="44.17036" lon="4.44918">
        <ele>110</ele>
        <time>2021-10-24T09:33:18Z</time>
      </trkpt>
      <trkpt lat="44.1704" lon="4.44911">
        <ele>109.8</ele>
        <time>2021-10-24T09:33:19Z</time>
      </trkpt>
      <trkpt lat="44.17044" lon="4.44905">
        <ele>110</ele>
        <time>2021-10-24T09:33:20Z</time>
      </trkpt>
      <trkpt lat="44.17048" lon="4.44898">
        <ele>110.4</ele>
        <time>2021-10-24T09:33:21Z</time>
      </trkpt>
      <trkpt lat="44.17052" lon="4.44892">
        <ele>110.6</ele>
        <time>2021-10-24T09:33:22Z</time>
      </trkpt>
      <trkpt lat="44.17056" lon="4.44885">
        <ele>110.8</ele>
        <time>2021-10-24T09:33:23Z</time>
      </trkpt>
      <trkpt lat="44.17059" lon="4.44878">
        <ele>111</ele>
        <time>2021-10-24T09:33:24Z</time>
      </trkpt>
      <trkpt lat="44.17063" lon="4.44871">
        <ele>111</ele>
        <time>2021-10-24T09:33:25Z</time>
      </trkpt>
      <trkpt lat="44.17066" lon="4.44863">
        <ele>111</ele>
        <time>2021-10-24T09:33:26Z</time>
      </trkpt>
      <trkpt lat="44.1707" lon="4.44856">
        <ele>111.2</ele>
        <time>2021-10-24T09:33:27Z</time>
      </trkpt>
      <trkpt lat="44.17073" lon="4.44848">
        <ele>111.2</ele>
        <time>2021-10-24T09:33:28Z</time>
      </trkpt>
      <trkpt lat="44.17076" lon="4.4484">
        <ele>111.2</ele>
        <time>2021-10-24T09:33:29Z</time>
      </trkpt>
      <trkpt lat="44.1708" lon="4.44832">
        <ele>111.2</ele>
        <time>2021-10-24T09:33:30Z</time>
      </trkpt>
      <trkpt lat="44.17082" lon="4.44824">
        <ele>111.2</ele>
        <time>2021-10-24T09:33:31Z</time>
      </trkpt>
      <trkpt lat="44.17085" lon="4.44815">
        <ele>111.2</ele>
        <time>2021-10-24T09:33:32Z</time>
      </trkpt>
      <trkpt lat="44.17088" lon="4.44807">
        <ele>111.2</ele>
        <time>2021-10-24T09:33:33Z</time>
      </trkpt>
      <trkpt lat="44.17091" lon="4.44799">
        <ele>111.6</ele>
        <time>2021-10-24T09:33:34Z</time>
      </trkpt>
      <trkpt lat="44.17094" lon="4.44791">
        <ele>111.4</ele>
        <time>2021-10-24T09:33:35Z</time>
      </trkpt>
      <trkpt lat="44.17097" lon="4.44783">
        <ele>111.8</ele>
        <time>2021-10-24T09:33:36Z</time>
      </trkpt>
      <trkpt lat="44.17101" lon="4.44776">
        <ele>111.8</ele>
        <time>2021-10-24T09:33:37Z</time>
      </trkpt>
      <trkpt lat="44.17104" lon="4.44768">
        <ele>111.8</ele>
        <time>2021-10-24T09:33:38Z</time>
      </trkpt>
      <trkpt lat="44.17108" lon="4.44761">
        <ele>111.8</ele>
        <time>2021-10-24T09:33:39Z</time>
      </trkpt>
      <trkpt lat="44.17112" lon="4.44754">
        <ele>112</ele>
        <time>2021-10-24T09:33:40Z</time>
      </trkpt>
      <trkpt lat="44.17117" lon="4.44747">
        <ele>112.2</ele>
        <time>2021-10-24T09:33:41Z</time>
      </trkpt>
      <trkpt lat="44.17121" lon="4.4474">
        <ele>112.4</ele>
        <time>2021-10-24T09:33:42Z</time>
      </trkpt>
      <trkpt lat="44.17124" lon="4.44732">
        <ele>112.4</ele>
        <time>2021-10-24T09:33:43Z</time>
      </trkpt>
      <trkpt lat="44.17128" lon="4.44725">
        <ele>112.4</ele>
        <time>2021-10-24T09:33:44Z</time>
      </trkpt>
      <trkpt lat="44.17132" lon="4.44718">
        <ele>112.4</ele>
        <time>2021-10-24T09:33:45Z</time>
      </trkpt>
      <trkpt lat="44.17136" lon="4.4471">
        <ele>112.6</ele>
        <time>2021-10-24T09:33:46Z</time>
      </trkpt>
      <trkpt lat="44.17139" lon="4.44703">
        <ele>112.8</ele>
        <time>2021-10-24T09:33:47Z</time>
      </trkpt>
      <trkpt lat="44.17142" lon="4.44695">
        <ele>112.8</ele>
        <time>2021-10-24T09:33:48Z</time>
      </trkpt>
      <trkpt lat="44.17145" lon="4.44688">
        <ele>113</ele>
        <time>2021-10-24T09:33:49Z</time>
      </trkpt>
      <trkpt lat="44.17148" lon="4.44681">
        <ele>113.4</ele>
        <time>2021-10-24T09:33:50Z</time>
      </trkpt>
      <trkpt lat="44.17152" lon="4.44675">
        <ele>113.6</ele>
        <time>2021-10-24T09:33:51Z</time>
      </trkpt>
      <trkpt lat="44.17155" lon="4.44668">
        <ele>113.6</ele>
        <time>2021-10-24T09:33:52Z</time>
      </trkpt>
      <trkpt lat="44.17158" lon="4.44661">
        <ele>113.8</ele>
        <time>2021-10-24T09:33:53Z</time>
      </trkpt>
      <trkpt lat="44.17161" lon="4.44655">
        <ele>114</ele>
        <time>2021-10-24T09:33:54Z</time>
      </trkpt>
      <trkpt lat="44.17165" lon="4.44648">
        <ele>114.4</ele>
        <time>2021-10-24T09:33:55Z</time>
      </trkpt>
      <trkpt lat="44.17168" lon="4.44642">
        <ele>114.4</ele>
        <time>2021-10-24T09:33:56Z</time>
      </trkpt>
      <trkpt lat="44.17172" lon="4.44636">
        <ele>114.6</ele>
        <time>2021-10-24T09:33:57Z</time>
      </trkpt>
      <trkpt lat="44.17175" lon="4.4463">
        <ele>115</ele>
        <time>2021-10-24T09:33:58Z</time>
      </trkpt>
      <trkpt lat="44.17178" lon="4.44625">
        <ele>115.2</ele>
        <time>2021-10-24T09:33:59Z</time>
      </trkpt>
      <trkpt lat="44.17181" lon="4.4462">
        <ele>115.4</ele>
        <time>2021-10-24T09:34:00Z</time>
      </trkpt>
      <trkpt lat="44.17183" lon="4.44616">
        <ele>115.6</ele>
        <time>2021-10-24T09:34:01Z</time>
      </trkpt>
      <trkpt lat="44.17185" lon="4.44613">
        <ele>115.6</ele>
        <time>2021-10-24T09:34:02Z</time>
      </trkpt>
      <trkpt lat="44.17188" lon="4.44613">
        <ele>115.8</ele>
        <time>2021-10-24T09:34:03Z</time>
      </trkpt>
      <trkpt lat="44.17191" lon="4.44614">
        <ele>115.6</ele>
        <time>2021-10-24T09:34:04Z</time>
      </trkpt>
      <trkpt lat="44.17195" lon="4.44616">
        <ele>115.4</ele>
        <time>2021-10-24T09:34:05Z</time>
      </trkpt>
      <trkpt lat="44.172" lon="4.44619">
        <ele>115.2</ele>
        <time>2021-10-24T09:34:06Z</time>
      </trkpt>
      <trkpt lat="44.17204" lon="4.44623">
        <ele>115</ele>
        <time>2021-10-24T09:34:07Z</time>
      </trkpt>
      <trkpt lat="44.17209" lon="4.44627">
        <ele>115</ele>
        <time>2021-10-24T09:34:08Z</time>
      </trkpt>
      <trkpt lat="44.17215" lon="4.44632">
        <ele>115</ele>
        <time>2021-10-24T09:34:09Z</time>
      </trkpt>
      <trkpt lat="44.1722" lon="4.44637">
        <ele>114.8</ele>
        <time>2021-10-24T09:34:10Z</time>
      </trkpt>
      <trkpt lat="44.17226" lon="4.44642">
        <ele>114.6</ele>
        <time>2021-10-24T09:34:11Z</time>
      </trkpt>
      <trkpt lat="44.17232" lon="4.44647">
        <ele>114.4</ele>
        <time>2021-10-24T09:34:12Z</time>
      </trkpt>
      <trkpt lat="44.17238" lon="4.44652">
        <ele>114.4</ele>
        <time>2021-10-24T09:34:13Z</time>
      </trkpt>
      <trkpt lat="44.17244" lon="4.44658">
        <ele>114.2</ele>
        <time>2021-10-24T09:34:14Z</time>
      </trkpt>
      <trkpt lat="44.1725" lon="4.44665">
        <ele>113.6</ele>
        <time>2021-10-24T09:34:15Z</time>
      </trkpt>
      <trkpt lat="44.17257" lon="4.44673">
        <ele>113.8</ele>
        <time>2021-10-24T09:34:16Z</time>
      </trkpt>
      <trkpt lat="44.17263" lon="4.44681">
        <ele>113.4</ele>
        <time>2021-10-24T09:34:17Z</time>
      </trkpt>
      <trkpt lat="44.17269" lon="4.44691">
        <ele>113</ele>
        <time>2021-10-24T09:34:18Z</time>
      </trkpt>
      <trkpt lat="44.17276" lon="4.447">
        <ele>112.4</ele>
        <time>2021-10-24T09:34:19Z</time>
      </trkpt>
      <trkpt lat="44.17282" lon="4.4471">
        <ele>112.2</ele>
        <time>2021-10-24T09:34:20Z</time>
      </trkpt>
      <trkpt lat="44.17288" lon="4.4472">
        <ele>111.8</ele>
        <time>2021-10-24T09:34:21Z</time>
      </trkpt>
      <trkpt lat="44.17294" lon="4.4473">
        <ele>111.2</ele>
        <time>2021-10-24T09:34:22Z</time>
      </trkpt>
      <trkpt lat="44.173" lon="4.4474">
        <ele>111</ele>
        <time>2021-10-24T09:34:23Z</time>
      </trkpt>
      <trkpt lat="44.17307" lon="4.44749">
        <ele>110.6</ele>
        <time>2021-10-24T09:34:24Z</time>
      </trkpt>
      <trkpt lat="44.17313" lon="4.44759">
        <ele>110.2</ele>
        <time>2021-10-24T09:34:25Z</time>
      </trkpt>
      <trkpt lat="44.17319" lon="4.44769">
        <ele>109.8</ele>
        <time>2021-10-24T09:34:26Z</time>
      </trkpt>
      <trkpt lat="44.17325" lon="4.44779">
        <ele>109.6</ele>
        <time>2021-10-24T09:34:27Z</time>
      </trkpt>
      <trkpt lat="44.17331" lon="4.44788">
        <ele>109.2</ele>
        <time>2021-10-24T09:34:28Z</time>
      </trkpt>
      <trkpt lat="44.17338" lon="4.44797">
        <ele>109</ele>
        <time>2021-10-24T09:34:29Z</time>
      </trkpt>
      <trkpt lat="44.17345" lon="4.44805">
        <ele>108.2</ele>
        <time>2021-10-24T09:34:30Z</time>
      </trkpt>
      <trkpt lat="44.17352" lon="4.44812">
        <ele>108</ele>
        <time>2021-10-24T09:34:31Z</time>
      </trkpt>
      <trkpt lat="44.1736" lon="4.44818">
        <ele>107.4</ele>
        <time>2021-10-24T09:34:32Z</time>
      </trkpt>
      <trkpt lat="44.17369" lon="4.44824">
        <ele>107.2</ele>
        <time>2021-10-24T09:34:33Z</time>
      </trkpt>
      <trkpt lat="44.17377" lon="4.4483">
        <ele>106.8</ele>
        <time>2021-10-24T09:34:34Z</time>
      </trkpt>
      <trkpt lat="44.17386" lon="4.44836">
        <ele>106.6</ele>
        <time>2021-10-24T09:34:35Z</time>
      </trkpt>
      <trkpt lat="44.17394" lon="4.44842">
        <ele>106.4</ele>
        <time>2021-10-24T09:34:36Z</time>
      </trkpt>
      <trkpt lat="44.17403" lon="4.44849">
        <ele>106.2</ele>
        <time>2021-10-24T09:34:37Z</time>
      </trkpt>
      <trkpt lat="44.17412" lon="4.44855">
        <ele>105.6</ele>
        <time>2021-10-24T09:34:38Z</time>
      </trkpt>
      <trkpt lat="44.17421" lon="4.44861">
        <ele>105.4</ele>
        <time>2021-10-24T09:34:39Z</time>
      </trkpt>
      <trkpt lat="44.1743" lon="4.44866">
        <ele>104.8</ele>
        <time>2021-10-24T09:34:40Z</time>
      </trkpt>
      <trkpt lat="44.17439" lon="4.44871">
        <ele>104.2</ele>
        <time>2021-10-24T09:34:41Z</time>
      </trkpt>
      <trkpt lat="44.17449" lon="4.44875">
        <ele>104.2</ele>
        <time>2021-10-24T09:34:42Z</time>
      </trkpt>
      <trkpt lat="44.17458" lon="4.44879">
        <ele>103.6</ele>
        <time>2021-10-24T09:34:43Z</time>
      </trkpt>
      <trkpt lat="44.17468" lon="4.44882">
        <ele>103</ele>
        <time>2021-10-24T09:34:44Z</time>
      </trkpt>
      <trkpt lat="44.17478" lon="4.44885">
        <ele>102.4</ele>
        <time>2021-10-24T09:34:45Z</time>
      </trkpt>
      <trkpt lat="44.17488" lon="4.44888">
        <ele>102</ele>
        <time>2021-10-24T09:34:46Z</time>
      </trkpt>
      <trkpt lat="44.17498" lon="4.4489">
        <ele>102</ele>
        <time>2021-10-24T09:34:47Z</time>
      </trkpt>
      <trkpt lat="44.17508" lon="4.44893">
        <ele>101.6</ele>
        <time>2021-10-24T09:34:48Z</time>
      </trkpt>
      <trkpt lat="44.17518" lon="4.44896">
        <ele>101.4</ele>
        <time>2021-10-24T09:34:49Z</time>
      </trkpt>
      <trkpt lat="44.17528" lon="4.44898">
        <ele>101.2</ele>
        <time>2021-10-24T09:34:50Z</time>
      </trkpt>
      <trkpt lat="44.17538" lon="4.44901">
        <ele>100.8</ele>
        <time>2021-10-24T09:34:51Z</time>
      </trkpt>
      <trkpt lat="44.17548" lon="4.44903">
        <ele>100.6</ele>
        <time>2021-10-24T09:34:52Z</time>
      </trkpt>
      <trkpt lat="44.17558" lon="4.44906">
        <ele>100.2</ele>
        <time>2021-10-24T09:34:53Z</time>
      </trkpt>
      <trkpt lat="44.17568" lon="4.44909">
        <ele>100</ele>
        <time>2021-10-24T09:34:54Z</time>
      </trkpt>
      <trkpt lat="44.17577" lon="4.44911">
        <ele>99.8</ele>
        <time>2021-10-24T09:34:55Z</time>
      </trkpt>
      <trkpt lat="44.17587" lon="4.44914">
        <ele>99.4</ele>
        <time>2021-10-24T09:34:56Z</time>
      </trkpt>
      <trkpt lat="44.17597" lon="4.44917">
        <ele>98.8</ele>
        <time>2021-10-24T09:34:57Z</time>
      </trkpt>
      <trkpt lat="44.17607" lon="4.44919">
        <ele>98.4</ele>
        <time>2021-10-24T09:34:58Z</time>
      </trkpt>
      <trkpt lat="44.17616" lon="4.44922">
        <ele>98</ele>
        <time>2021-10-24T09:34:59Z</time>
      </trkpt>
      <trkpt lat="44.17626" lon="4.44926">
        <ele>97.8</ele>
        <time>2021-10-24T09:35:00Z</time>
      </trkpt>
      <trkpt lat="44.17636" lon="4.44931">
        <ele>97.2</ele>
        <time>2021-10-24T09:35:01Z</time>
      </trkpt>
      <trkpt lat="44.17645" lon="4.44937">
        <ele>96.8</ele>
        <time>2021-10-24T09:35:02Z</time>
      </trkpt>
      <trkpt lat="44.17654" lon="4.44945">
        <ele>96.2</ele>
        <time>2021-10-24T09:35:03Z</time>
      </trkpt>
      <trkpt lat="44.17662" lon="4.44953">
        <ele>95.6</ele>
        <time>2021-10-24T09:35:04Z</time>
      </trkpt>
      <trkpt lat="44.1767" lon="4.44962">
        <ele>95.6</ele>
        <time>2021-10-24T09:35:05Z</time>
      </trkpt>
      <trkpt lat="44.17677" lon="4.44972">
        <ele>95</ele>
        <time>2021-10-24T09:35:06Z</time>
      </trkpt>
      <trkpt lat="44.17684" lon="4.44981">
        <ele>94.8</ele>
        <time>2021-10-24T09:35:07Z</time>
      </trkpt>
      <trkpt lat="44.17691" lon="4.4499">
        <ele>94.4</ele>
        <time>2021-10-24T09:35:08Z</time>
      </trkpt>
      <trkpt lat="44.17698" lon="4.44999">
        <ele>94.2</ele>
        <time>2021-10-24T09:35:09Z</time>
      </trkpt>
      <trkpt lat="44.17704" lon="4.45008">
        <ele>94.4</ele>
        <time>2021-10-24T09:35:10Z</time>
      </trkpt>
      <trkpt lat="44.1771" lon="4.45016">
        <ele>94.4</ele>
        <time>2021-10-24T09:35:11Z</time>
      </trkpt>
      <trkpt lat="44.17717" lon="4.45025">
        <ele>94.2</ele>
        <time>2021-10-24T09:35:12Z</time>
      </trkpt>
      <trkpt lat="44.17723" lon="4.45034">
        <ele>94</ele>
        <time>2021-10-24T09:35:13Z</time>
      </trkpt>
      <trkpt lat="44.17729" lon="4.45042">
        <ele>93.6</ele>
        <time>2021-10-24T09:35:14Z</time>
      </trkpt>
      <trkpt lat="44.17734" lon="4.4505">
        <ele>93.8</ele>
        <time>2021-10-24T09:35:15Z</time>
      </trkpt>
      <trkpt lat="44.1774" lon="4.45058">
        <ele>93.6</ele>
        <time>2021-10-24T09:35:16Z</time>
      </trkpt>
      <trkpt lat="44.17746" lon="4.45066">
        <ele>93.4</ele>
        <time>2021-10-24T09:35:17Z</time>
      </trkpt>
      <trkpt lat="44.17751" lon="4.45074">
        <ele>93.4</ele>
        <time>2021-10-24T09:35:18Z</time>
      </trkpt>
      <trkpt lat="44.17756" lon="4.45083">
        <ele>93.2</ele>
        <time>2021-10-24T09:35:19Z</time>
      </trkpt>
      <trkpt lat="44.1776" lon="4.45092">
        <ele>92.8</ele>
        <time>2021-10-24T09:35:20Z</time>
      </trkpt>
      <trkpt lat="44.17764" lon="4.45102">
        <ele>92.8</ele>
        <time>2021-10-24T09:35:21Z</time>
      </trkpt>
      <trkpt lat="44.17767" lon="4.45112">
        <ele>92.8</ele>
        <time>2021-10-24T09:35:22Z</time>
      </trkpt>
      <trkpt lat="44.1777" lon="4.45122">
        <ele>92.8</ele>
        <time>2021-10-24T09:35:23Z</time>
      </trkpt>
      <trkpt lat="44.17772" lon="4.45133">
        <ele>92.8</ele>
        <time>2021-10-24T09:35:24Z</time>
      </trkpt>
      <trkpt lat="44.17773" lon="4.45143">
        <ele>92.8</ele>
        <time>2021-10-24T09:35:25Z</time>
      </trkpt>
      <trkpt lat="44.17774" lon="4.45154">
        <ele>92.6</ele>
        <time>2021-10-24T09:35:26Z</time>
      </trkpt>
      <trkpt lat="44.17774" lon="4.45165">
        <ele>92.6</ele>
        <time>2021-10-24T09:35:27Z</time>
      </trkpt>
      <trkpt lat="44.17774" lon="4.45176">
        <ele>92.4</ele>
        <time>2021-10-24T09:35:28Z</time>
      </trkpt>
      <trkpt lat="44.17773" lon="4.45187">
        <ele>92.4</ele>
        <time>2021-10-24T09:35:29Z</time>
      </trkpt>
      <trkpt lat="44.17773" lon="4.45198">
        <ele>92.6</ele>
        <time>2021-10-24T09:35:30Z</time>
      </trkpt>
      <trkpt lat="44.17772" lon="4.45209">
        <ele>92.6</ele>
        <time>2021-10-24T09:35:31Z</time>
      </trkpt>
      <trkpt lat="44.17772" lon="4.4522">
        <ele>92.6</ele>
        <time>2021-10-24T09:35:32Z</time>
      </trkpt>
      <trkpt lat="44.17771" lon="4.45231">
        <ele>92.4</ele>
        <time>2021-10-24T09:35:33Z</time>
      </trkpt>
      <trkpt lat="44.17771" lon="4.45242">
        <ele>92.6</ele>
        <time>2021-10-24T09:35:34Z</time>
      </trkpt>
      <trkpt lat="44.1777" lon="4.45254">
        <ele>92.6</ele>
        <time>2021-10-24T09:35:35Z</time>
      </trkpt>
      <trkpt lat="44.1777" lon="4.45265">
        <ele>92.6</ele>
        <time>2021-10-24T09:35:36Z</time>
      </trkpt>
      <trkpt lat="44.17769" lon="4.45275">
        <ele>93</ele>
        <time>2021-10-24T09:35:37Z</time>
      </trkpt>
      <trkpt lat="44.17769" lon="4.45286">
        <ele>92.6</ele>
        <time>2021-10-24T09:35:38Z</time>
      </trkpt>
      <trkpt lat="44.17768" lon="4.45297">
        <ele>92.8</ele>
        <time>2021-10-24T09:35:39Z</time>
      </trkpt>
      <trkpt lat="44.17768" lon="4.45308">
        <ele>92.6</ele>
        <time>2021-10-24T09:35:40Z</time>
      </trkpt>
      <trkpt lat="44.17767" lon="4.45319">
        <ele>92.6</ele>
        <time>2021-10-24T09:35:41Z</time>
      </trkpt>
      <trkpt lat="44.17767" lon="4.4533">
        <ele>92.6</ele>
        <time>2021-10-24T09:35:42Z</time>
      </trkpt>
      <trkpt lat="44.17766" lon="4.45341">
        <ele>92.6</ele>
        <time>2021-10-24T09:35:43Z</time>
      </trkpt>
      <trkpt lat="44.17766" lon="4.45351">
        <ele>92.4</ele>
        <time>2021-10-24T09:35:44Z</time>
      </trkpt>
      <trkpt lat="44.17766" lon="4.45362">
        <ele>92.6</ele>
        <time>2021-10-24T09:35:45Z</time>
      </trkpt>
      <trkpt lat="44.17767" lon="4.45373">
        <ele>92.6</ele>
        <time>2021-10-24T09:35:46Z</time>
      </trkpt>
      <trkpt lat="44.17768" lon="4.45384">
        <ele>92.6</ele>
        <time>2021-10-24T09:35:47Z</time>
      </trkpt>
      <trkpt lat="44.17771" lon="4.45394">
        <ele>92.6</ele>
        <time>2021-10-24T09:35:48Z</time>
      </trkpt>
      <trkpt lat="44.17773" lon="4.45403">
        <ele>92.8</ele>
        <time>2021-10-24T09:35:49Z</time>
      </trkpt>
      <trkpt lat="44.17777" lon="4.45413">
        <ele>92.8</ele>
        <time>2021-10-24T09:35:50Z</time>
      </trkpt>
      <trkpt lat="44.17781" lon="4.45421">
        <ele>92.6</ele>
        <time>2021-10-24T09:35:51Z</time>
      </trkpt>
      <trkpt lat="44.17785" lon="4.45429">
        <ele>92.6</ele>
        <time>2021-10-24T09:35:52Z</time>
      </trkpt>
      <trkpt lat="44.17788" lon="4.45437">
        <ele>92.6</ele>
        <time>2021-10-24T09:35:53Z</time>
      </trkpt>
      <trkpt lat="44.17792" lon="4.45444">
        <ele>92.4</ele>
        <time>2021-10-24T09:35:54Z</time>
      </trkpt>
      <trkpt lat="44.17796" lon="4.45451">
        <ele>92.4</ele>
        <time>2021-10-24T09:35:55Z</time>
      </trkpt>
      <trkpt lat="44.178" lon="4.45458">
        <ele>92.2</ele>
        <time>2021-10-24T09:35:56Z</time>
      </trkpt>
      <trkpt lat="44.17804" lon="4.45464">
        <ele>91.8</ele>
        <time>2021-10-24T09:35:57Z</time>
      </trkpt>
      <trkpt lat="44.17807" lon="4.45471">
        <ele>91.8</ele>
        <time>2021-10-24T09:35:58Z</time>
      </trkpt>
      <trkpt lat="44.17811" lon="4.45477">
        <ele>91.6</ele>
        <time>2021-10-24T09:35:59Z</time>
      </trkpt>
      <trkpt lat="44.17815" lon="4.45483">
        <ele>91.4</ele>
        <time>2021-10-24T09:36:00Z</time>
      </trkpt>
      <trkpt lat="44.17819" lon="4.45489">
        <ele>91.6</ele>
        <time>2021-10-24T09:36:01Z</time>
      </trkpt>
      <trkpt lat="44.17822" lon="4.45496">
        <ele>91.2</ele>
        <time>2021-10-24T09:36:02Z</time>
      </trkpt>
      <trkpt lat="44.17825" lon="4.45502">
        <ele>91</ele>
        <time>2021-10-24T09:36:03Z</time>
      </trkpt>
      <trkpt lat="44.17829" lon="4.4551">
        <ele>91</ele>
        <time>2021-10-24T09:36:04Z</time>
      </trkpt>
      <trkpt lat="44.17832" lon="4.45517">
        <ele>91</ele>
        <time>2021-10-24T09:36:05Z</time>
      </trkpt>
      <trkpt lat="44.17835" lon="4.45525">
        <ele>91</ele>
        <time>2021-10-24T09:36:06Z</time>
      </trkpt>
      <trkpt lat="44.17838" lon="4.45533">
        <ele>90.8</ele>
        <time>2021-10-24T09:36:07Z</time>
      </trkpt>
      <trkpt lat="44.17841" lon="4.45541">
        <ele>90.8</ele>
        <time>2021-10-24T09:36:08Z</time>
      </trkpt>
      <trkpt lat="44.17843" lon="4.4555">
        <ele>90.6</ele>
        <time>2021-10-24T09:36:09Z</time>
      </trkpt>
      <trkpt lat="44.17845" lon="4.45558">
        <ele>90.6</ele>
        <time>2021-10-24T09:36:10Z</time>
      </trkpt>
      <trkpt lat="44.17847" lon="4.45566">
        <ele>90.8</ele>
        <time>2021-10-24T09:36:11Z</time>
      </trkpt>
      <trkpt lat="44.17848" lon="4.45575">
        <ele>90.8</ele>
        <time>2021-10-24T09:36:12Z</time>
      </trkpt>
      <trkpt lat="44.1785" lon="4.45584">
        <ele>90.6</ele>
        <time>2021-10-24T09:36:13Z</time>
      </trkpt>
      <trkpt lat="44.17851" lon="4.45593">
        <ele>90.6</ele>
        <time>2021-10-24T09:36:14Z</time>
      </trkpt>
      <trkpt lat="44.17853" lon="4.45602">
        <ele>90.6</ele>
        <time>2021-10-24T09:36:15Z</time>
      </trkpt>
      <trkpt lat="44.17854" lon="4.45611">
        <ele>90.6</ele>
        <time>2021-10-24T09:36:16Z</time>
      </trkpt>
      <trkpt lat="44.17856" lon="4.45621">
        <ele>90.6</ele>
        <time>2021-10-24T09:36:17Z</time>
      </trkpt>
      <trkpt lat="44.17857" lon="4.45631">
        <ele>90.4</ele>
        <time>2021-10-24T09:36:18Z</time>
      </trkpt>
      <trkpt lat="44.17859" lon="4.4564">
        <ele>90.4</ele>
        <time>2021-10-24T09:36:19Z</time>
      </trkpt>
      <trkpt lat="44.1786" lon="4.4565">
        <ele>90.6</ele>
        <time>2021-10-24T09:36:20Z</time>
      </trkpt>
      <trkpt lat="44.17862" lon="4.4566">
        <ele>90.6</ele>
        <time>2021-10-24T09:36:21Z</time>
      </trkpt>
      <trkpt lat="44.17863" lon="4.4567">
        <ele>90.6</ele>
        <time>2021-10-24T09:36:22Z</time>
      </trkpt>
      <trkpt lat="44.17865" lon="4.4568">
        <ele>90.6</ele>
        <time>2021-10-24T09:36:23Z</time>
      </trkpt>
      <trkpt lat="44.17867" lon="4.45691">
        <ele>90.6</ele>
        <time>2021-10-24T09:36:24Z</time>
      </trkpt>
      <trkpt lat="44.17868" lon="4.45701">
        <ele>90.8</ele>
        <time>2021-10-24T09:36:25Z</time>
      </trkpt>
      <trkpt lat="44.1787" lon="4.45712">
        <ele>91</ele>
        <time>2021-10-24T09:36:26Z</time>
      </trkpt>
      <trkpt lat="44.17872" lon="4.45722">
        <ele>90.8</ele>
        <time>2021-10-24T09:36:27Z</time>
      </trkpt>
      <trkpt lat="44.17874" lon="4.45733">
        <ele>90.6</ele>
        <time>2021-10-24T09:36:28Z</time>
      </trkpt>
      <trkpt lat="44.17875" lon="4.45743">
        <ele>90.6</ele>
        <time>2021-10-24T09:36:29Z</time>
      </trkpt>
      <trkpt lat="44.17877" lon="4.45753">
        <ele>90.6</ele>
        <time>2021-10-24T09:36:30Z</time>
      </trkpt>
      <trkpt lat="44.17878" lon="4.45764">
        <ele>90.6</ele>
        <time>2021-10-24T09:36:31Z</time>
      </trkpt>
      <trkpt lat="44.1788" lon="4.45774">
        <ele>90.6</ele>
        <time>2021-10-24T09:36:32Z</time>
      </trkpt>
      <trkpt lat="44.17882" lon="4.45785">
        <ele>90.6</ele>
        <time>2021-10-24T09:36:33Z</time>
      </trkpt>
      <trkpt lat="44.17884" lon="4.45795">
        <ele>90.6</ele>
        <time>2021-10-24T09:36:34Z</time>
      </trkpt>
      <trkpt lat="44.17885" lon="4.45805">
        <ele>90.6</ele>
        <time>2021-10-24T09:36:35Z</time>
      </trkpt>
      <trkpt lat="44.17887" lon="4.45816">
        <ele>90.6</ele>
        <time>2021-10-24T09:36:36Z</time>
      </trkpt>
      <trkpt lat="44.17889" lon="4.45826">
        <ele>90.4</ele>
        <time>2021-10-24T09:36:37Z</time>
      </trkpt>
      <trkpt lat="44.17891" lon="4.45837">
        <ele>90.2</ele>
        <time>2021-10-24T09:36:38Z</time>
      </trkpt>
      <trkpt lat="44.17893" lon="4.45847">
        <ele>90.4</ele>
        <time>2021-10-24T09:36:39Z</time>
      </trkpt>
      <trkpt lat="44.17894" lon="4.45858">
        <ele>90.4</ele>
        <time>2021-10-24T09:36:40Z</time>
      </trkpt>
      <trkpt lat="44.17896" lon="4.45869">
        <ele>90.4</ele>
        <time>2021-10-24T09:36:41Z</time>
      </trkpt>
      <trkpt lat="44.17898" lon="4.4588">
        <ele>90</ele>
        <time>2021-10-24T09:36:42Z</time>
      </trkpt>
      <trkpt lat="44.179" lon="4.45891">
        <ele>90</ele>
        <time>2021-10-24T09:36:43Z</time>
      </trkpt>
      <trkpt lat="44.17901" lon="4.45902">
        <ele>90</ele>
        <time>2021-10-24T09:36:44Z</time>
      </trkpt>
      <trkpt lat="44.17903" lon="4.45913">
        <ele>90.2</ele>
        <time>2021-10-24T09:36:45Z</time>
      </trkpt>
      <trkpt lat="44.17905" lon="4.45924">
        <ele>90</ele>
        <time>2021-10-24T09:36:46Z</time>
      </trkpt>
      <trkpt lat="44.17907" lon="4.45935">
        <ele>90.2</ele>
        <time>2021-10-24T09:36:47Z</time>
      </trkpt>
      <trkpt lat="44.1791" lon="4.45945">
        <ele>89.8</ele>
        <time>2021-10-24T09:36:48Z</time>
      </trkpt>
      <trkpt lat="44.17913" lon="4.45955">
        <ele>89.8</ele>
        <time>2021-10-24T09:36:49Z</time>
      </trkpt>
      <trkpt lat="44.17917" lon="4.45965">
        <ele>89.6</ele>
        <time>2021-10-24T09:36:50Z</time>
      </trkpt>
      <trkpt lat="44.17922" lon="4.45974">
        <ele>89.6</ele>
        <time>2021-10-24T09:36:51Z</time>
      </trkpt>
      <trkpt lat="44.17927" lon="4.45982">
        <ele>89.8</ele>
        <time>2021-10-24T09:36:52Z</time>
      </trkpt>
      <trkpt lat="44.17932" lon="4.4599">
        <ele>89.8</ele>
        <time>2021-10-24T09:36:53Z</time>
      </trkpt>
      <trkpt lat="44.17937" lon="4.45998">
        <ele>90</ele>
        <time>2021-10-24T09:36:54Z</time>
      </trkpt>
      <trkpt lat="44.17943" lon="4.46006">
        <ele>90</ele>
        <time>2021-10-24T09:36:55Z</time>
      </trkpt>
      <trkpt lat="44.17948" lon="4.46014">
        <ele>89.6</ele>
        <time>2021-10-24T09:36:56Z</time>
      </trkpt>
      <trkpt lat="44.17953" lon="4.46022">
        <ele>89.6</ele>
        <time>2021-10-24T09:36:57Z</time>
      </trkpt>
      <trkpt lat="44.17957" lon="4.46031">
        <ele>89.8</ele>
        <time>2021-10-24T09:36:58Z</time>
      </trkpt>
      <trkpt lat="44.17961" lon="4.4604">
        <ele>89.8</ele>
        <time>2021-10-24T09:36:59Z</time>
      </trkpt>
      <trkpt lat="44.17965" lon="4.46049">
        <ele>89.6</ele>
        <time>2021-10-24T09:37:00Z</time>
      </trkpt>
      <trkpt lat="44.17968" lon="4.46058">
        <ele>89.6</ele>
        <time>2021-10-24T09:37:01Z</time>
      </trkpt>
      <trkpt lat="44.1797" lon="4.46067">
        <ele>89.8</ele>
        <time>2021-10-24T09:37:02Z</time>
      </trkpt>
      <trkpt lat="44.1797" lon="4.46077">
        <ele>90</ele>
        <time>2021-10-24T09:37:03Z</time>
      </trkpt>
      <trkpt lat="44.17971" lon="4.46087">
        <ele>90</ele>
        <time>2021-10-24T09:37:04Z</time>
      </trkpt>
      <trkpt lat="44.17971" lon="4.46097">
        <ele>90</ele>
        <time>2021-10-24T09:37:05Z</time>
      </trkpt>
      <trkpt lat="44.17971" lon="4.46106">
        <ele>90.2</ele>
        <time>2021-10-24T09:37:06Z</time>
      </trkpt>
      <trkpt lat="44.17971" lon="4.46115">
        <ele>90.2</ele>
        <time>2021-10-24T09:37:07Z</time>
      </trkpt>
      <trkpt lat="44.17971" lon="4.46125">
        <ele>90.2</ele>
        <time>2021-10-24T09:37:08Z</time>
      </trkpt>
      <trkpt lat="44.1797" lon="4.46135">
        <ele>90.2</ele>
        <time>2021-10-24T09:37:09Z</time>
      </trkpt>
      <trkpt lat="44.1797" lon="4.46147">
        <ele>90.2</ele>
        <time>2021-10-24T09:37:10Z</time>
      </trkpt>
      <trkpt lat="44.1797" lon="4.46158">
        <ele>90.4</ele>
        <time>2021-10-24T09:37:11Z</time>
      </trkpt>
      <trkpt lat="44.1797" lon="4.46169">
        <ele>90.4</ele>
        <time>2021-10-24T09:37:12Z</time>
      </trkpt>
      <trkpt lat="44.1797" lon="4.46181">
        <ele>90.4</ele>
        <time>2021-10-24T09:37:13Z</time>
      </trkpt>
      <trkpt lat="44.17971" lon="4.46192">
        <ele>90.2</ele>
        <time>2021-10-24T09:37:14Z</time>
      </trkpt>
      <trkpt lat="44.17972" lon="4.46204">
        <ele>90.2</ele>
        <time>2021-10-24T09:37:15Z</time>
      </trkpt>
      <trkpt lat="44.17974" lon="4.46216">
        <ele>90.2</ele>
        <time>2021-10-24T09:37:16Z</time>
      </trkpt>
      <trkpt lat="44.17976" lon="4.46227">
        <ele>90.2</ele>
        <time>2021-10-24T09:37:17Z</time>
      </trkpt>
      <trkpt lat="44.17978" lon="4.46239">
        <ele>90</ele>
        <time>2021-10-24T09:37:18Z</time>
      </trkpt>
      <trkpt lat="44.1798" lon="4.46251">
        <ele>89.8</ele>
        <time>2021-10-24T09:37:19Z</time>
      </trkpt>
      <trkpt lat="44.17983" lon="4.46262">
        <ele>89.6</ele>
        <time>2021-10-24T09:37:20Z</time>
      </trkpt>
      <trkpt lat="44.17986" lon="4.46274">
        <ele>89.6</ele>
        <time>2021-10-24T09:37:21Z</time>
      </trkpt>
      <trkpt lat="44.17989" lon="4.46286">
        <ele>89.2</ele>
        <time>2021-10-24T09:37:22Z</time>
      </trkpt>
      <trkpt lat="44.17993" lon="4.46297">
        <ele>89.4</ele>
        <time>2021-10-24T09:37:23Z</time>
      </trkpt>
      <trkpt lat="44.17996" lon="4.46309">
        <ele>89.4</ele>
        <time>2021-10-24T09:37:24Z</time>
      </trkpt>
      <trkpt lat="44.17999" lon="4.46321">
        <ele>89.2</ele>
        <time>2021-10-24T09:37:25Z</time>
      </trkpt>
      <trkpt lat="44.18003" lon="4.46332">
        <ele>88.8</ele>
        <time>2021-10-24T09:37:26Z</time>
      </trkpt>
      <trkpt lat="44.18006" lon="4.46344">
        <ele>88.6</ele>
        <time>2021-10-24T09:37:27Z</time>
      </trkpt>
      <trkpt lat="44.1801" lon="4.46356">
        <ele>88.6</ele>
        <time>2021-10-24T09:37:28Z</time>
      </trkpt>
      <trkpt lat="44.18013" lon="4.46367">
        <ele>88.2</ele>
        <time>2021-10-24T09:37:29Z</time>
      </trkpt>
      <trkpt lat="44.18017" lon="4.46379">
        <ele>87.8</ele>
        <time>2021-10-24T09:37:30Z</time>
      </trkpt>
      <trkpt lat="44.18021" lon="4.4639">
        <ele>87.6</ele>
        <time>2021-10-24T09:37:31Z</time>
      </trkpt>
      <trkpt lat="44.18025" lon="4.46401">
        <ele>87.6</ele>
        <time>2021-10-24T09:37:32Z</time>
      </trkpt>
      <trkpt lat="44.1803" lon="4.46411">
        <ele>87.4</ele>
        <time>2021-10-24T09:37:33Z</time>
      </trkpt>
      <trkpt lat="44.18035" lon="4.46421">
        <ele>87.4</ele>
        <time>2021-10-24T09:37:34Z</time>
      </trkpt>
      <trkpt lat="44.18041" lon="4.4643">
        <ele>87</ele>
        <time>2021-10-24T09:37:35Z</time>
      </trkpt>
      <trkpt lat="44.18047" lon="4.46438">
        <ele>87.2</ele>
        <time>2021-10-24T09:37:36Z</time>
      </trkpt>
      <trkpt lat="44.18054" lon="4.46446">
        <ele>86.8</ele>
        <time>2021-10-24T09:37:37Z</time>
      </trkpt>
      <trkpt lat="44.18061" lon="4.46454">
        <ele>86.6</ele>
        <time>2021-10-24T09:37:38Z</time>
      </trkpt>
      <trkpt lat="44.18067" lon="4.46462">
        <ele>86.4</ele>
        <time>2021-10-24T09:37:39Z</time>
      </trkpt>
      <trkpt lat="44.18074" lon="4.4647">
        <ele>86.4</ele>
        <time>2021-10-24T09:37:40Z</time>
      </trkpt>
      <trkpt lat="44.18081" lon="4.46478">
        <ele>86.2</ele>
        <time>2021-10-24T09:37:41Z</time>
      </trkpt>
      <trkpt lat="44.18087" lon="4.46486">
        <ele>86.2</ele>
        <time>2021-10-24T09:37:42Z</time>
      </trkpt>
      <trkpt lat="44.18094" lon="4.46494">
        <ele>86.2</ele>
        <time>2021-10-24T09:37:43Z</time>
      </trkpt>
      <trkpt lat="44.18101" lon="4.46502">
        <ele>86</ele>
        <time>2021-10-24T09:37:44Z</time>
      </trkpt>
      <trkpt lat="44.18107" lon="4.4651">
        <ele>86</ele>
        <time>2021-10-24T09:37:45Z</time>
      </trkpt>
      <trkpt lat="44.18113" lon="4.46519">
        <ele>85.8</ele>
        <time>2021-10-24T09:37:46Z</time>
      </trkpt>
      <trkpt lat="44.18119" lon="4.46527">
        <ele>85.8</ele>
        <time>2021-10-24T09:37:47Z</time>
      </trkpt>
      <trkpt lat="44.18124" lon="4.46536">
        <ele>85.8</ele>
        <time>2021-10-24T09:37:48Z</time>
      </trkpt>
      <trkpt lat="44.1813" lon="4.46544">
        <ele>85.4</ele>
        <time>2021-10-24T09:37:49Z</time>
      </trkpt>
      <trkpt lat="44.18136" lon="4.46552">
        <ele>85.4</ele>
        <time>2021-10-24T09:37:50Z</time>
      </trkpt>
      <trkpt lat="44.18142" lon="4.46561">
        <ele>85.2</ele>
        <time>2021-10-24T09:37:51Z</time>
      </trkpt>
      <trkpt lat="44.18148" lon="4.46569">
        <ele>85.2</ele>
        <time>2021-10-24T09:37:52Z</time>
      </trkpt>
      <trkpt lat="44.18154" lon="4.46577">
        <ele>85.4</ele>
        <time>2021-10-24T09:37:53Z</time>
      </trkpt>
      <trkpt lat="44.18159" lon="4.46585">
        <ele>85.2</ele>
        <time>2021-10-24T09:37:54Z</time>
      </trkpt>
      <trkpt lat="44.18165" lon="4.46592">
        <ele>85.2</ele>
        <time>2021-10-24T09:37:55Z</time>
      </trkpt>
      <trkpt lat="44.18171" lon="4.46601">
        <ele>85.6</ele>
        <time>2021-10-24T09:37:56Z</time>
      </trkpt>
      <trkpt lat="44.18176" lon="4.46609">
        <ele>85.4</ele>
        <time>2021-10-24T09:37:57Z</time>
      </trkpt>
      <trkpt lat="44.18182" lon="4.46617">
        <ele>85.4</ele>
        <time>2021-10-24T09:37:58Z</time>
      </trkpt>
      <trkpt lat="44.18187" lon="4.46625">
        <ele>85.4</ele>
        <time>2021-10-24T09:37:59Z</time>
      </trkpt>
      <trkpt lat="44.18192" lon="4.46634">
        <ele>85.2</ele>
        <time>2021-10-24T09:38:00Z</time>
      </trkpt>
      <trkpt lat="44.18196" lon="4.46642">
        <ele>85.4</ele>
        <time>2021-10-24T09:38:01Z</time>
      </trkpt>
      <trkpt lat="44.182" lon="4.46652">
        <ele>85.2</ele>
        <time>2021-10-24T09:38:02Z</time>
      </trkpt>
      <trkpt lat="44.18203" lon="4.46662">
        <ele>85</ele>
        <time>2021-10-24T09:38:03Z</time>
      </trkpt>
      <trkpt lat="44.18206" lon="4.46672">
        <ele>84.8</ele>
        <time>2021-10-24T09:38:04Z</time>
      </trkpt>
      <trkpt lat="44.18207" lon="4.46682">
        <ele>85</ele>
        <time>2021-10-24T09:38:05Z</time>
      </trkpt>
      <trkpt lat="44.18208" lon="4.46692">
        <ele>85</ele>
        <time>2021-10-24T09:38:06Z</time>
      </trkpt>
      <trkpt lat="44.18208" lon="4.46702">
        <ele>85</ele>
        <time>2021-10-24T09:38:07Z</time>
      </trkpt>
      <trkpt lat="44.18209" lon="4.46711">
        <ele>85.2</ele>
        <time>2021-10-24T09:38:08Z</time>
      </trkpt>
      <trkpt lat="44.18208" lon="4.46721">
        <ele>85.6</ele>
        <time>2021-10-24T09:38:09Z</time>
      </trkpt>
      <trkpt lat="44.18208" lon="4.46731">
        <ele>85.6</ele>
        <time>2021-10-24T09:38:10Z</time>
      </trkpt>
      <trkpt lat="44.18207" lon="4.4674">
        <ele>85.6</ele>
        <time>2021-10-24T09:38:11Z</time>
      </trkpt>
      <trkpt lat="44.18206" lon="4.4675">
        <ele>85.8</ele>
        <time>2021-10-24T09:38:12Z</time>
      </trkpt>
      <trkpt lat="44.18205" lon="4.46759">
        <ele>86.2</ele>
        <time>2021-10-24T09:38:13Z</time>
      </trkpt>
      <trkpt lat="44.18204" lon="4.46768">
        <ele>86.4</ele>
        <time>2021-10-24T09:38:14Z</time>
      </trkpt>
      <trkpt lat="44.18202" lon="4.46777">
        <ele>86</ele>
        <time>2021-10-24T09:38:15Z</time>
      </trkpt>
      <trkpt lat="44.18201" lon="4.46787">
        <ele>86</ele>
        <time>2021-10-24T09:38:16Z</time>
      </trkpt>
      <trkpt lat="44.182" lon="4.46796">
        <ele>86</ele>
        <time>2021-10-24T09:38:17Z</time>
      </trkpt>
      <trkpt lat="44.18199" lon="4.46806">
        <ele>86.4</ele>
        <time>2021-10-24T09:38:18Z</time>
      </trkpt>
      <trkpt lat="44.18198" lon="4.46815">
        <ele>87</ele>
        <time>2021-10-24T09:38:19Z</time>
      </trkpt>
      <trkpt lat="44.18197" lon="4.46825">
        <ele>87.4</ele>
        <time>2021-10-24T09:38:20Z</time>
      </trkpt>
      <trkpt lat="44.18195" lon="4.46835">
        <ele>87.6</ele>
        <time>2021-10-24T09:38:21Z</time>
      </trkpt>
      <trkpt lat="44.18194" lon="4.46845">
        <ele>87.8</ele>
        <time>2021-10-24T09:38:22Z</time>
      </trkpt>
      <trkpt lat="44.18193" lon="4.46855">
        <ele>87.8</ele>
        <time>2021-10-24T09:38:23Z</time>
      </trkpt>
      <trkpt lat="44.18191" lon="4.46866">
        <ele>88</ele>
        <time>2021-10-24T09:38:24Z</time>
      </trkpt>
      <trkpt lat="44.1819" lon="4.46877">
        <ele>87.8</ele>
        <time>2021-10-24T09:38:25Z</time>
      </trkpt>
      <trkpt lat="44.1819" lon="4.46888">
        <ele>87.8</ele>
        <time>2021-10-24T09:38:26Z</time>
      </trkpt>
      <trkpt lat="44.1819" lon="4.46899">
        <ele>87.8</ele>
        <time>2021-10-24T09:38:27Z</time>
      </trkpt>
      <trkpt lat="44.18191" lon="4.46911">
        <ele>87.6</ele>
        <time>2021-10-24T09:38:28Z</time>
      </trkpt>
      <trkpt lat="44.18193" lon="4.46922">
        <ele>87.6</ele>
        <time>2021-10-24T09:38:29Z</time>
      </trkpt>
      <trkpt lat="44.18195" lon="4.46934">
        <ele>87.4</ele>
        <time>2021-10-24T09:38:30Z</time>
      </trkpt>
      <trkpt lat="44.18197" lon="4.46947">
        <ele>87</ele>
        <time>2021-10-24T09:38:31Z</time>
      </trkpt>
      <trkpt lat="44.182" lon="4.46959">
        <ele>86.8</ele>
        <time>2021-10-24T09:38:32Z</time>
      </trkpt>
      <trkpt lat="44.18203" lon="4.46972">
        <ele>86.6</ele>
        <time>2021-10-24T09:38:33Z</time>
      </trkpt>
      <trkpt lat="44.18205" lon="4.46984">
        <ele>86.4</ele>
        <time>2021-10-24T09:38:34Z</time>
      </trkpt>
      <trkpt lat="44.18208" lon="4.46997">
        <ele>86</ele>
        <time>2021-10-24T09:38:35Z</time>
      </trkpt>
      <trkpt lat="44.1821" lon="4.47008">
        <ele>85.8</ele>
        <time>2021-10-24T09:38:36Z</time>
      </trkpt>
      <trkpt lat="44.18213" lon="4.4702">
        <ele>85.4</ele>
        <time>2021-10-24T09:38:37Z</time>
      </trkpt>
      <trkpt lat="44.18215" lon="4.47032">
        <ele>85.2</ele>
        <time>2021-10-24T09:38:38Z</time>
      </trkpt>
      <trkpt lat="44.18217" lon="4.47043">
        <ele>85.4</ele>
        <time>2021-10-24T09:38:39Z</time>
      </trkpt>
      <trkpt lat="44.1822" lon="4.47055">
        <ele>85.2</ele>
        <time>2021-10-24T09:38:40Z</time>
      </trkpt>
      <trkpt lat="44.18222" lon="4.47066">
        <ele>85</ele>
        <time>2021-10-24T09:38:41Z</time>
      </trkpt>
      <trkpt lat="44.18224" lon="4.47077">
        <ele>85.2</ele>
        <time>2021-10-24T09:38:42Z</time>
      </trkpt>
      <trkpt lat="44.18226" lon="4.47088">
        <ele>85.4</ele>
        <time>2021-10-24T09:38:43Z</time>
      </trkpt>
      <trkpt lat="44.18229" lon="4.47099">
        <ele>85.2</ele>
        <time>2021-10-24T09:38:44Z</time>
      </trkpt>
      <trkpt lat="44.18231" lon="4.4711">
        <ele>85</ele>
        <time>2021-10-24T09:38:45Z</time>
      </trkpt>
      <trkpt lat="44.18233" lon="4.47121">
        <ele>84.8</ele>
        <time>2021-10-24T09:38:46Z</time>
      </trkpt>
      <trkpt lat="44.18235" lon="4.47132">
        <ele>84.6</ele>
        <time>2021-10-24T09:38:47Z</time>
      </trkpt>
      <trkpt lat="44.18237" lon="4.47143">
        <ele>84.8</ele>
        <time>2021-10-24T09:38:48Z</time>
      </trkpt>
      <trkpt lat="44.18239" lon="4.47153">
        <ele>84.6</ele>
        <time>2021-10-24T09:38:49Z</time>
      </trkpt>
      <trkpt lat="44.18242" lon="4.47164">
        <ele>84.6</ele>
        <time>2021-10-24T09:38:50Z</time>
      </trkpt>
      <trkpt lat="44.18244" lon="4.47175">
        <ele>84.4</ele>
        <time>2021-10-24T09:38:51Z</time>
      </trkpt>
      <trkpt lat="44.18247" lon="4.47186">
        <ele>84.2</ele>
        <time>2021-10-24T09:38:52Z</time>
      </trkpt>
      <trkpt lat="44.18249" lon="4.47197">
        <ele>84.4</ele>
        <time>2021-10-24T09:38:53Z</time>
      </trkpt>
      <trkpt lat="44.18251" lon="4.47208">
        <ele>84.4</ele>
        <time>2021-10-24T09:38:54Z</time>
      </trkpt>
      <trkpt lat="44.18254" lon="4.47218">
        <ele>84.4</ele>
        <time>2021-10-24T09:38:55Z</time>
      </trkpt>
      <trkpt lat="44.18256" lon="4.47229">
        <ele>84.4</ele>
        <time>2021-10-24T09:38:56Z</time>
      </trkpt>
      <trkpt lat="44.18259" lon="4.4724">
        <ele>84.2</ele>
        <time>2021-10-24T09:38:57Z</time>
      </trkpt>
      <trkpt lat="44.18261" lon="4.47251">
        <ele>84.4</ele>
        <time>2021-10-24T09:38:58Z</time>
      </trkpt>
      <trkpt lat="44.18263" lon="4.47262">
        <ele>84.4</ele>
        <time>2021-10-24T09:38:59Z</time>
      </trkpt>
      <trkpt lat="44.18266" lon="4.47273">
        <ele>84.2</ele>
        <time>2021-10-24T09:39:00Z</time>
      </trkpt>
      <trkpt lat="44.18268" lon="4.47284">
        <ele>84</ele>
        <time>2021-10-24T09:39:01Z</time>
      </trkpt>
      <trkpt lat="44.1827" lon="4.47295">
        <ele>83.8</ele>
        <time>2021-10-24T09:39:02Z</time>
      </trkpt>
      <trkpt lat="44.18272" lon="4.47306">
        <ele>83.8</ele>
        <time>2021-10-24T09:39:03Z</time>
      </trkpt>
      <trkpt lat="44.18275" lon="4.47318">
        <ele>83.6</ele>
        <time>2021-10-24T09:39:04Z</time>
      </trkpt>
      <trkpt lat="44.18277" lon="4.47329">
        <ele>83.6</ele>
        <time>2021-10-24T09:39:05Z</time>
      </trkpt>
      <trkpt lat="44.1828" lon="4.47341">
        <ele>83.2</ele>
        <time>2021-10-24T09:39:06Z</time>
      </trkpt>
      <trkpt lat="44.18282" lon="4.47353">
        <ele>83.2</ele>
        <time>2021-10-24T09:39:07Z</time>
      </trkpt>
      <trkpt lat="44.18284" lon="4.47365">
        <ele>83.2</ele>
        <time>2021-10-24T09:39:08Z</time>
      </trkpt>
      <trkpt lat="44.18287" lon="4.47377">
        <ele>83</ele>
        <time>2021-10-24T09:39:09Z</time>
      </trkpt>
      <trkpt lat="44.18289" lon="4.47389">
        <ele>83</ele>
        <time>2021-10-24T09:39:10Z</time>
      </trkpt>
      <trkpt lat="44.18292" lon="4.474">
        <ele>83</ele>
        <time>2021-10-24T09:39:11Z</time>
      </trkpt>
      <trkpt lat="44.18295" lon="4.47412">
        <ele>83</ele>
        <time>2021-10-24T09:39:12Z</time>
      </trkpt>
      <trkpt lat="44.18297" lon="4.47423">
        <ele>83</ele>
        <time>2021-10-24T09:39:13Z</time>
      </trkpt>
      <trkpt lat="44.18299" lon="4.47435">
        <ele>82.8</ele>
        <time>2021-10-24T09:39:14Z</time>
      </trkpt>
      <trkpt lat="44.18302" lon="4.47446">
        <ele>82.6</ele>
        <time>2021-10-24T09:39:15Z</time>
      </trkpt>
      <trkpt lat="44.18304" lon="4.47458">
        <ele>82.8</ele>
        <time>2021-10-24T09:39:16Z</time>
      </trkpt>
      <trkpt lat="44.18306" lon="4.47469">
        <ele>82.6</ele>
        <time>2021-10-24T09:39:17Z</time>
      </trkpt>
      <trkpt lat="44.18308" lon="4.4748">
        <ele>82.6</ele>
        <time>2021-10-24T09:39:18Z</time>
      </trkpt>
      <trkpt lat="44.18311" lon="4.4749">
        <ele>82.2</ele>
        <time>2021-10-24T09:39:19Z</time>
      </trkpt>
      <trkpt lat="44.18313" lon="4.47501">
        <ele>82</ele>
        <time>2021-10-24T09:39:20Z</time>
      </trkpt>
      <trkpt lat="44.18315" lon="4.47511">
        <ele>82.2</ele>
        <time>2021-10-24T09:39:21Z</time>
      </trkpt>
      <trkpt lat="44.18317" lon="4.47521">
        <ele>82.4</ele>
        <time>2021-10-24T09:39:22Z</time>
      </trkpt>
      <trkpt lat="44.18319" lon="4.47531">
        <ele>82.4</ele>
        <time>2021-10-24T09:39:23Z</time>
      </trkpt>
      <trkpt lat="44.18321" lon="4.4754">
        <ele>82.2</ele>
        <time>2021-10-24T09:39:24Z</time>
      </trkpt>
      <trkpt lat="44.18323" lon="4.47549">
        <ele>82.4</ele>
        <time>2021-10-24T09:39:25Z</time>
      </trkpt>
      <trkpt lat="44.18325" lon="4.47559">
        <ele>82.4</ele>
        <time>2021-10-24T09:39:26Z</time>
      </trkpt>
      <trkpt lat="44.18327" lon="4.47568">
        <ele>82.4</ele>
        <time>2021-10-24T09:39:27Z</time>
      </trkpt>
      <trkpt lat="44.18329" lon="4.47577">
        <ele>82.2</ele>
        <time>2021-10-24T09:39:28Z</time>
      </trkpt>
      <trkpt lat="44.1833" lon="4.47586">
        <ele>82.2</ele>
        <time>2021-10-24T09:39:29Z</time>
      </trkpt>
      <trkpt lat="44.18332" lon="4.47595">
        <ele>82.2</ele>
        <time>2021-10-24T09:39:30Z</time>
      </trkpt>
      <trkpt lat="44.18334" lon="4.47604">
        <ele>82.4</ele>
        <time>2021-10-24T09:39:31Z</time>
      </trkpt>
      <trkpt lat="44.18336" lon="4.47613">
        <ele>82.8</ele>
        <time>2021-10-24T09:39:32Z</time>
      </trkpt>
      <trkpt lat="44.18338" lon="4.47621">
        <ele>82.8</ele>
        <time>2021-10-24T09:39:33Z</time>
      </trkpt>
      <trkpt lat="44.18339" lon="4.4763">
        <ele>83</ele>
        <time>2021-10-24T09:39:34Z</time>
      </trkpt>
      <trkpt lat="44.18341" lon="4.47638">
        <ele>83</ele>
        <time>2021-10-24T09:39:35Z</time>
      </trkpt>
      <trkpt lat="44.18343" lon="4.47646">
        <ele>83.4</ele>
        <time>2021-10-24T09:39:36Z</time>
      </trkpt>
      <trkpt lat="44.18344" lon="4.47654">
        <ele>83.6</ele>
        <time>2021-10-24T09:39:37Z</time>
      </trkpt>
      <trkpt lat="44.18346" lon="4.47662">
        <ele>83.8</ele>
        <time>2021-10-24T09:39:38Z</time>
      </trkpt>
      <trkpt lat="44.18347" lon="4.4767">
        <ele>84</ele>
        <time>2021-10-24T09:39:39Z</time>
      </trkpt>
      <trkpt lat="44.18349" lon="4.47678">
        <ele>84.2</ele>
        <time>2021-10-24T09:39:40Z</time>
      </trkpt>
      <trkpt lat="44.1835" lon="4.47687">
        <ele>84.2</ele>
        <time>2021-10-24T09:39:41Z</time>
      </trkpt>
      <trkpt lat="44.18351" lon="4.47695">
        <ele>84.2</ele>
        <time>2021-10-24T09:39:42Z</time>
      </trkpt>
      <trkpt lat="44.18351" lon="4.47702">
        <ele>84.6</ele>
        <time>2021-10-24T09:39:43Z</time>
      </trkpt>
      <trkpt lat="44.18352" lon="4.47709">
        <ele>84.4</ele>
        <time>2021-10-24T09:39:44Z</time>
      </trkpt>
      <trkpt lat="44.18353" lon="4.47715">
        <ele>84.8</ele>
        <time>2021-10-24T09:39:45Z</time>
      </trkpt>
      <trkpt lat="44.18353" lon="4.47721">
        <ele>84.8</ele>
        <time>2021-10-24T09:39:46Z</time>
      </trkpt>
      <trkpt lat="44.18354" lon="4.47725">
        <ele>85</ele>
        <time>2021-10-24T09:39:47Z</time>
      </trkpt>
      <trkpt lat="44.18355" lon="4.47728">
        <ele>85</ele>
        <time>2021-10-24T09:39:48Z</time>
      </trkpt>
      <trkpt lat="44.18358" lon="4.47731">
        <ele>85.2</ele>
        <time>2021-10-24T09:39:49Z</time>
      </trkpt>
      <trkpt lat="44.18362" lon="4.47733">
        <ele>85.2</ele>
        <time>2021-10-24T09:39:50Z</time>
      </trkpt>
      <trkpt lat="44.18367" lon="4.47733">
        <ele>85.2</ele>
        <time>2021-10-24T09:39:51Z</time>
      </trkpt>
      <trkpt lat="44.18372" lon="4.47734">
        <ele>85.2</ele>
        <time>2021-10-24T09:39:52Z</time>
      </trkpt>
      <trkpt lat="44.18378" lon="4.47734">
        <ele>85.2</ele>
        <time>2021-10-24T09:39:53Z</time>
      </trkpt>
      <trkpt lat="44.18384" lon="4.47734">
        <ele>85.2</ele>
        <time>2021-10-24T09:39:54Z</time>
      </trkpt>
      <trkpt lat="44.18391" lon="4.47734">
        <ele>85.4</ele>
        <time>2021-10-24T09:39:55Z</time>
      </trkpt>
      <trkpt lat="44.18397" lon="4.47734">
        <ele>85.4</ele>
        <time>2021-10-24T09:39:56Z</time>
      </trkpt>
      <trkpt lat="44.18405" lon="4.47734">
        <ele>85.2</ele>
        <time>2021-10-24T09:39:57Z</time>
      </trkpt>
      <trkpt lat="44.18412" lon="4.47734">
        <ele>85.4</ele>
        <time>2021-10-24T09:39:58Z</time>
      </trkpt>
      <trkpt lat="44.1842" lon="4.47734">
        <ele>85.4</ele>
        <time>2021-10-24T09:39:59Z</time>
      </trkpt>
      <trkpt lat="44.18428" lon="4.47734">
        <ele>85.4</ele>
        <time>2021-10-24T09:40:00Z</time>
      </trkpt>
      <trkpt lat="44.18436" lon="4.47734">
        <ele>85.4</ele>
        <time>2021-10-24T09:40:01Z</time>
      </trkpt>
      <trkpt lat="44.18444" lon="4.47735">
        <ele>85.6</ele>
        <time>2021-10-24T09:40:02Z</time>
      </trkpt>
      <trkpt lat="44.18452" lon="4.47735">
        <ele>85.6</ele>
        <time>2021-10-24T09:40:03Z</time>
      </trkpt>
      <trkpt lat="44.1846" lon="4.47735">
        <ele>85.4</ele>
        <time>2021-10-24T09:40:04Z</time>
      </trkpt>
      <trkpt lat="44.18468" lon="4.47735">
        <ele>85.8</ele>
        <time>2021-10-24T09:40:05Z</time>
      </trkpt>
      <trkpt lat="44.18476" lon="4.47735">
        <ele>86.2</ele>
        <time>2021-10-24T09:40:06Z</time>
      </trkpt>
      <trkpt lat="44.18485" lon="4.47735">
        <ele>85.8</ele>
        <time>2021-10-24T09:40:07Z</time>
      </trkpt>
      <trkpt lat="44.18493" lon="4.47735">
        <ele>86</ele>
        <time>2021-10-24T09:40:08Z</time>
      </trkpt>
      <trkpt lat="44.18501" lon="4.47735">
        <ele>85.8</ele>
        <time>2021-10-24T09:40:09Z</time>
      </trkpt>
      <trkpt lat="44.18509" lon="4.47735">
        <ele>85.6</ele>
        <time>2021-10-24T09:40:10Z</time>
      </trkpt>
      <trkpt lat="44.18518" lon="4.47735">
        <ele>85.8</ele>
        <time>2021-10-24T09:40:11Z</time>
      </trkpt>
      <trkpt lat="44.18526" lon="4.47736">
        <ele>85.6</ele>
        <time>2021-10-24T09:40:12Z</time>
      </trkpt>
      <trkpt lat="44.18534" lon="4.47737">
        <ele>85.8</ele>
        <time>2021-10-24T09:40:13Z</time>
      </trkpt>
      <trkpt lat="44.18542" lon="4.4774">
        <ele>85.6</ele>
        <time>2021-10-24T09:40:14Z</time>
      </trkpt>
      <trkpt lat="44.1855" lon="4.47744">
        <ele>85.4</ele>
        <time>2021-10-24T09:40:15Z</time>
      </trkpt>
      <trkpt lat="44.18557" lon="4.47749">
        <ele>85.4</ele>
        <time>2021-10-24T09:40:16Z</time>
      </trkpt>
      <trkpt lat="44.18564" lon="4.47755">
        <ele>85.6</ele>
        <time>2021-10-24T09:40:17Z</time>
      </trkpt>
      <trkpt lat="44.1857" lon="4.47762">
        <ele>85.6</ele>
        <time>2021-10-24T09:40:18Z</time>
      </trkpt>
      <trkpt lat="44.18577" lon="4.47769">
        <ele>85.4</ele>
        <time>2021-10-24T09:40:19Z</time>
      </trkpt>
      <trkpt lat="44.18584" lon="4.47775">
        <ele>85.6</ele>
        <time>2021-10-24T09:40:20Z</time>
      </trkpt>
      <trkpt lat="44.1859" lon="4.47782">
        <ele>85.6</ele>
        <time>2021-10-24T09:40:21Z</time>
      </trkpt>
      <trkpt lat="44.18597" lon="4.47789">
        <ele>85.6</ele>
        <time>2021-10-24T09:40:22Z</time>
      </trkpt>
      <trkpt lat="44.18604" lon="4.47796">
        <ele>85.6</ele>
        <time>2021-10-24T09:40:23Z</time>
      </trkpt>
      <trkpt lat="44.1861" lon="4.47803">
        <ele>85.6</ele>
        <time>2021-10-24T09:40:24Z</time>
      </trkpt>
      <trkpt lat="44.18617" lon="4.4781">
        <ele>85.6</ele>
        <time>2021-10-24T09:40:25Z</time>
      </trkpt>
      <trkpt lat="44.18624" lon="4.47816">
        <ele>85.4</ele>
        <time>2021-10-24T09:40:26Z</time>
      </trkpt>
      <trkpt lat="44.18631" lon="4.47823">
        <ele>85.2</ele>
        <time>2021-10-24T09:40:27Z</time>
      </trkpt>
      <trkpt lat="44.18638" lon="4.4783">
        <ele>85.4</ele>
        <time>2021-10-24T09:40:28Z</time>
      </trkpt>
      <trkpt lat="44.18645" lon="4.47837">
        <ele>85.4</ele>
        <time>2021-10-24T09:40:29Z</time>
      </trkpt>
      <trkpt lat="44.18652" lon="4.47844">
        <ele>85</ele>
        <time>2021-10-24T09:40:30Z</time>
      </trkpt>
      <trkpt lat="44.18659" lon="4.47851">
        <ele>85</ele>
        <time>2021-10-24T09:40:31Z</time>
      </trkpt>
      <trkpt lat="44.18666" lon="4.47858">
        <ele>84.8</ele>
        <time>2021-10-24T09:40:32Z</time>
      </trkpt>
      <trkpt lat="44.18673" lon="4.47865">
        <ele>84.8</ele>
        <time>2021-10-24T09:40:33Z</time>
      </trkpt>
      <trkpt lat="44.1868" lon="4.47872">
        <ele>84.8</ele>
        <time>2021-10-24T09:40:34Z</time>
      </trkpt>
      <trkpt lat="44.18687" lon="4.47878">
        <ele>84.6</ele>
        <time>2021-10-24T09:40:35Z</time>
      </trkpt>
      <trkpt lat="44.18693" lon="4.47885">
        <ele>84.2</ele>
        <time>2021-10-24T09:40:36Z</time>
      </trkpt>
      <trkpt lat="44.187" lon="4.47892">
        <ele>84.4</ele>
        <time>2021-10-24T09:40:37Z</time>
      </trkpt>
      <trkpt lat="44.18707" lon="4.479">
        <ele>84.2</ele>
        <time>2021-10-24T09:40:38Z</time>
      </trkpt>
      <trkpt lat="44.18715" lon="4.47907">
        <ele>84.4</ele>
        <time>2021-10-24T09:40:39Z</time>
      </trkpt>
      <trkpt lat="44.18722" lon="4.47914">
        <ele>84.4</ele>
        <time>2021-10-24T09:40:40Z</time>
      </trkpt>
      <trkpt lat="44.18728" lon="4.47922">
        <ele>84</ele>
        <time>2021-10-24T09:40:41Z</time>
      </trkpt>
      <trkpt lat="44.18735" lon="4.4793">
        <ele>84.2</ele>
        <time>2021-10-24T09:40:42Z</time>
      </trkpt>
      <trkpt lat="44.18741" lon="4.47939">
        <ele>84.2</ele>
        <time>2021-10-24T09:40:43Z</time>
      </trkpt>
      <trkpt lat="44.18747" lon="4.47948">
        <ele>84.2</ele>
        <time>2021-10-24T09:40:44Z</time>
      </trkpt>
      <trkpt lat="44.18753" lon="4.47957">
        <ele>84.2</ele>
        <time>2021-10-24T09:40:45Z</time>
      </trkpt>
      <trkpt lat="44.18758" lon="4.47966">
        <ele>84.2</ele>
        <time>2021-10-24T09:40:46Z</time>
      </trkpt>
      <trkpt lat="44.18763" lon="4.47976">
        <ele>84.4</ele>
        <time>2021-10-24T09:40:47Z</time>
      </trkpt>
      <trkpt lat="44.18768" lon="4.47986">
        <ele>84</ele>
        <time>2021-10-24T09:40:48Z</time>
      </trkpt>
      <trkpt lat="44.18773" lon="4.47995">
        <ele>84</ele>
        <time>2021-10-24T09:40:49Z</time>
      </trkpt>
      <trkpt lat="44.18778" lon="4.48005">
        <ele>84</ele>
        <time>2021-10-24T09:40:50Z</time>
      </trkpt>
      <trkpt lat="44.18782" lon="4.48014">
        <ele>84.2</ele>
        <time>2021-10-24T09:40:51Z</time>
      </trkpt>
      <trkpt lat="44.18787" lon="4.48023">
        <ele>84</ele>
        <time>2021-10-24T09:40:52Z</time>
      </trkpt>
      <trkpt lat="44.18791" lon="4.48032">
        <ele>84</ele>
        <time>2021-10-24T09:40:53Z</time>
      </trkpt>
      <trkpt lat="44.18796" lon="4.48041">
        <ele>84</ele>
        <time>2021-10-24T09:40:54Z</time>
      </trkpt>
      <trkpt lat="44.188" lon="4.48049">
        <ele>84</ele>
        <time>2021-10-24T09:40:55Z</time>
      </trkpt>
      <trkpt lat="44.18805" lon="4.48058">
        <ele>84</ele>
        <time>2021-10-24T09:40:56Z</time>
      </trkpt>
      <trkpt lat="44.18809" lon="4.48067">
        <ele>84.2</ele>
        <time>2021-10-24T09:40:57Z</time>
      </trkpt>
      <trkpt lat="44.18814" lon="4.48075">
        <ele>84.4</ele>
        <time>2021-10-24T09:40:58Z</time>
      </trkpt>
      <trkpt lat="44.18818" lon="4.48083">
        <ele>84.4</ele>
        <time>2021-10-24T09:40:59Z</time>
      </trkpt>
      <trkpt lat="44.18823" lon="4.48091">
        <ele>84.4</ele>
        <time>2021-10-24T09:41:00Z</time>
      </trkpt>
      <trkpt lat="44.18827" lon="4.48099">
        <ele>84.6</ele>
        <time>2021-10-24T09:41:01Z</time>
      </trkpt>
      <trkpt lat="44.18831" lon="4.48107">
        <ele>85</ele>
        <time>2021-10-24T09:41:02Z</time>
      </trkpt>
      <trkpt lat="44.18835" lon="4.48115">
        <ele>85.2</ele>
        <time>2021-10-24T09:41:03Z</time>
      </trkpt>
      <trkpt lat="44.1884" lon="4.48122">
        <ele>85.2</ele>
        <time>2021-10-24T09:41:04Z</time>
      </trkpt>
      <trkpt lat="44.18845" lon="4.48129">
        <ele>85.2</ele>
        <time>2021-10-24T09:41:05Z</time>
      </trkpt>
      <trkpt lat="44.1885" lon="4.48136">
        <ele>85</ele>
        <time>2021-10-24T09:41:06Z</time>
      </trkpt>
      <trkpt lat="44.18855" lon="4.48142">
        <ele>85.2</ele>
        <time>2021-10-24T09:41:07Z</time>
      </trkpt>
      <trkpt lat="44.18861" lon="4.48148">
        <ele>85.4</ele>
        <time>2021-10-24T09:41:08Z</time>
      </trkpt>
      <trkpt lat="44.18867" lon="4.48153">
        <ele>85.6</ele>
        <time>2021-10-24T09:41:09Z</time>
      </trkpt>
      <trkpt lat="44.18873" lon="4.48158">
        <ele>85.6</ele>
        <time>2021-10-24T09:41:10Z</time>
      </trkpt>
      <trkpt lat="44.18879" lon="4.48162">
        <ele>85.8</ele>
        <time>2021-10-24T09:41:11Z</time>
      </trkpt>
      <trkpt lat="44.18886" lon="4.48166">
        <ele>86</ele>
        <time>2021-10-24T09:41:12Z</time>
      </trkpt>
      <trkpt lat="44.18893" lon="4.48169">
        <ele>86.2</ele>
        <time>2021-10-24T09:41:13Z</time>
      </trkpt>
      <trkpt lat="44.18901" lon="4.48171">
        <ele>86.2</ele>
        <time>2021-10-24T09:41:14Z</time>
      </trkpt>
      <trkpt lat="44.18908" lon="4.48173">
        <ele>86.4</ele>
        <time>2021-10-24T09:41:15Z</time>
      </trkpt>
      <trkpt lat="44.18916" lon="4.48175">
        <ele>86.4</ele>
        <time>2021-10-24T09:41:16Z</time>
      </trkpt>
      <trkpt lat="44.18924" lon="4.48176">
        <ele>86.2</ele>
        <time>2021-10-24T09:41:17Z</time>
      </trkpt>
      <trkpt lat="44.18932" lon="4.48178">
        <ele>86</ele>
        <time>2021-10-24T09:41:18Z</time>
      </trkpt>
      <trkpt lat="44.1894" lon="4.4818">
        <ele>86</ele>
        <time>2021-10-24T09:41:19Z</time>
      </trkpt>
      <trkpt lat="44.18948" lon="4.48182">
        <ele>86.2</ele>
        <time>2021-10-24T09:41:20Z</time>
      </trkpt>
      <trkpt lat="44.18956" lon="4.48184">
        <ele>86</ele>
        <time>2021-10-24T09:41:21Z</time>
      </trkpt>
      <trkpt lat="44.18965" lon="4.48186">
        <ele>85.4</ele>
        <time>2021-10-24T09:41:22Z</time>
      </trkpt>
      <trkpt lat="44.18973" lon="4.48188">
        <ele>85.2</ele>
        <time>2021-10-24T09:41:23Z</time>
      </trkpt>
      <trkpt lat="44.18982" lon="4.48189">
        <ele>85.2</ele>
        <time>2021-10-24T09:41:24Z</time>
      </trkpt>
      <trkpt lat="44.18991" lon="4.48192">
        <ele>84.8</ele>
        <time>2021-10-24T09:41:25Z</time>
      </trkpt>
      <trkpt lat="44.18999" lon="4.48194">
        <ele>84.8</ele>
        <time>2021-10-24T09:41:26Z</time>
      </trkpt>
      <trkpt lat="44.19009" lon="4.48196">
        <ele>84.8</ele>
        <time>2021-10-24T09:41:27Z</time>
      </trkpt>
      <trkpt lat="44.19018" lon="4.48198">
        <ele>84.6</ele>
        <time>2021-10-24T09:41:28Z</time>
      </trkpt>
      <trkpt lat="44.19027" lon="4.48201">
        <ele>84.4</ele>
        <time>2021-10-24T09:41:29Z</time>
      </trkpt>
      <trkpt lat="44.19037" lon="4.48203">
        <ele>84</ele>
        <time>2021-10-24T09:41:30Z</time>
      </trkpt>
      <trkpt lat="44.19046" lon="4.48205">
        <ele>84</ele>
        <time>2021-10-24T09:41:31Z</time>
      </trkpt>
      <trkpt lat="44.19056" lon="4.48207">
        <ele>83.8</ele>
        <time>2021-10-24T09:41:32Z</time>
      </trkpt>
      <trkpt lat="44.19066" lon="4.48209">
        <ele>83.4</ele>
        <time>2021-10-24T09:41:33Z</time>
      </trkpt>
      <trkpt lat="44.19076" lon="4.48209">
        <ele>83.2</ele>
        <time>2021-10-24T09:41:34Z</time>
      </trkpt>
      <trkpt lat="44.19086" lon="4.48208">
        <ele>83</ele>
        <time>2021-10-24T09:41:35Z</time>
      </trkpt>
      <trkpt lat="44.19096" lon="4.48207">
        <ele>82.6</ele>
        <time>2021-10-24T09:41:36Z</time>
      </trkpt>
      <trkpt lat="44.19107" lon="4.48204">
        <ele>82.4</ele>
        <time>2021-10-24T09:41:37Z</time>
      </trkpt>
      <trkpt lat="44.19117" lon="4.48201">
        <ele>82.2</ele>
        <time>2021-10-24T09:41:38Z</time>
      </trkpt>
      <trkpt lat="44.19127" lon="4.48197">
        <ele>81.6</ele>
        <time>2021-10-24T09:41:39Z</time>
      </trkpt>
      <trkpt lat="44.19137" lon="4.48192">
        <ele>81.4</ele>
        <time>2021-10-24T09:41:40Z</time>
      </trkpt>
      <trkpt lat="44.19147" lon="4.48186">
        <ele>81</ele>
        <time>2021-10-24T09:41:41Z</time>
      </trkpt>
      <trkpt lat="44.19157" lon="4.48178">
        <ele>80.6</ele>
        <time>2021-10-24T09:41:42Z</time>
      </trkpt>
      <trkpt lat="44.19166" lon="4.4817">
        <ele>80</ele>
        <time>2021-10-24T09:41:43Z</time>
      </trkpt>
      <trkpt lat="44.19176" lon="4.48162">
        <ele>79.8</ele>
        <time>2021-10-24T09:41:44Z</time>
      </trkpt>
      <trkpt lat="44.19185" lon="4.48153">
        <ele>79.6</ele>
        <time>2021-10-24T09:41:45Z</time>
      </trkpt>
      <trkpt lat="44.19194" lon="4.48145">
        <ele>79</ele>
        <time>2021-10-24T09:41:46Z</time>
      </trkpt>
      <trkpt lat="44.19203" lon="4.48136">
        <ele>78.4</ele>
        <time>2021-10-24T09:41:47Z</time>
      </trkpt>
      <trkpt lat="44.19212" lon="4.48127">
        <ele>78.2</ele>
        <time>2021-10-24T09:41:48Z</time>
      </trkpt>
      <trkpt lat="44.1922" lon="4.48118">
        <ele>78</ele>
        <time>2021-10-24T09:41:49Z</time>
      </trkpt>
      <trkpt lat="44.19228" lon="4.4811">
        <ele>77.4</ele>
        <time>2021-10-24T09:41:50Z</time>
      </trkpt>
      <trkpt lat="44.19236" lon="4.48102">
        <ele>77</ele>
        <time>2021-10-24T09:41:51Z</time>
      </trkpt>
      <trkpt lat="44.19244" lon="4.48095">
        <ele>77</ele>
        <time>2021-10-24T09:41:52Z</time>
      </trkpt>
      <trkpt lat="44.19251" lon="4.48087">
        <ele>76.8</ele>
        <time>2021-10-24T09:41:53Z</time>
      </trkpt>
      <trkpt lat="44.19259" lon="4.4808">
        <ele>76.6</ele>
        <time>2021-10-24T09:41:54Z</time>
      </trkpt>
      <trkpt lat="44.19266" lon="4.48073">
        <ele>76.4</ele>
        <time>2021-10-24T09:41:55Z</time>
      </trkpt>
      <trkpt lat="44.19272" lon="4.48066">
        <ele>76.4</ele>
        <time>2021-10-24T09:41:56Z</time>
      </trkpt>
      <trkpt lat="44.19279" lon="4.4806">
        <ele>76.2</ele>
        <time>2021-10-24T09:41:57Z</time>
      </trkpt>
      <trkpt lat="44.19286" lon="4.48053">
        <ele>76</ele>
        <time>2021-10-24T09:41:58Z</time>
      </trkpt>
      <trkpt lat="44.19292" lon="4.48047">
        <ele>76.2</ele>
        <time>2021-10-24T09:41:59Z</time>
      </trkpt>
      <trkpt lat="44.19299" lon="4.48041">
        <ele>76.4</ele>
        <time>2021-10-24T09:42:00Z</time>
      </trkpt>
      <trkpt lat="44.19305" lon="4.48035">
        <ele>76.8</ele>
        <time>2021-10-24T09:42:01Z</time>
      </trkpt>
      <trkpt lat="44.19311" lon="4.48029">
        <ele>77</ele>
        <time>2021-10-24T09:42:02Z</time>
      </trkpt>
      <trkpt lat="44.19317" lon="4.48023">
        <ele>77.2</ele>
        <time>2021-10-24T09:42:03Z</time>
      </trkpt>
      <trkpt lat="44.19323" lon="4.48017">
        <ele>77.2</ele>
        <time>2021-10-24T09:42:04Z</time>
      </trkpt>
      <trkpt lat="44.19329" lon="4.48011">
        <ele>77.4</ele>
        <time>2021-10-24T09:42:05Z</time>
      </trkpt>
      <trkpt lat="44.19335" lon="4.48006">
        <ele>77.6</ele>
        <time>2021-10-24T09:42:06Z</time>
      </trkpt>
      <trkpt lat="44.1934" lon="4.48">
        <ele>77.8</ele>
        <time>2021-10-24T09:42:07Z</time>
      </trkpt>
      <trkpt lat="44.19346" lon="4.47995">
        <ele>77.8</ele>
        <time>2021-10-24T09:42:08Z</time>
      </trkpt>
      <trkpt lat="44.19352" lon="4.4799">
        <ele>78</ele>
        <time>2021-10-24T09:42:09Z</time>
      </trkpt>
      <trkpt lat="44.19357" lon="4.47984">
        <ele>78</ele>
        <time>2021-10-24T09:42:10Z</time>
      </trkpt>
      <trkpt lat="44.19363" lon="4.47979">
        <ele>77.8</ele>
        <time>2021-10-24T09:42:11Z</time>
      </trkpt>
      <trkpt lat="44.19368" lon="4.47974">
        <ele>77.8</ele>
        <time>2021-10-24T09:42:12Z</time>
      </trkpt>
      <trkpt lat="44.19373" lon="4.47969">
        <ele>78.2</ele>
        <time>2021-10-24T09:42:13Z</time>
      </trkpt>
      <trkpt lat="44.19379" lon="4.47964">
        <ele>78.6</ele>
        <time>2021-10-24T09:42:14Z</time>
      </trkpt>
      <trkpt lat="44.19384" lon="4.47959">
        <ele>78.6</ele>
        <time>2021-10-24T09:42:15Z</time>
      </trkpt>
      <trkpt lat="44.19389" lon="4.47954">
        <ele>79</ele>
        <time>2021-10-24T09:42:16Z</time>
      </trkpt>
      <trkpt lat="44.19394" lon="4.47949">
        <ele>79.2</ele>
        <time>2021-10-24T09:42:17Z</time>
      </trkpt>
      <trkpt lat="44.19399" lon="4.47944">
        <ele>79.4</ele>
        <time>2021-10-24T09:42:18Z</time>
      </trkpt>
      <trkpt lat="44.19405" lon="4.47939">
        <ele>79.4</ele>
        <time>2021-10-24T09:42:19Z</time>
      </trkpt>
      <trkpt lat="44.1941" lon="4.47934">
        <ele>79.6</ele>
        <time>2021-10-24T09:42:20Z</time>
      </trkpt>
      <trkpt lat="44.19416" lon="4.47928">
        <ele>80</ele>
        <time>2021-10-24T09:42:21Z</time>
      </trkpt>
      <trkpt lat="44.19421" lon="4.47923">
        <ele>80.4</ele>
        <time>2021-10-24T09:42:22Z</time>
      </trkpt>
      <trkpt lat="44.19427" lon="4.47918">
        <ele>80.4</ele>
        <time>2021-10-24T09:42:23Z</time>
      </trkpt>
      <trkpt lat="44.19432" lon="4.47912">
        <ele>80.6</ele>
        <time>2021-10-24T09:42:24Z</time>
      </trkpt>
      <trkpt lat="44.19438" lon="4.47907">
        <ele>80.8</ele>
        <time>2021-10-24T09:42:25Z</time>
      </trkpt>
      <trkpt lat="44.19443" lon="4.47902">
        <ele>81</ele>
        <time>2021-10-24T09:42:26Z</time>
      </trkpt>
      <trkpt lat="44.19449" lon="4.47897">
        <ele>81.2</ele>
        <time>2021-10-24T09:42:27Z</time>
      </trkpt>
      <trkpt lat="44.19455" lon="4.47892">
        <ele>81.2</ele>
        <time>2021-10-24T09:42:28Z</time>
      </trkpt>
      <trkpt lat="44.1946" lon="4.47886">
        <ele>81.4</ele>
        <time>2021-10-24T09:42:29Z</time>
      </trkpt>
      <trkpt lat="44.19466" lon="4.47881">
        <ele>81.6</ele>
        <time>2021-10-24T09:42:30Z</time>
      </trkpt>
      <trkpt lat="44.19471" lon="4.47875">
        <ele>81.6</ele>
        <time>2021-10-24T09:42:31Z</time>
      </trkpt>
      <trkpt lat="44.19476" lon="4.4787">
        <ele>81.8</ele>
        <time>2021-10-24T09:42:32Z</time>
      </trkpt>
      <trkpt lat="44.19482" lon="4.47864">
        <ele>82</ele>
        <time>2021-10-24T09:42:33Z</time>
      </trkpt>
      <trkpt lat="44.19487" lon="4.47859">
        <ele>81.8</ele>
        <time>2021-10-24T09:42:34Z</time>
      </trkpt>
      <trkpt lat="44.19493" lon="4.47853">
        <ele>81.8</ele>
        <time>2021-10-24T09:42:35Z</time>
      </trkpt>
      <trkpt lat="44.19498" lon="4.47848">
        <ele>81.8</ele>
        <time>2021-10-24T09:42:36Z</time>
      </trkpt>
      <trkpt lat="44.19504" lon="4.47842">
        <ele>82</ele>
        <time>2021-10-24T09:42:37Z</time>
      </trkpt>
      <trkpt lat="44.19509" lon="4.47837">
        <ele>82.2</ele>
        <time>2021-10-24T09:42:38Z</time>
      </trkpt>
      <trkpt lat="44.19515" lon="4.47831">
        <ele>82.2</ele>
        <time>2021-10-24T09:42:39Z</time>
      </trkpt>
      <trkpt lat="44.1952" lon="4.47825">
        <ele>82.4</ele>
        <time>2021-10-24T09:42:40Z</time>
      </trkpt>
      <trkpt lat="44.19526" lon="4.47819">
        <ele>82.6</ele>
        <time>2021-10-24T09:42:41Z</time>
      </trkpt>
      <trkpt lat="44.19531" lon="4.47813">
        <ele>82.4</ele>
        <time>2021-10-24T09:42:42Z</time>
      </trkpt>
      <trkpt lat="44.19537" lon="4.47807">
        <ele>82.4</ele>
        <time>2021-10-24T09:42:43Z</time>
      </trkpt>
      <trkpt lat="44.19543" lon="4.47802">
        <ele>82.4</ele>
        <time>2021-10-24T09:42:44Z</time>
      </trkpt>
      <trkpt lat="44.19549" lon="4.47796">
        <ele>82.2</ele>
        <time>2021-10-24T09:42:45Z</time>
      </trkpt>
      <trkpt lat="44.19555" lon="4.47791">
        <ele>82</ele>
        <time>2021-10-24T09:42:46Z</time>
      </trkpt>
      <trkpt lat="44.19562" lon="4.47787">
        <ele>82</ele>
        <time>2021-10-24T09:42:47Z</time>
      </trkpt>
      <trkpt lat="44.19568" lon="4.47784">
        <ele>82.4</ele>
        <time>2021-10-24T09:42:48Z</time>
      </trkpt>
      <trkpt lat="44.19574" lon="4.47781">
        <ele>82.2</ele>
        <time>2021-10-24T09:42:49Z</time>
      </trkpt>
      <trkpt lat="44.19581" lon="4.47778">
        <ele>82.6</ele>
        <time>2021-10-24T09:42:50Z</time>
      </trkpt>
      <trkpt lat="44.19587" lon="4.47775">
        <ele>82.8</ele>
        <time>2021-10-24T09:42:51Z</time>
      </trkpt>
      <trkpt lat="44.19594" lon="4.47771">
        <ele>83</ele>
        <time>2021-10-24T09:42:52Z</time>
      </trkpt>
      <trkpt lat="44.19601" lon="4.47768">
        <ele>83.2</ele>
        <time>2021-10-24T09:42:53Z</time>
      </trkpt>
      <trkpt lat="44.19607" lon="4.47766">
        <ele>83.2</ele>
        <time>2021-10-24T09:42:54Z</time>
      </trkpt>
      <trkpt lat="44.19614" lon="4.47764">
        <ele>83.4</ele>
        <time>2021-10-24T09:42:55Z</time>
      </trkpt>
      <trkpt lat="44.19628" lon="4.47759">
        <ele>83.8</ele>
        <time>2021-10-24T09:42:57Z</time>
      </trkpt>
      <trkpt lat="44.19643" lon="4.47752">
        <ele>83.6</ele>
        <time>2021-10-24T09:42:59Z</time>
      </trkpt>
      <trkpt lat="44.19652" lon="4.47748">
        <ele>83.6</ele>
        <time>2021-10-24T09:43:00Z</time>
      </trkpt>
      <trkpt lat="44.19661" lon="4.4774">
        <ele>83.2</ele>
        <time>2021-10-24T09:43:01Z</time>
      </trkpt>
      <trkpt lat="44.1967" lon="4.47732">
        <ele>83.2</ele>
        <time>2021-10-24T09:43:02Z</time>
      </trkpt>
      <trkpt lat="44.19677" lon="4.47721">
        <ele>82.8</ele>
        <time>2021-10-24T09:43:03Z</time>
      </trkpt>
      <trkpt lat="44.19682" lon="4.47709">
        <ele>82.8</ele>
        <time>2021-10-24T09:43:04Z</time>
      </trkpt>
      <trkpt lat="44.19685" lon="4.47695">
        <ele>82.6</ele>
        <time>2021-10-24T09:43:05Z</time>
      </trkpt>
      <trkpt lat="44.19687" lon="4.47682">
        <ele>82.6</ele>
        <time>2021-10-24T09:43:06Z</time>
      </trkpt>
      <trkpt lat="44.19689" lon="4.47668">
        <ele>82.4</ele>
        <time>2021-10-24T09:43:07Z</time>
      </trkpt>
      <trkpt lat="44.19691" lon="4.47653">
        <ele>82.2</ele>
        <time>2021-10-24T09:43:08Z</time>
      </trkpt>
      <trkpt lat="44.19693" lon="4.47639">
        <ele>82</ele>
        <time>2021-10-24T09:43:09Z</time>
      </trkpt>
      <trkpt lat="44.19696" lon="4.47625">
        <ele>82</ele>
        <time>2021-10-24T09:43:10Z</time>
      </trkpt>
      <trkpt lat="44.197" lon="4.47612">
        <ele>81.6</ele>
        <time>2021-10-24T09:43:11Z</time>
      </trkpt>
      <trkpt lat="44.19704" lon="4.47599">
        <ele>81.2</ele>
        <time>2021-10-24T09:43:12Z</time>
      </trkpt>
      <trkpt lat="44.19708" lon="4.47586">
        <ele>80.8</ele>
        <time>2021-10-24T09:43:13Z</time>
      </trkpt>
      <trkpt lat="44.19713" lon="4.47573">
        <ele>80.6</ele>
        <time>2021-10-24T09:43:14Z</time>
      </trkpt>
      <trkpt lat="44.19718" lon="4.47561">
        <ele>80.2</ele>
        <time>2021-10-24T09:43:15Z</time>
      </trkpt>
      <trkpt lat="44.19724" lon="4.47549">
        <ele>80.2</ele>
        <time>2021-10-24T09:43:16Z</time>
      </trkpt>
      <trkpt lat="44.1973" lon="4.47538">
        <ele>80</ele>
        <time>2021-10-24T09:43:17Z</time>
      </trkpt>
      <trkpt lat="44.19736" lon="4.47528">
        <ele>79.6</ele>
        <time>2021-10-24T09:43:18Z</time>
      </trkpt>
      <trkpt lat="44.19742" lon="4.47518">
        <ele>79.6</ele>
        <time>2021-10-24T09:43:19Z</time>
      </trkpt>
      <trkpt lat="44.19749" lon="4.47508">
        <ele>79.2</ele>
        <time>2021-10-24T09:43:20Z</time>
      </trkpt>
      <trkpt lat="44.19756" lon="4.47499">
        <ele>78.8</ele>
        <time>2021-10-24T09:43:21Z</time>
      </trkpt>
      <trkpt lat="44.19763" lon="4.47491">
        <ele>78.6</ele>
        <time>2021-10-24T09:43:22Z</time>
      </trkpt>
      <trkpt lat="44.19771" lon="4.47483">
        <ele>78.4</ele>
        <time>2021-10-24T09:43:23Z</time>
      </trkpt>
      <trkpt lat="44.19778" lon="4.47476">
        <ele>78.4</ele>
        <time>2021-10-24T09:43:24Z</time>
      </trkpt>
      <trkpt lat="44.19786" lon="4.47469">
        <ele>78.4</ele>
        <time>2021-10-24T09:43:25Z</time>
      </trkpt>
      <trkpt lat="44.19794" lon="4.47462">
        <ele>78.2</ele>
        <time>2021-10-24T09:43:26Z</time>
      </trkpt>
      <trkpt lat="44.19801" lon="4.47455">
        <ele>78.2</ele>
        <time>2021-10-24T09:43:27Z</time>
      </trkpt>
      <trkpt lat="44.19809" lon="4.47448">
        <ele>78.4</ele>
        <time>2021-10-24T09:43:28Z</time>
      </trkpt>
      <trkpt lat="44.19816" lon="4.47441">
        <ele>78.4</ele>
        <time>2021-10-24T09:43:29Z</time>
      </trkpt>
      <trkpt lat="44.19824" lon="4.47434">
        <ele>78.4</ele>
        <time>2021-10-24T09:43:30Z</time>
      </trkpt>
      <trkpt lat="44.19831" lon="4.47427">
        <ele>78</ele>
        <time>2021-10-24T09:43:31Z</time>
      </trkpt>
      <trkpt lat="44.19838" lon="4.47419">
        <ele>78.2</ele>
        <time>2021-10-24T09:43:32Z</time>
      </trkpt>
      <trkpt lat="44.19844" lon="4.4741">
        <ele>78</ele>
        <time>2021-10-24T09:43:33Z</time>
      </trkpt>
      <trkpt lat="44.19851" lon="4.47402">
        <ele>78.2</ele>
        <time>2021-10-24T09:43:34Z</time>
      </trkpt>
      <trkpt lat="44.19857" lon="4.47393">
        <ele>78.2</ele>
        <time>2021-10-24T09:43:35Z</time>
      </trkpt>
      <trkpt lat="44.19862" lon="4.47384">
        <ele>78.2</ele>
        <time>2021-10-24T09:43:36Z</time>
      </trkpt>
      <trkpt lat="44.19868" lon="4.47375">
        <ele>78</ele>
        <time>2021-10-24T09:43:37Z</time>
      </trkpt>
      <trkpt lat="44.19873" lon="4.47366">
        <ele>78.2</ele>
        <time>2021-10-24T09:43:38Z</time>
      </trkpt>
      <trkpt lat="44.19878" lon="4.47357">
        <ele>78.2</ele>
        <time>2021-10-24T09:43:39Z</time>
      </trkpt>
      <trkpt lat="44.19884" lon="4.47347">
        <ele>78.2</ele>
        <time>2021-10-24T09:43:40Z</time>
      </trkpt>
      <trkpt lat="44.19889" lon="4.47338">
        <ele>78.2</ele>
        <time>2021-10-24T09:43:41Z</time>
      </trkpt>
      <trkpt lat="44.19894" lon="4.47329">
        <ele>78.4</ele>
        <time>2021-10-24T09:43:42Z</time>
      </trkpt>
      <trkpt lat="44.19899" lon="4.4732">
        <ele>78.2</ele>
        <time>2021-10-24T09:43:43Z</time>
      </trkpt>
      <trkpt lat="44.19904" lon="4.47311">
        <ele>78</ele>
        <time>2021-10-24T09:43:44Z</time>
      </trkpt>
      <trkpt lat="44.1991" lon="4.47302">
        <ele>78.2</ele>
        <time>2021-10-24T09:43:45Z</time>
      </trkpt>
      <trkpt lat="44.19916" lon="4.47294">
        <ele>78.2</ele>
        <time>2021-10-24T09:43:46Z</time>
      </trkpt>
      <trkpt lat="44.19922" lon="4.47286">
        <ele>78</ele>
        <time>2021-10-24T09:43:47Z</time>
      </trkpt>
      <trkpt lat="44.19929" lon="4.4728">
        <ele>78.2</ele>
        <time>2021-10-24T09:43:48Z</time>
      </trkpt>
      <trkpt lat="44.19937" lon="4.47275">
        <ele>78.2</ele>
        <time>2021-10-24T09:43:49Z</time>
      </trkpt>
      <trkpt lat="44.19945" lon="4.47271">
        <ele>78.4</ele>
        <time>2021-10-24T09:43:50Z</time>
      </trkpt>
      <trkpt lat="44.19952" lon="4.47267">
        <ele>78.4</ele>
        <time>2021-10-24T09:43:51Z</time>
      </trkpt>
      <trkpt lat="44.1996" lon="4.47263">
        <ele>78.4</ele>
        <time>2021-10-24T09:43:52Z</time>
      </trkpt>
      <trkpt lat="44.19968" lon="4.47259">
        <ele>78.4</ele>
        <time>2021-10-24T09:43:53Z</time>
      </trkpt>
      <trkpt lat="44.19977" lon="4.47255">
        <ele>78.4</ele>
        <time>2021-10-24T09:43:54Z</time>
      </trkpt>
      <trkpt lat="44.19985" lon="4.47252">
        <ele>78.4</ele>
        <time>2021-10-24T09:43:55Z</time>
      </trkpt>
      <trkpt lat="44.19993" lon="4.47248">
        <ele>78.2</ele>
        <time>2021-10-24T09:43:56Z</time>
      </trkpt>
      <trkpt lat="44.20001" lon="4.47244">
        <ele>78.2</ele>
        <time>2021-10-24T09:43:57Z</time>
      </trkpt>
      <trkpt lat="44.20009" lon="4.4724">
        <ele>78</ele>
        <time>2021-10-24T09:43:58Z</time>
      </trkpt>
      <trkpt lat="44.20017" lon="4.47236">
        <ele>78.2</ele>
        <time>2021-10-24T09:43:59Z</time>
      </trkpt>
      <trkpt lat="44.20025" lon="4.47233">
        <ele>78</ele>
        <time>2021-10-24T09:44:00Z</time>
      </trkpt>
      <trkpt lat="44.20033" lon="4.47229">
        <ele>78</ele>
        <time>2021-10-24T09:44:01Z</time>
      </trkpt>
      <trkpt lat="44.20041" lon="4.47225">
        <ele>78</ele>
        <time>2021-10-24T09:44:02Z</time>
      </trkpt>
      <trkpt lat="44.20049" lon="4.47221">
        <ele>78</ele>
        <time>2021-10-24T09:44:03Z</time>
      </trkpt>
      <trkpt lat="44.20057" lon="4.47217">
        <ele>78</ele>
        <time>2021-10-24T09:44:04Z</time>
      </trkpt>
      <trkpt lat="44.20064" lon="4.47212">
        <ele>78.2</ele>
        <time>2021-10-24T09:44:05Z</time>
      </trkpt>
      <trkpt lat="44.20072" lon="4.47208">
        <ele>78</ele>
        <time>2021-10-24T09:44:06Z</time>
      </trkpt>
      <trkpt lat="44.2008" lon="4.47203">
        <ele>78</ele>
        <time>2021-10-24T09:44:07Z</time>
      </trkpt>
      <trkpt lat="44.20087" lon="4.47197">
        <ele>78.2</ele>
        <time>2021-10-24T09:44:08Z</time>
      </trkpt>
      <trkpt lat="44.20094" lon="4.47192">
        <ele>78.4</ele>
        <time>2021-10-24T09:44:09Z</time>
      </trkpt>
      <trkpt lat="44.20102" lon="4.47187">
        <ele>78.4</ele>
        <time>2021-10-24T09:44:10Z</time>
      </trkpt>
      <trkpt lat="44.20109" lon="4.47181">
        <ele>78.6</ele>
        <time>2021-10-24T09:44:11Z</time>
      </trkpt>
      <trkpt lat="44.20116" lon="4.47176">
        <ele>78.6</ele>
        <time>2021-10-24T09:44:12Z</time>
      </trkpt>
      <trkpt lat="44.20123" lon="4.4717">
        <ele>78.4</ele>
        <time>2021-10-24T09:44:13Z</time>
      </trkpt>
      <trkpt lat="44.20131" lon="4.47165">
        <ele>78.4</ele>
        <time>2021-10-24T09:44:14Z</time>
      </trkpt>
      <trkpt lat="44.20138" lon="4.4716">
        <ele>78.4</ele>
        <time>2021-10-24T09:44:15Z</time>
      </trkpt>
      <trkpt lat="44.20145" lon="4.47154">
        <ele>78.4</ele>
        <time>2021-10-24T09:44:16Z</time>
      </trkpt>
      <trkpt lat="44.20152" lon="4.47149">
        <ele>78.4</ele>
        <time>2021-10-24T09:44:17Z</time>
      </trkpt>
      <trkpt lat="44.2016" lon="4.47143">
        <ele>78.6</ele>
        <time>2021-10-24T09:44:18Z</time>
      </trkpt>
      <trkpt lat="44.20167" lon="4.47138">
        <ele>78.4</ele>
        <time>2021-10-24T09:44:19Z</time>
      </trkpt>
      <trkpt lat="44.20174" lon="4.47133">
        <ele>78.2</ele>
        <time>2021-10-24T09:44:20Z</time>
      </trkpt>
      <trkpt lat="44.20181" lon="4.47127">
        <ele>78</ele>
        <time>2021-10-24T09:44:21Z</time>
      </trkpt>
      <trkpt lat="44.20189" lon="4.47122">
        <ele>77.8</ele>
        <time>2021-10-24T09:44:22Z</time>
      </trkpt>
      <trkpt lat="44.20196" lon="4.47117">
        <ele>78</ele>
        <time>2021-10-24T09:44:23Z</time>
      </trkpt>
      <trkpt lat="44.20203" lon="4.47111">
        <ele>78</ele>
        <time>2021-10-24T09:44:24Z</time>
      </trkpt>
      <trkpt lat="44.20211" lon="4.47106">
        <ele>78</ele>
        <time>2021-10-24T09:44:25Z</time>
      </trkpt>
      <trkpt lat="44.20218" lon="4.471">
        <ele>78.2</ele>
        <time>2021-10-24T09:44:26Z</time>
      </trkpt>
      <trkpt lat="44.20225" lon="4.47095">
        <ele>78</ele>
        <time>2021-10-24T09:44:27Z</time>
      </trkpt>
      <trkpt lat="44.20233" lon="4.4709">
        <ele>78.2</ele>
        <time>2021-10-24T09:44:28Z</time>
      </trkpt>
      <trkpt lat="44.2024" lon="4.47084">
        <ele>78</ele>
        <time>2021-10-24T09:44:29Z</time>
      </trkpt>
      <trkpt lat="44.20247" lon="4.47079">
        <ele>78.2</ele>
        <time>2021-10-24T09:44:30Z</time>
      </trkpt>
      <trkpt lat="44.20255" lon="4.47073">
        <ele>78.2</ele>
        <time>2021-10-24T09:44:31Z</time>
      </trkpt>
      <trkpt lat="44.20262" lon="4.47067">
        <ele>78</ele>
        <time>2021-10-24T09:44:32Z</time>
      </trkpt>
      <trkpt lat="44.20269" lon="4.47061">
        <ele>78</ele>
        <time>2021-10-24T09:44:33Z</time>
      </trkpt>
      <trkpt lat="44.20275" lon="4.47053">
        <ele>78.2</ele>
        <time>2021-10-24T09:44:34Z</time>
      </trkpt>
      <trkpt lat="44.20281" lon="4.47046">
        <ele>78</ele>
        <time>2021-10-24T09:44:35Z</time>
      </trkpt>
      <trkpt lat="44.20287" lon="4.47038">
        <ele>78</ele>
        <time>2021-10-24T09:44:36Z</time>
      </trkpt>
      <trkpt lat="44.20293" lon="4.47029">
        <ele>77.8</ele>
        <time>2021-10-24T09:44:37Z</time>
      </trkpt>
      <trkpt lat="44.20297" lon="4.4702">
        <ele>77.8</ele>
        <time>2021-10-24T09:44:38Z</time>
      </trkpt>
      <trkpt lat="44.20302" lon="4.4701">
        <ele>77.8</ele>
        <time>2021-10-24T09:44:39Z</time>
      </trkpt>
      <trkpt lat="44.20306" lon="4.47">
        <ele>77.6</ele>
        <time>2021-10-24T09:44:40Z</time>
      </trkpt>
      <trkpt lat="44.20309" lon="4.4699">
        <ele>77.8</ele>
        <time>2021-10-24T09:44:41Z</time>
      </trkpt>
      <trkpt lat="44.20313" lon="4.4698">
        <ele>77.6</ele>
        <time>2021-10-24T09:44:42Z</time>
      </trkpt>
      <trkpt lat="44.20316" lon="4.46971">
        <ele>77.8</ele>
        <time>2021-10-24T09:44:43Z</time>
      </trkpt>
      <trkpt lat="44.20321" lon="4.46961">
        <ele>78</ele>
        <time>2021-10-24T09:44:44Z</time>
      </trkpt>
      <trkpt lat="44.20325" lon="4.46952">
        <ele>78</ele>
        <time>2021-10-24T09:44:45Z</time>
      </trkpt>
      <trkpt lat="44.20331" lon="4.46944">
        <ele>77.8</ele>
        <time>2021-10-24T09:44:46Z</time>
      </trkpt>
      <trkpt lat="44.20336" lon="4.46937">
        <ele>77.6</ele>
        <time>2021-10-24T09:44:47Z</time>
      </trkpt>
      <trkpt lat="44.20341" lon="4.4693">
        <ele>78</ele>
        <time>2021-10-24T09:44:48Z</time>
      </trkpt>
      <trkpt lat="44.20347" lon="4.46923">
        <ele>78.2</ele>
        <time>2021-10-24T09:44:49Z</time>
      </trkpt>
      <trkpt lat="44.20352" lon="4.46917">
        <ele>78.4</ele>
        <time>2021-10-24T09:44:50Z</time>
      </trkpt>
      <trkpt lat="44.20357" lon="4.4691">
        <ele>78.4</ele>
        <time>2021-10-24T09:44:51Z</time>
      </trkpt>
      <trkpt lat="44.20362" lon="4.46903">
        <ele>78.4</ele>
        <time>2021-10-24T09:44:52Z</time>
      </trkpt>
      <trkpt lat="44.20367" lon="4.46896">
        <ele>78.4</ele>
        <time>2021-10-24T09:44:53Z</time>
      </trkpt>
      <trkpt lat="44.20372" lon="4.46888">
        <ele>78.4</ele>
        <time>2021-10-24T09:44:54Z</time>
      </trkpt>
      <trkpt lat="44.20375" lon="4.46879">
        <ele>78.4</ele>
        <time>2021-10-24T09:44:55Z</time>
      </trkpt>
      <trkpt lat="44.20377" lon="4.46869">
        <ele>78.4</ele>
        <time>2021-10-24T09:44:56Z</time>
      </trkpt>
      <trkpt lat="44.20378" lon="4.46859">
        <ele>78.4</ele>
        <time>2021-10-24T09:44:57Z</time>
      </trkpt>
      <trkpt lat="44.20379" lon="4.46849">
        <ele>78.6</ele>
        <time>2021-10-24T09:44:58Z</time>
      </trkpt>
      <trkpt lat="44.20379" lon="4.46839">
        <ele>79</ele>
        <time>2021-10-24T09:44:59Z</time>
      </trkpt>
      <trkpt lat="44.20379" lon="4.46829">
        <ele>79.2</ele>
        <time>2021-10-24T09:45:00Z</time>
      </trkpt>
      <trkpt lat="44.20379" lon="4.46818">
        <ele>79</ele>
        <time>2021-10-24T09:45:01Z</time>
      </trkpt>
      <trkpt lat="44.20379" lon="4.46807">
        <ele>79</ele>
        <time>2021-10-24T09:45:02Z</time>
      </trkpt>
      <trkpt lat="44.20378" lon="4.46797">
        <ele>79</ele>
        <time>2021-10-24T09:45:03Z</time>
      </trkpt>
      <trkpt lat="44.20379" lon="4.46787">
        <ele>79</ele>
        <time>2021-10-24T09:45:04Z</time>
      </trkpt>
      <trkpt lat="44.20379" lon="4.46776">
        <ele>79.2</ele>
        <time>2021-10-24T09:45:05Z</time>
      </trkpt>
      <trkpt lat="44.20379" lon="4.46766">
        <ele>79.2</ele>
        <time>2021-10-24T09:45:06Z</time>
      </trkpt>
      <trkpt lat="44.2038" lon="4.46756">
        <ele>79.4</ele>
        <time>2021-10-24T09:45:07Z</time>
      </trkpt>
      <trkpt lat="44.2038" lon="4.46746">
        <ele>79.4</ele>
        <time>2021-10-24T09:45:08Z</time>
      </trkpt>
      <trkpt lat="44.2038" lon="4.46737">
        <ele>79.4</ele>
        <time>2021-10-24T09:45:09Z</time>
      </trkpt>
      <trkpt lat="44.2038" lon="4.46727">
        <ele>79.6</ele>
        <time>2021-10-24T09:45:10Z</time>
      </trkpt>
      <trkpt lat="44.2038" lon="4.46717">
        <ele>79.6</ele>
        <time>2021-10-24T09:45:11Z</time>
      </trkpt>
      <trkpt lat="44.2038" lon="4.46706">
        <ele>79.6</ele>
        <time>2021-10-24T09:45:12Z</time>
      </trkpt>
      <trkpt lat="44.20382" lon="4.46685">
        <ele>80</ele>
        <time>2021-10-24T09:45:14Z</time>
      </trkpt>
      <trkpt lat="44.20384" lon="4.46663">
        <ele>80</ele>
        <time>2021-10-24T09:45:16Z</time>
      </trkpt>
      <trkpt lat="44.20389" lon="4.46652">
        <ele>80</ele>
        <time>2021-10-24T09:45:17Z</time>
      </trkpt>
      <trkpt lat="44.20394" lon="4.46642">
        <ele>80</ele>
        <time>2021-10-24T09:45:18Z</time>
      </trkpt>
      <trkpt lat="44.204" lon="4.46633">
        <ele>79.8</ele>
        <time>2021-10-24T09:45:19Z</time>
      </trkpt>
      <trkpt lat="44.20408" lon="4.46627">
        <ele>79.4</ele>
        <time>2021-10-24T09:45:20Z</time>
      </trkpt>
      <trkpt lat="44.20416" lon="4.46622">
        <ele>79.2</ele>
        <time>2021-10-24T09:45:21Z</time>
      </trkpt>
      <trkpt lat="44.20423" lon="4.46617">
        <ele>79</ele>
        <time>2021-10-24T09:45:22Z</time>
      </trkpt>
      <trkpt lat="44.20431" lon="4.46613">
        <ele>78.8</ele>
        <time>2021-10-24T09:45:23Z</time>
      </trkpt>
      <trkpt lat="44.20439" lon="4.46609">
        <ele>78.8</ele>
        <time>2021-10-24T09:45:24Z</time>
      </trkpt>
      <trkpt lat="44.20447" lon="4.46604">
        <ele>78.8</ele>
        <time>2021-10-24T09:45:25Z</time>
      </trkpt>
      <trkpt lat="44.20454" lon="4.466">
        <ele>78.8</ele>
        <time>2021-10-24T09:45:26Z</time>
      </trkpt>
      <trkpt lat="44.20462" lon="4.46596">
        <ele>78.8</ele>
        <time>2021-10-24T09:45:27Z</time>
      </trkpt>
      <trkpt lat="44.2047" lon="4.46591">
        <ele>79</ele>
        <time>2021-10-24T09:45:28Z</time>
      </trkpt>
      <trkpt lat="44.20478" lon="4.46587">
        <ele>78.8</ele>
        <time>2021-10-24T09:45:29Z</time>
      </trkpt>
      <trkpt lat="44.20485" lon="4.46583">
        <ele>78.8</ele>
        <time>2021-10-24T09:45:30Z</time>
      </trkpt>
      <trkpt lat="44.20493" lon="4.46579">
        <ele>78.6</ele>
        <time>2021-10-24T09:45:31Z</time>
      </trkpt>
      <trkpt lat="44.20501" lon="4.46575">
        <ele>78.6</ele>
        <time>2021-10-24T09:45:32Z</time>
      </trkpt>
      <trkpt lat="44.20508" lon="4.4657">
        <ele>78.4</ele>
        <time>2021-10-24T09:45:33Z</time>
      </trkpt>
      <trkpt lat="44.20516" lon="4.46566">
        <ele>78.6</ele>
        <time>2021-10-24T09:45:34Z</time>
      </trkpt>
      <trkpt lat="44.20523" lon="4.46562">
        <ele>78.6</ele>
        <time>2021-10-24T09:45:35Z</time>
      </trkpt>
      <trkpt lat="44.20531" lon="4.46558">
        <ele>78.4</ele>
        <time>2021-10-24T09:45:36Z</time>
      </trkpt>
      <trkpt lat="44.20538" lon="4.46554">
        <ele>78.4</ele>
        <time>2021-10-24T09:45:37Z</time>
      </trkpt>
      <trkpt lat="44.20545" lon="4.4655">
        <ele>78.8</ele>
        <time>2021-10-24T09:45:38Z</time>
      </trkpt>
      <trkpt lat="44.20553" lon="4.46546">
        <ele>78.8</ele>
        <time>2021-10-24T09:45:39Z</time>
      </trkpt>
      <trkpt lat="44.2056" lon="4.46542">
        <ele>78.8</ele>
        <time>2021-10-24T09:45:40Z</time>
      </trkpt>
      <trkpt lat="44.20567" lon="4.46539">
        <ele>78.8</ele>
        <time>2021-10-24T09:45:41Z</time>
      </trkpt>
      <trkpt lat="44.20574" lon="4.46536">
        <ele>79</ele>
        <time>2021-10-24T09:45:42Z</time>
      </trkpt>
      <trkpt lat="44.20581" lon="4.46534">
        <ele>79.2</ele>
        <time>2021-10-24T09:45:43Z</time>
      </trkpt>
      <trkpt lat="44.20587" lon="4.46533">
        <ele>79</ele>
        <time>2021-10-24T09:45:44Z</time>
      </trkpt>
      <trkpt lat="44.20594" lon="4.46531">
        <ele>79.2</ele>
        <time>2021-10-24T09:45:45Z</time>
      </trkpt>
      <trkpt lat="44.20601" lon="4.46531">
        <ele>79.4</ele>
        <time>2021-10-24T09:45:46Z</time>
      </trkpt>
      <trkpt lat="44.20608" lon="4.4653">
        <ele>79.8</ele>
        <time>2021-10-24T09:45:47Z</time>
      </trkpt>
      <trkpt lat="44.20615" lon="4.4653">
        <ele>79.8</ele>
        <time>2021-10-24T09:45:48Z</time>
      </trkpt>
      <trkpt lat="44.20622" lon="4.46531">
        <ele>80.2</ele>
        <time>2021-10-24T09:45:49Z</time>
      </trkpt>
      <trkpt lat="44.20629" lon="4.46532">
        <ele>80.2</ele>
        <time>2021-10-24T09:45:50Z</time>
      </trkpt>
      <trkpt lat="44.20637" lon="4.46533">
        <ele>80.4</ele>
        <time>2021-10-24T09:45:51Z</time>
      </trkpt>
      <trkpt lat="44.20644" lon="4.46535">
        <ele>80.4</ele>
        <time>2021-10-24T09:45:52Z</time>
      </trkpt>
      <trkpt lat="44.20651" lon="4.46538">
        <ele>80.2</ele>
        <time>2021-10-24T09:45:53Z</time>
      </trkpt>
      <trkpt lat="44.20658" lon="4.46541">
        <ele>80.6</ele>
        <time>2021-10-24T09:45:54Z</time>
      </trkpt>
      <trkpt lat="44.20666" lon="4.46545">
        <ele>80.6</ele>
        <time>2021-10-24T09:45:55Z</time>
      </trkpt>
      <trkpt lat="44.20673" lon="4.46549">
        <ele>80.4</ele>
        <time>2021-10-24T09:45:56Z</time>
      </trkpt>
      <trkpt lat="44.2068" lon="4.46554">
        <ele>80.6</ele>
        <time>2021-10-24T09:45:57Z</time>
      </trkpt>
      <trkpt lat="44.20687" lon="4.46559">
        <ele>80.6</ele>
        <time>2021-10-24T09:45:58Z</time>
      </trkpt>
      <trkpt lat="44.20694" lon="4.46564">
        <ele>80.6</ele>
        <time>2021-10-24T09:45:59Z</time>
      </trkpt>
      <trkpt lat="44.20701" lon="4.4657">
        <ele>80.6</ele>
        <time>2021-10-24T09:46:00Z</time>
      </trkpt>
      <trkpt lat="44.20708" lon="4.46576">
        <ele>80.4</ele>
        <time>2021-10-24T09:46:01Z</time>
      </trkpt>
      <trkpt lat="44.20715" lon="4.46582">
        <ele>80.4</ele>
        <time>2021-10-24T09:46:02Z</time>
      </trkpt>
      <trkpt lat="44.20722" lon="4.46588">
        <ele>80.4</ele>
        <time>2021-10-24T09:46:03Z</time>
      </trkpt>
      <trkpt lat="44.20729" lon="4.46594">
        <ele>80.6</ele>
        <time>2021-10-24T09:46:04Z</time>
      </trkpt>
      <trkpt lat="44.20737" lon="4.466">
        <ele>80.4</ele>
        <time>2021-10-24T09:46:05Z</time>
      </trkpt>
      <trkpt lat="44.20744" lon="4.46607">
        <ele>80.6</ele>
        <time>2021-10-24T09:46:06Z</time>
      </trkpt>
      <trkpt lat="44.20752" lon="4.46613">
        <ele>80.6</ele>
        <time>2021-10-24T09:46:07Z</time>
      </trkpt>
      <trkpt lat="44.20759" lon="4.46619">
        <ele>80.4</ele>
        <time>2021-10-24T09:46:08Z</time>
      </trkpt>
      <trkpt lat="44.20766" lon="4.46626">
        <ele>80.4</ele>
        <time>2021-10-24T09:46:09Z</time>
      </trkpt>
      <trkpt lat="44.20774" lon="4.46632">
        <ele>80</ele>
        <time>2021-10-24T09:46:10Z</time>
      </trkpt>
      <trkpt lat="44.20782" lon="4.46638">
        <ele>80.2</ele>
        <time>2021-10-24T09:46:11Z</time>
      </trkpt>
      <trkpt lat="44.20789" lon="4.46645">
        <ele>79.6</ele>
        <time>2021-10-24T09:46:12Z</time>
      </trkpt>
      <trkpt lat="44.20797" lon="4.46651">
        <ele>79.4</ele>
        <time>2021-10-24T09:46:13Z</time>
      </trkpt>
      <trkpt lat="44.20805" lon="4.46658">
        <ele>79.2</ele>
        <time>2021-10-24T09:46:14Z</time>
      </trkpt>
      <trkpt lat="44.20812" lon="4.46664">
        <ele>79</ele>
        <time>2021-10-24T09:46:15Z</time>
      </trkpt>
      <trkpt lat="44.2082" lon="4.46671">
        <ele>79</ele>
        <time>2021-10-24T09:46:16Z</time>
      </trkpt>
      <trkpt lat="44.20828" lon="4.46677">
        <ele>78.8</ele>
        <time>2021-10-24T09:46:17Z</time>
      </trkpt>
      <trkpt lat="44.20836" lon="4.46683">
        <ele>78.6</ele>
        <time>2021-10-24T09:46:18Z</time>
      </trkpt>
      <trkpt lat="44.20844" lon="4.4669">
        <ele>78.6</ele>
        <time>2021-10-24T09:46:19Z</time>
      </trkpt>
      <trkpt lat="44.20852" lon="4.46696">
        <ele>78.4</ele>
        <time>2021-10-24T09:46:20Z</time>
      </trkpt>
      <trkpt lat="44.2086" lon="4.46702">
        <ele>78.2</ele>
        <time>2021-10-24T09:46:21Z</time>
      </trkpt>
      <trkpt lat="44.20868" lon="4.46707">
        <ele>78</ele>
        <time>2021-10-24T09:46:22Z</time>
      </trkpt>
      <trkpt lat="44.20876" lon="4.46713">
        <ele>77.8</ele>
        <time>2021-10-24T09:46:23Z</time>
      </trkpt>
      <trkpt lat="44.20884" lon="4.46718">
        <ele>77.6</ele>
        <time>2021-10-24T09:46:24Z</time>
      </trkpt>
      <trkpt lat="44.20892" lon="4.46722">
        <ele>77.8</ele>
        <time>2021-10-24T09:46:25Z</time>
      </trkpt>
      <trkpt lat="44.209" lon="4.46727">
        <ele>77.8</ele>
        <time>2021-10-24T09:46:26Z</time>
      </trkpt>
      <trkpt lat="44.20908" lon="4.46732">
        <ele>77.6</ele>
        <time>2021-10-24T09:46:27Z</time>
      </trkpt>
      <trkpt lat="44.20915" lon="4.46737">
        <ele>77.8</ele>
        <time>2021-10-24T09:46:28Z</time>
      </trkpt>
      <trkpt lat="44.20923" lon="4.46741">
        <ele>77.6</ele>
        <time>2021-10-24T09:46:29Z</time>
      </trkpt>
      <trkpt lat="44.20931" lon="4.46746">
        <ele>77</ele>
        <time>2021-10-24T09:46:30Z</time>
      </trkpt>
      <trkpt lat="44.20938" lon="4.46751">
        <ele>76.8</ele>
        <time>2021-10-24T09:46:31Z</time>
      </trkpt>
      <trkpt lat="44.20946" lon="4.46755">
        <ele>77</ele>
        <time>2021-10-24T09:46:32Z</time>
      </trkpt>
      <trkpt lat="44.20953" lon="4.4676">
        <ele>77</ele>
        <time>2021-10-24T09:46:33Z</time>
      </trkpt>
      <trkpt lat="44.2096" lon="4.46765">
        <ele>77.2</ele>
        <time>2021-10-24T09:46:34Z</time>
      </trkpt>
      <trkpt lat="44.20968" lon="4.46769">
        <ele>77</ele>
        <time>2021-10-24T09:46:35Z</time>
      </trkpt>
      <trkpt lat="44.20975" lon="4.46774">
        <ele>76.8</ele>
        <time>2021-10-24T09:46:36Z</time>
      </trkpt>
      <trkpt lat="44.20983" lon="4.46778">
        <ele>77</ele>
        <time>2021-10-24T09:46:37Z</time>
      </trkpt>
      <trkpt lat="44.2099" lon="4.46783">
        <ele>76.8</ele>
        <time>2021-10-24T09:46:38Z</time>
      </trkpt>
      <trkpt lat="44.20998" lon="4.46787">
        <ele>76.8</ele>
        <time>2021-10-24T09:46:39Z</time>
      </trkpt>
      <trkpt lat="44.21005" lon="4.46792">
        <ele>76.8</ele>
        <time>2021-10-24T09:46:40Z</time>
      </trkpt>
      <trkpt lat="44.21012" lon="4.46797">
        <ele>77.4</ele>
        <time>2021-10-24T09:46:41Z</time>
      </trkpt>
      <trkpt lat="44.21019" lon="4.46801">
        <ele>77.2</ele>
        <time>2021-10-24T09:46:42Z</time>
      </trkpt>
      <trkpt lat="44.21027" lon="4.46806">
        <ele>77.2</ele>
        <time>2021-10-24T09:46:43Z</time>
      </trkpt>
      <trkpt lat="44.21034" lon="4.46809">
        <ele>77</ele>
        <time>2021-10-24T09:46:44Z</time>
      </trkpt>
      <trkpt lat="44.21042" lon="4.46813">
        <ele>77</ele>
        <time>2021-10-24T09:46:45Z</time>
      </trkpt>
      <trkpt lat="44.21049" lon="4.46815">
        <ele>77</ele>
        <time>2021-10-24T09:46:46Z</time>
      </trkpt>
      <trkpt lat="44.21057" lon="4.46816">
        <ele>76.8</ele>
        <time>2021-10-24T09:46:47Z</time>
      </trkpt>
      <trkpt lat="44.21064" lon="4.46818">
        <ele>76.6</ele>
        <time>2021-10-24T09:46:48Z</time>
      </trkpt>
      <trkpt lat="44.2107" lon="4.4682">
        <ele>76.6</ele>
        <time>2021-10-24T09:46:49Z</time>
      </trkpt>
      <trkpt lat="44.21077" lon="4.46821">
        <ele>76.6</ele>
        <time>2021-10-24T09:46:50Z</time>
      </trkpt>
      <trkpt lat="44.21084" lon="4.46822">
        <ele>76.4</ele>
        <time>2021-10-24T09:46:51Z</time>
      </trkpt>
      <trkpt lat="44.21091" lon="4.46823">
        <ele>76.2</ele>
        <time>2021-10-24T09:46:52Z</time>
      </trkpt>
      <trkpt lat="44.21098" lon="4.46823">
        <ele>76.4</ele>
        <time>2021-10-24T09:46:53Z</time>
      </trkpt>
      <trkpt lat="44.21105" lon="4.46824">
        <ele>76.4</ele>
        <time>2021-10-24T09:46:54Z</time>
      </trkpt>
      <trkpt lat="44.21112" lon="4.46824">
        <ele>76.6</ele>
        <time>2021-10-24T09:46:55Z</time>
      </trkpt>
      <trkpt lat="44.21119" lon="4.46825">
        <ele>76.6</ele>
        <time>2021-10-24T09:46:56Z</time>
      </trkpt>
      <trkpt lat="44.21126" lon="4.46826">
        <ele>76.8</ele>
        <time>2021-10-24T09:46:57Z</time>
      </trkpt>
      <trkpt lat="44.21134" lon="4.46826">
        <ele>76.6</ele>
        <time>2021-10-24T09:46:58Z</time>
      </trkpt>
      <trkpt lat="44.21141" lon="4.46827">
        <ele>76.6</ele>
        <time>2021-10-24T09:46:59Z</time>
      </trkpt>
      <trkpt lat="44.21148" lon="4.46827">
        <ele>76.8</ele>
        <time>2021-10-24T09:47:00Z</time>
      </trkpt>
      <trkpt lat="44.21155" lon="4.46827">
        <ele>77.2</ele>
        <time>2021-10-24T09:47:01Z</time>
      </trkpt>
      <trkpt lat="44.21163" lon="4.46826">
        <ele>77.2</ele>
        <time>2021-10-24T09:47:02Z</time>
      </trkpt>
      <trkpt lat="44.2117" lon="4.46824">
        <ele>77.2</ele>
        <time>2021-10-24T09:47:03Z</time>
      </trkpt>
      <trkpt lat="44.21177" lon="4.46821">
        <ele>77.4</ele>
        <time>2021-10-24T09:47:04Z</time>
      </trkpt>
      <trkpt lat="44.21183" lon="4.46817">
        <ele>77.6</ele>
        <time>2021-10-24T09:47:05Z</time>
      </trkpt>
      <trkpt lat="44.2119" lon="4.46812">
        <ele>77.6</ele>
        <time>2021-10-24T09:47:06Z</time>
      </trkpt>
      <trkpt lat="44.21196" lon="4.46806">
        <ele>77.4</ele>
        <time>2021-10-24T09:47:07Z</time>
      </trkpt>
      <trkpt lat="44.21202" lon="4.46801">
        <ele>77.6</ele>
        <time>2021-10-24T09:47:08Z</time>
      </trkpt>
      <trkpt lat="44.21208" lon="4.46795">
        <ele>77.8</ele>
        <time>2021-10-24T09:47:09Z</time>
      </trkpt>
      <trkpt lat="44.21214" lon="4.46788">
        <ele>77.8</ele>
        <time>2021-10-24T09:47:10Z</time>
      </trkpt>
      <trkpt lat="44.2122" lon="4.46782">
        <ele>77.6</ele>
        <time>2021-10-24T09:47:11Z</time>
      </trkpt>
      <trkpt lat="44.21226" lon="4.46775">
        <ele>77.4</ele>
        <time>2021-10-24T09:47:12Z</time>
      </trkpt>
      <trkpt lat="44.21232" lon="4.46769">
        <ele>77.4</ele>
        <time>2021-10-24T09:47:13Z</time>
      </trkpt>
      <trkpt lat="44.21237" lon="4.46762">
        <ele>77.8</ele>
        <time>2021-10-24T09:47:14Z</time>
      </trkpt>
      <trkpt lat="44.21243" lon="4.46755">
        <ele>78.2</ele>
        <time>2021-10-24T09:47:15Z</time>
      </trkpt>
      <trkpt lat="44.21249" lon="4.46748">
        <ele>78.4</ele>
        <time>2021-10-24T09:47:16Z</time>
      </trkpt>
      <trkpt lat="44.21255" lon="4.46741">
        <ele>78.2</ele>
        <time>2021-10-24T09:47:17Z</time>
      </trkpt>
      <trkpt lat="44.21261" lon="4.46735">
        <ele>78.4</ele>
        <time>2021-10-24T09:47:18Z</time>
      </trkpt>
      <trkpt lat="44.21267" lon="4.46729">
        <ele>78.6</ele>
        <time>2021-10-24T09:47:19Z</time>
      </trkpt>
      <trkpt lat="44.21274" lon="4.46723">
        <ele>79</ele>
        <time>2021-10-24T09:47:20Z</time>
      </trkpt>
      <trkpt lat="44.2128" lon="4.46717">
        <ele>79.2</ele>
        <time>2021-10-24T09:47:21Z</time>
      </trkpt>
      <trkpt lat="44.21286" lon="4.46711">
        <ele>79.2</ele>
        <time>2021-10-24T09:47:22Z</time>
      </trkpt>
      <trkpt lat="44.21293" lon="4.46706">
        <ele>79.2</ele>
        <time>2021-10-24T09:47:23Z</time>
      </trkpt>
      <trkpt lat="44.213" lon="4.46703">
        <ele>79.8</ele>
        <time>2021-10-24T09:47:24Z</time>
      </trkpt>
      <trkpt lat="44.21307" lon="4.467">
        <ele>80.2</ele>
        <time>2021-10-24T09:47:25Z</time>
      </trkpt>
      <trkpt lat="44.21314" lon="4.46698">
        <ele>80.6</ele>
        <time>2021-10-24T09:47:26Z</time>
      </trkpt>
      <trkpt lat="44.21321" lon="4.46697">
        <ele>80.8</ele>
        <time>2021-10-24T09:47:27Z</time>
      </trkpt>
      <trkpt lat="44.21328" lon="4.46697">
        <ele>81</ele>
        <time>2021-10-24T09:47:28Z</time>
      </trkpt>
      <trkpt lat="44.21335" lon="4.46697">
        <ele>81</ele>
        <time>2021-10-24T09:47:29Z</time>
      </trkpt>
      <trkpt lat="44.21342" lon="4.46697">
        <ele>81</ele>
        <time>2021-10-24T09:47:30Z</time>
      </trkpt>
      <trkpt lat="44.21348" lon="4.46697">
        <ele>81</ele>
        <time>2021-10-24T09:47:31Z</time>
      </trkpt>
      <trkpt lat="44.21355" lon="4.46697">
        <ele>81.2</ele>
        <time>2021-10-24T09:47:32Z</time>
      </trkpt>
      <trkpt lat="44.21361" lon="4.46699">
        <ele>81.2</ele>
        <time>2021-10-24T09:47:33Z</time>
      </trkpt>
      <trkpt lat="44.21367" lon="4.46702">
        <ele>81.4</ele>
        <time>2021-10-24T09:47:34Z</time>
      </trkpt>
      <trkpt lat="44.21372" lon="4.46705">
        <ele>81.4</ele>
        <time>2021-10-24T09:47:35Z</time>
      </trkpt>
      <trkpt lat="44.21378" lon="4.46707">
        <ele>81.4</ele>
        <time>2021-10-24T09:47:36Z</time>
      </trkpt>
      <trkpt lat="44.21383" lon="4.46709">
        <ele>81.2</ele>
        <time>2021-10-24T09:47:37Z</time>
      </trkpt>
      <trkpt lat="44.21388" lon="4.46712">
        <ele>81.2</ele>
        <time>2021-10-24T09:47:38Z</time>
      </trkpt>
      <trkpt lat="44.21393" lon="4.46714">
        <ele>81</ele>
        <time>2021-10-24T09:47:39Z</time>
      </trkpt>
      <trkpt lat="44.21398" lon="4.46718">
        <ele>81</ele>
        <time>2021-10-24T09:47:40Z</time>
      </trkpt>
      <trkpt lat="44.21403" lon="4.46721">
        <ele>81</ele>
        <time>2021-10-24T09:47:41Z</time>
      </trkpt>
      <trkpt lat="44.21408" lon="4.46724">
        <ele>81</ele>
        <time>2021-10-24T09:47:42Z</time>
      </trkpt>
      <trkpt lat="44.21414" lon="4.46728">
        <ele>80.8</ele>
        <time>2021-10-24T09:47:43Z</time>
      </trkpt>
      <trkpt lat="44.2142" lon="4.46731">
        <ele>81</ele>
        <time>2021-10-24T09:47:44Z</time>
      </trkpt>
      <trkpt lat="44.21425" lon="4.46735">
        <ele>81</ele>
        <time>2021-10-24T09:47:45Z</time>
      </trkpt>
      <trkpt lat="44.21431" lon="4.46739">
        <ele>81</ele>
        <time>2021-10-24T09:47:46Z</time>
      </trkpt>
      <trkpt lat="44.21437" lon="4.46743">
        <ele>81</ele>
        <time>2021-10-24T09:47:47Z</time>
      </trkpt>
      <trkpt lat="44.21443" lon="4.46747">
        <ele>80.8</ele>
        <time>2021-10-24T09:47:48Z</time>
      </trkpt>
      <trkpt lat="44.21449" lon="4.46751">
        <ele>81</ele>
        <time>2021-10-24T09:47:49Z</time>
      </trkpt>
      <trkpt lat="44.21455" lon="4.46755">
        <ele>81</ele>
        <time>2021-10-24T09:47:50Z</time>
      </trkpt>
      <trkpt lat="44.21461" lon="4.46759">
        <ele>80.8</ele>
        <time>2021-10-24T09:47:51Z</time>
      </trkpt>
      <trkpt lat="44.21467" lon="4.46763">
        <ele>80.6</ele>
        <time>2021-10-24T09:47:52Z</time>
      </trkpt>
      <trkpt lat="44.21473" lon="4.46767">
        <ele>80.4</ele>
        <time>2021-10-24T09:47:53Z</time>
      </trkpt>
      <trkpt lat="44.21479" lon="4.46771">
        <ele>80.2</ele>
        <time>2021-10-24T09:47:54Z</time>
      </trkpt>
      <trkpt lat="44.21484" lon="4.46775">
        <ele>80.2</ele>
        <time>2021-10-24T09:47:55Z</time>
      </trkpt>
      <trkpt lat="44.21489" lon="4.46778">
        <ele>80.2</ele>
        <time>2021-10-24T09:47:56Z</time>
      </trkpt>
      <trkpt lat="44.21495" lon="4.46782">
        <ele>80.2</ele>
        <time>2021-10-24T09:47:57Z</time>
      </trkpt>
      <trkpt lat="44.21501" lon="4.46786">
        <ele>79.8</ele>
        <time>2021-10-24T09:47:58Z</time>
      </trkpt>
      <trkpt lat="44.21506" lon="4.4679">
        <ele>79.8</ele>
        <time>2021-10-24T09:47:59Z</time>
      </trkpt>
      <trkpt lat="44.21511" lon="4.46794">
        <ele>79.6</ele>
        <time>2021-10-24T09:48:00Z</time>
      </trkpt>
      <trkpt lat="44.21516" lon="4.46798">
        <ele>79.2</ele>
        <time>2021-10-24T09:48:01Z</time>
      </trkpt>
      <trkpt lat="44.2152" lon="4.46802">
        <ele>79</ele>
        <time>2021-10-24T09:48:02Z</time>
      </trkpt>
      <trkpt lat="44.21526" lon="4.46808">
        <ele>79</ele>
        <time>2021-10-24T09:48:03Z</time>
      </trkpt>
      <trkpt lat="44.2153" lon="4.46813">
        <ele>79</ele>
        <time>2021-10-24T09:48:04Z</time>
      </trkpt>
      <trkpt lat="44.21534" lon="4.4682">
        <ele>78.6</ele>
        <time>2021-10-24T09:48:05Z</time>
      </trkpt>
      <trkpt lat="44.21537" lon="4.46826">
        <ele>78.8</ele>
        <time>2021-10-24T09:48:06Z</time>
      </trkpt>
      <trkpt lat="44.2154" lon="4.46833">
        <ele>78.6</ele>
        <time>2021-10-24T09:48:07Z</time>
      </trkpt>
      <trkpt lat="44.21543" lon="4.46839">
        <ele>78.6</ele>
        <time>2021-10-24T09:48:08Z</time>
      </trkpt>
      <trkpt lat="44.21546" lon="4.46846">
        <ele>78.4</ele>
        <time>2021-10-24T09:48:09Z</time>
      </trkpt>
      <trkpt lat="44.21549" lon="4.46852">
        <ele>78.2</ele>
        <time>2021-10-24T09:48:10Z</time>
      </trkpt>
      <trkpt lat="44.2155" lon="4.46858">
        <ele>78.2</ele>
        <time>2021-10-24T09:48:11Z</time>
      </trkpt>
      <trkpt lat="44.21551" lon="4.46861">
        <ele>78</ele>
        <time>2021-10-24T09:48:12Z</time>
      </trkpt>
      <trkpt lat="44.2155" lon="4.46858">
        <ele>78</ele>
        <time>2021-10-24T09:50:10Z</time>
      </trkpt>
      <trkpt lat="44.2155" lon="4.46853">
        <ele>78.2</ele>
        <time>2021-10-24T09:50:12Z</time>
      </trkpt>
      <trkpt lat="44.21549" lon="4.46849">
        <ele>78.2</ele>
        <time>2021-10-24T09:50:13Z</time>
      </trkpt>
      <trkpt lat="44.21549" lon="4.46846">
        <ele>78.2</ele>
        <time>2021-10-24T09:50:14Z</time>
      </trkpt>
      <trkpt lat="44.21548" lon="4.46843">
        <ele>78.2</ele>
        <time>2021-10-24T09:50:15Z</time>
      </trkpt>
      <trkpt lat="44.21547" lon="4.4684">
        <ele>78.2</ele>
        <time>2021-10-24T09:50:16Z</time>
      </trkpt>
      <trkpt lat="44.21545" lon="4.46836">
        <ele>78.2</ele>
        <time>2021-10-24T09:50:17Z</time>
      </trkpt>
      <trkpt lat="44.21543" lon="4.46832">
        <ele>78.2</ele>
        <time>2021-10-24T09:50:18Z</time>
      </trkpt>
      <trkpt lat="44.21542" lon="4.46827">
        <ele>78</ele>
        <time>2021-10-24T09:50:19Z</time>
      </trkpt>
      <trkpt lat="44.2154" lon="4.46821">
        <ele>78</ele>
        <time>2021-10-24T09:50:20Z</time>
      </trkpt>
      <trkpt lat="44.21537" lon="4.46816">
        <ele>78</ele>
        <time>2021-10-24T09:50:21Z</time>
      </trkpt>
      <trkpt lat="44.21534" lon="4.46811">
        <ele>78</ele>
        <time>2021-10-24T09:50:22Z</time>
      </trkpt>
      <trkpt lat="44.21531" lon="4.46807">
        <ele>78</ele>
        <time>2021-10-24T09:50:23Z</time>
      </trkpt>
      <trkpt lat="44.21527" lon="4.46803">
        <ele>78.2</ele>
        <time>2021-10-24T09:50:24Z</time>
      </trkpt>
      <trkpt lat="44.21523" lon="4.468">
        <ele>78.4</ele>
        <time>2021-10-24T09:50:25Z</time>
      </trkpt>
      <trkpt lat="44.2152" lon="4.46797">
        <ele>79</ele>
        <time>2021-10-24T09:50:26Z</time>
      </trkpt>
      <trkpt lat="44.21517" lon="4.46794">
        <ele>79</ele>
        <time>2021-10-24T09:50:27Z</time>
      </trkpt>
      <trkpt lat="44.21514" lon="4.46791">
        <ele>78.8</ele>
        <time>2021-10-24T09:50:28Z</time>
      </trkpt>
      <trkpt lat="44.21511" lon="4.46789">
        <ele>78.8</ele>
        <time>2021-10-24T09:50:29Z</time>
      </trkpt>
      <trkpt lat="44.21509" lon="4.46787">
        <ele>78.8</ele>
        <time>2021-10-24T09:50:30Z</time>
      </trkpt>
      <trkpt lat="44.21505" lon="4.46785">
        <ele>78.6</ele>
        <time>2021-10-24T09:50:32Z</time>
      </trkpt>
      <trkpt lat="44.21503" lon="4.46784">
        <ele>78.8</ele>
        <time>2021-10-24T09:50:33Z</time>
      </trkpt>
      <trkpt lat="44.215" lon="4.46783">
        <ele>78.6</ele>
        <time>2021-10-24T09:50:34Z</time>
      </trkpt>
      <trkpt lat="44.21497" lon="4.4678">
        <ele>78.8</ele>
        <time>2021-10-24T09:50:35Z</time>
      </trkpt>
      <trkpt lat="44.21493" lon="4.46778">
        <ele>78.8</ele>
        <time>2021-10-24T09:50:36Z</time>
      </trkpt>
      <trkpt lat="44.21488" lon="4.46774">
        <ele>78.6</ele>
        <time>2021-10-24T09:50:37Z</time>
      </trkpt>
      <trkpt lat="44.21484" lon="4.46772">
        <ele>78.8</ele>
        <time>2021-10-24T09:50:38Z</time>
      </trkpt>
      <trkpt lat="44.21479" lon="4.46769">
        <ele>79</ele>
        <time>2021-10-24T09:50:39Z</time>
      </trkpt>
      <trkpt lat="44.21475" lon="4.46766">
        <ele>79.2</ele>
        <time>2021-10-24T09:50:40Z</time>
      </trkpt>
      <trkpt lat="44.2147" lon="4.46763">
        <ele>79.6</ele>
        <time>2021-10-24T09:50:41Z</time>
      </trkpt>
      <trkpt lat="44.21465" lon="4.4676">
        <ele>79.6</ele>
        <time>2021-10-24T09:50:42Z</time>
      </trkpt>
      <trkpt lat="44.2146" lon="4.46757">
        <ele>79.6</ele>
        <time>2021-10-24T09:50:43Z</time>
      </trkpt>
      <trkpt lat="44.21455" lon="4.46753">
        <ele>80</ele>
        <time>2021-10-24T09:50:44Z</time>
      </trkpt>
      <trkpt lat="44.2145" lon="4.4675">
        <ele>80</ele>
        <time>2021-10-24T09:50:45Z</time>
      </trkpt>
      <trkpt lat="44.21446" lon="4.46747">
        <ele>80</ele>
        <time>2021-10-24T09:50:46Z</time>
      </trkpt>
      <trkpt lat="44.21442" lon="4.46744">
        <ele>80.4</ele>
        <time>2021-10-24T09:50:47Z</time>
      </trkpt>
      <trkpt lat="44.21438" lon="4.4674">
        <ele>80.4</ele>
        <time>2021-10-24T09:50:48Z</time>
      </trkpt>
      <trkpt lat="44.21435" lon="4.46738">
        <ele>80.6</ele>
        <time>2021-10-24T09:50:49Z</time>
      </trkpt>
      <trkpt lat="44.21431" lon="4.46736">
        <ele>80.4</ele>
        <time>2021-10-24T09:50:50Z</time>
      </trkpt>
      <trkpt lat="44.21428" lon="4.46734">
        <ele>80.6</ele>
        <time>2021-10-24T09:50:51Z</time>
      </trkpt>
      <trkpt lat="44.21423" lon="4.46731">
        <ele>80.8</ele>
        <time>2021-10-24T09:50:52Z</time>
      </trkpt>
      <trkpt lat="44.21419" lon="4.46728">
        <ele>81</ele>
        <time>2021-10-24T09:50:53Z</time>
      </trkpt>
      <trkpt lat="44.21414" lon="4.46725">
        <ele>81.2</ele>
        <time>2021-10-24T09:50:54Z</time>
      </trkpt>
      <trkpt lat="44.2141" lon="4.46722">
        <ele>81.2</ele>
        <time>2021-10-24T09:50:55Z</time>
      </trkpt>
      <trkpt lat="44.21406" lon="4.4672">
        <ele>81.2</ele>
        <time>2021-10-24T09:50:56Z</time>
      </trkpt>
      <trkpt lat="44.21402" lon="4.46718">
        <ele>81.4</ele>
        <time>2021-10-24T09:50:57Z</time>
      </trkpt>
      <trkpt lat="44.21399" lon="4.46716">
        <ele>81.4</ele>
        <time>2021-10-24T09:50:58Z</time>
      </trkpt>
      <trkpt lat="44.21397" lon="4.46716">
        <ele>81.2</ele>
        <time>2021-10-24T09:50:59Z</time>
      </trkpt>
      <trkpt lat="44.21394" lon="4.46716">
        <ele>81</ele>
        <time>2021-10-24T09:51:00Z</time>
      </trkpt>
      <trkpt lat="44.21391" lon="4.46715">
        <ele>81</ele>
        <time>2021-10-24T09:51:01Z</time>
      </trkpt>
      <trkpt lat="44.21388" lon="4.46712">
        <ele>81.2</ele>
        <time>2021-10-24T09:51:02Z</time>
      </trkpt>
      <trkpt lat="44.21383" lon="4.4671">
        <ele>81</ele>
        <time>2021-10-24T09:51:03Z</time>
      </trkpt>
      <trkpt lat="44.21378" lon="4.46708">
        <ele>81.2</ele>
        <time>2021-10-24T09:51:04Z</time>
      </trkpt>
      <trkpt lat="44.21372" lon="4.46705">
        <ele>81.4</ele>
        <time>2021-10-24T09:51:05Z</time>
      </trkpt>
      <trkpt lat="44.21365" lon="4.46702">
        <ele>81.6</ele>
        <time>2021-10-24T09:51:06Z</time>
      </trkpt>
      <trkpt lat="44.21358" lon="4.46699">
        <ele>81.4</ele>
        <time>2021-10-24T09:51:07Z</time>
      </trkpt>
      <trkpt lat="44.21351" lon="4.46697">
        <ele>81.6</ele>
        <time>2021-10-24T09:51:08Z</time>
      </trkpt>
      <trkpt lat="44.21344" lon="4.46696">
        <ele>81.8</ele>
        <time>2021-10-24T09:51:09Z</time>
      </trkpt>
      <trkpt lat="44.21337" lon="4.46694">
        <ele>82</ele>
        <time>2021-10-24T09:51:10Z</time>
      </trkpt>
      <trkpt lat="44.21329" lon="4.46694">
        <ele>82</ele>
        <time>2021-10-24T09:51:11Z</time>
      </trkpt>
      <trkpt lat="44.21322" lon="4.46694">
        <ele>82.4</ele>
        <time>2021-10-24T09:51:12Z</time>
      </trkpt>
      <trkpt lat="44.21315" lon="4.46695">
        <ele>82.4</ele>
        <time>2021-10-24T09:51:13Z</time>
      </trkpt>
      <trkpt lat="44.21307" lon="4.46697">
        <ele>82.4</ele>
        <time>2021-10-24T09:51:14Z</time>
      </trkpt>
      <trkpt lat="44.213" lon="4.46699">
        <ele>82.6</ele>
        <time>2021-10-24T09:51:15Z</time>
      </trkpt>
      <trkpt lat="44.21292" lon="4.46702">
        <ele>82.4</ele>
        <time>2021-10-24T09:51:16Z</time>
      </trkpt>
      <trkpt lat="44.21285" lon="4.46706">
        <ele>82.6</ele>
        <time>2021-10-24T09:51:17Z</time>
      </trkpt>
      <trkpt lat="44.21279" lon="4.46711">
        <ele>82.6</ele>
        <time>2021-10-24T09:51:18Z</time>
      </trkpt>
      <trkpt lat="44.21272" lon="4.46717">
        <ele>82.6</ele>
        <time>2021-10-24T09:51:19Z</time>
      </trkpt>
      <trkpt lat="44.21265" lon="4.46723">
        <ele>82.6</ele>
        <time>2021-10-24T09:51:20Z</time>
      </trkpt>
      <trkpt lat="44.21259" lon="4.46729">
        <ele>82.4</ele>
        <time>2021-10-24T09:51:21Z</time>
      </trkpt>
      <trkpt lat="44.21252" lon="4.46736">
        <ele>82.4</ele>
        <time>2021-10-24T09:51:22Z</time>
      </trkpt>
      <trkpt lat="44.21246" lon="4.46743">
        <ele>82.4</ele>
        <time>2021-10-24T09:51:23Z</time>
      </trkpt>
      <trkpt lat="44.2124" lon="4.4675">
        <ele>82</ele>
        <time>2021-10-24T09:51:24Z</time>
      </trkpt>
      <trkpt lat="44.21233" lon="4.46756">
        <ele>82</ele>
        <time>2021-10-24T09:51:25Z</time>
      </trkpt>
      <trkpt lat="44.21227" lon="4.46763">
        <ele>82</ele>
        <time>2021-10-24T09:51:26Z</time>
      </trkpt>
      <trkpt lat="44.21221" lon="4.4677">
        <ele>81.8</ele>
        <time>2021-10-24T09:51:27Z</time>
      </trkpt>
      <trkpt lat="44.21215" lon="4.46777">
        <ele>81.6</ele>
        <time>2021-10-24T09:51:28Z</time>
      </trkpt>
      <trkpt lat="44.21208" lon="4.46784">
        <ele>81.2</ele>
        <time>2021-10-24T09:51:29Z</time>
      </trkpt>
      <trkpt lat="44.21202" lon="4.4679">
        <ele>81.2</ele>
        <time>2021-10-24T09:51:30Z</time>
      </trkpt>
      <trkpt lat="44.21196" lon="4.46797">
        <ele>81</ele>
        <time>2021-10-24T09:51:31Z</time>
      </trkpt>
      <trkpt lat="44.2119" lon="4.46802">
        <ele>80.6</ele>
        <time>2021-10-24T09:51:32Z</time>
      </trkpt>
      <trkpt lat="44.21183" lon="4.46808">
        <ele>80.4</ele>
        <time>2021-10-24T09:51:33Z</time>
      </trkpt>
      <trkpt lat="44.21176" lon="4.46813">
        <ele>80</ele>
        <time>2021-10-24T09:51:34Z</time>
      </trkpt>
      <trkpt lat="44.21169" lon="4.46817">
        <ele>79.6</ele>
        <time>2021-10-24T09:51:35Z</time>
      </trkpt>
      <trkpt lat="44.21162" lon="4.46821">
        <ele>79.6</ele>
        <time>2021-10-24T09:51:36Z</time>
      </trkpt>
      <trkpt lat="44.21154" lon="4.46823">
        <ele>79.4</ele>
        <time>2021-10-24T09:51:37Z</time>
      </trkpt>
      <trkpt lat="44.21147" lon="4.46823">
        <ele>79.2</ele>
        <time>2021-10-24T09:51:38Z</time>
      </trkpt>
      <trkpt lat="44.21139" lon="4.46823">
        <ele>79</ele>
        <time>2021-10-24T09:51:39Z</time>
      </trkpt>
      <trkpt lat="44.21131" lon="4.46823">
        <ele>79.2</ele>
        <time>2021-10-24T09:51:40Z</time>
      </trkpt>
      <trkpt lat="44.21123" lon="4.46822">
        <ele>79</ele>
        <time>2021-10-24T09:51:41Z</time>
      </trkpt>
      <trkpt lat="44.21115" lon="4.4682">
        <ele>79</ele>
        <time>2021-10-24T09:51:42Z</time>
      </trkpt>
      <trkpt lat="44.21108" lon="4.46819">
        <ele>79.2</ele>
        <time>2021-10-24T09:51:43Z</time>
      </trkpt>
      <trkpt lat="44.211" lon="4.46818">
        <ele>79</ele>
        <time>2021-10-24T09:51:44Z</time>
      </trkpt>
      <trkpt lat="44.21092" lon="4.46817">
        <ele>79</ele>
        <time>2021-10-24T09:51:45Z</time>
      </trkpt>
      <trkpt lat="44.21084" lon="4.46817">
        <ele>79.2</ele>
        <time>2021-10-24T09:51:46Z</time>
      </trkpt>
      <trkpt lat="44.21076" lon="4.46816">
        <ele>79</ele>
        <time>2021-10-24T09:51:47Z</time>
      </trkpt>
      <trkpt lat="44.21068" lon="4.46816">
        <ele>78.8</ele>
        <time>2021-10-24T09:51:48Z</time>
      </trkpt>
      <trkpt lat="44.21061" lon="4.46816">
        <ele>79</ele>
        <time>2021-10-24T09:51:49Z</time>
      </trkpt>
      <trkpt lat="44.21054" lon="4.46814">
        <ele>78.8</ele>
        <time>2021-10-24T09:51:50Z</time>
      </trkpt>
      <trkpt lat="44.21047" lon="4.46813">
        <ele>78.8</ele>
        <time>2021-10-24T09:51:51Z</time>
      </trkpt>
      <trkpt lat="44.21042" lon="4.46814">
        <ele>78.4</ele>
        <time>2021-10-24T09:51:52Z</time>
      </trkpt>
      <trkpt lat="44.21038" lon="4.46817">
        <ele>78</ele>
        <time>2021-10-24T09:51:53Z</time>
      </trkpt>
      <trkpt lat="44.21035" lon="4.46823">
        <ele>77.8</ele>
        <time>2021-10-24T09:51:54Z</time>
      </trkpt>
      <trkpt lat="44.21032" lon="4.4683">
        <ele>77.6</ele>
        <time>2021-10-24T09:51:55Z</time>
      </trkpt>
      <trkpt lat="44.21028" lon="4.46837">
        <ele>77.2</ele>
        <time>2021-10-24T09:51:56Z</time>
      </trkpt>
      <trkpt lat="44.21025" lon="4.46844">
        <ele>77.2</ele>
        <time>2021-10-24T09:51:57Z</time>
      </trkpt>
      <trkpt lat="44.21021" lon="4.46852">
        <ele>76.6</ele>
        <time>2021-10-24T09:51:58Z</time>
      </trkpt>
      <trkpt lat="44.21017" lon="4.46859">
        <ele>76.4</ele>
        <time>2021-10-24T09:51:59Z</time>
      </trkpt>
      <trkpt lat="44.21012" lon="4.46866">
        <ele>76.2</ele>
        <time>2021-10-24T09:52:00Z</time>
      </trkpt>
      <trkpt lat="44.21007" lon="4.46873">
        <ele>76.4</ele>
        <time>2021-10-24T09:52:01Z</time>
      </trkpt>
      <trkpt lat="44.21001" lon="4.4688">
        <ele>76.6</ele>
        <time>2021-10-24T09:52:02Z</time>
      </trkpt>
      <trkpt lat="44.20995" lon="4.46887">
        <ele>76.6</ele>
        <time>2021-10-24T09:52:03Z</time>
      </trkpt>
      <trkpt lat="44.20989" lon="4.46894">
        <ele>76.8</ele>
        <time>2021-10-24T09:52:04Z</time>
      </trkpt>
      <trkpt lat="44.20983" lon="4.46903">
        <ele>76.6</ele>
        <time>2021-10-24T09:52:05Z</time>
      </trkpt>
      <trkpt lat="44.20977" lon="4.46912">
        <ele>76.6</ele>
        <time>2021-10-24T09:52:06Z</time>
      </trkpt>
      <trkpt lat="44.20971" lon="4.46922">
        <ele>76.4</ele>
        <time>2021-10-24T09:52:07Z</time>
      </trkpt>
      <trkpt lat="44.20966" lon="4.46932">
        <ele>76.2</ele>
        <time>2021-10-24T09:52:08Z</time>
      </trkpt>
      <trkpt lat="44.20961" lon="4.46943">
        <ele>75.8</ele>
        <time>2021-10-24T09:52:09Z</time>
      </trkpt>
      <trkpt lat="44.20957" lon="4.46953">
        <ele>75.8</ele>
        <time>2021-10-24T09:52:10Z</time>
      </trkpt>
      <trkpt lat="44.20952" lon="4.46963">
        <ele>75.4</ele>
        <time>2021-10-24T09:52:11Z</time>
      </trkpt>
      <trkpt lat="44.20948" lon="4.46972">
        <ele>75</ele>
        <time>2021-10-24T09:52:12Z</time>
      </trkpt>
      <trkpt lat="44.20944" lon="4.4698">
        <ele>75</ele>
        <time>2021-10-24T09:52:13Z</time>
      </trkpt>
      <trkpt lat="44.20939" lon="4.46986">
        <ele>74.6</ele>
        <time>2021-10-24T09:52:14Z</time>
      </trkpt>
      <trkpt lat="44.20933" lon="4.46989">
        <ele>74</ele>
        <time>2021-10-24T09:52:15Z</time>
      </trkpt>
      <trkpt lat="44.20928" lon="4.46989">
        <ele>74.2</ele>
        <time>2021-10-24T09:52:16Z</time>
      </trkpt>
      <trkpt lat="44.20922" lon="4.46989">
        <ele>74.2</ele>
        <time>2021-10-24T09:52:17Z</time>
      </trkpt>
      <trkpt lat="44.20917" lon="4.46989">
        <ele>74.4</ele>
        <time>2021-10-24T09:52:18Z</time>
      </trkpt>
      <trkpt lat="44.20912" lon="4.46989">
        <ele>74.4</ele>
        <time>2021-10-24T09:52:19Z</time>
      </trkpt>
      <trkpt lat="44.20907" lon="4.46988">
        <ele>74.6</ele>
        <time>2021-10-24T09:52:20Z</time>
      </trkpt>
      <trkpt lat="44.20902" lon="4.46987">
        <ele>74.8</ele>
        <time>2021-10-24T09:52:21Z</time>
      </trkpt>
      <trkpt lat="44.20897" lon="4.46986">
        <ele>75.2</ele>
        <time>2021-10-24T09:52:22Z</time>
      </trkpt>
      <trkpt lat="44.20892" lon="4.46985">
        <ele>75.6</ele>
        <time>2021-10-24T09:52:23Z</time>
      </trkpt>
      <trkpt lat="44.20886" lon="4.46983">
        <ele>75.4</ele>
        <time>2021-10-24T09:52:24Z</time>
      </trkpt>
      <trkpt lat="44.2088" lon="4.46982">
        <ele>75.6</ele>
        <time>2021-10-24T09:52:25Z</time>
      </trkpt>
      <trkpt lat="44.20874" lon="4.4698">
        <ele>75.8</ele>
        <time>2021-10-24T09:52:26Z</time>
      </trkpt>
      <trkpt lat="44.20868" lon="4.46979">
        <ele>76</ele>
        <time>2021-10-24T09:52:27Z</time>
      </trkpt>
      <trkpt lat="44.20862" lon="4.46977">
        <ele>76.2</ele>
        <time>2021-10-24T09:52:28Z</time>
      </trkpt>
      <trkpt lat="44.20855" lon="4.46976">
        <ele>76.2</ele>
        <time>2021-10-24T09:52:29Z</time>
      </trkpt>
      <trkpt lat="44.20849" lon="4.46975">
        <ele>76.2</ele>
        <time>2021-10-24T09:52:30Z</time>
      </trkpt>
      <trkpt lat="44.20842" lon="4.46973">
        <ele>76.6</ele>
        <time>2021-10-24T09:52:31Z</time>
      </trkpt>
      <trkpt lat="44.20835" lon="4.46971">
        <ele>76.8</ele>
        <time>2021-10-24T09:52:32Z</time>
      </trkpt>
      <trkpt lat="44.20828" lon="4.4697">
        <ele>76.8</ele>
        <time>2021-10-24T09:52:33Z</time>
      </trkpt>
      <trkpt lat="44.20821" lon="4.46969">
        <ele>76.8</ele>
        <time>2021-10-24T09:52:34Z</time>
      </trkpt>
      <trkpt lat="44.20814" lon="4.46968">
        <ele>77</ele>
        <time>2021-10-24T09:52:35Z</time>
      </trkpt>
      <trkpt lat="44.20807" lon="4.46967">
        <ele>77.2</ele>
        <time>2021-10-24T09:52:36Z</time>
      </trkpt>
      <trkpt lat="44.208" lon="4.46966">
        <ele>77.6</ele>
        <time>2021-10-24T09:52:37Z</time>
      </trkpt>
      <trkpt lat="44.20793" lon="4.46966">
        <ele>77.6</ele>
        <time>2021-10-24T09:52:38Z</time>
      </trkpt>
      <trkpt lat="44.20786" lon="4.46966">
        <ele>77.4</ele>
        <time>2021-10-24T09:52:39Z</time>
      </trkpt>
      <trkpt lat="44.20779" lon="4.46968">
        <ele>77.4</ele>
        <time>2021-10-24T09:52:40Z</time>
      </trkpt>
      <trkpt lat="44.20774" lon="4.46973">
        <ele>77.4</ele>
        <time>2021-10-24T09:52:41Z</time>
      </trkpt>
      <trkpt lat="44.20769" lon="4.46979">
        <ele>77.6</ele>
        <time>2021-10-24T09:52:42Z</time>
      </trkpt>
      <trkpt lat="44.20766" lon="4.46986">
        <ele>77.8</ele>
        <time>2021-10-24T09:52:43Z</time>
      </trkpt>
      <trkpt lat="44.20762" lon="4.46994">
        <ele>77.8</ele>
        <time>2021-10-24T09:52:44Z</time>
      </trkpt>
      <trkpt lat="44.20758" lon="4.47002">
        <ele>77.8</ele>
        <time>2021-10-24T09:52:45Z</time>
      </trkpt>
      <trkpt lat="44.20753" lon="4.47009">
        <ele>78</ele>
        <time>2021-10-24T09:52:46Z</time>
      </trkpt>
      <trkpt lat="44.20749" lon="4.47017">
        <ele>78</ele>
        <time>2021-10-24T09:52:47Z</time>
      </trkpt>
      <trkpt lat="44.20743" lon="4.47024">
        <ele>78</ele>
        <time>2021-10-24T09:52:48Z</time>
      </trkpt>
      <trkpt lat="44.20738" lon="4.4703">
        <ele>78.2</ele>
        <time>2021-10-24T09:52:49Z</time>
      </trkpt>
      <trkpt lat="44.20732" lon="4.47037">
        <ele>78</ele>
        <time>2021-10-24T09:52:50Z</time>
      </trkpt>
      <trkpt lat="44.20727" lon="4.47044">
        <ele>78.2</ele>
        <time>2021-10-24T09:52:51Z</time>
      </trkpt>
      <trkpt lat="44.20721" lon="4.47051">
        <ele>78</ele>
        <time>2021-10-24T09:52:52Z</time>
      </trkpt>
      <trkpt lat="44.20715" lon="4.47058">
        <ele>78.2</ele>
        <time>2021-10-24T09:52:53Z</time>
      </trkpt>
      <trkpt lat="44.20709" lon="4.47065">
        <ele>78.2</ele>
        <time>2021-10-24T09:52:54Z</time>
      </trkpt>
      <trkpt lat="44.20703" lon="4.47072">
        <ele>78</ele>
        <time>2021-10-24T09:52:55Z</time>
      </trkpt>
      <trkpt lat="44.20696" lon="4.47077">
        <ele>78.2</ele>
        <time>2021-10-24T09:52:56Z</time>
      </trkpt>
      <trkpt lat="44.20689" lon="4.47082">
        <ele>78</ele>
        <time>2021-10-24T09:52:57Z</time>
      </trkpt>
      <trkpt lat="44.20682" lon="4.47087">
        <ele>77.8</ele>
        <time>2021-10-24T09:52:58Z</time>
      </trkpt>
      <trkpt lat="44.20674" lon="4.47091">
        <ele>78</ele>
        <time>2021-10-24T09:52:59Z</time>
      </trkpt>
      <trkpt lat="44.20667" lon="4.47094">
        <ele>78</ele>
        <time>2021-10-24T09:53:00Z</time>
      </trkpt>
      <trkpt lat="44.20659" lon="4.47098">
        <ele>78</ele>
        <time>2021-10-24T09:53:01Z</time>
      </trkpt>
      <trkpt lat="44.20651" lon="4.47102">
        <ele>78</ele>
        <time>2021-10-24T09:53:02Z</time>
      </trkpt>
      <trkpt lat="44.20644" lon="4.47105">
        <ele>78</ele>
        <time>2021-10-24T09:53:03Z</time>
      </trkpt>
      <trkpt lat="44.20636" lon="4.47109">
        <ele>78.4</ele>
        <time>2021-10-24T09:53:04Z</time>
      </trkpt>
      <trkpt lat="44.20629" lon="4.47112">
        <ele>78.4</ele>
        <time>2021-10-24T09:53:05Z</time>
      </trkpt>
      <trkpt lat="44.20622" lon="4.47116">
        <ele>78.6</ele>
        <time>2021-10-24T09:53:06Z</time>
      </trkpt>
      <trkpt lat="44.20614" lon="4.4712">
        <ele>78.8</ele>
        <time>2021-10-24T09:53:07Z</time>
      </trkpt>
      <trkpt lat="44.20607" lon="4.47124">
        <ele>78.8</ele>
        <time>2021-10-24T09:53:08Z</time>
      </trkpt>
      <trkpt lat="44.206" lon="4.4713">
        <ele>78.8</ele>
        <time>2021-10-24T09:53:09Z</time>
      </trkpt>
      <trkpt lat="44.20594" lon="4.47136">
        <ele>78.4</ele>
        <time>2021-10-24T09:53:10Z</time>
      </trkpt>
      <trkpt lat="44.20588" lon="4.47144">
        <ele>78.2</ele>
        <time>2021-10-24T09:53:11Z</time>
      </trkpt>
      <trkpt lat="44.20582" lon="4.47152">
        <ele>78.4</ele>
        <time>2021-10-24T09:53:12Z</time>
      </trkpt>
      <trkpt lat="44.20577" lon="4.4716">
        <ele>78.4</ele>
        <time>2021-10-24T09:53:13Z</time>
      </trkpt>
      <trkpt lat="44.20571" lon="4.47169">
        <ele>78.2</ele>
        <time>2021-10-24T09:53:14Z</time>
      </trkpt>
      <trkpt lat="44.20566" lon="4.47177">
        <ele>78.2</ele>
        <time>2021-10-24T09:53:15Z</time>
      </trkpt>
      <trkpt lat="44.2056" lon="4.47184">
        <ele>78</ele>
        <time>2021-10-24T09:53:16Z</time>
      </trkpt>
      <trkpt lat="44.20555" lon="4.47192">
        <ele>78</ele>
        <time>2021-10-24T09:53:17Z</time>
      </trkpt>
      <trkpt lat="44.2055" lon="4.472">
        <ele>78.2</ele>
        <time>2021-10-24T09:53:18Z</time>
      </trkpt>
      <trkpt lat="44.20544" lon="4.47207">
        <ele>78.2</ele>
        <time>2021-10-24T09:53:19Z</time>
      </trkpt>
      <trkpt lat="44.2054" lon="4.47215">
        <ele>78.2</ele>
        <time>2021-10-24T09:53:20Z</time>
      </trkpt>
      <trkpt lat="44.20535" lon="4.47223">
        <ele>78.4</ele>
        <time>2021-10-24T09:53:21Z</time>
      </trkpt>
      <trkpt lat="44.20531" lon="4.47231">
        <ele>78.4</ele>
        <time>2021-10-24T09:53:22Z</time>
      </trkpt>
      <trkpt lat="44.20526" lon="4.4724">
        <ele>78.8</ele>
        <time>2021-10-24T09:53:23Z</time>
      </trkpt>
      <trkpt lat="44.20523" lon="4.47248">
        <ele>78.6</ele>
        <time>2021-10-24T09:53:24Z</time>
      </trkpt>
      <trkpt lat="44.20519" lon="4.47257">
        <ele>78.8</ele>
        <time>2021-10-24T09:53:25Z</time>
      </trkpt>
      <trkpt lat="44.20515" lon="4.47266">
        <ele>79</ele>
        <time>2021-10-24T09:53:26Z</time>
      </trkpt>
      <trkpt lat="44.20512" lon="4.47275">
        <ele>79.2</ele>
        <time>2021-10-24T09:53:27Z</time>
      </trkpt>
      <trkpt lat="44.20508" lon="4.47284">
        <ele>79.6</ele>
        <time>2021-10-24T09:53:28Z</time>
      </trkpt>
      <trkpt lat="44.20505" lon="4.47293">
        <ele>79.8</ele>
        <time>2021-10-24T09:53:29Z</time>
      </trkpt>
      <trkpt lat="44.20501" lon="4.47302">
        <ele>79.6</ele>
        <time>2021-10-24T09:53:30Z</time>
      </trkpt>
      <trkpt lat="44.20498" lon="4.47311">
        <ele>79.6</ele>
        <time>2021-10-24T09:53:31Z</time>
      </trkpt>
      <trkpt lat="44.20494" lon="4.47319">
        <ele>79.6</ele>
        <time>2021-10-24T09:53:32Z</time>
      </trkpt>
      <trkpt lat="44.2049" lon="4.47328">
        <ele>79.6</ele>
        <time>2021-10-24T09:53:33Z</time>
      </trkpt>
      <trkpt lat="44.20486" lon="4.47337">
        <ele>79.4</ele>
        <time>2021-10-24T09:53:34Z</time>
      </trkpt>
      <trkpt lat="44.20483" lon="4.47345">
        <ele>79.6</ele>
        <time>2021-10-24T09:53:35Z</time>
      </trkpt>
      <trkpt lat="44.20479" lon="4.47354">
        <ele>79.4</ele>
        <time>2021-10-24T09:53:36Z</time>
      </trkpt>
      <trkpt lat="44.20475" lon="4.47363">
        <ele>79.4</ele>
        <time>2021-10-24T09:53:37Z</time>
      </trkpt>
      <trkpt lat="44.20471" lon="4.47371">
        <ele>79.6</ele>
        <time>2021-10-24T09:53:38Z</time>
      </trkpt>
      <trkpt lat="44.20467" lon="4.47379">
        <ele>79.6</ele>
        <time>2021-10-24T09:53:39Z</time>
      </trkpt>
      <trkpt lat="44.20463" lon="4.47388">
        <ele>79.8</ele>
        <time>2021-10-24T09:53:40Z</time>
      </trkpt>
      <trkpt lat="44.20459" lon="4.47396">
        <ele>79.8</ele>
        <time>2021-10-24T09:53:41Z</time>
      </trkpt>
      <trkpt lat="44.20454" lon="4.47404">
        <ele>79.6</ele>
        <time>2021-10-24T09:53:42Z</time>
      </trkpt>
      <trkpt lat="44.20451" lon="4.47413">
        <ele>79.8</ele>
        <time>2021-10-24T09:53:43Z</time>
      </trkpt>
      <trkpt lat="44.20447" lon="4.47421">
        <ele>80.2</ele>
        <time>2021-10-24T09:53:44Z</time>
      </trkpt>
      <trkpt lat="44.20443" lon="4.47429">
        <ele>80.4</ele>
        <time>2021-10-24T09:53:45Z</time>
      </trkpt>
      <trkpt lat="44.20439" lon="4.47437">
        <ele>80.4</ele>
        <time>2021-10-24T09:53:46Z</time>
      </trkpt>
      <trkpt lat="44.20437" lon="4.47446">
        <ele>80.4</ele>
        <time>2021-10-24T09:53:47Z</time>
      </trkpt>
      <trkpt lat="44.20435" lon="4.47455">
        <ele>80.4</ele>
        <time>2021-10-24T09:53:48Z</time>
      </trkpt>
      <trkpt lat="44.20434" lon="4.47465">
        <ele>80.4</ele>
        <time>2021-10-24T09:53:49Z</time>
      </trkpt>
      <trkpt lat="44.20434" lon="4.47474">
        <ele>80.6</ele>
        <time>2021-10-24T09:53:50Z</time>
      </trkpt>
      <trkpt lat="44.20434" lon="4.47483">
        <ele>81.2</ele>
        <time>2021-10-24T09:53:51Z</time>
      </trkpt>
      <trkpt lat="44.20434" lon="4.47491">
        <ele>81</ele>
        <time>2021-10-24T09:53:52Z</time>
      </trkpt>
      <trkpt lat="44.20434" lon="4.47499">
        <ele>81.2</ele>
        <time>2021-10-24T09:53:53Z</time>
      </trkpt>
      <trkpt lat="44.20433" lon="4.47506">
        <ele>81.4</ele>
        <time>2021-10-24T09:53:54Z</time>
      </trkpt>
      <trkpt lat="44.20432" lon="4.47512">
        <ele>81.6</ele>
        <time>2021-10-24T09:53:55Z</time>
      </trkpt>
      <trkpt lat="44.20431" lon="4.47518">
        <ele>82</ele>
        <time>2021-10-24T09:53:56Z</time>
      </trkpt>
      <trkpt lat="44.2043" lon="4.47523">
        <ele>82.4</ele>
        <time>2021-10-24T09:53:57Z</time>
      </trkpt>
      <trkpt lat="44.2043" lon="4.47529">
        <ele>82.6</ele>
        <time>2021-10-24T09:53:58Z</time>
      </trkpt>
      <trkpt lat="44.20429" lon="4.47535">
        <ele>82.8</ele>
        <time>2021-10-24T09:53:59Z</time>
      </trkpt>
      <trkpt lat="44.20429" lon="4.47541">
        <ele>83</ele>
        <time>2021-10-24T09:54:00Z</time>
      </trkpt>
      <trkpt lat="44.20428" lon="4.47547">
        <ele>83</ele>
        <time>2021-10-24T09:54:01Z</time>
      </trkpt>
      <trkpt lat="44.20426" lon="4.47554">
        <ele>83.2</ele>
        <time>2021-10-24T09:54:02Z</time>
      </trkpt>
      <trkpt lat="44.20425" lon="4.47562">
        <ele>83.6</ele>
        <time>2021-10-24T09:54:03Z</time>
      </trkpt>
      <trkpt lat="44.20424" lon="4.47569">
        <ele>83.8</ele>
        <time>2021-10-24T09:54:04Z</time>
      </trkpt>
      <trkpt lat="44.20423" lon="4.47575">
        <ele>84</ele>
        <time>2021-10-24T09:54:05Z</time>
      </trkpt>
      <trkpt lat="44.20422" lon="4.47581">
        <ele>84.2</ele>
        <time>2021-10-24T09:54:06Z</time>
      </trkpt>
      <trkpt lat="44.20421" lon="4.47587">
        <ele>84.6</ele>
        <time>2021-10-24T09:54:07Z</time>
      </trkpt>
      <trkpt lat="44.2042" lon="4.47592">
        <ele>85.2</ele>
        <time>2021-10-24T09:54:08Z</time>
      </trkpt>
      <trkpt lat="44.20418" lon="4.47597">
        <ele>85.4</ele>
        <time>2021-10-24T09:54:09Z</time>
      </trkpt>
      <trkpt lat="44.20416" lon="4.47603">
        <ele>86</ele>
        <time>2021-10-24T09:54:10Z</time>
      </trkpt>
      <trkpt lat="44.20414" lon="4.47609">
        <ele>86</ele>
        <time>2021-10-24T09:54:11Z</time>
      </trkpt>
      <trkpt lat="44.20412" lon="4.47614">
        <ele>86.2</ele>
        <time>2021-10-24T09:54:12Z</time>
      </trkpt>
      <trkpt lat="44.2041" lon="4.4762">
        <ele>86.6</ele>
        <time>2021-10-24T09:54:13Z</time>
      </trkpt>
      <trkpt lat="44.20409" lon="4.47626">
        <ele>87.2</ele>
        <time>2021-10-24T09:54:14Z</time>
      </trkpt>
      <trkpt lat="44.20409" lon="4.47631">
        <ele>87.6</ele>
        <time>2021-10-24T09:54:15Z</time>
      </trkpt>
      <trkpt lat="44.20409" lon="4.47637">
        <ele>87.8</ele>
        <time>2021-10-24T09:54:16Z</time>
      </trkpt>
      <trkpt lat="44.2041" lon="4.47648">
        <ele>89</ele>
        <time>2021-10-24T09:54:18Z</time>
      </trkpt>
      <trkpt lat="44.20412" lon="4.47658">
        <ele>89.8</ele>
        <time>2021-10-24T09:54:20Z</time>
      </trkpt>
      <trkpt lat="44.20413" lon="4.47663">
        <ele>90.4</ele>
        <time>2021-10-24T09:54:21Z</time>
      </trkpt>
      <trkpt lat="44.20414" lon="4.47668">
        <ele>91.2</ele>
        <time>2021-10-24T09:54:22Z</time>
      </trkpt>
      <trkpt lat="44.20414" lon="4.47673">
        <ele>91.6</ele>
        <time>2021-10-24T09:54:23Z</time>
      </trkpt>
      <trkpt lat="44.20416" lon="4.47678">
        <ele>92</ele>
        <time>2021-10-24T09:54:24Z</time>
      </trkpt>
      <trkpt lat="44.20417" lon="4.47683">
        <ele>92.6</ele>
        <time>2021-10-24T09:54:25Z</time>
      </trkpt>
      <trkpt lat="44.20418" lon="4.47687">
        <ele>93.2</ele>
        <time>2021-10-24T09:54:26Z</time>
      </trkpt>
      <trkpt lat="44.20419" lon="4.47692">
        <ele>93.6</ele>
        <time>2021-10-24T09:54:27Z</time>
      </trkpt>
      <trkpt lat="44.2042" lon="4.47698">
        <ele>94.2</ele>
        <time>2021-10-24T09:54:28Z</time>
      </trkpt>
      <trkpt lat="44.20421" lon="4.47703">
        <ele>94.8</ele>
        <time>2021-10-24T09:54:29Z</time>
      </trkpt>
      <trkpt lat="44.20421" lon="4.47707">
        <ele>95.4</ele>
        <time>2021-10-24T09:54:30Z</time>
      </trkpt>
      <trkpt lat="44.20422" lon="4.47711">
        <ele>95.8</ele>
        <time>2021-10-24T09:54:31Z</time>
      </trkpt>
      <trkpt lat="44.20422" lon="4.47715">
        <ele>96.2</ele>
        <time>2021-10-24T09:54:32Z</time>
      </trkpt>
      <trkpt lat="44.20424" lon="4.47719">
        <ele>96.8</ele>
        <time>2021-10-24T09:54:33Z</time>
      </trkpt>
      <trkpt lat="44.20425" lon="4.47723">
        <ele>97.2</ele>
        <time>2021-10-24T09:54:34Z</time>
      </trkpt>
      <trkpt lat="44.20426" lon="4.47727">
        <ele>97.4</ele>
        <time>2021-10-24T09:54:35Z</time>
      </trkpt>
      <trkpt lat="44.20428" lon="4.47732">
        <ele>97.8</ele>
        <time>2021-10-24T09:54:36Z</time>
      </trkpt>
      <trkpt lat="44.2043" lon="4.47736">
        <ele>98.2</ele>
        <time>2021-10-24T09:54:37Z</time>
      </trkpt>
      <trkpt lat="44.20432" lon="4.47742">
        <ele>98.6</ele>
        <time>2021-10-24T09:54:38Z</time>
      </trkpt>
      <trkpt lat="44.20434" lon="4.47747">
        <ele>98.8</ele>
        <time>2021-10-24T09:54:39Z</time>
      </trkpt>
      <trkpt lat="44.20436" lon="4.47752">
        <ele>99</ele>
        <time>2021-10-24T09:54:40Z</time>
      </trkpt>
      <trkpt lat="44.20439" lon="4.47758">
        <ele>99.2</ele>
        <time>2021-10-24T09:54:41Z</time>
      </trkpt>
      <trkpt lat="44.20441" lon="4.47764">
        <ele>99.2</ele>
        <time>2021-10-24T09:54:42Z</time>
      </trkpt>
      <trkpt lat="44.20444" lon="4.47771">
        <ele>99.6</ele>
        <time>2021-10-24T09:54:43Z</time>
      </trkpt>
      <trkpt lat="44.20446" lon="4.47778">
        <ele>99.8</ele>
        <time>2021-10-24T09:54:44Z</time>
      </trkpt>
      <trkpt lat="44.20448" lon="4.47785">
        <ele>100</ele>
        <time>2021-10-24T09:54:45Z</time>
      </trkpt>
      <trkpt lat="44.2045" lon="4.47792">
        <ele>100</ele>
        <time>2021-10-24T09:54:46Z</time>
      </trkpt>
      <trkpt lat="44.20453" lon="4.478">
        <ele>100.2</ele>
        <time>2021-10-24T09:54:47Z</time>
      </trkpt>
      <trkpt lat="44.20455" lon="4.47807">
        <ele>100.2</ele>
        <time>2021-10-24T09:54:48Z</time>
      </trkpt>
      <trkpt lat="44.20458" lon="4.47814">
        <ele>100.4</ele>
        <time>2021-10-24T09:54:49Z</time>
      </trkpt>
      <trkpt lat="44.20461" lon="4.4782">
        <ele>100.8</ele>
        <time>2021-10-24T09:54:50Z</time>
      </trkpt>
      <trkpt lat="44.20464" lon="4.47827">
        <ele>100.8</ele>
        <time>2021-10-24T09:54:51Z</time>
      </trkpt>
      <trkpt lat="44.20467" lon="4.47833">
        <ele>101</ele>
        <time>2021-10-24T09:54:52Z</time>
      </trkpt>
      <trkpt lat="44.2047" lon="4.4784">
        <ele>101.4</ele>
        <time>2021-10-24T09:54:53Z</time>
      </trkpt>
      <trkpt lat="44.20473" lon="4.47846">
        <ele>101.6</ele>
        <time>2021-10-24T09:54:54Z</time>
      </trkpt>
      <trkpt lat="44.20475" lon="4.47852">
        <ele>101.8</ele>
        <time>2021-10-24T09:54:55Z</time>
      </trkpt>
      <trkpt lat="44.20478" lon="4.47858">
        <ele>102</ele>
        <time>2021-10-24T09:54:56Z</time>
      </trkpt>
      <trkpt lat="44.2048" lon="4.47864">
        <ele>102</ele>
        <time>2021-10-24T09:54:57Z</time>
      </trkpt>
      <trkpt lat="44.20482" lon="4.4787">
        <ele>102</ele>
        <time>2021-10-24T09:54:58Z</time>
      </trkpt>
      <trkpt lat="44.20483" lon="4.47876">
        <ele>102.4</ele>
        <time>2021-10-24T09:54:59Z</time>
      </trkpt>
      <trkpt lat="44.20485" lon="4.47882">
        <ele>103</ele>
        <time>2021-10-24T09:55:00Z</time>
      </trkpt>
      <trkpt lat="44.20487" lon="4.47889">
        <ele>103.2</ele>
        <time>2021-10-24T09:55:01Z</time>
      </trkpt>
      <trkpt lat="44.20489" lon="4.47895">
        <ele>103.6</ele>
        <time>2021-10-24T09:55:02Z</time>
      </trkpt>
      <trkpt lat="44.2049" lon="4.47902">
        <ele>103.8</ele>
        <time>2021-10-24T09:55:03Z</time>
      </trkpt>
      <trkpt lat="44.20491" lon="4.47907">
        <ele>104</ele>
        <time>2021-10-24T09:55:04Z</time>
      </trkpt>
      <trkpt lat="44.20493" lon="4.47913">
        <ele>104</ele>
        <time>2021-10-24T09:55:05Z</time>
      </trkpt>
      <trkpt lat="44.20495" lon="4.4792">
        <ele>104</ele>
        <time>2021-10-24T09:55:06Z</time>
      </trkpt>
      <trkpt lat="44.20497" lon="4.47927">
        <ele>104.4</ele>
        <time>2021-10-24T09:55:07Z</time>
      </trkpt>
      <trkpt lat="44.20499" lon="4.47934">
        <ele>104.6</ele>
        <time>2021-10-24T09:55:08Z</time>
      </trkpt>
      <trkpt lat="44.205" lon="4.47941">
        <ele>104.8</ele>
        <time>2021-10-24T09:55:09Z</time>
      </trkpt>
      <trkpt lat="44.20502" lon="4.47949">
        <ele>105</ele>
        <time>2021-10-24T09:55:10Z</time>
      </trkpt>
      <trkpt lat="44.20504" lon="4.47956">
        <ele>105.2</ele>
        <time>2021-10-24T09:55:11Z</time>
      </trkpt>
      <trkpt lat="44.20507" lon="4.47964">
        <ele>105.4</ele>
        <time>2021-10-24T09:55:12Z</time>
      </trkpt>
      <trkpt lat="44.20509" lon="4.47972">
        <ele>105.6</ele>
        <time>2021-10-24T09:55:13Z</time>
      </trkpt>
      <trkpt lat="44.20512" lon="4.47981">
        <ele>105.8</ele>
        <time>2021-10-24T09:55:14Z</time>
      </trkpt>
      <trkpt lat="44.20514" lon="4.47989">
        <ele>105.8</ele>
        <time>2021-10-24T09:55:15Z</time>
      </trkpt>
      <trkpt lat="44.20516" lon="4.47998">
        <ele>105.8</ele>
        <time>2021-10-24T09:55:16Z</time>
      </trkpt>
      <trkpt lat="44.20519" lon="4.48008">
        <ele>106</ele>
        <time>2021-10-24T09:55:17Z</time>
      </trkpt>
      <trkpt lat="44.20522" lon="4.48018">
        <ele>106</ele>
        <time>2021-10-24T09:55:18Z</time>
      </trkpt>
      <trkpt lat="44.20525" lon="4.48027">
        <ele>106</ele>
        <time>2021-10-24T09:55:19Z</time>
      </trkpt>
      <trkpt lat="44.20528" lon="4.48037">
        <ele>106.2</ele>
        <time>2021-10-24T09:55:20Z</time>
      </trkpt>
      <trkpt lat="44.20531" lon="4.48048">
        <ele>106.2</ele>
        <time>2021-10-24T09:55:21Z</time>
      </trkpt>
      <trkpt lat="44.20534" lon="4.48058">
        <ele>105.8</ele>
        <time>2021-10-24T09:55:22Z</time>
      </trkpt>
      <trkpt lat="44.20538" lon="4.48069">
        <ele>106</ele>
        <time>2021-10-24T09:55:23Z</time>
      </trkpt>
      <trkpt lat="44.20541" lon="4.48081">
        <ele>105.8</ele>
        <time>2021-10-24T09:55:24Z</time>
      </trkpt>
      <trkpt lat="44.20544" lon="4.48093">
        <ele>105.8</ele>
        <time>2021-10-24T09:55:25Z</time>
      </trkpt>
      <trkpt lat="44.20546" lon="4.48105">
        <ele>105.4</ele>
        <time>2021-10-24T09:55:26Z</time>
      </trkpt>
      <trkpt lat="44.20549" lon="4.48117">
        <ele>105.2</ele>
        <time>2021-10-24T09:55:27Z</time>
      </trkpt>
      <trkpt lat="44.20551" lon="4.4813">
        <ele>105.4</ele>
        <time>2021-10-24T09:55:28Z</time>
      </trkpt>
      <trkpt lat="44.20553" lon="4.48143">
        <ele>105.2</ele>
        <time>2021-10-24T09:55:29Z</time>
      </trkpt>
      <trkpt lat="44.20555" lon="4.48157">
        <ele>104.8</ele>
        <time>2021-10-24T09:55:30Z</time>
      </trkpt>
      <trkpt lat="44.20558" lon="4.4817">
        <ele>104.6</ele>
        <time>2021-10-24T09:55:31Z</time>
      </trkpt>
      <trkpt lat="44.2056" lon="4.48184">
        <ele>104.2</ele>
        <time>2021-10-24T09:55:32Z</time>
      </trkpt>
      <trkpt lat="44.20563" lon="4.48198">
        <ele>103.6</ele>
        <time>2021-10-24T09:55:33Z</time>
      </trkpt>
      <trkpt lat="44.20565" lon="4.48212">
        <ele>103.2</ele>
        <time>2021-10-24T09:55:34Z</time>
      </trkpt>
      <trkpt lat="44.20568" lon="4.48226">
        <ele>102.4</ele>
        <time>2021-10-24T09:55:35Z</time>
      </trkpt>
      <trkpt lat="44.20571" lon="4.48239">
        <ele>101.8</ele>
        <time>2021-10-24T09:55:36Z</time>
      </trkpt>
      <trkpt lat="44.20573" lon="4.48252">
        <ele>101.8</ele>
        <time>2021-10-24T09:55:37Z</time>
      </trkpt>
      <trkpt lat="44.20575" lon="4.48265">
        <ele>101.6</ele>
        <time>2021-10-24T09:55:38Z</time>
      </trkpt>
      <trkpt lat="44.20577" lon="4.48278">
        <ele>101.6</ele>
        <time>2021-10-24T09:55:39Z</time>
      </trkpt>
      <trkpt lat="44.20579" lon="4.48289">
        <ele>101.4</ele>
        <time>2021-10-24T09:55:40Z</time>
      </trkpt>
      <trkpt lat="44.20582" lon="4.483">
        <ele>101.2</ele>
        <time>2021-10-24T09:55:41Z</time>
      </trkpt>
      <trkpt lat="44.20586" lon="4.48311">
        <ele>101.2</ele>
        <time>2021-10-24T09:55:42Z</time>
      </trkpt>
      <trkpt lat="44.20589" lon="4.48322">
        <ele>101.6</ele>
        <time>2021-10-24T09:55:43Z</time>
      </trkpt>
      <trkpt lat="44.20593" lon="4.48333">
        <ele>101.4</ele>
        <time>2021-10-24T09:55:44Z</time>
      </trkpt>
      <trkpt lat="44.20597" lon="4.48344">
        <ele>101.4</ele>
        <time>2021-10-24T09:55:45Z</time>
      </trkpt>
      <trkpt lat="44.206" lon="4.48354">
        <ele>101.6</ele>
        <time>2021-10-24T09:55:46Z</time>
      </trkpt>
      <trkpt lat="44.20603" lon="4.48364">
        <ele>101.8</ele>
        <time>2021-10-24T09:55:47Z</time>
      </trkpt>
      <trkpt lat="44.20606" lon="4.48374">
        <ele>102</ele>
        <time>2021-10-24T09:55:48Z</time>
      </trkpt>
      <trkpt lat="44.20609" lon="4.48384">
        <ele>102.4</ele>
        <time>2021-10-24T09:55:49Z</time>
      </trkpt>
      <trkpt lat="44.20612" lon="4.48394">
        <ele>102.6</ele>
        <time>2021-10-24T09:55:50Z</time>
      </trkpt>
      <trkpt lat="44.20615" lon="4.48403">
        <ele>102.8</ele>
        <time>2021-10-24T09:55:51Z</time>
      </trkpt>
      <trkpt lat="44.20619" lon="4.48413">
        <ele>103.2</ele>
        <time>2021-10-24T09:55:52Z</time>
      </trkpt>
      <trkpt lat="44.20623" lon="4.48422">
        <ele>103.2</ele>
        <time>2021-10-24T09:55:53Z</time>
      </trkpt>
      <trkpt lat="44.20627" lon="4.48431">
        <ele>103.2</ele>
        <time>2021-10-24T09:55:54Z</time>
      </trkpt>
      <trkpt lat="44.20631" lon="4.48441">
        <ele>103.4</ele>
        <time>2021-10-24T09:55:55Z</time>
      </trkpt>
      <trkpt lat="44.20634" lon="4.48451">
        <ele>103.2</ele>
        <time>2021-10-24T09:55:56Z</time>
      </trkpt>
      <trkpt lat="44.20636" lon="4.48461">
        <ele>103.4</ele>
        <time>2021-10-24T09:55:57Z</time>
      </trkpt>
      <trkpt lat="44.20638" lon="4.48471">
        <ele>103.4</ele>
        <time>2021-10-24T09:55:58Z</time>
      </trkpt>
      <trkpt lat="44.20639" lon="4.48481">
        <ele>103.6</ele>
        <time>2021-10-24T09:55:59Z</time>
      </trkpt>
      <trkpt lat="44.20639" lon="4.48492">
        <ele>103.8</ele>
        <time>2021-10-24T09:56:00Z</time>
      </trkpt>
      <trkpt lat="44.2064" lon="4.48502">
        <ele>103.8</ele>
        <time>2021-10-24T09:56:01Z</time>
      </trkpt>
      <trkpt lat="44.20641" lon="4.48512">
        <ele>103.8</ele>
        <time>2021-10-24T09:56:02Z</time>
      </trkpt>
      <trkpt lat="44.20643" lon="4.48522">
        <ele>104</ele>
        <time>2021-10-24T09:56:03Z</time>
      </trkpt>
      <trkpt lat="44.20645" lon="4.48532">
        <ele>103.8</ele>
        <time>2021-10-24T09:56:04Z</time>
      </trkpt>
      <trkpt lat="44.20646" lon="4.48542">
        <ele>104.2</ele>
        <time>2021-10-24T09:56:05Z</time>
      </trkpt>
      <trkpt lat="44.20648" lon="4.48551">
        <ele>104.2</ele>
        <time>2021-10-24T09:56:06Z</time>
      </trkpt>
      <trkpt lat="44.20649" lon="4.4856">
        <ele>104.2</ele>
        <time>2021-10-24T09:56:07Z</time>
      </trkpt>
      <trkpt lat="44.20651" lon="4.48569">
        <ele>104.6</ele>
        <time>2021-10-24T09:56:08Z</time>
      </trkpt>
      <trkpt lat="44.20652" lon="4.48577">
        <ele>104.8</ele>
        <time>2021-10-24T09:56:09Z</time>
      </trkpt>
      <trkpt lat="44.20654" lon="4.48586">
        <ele>104.8</ele>
        <time>2021-10-24T09:56:10Z</time>
      </trkpt>
      <trkpt lat="44.20656" lon="4.48594">
        <ele>105</ele>
        <time>2021-10-24T09:56:11Z</time>
      </trkpt>
      <trkpt lat="44.20659" lon="4.48602">
        <ele>105</ele>
        <time>2021-10-24T09:56:12Z</time>
      </trkpt>
      <trkpt lat="44.20662" lon="4.4861">
        <ele>105.2</ele>
        <time>2021-10-24T09:56:13Z</time>
      </trkpt>
      <trkpt lat="44.20665" lon="4.48619">
        <ele>105.6</ele>
        <time>2021-10-24T09:56:14Z</time>
      </trkpt>
      <trkpt lat="44.20669" lon="4.48628">
        <ele>105.8</ele>
        <time>2021-10-24T09:56:15Z</time>
      </trkpt>
      <trkpt lat="44.20672" lon="4.48636">
        <ele>105.6</ele>
        <time>2021-10-24T09:56:16Z</time>
      </trkpt>
      <trkpt lat="44.20674" lon="4.48644">
        <ele>106</ele>
        <time>2021-10-24T09:56:17Z</time>
      </trkpt>
      <trkpt lat="44.20677" lon="4.48653">
        <ele>106.2</ele>
        <time>2021-10-24T09:56:18Z</time>
      </trkpt>
      <trkpt lat="44.20679" lon="4.48664">
        <ele>106.2</ele>
        <time>2021-10-24T09:56:19Z</time>
      </trkpt>
      <trkpt lat="44.20681" lon="4.48674">
        <ele>106.2</ele>
        <time>2021-10-24T09:56:20Z</time>
      </trkpt>
      <trkpt lat="44.20686" lon="4.48696">
        <ele>106.2</ele>
        <time>2021-10-24T09:56:22Z</time>
      </trkpt>
      <trkpt lat="44.20689" lon="4.48707">
        <ele>106</ele>
        <time>2021-10-24T09:56:23Z</time>
      </trkpt>
      <trkpt lat="44.20691" lon="4.48718">
        <ele>106.2</ele>
        <time>2021-10-24T09:56:24Z</time>
      </trkpt>
      <trkpt lat="44.20694" lon="4.48729">
        <ele>106.4</ele>
        <time>2021-10-24T09:56:25Z</time>
      </trkpt>
      <trkpt lat="44.20695" lon="4.4874">
        <ele>106.4</ele>
        <time>2021-10-24T09:56:26Z</time>
      </trkpt>
      <trkpt lat="44.20696" lon="4.4875">
        <ele>106.4</ele>
        <time>2021-10-24T09:56:27Z</time>
      </trkpt>
      <trkpt lat="44.207" lon="4.4877">
        <ele>106.4</ele>
        <time>2021-10-24T09:56:29Z</time>
      </trkpt>
      <trkpt lat="44.20702" lon="4.4878">
        <ele>106.4</ele>
        <time>2021-10-24T09:56:30Z</time>
      </trkpt>
      <trkpt lat="44.20704" lon="4.4879">
        <ele>106.4</ele>
        <time>2021-10-24T09:56:31Z</time>
      </trkpt>
      <trkpt lat="44.20705" lon="4.48799">
        <ele>106.6</ele>
        <time>2021-10-24T09:56:32Z</time>
      </trkpt>
      <trkpt lat="44.20707" lon="4.48809">
        <ele>106.8</ele>
        <time>2021-10-24T09:56:33Z</time>
      </trkpt>
      <trkpt lat="44.20707" lon="4.48819">
        <ele>106.8</ele>
        <time>2021-10-24T09:56:34Z</time>
      </trkpt>
      <trkpt lat="44.20707" lon="4.4883">
        <ele>107</ele>
        <time>2021-10-24T09:56:35Z</time>
      </trkpt>
      <trkpt lat="44.20705" lon="4.48841">
        <ele>106.8</ele>
        <time>2021-10-24T09:56:36Z</time>
      </trkpt>
      <trkpt lat="44.20703" lon="4.48852">
        <ele>106.8</ele>
        <time>2021-10-24T09:56:37Z</time>
      </trkpt>
      <trkpt lat="44.207" lon="4.48863">
        <ele>107</ele>
        <time>2021-10-24T09:56:38Z</time>
      </trkpt>
      <trkpt lat="44.20697" lon="4.48874">
        <ele>106.8</ele>
        <time>2021-10-24T09:56:39Z</time>
      </trkpt>
      <trkpt lat="44.20695" lon="4.48885">
        <ele>106.8</ele>
        <time>2021-10-24T09:56:40Z</time>
      </trkpt>
      <trkpt lat="44.20692" lon="4.48897">
        <ele>106.6</ele>
        <time>2021-10-24T09:56:41Z</time>
      </trkpt>
      <trkpt lat="44.20689" lon="4.48908">
        <ele>106.4</ele>
        <time>2021-10-24T09:56:42Z</time>
      </trkpt>
      <trkpt lat="44.20685" lon="4.48919">
        <ele>106.6</ele>
        <time>2021-10-24T09:56:43Z</time>
      </trkpt>
      <trkpt lat="44.20681" lon="4.4893">
        <ele>106.6</ele>
        <time>2021-10-24T09:56:44Z</time>
      </trkpt>
      <trkpt lat="44.20678" lon="4.48941">
        <ele>106.6</ele>
        <time>2021-10-24T09:56:45Z</time>
      </trkpt>
      <trkpt lat="44.20674" lon="4.4895">
        <ele>106</ele>
        <time>2021-10-24T09:56:46Z</time>
      </trkpt>
      <trkpt lat="44.20672" lon="4.48958">
        <ele>105.8</ele>
        <time>2021-10-24T09:56:47Z</time>
      </trkpt>
      <trkpt lat="44.2067" lon="4.48963">
        <ele>105.6</ele>
        <time>2021-10-24T09:56:48Z</time>
      </trkpt>
      <trkpt lat="44.20668" lon="4.48967">
        <ele>105</ele>
        <time>2021-10-24T09:56:49Z</time>
      </trkpt>
      <trkpt lat="44.20666" lon="4.48971">
        <ele>104.4</ele>
        <time>2021-10-24T09:56:50Z</time>
      </trkpt>
      <trkpt lat="44.20665" lon="4.48973">
        <ele>104</ele>
        <time>2021-10-24T09:56:51Z</time>
      </trkpt>
      <trkpt lat="44.20664" lon="4.48975">
        <ele>102.4</ele>
        <time>2021-10-24T09:57:22Z</time>
      </trkpt>
      <trkpt lat="44.20662" lon="4.48979">
        <ele>102.4</ele>
        <time>2021-10-24T09:57:24Z</time>
      </trkpt>
      <trkpt lat="44.20659" lon="4.48981">
        <ele>102.4</ele>
        <time>2021-10-24T09:57:26Z</time>
      </trkpt>
      <trkpt lat="44.20658" lon="4.48982">
        <ele>102.4</ele>
        <time>2021-10-24T09:57:27Z</time>
      </trkpt>
      <trkpt lat="44.20656" lon="4.48984">
        <ele>102.4</ele>
        <time>2021-10-24T09:57:28Z</time>
      </trkpt>
      <trkpt lat="44.20654" lon="4.48986">
        <ele>102.6</ele>
        <time>2021-10-24T09:57:29Z</time>
      </trkpt>
      <trkpt lat="44.20653" lon="4.48989">
        <ele>102.8</ele>
        <time>2021-10-24T09:57:30Z</time>
      </trkpt>
      <trkpt lat="44.20651" lon="4.48992">
        <ele>103</ele>
        <time>2021-10-24T09:57:31Z</time>
      </trkpt>
      <trkpt lat="44.20649" lon="4.48995">
        <ele>103.2</ele>
        <time>2021-10-24T09:57:32Z</time>
      </trkpt>
      <trkpt lat="44.20646" lon="4.48998">
        <ele>103.6</ele>
        <time>2021-10-24T09:57:33Z</time>
      </trkpt>
      <trkpt lat="44.20644" lon="4.49001">
        <ele>103.8</ele>
        <time>2021-10-24T09:57:34Z</time>
      </trkpt>
      <trkpt lat="44.20643" lon="4.49005">
        <ele>104.2</ele>
        <time>2021-10-24T09:57:35Z</time>
      </trkpt>
      <trkpt lat="44.20641" lon="4.4901">
        <ele>104.2</ele>
        <time>2021-10-24T09:57:36Z</time>
      </trkpt>
      <trkpt lat="44.2064" lon="4.49015">
        <ele>104.6</ele>
        <time>2021-10-24T09:57:37Z</time>
      </trkpt>
      <trkpt lat="44.20638" lon="4.4902">
        <ele>104.8</ele>
        <time>2021-10-24T09:57:38Z</time>
      </trkpt>
      <trkpt lat="44.20636" lon="4.49026">
        <ele>105</ele>
        <time>2021-10-24T09:57:39Z</time>
      </trkpt>
      <trkpt lat="44.20634" lon="4.49031">
        <ele>105.4</ele>
        <time>2021-10-24T09:57:40Z</time>
      </trkpt>
      <trkpt lat="44.20633" lon="4.49037">
        <ele>105.6</ele>
        <time>2021-10-24T09:57:41Z</time>
      </trkpt>
      <trkpt lat="44.20631" lon="4.49042">
        <ele>106</ele>
        <time>2021-10-24T09:57:42Z</time>
      </trkpt>
      <trkpt lat="44.20628" lon="4.49047">
        <ele>106</ele>
        <time>2021-10-24T09:57:43Z</time>
      </trkpt>
      <trkpt lat="44.20626" lon="4.49053">
        <ele>106.4</ele>
        <time>2021-10-24T09:57:44Z</time>
      </trkpt>
      <trkpt lat="44.20625" lon="4.49058">
        <ele>106.6</ele>
        <time>2021-10-24T09:57:45Z</time>
      </trkpt>
      <trkpt lat="44.20624" lon="4.49064">
        <ele>106.6</ele>
        <time>2021-10-24T09:57:46Z</time>
      </trkpt>
      <trkpt lat="44.20621" lon="4.49069">
        <ele>107.2</ele>
        <time>2021-10-24T09:57:47Z</time>
      </trkpt>
      <trkpt lat="44.2062" lon="4.49074">
        <ele>107.4</ele>
        <time>2021-10-24T09:57:48Z</time>
      </trkpt>
      <trkpt lat="44.20618" lon="4.4908">
        <ele>107.6</ele>
        <time>2021-10-24T09:57:49Z</time>
      </trkpt>
      <trkpt lat="44.20617" lon="4.49085">
        <ele>108</ele>
        <time>2021-10-24T09:57:50Z</time>
      </trkpt>
      <trkpt lat="44.20616" lon="4.49092">
        <ele>108.2</ele>
        <time>2021-10-24T09:57:51Z</time>
      </trkpt>
      <trkpt lat="44.20616" lon="4.49098">
        <ele>108.8</ele>
        <time>2021-10-24T09:57:52Z</time>
      </trkpt>
      <trkpt lat="44.20615" lon="4.49104">
        <ele>108.8</ele>
        <time>2021-10-24T09:57:53Z</time>
      </trkpt>
      <trkpt lat="44.20614" lon="4.4911">
        <ele>109.2</ele>
        <time>2021-10-24T09:57:54Z</time>
      </trkpt>
      <trkpt lat="44.20613" lon="4.49117">
        <ele>109.2</ele>
        <time>2021-10-24T09:57:55Z</time>
      </trkpt>
      <trkpt lat="44.20612" lon="4.49123">
        <ele>109.4</ele>
        <time>2021-10-24T09:57:56Z</time>
      </trkpt>
      <trkpt lat="44.20612" lon="4.4913">
        <ele>109.6</ele>
        <time>2021-10-24T09:57:57Z</time>
      </trkpt>
      <trkpt lat="44.20612" lon="4.49136">
        <ele>109.6</ele>
        <time>2021-10-24T09:57:58Z</time>
      </trkpt>
      <trkpt lat="44.20612" lon="4.49142">
        <ele>109.6</ele>
        <time>2021-10-24T09:57:59Z</time>
      </trkpt>
      <trkpt lat="44.20612" lon="4.49149">
        <ele>109.2</ele>
        <time>2021-10-24T09:58:00Z</time>
      </trkpt>
      <trkpt lat="44.20612" lon="4.49155">
        <ele>109.4</ele>
        <time>2021-10-24T09:58:01Z</time>
      </trkpt>
      <trkpt lat="44.20611" lon="4.49163">
        <ele>109.2</ele>
        <time>2021-10-24T09:58:02Z</time>
      </trkpt>
      <trkpt lat="44.20608" lon="4.49171">
        <ele>109.2</ele>
        <time>2021-10-24T09:58:03Z</time>
      </trkpt>
      <trkpt lat="44.20606" lon="4.49178">
        <ele>108.8</ele>
        <time>2021-10-24T09:58:04Z</time>
      </trkpt>
      <trkpt lat="44.20602" lon="4.49187">
        <ele>108.8</ele>
        <time>2021-10-24T09:58:05Z</time>
      </trkpt>
      <trkpt lat="44.20598" lon="4.49195">
        <ele>108.4</ele>
        <time>2021-10-24T09:58:06Z</time>
      </trkpt>
      <trkpt lat="44.20594" lon="4.49204">
        <ele>108</ele>
        <time>2021-10-24T09:58:07Z</time>
      </trkpt>
      <trkpt lat="44.20589" lon="4.49213">
        <ele>107.6</ele>
        <time>2021-10-24T09:58:08Z</time>
      </trkpt>
      <trkpt lat="44.20586" lon="4.49221">
        <ele>107.2</ele>
        <time>2021-10-24T09:58:09Z</time>
      </trkpt>
      <trkpt lat="44.20582" lon="4.49228">
        <ele>106.6</ele>
        <time>2021-10-24T09:58:10Z</time>
      </trkpt>
      <trkpt lat="44.20578" lon="4.49234">
        <ele>106.6</ele>
        <time>2021-10-24T09:58:11Z</time>
      </trkpt>
      <trkpt lat="44.20573" lon="4.49239">
        <ele>106.2</ele>
        <time>2021-10-24T09:58:12Z</time>
      </trkpt>
      <trkpt lat="44.20569" lon="4.49246">
        <ele>106.2</ele>
        <time>2021-10-24T09:58:13Z</time>
      </trkpt>
      <trkpt lat="44.20568" lon="4.49255">
        <ele>106.2</ele>
        <time>2021-10-24T09:58:14Z</time>
      </trkpt>
      <trkpt lat="44.20567" lon="4.49263">
        <ele>106</ele>
        <time>2021-10-24T09:58:15Z</time>
      </trkpt>
      <trkpt lat="44.20567" lon="4.49272">
        <ele>106</ele>
        <time>2021-10-24T09:58:16Z</time>
      </trkpt>
      <trkpt lat="44.20567" lon="4.4928">
        <ele>106</ele>
        <time>2021-10-24T09:58:17Z</time>
      </trkpt>
      <trkpt lat="44.20568" lon="4.49288">
        <ele>106</ele>
        <time>2021-10-24T09:58:18Z</time>
      </trkpt>
      <trkpt lat="44.20569" lon="4.49296">
        <ele>106.2</ele>
        <time>2021-10-24T09:58:19Z</time>
      </trkpt>
      <trkpt lat="44.2057" lon="4.49304">
        <ele>106.2</ele>
        <time>2021-10-24T09:58:20Z</time>
      </trkpt>
      <trkpt lat="44.20571" lon="4.49312">
        <ele>106.4</ele>
        <time>2021-10-24T09:58:21Z</time>
      </trkpt>
      <trkpt lat="44.20572" lon="4.49321">
        <ele>106.6</ele>
        <time>2021-10-24T09:58:22Z</time>
      </trkpt>
      <trkpt lat="44.20572" lon="4.49331">
        <ele>106.8</ele>
        <time>2021-10-24T09:58:23Z</time>
      </trkpt>
      <trkpt lat="44.20572" lon="4.49341">
        <ele>106.6</ele>
        <time>2021-10-24T09:58:24Z</time>
      </trkpt>
      <trkpt lat="44.20571" lon="4.49351">
        <ele>106.4</ele>
        <time>2021-10-24T09:58:25Z</time>
      </trkpt>
      <trkpt lat="44.20571" lon="4.49361">
        <ele>106.4</ele>
        <time>2021-10-24T09:58:26Z</time>
      </trkpt>
      <trkpt lat="44.2057" lon="4.49372">
        <ele>106.2</ele>
        <time>2021-10-24T09:58:27Z</time>
      </trkpt>
      <trkpt lat="44.2057" lon="4.49383">
        <ele>105.8</ele>
        <time>2021-10-24T09:58:28Z</time>
      </trkpt>
      <trkpt lat="44.2057" lon="4.49394">
        <ele>105.6</ele>
        <time>2021-10-24T09:58:29Z</time>
      </trkpt>
      <trkpt lat="44.20573" lon="4.49405">
        <ele>105.4</ele>
        <time>2021-10-24T09:58:30Z</time>
      </trkpt>
      <trkpt lat="44.20577" lon="4.49414">
        <ele>105.2</ele>
        <time>2021-10-24T09:58:31Z</time>
      </trkpt>
      <trkpt lat="44.20583" lon="4.49423">
        <ele>104.6</ele>
        <time>2021-10-24T09:58:32Z</time>
      </trkpt>
      <trkpt lat="44.20589" lon="4.49431">
        <ele>104.4</ele>
        <time>2021-10-24T09:58:33Z</time>
      </trkpt>
      <trkpt lat="44.20595" lon="4.4944">
        <ele>104.2</ele>
        <time>2021-10-24T09:58:34Z</time>
      </trkpt>
      <trkpt lat="44.20601" lon="4.49448">
        <ele>104</ele>
        <time>2021-10-24T09:58:35Z</time>
      </trkpt>
      <trkpt lat="44.20606" lon="4.49456">
        <ele>103.6</ele>
        <time>2021-10-24T09:58:36Z</time>
      </trkpt>
      <trkpt lat="44.20611" lon="4.49463">
        <ele>103.4</ele>
        <time>2021-10-24T09:58:37Z</time>
      </trkpt>
      <trkpt lat="44.20617" lon="4.49468">
        <ele>102.8</ele>
        <time>2021-10-24T09:58:38Z</time>
      </trkpt>
      <trkpt lat="44.20625" lon="4.49471">
        <ele>102.4</ele>
        <time>2021-10-24T09:58:39Z</time>
      </trkpt>
      <trkpt lat="44.20633" lon="4.4947">
        <ele>101.6</ele>
        <time>2021-10-24T09:58:40Z</time>
      </trkpt>
      <trkpt lat="44.20642" lon="4.49466">
        <ele>101</ele>
        <time>2021-10-24T09:58:41Z</time>
      </trkpt>
      <trkpt lat="44.2065" lon="4.49461">
        <ele>100.6</ele>
        <time>2021-10-24T09:58:42Z</time>
      </trkpt>
      <trkpt lat="44.20659" lon="4.49456">
        <ele>100</ele>
        <time>2021-10-24T09:58:43Z</time>
      </trkpt>
      <trkpt lat="44.20668" lon="4.49451">
        <ele>99.4</ele>
        <time>2021-10-24T09:58:44Z</time>
      </trkpt>
      <trkpt lat="44.20677" lon="4.49446">
        <ele>98.8</ele>
        <time>2021-10-24T09:58:45Z</time>
      </trkpt>
      <trkpt lat="44.20686" lon="4.49442">
        <ele>98.2</ele>
        <time>2021-10-24T09:58:46Z</time>
      </trkpt>
      <trkpt lat="44.20695" lon="4.49437">
        <ele>97.6</ele>
        <time>2021-10-24T09:58:47Z</time>
      </trkpt>
      <trkpt lat="44.20704" lon="4.49433">
        <ele>97</ele>
        <time>2021-10-24T09:58:48Z</time>
      </trkpt>
      <trkpt lat="44.20713" lon="4.4943">
        <ele>97</ele>
        <time>2021-10-24T09:58:49Z</time>
      </trkpt>
      <trkpt lat="44.20721" lon="4.49426">
        <ele>97</ele>
        <time>2021-10-24T09:58:50Z</time>
      </trkpt>
      <trkpt lat="44.2073" lon="4.49423">
        <ele>96.4</ele>
        <time>2021-10-24T09:58:51Z</time>
      </trkpt>
      <trkpt lat="44.20739" lon="4.4942">
        <ele>96.2</ele>
        <time>2021-10-24T09:58:52Z</time>
      </trkpt>
      <trkpt lat="44.20748" lon="4.49417">
        <ele>95.6</ele>
        <time>2021-10-24T09:58:53Z</time>
      </trkpt>
      <trkpt lat="44.20756" lon="4.49414">
        <ele>95.2</ele>
        <time>2021-10-24T09:58:54Z</time>
      </trkpt>
      <trkpt lat="44.20765" lon="4.49412">
        <ele>94.8</ele>
        <time>2021-10-24T09:58:55Z</time>
      </trkpt>
      <trkpt lat="44.20774" lon="4.4941">
        <ele>94.4</ele>
        <time>2021-10-24T09:58:56Z</time>
      </trkpt>
      <trkpt lat="44.20783" lon="4.4941">
        <ele>94</ele>
        <time>2021-10-24T09:58:57Z</time>
      </trkpt>
      <trkpt lat="44.20791" lon="4.49412">
        <ele>93.6</ele>
        <time>2021-10-24T09:58:58Z</time>
      </trkpt>
      <trkpt lat="44.20799" lon="4.49416">
        <ele>93.4</ele>
        <time>2021-10-24T09:58:59Z</time>
      </trkpt>
      <trkpt lat="44.20807" lon="4.49419">
        <ele>93</ele>
        <time>2021-10-24T09:59:00Z</time>
      </trkpt>
      <trkpt lat="44.20815" lon="4.49423">
        <ele>92.4</ele>
        <time>2021-10-24T09:59:01Z</time>
      </trkpt>
      <trkpt lat="44.20823" lon="4.49427">
        <ele>92.4</ele>
        <time>2021-10-24T09:59:02Z</time>
      </trkpt>
      <trkpt lat="44.20831" lon="4.4943">
        <ele>92.2</ele>
        <time>2021-10-24T09:59:03Z</time>
      </trkpt>
      <trkpt lat="44.20839" lon="4.49433">
        <ele>92</ele>
        <time>2021-10-24T09:59:04Z</time>
      </trkpt>
      <trkpt lat="44.20847" lon="4.49436">
        <ele>92.4</ele>
        <time>2021-10-24T09:59:05Z</time>
      </trkpt>
      <trkpt lat="44.20855" lon="4.49439">
        <ele>92.2</ele>
        <time>2021-10-24T09:59:06Z</time>
      </trkpt>
      <trkpt lat="44.20863" lon="4.49442">
        <ele>92.2</ele>
        <time>2021-10-24T09:59:07Z</time>
      </trkpt>
      <trkpt lat="44.20872" lon="4.49444">
        <ele>92.2</ele>
        <time>2021-10-24T09:59:08Z</time>
      </trkpt>
      <trkpt lat="44.2088" lon="4.49446">
        <ele>92.2</ele>
        <time>2021-10-24T09:59:09Z</time>
      </trkpt>
      <trkpt lat="44.20888" lon="4.49448">
        <ele>92.2</ele>
        <time>2021-10-24T09:59:10Z</time>
      </trkpt>
      <trkpt lat="44.20896" lon="4.4945">
        <ele>92</ele>
        <time>2021-10-24T09:59:11Z</time>
      </trkpt>
      <trkpt lat="44.20905" lon="4.49451">
        <ele>91.8</ele>
        <time>2021-10-24T09:59:12Z</time>
      </trkpt>
      <trkpt lat="44.20913" lon="4.49453">
        <ele>91.8</ele>
        <time>2021-10-24T09:59:13Z</time>
      </trkpt>
      <trkpt lat="44.20921" lon="4.49454">
        <ele>91.6</ele>
        <time>2021-10-24T09:59:14Z</time>
      </trkpt>
      <trkpt lat="44.20929" lon="4.49455">
        <ele>91.4</ele>
        <time>2021-10-24T09:59:15Z</time>
      </trkpt>
      <trkpt lat="44.20937" lon="4.49456">
        <ele>91</ele>
        <time>2021-10-24T09:59:16Z</time>
      </trkpt>
      <trkpt lat="44.20945" lon="4.49456">
        <ele>90.8</ele>
        <time>2021-10-24T09:59:17Z</time>
      </trkpt>
      <trkpt lat="44.20953" lon="4.49457">
        <ele>90.4</ele>
        <time>2021-10-24T09:59:18Z</time>
      </trkpt>
      <trkpt lat="44.20961" lon="4.49457">
        <ele>90.4</ele>
        <time>2021-10-24T09:59:19Z</time>
      </trkpt>
      <trkpt lat="44.20969" lon="4.49457">
        <ele>90.6</ele>
        <time>2021-10-24T09:59:20Z</time>
      </trkpt>
      <trkpt lat="44.20976" lon="4.49458">
        <ele>90.2</ele>
        <time>2021-10-24T09:59:21Z</time>
      </trkpt>
      <trkpt lat="44.20983" lon="4.49458">
        <ele>90.2</ele>
        <time>2021-10-24T09:59:22Z</time>
      </trkpt>
      <trkpt lat="44.2099" lon="4.49458">
        <ele>90</ele>
        <time>2021-10-24T09:59:23Z</time>
      </trkpt>
      <trkpt lat="44.20997" lon="4.49458">
        <ele>89.8</ele>
        <time>2021-10-24T09:59:24Z</time>
      </trkpt>
      <trkpt lat="44.21004" lon="4.49458">
        <ele>89.6</ele>
        <time>2021-10-24T09:59:25Z</time>
      </trkpt>
      <trkpt lat="44.21011" lon="4.49458">
        <ele>89.4</ele>
        <time>2021-10-24T09:59:26Z</time>
      </trkpt>
      <trkpt lat="44.21019" lon="4.49458">
        <ele>89.6</ele>
        <time>2021-10-24T09:59:27Z</time>
      </trkpt>
      <trkpt lat="44.21026" lon="4.49458">
        <ele>89.8</ele>
        <time>2021-10-24T09:59:28Z</time>
      </trkpt>
      <trkpt lat="44.21033" lon="4.49458">
        <ele>90</ele>
        <time>2021-10-24T09:59:29Z</time>
      </trkpt>
      <trkpt lat="44.2104" lon="4.49458">
        <ele>89.8</ele>
        <time>2021-10-24T09:59:30Z</time>
      </trkpt>
      <trkpt lat="44.21047" lon="4.49458">
        <ele>89.6</ele>
        <time>2021-10-24T09:59:31Z</time>
      </trkpt>
      <trkpt lat="44.21055" lon="4.49458">
        <ele>89.6</ele>
        <time>2021-10-24T09:59:32Z</time>
      </trkpt>
      <trkpt lat="44.21062" lon="4.49458">
        <ele>89.4</ele>
        <time>2021-10-24T09:59:33Z</time>
      </trkpt>
      <trkpt lat="44.21069" lon="4.49458">
        <ele>89.6</ele>
        <time>2021-10-24T09:59:34Z</time>
      </trkpt>
      <trkpt lat="44.21076" lon="4.49458">
        <ele>89.6</ele>
        <time>2021-10-24T09:59:35Z</time>
      </trkpt>
      <trkpt lat="44.21084" lon="4.49458">
        <ele>89.4</ele>
        <time>2021-10-24T09:59:36Z</time>
      </trkpt>
      <trkpt lat="44.21091" lon="4.49459">
        <ele>89.4</ele>
        <time>2021-10-24T09:59:37Z</time>
      </trkpt>
      <trkpt lat="44.21098" lon="4.49459">
        <ele>89.2</ele>
        <time>2021-10-24T09:59:38Z</time>
      </trkpt>
      <trkpt lat="44.21105" lon="4.4946">
        <ele>89.4</ele>
        <time>2021-10-24T09:59:39Z</time>
      </trkpt>
      <trkpt lat="44.21113" lon="4.49461">
        <ele>89.2</ele>
        <time>2021-10-24T09:59:40Z</time>
      </trkpt>
      <trkpt lat="44.2112" lon="4.49461">
        <ele>89.6</ele>
        <time>2021-10-24T09:59:41Z</time>
      </trkpt>
      <trkpt lat="44.21127" lon="4.49462">
        <ele>89.6</ele>
        <time>2021-10-24T09:59:42Z</time>
      </trkpt>
      <trkpt lat="44.21134" lon="4.49463">
        <ele>89.6</ele>
        <time>2021-10-24T09:59:43Z</time>
      </trkpt>
      <trkpt lat="44.2114" lon="4.49463">
        <ele>89.8</ele>
        <time>2021-10-24T09:59:44Z</time>
      </trkpt>
      <trkpt lat="44.21146" lon="4.49463">
        <ele>90</ele>
        <time>2021-10-24T09:59:45Z</time>
      </trkpt>
      <trkpt lat="44.21152" lon="4.49464">
        <ele>90.2</ele>
        <time>2021-10-24T09:59:46Z</time>
      </trkpt>
      <trkpt lat="44.21156" lon="4.49468">
        <ele>90.4</ele>
        <time>2021-10-24T09:59:47Z</time>
      </trkpt>
      <trkpt lat="44.21158" lon="4.49473">
        <ele>90.6</ele>
        <time>2021-10-24T09:59:48Z</time>
      </trkpt>
      <trkpt lat="44.21159" lon="4.4948">
        <ele>90.6</ele>
        <time>2021-10-24T09:59:49Z</time>
      </trkpt>
      <trkpt lat="44.21159" lon="4.49486">
        <ele>90.6</ele>
        <time>2021-10-24T09:59:50Z</time>
      </trkpt>
      <trkpt lat="44.21158" lon="4.49493">
        <ele>90.6</ele>
        <time>2021-10-24T09:59:51Z</time>
      </trkpt>
      <trkpt lat="44.21157" lon="4.49501">
        <ele>90.4</ele>
        <time>2021-10-24T09:59:52Z</time>
      </trkpt>
      <trkpt lat="44.21156" lon="4.49509">
        <ele>90.4</ele>
        <time>2021-10-24T09:59:53Z</time>
      </trkpt>
      <trkpt lat="44.21155" lon="4.49518">
        <ele>90.8</ele>
        <time>2021-10-24T09:59:54Z</time>
      </trkpt>
      <trkpt lat="44.21154" lon="4.49528">
        <ele>90.6</ele>
        <time>2021-10-24T09:59:55Z</time>
      </trkpt>
      <trkpt lat="44.21153" lon="4.49539">
        <ele>90.8</ele>
        <time>2021-10-24T09:59:56Z</time>
      </trkpt>
      <trkpt lat="44.21152" lon="4.49549">
        <ele>90.8</ele>
        <time>2021-10-24T09:59:57Z</time>
      </trkpt>
      <trkpt lat="44.21151" lon="4.49561">
        <ele>91.2</ele>
        <time>2021-10-24T09:59:58Z</time>
      </trkpt>
      <trkpt lat="44.2115" lon="4.49572">
        <ele>91</ele>
        <time>2021-10-24T09:59:59Z</time>
      </trkpt>
      <trkpt lat="44.21149" lon="4.49584">
        <ele>90.8</ele>
        <time>2021-10-24T10:00:00Z</time>
      </trkpt>
      <trkpt lat="44.21148" lon="4.49596">
        <ele>90.8</ele>
        <time>2021-10-24T10:00:01Z</time>
      </trkpt>
      <trkpt lat="44.21147" lon="4.49608">
        <ele>90.6</ele>
        <time>2021-10-24T10:00:02Z</time>
      </trkpt>
      <trkpt lat="44.21146" lon="4.4962">
        <ele>90.8</ele>
        <time>2021-10-24T10:00:03Z</time>
      </trkpt>
      <trkpt lat="44.21145" lon="4.49632">
        <ele>90.6</ele>
        <time>2021-10-24T10:00:04Z</time>
      </trkpt>
      <trkpt lat="44.21144" lon="4.49645">
        <ele>90.6</ele>
        <time>2021-10-24T10:00:05Z</time>
      </trkpt>
      <trkpt lat="44.21143" lon="4.49657">
        <ele>90.6</ele>
        <time>2021-10-24T10:00:06Z</time>
      </trkpt>
      <trkpt lat="44.21142" lon="4.4967">
        <ele>90.6</ele>
        <time>2021-10-24T10:00:07Z</time>
      </trkpt>
      <trkpt lat="44.21142" lon="4.49683">
        <ele>90.8</ele>
        <time>2021-10-24T10:00:08Z</time>
      </trkpt>
      <trkpt lat="44.21141" lon="4.49696">
        <ele>90.4</ele>
        <time>2021-10-24T10:00:09Z</time>
      </trkpt>
      <trkpt lat="44.21139" lon="4.49709">
        <ele>90</ele>
        <time>2021-10-24T10:00:10Z</time>
      </trkpt>
      <trkpt lat="44.21138" lon="4.49722">
        <ele>90</ele>
        <time>2021-10-24T10:00:11Z</time>
      </trkpt>
      <trkpt lat="44.21137" lon="4.49735">
        <ele>89.8</ele>
        <time>2021-10-24T10:00:12Z</time>
      </trkpt>
      <trkpt lat="44.21136" lon="4.49748">
        <ele>89.6</ele>
        <time>2021-10-24T10:00:13Z</time>
      </trkpt>
      <trkpt lat="44.21135" lon="4.49762">
        <ele>89.4</ele>
        <time>2021-10-24T10:00:14Z</time>
      </trkpt>
      <trkpt lat="44.21134" lon="4.49775">
        <ele>89.2</ele>
        <time>2021-10-24T10:00:15Z</time>
      </trkpt>
      <trkpt lat="44.21133" lon="4.49789">
        <ele>89</ele>
        <time>2021-10-24T10:00:16Z</time>
      </trkpt>
      <trkpt lat="44.21132" lon="4.49802">
        <ele>88.4</ele>
        <time>2021-10-24T10:00:17Z</time>
      </trkpt>
      <trkpt lat="44.21131" lon="4.49815">
        <ele>88</ele>
        <time>2021-10-24T10:00:18Z</time>
      </trkpt>
      <trkpt lat="44.21129" lon="4.49829">
        <ele>87.6</ele>
        <time>2021-10-24T10:00:19Z</time>
      </trkpt>
      <trkpt lat="44.21128" lon="4.49842">
        <ele>87.4</ele>
        <time>2021-10-24T10:00:20Z</time>
      </trkpt>
      <trkpt lat="44.21127" lon="4.49856">
        <ele>87</ele>
        <time>2021-10-24T10:00:21Z</time>
      </trkpt>
      <trkpt lat="44.21125" lon="4.49869">
        <ele>86.8</ele>
        <time>2021-10-24T10:00:22Z</time>
      </trkpt>
      <trkpt lat="44.21124" lon="4.49882">
        <ele>86.8</ele>
        <time>2021-10-24T10:00:23Z</time>
      </trkpt>
      <trkpt lat="44.21123" lon="4.49895">
        <ele>86.6</ele>
        <time>2021-10-24T10:00:24Z</time>
      </trkpt>
      <trkpt lat="44.21121" lon="4.49908">
        <ele>86.4</ele>
        <time>2021-10-24T10:00:25Z</time>
      </trkpt>
      <trkpt lat="44.2112" lon="4.49921">
        <ele>86.2</ele>
        <time>2021-10-24T10:00:26Z</time>
      </trkpt>
      <trkpt lat="44.21119" lon="4.49934">
        <ele>86</ele>
        <time>2021-10-24T10:00:27Z</time>
      </trkpt>
      <trkpt lat="44.21118" lon="4.49946">
        <ele>85.8</ele>
        <time>2021-10-24T10:00:28Z</time>
      </trkpt>
      <trkpt lat="44.21116" lon="4.49959">
        <ele>85.6</ele>
        <time>2021-10-24T10:00:29Z</time>
      </trkpt>
      <trkpt lat="44.21115" lon="4.49971">
        <ele>85.6</ele>
        <time>2021-10-24T10:00:30Z</time>
      </trkpt>
      <trkpt lat="44.21114" lon="4.49984">
        <ele>85.4</ele>
        <time>2021-10-24T10:00:31Z</time>
      </trkpt>
      <trkpt lat="44.21113" lon="4.49996">
        <ele>85.4</ele>
        <time>2021-10-24T10:00:32Z</time>
      </trkpt>
      <trkpt lat="44.21112" lon="4.50009">
        <ele>85.4</ele>
        <time>2021-10-24T10:00:33Z</time>
      </trkpt>
      <trkpt lat="44.2111" lon="4.50021">
        <ele>85.4</ele>
        <time>2021-10-24T10:00:34Z</time>
      </trkpt>
      <trkpt lat="44.21109" lon="4.50033">
        <ele>85</ele>
        <time>2021-10-24T10:00:35Z</time>
      </trkpt>
      <trkpt lat="44.21108" lon="4.50045">
        <ele>84.8</ele>
        <time>2021-10-24T10:00:36Z</time>
      </trkpt>
      <trkpt lat="44.21107" lon="4.50057">
        <ele>85.2</ele>
        <time>2021-10-24T10:00:37Z</time>
      </trkpt>
      <trkpt lat="44.21105" lon="4.50069">
        <ele>85</ele>
        <time>2021-10-24T10:00:38Z</time>
      </trkpt>
      <trkpt lat="44.21104" lon="4.5008">
        <ele>85.4</ele>
        <time>2021-10-24T10:00:39Z</time>
      </trkpt>
      <trkpt lat="44.21103" lon="4.50092">
        <ele>85.4</ele>
        <time>2021-10-24T10:00:40Z</time>
      </trkpt>
      <trkpt lat="44.21101" lon="4.50104">
        <ele>85</ele>
        <time>2021-10-24T10:00:41Z</time>
      </trkpt>
      <trkpt lat="44.211" lon="4.50116">
        <ele>85.2</ele>
        <time>2021-10-24T10:00:42Z</time>
      </trkpt>
      <trkpt lat="44.21098" lon="4.50128">
        <ele>85.2</ele>
        <time>2021-10-24T10:00:43Z</time>
      </trkpt>
      <trkpt lat="44.21096" lon="4.5014">
        <ele>85</ele>
        <time>2021-10-24T10:00:44Z</time>
      </trkpt>
      <trkpt lat="44.21094" lon="4.50152">
        <ele>85</ele>
        <time>2021-10-24T10:00:45Z</time>
      </trkpt>
      <trkpt lat="44.21092" lon="4.50165">
        <ele>85</ele>
        <time>2021-10-24T10:00:46Z</time>
      </trkpt>
      <trkpt lat="44.2109" lon="4.50177">
        <ele>84.8</ele>
        <time>2021-10-24T10:00:47Z</time>
      </trkpt>
      <trkpt lat="44.21088" lon="4.5019">
        <ele>84.8</ele>
        <time>2021-10-24T10:00:48Z</time>
      </trkpt>
      <trkpt lat="44.21086" lon="4.50204">
        <ele>84.2</ele>
        <time>2021-10-24T10:00:49Z</time>
      </trkpt>
      <trkpt lat="44.21084" lon="4.50217">
        <ele>84.2</ele>
        <time>2021-10-24T10:00:50Z</time>
      </trkpt>
      <trkpt lat="44.21081" lon="4.50231">
        <ele>83.8</ele>
        <time>2021-10-24T10:00:51Z</time>
      </trkpt>
      <trkpt lat="44.21079" lon="4.50244">
        <ele>83.6</ele>
        <time>2021-10-24T10:00:52Z</time>
      </trkpt>
      <trkpt lat="44.21077" lon="4.50258">
        <ele>83.6</ele>
        <time>2021-10-24T10:00:53Z</time>
      </trkpt>
      <trkpt lat="44.21075" lon="4.50272">
        <ele>83.4</ele>
        <time>2021-10-24T10:00:54Z</time>
      </trkpt>
      <trkpt lat="44.21072" lon="4.50286">
        <ele>83.2</ele>
        <time>2021-10-24T10:00:55Z</time>
      </trkpt>
      <trkpt lat="44.2107" lon="4.503">
        <ele>82.8</ele>
        <time>2021-10-24T10:00:56Z</time>
      </trkpt>
      <trkpt lat="44.21068" lon="4.50314">
        <ele>82.4</ele>
        <time>2021-10-24T10:00:57Z</time>
      </trkpt>
      <trkpt lat="44.21066" lon="4.50328">
        <ele>82.6</ele>
        <time>2021-10-24T10:00:58Z</time>
      </trkpt>
      <trkpt lat="44.21064" lon="4.50342">
        <ele>82</ele>
        <time>2021-10-24T10:00:59Z</time>
      </trkpt>
      <trkpt lat="44.21062" lon="4.50357">
        <ele>81.6</ele>
        <time>2021-10-24T10:01:00Z</time>
      </trkpt>
      <trkpt lat="44.2106" lon="4.50371">
        <ele>81.2</ele>
        <time>2021-10-24T10:01:01Z</time>
      </trkpt>
      <trkpt lat="44.21058" lon="4.50385">
        <ele>81.2</ele>
        <time>2021-10-24T10:01:02Z</time>
      </trkpt>
      <trkpt lat="44.21056" lon="4.50399">
        <ele>80.8</ele>
        <time>2021-10-24T10:01:03Z</time>
      </trkpt>
      <trkpt lat="44.21054" lon="4.50413">
        <ele>80.2</ele>
        <time>2021-10-24T10:01:04Z</time>
      </trkpt>
      <trkpt lat="44.21053" lon="4.50427">
        <ele>79.8</ele>
        <time>2021-10-24T10:01:05Z</time>
      </trkpt>
      <trkpt lat="44.21051" lon="4.50441">
        <ele>79.6</ele>
        <time>2021-10-24T10:01:06Z</time>
      </trkpt>
      <trkpt lat="44.2105" lon="4.50456">
        <ele>80</ele>
        <time>2021-10-24T10:01:07Z</time>
      </trkpt>
      <trkpt lat="44.21049" lon="4.5047">
        <ele>79.8</ele>
        <time>2021-10-24T10:01:08Z</time>
      </trkpt>
      <trkpt lat="44.21048" lon="4.50484">
        <ele>80</ele>
        <time>2021-10-24T10:01:09Z</time>
      </trkpt>
      <trkpt lat="44.21048" lon="4.50499">
        <ele>79.8</ele>
        <time>2021-10-24T10:01:10Z</time>
      </trkpt>
      <trkpt lat="44.21048" lon="4.50514">
        <ele>79.4</ele>
        <time>2021-10-24T10:01:11Z</time>
      </trkpt>
      <trkpt lat="44.21049" lon="4.50528">
        <ele>79.2</ele>
        <time>2021-10-24T10:01:12Z</time>
      </trkpt>
      <trkpt lat="44.21049" lon="4.50543">
        <ele>78.8</ele>
        <time>2021-10-24T10:01:13Z</time>
      </trkpt>
      <trkpt lat="44.2105" lon="4.50558">
        <ele>78.6</ele>
        <time>2021-10-24T10:01:14Z</time>
      </trkpt>
      <trkpt lat="44.21051" lon="4.50573">
        <ele>78.2</ele>
        <time>2021-10-24T10:01:15Z</time>
      </trkpt>
      <trkpt lat="44.21053" lon="4.50588">
        <ele>77.8</ele>
        <time>2021-10-24T10:01:16Z</time>
      </trkpt>
      <trkpt lat="44.21055" lon="4.50602">
        <ele>77.6</ele>
        <time>2021-10-24T10:01:17Z</time>
      </trkpt>
      <trkpt lat="44.21056" lon="4.50617">
        <ele>77.6</ele>
        <time>2021-10-24T10:01:18Z</time>
      </trkpt>
      <trkpt lat="44.21058" lon="4.50632">
        <ele>77.4</ele>
        <time>2021-10-24T10:01:19Z</time>
      </trkpt>
      <trkpt lat="44.2106" lon="4.50647">
        <ele>77.2</ele>
        <time>2021-10-24T10:01:20Z</time>
      </trkpt>
      <trkpt lat="44.21062" lon="4.50661">
        <ele>77</ele>
        <time>2021-10-24T10:01:21Z</time>
      </trkpt>
      <trkpt lat="44.21064" lon="4.50676">
        <ele>76.8</ele>
        <time>2021-10-24T10:01:22Z</time>
      </trkpt>
      <trkpt lat="44.21066" lon="4.5069">
        <ele>76.4</ele>
        <time>2021-10-24T10:01:23Z</time>
      </trkpt>
      <trkpt lat="44.21067" lon="4.50704">
        <ele>76.2</ele>
        <time>2021-10-24T10:01:24Z</time>
      </trkpt>
      <trkpt lat="44.21069" lon="4.50718">
        <ele>76</ele>
        <time>2021-10-24T10:01:25Z</time>
      </trkpt>
      <trkpt lat="44.21071" lon="4.50732">
        <ele>75.8</ele>
        <time>2021-10-24T10:01:26Z</time>
      </trkpt>
      <trkpt lat="44.21073" lon="4.50746">
        <ele>75.8</ele>
        <time>2021-10-24T10:01:27Z</time>
      </trkpt>
      <trkpt lat="44.21075" lon="4.5076">
        <ele>75.4</ele>
        <time>2021-10-24T10:01:28Z</time>
      </trkpt>
      <trkpt lat="44.21076" lon="4.50773">
        <ele>75.2</ele>
        <time>2021-10-24T10:01:29Z</time>
      </trkpt>
      <trkpt lat="44.21078" lon="4.50787">
        <ele>75</ele>
        <time>2021-10-24T10:01:30Z</time>
      </trkpt>
      <trkpt lat="44.2108" lon="4.508">
        <ele>74.8</ele>
        <time>2021-10-24T10:01:31Z</time>
      </trkpt>
      <trkpt lat="44.21081" lon="4.50813">
        <ele>74.6</ele>
        <time>2021-10-24T10:01:32Z</time>
      </trkpt>
      <trkpt lat="44.21083" lon="4.50826">
        <ele>74.8</ele>
        <time>2021-10-24T10:01:33Z</time>
      </trkpt>
      <trkpt lat="44.21085" lon="4.50838">
        <ele>74.4</ele>
        <time>2021-10-24T10:01:34Z</time>
      </trkpt>
      <trkpt lat="44.21086" lon="4.50851">
        <ele>74.2</ele>
        <time>2021-10-24T10:01:35Z</time>
      </trkpt>
      <trkpt lat="44.21088" lon="4.50864">
        <ele>74.2</ele>
        <time>2021-10-24T10:01:36Z</time>
      </trkpt>
      <trkpt lat="44.2109" lon="4.50876">
        <ele>73.8</ele>
        <time>2021-10-24T10:01:37Z</time>
      </trkpt>
      <trkpt lat="44.21092" lon="4.50888">
        <ele>73.2</ele>
        <time>2021-10-24T10:01:38Z</time>
      </trkpt>
      <trkpt lat="44.21094" lon="4.509">
        <ele>73.2</ele>
        <time>2021-10-24T10:01:39Z</time>
      </trkpt>
      <trkpt lat="44.21097" lon="4.50912">
        <ele>73</ele>
        <time>2021-10-24T10:01:40Z</time>
      </trkpt>
      <trkpt lat="44.211" lon="4.50923">
        <ele>73.2</ele>
        <time>2021-10-24T10:01:41Z</time>
      </trkpt>
      <trkpt lat="44.21104" lon="4.50934">
        <ele>73</ele>
        <time>2021-10-24T10:01:42Z</time>
      </trkpt>
      <trkpt lat="44.21108" lon="4.50944">
        <ele>73</ele>
        <time>2021-10-24T10:01:43Z</time>
      </trkpt>
      <trkpt lat="44.21112" lon="4.50955">
        <ele>72.8</ele>
        <time>2021-10-24T10:01:44Z</time>
      </trkpt>
      <trkpt lat="44.21117" lon="4.50964">
        <ele>73</ele>
        <time>2021-10-24T10:01:45Z</time>
      </trkpt>
      <trkpt lat="44.21122" lon="4.50974">
        <ele>72.8</ele>
        <time>2021-10-24T10:01:46Z</time>
      </trkpt>
      <trkpt lat="44.21126" lon="4.50984">
        <ele>72.8</ele>
        <time>2021-10-24T10:01:47Z</time>
      </trkpt>
      <trkpt lat="44.21131" lon="4.50993">
        <ele>73</ele>
        <time>2021-10-24T10:01:48Z</time>
      </trkpt>
      <trkpt lat="44.21135" lon="4.51003">
        <ele>73</ele>
        <time>2021-10-24T10:01:49Z</time>
      </trkpt>
      <trkpt lat="44.21139" lon="4.51013">
        <ele>73</ele>
        <time>2021-10-24T10:01:50Z</time>
      </trkpt>
      <trkpt lat="44.21142" lon="4.51023">
        <ele>73.2</ele>
        <time>2021-10-24T10:01:51Z</time>
      </trkpt>
      <trkpt lat="44.21145" lon="4.51033">
        <ele>73.4</ele>
        <time>2021-10-24T10:01:52Z</time>
      </trkpt>
      <trkpt lat="44.21148" lon="4.51043">
        <ele>73.4</ele>
        <time>2021-10-24T10:01:53Z</time>
      </trkpt>
      <trkpt lat="44.21151" lon="4.51054">
        <ele>73.6</ele>
        <time>2021-10-24T10:01:54Z</time>
      </trkpt>
      <trkpt lat="44.21153" lon="4.51065">
        <ele>73.4</ele>
        <time>2021-10-24T10:01:55Z</time>
      </trkpt>
      <trkpt lat="44.21155" lon="4.51076">
        <ele>73.6</ele>
        <time>2021-10-24T10:01:56Z</time>
      </trkpt>
      <trkpt lat="44.21156" lon="4.51088">
        <ele>73.8</ele>
        <time>2021-10-24T10:01:57Z</time>
      </trkpt>
      <trkpt lat="44.21157" lon="4.511">
        <ele>73.8</ele>
        <time>2021-10-24T10:01:58Z</time>
      </trkpt>
      <trkpt lat="44.21158" lon="4.51112">
        <ele>73.6</ele>
        <time>2021-10-24T10:01:59Z</time>
      </trkpt>
      <trkpt lat="44.21158" lon="4.51124">
        <ele>73.8</ele>
        <time>2021-10-24T10:02:00Z</time>
      </trkpt>
      <trkpt lat="44.21158" lon="4.51136">
        <ele>73.6</ele>
        <time>2021-10-24T10:02:01Z</time>
      </trkpt>
      <trkpt lat="44.21158" lon="4.51148">
        <ele>74</ele>
        <time>2021-10-24T10:02:02Z</time>
      </trkpt>
      <trkpt lat="44.21158" lon="4.5116">
        <ele>74</ele>
        <time>2021-10-24T10:02:03Z</time>
      </trkpt>
      <trkpt lat="44.21158" lon="4.51173">
        <ele>73.8</ele>
        <time>2021-10-24T10:02:04Z</time>
      </trkpt>
      <trkpt lat="44.21158" lon="4.51185">
        <ele>73.8</ele>
        <time>2021-10-24T10:02:05Z</time>
      </trkpt>
      <trkpt lat="44.21158" lon="4.51198">
        <ele>73.8</ele>
        <time>2021-10-24T10:02:06Z</time>
      </trkpt>
      <trkpt lat="44.21157" lon="4.5121">
        <ele>73.6</ele>
        <time>2021-10-24T10:02:07Z</time>
      </trkpt>
      <trkpt lat="44.21157" lon="4.51223">
        <ele>73.6</ele>
        <time>2021-10-24T10:02:08Z</time>
      </trkpt>
      <trkpt lat="44.21157" lon="4.51235">
        <ele>73.6</ele>
        <time>2021-10-24T10:02:09Z</time>
      </trkpt>
      <trkpt lat="44.21157" lon="4.51248">
        <ele>73.6</ele>
        <time>2021-10-24T10:02:10Z</time>
      </trkpt>
      <trkpt lat="44.21157" lon="4.5126">
        <ele>73.6</ele>
        <time>2021-10-24T10:02:11Z</time>
      </trkpt>
      <trkpt lat="44.21157" lon="4.51273">
        <ele>73.6</ele>
        <time>2021-10-24T10:02:12Z</time>
      </trkpt>
      <trkpt lat="44.21157" lon="4.51285">
        <ele>73.6</ele>
        <time>2021-10-24T10:02:13Z</time>
      </trkpt>
      <trkpt lat="44.21157" lon="4.51297">
        <ele>73.6</ele>
        <time>2021-10-24T10:02:14Z</time>
      </trkpt>
      <trkpt lat="44.21157" lon="4.51309">
        <ele>73.6</ele>
        <time>2021-10-24T10:02:15Z</time>
      </trkpt>
      <trkpt lat="44.21157" lon="4.51321">
        <ele>73.4</ele>
        <time>2021-10-24T10:02:16Z</time>
      </trkpt>
      <trkpt lat="44.21157" lon="4.51333">
        <ele>73.4</ele>
        <time>2021-10-24T10:02:17Z</time>
      </trkpt>
      <trkpt lat="44.21156" lon="4.51345">
        <ele>73.6</ele>
        <time>2021-10-24T10:02:18Z</time>
      </trkpt>
      <trkpt lat="44.21156" lon="4.51357">
        <ele>73.6</ele>
        <time>2021-10-24T10:02:19Z</time>
      </trkpt>
      <trkpt lat="44.21156" lon="4.51369">
        <ele>73.2</ele>
        <time>2021-10-24T10:02:20Z</time>
      </trkpt>
      <trkpt lat="44.21157" lon="4.51381">
        <ele>73.6</ele>
        <time>2021-10-24T10:02:21Z</time>
      </trkpt>
      <trkpt lat="44.21158" lon="4.51393">
        <ele>73.2</ele>
        <time>2021-10-24T10:02:22Z</time>
      </trkpt>
      <trkpt lat="44.21159" lon="4.51404">
        <ele>73.6</ele>
        <time>2021-10-24T10:02:23Z</time>
      </trkpt>
      <trkpt lat="44.21161" lon="4.51416">
        <ele>73.6</ele>
        <time>2021-10-24T10:02:24Z</time>
      </trkpt>
      <trkpt lat="44.21162" lon="4.51428">
        <ele>73.6</ele>
        <time>2021-10-24T10:02:25Z</time>
      </trkpt>
      <trkpt lat="44.21164" lon="4.5144">
        <ele>73</ele>
        <time>2021-10-24T10:02:26Z</time>
      </trkpt>
      <trkpt lat="44.21166" lon="4.51452">
        <ele>72.4</ele>
        <time>2021-10-24T10:02:27Z</time>
      </trkpt>
      <trkpt lat="44.21167" lon="4.51464">
        <ele>72</ele>
        <time>2021-10-24T10:02:28Z</time>
      </trkpt>
      <trkpt lat="44.21169" lon="4.51476">
        <ele>72</ele>
        <time>2021-10-24T10:02:29Z</time>
      </trkpt>
      <trkpt lat="44.21171" lon="4.51488">
        <ele>72.2</ele>
        <time>2021-10-24T10:02:30Z</time>
      </trkpt>
      <trkpt lat="44.21172" lon="4.51501">
        <ele>72</ele>
        <time>2021-10-24T10:02:31Z</time>
      </trkpt>
      <trkpt lat="44.21174" lon="4.51513">
        <ele>71.8</ele>
        <time>2021-10-24T10:02:32Z</time>
      </trkpt>
      <trkpt lat="44.21175" lon="4.51526">
        <ele>71.8</ele>
        <time>2021-10-24T10:02:33Z</time>
      </trkpt>
      <trkpt lat="44.21176" lon="4.51539">
        <ele>71.6</ele>
        <time>2021-10-24T10:02:34Z</time>
      </trkpt>
      <trkpt lat="44.21177" lon="4.51552">
        <ele>71.6</ele>
        <time>2021-10-24T10:02:35Z</time>
      </trkpt>
      <trkpt lat="44.21179" lon="4.51565">
        <ele>71.4</ele>
        <time>2021-10-24T10:02:36Z</time>
      </trkpt>
      <trkpt lat="44.2118" lon="4.51577">
        <ele>71.4</ele>
        <time>2021-10-24T10:02:37Z</time>
      </trkpt>
      <trkpt lat="44.21182" lon="4.5159">
        <ele>71.4</ele>
        <time>2021-10-24T10:02:38Z</time>
      </trkpt>
      <trkpt lat="44.21183" lon="4.51602">
        <ele>71.4</ele>
        <time>2021-10-24T10:02:39Z</time>
      </trkpt>
      <trkpt lat="44.21184" lon="4.51615">
        <ele>71.2</ele>
        <time>2021-10-24T10:02:40Z</time>
      </trkpt>
      <trkpt lat="44.21186" lon="4.51627">
        <ele>71.2</ele>
        <time>2021-10-24T10:02:41Z</time>
      </trkpt>
      <trkpt lat="44.21187" lon="4.51639">
        <ele>71</ele>
        <time>2021-10-24T10:02:42Z</time>
      </trkpt>
      <trkpt lat="44.21188" lon="4.51651">
        <ele>71</ele>
        <time>2021-10-24T10:02:43Z</time>
      </trkpt>
      <trkpt lat="44.21189" lon="4.51663">
        <ele>70.8</ele>
        <time>2021-10-24T10:02:44Z</time>
      </trkpt>
      <trkpt lat="44.2119" lon="4.51675">
        <ele>70.6</ele>
        <time>2021-10-24T10:02:45Z</time>
      </trkpt>
      <trkpt lat="44.2119" lon="4.51687">
        <ele>70.6</ele>
        <time>2021-10-24T10:02:46Z</time>
      </trkpt>
      <trkpt lat="44.21191" lon="4.51698">
        <ele>70.6</ele>
        <time>2021-10-24T10:02:47Z</time>
      </trkpt>
      <trkpt lat="44.21191" lon="4.51709">
        <ele>70.6</ele>
        <time>2021-10-24T10:02:48Z</time>
      </trkpt>
      <trkpt lat="44.21192" lon="4.51719">
        <ele>70.6</ele>
        <time>2021-10-24T10:02:49Z</time>
      </trkpt>
      <trkpt lat="44.21196" lon="4.51727">
        <ele>70.2</ele>
        <time>2021-10-24T10:02:50Z</time>
      </trkpt>
      <trkpt lat="44.21202" lon="4.51732">
        <ele>70</ele>
        <time>2021-10-24T10:02:51Z</time>
      </trkpt>
      <trkpt lat="44.2121" lon="4.51734">
        <ele>69.8</ele>
        <time>2021-10-24T10:02:52Z</time>
      </trkpt>
      <trkpt lat="44.21217" lon="4.51735">
        <ele>70</ele>
        <time>2021-10-24T10:02:53Z</time>
      </trkpt>
      <trkpt lat="44.21225" lon="4.51738">
        <ele>69.8</ele>
        <time>2021-10-24T10:02:54Z</time>
      </trkpt>
      <trkpt lat="44.21232" lon="4.51743">
        <ele>69.6</ele>
        <time>2021-10-24T10:02:55Z</time>
      </trkpt>
      <trkpt lat="44.21238" lon="4.5175">
        <ele>69.8</ele>
        <time>2021-10-24T10:02:56Z</time>
      </trkpt>
      <trkpt lat="44.21242" lon="4.51759">
        <ele>69.8</ele>
        <time>2021-10-24T10:02:57Z</time>
      </trkpt>
      <trkpt lat="44.21244" lon="4.5177">
        <ele>69.6</ele>
        <time>2021-10-24T10:02:58Z</time>
      </trkpt>
      <trkpt lat="44.21245" lon="4.51781">
        <ele>69.6</ele>
        <time>2021-10-24T10:02:59Z</time>
      </trkpt>
      <trkpt lat="44.21245" lon="4.51791">
        <ele>69.4</ele>
        <time>2021-10-24T10:03:00Z</time>
      </trkpt>
      <trkpt lat="44.21244" lon="4.51802">
        <ele>69.4</ele>
        <time>2021-10-24T10:03:01Z</time>
      </trkpt>
      <trkpt lat="44.21243" lon="4.51812">
        <ele>69.6</ele>
        <time>2021-10-24T10:03:02Z</time>
      </trkpt>
      <trkpt lat="44.21242" lon="4.51822">
        <ele>69.6</ele>
        <time>2021-10-24T10:03:03Z</time>
      </trkpt>
      <trkpt lat="44.21241" lon="4.51832">
        <ele>69.6</ele>
        <time>2021-10-24T10:03:04Z</time>
      </trkpt>
      <trkpt lat="44.21239" lon="4.51843">
        <ele>69.8</ele>
        <time>2021-10-24T10:03:05Z</time>
      </trkpt>
      <trkpt lat="44.21238" lon="4.51853">
        <ele>70</ele>
        <time>2021-10-24T10:03:06Z</time>
      </trkpt>
      <trkpt lat="44.21237" lon="4.51863">
        <ele>70</ele>
        <time>2021-10-24T10:03:07Z</time>
      </trkpt>
      <trkpt lat="44.21236" lon="4.51873">
        <ele>70.2</ele>
        <time>2021-10-24T10:03:08Z</time>
      </trkpt>
      <trkpt lat="44.21235" lon="4.51883">
        <ele>70</ele>
        <time>2021-10-24T10:03:09Z</time>
      </trkpt>
      <trkpt lat="44.21233" lon="4.51893">
        <ele>70.2</ele>
        <time>2021-10-24T10:03:10Z</time>
      </trkpt>
      <trkpt lat="44.21232" lon="4.51903">
        <ele>70.2</ele>
        <time>2021-10-24T10:03:11Z</time>
      </trkpt>
      <trkpt lat="44.2123" lon="4.51913">
        <ele>70.2</ele>
        <time>2021-10-24T10:03:12Z</time>
      </trkpt>
      <trkpt lat="44.21229" lon="4.51922">
        <ele>70.2</ele>
        <time>2021-10-24T10:03:13Z</time>
      </trkpt>
      <trkpt lat="44.21227" lon="4.51932">
        <ele>70.2</ele>
        <time>2021-10-24T10:03:14Z</time>
      </trkpt>
      <trkpt lat="44.21226" lon="4.51942">
        <ele>70.2</ele>
        <time>2021-10-24T10:03:15Z</time>
      </trkpt>
      <trkpt lat="44.21224" lon="4.51952">
        <ele>70.2</ele>
        <time>2021-10-24T10:03:16Z</time>
      </trkpt>
      <trkpt lat="44.21221" lon="4.51961">
        <ele>70.2</ele>
        <time>2021-10-24T10:03:17Z</time>
      </trkpt>
      <trkpt lat="44.21219" lon="4.51971">
        <ele>70.2</ele>
        <time>2021-10-24T10:03:18Z</time>
      </trkpt>
      <trkpt lat="44.21216" lon="4.5198">
        <ele>70.4</ele>
        <time>2021-10-24T10:03:19Z</time>
      </trkpt>
      <trkpt lat="44.21213" lon="4.51989">
        <ele>70.4</ele>
        <time>2021-10-24T10:03:20Z</time>
      </trkpt>
      <trkpt lat="44.21209" lon="4.51998">
        <ele>70.8</ele>
        <time>2021-10-24T10:03:21Z</time>
      </trkpt>
      <trkpt lat="44.21206" lon="4.52007">
        <ele>71</ele>
        <time>2021-10-24T10:03:22Z</time>
      </trkpt>
      <trkpt lat="44.21203" lon="4.52017">
        <ele>71.2</ele>
        <time>2021-10-24T10:03:23Z</time>
      </trkpt>
      <trkpt lat="44.21199" lon="4.52026">
        <ele>71</ele>
        <time>2021-10-24T10:03:24Z</time>
      </trkpt>
      <trkpt lat="44.21196" lon="4.52035">
        <ele>71.2</ele>
        <time>2021-10-24T10:03:25Z</time>
      </trkpt>
      <trkpt lat="44.21193" lon="4.52044">
        <ele>71.2</ele>
        <time>2021-10-24T10:03:26Z</time>
      </trkpt>
      <trkpt lat="44.2119" lon="4.52054">
        <ele>71</ele>
        <time>2021-10-24T10:03:27Z</time>
      </trkpt>
      <trkpt lat="44.21186" lon="4.52063">
        <ele>71.2</ele>
        <time>2021-10-24T10:03:28Z</time>
      </trkpt>
      <trkpt lat="44.21183" lon="4.52072">
        <ele>71.2</ele>
        <time>2021-10-24T10:03:29Z</time>
      </trkpt>
      <trkpt lat="44.2118" lon="4.52082">
        <ele>71.4</ele>
        <time>2021-10-24T10:03:30Z</time>
      </trkpt>
      <trkpt lat="44.21177" lon="4.52091">
        <ele>71.6</ele>
        <time>2021-10-24T10:03:31Z</time>
      </trkpt>
      <trkpt lat="44.21173" lon="4.521">
        <ele>71.8</ele>
        <time>2021-10-24T10:03:32Z</time>
      </trkpt>
      <trkpt lat="44.2117" lon="4.52109">
        <ele>71.8</ele>
        <time>2021-10-24T10:03:33Z</time>
      </trkpt>
      <trkpt lat="44.21167" lon="4.52118">
        <ele>72.2</ele>
        <time>2021-10-24T10:03:34Z</time>
      </trkpt>
      <trkpt lat="44.21164" lon="4.52126">
        <ele>72.2</ele>
        <time>2021-10-24T10:03:35Z</time>
      </trkpt>
      <trkpt lat="44.21162" lon="4.52135">
        <ele>72</ele>
        <time>2021-10-24T10:03:36Z</time>
      </trkpt>
      <trkpt lat="44.21159" lon="4.52143">
        <ele>72.2</ele>
        <time>2021-10-24T10:03:37Z</time>
      </trkpt>
      <trkpt lat="44.21156" lon="4.52151">
        <ele>72.4</ele>
        <time>2021-10-24T10:03:38Z</time>
      </trkpt>
      <trkpt lat="44.21153" lon="4.52159">
        <ele>72.4</ele>
        <time>2021-10-24T10:03:39Z</time>
      </trkpt>
      <trkpt lat="44.21151" lon="4.52167">
        <ele>72.6</ele>
        <time>2021-10-24T10:03:40Z</time>
      </trkpt>
      <trkpt lat="44.21148" lon="4.52175">
        <ele>72.4</ele>
        <time>2021-10-24T10:03:41Z</time>
      </trkpt>
      <trkpt lat="44.21146" lon="4.52183">
        <ele>72.6</ele>
        <time>2021-10-24T10:03:42Z</time>
      </trkpt>
      <trkpt lat="44.21144" lon="4.52191">
        <ele>72.8</ele>
        <time>2021-10-24T10:03:43Z</time>
      </trkpt>
      <trkpt lat="44.21141" lon="4.52199">
        <ele>73</ele>
        <time>2021-10-24T10:03:44Z</time>
      </trkpt>
      <trkpt lat="44.21139" lon="4.52207">
        <ele>73.2</ele>
        <time>2021-10-24T10:03:45Z</time>
      </trkpt>
      <trkpt lat="44.21137" lon="4.52215">
        <ele>73.6</ele>
        <time>2021-10-24T10:03:46Z</time>
      </trkpt>
      <trkpt lat="44.21135" lon="4.52223">
        <ele>73.4</ele>
        <time>2021-10-24T10:03:47Z</time>
      </trkpt>
      <trkpt lat="44.21133" lon="4.52231">
        <ele>73.8</ele>
        <time>2021-10-24T10:03:48Z</time>
      </trkpt>
      <trkpt lat="44.2113" lon="4.52239">
        <ele>73.6</ele>
        <time>2021-10-24T10:03:49Z</time>
      </trkpt>
      <trkpt lat="44.21128" lon="4.52247">
        <ele>73.6</ele>
        <time>2021-10-24T10:03:50Z</time>
      </trkpt>
      <trkpt lat="44.21126" lon="4.52255">
        <ele>73.6</ele>
        <time>2021-10-24T10:03:51Z</time>
      </trkpt>
      <trkpt lat="44.21124" lon="4.52263">
        <ele>73.8</ele>
        <time>2021-10-24T10:03:52Z</time>
      </trkpt>
      <trkpt lat="44.21122" lon="4.52271">
        <ele>74</ele>
        <time>2021-10-24T10:03:53Z</time>
      </trkpt>
      <trkpt lat="44.2112" lon="4.52278">
        <ele>74.2</ele>
        <time>2021-10-24T10:03:54Z</time>
      </trkpt>
      <trkpt lat="44.21118" lon="4.52286">
        <ele>74.8</ele>
        <time>2021-10-24T10:03:55Z</time>
      </trkpt>
      <trkpt lat="44.21116" lon="4.52293">
        <ele>75</ele>
        <time>2021-10-24T10:03:56Z</time>
      </trkpt>
      <trkpt lat="44.21114" lon="4.52301">
        <ele>75</ele>
        <time>2021-10-24T10:03:57Z</time>
      </trkpt>
      <trkpt lat="44.21112" lon="4.52308">
        <ele>75.2</ele>
        <time>2021-10-24T10:03:58Z</time>
      </trkpt>
      <trkpt lat="44.21109" lon="4.52316">
        <ele>75.6</ele>
        <time>2021-10-24T10:03:59Z</time>
      </trkpt>
      <trkpt lat="44.21107" lon="4.52323">
        <ele>76</ele>
        <time>2021-10-24T10:04:00Z</time>
      </trkpt>
      <trkpt lat="44.21105" lon="4.52331">
        <ele>76.2</ele>
        <time>2021-10-24T10:04:01Z</time>
      </trkpt>
      <trkpt lat="44.21104" lon="4.52338">
        <ele>76.4</ele>
        <time>2021-10-24T10:04:02Z</time>
      </trkpt>
      <trkpt lat="44.21102" lon="4.52345">
        <ele>76.4</ele>
        <time>2021-10-24T10:04:03Z</time>
      </trkpt>
      <trkpt lat="44.211" lon="4.52352">
        <ele>77.2</ele>
        <time>2021-10-24T10:04:04Z</time>
      </trkpt>
      <trkpt lat="44.21098" lon="4.52358">
        <ele>77.4</ele>
        <time>2021-10-24T10:04:05Z</time>
      </trkpt>
      <trkpt lat="44.21096" lon="4.52365">
        <ele>77.6</ele>
        <time>2021-10-24T10:04:06Z</time>
      </trkpt>
      <trkpt lat="44.21094" lon="4.52372">
        <ele>77.8</ele>
        <time>2021-10-24T10:04:07Z</time>
      </trkpt>
      <trkpt lat="44.21093" lon="4.52379">
        <ele>78</ele>
        <time>2021-10-24T10:04:08Z</time>
      </trkpt>
      <trkpt lat="44.21091" lon="4.52386">
        <ele>78</ele>
        <time>2021-10-24T10:04:09Z</time>
      </trkpt>
      <trkpt lat="44.2109" lon="4.52393">
        <ele>78.2</ele>
        <time>2021-10-24T10:04:10Z</time>
      </trkpt>
      <trkpt lat="44.21089" lon="4.524">
        <ele>78</ele>
        <time>2021-10-24T10:04:11Z</time>
      </trkpt>
      <trkpt lat="44.21089" lon="4.52406">
        <ele>78.4</ele>
        <time>2021-10-24T10:04:12Z</time>
      </trkpt>
      <trkpt lat="44.21088" lon="4.52413">
        <ele>78.6</ele>
        <time>2021-10-24T10:04:13Z</time>
      </trkpt>
      <trkpt lat="44.21088" lon="4.5242">
        <ele>78.6</ele>
        <time>2021-10-24T10:04:14Z</time>
      </trkpt>
      <trkpt lat="44.21088" lon="4.52427">
        <ele>78.8</ele>
        <time>2021-10-24T10:04:15Z</time>
      </trkpt>
      <trkpt lat="44.21089" lon="4.52434">
        <ele>78.6</ele>
        <time>2021-10-24T10:04:16Z</time>
      </trkpt>
      <trkpt lat="44.21089" lon="4.52441">
        <ele>79</ele>
        <time>2021-10-24T10:04:17Z</time>
      </trkpt>
      <trkpt lat="44.21089" lon="4.52448">
        <ele>79.2</ele>
        <time>2021-10-24T10:04:18Z</time>
      </trkpt>
      <trkpt lat="44.2109" lon="4.52456">
        <ele>79.2</ele>
        <time>2021-10-24T10:04:19Z</time>
      </trkpt>
      <trkpt lat="44.2109" lon="4.52463">
        <ele>79.6</ele>
        <time>2021-10-24T10:04:20Z</time>
      </trkpt>
      <trkpt lat="44.21091" lon="4.5247">
        <ele>79.6</ele>
        <time>2021-10-24T10:04:21Z</time>
      </trkpt>
      <trkpt lat="44.21091" lon="4.52478">
        <ele>79.8</ele>
        <time>2021-10-24T10:04:22Z</time>
      </trkpt>
      <trkpt lat="44.21092" lon="4.52485">
        <ele>80</ele>
        <time>2021-10-24T10:04:23Z</time>
      </trkpt>
      <trkpt lat="44.21093" lon="4.52492">
        <ele>80</ele>
        <time>2021-10-24T10:04:24Z</time>
      </trkpt>
      <trkpt lat="44.21094" lon="4.525">
        <ele>80.2</ele>
        <time>2021-10-24T10:04:25Z</time>
      </trkpt>
      <trkpt lat="44.21095" lon="4.52507">
        <ele>80.4</ele>
        <time>2021-10-24T10:04:26Z</time>
      </trkpt>
      <trkpt lat="44.21096" lon="4.52514">
        <ele>80.6</ele>
        <time>2021-10-24T10:04:27Z</time>
      </trkpt>
      <trkpt lat="44.21097" lon="4.52521">
        <ele>80.8</ele>
        <time>2021-10-24T10:04:28Z</time>
      </trkpt>
      <trkpt lat="44.21099" lon="4.52528">
        <ele>81</ele>
        <time>2021-10-24T10:04:29Z</time>
      </trkpt>
      <trkpt lat="44.211" lon="4.52534">
        <ele>81.2</ele>
        <time>2021-10-24T10:04:30Z</time>
      </trkpt>
      <trkpt lat="44.21102" lon="4.52541">
        <ele>81.2</ele>
        <time>2021-10-24T10:04:31Z</time>
      </trkpt>
      <trkpt lat="44.21104" lon="4.52548">
        <ele>81.4</ele>
        <time>2021-10-24T10:04:32Z</time>
      </trkpt>
      <trkpt lat="44.21106" lon="4.52554">
        <ele>81.6</ele>
        <time>2021-10-24T10:04:33Z</time>
      </trkpt>
      <trkpt lat="44.21108" lon="4.5256">
        <ele>81.6</ele>
        <time>2021-10-24T10:04:34Z</time>
      </trkpt>
      <trkpt lat="44.2111" lon="4.52567">
        <ele>81.8</ele>
        <time>2021-10-24T10:04:35Z</time>
      </trkpt>
      <trkpt lat="44.21112" lon="4.52573">
        <ele>82</ele>
        <time>2021-10-24T10:04:36Z</time>
      </trkpt>
      <trkpt lat="44.21114" lon="4.5258">
        <ele>82.4</ele>
        <time>2021-10-24T10:04:37Z</time>
      </trkpt>
      <trkpt lat="44.21116" lon="4.52587">
        <ele>82.6</ele>
        <time>2021-10-24T10:04:38Z</time>
      </trkpt>
      <trkpt lat="44.21118" lon="4.52593">
        <ele>83</ele>
        <time>2021-10-24T10:04:39Z</time>
      </trkpt>
      <trkpt lat="44.2112" lon="4.526">
        <ele>83.2</ele>
        <time>2021-10-24T10:04:40Z</time>
      </trkpt>
      <trkpt lat="44.21122" lon="4.52606">
        <ele>83.4</ele>
        <time>2021-10-24T10:04:41Z</time>
      </trkpt>
      <trkpt lat="44.21124" lon="4.52612">
        <ele>83.8</ele>
        <time>2021-10-24T10:04:42Z</time>
      </trkpt>
      <trkpt lat="44.21126" lon="4.52618">
        <ele>84</ele>
        <time>2021-10-24T10:04:43Z</time>
      </trkpt>
      <trkpt lat="44.21128" lon="4.52625">
        <ele>84.2</ele>
        <time>2021-10-24T10:04:44Z</time>
      </trkpt>
      <trkpt lat="44.2113" lon="4.52631">
        <ele>84.2</ele>
        <time>2021-10-24T10:04:45Z</time>
      </trkpt>
      <trkpt lat="44.21132" lon="4.52638">
        <ele>84.4</ele>
        <time>2021-10-24T10:04:46Z</time>
      </trkpt>
      <trkpt lat="44.21134" lon="4.52644">
        <ele>84.6</ele>
        <time>2021-10-24T10:04:47Z</time>
      </trkpt>
      <trkpt lat="44.21136" lon="4.52651">
        <ele>84.8</ele>
        <time>2021-10-24T10:04:48Z</time>
      </trkpt>
      <trkpt lat="44.21138" lon="4.52658">
        <ele>85</ele>
        <time>2021-10-24T10:04:49Z</time>
      </trkpt>
      <trkpt lat="44.2114" lon="4.52665">
        <ele>85.2</ele>
        <time>2021-10-24T10:04:50Z</time>
      </trkpt>
      <trkpt lat="44.21142" lon="4.52671">
        <ele>85.4</ele>
        <time>2021-10-24T10:04:51Z</time>
      </trkpt>
      <trkpt lat="44.21145" lon="4.52678">
        <ele>85.4</ele>
        <time>2021-10-24T10:04:52Z</time>
      </trkpt>
      <trkpt lat="44.21147" lon="4.52685">
        <ele>85.4</ele>
        <time>2021-10-24T10:04:53Z</time>
      </trkpt>
      <trkpt lat="44.21149" lon="4.52692">
        <ele>85.6</ele>
        <time>2021-10-24T10:04:54Z</time>
      </trkpt>
      <trkpt lat="44.21151" lon="4.52699">
        <ele>86</ele>
        <time>2021-10-24T10:04:55Z</time>
      </trkpt>
      <trkpt lat="44.21153" lon="4.52706">
        <ele>86</ele>
        <time>2021-10-24T10:04:56Z</time>
      </trkpt>
      <trkpt lat="44.21155" lon="4.52713">
        <ele>86</ele>
        <time>2021-10-24T10:04:57Z</time>
      </trkpt>
      <trkpt lat="44.21158" lon="4.5272">
        <ele>86.2</ele>
        <time>2021-10-24T10:04:58Z</time>
      </trkpt>
      <trkpt lat="44.2116" lon="4.52727">
        <ele>86.4</ele>
        <time>2021-10-24T10:04:59Z</time>
      </trkpt>
      <trkpt lat="44.21162" lon="4.52734">
        <ele>86.6</ele>
        <time>2021-10-24T10:05:00Z</time>
      </trkpt>
      <trkpt lat="44.21164" lon="4.52741">
        <ele>86.6</ele>
        <time>2021-10-24T10:05:01Z</time>
      </trkpt>
      <trkpt lat="44.21167" lon="4.52747">
        <ele>87</ele>
        <time>2021-10-24T10:05:02Z</time>
      </trkpt>
      <trkpt lat="44.21169" lon="4.52754">
        <ele>87</ele>
        <time>2021-10-24T10:05:03Z</time>
      </trkpt>
      <trkpt lat="44.21171" lon="4.52761">
        <ele>87.4</ele>
        <time>2021-10-24T10:05:04Z</time>
      </trkpt>
      <trkpt lat="44.21173" lon="4.52768">
        <ele>87.6</ele>
        <time>2021-10-24T10:05:05Z</time>
      </trkpt>
      <trkpt lat="44.21175" lon="4.52775">
        <ele>87.8</ele>
        <time>2021-10-24T10:05:06Z</time>
      </trkpt>
      <trkpt lat="44.21177" lon="4.52781">
        <ele>88</ele>
        <time>2021-10-24T10:05:07Z</time>
      </trkpt>
      <trkpt lat="44.21179" lon="4.52788">
        <ele>88.2</ele>
        <time>2021-10-24T10:05:08Z</time>
      </trkpt>
      <trkpt lat="44.21181" lon="4.52795">
        <ele>88.6</ele>
        <time>2021-10-24T10:05:09Z</time>
      </trkpt>
      <trkpt lat="44.21183" lon="4.52801">
        <ele>88.6</ele>
        <time>2021-10-24T10:05:10Z</time>
      </trkpt>
      <trkpt lat="44.21185" lon="4.52808">
        <ele>89</ele>
        <time>2021-10-24T10:05:11Z</time>
      </trkpt>
      <trkpt lat="44.21187" lon="4.52815">
        <ele>89</ele>
        <time>2021-10-24T10:05:12Z</time>
      </trkpt>
      <trkpt lat="44.21189" lon="4.52822">
        <ele>89.2</ele>
        <time>2021-10-24T10:05:13Z</time>
      </trkpt>
      <trkpt lat="44.21192" lon="4.52829">
        <ele>89.2</ele>
        <time>2021-10-24T10:05:14Z</time>
      </trkpt>
      <trkpt lat="44.21194" lon="4.52836">
        <ele>89.4</ele>
        <time>2021-10-24T10:05:15Z</time>
      </trkpt>
      <trkpt lat="44.21196" lon="4.52843">
        <ele>89.8</ele>
        <time>2021-10-24T10:05:16Z</time>
      </trkpt>
      <trkpt lat="44.21198" lon="4.5285">
        <ele>90</ele>
        <time>2021-10-24T10:05:17Z</time>
      </trkpt>
      <trkpt lat="44.212" lon="4.52857">
        <ele>90.2</ele>
        <time>2021-10-24T10:05:18Z</time>
      </trkpt>
      <trkpt lat="44.21202" lon="4.52864">
        <ele>90.4</ele>
        <time>2021-10-24T10:05:19Z</time>
      </trkpt>
      <trkpt lat="44.21204" lon="4.52871">
        <ele>90.6</ele>
        <time>2021-10-24T10:05:20Z</time>
      </trkpt>
      <trkpt lat="44.21206" lon="4.52878">
        <ele>90.8</ele>
        <time>2021-10-24T10:05:21Z</time>
      </trkpt>
      <trkpt lat="44.21208" lon="4.52885">
        <ele>91.2</ele>
        <time>2021-10-24T10:05:22Z</time>
      </trkpt>
      <trkpt lat="44.2121" lon="4.52891">
        <ele>91</ele>
        <time>2021-10-24T10:05:23Z</time>
      </trkpt>
      <trkpt lat="44.21212" lon="4.52898">
        <ele>91</ele>
        <time>2021-10-24T10:05:24Z</time>
      </trkpt>
      <trkpt lat="44.21213" lon="4.52905">
        <ele>91.2</ele>
        <time>2021-10-24T10:05:25Z</time>
      </trkpt>
      <trkpt lat="44.21216" lon="4.52911">
        <ele>91.6</ele>
        <time>2021-10-24T10:05:26Z</time>
      </trkpt>
      <trkpt lat="44.2122" lon="4.52916">
        <ele>91.6</ele>
        <time>2021-10-24T10:05:27Z</time>
      </trkpt>
      <trkpt lat="44.21225" lon="4.5292">
        <ele>92</ele>
        <time>2021-10-24T10:05:28Z</time>
      </trkpt>
      <trkpt lat="44.2123" lon="4.52923">
        <ele>92</ele>
        <time>2021-10-24T10:05:29Z</time>
      </trkpt>
      <trkpt lat="44.21236" lon="4.52927">
        <ele>92.4</ele>
        <time>2021-10-24T10:05:30Z</time>
      </trkpt>
      <trkpt lat="44.21242" lon="4.5293">
        <ele>92.6</ele>
        <time>2021-10-24T10:05:31Z</time>
      </trkpt>
      <trkpt lat="44.21248" lon="4.52933">
        <ele>92.8</ele>
        <time>2021-10-24T10:05:32Z</time>
      </trkpt>
      <trkpt lat="44.21253" lon="4.52936">
        <ele>93</ele>
        <time>2021-10-24T10:05:33Z</time>
      </trkpt>
      <trkpt lat="44.21259" lon="4.5294">
        <ele>93.2</ele>
        <time>2021-10-24T10:05:34Z</time>
      </trkpt>
      <trkpt lat="44.21265" lon="4.52943">
        <ele>93.4</ele>
        <time>2021-10-24T10:05:35Z</time>
      </trkpt>
      <trkpt lat="44.21271" lon="4.52946">
        <ele>93.6</ele>
        <time>2021-10-24T10:05:36Z</time>
      </trkpt>
      <trkpt lat="44.21277" lon="4.52949">
        <ele>93.8</ele>
        <time>2021-10-24T10:05:37Z</time>
      </trkpt>
      <trkpt lat="44.21283" lon="4.52953">
        <ele>94.2</ele>
        <time>2021-10-24T10:05:38Z</time>
      </trkpt>
      <trkpt lat="44.21288" lon="4.52956">
        <ele>94.4</ele>
        <time>2021-10-24T10:05:39Z</time>
      </trkpt>
      <trkpt lat="44.21294" lon="4.5296">
        <ele>94.6</ele>
        <time>2021-10-24T10:05:40Z</time>
      </trkpt>
      <trkpt lat="44.21299" lon="4.52964">
        <ele>94.8</ele>
        <time>2021-10-24T10:05:41Z</time>
      </trkpt>
      <trkpt lat="44.21304" lon="4.52969">
        <ele>94.8</ele>
        <time>2021-10-24T10:05:42Z</time>
      </trkpt>
      <trkpt lat="44.21308" lon="4.52975">
        <ele>95</ele>
        <time>2021-10-24T10:05:43Z</time>
      </trkpt>
      <trkpt lat="44.21312" lon="4.52982">
        <ele>95.2</ele>
        <time>2021-10-24T10:05:44Z</time>
      </trkpt>
      <trkpt lat="44.21315" lon="4.52988">
        <ele>95.4</ele>
        <time>2021-10-24T10:05:45Z</time>
      </trkpt>
      <trkpt lat="44.21318" lon="4.52995">
        <ele>95.6</ele>
        <time>2021-10-24T10:05:46Z</time>
      </trkpt>
      <trkpt lat="44.2132" lon="4.53002">
        <ele>95.8</ele>
        <time>2021-10-24T10:05:47Z</time>
      </trkpt>
      <trkpt lat="44.21322" lon="4.53009">
        <ele>96.2</ele>
        <time>2021-10-24T10:05:48Z</time>
      </trkpt>
      <trkpt lat="44.21323" lon="4.53016">
        <ele>96.4</ele>
        <time>2021-10-24T10:05:49Z</time>
      </trkpt>
      <trkpt lat="44.21324" lon="4.53023">
        <ele>96.8</ele>
        <time>2021-10-24T10:05:50Z</time>
      </trkpt>
      <trkpt lat="44.21326" lon="4.5303">
        <ele>97.4</ele>
        <time>2021-10-24T10:05:51Z</time>
      </trkpt>
      <trkpt lat="44.21327" lon="4.53038">
        <ele>97.6</ele>
        <time>2021-10-24T10:05:52Z</time>
      </trkpt>
      <trkpt lat="44.21328" lon="4.53045">
        <ele>97.8</ele>
        <time>2021-10-24T10:05:53Z</time>
      </trkpt>
      <trkpt lat="44.21329" lon="4.53053">
        <ele>98</ele>
        <time>2021-10-24T10:05:54Z</time>
      </trkpt>
      <trkpt lat="44.21329" lon="4.53061">
        <ele>98.2</ele>
        <time>2021-10-24T10:05:55Z</time>
      </trkpt>
      <trkpt lat="44.2133" lon="4.53068">
        <ele>98.2</ele>
        <time>2021-10-24T10:05:56Z</time>
      </trkpt>
      <trkpt lat="44.21331" lon="4.53075">
        <ele>98.8</ele>
        <time>2021-10-24T10:05:57Z</time>
      </trkpt>
      <trkpt lat="44.21332" lon="4.53081">
        <ele>99.2</ele>
        <time>2021-10-24T10:05:58Z</time>
      </trkpt>
      <trkpt lat="44.21333" lon="4.53088">
        <ele>99.8</ele>
        <time>2021-10-24T10:05:59Z</time>
      </trkpt>
      <trkpt lat="44.21334" lon="4.53094">
        <ele>100.2</ele>
        <time>2021-10-24T10:06:00Z</time>
      </trkpt>
      <trkpt lat="44.21334" lon="4.531">
        <ele>100.4</ele>
        <time>2021-10-24T10:06:01Z</time>
      </trkpt>
      <trkpt lat="44.21335" lon="4.53106">
        <ele>100.8</ele>
        <time>2021-10-24T10:06:02Z</time>
      </trkpt>
      <trkpt lat="44.21336" lon="4.53112">
        <ele>101.2</ele>
        <time>2021-10-24T10:06:03Z</time>
      </trkpt>
      <trkpt lat="44.21336" lon="4.53118">
        <ele>101.4</ele>
        <time>2021-10-24T10:06:04Z</time>
      </trkpt>
      <trkpt lat="44.21337" lon="4.53124">
        <ele>102</ele>
        <time>2021-10-24T10:06:05Z</time>
      </trkpt>
      <trkpt lat="44.21338" lon="4.53129">
        <ele>102</ele>
        <time>2021-10-24T10:06:06Z</time>
      </trkpt>
      <trkpt lat="44.21339" lon="4.53135">
        <ele>102.4</ele>
        <time>2021-10-24T10:06:07Z</time>
      </trkpt>
      <trkpt lat="44.2134" lon="4.53141">
        <ele>102.8</ele>
        <time>2021-10-24T10:06:08Z</time>
      </trkpt>
      <trkpt lat="44.21341" lon="4.53147">
        <ele>103</ele>
        <time>2021-10-24T10:06:09Z</time>
      </trkpt>
      <trkpt lat="44.21343" lon="4.53153">
        <ele>103.4</ele>
        <time>2021-10-24T10:06:10Z</time>
      </trkpt>
      <trkpt lat="44.21344" lon="4.53159">
        <ele>103.6</ele>
        <time>2021-10-24T10:06:11Z</time>
      </trkpt>
      <trkpt lat="44.21346" lon="4.53165">
        <ele>103.8</ele>
        <time>2021-10-24T10:06:12Z</time>
      </trkpt>
      <trkpt lat="44.21349" lon="4.5317">
        <ele>104.2</ele>
        <time>2021-10-24T10:06:13Z</time>
      </trkpt>
      <trkpt lat="44.21351" lon="4.53176">
        <ele>104.4</ele>
        <time>2021-10-24T10:06:14Z</time>
      </trkpt>
      <trkpt lat="44.21354" lon="4.53181">
        <ele>104.6</ele>
        <time>2021-10-24T10:06:15Z</time>
      </trkpt>
      <trkpt lat="44.21358" lon="4.53186">
        <ele>104.8</ele>
        <time>2021-10-24T10:06:16Z</time>
      </trkpt>
      <trkpt lat="44.21362" lon="4.53191">
        <ele>105</ele>
        <time>2021-10-24T10:06:17Z</time>
      </trkpt>
      <trkpt lat="44.21366" lon="4.53195">
        <ele>105.2</ele>
        <time>2021-10-24T10:06:18Z</time>
      </trkpt>
      <trkpt lat="44.2137" lon="4.532">
        <ele>105.4</ele>
        <time>2021-10-24T10:06:19Z</time>
      </trkpt>
      <trkpt lat="44.21374" lon="4.53204">
        <ele>105.6</ele>
        <time>2021-10-24T10:06:20Z</time>
      </trkpt>
      <trkpt lat="44.21379" lon="4.53209">
        <ele>105.8</ele>
        <time>2021-10-24T10:06:21Z</time>
      </trkpt>
      <trkpt lat="44.21384" lon="4.53213">
        <ele>106</ele>
        <time>2021-10-24T10:06:22Z</time>
      </trkpt>
      <trkpt lat="44.21388" lon="4.53218">
        <ele>106.2</ele>
        <time>2021-10-24T10:06:23Z</time>
      </trkpt>
      <trkpt lat="44.21393" lon="4.53222">
        <ele>106.4</ele>
        <time>2021-10-24T10:06:24Z</time>
      </trkpt>
      <trkpt lat="44.21398" lon="4.53226">
        <ele>106.6</ele>
        <time>2021-10-24T10:06:25Z</time>
      </trkpt>
      <trkpt lat="44.21402" lon="4.53231">
        <ele>106.8</ele>
        <time>2021-10-24T10:06:26Z</time>
      </trkpt>
      <trkpt lat="44.21407" lon="4.53235">
        <ele>107</ele>
        <time>2021-10-24T10:06:27Z</time>
      </trkpt>
      <trkpt lat="44.21412" lon="4.5324">
        <ele>106.8</ele>
        <time>2021-10-24T10:06:28Z</time>
      </trkpt>
      <trkpt lat="44.21417" lon="4.53245">
        <ele>106.8</ele>
        <time>2021-10-24T10:06:29Z</time>
      </trkpt>
      <trkpt lat="44.21422" lon="4.5325">
        <ele>107</ele>
        <time>2021-10-24T10:06:30Z</time>
      </trkpt>
      <trkpt lat="44.21427" lon="4.53255">
        <ele>107.2</ele>
        <time>2021-10-24T10:06:31Z</time>
      </trkpt>
      <trkpt lat="44.21432" lon="4.53259">
        <ele>107.4</ele>
        <time>2021-10-24T10:06:32Z</time>
      </trkpt>
      <trkpt lat="44.21437" lon="4.53264">
        <ele>107.4</ele>
        <time>2021-10-24T10:06:33Z</time>
      </trkpt>
      <trkpt lat="44.21442" lon="4.53269">
        <ele>107.4</ele>
        <time>2021-10-24T10:06:34Z</time>
      </trkpt>
      <trkpt lat="44.21447" lon="4.53273">
        <ele>107.4</ele>
        <time>2021-10-24T10:06:35Z</time>
      </trkpt>
      <trkpt lat="44.21452" lon="4.53277">
        <ele>107.6</ele>
        <time>2021-10-24T10:06:36Z</time>
      </trkpt>
      <trkpt lat="44.21457" lon="4.53282">
        <ele>107.6</ele>
        <time>2021-10-24T10:06:37Z</time>
      </trkpt>
      <trkpt lat="44.21462" lon="4.53286">
        <ele>107.6</ele>
        <time>2021-10-24T10:06:38Z</time>
      </trkpt>
      <trkpt lat="44.21467" lon="4.53291">
        <ele>107.8</ele>
        <time>2021-10-24T10:06:39Z</time>
      </trkpt>
      <trkpt lat="44.21471" lon="4.53295">
        <ele>108</ele>
        <time>2021-10-24T10:06:40Z</time>
      </trkpt>
      <trkpt lat="44.21476" lon="4.533">
        <ele>108.2</ele>
        <time>2021-10-24T10:06:41Z</time>
      </trkpt>
      <trkpt lat="44.21481" lon="4.53304">
        <ele>108.4</ele>
        <time>2021-10-24T10:06:42Z</time>
      </trkpt>
      <trkpt lat="44.21486" lon="4.53309">
        <ele>108.8</ele>
        <time>2021-10-24T10:06:43Z</time>
      </trkpt>
      <trkpt lat="44.21491" lon="4.53314">
        <ele>108.8</ele>
        <time>2021-10-24T10:06:44Z</time>
      </trkpt>
      <trkpt lat="44.21496" lon="4.53319">
        <ele>108.8</ele>
        <time>2021-10-24T10:06:45Z</time>
      </trkpt>
      <trkpt lat="44.21501" lon="4.53324">
        <ele>109</ele>
        <time>2021-10-24T10:06:46Z</time>
      </trkpt>
      <trkpt lat="44.21506" lon="4.53329">
        <ele>109.2</ele>
        <time>2021-10-24T10:06:47Z</time>
      </trkpt>
      <trkpt lat="44.21511" lon="4.53334">
        <ele>109.6</ele>
        <time>2021-10-24T10:06:48Z</time>
      </trkpt>
      <trkpt lat="44.21517" lon="4.53339">
        <ele>109.6</ele>
        <time>2021-10-24T10:06:49Z</time>
      </trkpt>
      <trkpt lat="44.21522" lon="4.53344">
        <ele>109.6</ele>
        <time>2021-10-24T10:06:50Z</time>
      </trkpt>
      <trkpt lat="44.21527" lon="4.53349">
        <ele>109.8</ele>
        <time>2021-10-24T10:06:51Z</time>
      </trkpt>
      <trkpt lat="44.21532" lon="4.53354">
        <ele>109.8</ele>
        <time>2021-10-24T10:06:52Z</time>
      </trkpt>
      <trkpt lat="44.21537" lon="4.53359">
        <ele>110</ele>
        <time>2021-10-24T10:06:53Z</time>
      </trkpt>
      <trkpt lat="44.21542" lon="4.53364">
        <ele>110</ele>
        <time>2021-10-24T10:06:54Z</time>
      </trkpt>
      <trkpt lat="44.21547" lon="4.53369">
        <ele>110.2</ele>
        <time>2021-10-24T10:06:55Z</time>
      </trkpt>
      <trkpt lat="44.21552" lon="4.53374">
        <ele>110.2</ele>
        <time>2021-10-24T10:06:56Z</time>
      </trkpt>
      <trkpt lat="44.21557" lon="4.53379">
        <ele>110.4</ele>
        <time>2021-10-24T10:06:57Z</time>
      </trkpt>
      <trkpt lat="44.21562" lon="4.53384">
        <ele>110.6</ele>
        <time>2021-10-24T10:06:58Z</time>
      </trkpt>
      <trkpt lat="44.21568" lon="4.53389">
        <ele>110.6</ele>
        <time>2021-10-24T10:06:59Z</time>
      </trkpt>
      <trkpt lat="44.21573" lon="4.53394">
        <ele>110.4</ele>
        <time>2021-10-24T10:07:00Z</time>
      </trkpt>
      <trkpt lat="44.21578" lon="4.53399">
        <ele>110.8</ele>
        <time>2021-10-24T10:07:01Z</time>
      </trkpt>
      <trkpt lat="44.21583" lon="4.53403">
        <ele>110.8</ele>
        <time>2021-10-24T10:07:02Z</time>
      </trkpt>
      <trkpt lat="44.21588" lon="4.53408">
        <ele>111</ele>
        <time>2021-10-24T10:07:03Z</time>
      </trkpt>
      <trkpt lat="44.21592" lon="4.53413">
        <ele>111</ele>
        <time>2021-10-24T10:07:04Z</time>
      </trkpt>
      <trkpt lat="44.21598" lon="4.53417">
        <ele>111</ele>
        <time>2021-10-24T10:07:05Z</time>
      </trkpt>
      <trkpt lat="44.21603" lon="4.53422">
        <ele>111.2</ele>
        <time>2021-10-24T10:07:06Z</time>
      </trkpt>
      <trkpt lat="44.21608" lon="4.53426">
        <ele>111.2</ele>
        <time>2021-10-24T10:07:07Z</time>
      </trkpt>
      <trkpt lat="44.21613" lon="4.5343">
        <ele>111.4</ele>
        <time>2021-10-24T10:07:08Z</time>
      </trkpt>
      <trkpt lat="44.21619" lon="4.53433">
        <ele>111.6</ele>
        <time>2021-10-24T10:07:09Z</time>
      </trkpt>
      <trkpt lat="44.21625" lon="4.53435">
        <ele>111.6</ele>
        <time>2021-10-24T10:07:10Z</time>
      </trkpt>
      <trkpt lat="44.21631" lon="4.53437">
        <ele>112</ele>
        <time>2021-10-24T10:07:11Z</time>
      </trkpt>
      <trkpt lat="44.21637" lon="4.53439">
        <ele>112.2</ele>
        <time>2021-10-24T10:07:12Z</time>
      </trkpt>
      <trkpt lat="44.21643" lon="4.5344">
        <ele>112.4</ele>
        <time>2021-10-24T10:07:13Z</time>
      </trkpt>
      <trkpt lat="44.21649" lon="4.53442">
        <ele>112.4</ele>
        <time>2021-10-24T10:07:14Z</time>
      </trkpt>
      <trkpt lat="44.21655" lon="4.53444">
        <ele>112.6</ele>
        <time>2021-10-24T10:07:15Z</time>
      </trkpt>
      <trkpt lat="44.21661" lon="4.53446">
        <ele>113</ele>
        <time>2021-10-24T10:07:16Z</time>
      </trkpt>
      <trkpt lat="44.21667" lon="4.53448">
        <ele>113</ele>
        <time>2021-10-24T10:07:17Z</time>
      </trkpt>
      <trkpt lat="44.21673" lon="4.53452">
        <ele>113</ele>
        <time>2021-10-24T10:07:18Z</time>
      </trkpt>
      <trkpt lat="44.21678" lon="4.53456">
        <ele>113.2</ele>
        <time>2021-10-24T10:07:19Z</time>
      </trkpt>
      <trkpt lat="44.21683" lon="4.5346">
        <ele>113.6</ele>
        <time>2021-10-24T10:07:20Z</time>
      </trkpt>
      <trkpt lat="44.21688" lon="4.53465">
        <ele>113.6</ele>
        <time>2021-10-24T10:07:21Z</time>
      </trkpt>
      <trkpt lat="44.21692" lon="4.53471">
        <ele>113.8</ele>
        <time>2021-10-24T10:07:22Z</time>
      </trkpt>
      <trkpt lat="44.21696" lon="4.53477">
        <ele>114.2</ele>
        <time>2021-10-24T10:07:23Z</time>
      </trkpt>
      <trkpt lat="44.21699" lon="4.53484">
        <ele>114.8</ele>
        <time>2021-10-24T10:07:24Z</time>
      </trkpt>
      <trkpt lat="44.21702" lon="4.5349">
        <ele>114.8</ele>
        <time>2021-10-24T10:07:25Z</time>
      </trkpt>
      <trkpt lat="44.21705" lon="4.53497">
        <ele>115.2</ele>
        <time>2021-10-24T10:07:26Z</time>
      </trkpt>
      <trkpt lat="44.21707" lon="4.53504">
        <ele>115.6</ele>
        <time>2021-10-24T10:07:27Z</time>
      </trkpt>
      <trkpt lat="44.2171" lon="4.5351">
        <ele>115.8</ele>
        <time>2021-10-24T10:07:28Z</time>
      </trkpt>
      <trkpt lat="44.21711" lon="4.53517">
        <ele>116</ele>
        <time>2021-10-24T10:07:29Z</time>
      </trkpt>
      <trkpt lat="44.21713" lon="4.53525">
        <ele>116.2</ele>
        <time>2021-10-24T10:07:30Z</time>
      </trkpt>
      <trkpt lat="44.21714" lon="4.53532">
        <ele>116.6</ele>
        <time>2021-10-24T10:07:31Z</time>
      </trkpt>
      <trkpt lat="44.21715" lon="4.53539">
        <ele>116.8</ele>
        <time>2021-10-24T10:07:32Z</time>
      </trkpt>
      <trkpt lat="44.21716" lon="4.53547">
        <ele>117.2</ele>
        <time>2021-10-24T10:07:33Z</time>
      </trkpt>
      <trkpt lat="44.21717" lon="4.53554">
        <ele>117.4</ele>
        <time>2021-10-24T10:07:34Z</time>
      </trkpt>
      <trkpt lat="44.21718" lon="4.53561">
        <ele>117.4</ele>
        <time>2021-10-24T10:07:35Z</time>
      </trkpt>
      <trkpt lat="44.2172" lon="4.53568">
        <ele>117.6</ele>
        <time>2021-10-24T10:07:36Z</time>
      </trkpt>
      <trkpt lat="44.21721" lon="4.53575">
        <ele>118</ele>
        <time>2021-10-24T10:07:37Z</time>
      </trkpt>
      <trkpt lat="44.21723" lon="4.53582">
        <ele>118</ele>
        <time>2021-10-24T10:07:38Z</time>
      </trkpt>
      <trkpt lat="44.21724" lon="4.53589">
        <ele>118.2</ele>
        <time>2021-10-24T10:07:39Z</time>
      </trkpt>
      <trkpt lat="44.21726" lon="4.53596">
        <ele>118.4</ele>
        <time>2021-10-24T10:07:40Z</time>
      </trkpt>
      <trkpt lat="44.21728" lon="4.53603">
        <ele>118.8</ele>
        <time>2021-10-24T10:07:41Z</time>
      </trkpt>
      <trkpt lat="44.2173" lon="4.5361">
        <ele>119.2</ele>
        <time>2021-10-24T10:07:42Z</time>
      </trkpt>
      <trkpt lat="44.21732" lon="4.53617">
        <ele>119.4</ele>
        <time>2021-10-24T10:07:43Z</time>
      </trkpt>
      <trkpt lat="44.21734" lon="4.53624">
        <ele>119.6</ele>
        <time>2021-10-24T10:07:44Z</time>
      </trkpt>
      <trkpt lat="44.21736" lon="4.5363">
        <ele>120</ele>
        <time>2021-10-24T10:07:45Z</time>
      </trkpt>
      <trkpt lat="44.21738" lon="4.53637">
        <ele>120.2</ele>
        <time>2021-10-24T10:07:46Z</time>
      </trkpt>
      <trkpt lat="44.21741" lon="4.53643">
        <ele>120.2</ele>
        <time>2021-10-24T10:07:47Z</time>
      </trkpt>
      <trkpt lat="44.21744" lon="4.5365">
        <ele>120.6</ele>
        <time>2021-10-24T10:07:48Z</time>
      </trkpt>
      <trkpt lat="44.21747" lon="4.53656">
        <ele>120.8</ele>
        <time>2021-10-24T10:07:49Z</time>
      </trkpt>
      <trkpt lat="44.2175" lon="4.53661">
        <ele>121</ele>
        <time>2021-10-24T10:07:50Z</time>
      </trkpt>
      <trkpt lat="44.21753" lon="4.53667">
        <ele>121.2</ele>
        <time>2021-10-24T10:07:51Z</time>
      </trkpt>
      <trkpt lat="44.21757" lon="4.53672">
        <ele>121.6</ele>
        <time>2021-10-24T10:07:52Z</time>
      </trkpt>
      <trkpt lat="44.21761" lon="4.53677">
        <ele>121.6</ele>
        <time>2021-10-24T10:07:53Z</time>
      </trkpt>
      <trkpt lat="44.21765" lon="4.53682">
        <ele>122</ele>
        <time>2021-10-24T10:07:54Z</time>
      </trkpt>
      <trkpt lat="44.21769" lon="4.53687">
        <ele>122.2</ele>
        <time>2021-10-24T10:07:55Z</time>
      </trkpt>
      <trkpt lat="44.21773" lon="4.53692">
        <ele>122.4</ele>
        <time>2021-10-24T10:07:56Z</time>
      </trkpt>
      <trkpt lat="44.21778" lon="4.53697">
        <ele>122.8</ele>
        <time>2021-10-24T10:07:57Z</time>
      </trkpt>
      <trkpt lat="44.21782" lon="4.53702">
        <ele>123.2</ele>
        <time>2021-10-24T10:07:58Z</time>
      </trkpt>
      <trkpt lat="44.21787" lon="4.53707">
        <ele>123.4</ele>
        <time>2021-10-24T10:07:59Z</time>
      </trkpt>
      <trkpt lat="44.21791" lon="4.53711">
        <ele>123.6</ele>
        <time>2021-10-24T10:08:00Z</time>
      </trkpt>
      <trkpt lat="44.21795" lon="4.53716">
        <ele>123.8</ele>
        <time>2021-10-24T10:08:01Z</time>
      </trkpt>
      <trkpt lat="44.21799" lon="4.53721">
        <ele>124.2</ele>
        <time>2021-10-24T10:08:02Z</time>
      </trkpt>
      <trkpt lat="44.21803" lon="4.53726">
        <ele>124.2</ele>
        <time>2021-10-24T10:08:03Z</time>
      </trkpt>
      <trkpt lat="44.21808" lon="4.53731">
        <ele>124.4</ele>
        <time>2021-10-24T10:08:04Z</time>
      </trkpt>
      <trkpt lat="44.21812" lon="4.53736">
        <ele>124.6</ele>
        <time>2021-10-24T10:08:05Z</time>
      </trkpt>
      <trkpt lat="44.21816" lon="4.53741">
        <ele>125</ele>
        <time>2021-10-24T10:08:06Z</time>
      </trkpt>
      <trkpt lat="44.2182" lon="4.53746">
        <ele>125</ele>
        <time>2021-10-24T10:08:07Z</time>
      </trkpt>
      <trkpt lat="44.21825" lon="4.53751">
        <ele>125</ele>
        <time>2021-10-24T10:08:08Z</time>
      </trkpt>
      <trkpt lat="44.21829" lon="4.53756">
        <ele>125.4</ele>
        <time>2021-10-24T10:08:09Z</time>
      </trkpt>
      <trkpt lat="44.21833" lon="4.53761">
        <ele>125.6</ele>
        <time>2021-10-24T10:08:10Z</time>
      </trkpt>
      <trkpt lat="44.21837" lon="4.53766">
        <ele>125.8</ele>
        <time>2021-10-24T10:08:11Z</time>
      </trkpt>
      <trkpt lat="44.21841" lon="4.53771">
        <ele>126.2</ele>
        <time>2021-10-24T10:08:12Z</time>
      </trkpt>
      <trkpt lat="44.21845" lon="4.53776">
        <ele>126.4</ele>
        <time>2021-10-24T10:08:13Z</time>
      </trkpt>
      <trkpt lat="44.21849" lon="4.53781">
        <ele>126.6</ele>
        <time>2021-10-24T10:08:14Z</time>
      </trkpt>
      <trkpt lat="44.21853" lon="4.53786">
        <ele>126.8</ele>
        <time>2021-10-24T10:08:15Z</time>
      </trkpt>
      <trkpt lat="44.21858" lon="4.53791">
        <ele>127.2</ele>
        <time>2021-10-24T10:08:16Z</time>
      </trkpt>
      <trkpt lat="44.21862" lon="4.53796">
        <ele>127.4</ele>
        <time>2021-10-24T10:08:17Z</time>
      </trkpt>
      <trkpt lat="44.21866" lon="4.53801">
        <ele>127.8</ele>
        <time>2021-10-24T10:08:18Z</time>
      </trkpt>
      <trkpt lat="44.2187" lon="4.53806">
        <ele>127.8</ele>
        <time>2021-10-24T10:08:19Z</time>
      </trkpt>
      <trkpt lat="44.21874" lon="4.53811">
        <ele>128</ele>
        <time>2021-10-24T10:08:20Z</time>
      </trkpt>
      <trkpt lat="44.21878" lon="4.53816">
        <ele>128.2</ele>
        <time>2021-10-24T10:08:21Z</time>
      </trkpt>
      <trkpt lat="44.21882" lon="4.5382">
        <ele>128.6</ele>
        <time>2021-10-24T10:08:22Z</time>
      </trkpt>
      <trkpt lat="44.21886" lon="4.53825">
        <ele>128.8</ele>
        <time>2021-10-24T10:08:23Z</time>
      </trkpt>
      <trkpt lat="44.2189" lon="4.5383">
        <ele>129</ele>
        <time>2021-10-24T10:08:24Z</time>
      </trkpt>
      <trkpt lat="44.21894" lon="4.53835">
        <ele>129.4</ele>
        <time>2021-10-24T10:08:25Z</time>
      </trkpt>
      <trkpt lat="44.21897" lon="4.53841">
        <ele>129.8</ele>
        <time>2021-10-24T10:08:26Z</time>
      </trkpt>
      <trkpt lat="44.21901" lon="4.53846">
        <ele>129.8</ele>
        <time>2021-10-24T10:08:27Z</time>
      </trkpt>
      <trkpt lat="44.21905" lon="4.53851">
        <ele>130</ele>
        <time>2021-10-24T10:08:28Z</time>
      </trkpt>
      <trkpt lat="44.21908" lon="4.53857">
        <ele>130.4</ele>
        <time>2021-10-24T10:08:29Z</time>
      </trkpt>
      <trkpt lat="44.21911" lon="4.53863">
        <ele>130.6</ele>
        <time>2021-10-24T10:08:30Z</time>
      </trkpt>
      <trkpt lat="44.21914" lon="4.53869">
        <ele>131</ele>
        <time>2021-10-24T10:08:31Z</time>
      </trkpt>
      <trkpt lat="44.21916" lon="4.53875">
        <ele>131.4</ele>
        <time>2021-10-24T10:08:32Z</time>
      </trkpt>
      <trkpt lat="44.21918" lon="4.53882">
        <ele>131.6</ele>
        <time>2021-10-24T10:08:33Z</time>
      </trkpt>
      <trkpt lat="44.2192" lon="4.53888">
        <ele>131.8</ele>
        <time>2021-10-24T10:08:34Z</time>
      </trkpt>
      <trkpt lat="44.21922" lon="4.53895">
        <ele>132</ele>
        <time>2021-10-24T10:08:35Z</time>
      </trkpt>
      <trkpt lat="44.21924" lon="4.53902">
        <ele>132.4</ele>
        <time>2021-10-24T10:08:36Z</time>
      </trkpt>
      <trkpt lat="44.21926" lon="4.53909">
        <ele>132.6</ele>
        <time>2021-10-24T10:08:37Z</time>
      </trkpt>
      <trkpt lat="44.21928" lon="4.53916">
        <ele>133</ele>
        <time>2021-10-24T10:08:38Z</time>
      </trkpt>
      <trkpt lat="44.2193" lon="4.53922">
        <ele>133.2</ele>
        <time>2021-10-24T10:08:39Z</time>
      </trkpt>
      <trkpt lat="44.21931" lon="4.53929">
        <ele>133.6</ele>
        <time>2021-10-24T10:08:40Z</time>
      </trkpt>
      <trkpt lat="44.21933" lon="4.53937">
        <ele>133.8</ele>
        <time>2021-10-24T10:08:41Z</time>
      </trkpt>
      <trkpt lat="44.21935" lon="4.53944">
        <ele>134</ele>
        <time>2021-10-24T10:08:42Z</time>
      </trkpt>
      <trkpt lat="44.21936" lon="4.53951">
        <ele>134.2</ele>
        <time>2021-10-24T10:08:43Z</time>
      </trkpt>
      <trkpt lat="44.21938" lon="4.53958">
        <ele>134.4</ele>
        <time>2021-10-24T10:08:44Z</time>
      </trkpt>
      <trkpt lat="44.21939" lon="4.53965">
        <ele>134.6</ele>
        <time>2021-10-24T10:08:45Z</time>
      </trkpt>
      <trkpt lat="44.21941" lon="4.53973">
        <ele>134.6</ele>
        <time>2021-10-24T10:08:46Z</time>
      </trkpt>
      <trkpt lat="44.21942" lon="4.5398">
        <ele>134.8</ele>
        <time>2021-10-24T10:08:47Z</time>
      </trkpt>
      <trkpt lat="44.21944" lon="4.53987">
        <ele>135</ele>
        <time>2021-10-24T10:08:48Z</time>
      </trkpt>
      <trkpt lat="44.21945" lon="4.53995">
        <ele>135.2</ele>
        <time>2021-10-24T10:08:49Z</time>
      </trkpt>
      <trkpt lat="44.21947" lon="4.54002">
        <ele>135.8</ele>
        <time>2021-10-24T10:08:50Z</time>
      </trkpt>
      <trkpt lat="44.21948" lon="4.54009">
        <ele>135.8</ele>
        <time>2021-10-24T10:08:51Z</time>
      </trkpt>
      <trkpt lat="44.2195" lon="4.54017">
        <ele>136.2</ele>
        <time>2021-10-24T10:08:52Z</time>
      </trkpt>
      <trkpt lat="44.21951" lon="4.54024">
        <ele>136.4</ele>
        <time>2021-10-24T10:08:53Z</time>
      </trkpt>
      <trkpt lat="44.21952" lon="4.54032">
        <ele>136.6</ele>
        <time>2021-10-24T10:08:54Z</time>
      </trkpt>
      <trkpt lat="44.21954" lon="4.5404">
        <ele>137</ele>
        <time>2021-10-24T10:08:55Z</time>
      </trkpt>
      <trkpt lat="44.21955" lon="4.54047">
        <ele>137.2</ele>
        <time>2021-10-24T10:08:56Z</time>
      </trkpt>
      <trkpt lat="44.21956" lon="4.54055">
        <ele>137.2</ele>
        <time>2021-10-24T10:08:57Z</time>
      </trkpt>
      <trkpt lat="44.21956" lon="4.54063">
        <ele>137.6</ele>
        <time>2021-10-24T10:08:58Z</time>
      </trkpt>
      <trkpt lat="44.21957" lon="4.54071">
        <ele>137.8</ele>
        <time>2021-10-24T10:08:59Z</time>
      </trkpt>
      <trkpt lat="44.21958" lon="4.54079">
        <ele>137.8</ele>
        <time>2021-10-24T10:09:00Z</time>
      </trkpt>
      <trkpt lat="44.21958" lon="4.54087">
        <ele>138</ele>
        <time>2021-10-24T10:09:01Z</time>
      </trkpt>
      <trkpt lat="44.21959" lon="4.54095">
        <ele>138.4</ele>
        <time>2021-10-24T10:09:02Z</time>
      </trkpt>
      <trkpt lat="44.21959" lon="4.54103">
        <ele>138.4</ele>
        <time>2021-10-24T10:09:03Z</time>
      </trkpt>
      <trkpt lat="44.21959" lon="4.54111">
        <ele>138.6</ele>
        <time>2021-10-24T10:09:04Z</time>
      </trkpt>
      <trkpt lat="44.2196" lon="4.54119">
        <ele>138.6</ele>
        <time>2021-10-24T10:09:05Z</time>
      </trkpt>
      <trkpt lat="44.2196" lon="4.54127">
        <ele>138.8</ele>
        <time>2021-10-24T10:09:06Z</time>
      </trkpt>
      <trkpt lat="44.2196" lon="4.54135">
        <ele>139.2</ele>
        <time>2021-10-24T10:09:07Z</time>
      </trkpt>
      <trkpt lat="44.2196" lon="4.54143">
        <ele>139.4</ele>
        <time>2021-10-24T10:09:08Z</time>
      </trkpt>
      <trkpt lat="44.21961" lon="4.54151">
        <ele>139.6</ele>
        <time>2021-10-24T10:09:09Z</time>
      </trkpt>
      <trkpt lat="44.21961" lon="4.54158">
        <ele>139.8</ele>
        <time>2021-10-24T10:09:10Z</time>
      </trkpt>
      <trkpt lat="44.21961" lon="4.54166">
        <ele>140</ele>
        <time>2021-10-24T10:09:11Z</time>
      </trkpt>
      <trkpt lat="44.21961" lon="4.54174">
        <ele>140.4</ele>
        <time>2021-10-24T10:09:12Z</time>
      </trkpt>
      <trkpt lat="44.21962" lon="4.54182">
        <ele>140.6</ele>
        <time>2021-10-24T10:09:13Z</time>
      </trkpt>
      <trkpt lat="44.21962" lon="4.54189">
        <ele>140.8</ele>
        <time>2021-10-24T10:09:14Z</time>
      </trkpt>
      <trkpt lat="44.21963" lon="4.54197">
        <ele>141.2</ele>
        <time>2021-10-24T10:09:15Z</time>
      </trkpt>
      <trkpt lat="44.21963" lon="4.54204">
        <ele>141.4</ele>
        <time>2021-10-24T10:09:16Z</time>
      </trkpt>
      <trkpt lat="44.21964" lon="4.54212">
        <ele>141.4</ele>
        <time>2021-10-24T10:09:17Z</time>
      </trkpt>
      <trkpt lat="44.21966" lon="4.54219">
        <ele>141.4</ele>
        <time>2021-10-24T10:09:18Z</time>
      </trkpt>
      <trkpt lat="44.21967" lon="4.54227">
        <ele>141.6</ele>
        <time>2021-10-24T10:09:19Z</time>
      </trkpt>
      <trkpt lat="44.21969" lon="4.54234">
        <ele>142</ele>
        <time>2021-10-24T10:09:20Z</time>
      </trkpt>
      <trkpt lat="44.21971" lon="4.54241">
        <ele>142.2</ele>
        <time>2021-10-24T10:09:21Z</time>
      </trkpt>
      <trkpt lat="44.21973" lon="4.54247">
        <ele>142.4</ele>
        <time>2021-10-24T10:09:22Z</time>
      </trkpt>
      <trkpt lat="44.21976" lon="4.54253">
        <ele>142.6</ele>
        <time>2021-10-24T10:09:23Z</time>
      </trkpt>
      <trkpt lat="44.2198" lon="4.54259">
        <ele>143.2</ele>
        <time>2021-10-24T10:09:24Z</time>
      </trkpt>
      <trkpt lat="44.21983" lon="4.54264">
        <ele>143.4</ele>
        <time>2021-10-24T10:09:25Z</time>
      </trkpt>
      <trkpt lat="44.21988" lon="4.54268">
        <ele>143.6</ele>
        <time>2021-10-24T10:09:26Z</time>
      </trkpt>
      <trkpt lat="44.21992" lon="4.54272">
        <ele>143.6</ele>
        <time>2021-10-24T10:09:27Z</time>
      </trkpt>
      <trkpt lat="44.21996" lon="4.54276">
        <ele>143.6</ele>
        <time>2021-10-24T10:09:28Z</time>
      </trkpt>
      <trkpt lat="44.22001" lon="4.54279">
        <ele>144.2</ele>
        <time>2021-10-24T10:09:29Z</time>
      </trkpt>
      <trkpt lat="44.22006" lon="4.54282">
        <ele>144.4</ele>
        <time>2021-10-24T10:09:30Z</time>
      </trkpt>
      <trkpt lat="44.22011" lon="4.54285">
        <ele>144.6</ele>
        <time>2021-10-24T10:09:31Z</time>
      </trkpt>
      <trkpt lat="44.22016" lon="4.54288">
        <ele>145</ele>
        <time>2021-10-24T10:09:32Z</time>
      </trkpt>
      <trkpt lat="44.22021" lon="4.54291">
        <ele>145.2</ele>
        <time>2021-10-24T10:09:33Z</time>
      </trkpt>
      <trkpt lat="44.22027" lon="4.54293">
        <ele>145.6</ele>
        <time>2021-10-24T10:09:34Z</time>
      </trkpt>
      <trkpt lat="44.22032" lon="4.54296">
        <ele>145.6</ele>
        <time>2021-10-24T10:09:35Z</time>
      </trkpt>
      <trkpt lat="44.22037" lon="4.54298">
        <ele>146</ele>
        <time>2021-10-24T10:09:36Z</time>
      </trkpt>
      <trkpt lat="44.22043" lon="4.54301">
        <ele>146.2</ele>
        <time>2021-10-24T10:09:37Z</time>
      </trkpt>
      <trkpt lat="44.22048" lon="4.54303">
        <ele>146.4</ele>
        <time>2021-10-24T10:09:38Z</time>
      </trkpt>
      <trkpt lat="44.22054" lon="4.54305">
        <ele>147</ele>
        <time>2021-10-24T10:09:39Z</time>
      </trkpt>
      <trkpt lat="44.2206" lon="4.54307">
        <ele>147.2</ele>
        <time>2021-10-24T10:09:40Z</time>
      </trkpt>
      <trkpt lat="44.22065" lon="4.54308">
        <ele>147.8</ele>
        <time>2021-10-24T10:09:41Z</time>
      </trkpt>
      <trkpt lat="44.2207" lon="4.54309">
        <ele>148</ele>
        <time>2021-10-24T10:09:42Z</time>
      </trkpt>
      <trkpt lat="44.22075" lon="4.5431">
        <ele>148.4</ele>
        <time>2021-10-24T10:09:43Z</time>
      </trkpt>
      <trkpt lat="44.22081" lon="4.54311">
        <ele>148.4</ele>
        <time>2021-10-24T10:09:44Z</time>
      </trkpt>
      <trkpt lat="44.22086" lon="4.54312">
        <ele>148.6</ele>
        <time>2021-10-24T10:09:45Z</time>
      </trkpt>
      <trkpt lat="44.22091" lon="4.54313">
        <ele>148.8</ele>
        <time>2021-10-24T10:09:46Z</time>
      </trkpt>
      <trkpt lat="44.22096" lon="4.54314">
        <ele>148.8</ele>
        <time>2021-10-24T10:09:47Z</time>
      </trkpt>
      <trkpt lat="44.22101" lon="4.54314">
        <ele>149</ele>
        <time>2021-10-24T10:09:48Z</time>
      </trkpt>
      <trkpt lat="44.22106" lon="4.54315">
        <ele>149.2</ele>
        <time>2021-10-24T10:09:49Z</time>
      </trkpt>
      <trkpt lat="44.2211" lon="4.54316">
        <ele>149.6</ele>
        <time>2021-10-24T10:09:50Z</time>
      </trkpt>
      <trkpt lat="44.22115" lon="4.54317">
        <ele>149.8</ele>
        <time>2021-10-24T10:09:51Z</time>
      </trkpt>
      <trkpt lat="44.2212" lon="4.54317">
        <ele>150.4</ele>
        <time>2021-10-24T10:09:52Z</time>
      </trkpt>
      <trkpt lat="44.22125" lon="4.54318">
        <ele>150.6</ele>
        <time>2021-10-24T10:09:53Z</time>
      </trkpt>
      <trkpt lat="44.22129" lon="4.54319">
        <ele>150.8</ele>
        <time>2021-10-24T10:09:54Z</time>
      </trkpt>
      <trkpt lat="44.22134" lon="4.54319">
        <ele>150.8</ele>
        <time>2021-10-24T10:09:55Z</time>
      </trkpt>
      <trkpt lat="44.22139" lon="4.5432">
        <ele>151.2</ele>
        <time>2021-10-24T10:09:56Z</time>
      </trkpt>
      <trkpt lat="44.22144" lon="4.54321">
        <ele>151.6</ele>
        <time>2021-10-24T10:09:57Z</time>
      </trkpt>
      <trkpt lat="44.22149" lon="4.54321">
        <ele>152</ele>
        <time>2021-10-24T10:09:58Z</time>
      </trkpt>
      <trkpt lat="44.22153" lon="4.54322">
        <ele>152</ele>
        <time>2021-10-24T10:09:59Z</time>
      </trkpt>
      <trkpt lat="44.22158" lon="4.54322">
        <ele>152.4</ele>
        <time>2021-10-24T10:10:00Z</time>
      </trkpt>
      <trkpt lat="44.22163" lon="4.54323">
        <ele>152.6</ele>
        <time>2021-10-24T10:10:01Z</time>
      </trkpt>
      <trkpt lat="44.22167" lon="4.54324">
        <ele>152.8</ele>
        <time>2021-10-24T10:10:02Z</time>
      </trkpt>
      <trkpt lat="44.22172" lon="4.54324">
        <ele>153.4</ele>
        <time>2021-10-24T10:10:03Z</time>
      </trkpt>
      <trkpt lat="44.22177" lon="4.54325">
        <ele>153.8</ele>
        <time>2021-10-24T10:10:04Z</time>
      </trkpt>
      <trkpt lat="44.22181" lon="4.54326">
        <ele>154</ele>
        <time>2021-10-24T10:10:05Z</time>
      </trkpt>
      <trkpt lat="44.22186" lon="4.54326">
        <ele>154</ele>
        <time>2021-10-24T10:10:06Z</time>
      </trkpt>
      <trkpt lat="44.2219" lon="4.54327">
        <ele>154.2</ele>
        <time>2021-10-24T10:10:07Z</time>
      </trkpt>
      <trkpt lat="44.22195" lon="4.54327">
        <ele>154.4</ele>
        <time>2021-10-24T10:10:08Z</time>
      </trkpt>
      <trkpt lat="44.222" lon="4.54328">
        <ele>154.6</ele>
        <time>2021-10-24T10:10:09Z</time>
      </trkpt>
      <trkpt lat="44.22205" lon="4.54329">
        <ele>154.8</ele>
        <time>2021-10-24T10:10:10Z</time>
      </trkpt>
      <trkpt lat="44.2221" lon="4.54329">
        <ele>155</ele>
        <time>2021-10-24T10:10:11Z</time>
      </trkpt>
      <trkpt lat="44.22215" lon="4.5433">
        <ele>155</ele>
        <time>2021-10-24T10:10:12Z</time>
      </trkpt>
      <trkpt lat="44.22219" lon="4.5433">
        <ele>155</ele>
        <time>2021-10-24T10:10:13Z</time>
      </trkpt>
      <trkpt lat="44.22224" lon="4.54331">
        <ele>155.4</ele>
        <time>2021-10-24T10:10:14Z</time>
      </trkpt>
      <trkpt lat="44.22229" lon="4.54332">
        <ele>155.8</ele>
        <time>2021-10-24T10:10:15Z</time>
      </trkpt>
      <trkpt lat="44.22234" lon="4.54333">
        <ele>156</ele>
        <time>2021-10-24T10:10:16Z</time>
      </trkpt>
      <trkpt lat="44.22239" lon="4.54334">
        <ele>156.4</ele>
        <time>2021-10-24T10:10:17Z</time>
      </trkpt>
      <trkpt lat="44.22244" lon="4.54336">
        <ele>156.6</ele>
        <time>2021-10-24T10:10:18Z</time>
      </trkpt>
      <trkpt lat="44.22248" lon="4.54337">
        <ele>157</ele>
        <time>2021-10-24T10:10:19Z</time>
      </trkpt>
      <trkpt lat="44.22253" lon="4.5434">
        <ele>157.2</ele>
        <time>2021-10-24T10:10:20Z</time>
      </trkpt>
      <trkpt lat="44.22257" lon="4.54343">
        <ele>157.6</ele>
        <time>2021-10-24T10:10:21Z</time>
      </trkpt>
      <trkpt lat="44.22261" lon="4.54346">
        <ele>157.6</ele>
        <time>2021-10-24T10:10:22Z</time>
      </trkpt>
      <trkpt lat="44.22266" lon="4.5435">
        <ele>158</ele>
        <time>2021-10-24T10:10:23Z</time>
      </trkpt>
      <trkpt lat="44.2227" lon="4.54354">
        <ele>158.4</ele>
        <time>2021-10-24T10:10:24Z</time>
      </trkpt>
      <trkpt lat="44.22273" lon="4.54358">
        <ele>158.4</ele>
        <time>2021-10-24T10:10:25Z</time>
      </trkpt>
      <trkpt lat="44.22276" lon="4.54363">
        <ele>159</ele>
        <time>2021-10-24T10:10:26Z</time>
      </trkpt>
      <trkpt lat="44.22279" lon="4.54368">
        <ele>159.2</ele>
        <time>2021-10-24T10:10:27Z</time>
      </trkpt>
      <trkpt lat="44.22282" lon="4.54373">
        <ele>159.6</ele>
        <time>2021-10-24T10:10:28Z</time>
      </trkpt>
      <trkpt lat="44.22285" lon="4.54378">
        <ele>159.6</ele>
        <time>2021-10-24T10:10:29Z</time>
      </trkpt>
      <trkpt lat="44.22288" lon="4.54383">
        <ele>159.8</ele>
        <time>2021-10-24T10:10:30Z</time>
      </trkpt>
      <trkpt lat="44.22291" lon="4.54388">
        <ele>160</ele>
        <time>2021-10-24T10:10:31Z</time>
      </trkpt>
      <trkpt lat="44.22294" lon="4.54393">
        <ele>160.2</ele>
        <time>2021-10-24T10:10:32Z</time>
      </trkpt>
      <trkpt lat="44.22297" lon="4.54399">
        <ele>160.8</ele>
        <time>2021-10-24T10:10:33Z</time>
      </trkpt>
      <trkpt lat="44.22299" lon="4.54404">
        <ele>161</ele>
        <time>2021-10-24T10:10:34Z</time>
      </trkpt>
      <trkpt lat="44.22302" lon="4.5441">
        <ele>161.4</ele>
        <time>2021-10-24T10:10:35Z</time>
      </trkpt>
      <trkpt lat="44.22305" lon="4.54415">
        <ele>161.8</ele>
        <time>2021-10-24T10:10:36Z</time>
      </trkpt>
      <trkpt lat="44.22308" lon="4.54421">
        <ele>162.4</ele>
        <time>2021-10-24T10:10:37Z</time>
      </trkpt>
      <trkpt lat="44.22311" lon="4.54427">
        <ele>162.6</ele>
        <time>2021-10-24T10:10:38Z</time>
      </trkpt>
      <trkpt lat="44.22313" lon="4.54432">
        <ele>162.8</ele>
        <time>2021-10-24T10:10:39Z</time>
      </trkpt>
      <trkpt lat="44.22316" lon="4.54437">
        <ele>163.4</ele>
        <time>2021-10-24T10:10:40Z</time>
      </trkpt>
      <trkpt lat="44.2232" lon="4.54442">
        <ele>163.8</ele>
        <time>2021-10-24T10:10:41Z</time>
      </trkpt>
      <trkpt lat="44.22323" lon="4.54446">
        <ele>164.2</ele>
        <time>2021-10-24T10:10:42Z</time>
      </trkpt>
      <trkpt lat="44.22327" lon="4.5445">
        <ele>164.6</ele>
        <time>2021-10-24T10:10:43Z</time>
      </trkpt>
      <trkpt lat="44.22331" lon="4.54454">
        <ele>164.8</ele>
        <time>2021-10-24T10:10:44Z</time>
      </trkpt>
      <trkpt lat="44.22335" lon="4.54457">
        <ele>165.2</ele>
        <time>2021-10-24T10:10:45Z</time>
      </trkpt>
      <trkpt lat="44.22339" lon="4.54459">
        <ele>165.4</ele>
        <time>2021-10-24T10:10:46Z</time>
      </trkpt>
      <trkpt lat="44.22344" lon="4.54462">
        <ele>166</ele>
        <time>2021-10-24T10:10:47Z</time>
      </trkpt>
      <trkpt lat="44.22348" lon="4.54463">
        <ele>166.2</ele>
        <time>2021-10-24T10:10:48Z</time>
      </trkpt>
      <trkpt lat="44.22353" lon="4.54465">
        <ele>166.6</ele>
        <time>2021-10-24T10:10:49Z</time>
      </trkpt>
      <trkpt lat="44.22357" lon="4.54466">
        <ele>167</ele>
        <time>2021-10-24T10:10:50Z</time>
      </trkpt>
      <trkpt lat="44.22361" lon="4.54466">
        <ele>167.2</ele>
        <time>2021-10-24T10:10:51Z</time>
      </trkpt>
      <trkpt lat="44.22366" lon="4.54466">
        <ele>167.6</ele>
        <time>2021-10-24T10:10:52Z</time>
      </trkpt>
      <trkpt lat="44.2237" lon="4.54466">
        <ele>167.8</ele>
        <time>2021-10-24T10:10:53Z</time>
      </trkpt>
      <trkpt lat="44.22374" lon="4.54465">
        <ele>168</ele>
        <time>2021-10-24T10:10:54Z</time>
      </trkpt>
      <trkpt lat="44.22378" lon="4.54465">
        <ele>168.4</ele>
        <time>2021-10-24T10:10:55Z</time>
      </trkpt>
      <trkpt lat="44.22386" lon="4.54462">
        <ele>168.6</ele>
        <time>2021-10-24T10:10:57Z</time>
      </trkpt>
      <trkpt lat="44.2239" lon="4.54461">
        <ele>168.8</ele>
        <time>2021-10-24T10:10:58Z</time>
      </trkpt>
      <trkpt lat="44.22394" lon="4.54458">
        <ele>169.2</ele>
        <time>2021-10-24T10:10:59Z</time>
      </trkpt>
      <trkpt lat="44.22398" lon="4.54456">
        <ele>169.6</ele>
        <time>2021-10-24T10:11:00Z</time>
      </trkpt>
      <trkpt lat="44.22402" lon="4.54454">
        <ele>170</ele>
        <time>2021-10-24T10:11:01Z</time>
      </trkpt>
      <trkpt lat="44.22406" lon="4.54452">
        <ele>170.4</ele>
        <time>2021-10-24T10:11:02Z</time>
      </trkpt>
      <trkpt lat="44.22411" lon="4.5445">
        <ele>170.6</ele>
        <time>2021-10-24T10:11:03Z</time>
      </trkpt>
      <trkpt lat="44.22415" lon="4.54449">
        <ele>171</ele>
        <time>2021-10-24T10:11:04Z</time>
      </trkpt>
      <trkpt lat="44.22419" lon="4.54448">
        <ele>171.2</ele>
        <time>2021-10-24T10:11:05Z</time>
      </trkpt>
      <trkpt lat="44.22423" lon="4.54446">
        <ele>171.2</ele>
        <time>2021-10-24T10:11:06Z</time>
      </trkpt>
      <trkpt lat="44.22427" lon="4.54445">
        <ele>171.6</ele>
        <time>2021-10-24T10:11:07Z</time>
      </trkpt>
      <trkpt lat="44.22432" lon="4.54444">
        <ele>171.6</ele>
        <time>2021-10-24T10:11:08Z</time>
      </trkpt>
      <trkpt lat="44.22436" lon="4.54443">
        <ele>171.8</ele>
        <time>2021-10-24T10:11:09Z</time>
      </trkpt>
      <trkpt lat="44.2244" lon="4.54442">
        <ele>172.2</ele>
        <time>2021-10-24T10:11:10Z</time>
      </trkpt>
      <trkpt lat="44.22444" lon="4.54441">
        <ele>172.4</ele>
        <time>2021-10-24T10:11:11Z</time>
      </trkpt>
      <trkpt lat="44.22449" lon="4.54441">
        <ele>172.8</ele>
        <time>2021-10-24T10:11:12Z</time>
      </trkpt>
      <trkpt lat="44.22453" lon="4.54441">
        <ele>173</ele>
        <time>2021-10-24T10:11:13Z</time>
      </trkpt>
      <trkpt lat="44.22457" lon="4.54441">
        <ele>173.4</ele>
        <time>2021-10-24T10:11:14Z</time>
      </trkpt>
      <trkpt lat="44.22461" lon="4.54442">
        <ele>173.6</ele>
        <time>2021-10-24T10:11:15Z</time>
      </trkpt>
      <trkpt lat="44.22465" lon="4.54442">
        <ele>173.8</ele>
        <time>2021-10-24T10:11:16Z</time>
      </trkpt>
      <trkpt lat="44.22469" lon="4.54443">
        <ele>174.2</ele>
        <time>2021-10-24T10:11:17Z</time>
      </trkpt>
      <trkpt lat="44.22473" lon="4.54443">
        <ele>174.2</ele>
        <time>2021-10-24T10:11:18Z</time>
      </trkpt>
      <trkpt lat="44.22478" lon="4.54444">
        <ele>174.6</ele>
        <time>2021-10-24T10:11:19Z</time>
      </trkpt>
      <trkpt lat="44.22482" lon="4.54444">
        <ele>174.8</ele>
        <time>2021-10-24T10:11:20Z</time>
      </trkpt>
      <trkpt lat="44.22486" lon="4.54444">
        <ele>175</ele>
        <time>2021-10-24T10:11:21Z</time>
      </trkpt>
      <trkpt lat="44.2249" lon="4.54444">
        <ele>175.4</ele>
        <time>2021-10-24T10:11:22Z</time>
      </trkpt>
      <trkpt lat="44.22494" lon="4.54444">
        <ele>175.4</ele>
        <time>2021-10-24T10:11:23Z</time>
      </trkpt>
      <trkpt lat="44.22498" lon="4.54444">
        <ele>175.8</ele>
        <time>2021-10-24T10:11:24Z</time>
      </trkpt>
      <trkpt lat="44.22503" lon="4.54445">
        <ele>176</ele>
        <time>2021-10-24T10:11:25Z</time>
      </trkpt>
      <trkpt lat="44.22507" lon="4.54445">
        <ele>176.4</ele>
        <time>2021-10-24T10:11:26Z</time>
      </trkpt>
      <trkpt lat="44.22511" lon="4.54445">
        <ele>176.8</ele>
        <time>2021-10-24T10:11:27Z</time>
      </trkpt>
      <trkpt lat="44.22515" lon="4.54445">
        <ele>176.8</ele>
        <time>2021-10-24T10:11:28Z</time>
      </trkpt>
      <trkpt lat="44.2252" lon="4.54445">
        <ele>177.2</ele>
        <time>2021-10-24T10:11:29Z</time>
      </trkpt>
      <trkpt lat="44.22524" lon="4.54446">
        <ele>177.4</ele>
        <time>2021-10-24T10:11:30Z</time>
      </trkpt>
      <trkpt lat="44.22528" lon="4.54445">
        <ele>177.4</ele>
        <time>2021-10-24T10:11:31Z</time>
      </trkpt>
      <trkpt lat="44.22533" lon="4.54445">
        <ele>178</ele>
        <time>2021-10-24T10:11:32Z</time>
      </trkpt>
      <trkpt lat="44.22537" lon="4.54446">
        <ele>178.4</ele>
        <time>2021-10-24T10:11:33Z</time>
      </trkpt>
      <trkpt lat="44.22542" lon="4.54446">
        <ele>178.6</ele>
        <time>2021-10-24T10:11:34Z</time>
      </trkpt>
      <trkpt lat="44.22546" lon="4.54446">
        <ele>179.2</ele>
        <time>2021-10-24T10:11:35Z</time>
      </trkpt>
      <trkpt lat="44.2255" lon="4.54446">
        <ele>179.4</ele>
        <time>2021-10-24T10:11:36Z</time>
      </trkpt>
      <trkpt lat="44.22554" lon="4.54446">
        <ele>179.8</ele>
        <time>2021-10-24T10:11:37Z</time>
      </trkpt>
      <trkpt lat="44.22558" lon="4.54446">
        <ele>180.2</ele>
        <time>2021-10-24T10:11:38Z</time>
      </trkpt>
      <trkpt lat="44.22562" lon="4.54447">
        <ele>180.6</ele>
        <time>2021-10-24T10:11:39Z</time>
      </trkpt>
      <trkpt lat="44.22566" lon="4.54447">
        <ele>181.2</ele>
        <time>2021-10-24T10:11:40Z</time>
      </trkpt>
      <trkpt lat="44.2257" lon="4.54447">
        <ele>181.4</ele>
        <time>2021-10-24T10:11:41Z</time>
      </trkpt>
      <trkpt lat="44.22574" lon="4.54447">
        <ele>181.8</ele>
        <time>2021-10-24T10:11:42Z</time>
      </trkpt>
      <trkpt lat="44.22578" lon="4.54447">
        <ele>182</ele>
        <time>2021-10-24T10:11:43Z</time>
      </trkpt>
      <trkpt lat="44.22582" lon="4.54448">
        <ele>182.6</ele>
        <time>2021-10-24T10:11:44Z</time>
      </trkpt>
      <trkpt lat="44.22586" lon="4.54448">
        <ele>182.6</ele>
        <time>2021-10-24T10:11:45Z</time>
      </trkpt>
      <trkpt lat="44.22591" lon="4.54448">
        <ele>183</ele>
        <time>2021-10-24T10:11:46Z</time>
      </trkpt>
      <trkpt lat="44.22595" lon="4.54449">
        <ele>183.2</ele>
        <time>2021-10-24T10:11:47Z</time>
      </trkpt>
      <trkpt lat="44.22599" lon="4.54449">
        <ele>183.6</ele>
        <time>2021-10-24T10:11:48Z</time>
      </trkpt>
      <trkpt lat="44.22603" lon="4.5445">
        <ele>183.6</ele>
        <time>2021-10-24T10:11:49Z</time>
      </trkpt>
      <trkpt lat="44.22607" lon="4.54451">
        <ele>184.2</ele>
        <time>2021-10-24T10:11:50Z</time>
      </trkpt>
      <trkpt lat="44.22612" lon="4.54452">
        <ele>184.4</ele>
        <time>2021-10-24T10:11:51Z</time>
      </trkpt>
      <trkpt lat="44.22616" lon="4.54453">
        <ele>184.6</ele>
        <time>2021-10-24T10:11:52Z</time>
      </trkpt>
      <trkpt lat="44.2262" lon="4.54455">
        <ele>184.6</ele>
        <time>2021-10-24T10:11:53Z</time>
      </trkpt>
      <trkpt lat="44.22624" lon="4.54457">
        <ele>185</ele>
        <time>2021-10-24T10:11:54Z</time>
      </trkpt>
      <trkpt lat="44.22628" lon="4.54458">
        <ele>185.2</ele>
        <time>2021-10-24T10:11:55Z</time>
      </trkpt>
      <trkpt lat="44.22632" lon="4.5446">
        <ele>185.8</ele>
        <time>2021-10-24T10:11:56Z</time>
      </trkpt>
      <trkpt lat="44.22636" lon="4.54462">
        <ele>186.2</ele>
        <time>2021-10-24T10:11:57Z</time>
      </trkpt>
      <trkpt lat="44.22641" lon="4.54464">
        <ele>186.4</ele>
        <time>2021-10-24T10:11:58Z</time>
      </trkpt>
      <trkpt lat="44.22645" lon="4.54466">
        <ele>186.8</ele>
        <time>2021-10-24T10:11:59Z</time>
      </trkpt>
      <trkpt lat="44.22649" lon="4.54468">
        <ele>187</ele>
        <time>2021-10-24T10:12:00Z</time>
      </trkpt>
      <trkpt lat="44.22654" lon="4.5447">
        <ele>187.4</ele>
        <time>2021-10-24T10:12:01Z</time>
      </trkpt>
      <trkpt lat="44.22658" lon="4.54472">
        <ele>187.4</ele>
        <time>2021-10-24T10:12:02Z</time>
      </trkpt>
      <trkpt lat="44.22662" lon="4.54475">
        <ele>187.6</ele>
        <time>2021-10-24T10:12:03Z</time>
      </trkpt>
      <trkpt lat="44.22666" lon="4.54478">
        <ele>187.8</ele>
        <time>2021-10-24T10:12:04Z</time>
      </trkpt>
      <trkpt lat="44.2267" lon="4.54481">
        <ele>188.2</ele>
        <time>2021-10-24T10:12:05Z</time>
      </trkpt>
      <trkpt lat="44.22674" lon="4.54484">
        <ele>188.4</ele>
        <time>2021-10-24T10:12:06Z</time>
      </trkpt>
      <trkpt lat="44.22678" lon="4.54488">
        <ele>188.6</ele>
        <time>2021-10-24T10:12:07Z</time>
      </trkpt>
      <trkpt lat="44.22682" lon="4.54491">
        <ele>188.8</ele>
        <time>2021-10-24T10:12:08Z</time>
      </trkpt>
      <trkpt lat="44.22686" lon="4.54495">
        <ele>188.8</ele>
        <time>2021-10-24T10:12:09Z</time>
      </trkpt>
      <trkpt lat="44.22691" lon="4.54497">
        <ele>189.6</ele>
        <time>2021-10-24T10:12:10Z</time>
      </trkpt>
      <trkpt lat="44.22696" lon="4.54499">
        <ele>190</ele>
        <time>2021-10-24T10:12:11Z</time>
      </trkpt>
      <trkpt lat="44.22701" lon="4.545">
        <ele>190</ele>
        <time>2021-10-24T10:12:12Z</time>
      </trkpt>
      <trkpt lat="44.22705" lon="4.545">
        <ele>190.4</ele>
        <time>2021-10-24T10:12:13Z</time>
      </trkpt>
      <trkpt lat="44.22711" lon="4.54499">
        <ele>190.6</ele>
        <time>2021-10-24T10:12:14Z</time>
      </trkpt>
      <trkpt lat="44.22715" lon="4.54496">
        <ele>191</ele>
        <time>2021-10-24T10:12:15Z</time>
      </trkpt>
      <trkpt lat="44.2272" lon="4.54493">
        <ele>191.2</ele>
        <time>2021-10-24T10:12:16Z</time>
      </trkpt>
      <trkpt lat="44.22724" lon="4.54488">
        <ele>191.4</ele>
        <time>2021-10-24T10:12:17Z</time>
      </trkpt>
      <trkpt lat="44.22727" lon="4.54482">
        <ele>191.6</ele>
        <time>2021-10-24T10:12:18Z</time>
      </trkpt>
      <trkpt lat="44.22729" lon="4.54476">
        <ele>192</ele>
        <time>2021-10-24T10:12:19Z</time>
      </trkpt>
      <trkpt lat="44.22731" lon="4.5447">
        <ele>192</ele>
        <time>2021-10-24T10:12:20Z</time>
      </trkpt>
      <trkpt lat="44.22732" lon="4.54464">
        <ele>192.4</ele>
        <time>2021-10-24T10:12:21Z</time>
      </trkpt>
      <trkpt lat="44.22734" lon="4.54457">
        <ele>192.6</ele>
        <time>2021-10-24T10:12:22Z</time>
      </trkpt>
      <trkpt lat="44.22735" lon="4.5445">
        <ele>193</ele>
        <time>2021-10-24T10:12:23Z</time>
      </trkpt>
      <trkpt lat="44.22737" lon="4.54444">
        <ele>193.2</ele>
        <time>2021-10-24T10:12:24Z</time>
      </trkpt>
      <trkpt lat="44.22739" lon="4.54438">
        <ele>193.6</ele>
        <time>2021-10-24T10:12:25Z</time>
      </trkpt>
      <trkpt lat="44.22743" lon="4.54433">
        <ele>193.8</ele>
        <time>2021-10-24T10:12:26Z</time>
      </trkpt>
      <trkpt lat="44.22747" lon="4.54429">
        <ele>194</ele>
        <time>2021-10-24T10:12:27Z</time>
      </trkpt>
      <trkpt lat="44.22751" lon="4.54426">
        <ele>194.6</ele>
        <time>2021-10-24T10:12:28Z</time>
      </trkpt>
      <trkpt lat="44.22756" lon="4.54425">
        <ele>195</ele>
        <time>2021-10-24T10:12:29Z</time>
      </trkpt>
      <trkpt lat="44.22761" lon="4.54425">
        <ele>195.2</ele>
        <time>2021-10-24T10:12:30Z</time>
      </trkpt>
      <trkpt lat="44.22766" lon="4.54426">
        <ele>195.4</ele>
        <time>2021-10-24T10:12:31Z</time>
      </trkpt>
      <trkpt lat="44.22771" lon="4.54426">
        <ele>195.8</ele>
        <time>2021-10-24T10:12:32Z</time>
      </trkpt>
      <trkpt lat="44.22776" lon="4.54428">
        <ele>196</ele>
        <time>2021-10-24T10:12:33Z</time>
      </trkpt>
      <trkpt lat="44.22781" lon="4.54429">
        <ele>196.4</ele>
        <time>2021-10-24T10:12:34Z</time>
      </trkpt>
      <trkpt lat="44.22786" lon="4.54431">
        <ele>196.8</ele>
        <time>2021-10-24T10:12:35Z</time>
      </trkpt>
      <trkpt lat="44.22791" lon="4.54432">
        <ele>197</ele>
        <time>2021-10-24T10:12:36Z</time>
      </trkpt>
      <trkpt lat="44.22796" lon="4.54433">
        <ele>197.4</ele>
        <time>2021-10-24T10:12:37Z</time>
      </trkpt>
      <trkpt lat="44.22802" lon="4.54435">
        <ele>197.8</ele>
        <time>2021-10-24T10:12:38Z</time>
      </trkpt>
      <trkpt lat="44.22807" lon="4.54436">
        <ele>198</ele>
        <time>2021-10-24T10:12:39Z</time>
      </trkpt>
      <trkpt lat="44.22812" lon="4.54437">
        <ele>198.2</ele>
        <time>2021-10-24T10:12:40Z</time>
      </trkpt>
      <trkpt lat="44.22818" lon="4.54437">
        <ele>198.6</ele>
        <time>2021-10-24T10:12:41Z</time>
      </trkpt>
      <trkpt lat="44.22823" lon="4.54438">
        <ele>199</ele>
        <time>2021-10-24T10:12:42Z</time>
      </trkpt>
      <trkpt lat="44.22828" lon="4.54439">
        <ele>199.4</ele>
        <time>2021-10-24T10:12:43Z</time>
      </trkpt>
      <trkpt lat="44.22834" lon="4.54439">
        <ele>199.4</ele>
        <time>2021-10-24T10:12:44Z</time>
      </trkpt>
      <trkpt lat="44.2284" lon="4.5444">
        <ele>199.6</ele>
        <time>2021-10-24T10:12:45Z</time>
      </trkpt>
      <trkpt lat="44.22845" lon="4.5444">
        <ele>199.8</ele>
        <time>2021-10-24T10:12:46Z</time>
      </trkpt>
      <trkpt lat="44.22851" lon="4.54441">
        <ele>199.8</ele>
        <time>2021-10-24T10:12:47Z</time>
      </trkpt>
      <trkpt lat="44.22857" lon="4.54441">
        <ele>200</ele>
        <time>2021-10-24T10:12:48Z</time>
      </trkpt>
      <trkpt lat="44.22863" lon="4.54441">
        <ele>200.2</ele>
        <time>2021-10-24T10:12:49Z</time>
      </trkpt>
      <trkpt lat="44.22868" lon="4.54442">
        <ele>200.4</ele>
        <time>2021-10-24T10:12:50Z</time>
      </trkpt>
      <trkpt lat="44.22874" lon="4.54442">
        <ele>200.8</ele>
        <time>2021-10-24T10:12:51Z</time>
      </trkpt>
      <trkpt lat="44.2288" lon="4.54443">
        <ele>201</ele>
        <time>2021-10-24T10:12:52Z</time>
      </trkpt>
      <trkpt lat="44.22886" lon="4.54443">
        <ele>201.2</ele>
        <time>2021-10-24T10:12:53Z</time>
      </trkpt>
      <trkpt lat="44.22891" lon="4.54443">
        <ele>201.4</ele>
        <time>2021-10-24T10:12:54Z</time>
      </trkpt>
      <trkpt lat="44.22897" lon="4.54444">
        <ele>201.6</ele>
        <time>2021-10-24T10:12:55Z</time>
      </trkpt>
      <trkpt lat="44.22902" lon="4.54444">
        <ele>201.8</ele>
        <time>2021-10-24T10:12:56Z</time>
      </trkpt>
      <trkpt lat="44.22908" lon="4.54443">
        <ele>201.8</ele>
        <time>2021-10-24T10:12:57Z</time>
      </trkpt>
      <trkpt lat="44.22914" lon="4.54443">
        <ele>202.2</ele>
        <time>2021-10-24T10:12:58Z</time>
      </trkpt>
      <trkpt lat="44.2292" lon="4.54442">
        <ele>202.4</ele>
        <time>2021-10-24T10:12:59Z</time>
      </trkpt>
      <trkpt lat="44.22925" lon="4.54441">
        <ele>202.6</ele>
        <time>2021-10-24T10:13:00Z</time>
      </trkpt>
      <trkpt lat="44.22931" lon="4.54438">
        <ele>202.8</ele>
        <time>2021-10-24T10:13:01Z</time>
      </trkpt>
      <trkpt lat="44.22937" lon="4.54436">
        <ele>203</ele>
        <time>2021-10-24T10:13:02Z</time>
      </trkpt>
      <trkpt lat="44.22943" lon="4.54433">
        <ele>203</ele>
        <time>2021-10-24T10:13:03Z</time>
      </trkpt>
      <trkpt lat="44.22949" lon="4.5443">
        <ele>203.4</ele>
        <time>2021-10-24T10:13:04Z</time>
      </trkpt>
      <trkpt lat="44.22955" lon="4.54427">
        <ele>203.6</ele>
        <time>2021-10-24T10:13:05Z</time>
      </trkpt>
      <trkpt lat="44.22961" lon="4.54423">
        <ele>204</ele>
        <time>2021-10-24T10:13:06Z</time>
      </trkpt>
      <trkpt lat="44.22968" lon="4.54421">
        <ele>204</ele>
        <time>2021-10-24T10:13:07Z</time>
      </trkpt>
      <trkpt lat="44.22974" lon="4.54418">
        <ele>204.2</ele>
        <time>2021-10-24T10:13:08Z</time>
      </trkpt>
      <trkpt lat="44.2298" lon="4.54415">
        <ele>204.2</ele>
        <time>2021-10-24T10:13:09Z</time>
      </trkpt>
      <trkpt lat="44.22986" lon="4.54412">
        <ele>204.4</ele>
        <time>2021-10-24T10:13:10Z</time>
      </trkpt>
      <trkpt lat="44.22993" lon="4.54409">
        <ele>204.6</ele>
        <time>2021-10-24T10:13:11Z</time>
      </trkpt>
      <trkpt lat="44.22999" lon="4.54406">
        <ele>204.6</ele>
        <time>2021-10-24T10:13:12Z</time>
      </trkpt>
      <trkpt lat="44.23006" lon="4.54403">
        <ele>204.8</ele>
        <time>2021-10-24T10:13:13Z</time>
      </trkpt>
      <trkpt lat="44.23012" lon="4.544">
        <ele>204.8</ele>
        <time>2021-10-24T10:13:14Z</time>
      </trkpt>
      <trkpt lat="44.23019" lon="4.54397">
        <ele>205</ele>
        <time>2021-10-24T10:13:15Z</time>
      </trkpt>
      <trkpt lat="44.23026" lon="4.54394">
        <ele>205.2</ele>
        <time>2021-10-24T10:13:16Z</time>
      </trkpt>
      <trkpt lat="44.23032" lon="4.54391">
        <ele>205.4</ele>
        <time>2021-10-24T10:13:17Z</time>
      </trkpt>
      <trkpt lat="44.23039" lon="4.54387">
        <ele>205.6</ele>
        <time>2021-10-24T10:13:18Z</time>
      </trkpt>
      <trkpt lat="44.23045" lon="4.54383">
        <ele>205.8</ele>
        <time>2021-10-24T10:13:19Z</time>
      </trkpt>
      <trkpt lat="44.23052" lon="4.54379">
        <ele>205.8</ele>
        <time>2021-10-24T10:13:20Z</time>
      </trkpt>
      <trkpt lat="44.23058" lon="4.54375">
        <ele>206</ele>
        <time>2021-10-24T10:13:21Z</time>
      </trkpt>
      <trkpt lat="44.23065" lon="4.5437">
        <ele>205.8</ele>
        <time>2021-10-24T10:13:22Z</time>
      </trkpt>
      <trkpt lat="44.23071" lon="4.54366">
        <ele>206</ele>
        <time>2021-10-24T10:13:23Z</time>
      </trkpt>
      <trkpt lat="44.23078" lon="4.54363">
        <ele>206</ele>
        <time>2021-10-24T10:13:24Z</time>
      </trkpt>
      <trkpt lat="44.23085" lon="4.5436">
        <ele>206</ele>
        <time>2021-10-24T10:13:25Z</time>
      </trkpt>
      <trkpt lat="44.23093" lon="4.54359">
        <ele>206</ele>
        <time>2021-10-24T10:13:26Z</time>
      </trkpt>
      <trkpt lat="44.231" lon="4.5436">
        <ele>206.2</ele>
        <time>2021-10-24T10:13:27Z</time>
      </trkpt>
      <trkpt lat="44.23107" lon="4.54361">
        <ele>206.4</ele>
        <time>2021-10-24T10:13:28Z</time>
      </trkpt>
      <trkpt lat="44.23114" lon="4.54363">
        <ele>206.4</ele>
        <time>2021-10-24T10:13:29Z</time>
      </trkpt>
      <trkpt lat="44.23122" lon="4.54365">
        <ele>206.6</ele>
        <time>2021-10-24T10:13:30Z</time>
      </trkpt>
      <trkpt lat="44.23129" lon="4.54368">
        <ele>206.6</ele>
        <time>2021-10-24T10:13:31Z</time>
      </trkpt>
      <trkpt lat="44.23136" lon="4.54371">
        <ele>206.2</ele>
        <time>2021-10-24T10:13:32Z</time>
      </trkpt>
      <trkpt lat="44.23143" lon="4.54375">
        <ele>206.2</ele>
        <time>2021-10-24T10:13:33Z</time>
      </trkpt>
      <trkpt lat="44.23157" lon="4.54385">
        <ele>206</ele>
        <time>2021-10-24T10:13:35Z</time>
      </trkpt>
      <trkpt lat="44.23162" lon="4.54392">
        <ele>206.2</ele>
        <time>2021-10-24T10:13:36Z</time>
      </trkpt>
      <trkpt lat="44.23168" lon="4.544">
        <ele>206.4</ele>
        <time>2021-10-24T10:13:37Z</time>
      </trkpt>
      <trkpt lat="44.23173" lon="4.54406">
        <ele>206.4</ele>
        <time>2021-10-24T10:13:38Z</time>
      </trkpt>
      <trkpt lat="44.23179" lon="4.54413">
        <ele>206.6</ele>
        <time>2021-10-24T10:13:39Z</time>
      </trkpt>
      <trkpt lat="44.23185" lon="4.54418">
        <ele>206.6</ele>
        <time>2021-10-24T10:13:40Z</time>
      </trkpt>
      <trkpt lat="44.23199" lon="4.54425">
        <ele>206.6</ele>
        <time>2021-10-24T10:13:42Z</time>
      </trkpt>
      <trkpt lat="44.23214" lon="4.54428">
        <ele>206.8</ele>
        <time>2021-10-24T10:13:44Z</time>
      </trkpt>
      <trkpt lat="44.23228" lon="4.54432">
        <ele>206.6</ele>
        <time>2021-10-24T10:13:46Z</time>
      </trkpt>
      <trkpt lat="44.23234" lon="4.54434">
        <ele>206.8</ele>
        <time>2021-10-24T10:13:47Z</time>
      </trkpt>
      <trkpt lat="44.23241" lon="4.54437">
        <ele>206.8</ele>
        <time>2021-10-24T10:13:48Z</time>
      </trkpt>
      <trkpt lat="44.23251" lon="4.54447">
        <ele>207.4</ele>
        <time>2021-10-24T10:13:50Z</time>
      </trkpt>
      <trkpt lat="44.23259" lon="4.54457">
        <ele>207.8</ele>
        <time>2021-10-24T10:13:52Z</time>
      </trkpt>
      <trkpt lat="44.23263" lon="4.54462">
        <ele>208</ele>
        <time>2021-10-24T10:13:53Z</time>
      </trkpt>
      <trkpt lat="44.23268" lon="4.54467">
        <ele>208.2</ele>
        <time>2021-10-24T10:13:54Z</time>
      </trkpt>
      <trkpt lat="44.23272" lon="4.54471">
        <ele>208.2</ele>
        <time>2021-10-24T10:13:55Z</time>
      </trkpt>
      <trkpt lat="44.23277" lon="4.54475">
        <ele>208.4</ele>
        <time>2021-10-24T10:13:56Z</time>
      </trkpt>
      <trkpt lat="44.23283" lon="4.54477">
        <ele>208.2</ele>
        <time>2021-10-24T10:13:57Z</time>
      </trkpt>
      <trkpt lat="44.23288" lon="4.54476">
        <ele>208.6</ele>
        <time>2021-10-24T10:13:58Z</time>
      </trkpt>
      <trkpt lat="44.23293" lon="4.54472">
        <ele>209</ele>
        <time>2021-10-24T10:13:59Z</time>
      </trkpt>
      <trkpt lat="44.23297" lon="4.54466">
        <ele>209.2</ele>
        <time>2021-10-24T10:14:00Z</time>
      </trkpt>
      <trkpt lat="44.23299" lon="4.54458">
        <ele>209.6</ele>
        <time>2021-10-24T10:14:01Z</time>
      </trkpt>
      <trkpt lat="44.23299" lon="4.54449">
        <ele>210.2</ele>
        <time>2021-10-24T10:14:02Z</time>
      </trkpt>
      <trkpt lat="44.23297" lon="4.54441">
        <ele>210.4</ele>
        <time>2021-10-24T10:14:03Z</time>
      </trkpt>
      <trkpt lat="44.23294" lon="4.54434">
        <ele>210.8</ele>
        <time>2021-10-24T10:14:04Z</time>
      </trkpt>
      <trkpt lat="44.23291" lon="4.54428">
        <ele>211</ele>
        <time>2021-10-24T10:14:05Z</time>
      </trkpt>
      <trkpt lat="44.23289" lon="4.54422">
        <ele>211.4</ele>
        <time>2021-10-24T10:14:06Z</time>
      </trkpt>
      <trkpt lat="44.23288" lon="4.54414">
        <ele>211.8</ele>
        <time>2021-10-24T10:14:07Z</time>
      </trkpt>
      <trkpt lat="44.23288" lon="4.54408">
        <ele>212</ele>
        <time>2021-10-24T10:14:08Z</time>
      </trkpt>
      <trkpt lat="44.23288" lon="4.54402">
        <ele>212.2</ele>
        <time>2021-10-24T10:14:09Z</time>
      </trkpt>
      <trkpt lat="44.2329" lon="4.54395">
        <ele>212.8</ele>
        <time>2021-10-24T10:14:10Z</time>
      </trkpt>
      <trkpt lat="44.23293" lon="4.5439">
        <ele>213.2</ele>
        <time>2021-10-24T10:14:11Z</time>
      </trkpt>
      <trkpt lat="44.23296" lon="4.54386">
        <ele>213.8</ele>
        <time>2021-10-24T10:14:12Z</time>
      </trkpt>
      <trkpt lat="44.233" lon="4.54383">
        <ele>214.2</ele>
        <time>2021-10-24T10:14:13Z</time>
      </trkpt>
      <trkpt lat="44.23304" lon="4.5438">
        <ele>214.6</ele>
        <time>2021-10-24T10:14:14Z</time>
      </trkpt>
      <trkpt lat="44.23308" lon="4.54379">
        <ele>215</ele>
        <time>2021-10-24T10:14:15Z</time>
      </trkpt>
      <trkpt lat="44.23313" lon="4.54379">
        <ele>215.4</ele>
        <time>2021-10-24T10:14:16Z</time>
      </trkpt>
      <trkpt lat="44.23317" lon="4.5438">
        <ele>215.6</ele>
        <time>2021-10-24T10:14:17Z</time>
      </trkpt>
      <trkpt lat="44.23321" lon="4.54382">
        <ele>216.2</ele>
        <time>2021-10-24T10:14:18Z</time>
      </trkpt>
      <trkpt lat="44.23325" lon="4.54385">
        <ele>216.4</ele>
        <time>2021-10-24T10:14:19Z</time>
      </trkpt>
      <trkpt lat="44.23329" lon="4.54387">
        <ele>216.6</ele>
        <time>2021-10-24T10:14:20Z</time>
      </trkpt>
      <trkpt lat="44.23334" lon="4.5439">
        <ele>216.6</ele>
        <time>2021-10-24T10:14:21Z</time>
      </trkpt>
      <trkpt lat="44.23338" lon="4.54393">
        <ele>216.8</ele>
        <time>2021-10-24T10:14:22Z</time>
      </trkpt>
      <trkpt lat="44.23342" lon="4.54396">
        <ele>217.6</ele>
        <time>2021-10-24T10:14:23Z</time>
      </trkpt>
      <trkpt lat="44.23346" lon="4.54399">
        <ele>217.8</ele>
        <time>2021-10-24T10:14:24Z</time>
      </trkpt>
      <trkpt lat="44.23351" lon="4.54401">
        <ele>218.2</ele>
        <time>2021-10-24T10:14:25Z</time>
      </trkpt>
      <trkpt lat="44.23355" lon="4.54404">
        <ele>218.4</ele>
        <time>2021-10-24T10:14:26Z</time>
      </trkpt>
      <trkpt lat="44.23359" lon="4.54406">
        <ele>218.8</ele>
        <time>2021-10-24T10:14:27Z</time>
      </trkpt>
      <trkpt lat="44.23364" lon="4.54409">
        <ele>219.2</ele>
        <time>2021-10-24T10:14:28Z</time>
      </trkpt>
      <trkpt lat="44.23368" lon="4.54411">
        <ele>219.6</ele>
        <time>2021-10-24T10:14:29Z</time>
      </trkpt>
      <trkpt lat="44.23373" lon="4.54412">
        <ele>219.8</ele>
        <time>2021-10-24T10:14:30Z</time>
      </trkpt>
      <trkpt lat="44.23377" lon="4.54413">
        <ele>220</ele>
        <time>2021-10-24T10:14:31Z</time>
      </trkpt>
      <trkpt lat="44.23382" lon="4.54414">
        <ele>220.2</ele>
        <time>2021-10-24T10:14:32Z</time>
      </trkpt>
      <trkpt lat="44.23387" lon="4.54415">
        <ele>220.4</ele>
        <time>2021-10-24T10:14:33Z</time>
      </trkpt>
      <trkpt lat="44.23392" lon="4.54416">
        <ele>220.8</ele>
        <time>2021-10-24T10:14:34Z</time>
      </trkpt>
      <trkpt lat="44.23397" lon="4.54418">
        <ele>221</ele>
        <time>2021-10-24T10:14:35Z</time>
      </trkpt>
      <trkpt lat="44.23402" lon="4.5442">
        <ele>221.4</ele>
        <time>2021-10-24T10:14:36Z</time>
      </trkpt>
      <trkpt lat="44.23407" lon="4.54423">
        <ele>221.8</ele>
        <time>2021-10-24T10:14:37Z</time>
      </trkpt>
      <trkpt lat="44.23411" lon="4.54428">
        <ele>221.8</ele>
        <time>2021-10-24T10:14:38Z</time>
      </trkpt>
      <trkpt lat="44.23414" lon="4.54432">
        <ele>221.8</ele>
        <time>2021-10-24T10:14:39Z</time>
      </trkpt>
      <trkpt lat="44.23417" lon="4.54437">
        <ele>222.2</ele>
        <time>2021-10-24T10:14:40Z</time>
      </trkpt>
      <trkpt lat="44.23421" lon="4.54441">
        <ele>222.6</ele>
        <time>2021-10-24T10:14:41Z</time>
      </trkpt>
      <trkpt lat="44.23423" lon="4.54446">
        <ele>223</ele>
        <time>2021-10-24T10:14:42Z</time>
      </trkpt>
      <trkpt lat="44.23427" lon="4.54449">
        <ele>223.4</ele>
        <time>2021-10-24T10:14:43Z</time>
      </trkpt>
      <trkpt lat="44.23431" lon="4.54453">
        <ele>223.6</ele>
        <time>2021-10-24T10:14:44Z</time>
      </trkpt>
      <trkpt lat="44.23435" lon="4.54456">
        <ele>223.6</ele>
        <time>2021-10-24T10:14:45Z</time>
      </trkpt>
      <trkpt lat="44.23439" lon="4.5446">
        <ele>224</ele>
        <time>2021-10-24T10:14:46Z</time>
      </trkpt>
      <trkpt lat="44.23444" lon="4.54463">
        <ele>224.2</ele>
        <time>2021-10-24T10:14:47Z</time>
      </trkpt>
      <trkpt lat="44.23448" lon="4.54467">
        <ele>224.6</ele>
        <time>2021-10-24T10:14:48Z</time>
      </trkpt>
      <trkpt lat="44.23452" lon="4.5447">
        <ele>225</ele>
        <time>2021-10-24T10:14:49Z</time>
      </trkpt>
      <trkpt lat="44.23456" lon="4.54473">
        <ele>225</ele>
        <time>2021-10-24T10:14:50Z</time>
      </trkpt>
      <trkpt lat="44.2346" lon="4.54476">
        <ele>225.2</ele>
        <time>2021-10-24T10:14:51Z</time>
      </trkpt>
      <trkpt lat="44.23464" lon="4.5448">
        <ele>225.6</ele>
        <time>2021-10-24T10:14:52Z</time>
      </trkpt>
      <trkpt lat="44.23468" lon="4.54483">
        <ele>225.8</ele>
        <time>2021-10-24T10:14:53Z</time>
      </trkpt>
      <trkpt lat="44.23472" lon="4.54485">
        <ele>226</ele>
        <time>2021-10-24T10:14:54Z</time>
      </trkpt>
      <trkpt lat="44.23476" lon="4.54488">
        <ele>226.4</ele>
        <time>2021-10-24T10:14:55Z</time>
      </trkpt>
      <trkpt lat="44.23479" lon="4.54491">
        <ele>226.6</ele>
        <time>2021-10-24T10:14:56Z</time>
      </trkpt>
      <trkpt lat="44.23483" lon="4.54494">
        <ele>227</ele>
        <time>2021-10-24T10:14:57Z</time>
      </trkpt>
      <trkpt lat="44.23487" lon="4.54497">
        <ele>227.4</ele>
        <time>2021-10-24T10:14:58Z</time>
      </trkpt>
      <trkpt lat="44.23492" lon="4.54501">
        <ele>227.6</ele>
        <time>2021-10-24T10:14:59Z</time>
      </trkpt>
      <trkpt lat="44.23497" lon="4.54504">
        <ele>227.6</ele>
        <time>2021-10-24T10:15:00Z</time>
      </trkpt>
      <trkpt lat="44.23501" lon="4.54508">
        <ele>228.2</ele>
        <time>2021-10-24T10:15:01Z</time>
      </trkpt>
      <trkpt lat="44.23506" lon="4.54511">
        <ele>228.4</ele>
        <time>2021-10-24T10:15:02Z</time>
      </trkpt>
      <trkpt lat="44.2351" lon="4.54514">
        <ele>228.8</ele>
        <time>2021-10-24T10:15:03Z</time>
      </trkpt>
      <trkpt lat="44.23514" lon="4.54517">
        <ele>229.2</ele>
        <time>2021-10-24T10:15:04Z</time>
      </trkpt>
      <trkpt lat="44.23518" lon="4.5452">
        <ele>229.6</ele>
        <time>2021-10-24T10:15:05Z</time>
      </trkpt>
      <trkpt lat="44.23521" lon="4.54523">
        <ele>229.6</ele>
        <time>2021-10-24T10:15:06Z</time>
      </trkpt>
      <trkpt lat="44.23528" lon="4.54528">
        <ele>230</ele>
        <time>2021-10-24T10:15:08Z</time>
      </trkpt>
      <trkpt lat="44.23533" lon="4.54532">
        <ele>230.4</ele>
        <time>2021-10-24T10:15:09Z</time>
      </trkpt>
      <trkpt lat="44.23537" lon="4.54536">
        <ele>230.6</ele>
        <time>2021-10-24T10:15:10Z</time>
      </trkpt>
      <trkpt lat="44.23541" lon="4.54542">
        <ele>231</ele>
        <time>2021-10-24T10:15:11Z</time>
      </trkpt>
      <trkpt lat="44.23543" lon="4.54547">
        <ele>231.2</ele>
        <time>2021-10-24T10:15:12Z</time>
      </trkpt>
      <trkpt lat="44.23545" lon="4.54553">
        <ele>231.6</ele>
        <time>2021-10-24T10:15:13Z</time>
      </trkpt>
      <trkpt lat="44.23547" lon="4.54559">
        <ele>231.8</ele>
        <time>2021-10-24T10:15:14Z</time>
      </trkpt>
      <trkpt lat="44.23548" lon="4.54565">
        <ele>232</ele>
        <time>2021-10-24T10:15:15Z</time>
      </trkpt>
      <trkpt lat="44.23549" lon="4.54571">
        <ele>232.4</ele>
        <time>2021-10-24T10:15:16Z</time>
      </trkpt>
      <trkpt lat="44.23549" lon="4.54577">
        <ele>232.6</ele>
        <time>2021-10-24T10:15:17Z</time>
      </trkpt>
      <trkpt lat="44.23549" lon="4.54584">
        <ele>232.6</ele>
        <time>2021-10-24T10:15:18Z</time>
      </trkpt>
      <trkpt lat="44.2355" lon="4.5459">
        <ele>233.2</ele>
        <time>2021-10-24T10:15:19Z</time>
      </trkpt>
      <trkpt lat="44.2355" lon="4.54596">
        <ele>233.6</ele>
        <time>2021-10-24T10:15:20Z</time>
      </trkpt>
      <trkpt lat="44.2355" lon="4.54603">
        <ele>233.6</ele>
        <time>2021-10-24T10:15:21Z</time>
      </trkpt>
      <trkpt lat="44.23551" lon="4.5461">
        <ele>234</ele>
        <time>2021-10-24T10:15:22Z</time>
      </trkpt>
      <trkpt lat="44.23551" lon="4.54617">
        <ele>234.4</ele>
        <time>2021-10-24T10:15:23Z</time>
      </trkpt>
      <trkpt lat="44.23552" lon="4.54623">
        <ele>234.8</ele>
        <time>2021-10-24T10:15:24Z</time>
      </trkpt>
      <trkpt lat="44.23553" lon="4.5463">
        <ele>235.2</ele>
        <time>2021-10-24T10:15:25Z</time>
      </trkpt>
      <trkpt lat="44.23554" lon="4.54637">
        <ele>235.4</ele>
        <time>2021-10-24T10:15:26Z</time>
      </trkpt>
      <trkpt lat="44.23555" lon="4.54644">
        <ele>235.6</ele>
        <time>2021-10-24T10:15:27Z</time>
      </trkpt>
      <trkpt lat="44.23556" lon="4.54651">
        <ele>235.8</ele>
        <time>2021-10-24T10:15:28Z</time>
      </trkpt>
      <trkpt lat="44.23559" lon="4.54658">
        <ele>236</ele>
        <time>2021-10-24T10:15:29Z</time>
      </trkpt>
      <trkpt lat="44.23562" lon="4.54664">
        <ele>236.4</ele>
        <time>2021-10-24T10:15:30Z</time>
      </trkpt>
      <trkpt lat="44.23566" lon="4.54668">
        <ele>236.8</ele>
        <time>2021-10-24T10:15:31Z</time>
      </trkpt>
      <trkpt lat="44.23571" lon="4.54672">
        <ele>237</ele>
        <time>2021-10-24T10:15:32Z</time>
      </trkpt>
      <trkpt lat="44.23576" lon="4.54673">
        <ele>237.4</ele>
        <time>2021-10-24T10:15:33Z</time>
      </trkpt>
      <trkpt lat="44.23586" lon="4.54674">
        <ele>238</ele>
        <time>2021-10-24T10:15:35Z</time>
      </trkpt>
      <trkpt lat="44.23591" lon="4.54673">
        <ele>238.4</ele>
        <time>2021-10-24T10:15:36Z</time>
      </trkpt>
      <trkpt lat="44.23596" lon="4.54673">
        <ele>238.6</ele>
        <time>2021-10-24T10:15:37Z</time>
      </trkpt>
      <trkpt lat="44.23601" lon="4.54674">
        <ele>239</ele>
        <time>2021-10-24T10:15:38Z</time>
      </trkpt>
      <trkpt lat="44.23606" lon="4.54675">
        <ele>239.2</ele>
        <time>2021-10-24T10:15:39Z</time>
      </trkpt>
      <trkpt lat="44.23611" lon="4.54676">
        <ele>239.4</ele>
        <time>2021-10-24T10:15:40Z</time>
      </trkpt>
      <trkpt lat="44.23615" lon="4.54679">
        <ele>239.6</ele>
        <time>2021-10-24T10:15:41Z</time>
      </trkpt>
      <trkpt lat="44.23618" lon="4.54682">
        <ele>239.8</ele>
        <time>2021-10-24T10:15:42Z</time>
      </trkpt>
      <trkpt lat="44.23621" lon="4.54684">
        <ele>240.2</ele>
        <time>2021-10-24T10:15:43Z</time>
      </trkpt>
      <trkpt lat="44.23623" lon="4.54687">
        <ele>240.8</ele>
        <time>2021-10-24T10:15:44Z</time>
      </trkpt>
      <trkpt lat="44.23626" lon="4.5469">
        <ele>241</ele>
        <time>2021-10-24T10:15:45Z</time>
      </trkpt>
      <trkpt lat="44.2363" lon="4.54693">
        <ele>241.4</ele>
        <time>2021-10-24T10:15:46Z</time>
      </trkpt>
      <trkpt lat="44.23634" lon="4.54697">
        <ele>242</ele>
        <time>2021-10-24T10:15:47Z</time>
      </trkpt>
      <trkpt lat="44.23638" lon="4.54701">
        <ele>242.2</ele>
        <time>2021-10-24T10:15:48Z</time>
      </trkpt>
      <trkpt lat="44.23643" lon="4.54705">
        <ele>242.6</ele>
        <time>2021-10-24T10:15:49Z</time>
      </trkpt>
      <trkpt lat="44.23647" lon="4.54707">
        <ele>242.8</ele>
        <time>2021-10-24T10:15:50Z</time>
      </trkpt>
      <trkpt lat="44.23653" lon="4.5471">
        <ele>243.2</ele>
        <time>2021-10-24T10:15:51Z</time>
      </trkpt>
      <trkpt lat="44.23658" lon="4.54712">
        <ele>243.6</ele>
        <time>2021-10-24T10:15:52Z</time>
      </trkpt>
      <trkpt lat="44.23663" lon="4.54713">
        <ele>243.8</ele>
        <time>2021-10-24T10:15:53Z</time>
      </trkpt>
      <trkpt lat="44.23668" lon="4.54714">
        <ele>243.8</ele>
        <time>2021-10-24T10:15:54Z</time>
      </trkpt>
      <trkpt lat="44.23673" lon="4.54714">
        <ele>244.2</ele>
        <time>2021-10-24T10:15:55Z</time>
      </trkpt>
      <trkpt lat="44.23679" lon="4.54714">
        <ele>244.4</ele>
        <time>2021-10-24T10:15:56Z</time>
      </trkpt>
      <trkpt lat="44.23684" lon="4.54713">
        <ele>244.8</ele>
        <time>2021-10-24T10:15:57Z</time>
      </trkpt>
      <trkpt lat="44.23689" lon="4.54712">
        <ele>245.2</ele>
        <time>2021-10-24T10:15:58Z</time>
      </trkpt>
      <trkpt lat="44.23694" lon="4.54712">
        <ele>245.6</ele>
        <time>2021-10-24T10:15:59Z</time>
      </trkpt>
      <trkpt lat="44.23699" lon="4.54712">
        <ele>245.8</ele>
        <time>2021-10-24T10:16:00Z</time>
      </trkpt>
      <trkpt lat="44.23704" lon="4.54714">
        <ele>246</ele>
        <time>2021-10-24T10:16:01Z</time>
      </trkpt>
      <trkpt lat="44.23709" lon="4.54717">
        <ele>246.4</ele>
        <time>2021-10-24T10:16:02Z</time>
      </trkpt>
      <trkpt lat="44.23713" lon="4.54721">
        <ele>246.8</ele>
        <time>2021-10-24T10:16:03Z</time>
      </trkpt>
      <trkpt lat="44.23717" lon="4.54725">
        <ele>247.4</ele>
        <time>2021-10-24T10:16:04Z</time>
      </trkpt>
      <trkpt lat="44.2372" lon="4.5473">
        <ele>247.8</ele>
        <time>2021-10-24T10:16:05Z</time>
      </trkpt>
      <trkpt lat="44.23724" lon="4.54736">
        <ele>248.2</ele>
        <time>2021-10-24T10:16:06Z</time>
      </trkpt>
      <trkpt lat="44.23727" lon="4.54742">
        <ele>248.8</ele>
        <time>2021-10-24T10:16:07Z</time>
      </trkpt>
      <trkpt lat="44.23729" lon="4.54748">
        <ele>248.8</ele>
        <time>2021-10-24T10:16:08Z</time>
      </trkpt>
      <trkpt lat="44.23732" lon="4.54755">
        <ele>249.2</ele>
        <time>2021-10-24T10:16:09Z</time>
      </trkpt>
      <trkpt lat="44.23733" lon="4.54761">
        <ele>249.8</ele>
        <time>2021-10-24T10:16:10Z</time>
      </trkpt>
      <trkpt lat="44.23734" lon="4.54768">
        <ele>250.2</ele>
        <time>2021-10-24T10:16:11Z</time>
      </trkpt>
      <trkpt lat="44.23735" lon="4.54775">
        <ele>250.4</ele>
        <time>2021-10-24T10:16:12Z</time>
      </trkpt>
      <trkpt lat="44.23735" lon="4.54782">
        <ele>250.8</ele>
        <time>2021-10-24T10:16:13Z</time>
      </trkpt>
      <trkpt lat="44.23735" lon="4.5479">
        <ele>251.2</ele>
        <time>2021-10-24T10:16:14Z</time>
      </trkpt>
      <trkpt lat="44.23735" lon="4.54798">
        <ele>251.6</ele>
        <time>2021-10-24T10:16:15Z</time>
      </trkpt>
      <trkpt lat="44.23735" lon="4.54806">
        <ele>251.6</ele>
        <time>2021-10-24T10:16:16Z</time>
      </trkpt>
      <trkpt lat="44.23734" lon="4.54814">
        <ele>251.6</ele>
        <time>2021-10-24T10:16:17Z</time>
      </trkpt>
      <trkpt lat="44.23733" lon="4.54822">
        <ele>251.6</ele>
        <time>2021-10-24T10:16:18Z</time>
      </trkpt>
      <trkpt lat="44.23732" lon="4.54831">
        <ele>251.8</ele>
        <time>2021-10-24T10:16:19Z</time>
      </trkpt>
      <trkpt lat="44.23732" lon="4.5484">
        <ele>251.6</ele>
        <time>2021-10-24T10:16:20Z</time>
      </trkpt>
      <trkpt lat="44.23731" lon="4.54849">
        <ele>251.6</ele>
        <time>2021-10-24T10:16:21Z</time>
      </trkpt>
      <trkpt lat="44.2373" lon="4.54858">
        <ele>251.8</ele>
        <time>2021-10-24T10:16:22Z</time>
      </trkpt>
      <trkpt lat="44.23728" lon="4.54868">
        <ele>251.8</ele>
        <time>2021-10-24T10:16:23Z</time>
      </trkpt>
      <trkpt lat="44.23727" lon="4.54877">
        <ele>251.6</ele>
        <time>2021-10-24T10:16:24Z</time>
      </trkpt>
      <trkpt lat="44.23725" lon="4.54887">
        <ele>251.4</ele>
        <time>2021-10-24T10:16:25Z</time>
      </trkpt>
      <trkpt lat="44.23723" lon="4.54896">
        <ele>251.2</ele>
        <time>2021-10-24T10:16:26Z</time>
      </trkpt>
      <trkpt lat="44.2372" lon="4.54906">
        <ele>251.2</ele>
        <time>2021-10-24T10:16:27Z</time>
      </trkpt>
      <trkpt lat="44.23718" lon="4.54916">
        <ele>251.4</ele>
        <time>2021-10-24T10:16:28Z</time>
      </trkpt>
      <trkpt lat="44.23716" lon="4.54926">
        <ele>251.2</ele>
        <time>2021-10-24T10:16:29Z</time>
      </trkpt>
      <trkpt lat="44.23714" lon="4.54937">
        <ele>251</ele>
        <time>2021-10-24T10:16:30Z</time>
      </trkpt>
      <trkpt lat="44.23714" lon="4.54949">
        <ele>250.8</ele>
        <time>2021-10-24T10:16:31Z</time>
      </trkpt>
      <trkpt lat="44.23715" lon="4.54959">
        <ele>250.4</ele>
        <time>2021-10-24T10:16:32Z</time>
      </trkpt>
      <trkpt lat="44.23719" lon="4.54969">
        <ele>250</ele>
        <time>2021-10-24T10:16:33Z</time>
      </trkpt>
      <trkpt lat="44.23723" lon="4.54977">
        <ele>250</ele>
        <time>2021-10-24T10:16:34Z</time>
      </trkpt>
      <trkpt lat="44.23729" lon="4.54985">
        <ele>250</ele>
        <time>2021-10-24T10:16:35Z</time>
      </trkpt>
      <trkpt lat="44.23736" lon="4.54991">
        <ele>250</ele>
        <time>2021-10-24T10:16:36Z</time>
      </trkpt>
      <trkpt lat="44.23743" lon="4.54996">
        <ele>250</ele>
        <time>2021-10-24T10:16:37Z</time>
      </trkpt>
      <trkpt lat="44.23751" lon="4.55001">
        <ele>249.8</ele>
        <time>2021-10-24T10:16:38Z</time>
      </trkpt>
      <trkpt lat="44.23758" lon="4.55006">
        <ele>249.6</ele>
        <time>2021-10-24T10:16:39Z</time>
      </trkpt>
      <trkpt lat="44.23765" lon="4.55012">
        <ele>249.2</ele>
        <time>2021-10-24T10:16:40Z</time>
      </trkpt>
      <trkpt lat="44.23772" lon="4.55019">
        <ele>249.4</ele>
        <time>2021-10-24T10:16:41Z</time>
      </trkpt>
      <trkpt lat="44.23776" lon="4.55029">
        <ele>249</ele>
        <time>2021-10-24T10:16:42Z</time>
      </trkpt>
      <trkpt lat="44.23779" lon="4.55052">
        <ele>248.8</ele>
        <time>2021-10-24T10:16:44Z</time>
      </trkpt>
      <trkpt lat="44.23778" lon="4.55074">
        <ele>248.2</ele>
        <time>2021-10-24T10:16:46Z</time>
      </trkpt>
      <trkpt lat="44.23768" lon="4.55092">
        <ele>247.8</ele>
        <time>2021-10-24T10:16:48Z</time>
      </trkpt>
      <trkpt lat="44.23763" lon="4.55099">
        <ele>247.4</ele>
        <time>2021-10-24T10:16:49Z</time>
      </trkpt>
      <trkpt lat="44.23751" lon="4.55101">
        <ele>247</ele>
        <time>2021-10-24T10:16:51Z</time>
      </trkpt>
      <trkpt lat="44.23736" lon="4.55104">
        <ele>246.6</ele>
        <time>2021-10-24T10:16:53Z</time>
      </trkpt>
      <trkpt lat="44.23729" lon="4.55109">
        <ele>246.4</ele>
        <time>2021-10-24T10:16:54Z</time>
      </trkpt>
      <trkpt lat="44.23725" lon="4.55118">
        <ele>246.4</ele>
        <time>2021-10-24T10:16:55Z</time>
      </trkpt>
      <trkpt lat="44.23723" lon="4.5513">
        <ele>246</ele>
        <time>2021-10-24T10:16:56Z</time>
      </trkpt>
      <trkpt lat="44.23723" lon="4.55141">
        <ele>245.6</ele>
        <time>2021-10-24T10:16:57Z</time>
      </trkpt>
      <trkpt lat="44.23723" lon="4.55152">
        <ele>245.4</ele>
        <time>2021-10-24T10:16:58Z</time>
      </trkpt>
      <trkpt lat="44.23724" lon="4.55164">
        <ele>245.2</ele>
        <time>2021-10-24T10:16:59Z</time>
      </trkpt>
      <trkpt lat="44.23723" lon="4.55175">
        <ele>245.4</ele>
        <time>2021-10-24T10:17:00Z</time>
      </trkpt>
      <trkpt lat="44.23722" lon="4.55186">
        <ele>245.2</ele>
        <time>2021-10-24T10:17:01Z</time>
      </trkpt>
      <trkpt lat="44.23718" lon="4.55197">
        <ele>245.4</ele>
        <time>2021-10-24T10:17:02Z</time>
      </trkpt>
      <trkpt lat="44.23714" lon="4.55208">
        <ele>245.6</ele>
        <time>2021-10-24T10:17:03Z</time>
      </trkpt>
      <trkpt lat="44.2371" lon="4.55218">
        <ele>245.4</ele>
        <time>2021-10-24T10:17:04Z</time>
      </trkpt>
      <trkpt lat="44.23707" lon="4.55229">
        <ele>245.2</ele>
        <time>2021-10-24T10:17:05Z</time>
      </trkpt>
      <trkpt lat="44.23704" lon="4.55241">
        <ele>245</ele>
        <time>2021-10-24T10:17:06Z</time>
      </trkpt>
      <trkpt lat="44.23701" lon="4.55252">
        <ele>245.2</ele>
        <time>2021-10-24T10:17:07Z</time>
      </trkpt>
      <trkpt lat="44.23699" lon="4.55264">
        <ele>245</ele>
        <time>2021-10-24T10:17:08Z</time>
      </trkpt>
      <trkpt lat="44.23697" lon="4.55275">
        <ele>244.8</ele>
        <time>2021-10-24T10:17:09Z</time>
      </trkpt>
      <trkpt lat="44.23695" lon="4.55287">
        <ele>244.4</ele>
        <time>2021-10-24T10:17:10Z</time>
      </trkpt>
      <trkpt lat="44.23693" lon="4.55298">
        <ele>244.4</ele>
        <time>2021-10-24T10:17:11Z</time>
      </trkpt>
      <trkpt lat="44.23691" lon="4.55309">
        <ele>244.2</ele>
        <time>2021-10-24T10:17:12Z</time>
      </trkpt>
      <trkpt lat="44.23687" lon="4.5532">
        <ele>244.2</ele>
        <time>2021-10-24T10:17:13Z</time>
      </trkpt>
      <trkpt lat="44.23682" lon="4.5533">
        <ele>244</ele>
        <time>2021-10-24T10:17:14Z</time>
      </trkpt>
      <trkpt lat="44.23675" lon="4.55338">
        <ele>244.2</ele>
        <time>2021-10-24T10:17:15Z</time>
      </trkpt>
      <trkpt lat="44.23669" lon="4.55347">
        <ele>244</ele>
        <time>2021-10-24T10:17:16Z</time>
      </trkpt>
      <trkpt lat="44.23664" lon="4.55357">
        <ele>243.8</ele>
        <time>2021-10-24T10:17:17Z</time>
      </trkpt>
      <trkpt lat="44.2366" lon="4.55368">
        <ele>243.8</ele>
        <time>2021-10-24T10:17:18Z</time>
      </trkpt>
      <trkpt lat="44.23657" lon="4.5538">
        <ele>243.6</ele>
        <time>2021-10-24T10:17:19Z</time>
      </trkpt>
      <trkpt lat="44.23656" lon="4.55392">
        <ele>243.2</ele>
        <time>2021-10-24T10:17:20Z</time>
      </trkpt>
      <trkpt lat="44.23656" lon="4.55405">
        <ele>242.8</ele>
        <time>2021-10-24T10:17:21Z</time>
      </trkpt>
      <trkpt lat="44.23656" lon="4.55417">
        <ele>242.8</ele>
        <time>2021-10-24T10:17:22Z</time>
      </trkpt>
      <trkpt lat="44.23655" lon="4.5543">
        <ele>242.6</ele>
        <time>2021-10-24T10:17:23Z</time>
      </trkpt>
      <trkpt lat="44.23652" lon="4.55442">
        <ele>242.4</ele>
        <time>2021-10-24T10:17:24Z</time>
      </trkpt>
      <trkpt lat="44.23648" lon="4.55453">
        <ele>242.2</ele>
        <time>2021-10-24T10:17:25Z</time>
      </trkpt>
      <trkpt lat="44.23642" lon="4.55462">
        <ele>242</ele>
        <time>2021-10-24T10:17:26Z</time>
      </trkpt>
      <trkpt lat="44.23635" lon="4.55469">
        <ele>241.6</ele>
        <time>2021-10-24T10:17:27Z</time>
      </trkpt>
      <trkpt lat="44.23628" lon="4.55474">
        <ele>241.4</ele>
        <time>2021-10-24T10:17:28Z</time>
      </trkpt>
      <trkpt lat="44.23619" lon="4.55476">
        <ele>241</ele>
        <time>2021-10-24T10:17:29Z</time>
      </trkpt>
      <trkpt lat="44.23611" lon="4.55477">
        <ele>241</ele>
        <time>2021-10-24T10:17:30Z</time>
      </trkpt>
      <trkpt lat="44.23603" lon="4.55476">
        <ele>240.8</ele>
        <time>2021-10-24T10:17:31Z</time>
      </trkpt>
      <trkpt lat="44.23587" lon="4.55475">
        <ele>240.4</ele>
        <time>2021-10-24T10:17:33Z</time>
      </trkpt>
      <trkpt lat="44.2357" lon="4.55473">
        <ele>240.2</ele>
        <time>2021-10-24T10:17:35Z</time>
      </trkpt>
      <trkpt lat="44.23553" lon="4.55474">
        <ele>240.2</ele>
        <time>2021-10-24T10:17:37Z</time>
      </trkpt>
      <trkpt lat="44.23535" lon="4.55476">
        <ele>240.2</ele>
        <time>2021-10-24T10:17:39Z</time>
      </trkpt>
      <trkpt lat="44.23526" lon="4.55477">
        <ele>240.4</ele>
        <time>2021-10-24T10:17:40Z</time>
      </trkpt>
      <trkpt lat="44.23516" lon="4.55478">
        <ele>240</ele>
        <time>2021-10-24T10:17:41Z</time>
      </trkpt>
      <trkpt lat="44.23507" lon="4.55479">
        <ele>240.2</ele>
        <time>2021-10-24T10:17:42Z</time>
      </trkpt>
      <trkpt lat="44.23492" lon="4.55485">
        <ele>239.8</ele>
        <time>2021-10-24T10:17:44Z</time>
      </trkpt>
      <trkpt lat="44.23481" lon="4.555">
        <ele>239.4</ele>
        <time>2021-10-24T10:17:46Z</time>
      </trkpt>
      <trkpt lat="44.23479" lon="4.5552">
        <ele>239.2</ele>
        <time>2021-10-24T10:17:48Z</time>
      </trkpt>
      <trkpt lat="44.2349" lon="4.55536">
        <ele>239</ele>
        <time>2021-10-24T10:17:50Z</time>
      </trkpt>
      <trkpt lat="44.23497" lon="4.55541">
        <ele>239.2</ele>
        <time>2021-10-24T10:17:51Z</time>
      </trkpt>
      <trkpt lat="44.23505" lon="4.55546">
        <ele>239.2</ele>
        <time>2021-10-24T10:17:52Z</time>
      </trkpt>
      <trkpt lat="44.23512" lon="4.55549">
        <ele>239.4</ele>
        <time>2021-10-24T10:17:53Z</time>
      </trkpt>
      <trkpt lat="44.2352" lon="4.55553">
        <ele>239.6</ele>
        <time>2021-10-24T10:17:54Z</time>
      </trkpt>
      <trkpt lat="44.23527" lon="4.55557">
        <ele>239.8</ele>
        <time>2021-10-24T10:17:55Z</time>
      </trkpt>
      <trkpt lat="44.23534" lon="4.55562">
        <ele>239.8</ele>
        <time>2021-10-24T10:17:56Z</time>
      </trkpt>
      <trkpt lat="44.23542" lon="4.55567">
        <ele>239.8</ele>
        <time>2021-10-24T10:17:57Z</time>
      </trkpt>
      <trkpt lat="44.23549" lon="4.55573">
        <ele>239.8</ele>
        <time>2021-10-24T10:17:58Z</time>
      </trkpt>
      <trkpt lat="44.2356" lon="4.55591">
        <ele>239.4</ele>
        <time>2021-10-24T10:18:00Z</time>
      </trkpt>
      <trkpt lat="44.2357" lon="4.55611">
        <ele>238.8</ele>
        <time>2021-10-24T10:18:02Z</time>
      </trkpt>
      <trkpt lat="44.23579" lon="4.5563">
        <ele>239</ele>
        <time>2021-10-24T10:18:04Z</time>
      </trkpt>
      <trkpt lat="44.23587" lon="4.5565">
        <ele>238.8</ele>
        <time>2021-10-24T10:18:06Z</time>
      </trkpt>
      <trkpt lat="44.23595" lon="4.55669">
        <ele>238.8</ele>
        <time>2021-10-24T10:18:08Z</time>
      </trkpt>
      <trkpt lat="44.23599" lon="4.5568">
        <ele>238.6</ele>
        <time>2021-10-24T10:18:09Z</time>
      </trkpt>
      <trkpt lat="44.23603" lon="4.5569">
        <ele>238.8</ele>
        <time>2021-10-24T10:18:10Z</time>
      </trkpt>
      <trkpt lat="44.23606" lon="4.55701">
        <ele>238.8</ele>
        <time>2021-10-24T10:18:11Z</time>
      </trkpt>
      <trkpt lat="44.23608" lon="4.55712">
        <ele>238.6</ele>
        <time>2021-10-24T10:18:12Z</time>
      </trkpt>
      <trkpt lat="44.23608" lon="4.55722">
        <ele>238.4</ele>
        <time>2021-10-24T10:18:13Z</time>
      </trkpt>
      <trkpt lat="44.23607" lon="4.55732">
        <ele>238.2</ele>
        <time>2021-10-24T10:18:14Z</time>
      </trkpt>
      <trkpt lat="44.23604" lon="4.55741">
        <ele>238.4</ele>
        <time>2021-10-24T10:18:15Z</time>
      </trkpt>
      <trkpt lat="44.23601" lon="4.55748">
        <ele>238.4</ele>
        <time>2021-10-24T10:18:16Z</time>
      </trkpt>
      <trkpt lat="44.23596" lon="4.55756">
        <ele>238</ele>
        <time>2021-10-24T10:18:17Z</time>
      </trkpt>
      <trkpt lat="44.23591" lon="4.55765">
        <ele>238.2</ele>
        <time>2021-10-24T10:18:18Z</time>
      </trkpt>
      <trkpt lat="44.23586" lon="4.55774">
        <ele>238.2</ele>
        <time>2021-10-24T10:18:19Z</time>
      </trkpt>
      <trkpt lat="44.23583" lon="4.55784">
        <ele>238.4</ele>
        <time>2021-10-24T10:18:20Z</time>
      </trkpt>
      <trkpt lat="44.23582" lon="4.55795">
        <ele>238.4</ele>
        <time>2021-10-24T10:18:21Z</time>
      </trkpt>
      <trkpt lat="44.23584" lon="4.55805">
        <ele>238.4</ele>
        <time>2021-10-24T10:18:22Z</time>
      </trkpt>
      <trkpt lat="44.23587" lon="4.55812">
        <ele>238.4</ele>
        <time>2021-10-24T10:18:23Z</time>
      </trkpt>
      <trkpt lat="44.23593" lon="4.55818">
        <ele>238.2</ele>
        <time>2021-10-24T10:18:24Z</time>
      </trkpt>
      <trkpt lat="44.23599" lon="4.55824">
        <ele>238.2</ele>
        <time>2021-10-24T10:18:25Z</time>
      </trkpt>
      <trkpt lat="44.23606" lon="4.5583">
        <ele>238.2</ele>
        <time>2021-10-24T10:18:26Z</time>
      </trkpt>
      <trkpt lat="44.23612" lon="4.55835">
        <ele>238</ele>
        <time>2021-10-24T10:18:27Z</time>
      </trkpt>
      <trkpt lat="44.23618" lon="4.55841">
        <ele>238.4</ele>
        <time>2021-10-24T10:18:28Z</time>
      </trkpt>
      <trkpt lat="44.23624" lon="4.55848">
        <ele>238.2</ele>
        <time>2021-10-24T10:18:29Z</time>
      </trkpt>
      <trkpt lat="44.23629" lon="4.55855">
        <ele>238.4</ele>
        <time>2021-10-24T10:18:30Z</time>
      </trkpt>
      <trkpt lat="44.23638" lon="4.55875">
        <ele>238.6</ele>
        <time>2021-10-24T10:18:32Z</time>
      </trkpt>
      <trkpt lat="44.2364" lon="4.55886">
        <ele>238.4</ele>
        <time>2021-10-24T10:18:33Z</time>
      </trkpt>
      <trkpt lat="44.23642" lon="4.55898">
        <ele>238.2</ele>
        <time>2021-10-24T10:18:34Z</time>
      </trkpt>
      <trkpt lat="44.23644" lon="4.55909">
        <ele>238.2</ele>
        <time>2021-10-24T10:18:35Z</time>
      </trkpt>
      <trkpt lat="44.23646" lon="4.5592">
        <ele>238</ele>
        <time>2021-10-24T10:18:36Z</time>
      </trkpt>
      <trkpt lat="44.23648" lon="4.5593">
        <ele>238.2</ele>
        <time>2021-10-24T10:18:37Z</time>
      </trkpt>
      <trkpt lat="44.23651" lon="4.55941">
        <ele>238.4</ele>
        <time>2021-10-24T10:18:38Z</time>
      </trkpt>
      <trkpt lat="44.23653" lon="4.55951">
        <ele>238.4</ele>
        <time>2021-10-24T10:18:39Z</time>
      </trkpt>
      <trkpt lat="44.23656" lon="4.55961">
        <ele>238.4</ele>
        <time>2021-10-24T10:18:40Z</time>
      </trkpt>
      <trkpt lat="44.2366" lon="4.5597">
        <ele>238.6</ele>
        <time>2021-10-24T10:18:41Z</time>
      </trkpt>
      <trkpt lat="44.23666" lon="4.55978">
        <ele>238.4</ele>
        <time>2021-10-24T10:18:42Z</time>
      </trkpt>
      <trkpt lat="44.23672" lon="4.55985">
        <ele>238.6</ele>
        <time>2021-10-24T10:18:43Z</time>
      </trkpt>
      <trkpt lat="44.23679" lon="4.55989">
        <ele>238.6</ele>
        <time>2021-10-24T10:18:44Z</time>
      </trkpt>
      <trkpt lat="44.23686" lon="4.55991">
        <ele>238.4</ele>
        <time>2021-10-24T10:18:45Z</time>
      </trkpt>
      <trkpt lat="44.23694" lon="4.55992">
        <ele>238.2</ele>
        <time>2021-10-24T10:18:46Z</time>
      </trkpt>
      <trkpt lat="44.23701" lon="4.55996">
        <ele>238.4</ele>
        <time>2021-10-24T10:18:47Z</time>
      </trkpt>
      <trkpt lat="44.23708" lon="4.56002">
        <ele>238.4</ele>
        <time>2021-10-24T10:18:48Z</time>
      </trkpt>
      <trkpt lat="44.23714" lon="4.56011">
        <ele>238.6</ele>
        <time>2021-10-24T10:18:49Z</time>
      </trkpt>
      <trkpt lat="44.23718" lon="4.5602">
        <ele>238.6</ele>
        <time>2021-10-24T10:18:50Z</time>
      </trkpt>
      <trkpt lat="44.23721" lon="4.5603">
        <ele>238.8</ele>
        <time>2021-10-24T10:18:51Z</time>
      </trkpt>
      <trkpt lat="44.23722" lon="4.56041">
        <ele>238.8</ele>
        <time>2021-10-24T10:18:52Z</time>
      </trkpt>
      <trkpt lat="44.23724" lon="4.56052">
        <ele>239</ele>
        <time>2021-10-24T10:18:53Z</time>
      </trkpt>
      <trkpt lat="44.23728" lon="4.56062">
        <ele>239</ele>
        <time>2021-10-24T10:18:54Z</time>
      </trkpt>
      <trkpt lat="44.23732" lon="4.5607">
        <ele>238.8</ele>
        <time>2021-10-24T10:18:55Z</time>
      </trkpt>
      <trkpt lat="44.23738" lon="4.56076">
        <ele>238.6</ele>
        <time>2021-10-24T10:18:56Z</time>
      </trkpt>
      <trkpt lat="44.23744" lon="4.5608">
        <ele>238.8</ele>
        <time>2021-10-24T10:18:57Z</time>
      </trkpt>
      <trkpt lat="44.23751" lon="4.56083">
        <ele>238.8</ele>
        <time>2021-10-24T10:18:58Z</time>
      </trkpt>
      <trkpt lat="44.23759" lon="4.56086">
        <ele>238.6</ele>
        <time>2021-10-24T10:18:59Z</time>
      </trkpt>
      <trkpt lat="44.23767" lon="4.56087">
        <ele>238.6</ele>
        <time>2021-10-24T10:19:00Z</time>
      </trkpt>
      <trkpt lat="44.23775" lon="4.5609">
        <ele>238.6</ele>
        <time>2021-10-24T10:19:01Z</time>
      </trkpt>
      <trkpt lat="44.23783" lon="4.56092">
        <ele>238.4</ele>
        <time>2021-10-24T10:19:02Z</time>
      </trkpt>
      <trkpt lat="44.2379" lon="4.56096">
        <ele>238.2</ele>
        <time>2021-10-24T10:19:03Z</time>
      </trkpt>
      <trkpt lat="44.23798" lon="4.56101">
        <ele>238.4</ele>
        <time>2021-10-24T10:19:04Z</time>
      </trkpt>
      <trkpt lat="44.23805" lon="4.56106">
        <ele>238</ele>
        <time>2021-10-24T10:19:05Z</time>
      </trkpt>
      <trkpt lat="44.23812" lon="4.56112">
        <ele>238.2</ele>
        <time>2021-10-24T10:19:06Z</time>
      </trkpt>
      <trkpt lat="44.23819" lon="4.56119">
        <ele>238.2</ele>
        <time>2021-10-24T10:19:07Z</time>
      </trkpt>
      <trkpt lat="44.23826" lon="4.56125">
        <ele>238.2</ele>
        <time>2021-10-24T10:19:08Z</time>
      </trkpt>
      <trkpt lat="44.23833" lon="4.56132">
        <ele>238.2</ele>
        <time>2021-10-24T10:19:09Z</time>
      </trkpt>
      <trkpt lat="44.2384" lon="4.56138">
        <ele>238.2</ele>
        <time>2021-10-24T10:19:10Z</time>
      </trkpt>
      <trkpt lat="44.23847" lon="4.56144">
        <ele>238.4</ele>
        <time>2021-10-24T10:19:11Z</time>
      </trkpt>
      <trkpt lat="44.23855" lon="4.56149">
        <ele>238.2</ele>
        <time>2021-10-24T10:19:12Z</time>
      </trkpt>
      <trkpt lat="44.23863" lon="4.56155">
        <ele>238.2</ele>
        <time>2021-10-24T10:19:13Z</time>
      </trkpt>
      <trkpt lat="44.23871" lon="4.5616">
        <ele>238</ele>
        <time>2021-10-24T10:19:14Z</time>
      </trkpt>
      <trkpt lat="44.23879" lon="4.56165">
        <ele>237.6</ele>
        <time>2021-10-24T10:19:15Z</time>
      </trkpt>
      <trkpt lat="44.23887" lon="4.5617">
        <ele>237.6</ele>
        <time>2021-10-24T10:19:16Z</time>
      </trkpt>
      <trkpt lat="44.23895" lon="4.56175">
        <ele>237.6</ele>
        <time>2021-10-24T10:19:17Z</time>
      </trkpt>
      <trkpt lat="44.23904" lon="4.5618">
        <ele>237.2</ele>
        <time>2021-10-24T10:19:18Z</time>
      </trkpt>
      <trkpt lat="44.23912" lon="4.56186">
        <ele>237.4</ele>
        <time>2021-10-24T10:19:19Z</time>
      </trkpt>
      <trkpt lat="44.2392" lon="4.56191">
        <ele>237.2</ele>
        <time>2021-10-24T10:19:20Z</time>
      </trkpt>
      <trkpt lat="44.23928" lon="4.56196">
        <ele>237</ele>
        <time>2021-10-24T10:19:21Z</time>
      </trkpt>
      <trkpt lat="44.23936" lon="4.562">
        <ele>237</ele>
        <time>2021-10-24T10:19:22Z</time>
      </trkpt>
      <trkpt lat="44.23944" lon="4.56205">
        <ele>236.8</ele>
        <time>2021-10-24T10:19:23Z</time>
      </trkpt>
      <trkpt lat="44.23952" lon="4.5621">
        <ele>237</ele>
        <time>2021-10-24T10:19:24Z</time>
      </trkpt>
      <trkpt lat="44.2396" lon="4.56215">
        <ele>236.6</ele>
        <time>2021-10-24T10:19:25Z</time>
      </trkpt>
      <trkpt lat="44.23968" lon="4.5622">
        <ele>236.4</ele>
        <time>2021-10-24T10:19:26Z</time>
      </trkpt>
      <trkpt lat="44.23976" lon="4.56226">
        <ele>235.8</ele>
        <time>2021-10-24T10:19:27Z</time>
      </trkpt>
      <trkpt lat="44.23983" lon="4.56233">
        <ele>235.8</ele>
        <time>2021-10-24T10:19:28Z</time>
      </trkpt>
      <trkpt lat="44.23991" lon="4.5624">
        <ele>235.8</ele>
        <time>2021-10-24T10:19:29Z</time>
      </trkpt>
      <trkpt lat="44.23998" lon="4.56248">
        <ele>236</ele>
        <time>2021-10-24T10:19:30Z</time>
      </trkpt>
      <trkpt lat="44.24005" lon="4.56256">
        <ele>236</ele>
        <time>2021-10-24T10:19:31Z</time>
      </trkpt>
      <trkpt lat="44.24011" lon="4.56265">
        <ele>235.8</ele>
        <time>2021-10-24T10:19:32Z</time>
      </trkpt>
      <trkpt lat="44.24018" lon="4.56273">
        <ele>235.8</ele>
        <time>2021-10-24T10:19:33Z</time>
      </trkpt>
      <trkpt lat="44.24025" lon="4.56282">
        <ele>235.8</ele>
        <time>2021-10-24T10:19:34Z</time>
      </trkpt>
      <trkpt lat="44.24032" lon="4.56291">
        <ele>235.6</ele>
        <time>2021-10-24T10:19:35Z</time>
      </trkpt>
      <trkpt lat="44.24039" lon="4.563">
        <ele>235.2</ele>
        <time>2021-10-24T10:19:36Z</time>
      </trkpt>
      <trkpt lat="44.24046" lon="4.56309">
        <ele>235</ele>
        <time>2021-10-24T10:19:37Z</time>
      </trkpt>
      <trkpt lat="44.24053" lon="4.56318">
        <ele>234.8</ele>
        <time>2021-10-24T10:19:38Z</time>
      </trkpt>
      <trkpt lat="44.24059" lon="4.56327">
        <ele>234.4</ele>
        <time>2021-10-24T10:19:39Z</time>
      </trkpt>
      <trkpt lat="44.24066" lon="4.56336">
        <ele>234.4</ele>
        <time>2021-10-24T10:19:40Z</time>
      </trkpt>
      <trkpt lat="44.24072" lon="4.56345">
        <ele>234</ele>
        <time>2021-10-24T10:19:41Z</time>
      </trkpt>
      <trkpt lat="44.24077" lon="4.56355">
        <ele>234</ele>
        <time>2021-10-24T10:19:42Z</time>
      </trkpt>
      <trkpt lat="44.24082" lon="4.56365">
        <ele>233.6</ele>
        <time>2021-10-24T10:19:43Z</time>
      </trkpt>
      <trkpt lat="44.24087" lon="4.56376">
        <ele>233.4</ele>
        <time>2021-10-24T10:19:44Z</time>
      </trkpt>
      <trkpt lat="44.24091" lon="4.56389">
        <ele>233.2</ele>
        <time>2021-10-24T10:19:45Z</time>
      </trkpt>
      <trkpt lat="44.24093" lon="4.56402">
        <ele>232.8</ele>
        <time>2021-10-24T10:19:46Z</time>
      </trkpt>
      <trkpt lat="44.24093" lon="4.56416">
        <ele>232.6</ele>
        <time>2021-10-24T10:19:47Z</time>
      </trkpt>
      <trkpt lat="44.2409" lon="4.56429">
        <ele>232.2</ele>
        <time>2021-10-24T10:19:48Z</time>
      </trkpt>
      <trkpt lat="44.24085" lon="4.56442">
        <ele>232</ele>
        <time>2021-10-24T10:19:49Z</time>
      </trkpt>
      <trkpt lat="44.24077" lon="4.56454">
        <ele>231.2</ele>
        <time>2021-10-24T10:19:50Z</time>
      </trkpt>
      <trkpt lat="44.24069" lon="4.56464">
        <ele>230.4</ele>
        <time>2021-10-24T10:19:51Z</time>
      </trkpt>
      <trkpt lat="44.24061" lon="4.56474">
        <ele>230</ele>
        <time>2021-10-24T10:19:52Z</time>
      </trkpt>
      <trkpt lat="44.24052" lon="4.56484">
        <ele>229.4</ele>
        <time>2021-10-24T10:19:53Z</time>
      </trkpt>
      <trkpt lat="44.24044" lon="4.56493">
        <ele>228.6</ele>
        <time>2021-10-24T10:19:54Z</time>
      </trkpt>
      <trkpt lat="44.24035" lon="4.56502">
        <ele>228.6</ele>
        <time>2021-10-24T10:19:55Z</time>
      </trkpt>
      <trkpt lat="44.24025" lon="4.56509">
        <ele>228.8</ele>
        <time>2021-10-24T10:19:56Z</time>
      </trkpt>
      <trkpt lat="44.24015" lon="4.56515">
        <ele>228.6</ele>
        <time>2021-10-24T10:19:57Z</time>
      </trkpt>
      <trkpt lat="44.24004" lon="4.5652">
        <ele>228.2</ele>
        <time>2021-10-24T10:19:58Z</time>
      </trkpt>
      <trkpt lat="44.23993" lon="4.56524">
        <ele>227.8</ele>
        <time>2021-10-24T10:19:59Z</time>
      </trkpt>
      <trkpt lat="44.23981" lon="4.56527">
        <ele>227.4</ele>
        <time>2021-10-24T10:20:00Z</time>
      </trkpt>
      <trkpt lat="44.2397" lon="4.56529">
        <ele>226.8</ele>
        <time>2021-10-24T10:20:01Z</time>
      </trkpt>
      <trkpt lat="44.23959" lon="4.5653">
        <ele>225.8</ele>
        <time>2021-10-24T10:20:02Z</time>
      </trkpt>
      <trkpt lat="44.23947" lon="4.5653">
        <ele>225.4</ele>
        <time>2021-10-24T10:20:03Z</time>
      </trkpt>
      <trkpt lat="44.23935" lon="4.5653">
        <ele>225.2</ele>
        <time>2021-10-24T10:20:04Z</time>
      </trkpt>
      <trkpt lat="44.23923" lon="4.56529">
        <ele>224.6</ele>
        <time>2021-10-24T10:20:05Z</time>
      </trkpt>
      <trkpt lat="44.23911" lon="4.56527">
        <ele>224.2</ele>
        <time>2021-10-24T10:20:06Z</time>
      </trkpt>
      <trkpt lat="44.23899" lon="4.56526">
        <ele>223.6</ele>
        <time>2021-10-24T10:20:07Z</time>
      </trkpt>
      <trkpt lat="44.23887" lon="4.56525">
        <ele>223</ele>
        <time>2021-10-24T10:20:08Z</time>
      </trkpt>
      <trkpt lat="44.23874" lon="4.56524">
        <ele>222.4</ele>
        <time>2021-10-24T10:20:09Z</time>
      </trkpt>
      <trkpt lat="44.23862" lon="4.56525">
        <ele>221.6</ele>
        <time>2021-10-24T10:20:10Z</time>
      </trkpt>
      <trkpt lat="44.2385" lon="4.56527">
        <ele>221.2</ele>
        <time>2021-10-24T10:20:11Z</time>
      </trkpt>
      <trkpt lat="44.23839" lon="4.56529">
        <ele>220.8</ele>
        <time>2021-10-24T10:20:12Z</time>
      </trkpt>
      <trkpt lat="44.23827" lon="4.5653">
        <ele>220</ele>
        <time>2021-10-24T10:20:13Z</time>
      </trkpt>
      <trkpt lat="44.23815" lon="4.56529">
        <ele>219.6</ele>
        <time>2021-10-24T10:20:14Z</time>
      </trkpt>
      <trkpt lat="44.23803" lon="4.56527">
        <ele>218.8</ele>
        <time>2021-10-24T10:20:15Z</time>
      </trkpt>
      <trkpt lat="44.23792" lon="4.56522">
        <ele>218</ele>
        <time>2021-10-24T10:20:16Z</time>
      </trkpt>
      <trkpt lat="44.23781" lon="4.56516">
        <ele>217.2</ele>
        <time>2021-10-24T10:20:17Z</time>
      </trkpt>
      <trkpt lat="44.2377" lon="4.5651">
        <ele>216.6</ele>
        <time>2021-10-24T10:20:18Z</time>
      </trkpt>
      <trkpt lat="44.2376" lon="4.56503">
        <ele>216</ele>
        <time>2021-10-24T10:20:19Z</time>
      </trkpt>
      <trkpt lat="44.23749" lon="4.56497">
        <ele>215.2</ele>
        <time>2021-10-24T10:20:20Z</time>
      </trkpt>
      <trkpt lat="44.23738" lon="4.56493">
        <ele>214.8</ele>
        <time>2021-10-24T10:20:21Z</time>
      </trkpt>
      <trkpt lat="44.23727" lon="4.56491">
        <ele>213.8</ele>
        <time>2021-10-24T10:20:22Z</time>
      </trkpt>
      <trkpt lat="44.23714" lon="4.56494">
        <ele>213</ele>
        <time>2021-10-24T10:20:23Z</time>
      </trkpt>
      <trkpt lat="44.23703" lon="4.565">
        <ele>212.2</ele>
        <time>2021-10-24T10:20:24Z</time>
      </trkpt>
      <trkpt lat="44.23692" lon="4.56508">
        <ele>211.4</ele>
        <time>2021-10-24T10:20:25Z</time>
      </trkpt>
      <trkpt lat="44.23683" lon="4.56518">
        <ele>210.4</ele>
        <time>2021-10-24T10:20:26Z</time>
      </trkpt>
      <trkpt lat="44.23674" lon="4.56529">
        <ele>209.8</ele>
        <time>2021-10-24T10:20:27Z</time>
      </trkpt>
      <trkpt lat="44.23664" lon="4.56541">
        <ele>209.2</ele>
        <time>2021-10-24T10:20:28Z</time>
      </trkpt>
      <trkpt lat="44.23655" lon="4.56552">
        <ele>208.8</ele>
        <time>2021-10-24T10:20:29Z</time>
      </trkpt>
      <trkpt lat="44.23646" lon="4.56563">
        <ele>208.2</ele>
        <time>2021-10-24T10:20:30Z</time>
      </trkpt>
      <trkpt lat="44.23637" lon="4.56574">
        <ele>208</ele>
        <time>2021-10-24T10:20:31Z</time>
      </trkpt>
      <trkpt lat="44.23627" lon="4.56584">
        <ele>207.6</ele>
        <time>2021-10-24T10:20:32Z</time>
      </trkpt>
      <trkpt lat="44.23618" lon="4.56595">
        <ele>207.2</ele>
        <time>2021-10-24T10:20:33Z</time>
      </trkpt>
      <trkpt lat="44.23609" lon="4.56606">
        <ele>206.4</ele>
        <time>2021-10-24T10:20:34Z</time>
      </trkpt>
      <trkpt lat="44.236" lon="4.56616">
        <ele>205.6</ele>
        <time>2021-10-24T10:20:35Z</time>
      </trkpt>
      <trkpt lat="44.23591" lon="4.56626">
        <ele>204.4</ele>
        <time>2021-10-24T10:20:36Z</time>
      </trkpt>
      <trkpt lat="44.23584" lon="4.56637">
        <ele>203.6</ele>
        <time>2021-10-24T10:20:37Z</time>
      </trkpt>
      <trkpt lat="44.23579" lon="4.5665">
        <ele>203</ele>
        <time>2021-10-24T10:20:38Z</time>
      </trkpt>
      <trkpt lat="44.23577" lon="4.56663">
        <ele>202</ele>
        <time>2021-10-24T10:20:39Z</time>
      </trkpt>
      <trkpt lat="44.23578" lon="4.56677">
        <ele>201</ele>
        <time>2021-10-24T10:20:40Z</time>
      </trkpt>
      <trkpt lat="44.23583" lon="4.56689">
        <ele>199.6</ele>
        <time>2021-10-24T10:20:41Z</time>
      </trkpt>
      <trkpt lat="44.2359" lon="4.567">
        <ele>198.8</ele>
        <time>2021-10-24T10:20:42Z</time>
      </trkpt>
      <trkpt lat="44.23599" lon="4.56709">
        <ele>198.2</ele>
        <time>2021-10-24T10:20:43Z</time>
      </trkpt>
      <trkpt lat="44.23609" lon="4.56717">
        <ele>197.6</ele>
        <time>2021-10-24T10:20:44Z</time>
      </trkpt>
      <trkpt lat="44.23619" lon="4.56724">
        <ele>196.8</ele>
        <time>2021-10-24T10:20:45Z</time>
      </trkpt>
      <trkpt lat="44.23628" lon="4.56731">
        <ele>196.4</ele>
        <time>2021-10-24T10:20:46Z</time>
      </trkpt>
      <trkpt lat="44.23638" lon="4.56737">
        <ele>196</ele>
        <time>2021-10-24T10:20:47Z</time>
      </trkpt>
      <trkpt lat="44.23648" lon="4.56743">
        <ele>195.8</ele>
        <time>2021-10-24T10:20:48Z</time>
      </trkpt>
      <trkpt lat="44.23658" lon="4.5675">
        <ele>195.6</ele>
        <time>2021-10-24T10:20:49Z</time>
      </trkpt>
      <trkpt lat="44.23668" lon="4.56758">
        <ele>195.2</ele>
        <time>2021-10-24T10:20:50Z</time>
      </trkpt>
      <trkpt lat="44.23677" lon="4.56767">
        <ele>194.8</ele>
        <time>2021-10-24T10:20:51Z</time>
      </trkpt>
      <trkpt lat="44.23686" lon="4.56777">
        <ele>194.8</ele>
        <time>2021-10-24T10:20:52Z</time>
      </trkpt>
      <trkpt lat="44.23694" lon="4.56787">
        <ele>194.6</ele>
        <time>2021-10-24T10:20:53Z</time>
      </trkpt>
      <trkpt lat="44.23702" lon="4.56797">
        <ele>194.2</ele>
        <time>2021-10-24T10:20:54Z</time>
      </trkpt>
      <trkpt lat="44.2371" lon="4.56808">
        <ele>193.6</ele>
        <time>2021-10-24T10:20:55Z</time>
      </trkpt>
      <trkpt lat="44.23717" lon="4.56818">
        <ele>193</ele>
        <time>2021-10-24T10:20:56Z</time>
      </trkpt>
      <trkpt lat="44.23725" lon="4.56828">
        <ele>192.6</ele>
        <time>2021-10-24T10:20:57Z</time>
      </trkpt>
      <trkpt lat="44.23733" lon="4.56838">
        <ele>192.2</ele>
        <time>2021-10-24T10:20:58Z</time>
      </trkpt>
      <trkpt lat="44.23741" lon="4.56848">
        <ele>191.6</ele>
        <time>2021-10-24T10:20:59Z</time>
      </trkpt>
      <trkpt lat="44.2375" lon="4.56858">
        <ele>191.2</ele>
        <time>2021-10-24T10:21:00Z</time>
      </trkpt>
      <trkpt lat="44.23757" lon="4.56867">
        <ele>191.2</ele>
        <time>2021-10-24T10:21:01Z</time>
      </trkpt>
      <trkpt lat="44.23765" lon="4.56877">
        <ele>190.6</ele>
        <time>2021-10-24T10:21:02Z</time>
      </trkpt>
      <trkpt lat="44.23773" lon="4.56888">
        <ele>190</ele>
        <time>2021-10-24T10:21:03Z</time>
      </trkpt>
      <trkpt lat="44.2378" lon="4.56899">
        <ele>189.6</ele>
        <time>2021-10-24T10:21:04Z</time>
      </trkpt>
      <trkpt lat="44.23786" lon="4.56909">
        <ele>189.2</ele>
        <time>2021-10-24T10:21:05Z</time>
      </trkpt>
      <trkpt lat="44.23793" lon="4.5692">
        <ele>188.4</ele>
        <time>2021-10-24T10:21:06Z</time>
      </trkpt>
      <trkpt lat="44.238" lon="4.5693">
        <ele>188.4</ele>
        <time>2021-10-24T10:21:07Z</time>
      </trkpt>
      <trkpt lat="44.23808" lon="4.56941">
        <ele>187.8</ele>
        <time>2021-10-24T10:21:08Z</time>
      </trkpt>
      <trkpt lat="44.23817" lon="4.56951">
        <ele>187.2</ele>
        <time>2021-10-24T10:21:09Z</time>
      </trkpt>
      <trkpt lat="44.23825" lon="4.56961">
        <ele>187.2</ele>
        <time>2021-10-24T10:21:10Z</time>
      </trkpt>
      <trkpt lat="44.23833" lon="4.56971">
        <ele>186.8</ele>
        <time>2021-10-24T10:21:11Z</time>
      </trkpt>
      <trkpt lat="44.23842" lon="4.56981">
        <ele>186.4</ele>
        <time>2021-10-24T10:21:12Z</time>
      </trkpt>
      <trkpt lat="44.2385" lon="4.5699">
        <ele>186.2</ele>
        <time>2021-10-24T10:21:13Z</time>
      </trkpt>
      <trkpt lat="44.23859" lon="4.56998">
        <ele>186.2</ele>
        <time>2021-10-24T10:21:14Z</time>
      </trkpt>
      <trkpt lat="44.23868" lon="4.57006">
        <ele>185.8</ele>
        <time>2021-10-24T10:21:15Z</time>
      </trkpt>
      <trkpt lat="44.23876" lon="4.57014">
        <ele>185.8</ele>
        <time>2021-10-24T10:21:16Z</time>
      </trkpt>
      <trkpt lat="44.23885" lon="4.57021">
        <ele>185.2</ele>
        <time>2021-10-24T10:21:17Z</time>
      </trkpt>
      <trkpt lat="44.23893" lon="4.57028">
        <ele>184.8</ele>
        <time>2021-10-24T10:21:18Z</time>
      </trkpt>
      <trkpt lat="44.23902" lon="4.57035">
        <ele>184</ele>
        <time>2021-10-24T10:21:19Z</time>
      </trkpt>
      <trkpt lat="44.23911" lon="4.57041">
        <ele>183.6</ele>
        <time>2021-10-24T10:21:20Z</time>
      </trkpt>
      <trkpt lat="44.2392" lon="4.57048">
        <ele>183.4</ele>
        <time>2021-10-24T10:21:21Z</time>
      </trkpt>
      <trkpt lat="44.2393" lon="4.57055">
        <ele>183.4</ele>
        <time>2021-10-24T10:21:22Z</time>
      </trkpt>
      <trkpt lat="44.23939" lon="4.57062">
        <ele>183.2</ele>
        <time>2021-10-24T10:21:23Z</time>
      </trkpt>
      <trkpt lat="44.23948" lon="4.57069">
        <ele>183</ele>
        <time>2021-10-24T10:21:24Z</time>
      </trkpt>
      <trkpt lat="44.23957" lon="4.57076">
        <ele>182.6</ele>
        <time>2021-10-24T10:21:25Z</time>
      </trkpt>
      <trkpt lat="44.23967" lon="4.57083">
        <ele>182.6</ele>
        <time>2021-10-24T10:21:26Z</time>
      </trkpt>
      <trkpt lat="44.23976" lon="4.5709">
        <ele>182</ele>
        <time>2021-10-24T10:21:27Z</time>
      </trkpt>
      <trkpt lat="44.23984" lon="4.57097">
        <ele>182</ele>
        <time>2021-10-24T10:21:28Z</time>
      </trkpt>
      <trkpt lat="44.23993" lon="4.57104">
        <ele>182</ele>
        <time>2021-10-24T10:21:29Z</time>
      </trkpt>
      <trkpt lat="44.24002" lon="4.5711">
        <ele>182.2</ele>
        <time>2021-10-24T10:21:30Z</time>
      </trkpt>
      <trkpt lat="44.2401" lon="4.57117">
        <ele>182</ele>
        <time>2021-10-24T10:21:31Z</time>
      </trkpt>
      <trkpt lat="44.24019" lon="4.57123">
        <ele>181.8</ele>
        <time>2021-10-24T10:21:32Z</time>
      </trkpt>
      <trkpt lat="44.24027" lon="4.5713">
        <ele>181.6</ele>
        <time>2021-10-24T10:21:33Z</time>
      </trkpt>
      <trkpt lat="44.24035" lon="4.57138">
        <ele>181.4</ele>
        <time>2021-10-24T10:21:34Z</time>
      </trkpt>
      <trkpt lat="44.24043" lon="4.57145">
        <ele>181.2</ele>
        <time>2021-10-24T10:21:35Z</time>
      </trkpt>
      <trkpt lat="44.24051" lon="4.57154">
        <ele>181.2</ele>
        <time>2021-10-24T10:21:36Z</time>
      </trkpt>
      <trkpt lat="44.24058" lon="4.57163">
        <ele>180.8</ele>
        <time>2021-10-24T10:21:37Z</time>
      </trkpt>
      <trkpt lat="44.24064" lon="4.57173">
        <ele>180.6</ele>
        <time>2021-10-24T10:21:38Z</time>
      </trkpt>
      <trkpt lat="44.2407" lon="4.57183">
        <ele>180.6</ele>
        <time>2021-10-24T10:21:39Z</time>
      </trkpt>
      <trkpt lat="44.24075" lon="4.57194">
        <ele>180.4</ele>
        <time>2021-10-24T10:21:40Z</time>
      </trkpt>
      <trkpt lat="44.2408" lon="4.57205">
        <ele>180.2</ele>
        <time>2021-10-24T10:21:41Z</time>
      </trkpt>
      <trkpt lat="44.24083" lon="4.57217">
        <ele>179.8</ele>
        <time>2021-10-24T10:21:42Z</time>
      </trkpt>
      <trkpt lat="44.24086" lon="4.5723">
        <ele>179.6</ele>
        <time>2021-10-24T10:21:43Z</time>
      </trkpt>
      <trkpt lat="44.24087" lon="4.57242">
        <ele>179.6</ele>
        <time>2021-10-24T10:21:44Z</time>
      </trkpt>
      <trkpt lat="44.24087" lon="4.57256">
        <ele>179.4</ele>
        <time>2021-10-24T10:21:45Z</time>
      </trkpt>
      <trkpt lat="44.24087" lon="4.57269">
        <ele>179.6</ele>
        <time>2021-10-24T10:21:46Z</time>
      </trkpt>
      <trkpt lat="44.24087" lon="4.57283">
        <ele>179.4</ele>
        <time>2021-10-24T10:21:47Z</time>
      </trkpt>
      <trkpt lat="44.24089" lon="4.57297">
        <ele>179.4</ele>
        <time>2021-10-24T10:21:48Z</time>
      </trkpt>
      <trkpt lat="44.24091" lon="4.5731">
        <ele>179</ele>
        <time>2021-10-24T10:21:49Z</time>
      </trkpt>
      <trkpt lat="44.24095" lon="4.57324">
        <ele>178.6</ele>
        <time>2021-10-24T10:21:50Z</time>
      </trkpt>
      <trkpt lat="44.241" lon="4.57337">
        <ele>178.4</ele>
        <time>2021-10-24T10:21:51Z</time>
      </trkpt>
      <trkpt lat="44.24107" lon="4.5735">
        <ele>177.8</ele>
        <time>2021-10-24T10:21:52Z</time>
      </trkpt>
      <trkpt lat="44.24114" lon="4.57363">
        <ele>177.4</ele>
        <time>2021-10-24T10:21:53Z</time>
      </trkpt>
      <trkpt lat="44.24121" lon="4.57375">
        <ele>177</ele>
        <time>2021-10-24T10:21:54Z</time>
      </trkpt>
      <trkpt lat="44.24129" lon="4.57387">
        <ele>176.2</ele>
        <time>2021-10-24T10:21:55Z</time>
      </trkpt>
      <trkpt lat="44.24137" lon="4.57399">
        <ele>175.4</ele>
        <time>2021-10-24T10:21:56Z</time>
      </trkpt>
      <trkpt lat="44.24146" lon="4.57411">
        <ele>174.8</ele>
        <time>2021-10-24T10:21:57Z</time>
      </trkpt>
      <trkpt lat="44.24156" lon="4.57422">
        <ele>174.4</ele>
        <time>2021-10-24T10:21:58Z</time>
      </trkpt>
      <trkpt lat="44.24165" lon="4.57434">
        <ele>173.4</ele>
        <time>2021-10-24T10:21:59Z</time>
      </trkpt>
      <trkpt lat="44.24174" lon="4.57445">
        <ele>173.2</ele>
        <time>2021-10-24T10:22:00Z</time>
      </trkpt>
      <trkpt lat="44.24183" lon="4.57457">
        <ele>172.2</ele>
        <time>2021-10-24T10:22:01Z</time>
      </trkpt>
      <trkpt lat="44.24193" lon="4.57467">
        <ele>171.4</ele>
        <time>2021-10-24T10:22:02Z</time>
      </trkpt>
      <trkpt lat="44.24204" lon="4.57476">
        <ele>170.6</ele>
        <time>2021-10-24T10:22:03Z</time>
      </trkpt>
      <trkpt lat="44.24215" lon="4.57484">
        <ele>170</ele>
        <time>2021-10-24T10:22:04Z</time>
      </trkpt>
      <trkpt lat="44.24227" lon="4.5749">
        <ele>169.2</ele>
        <time>2021-10-24T10:22:05Z</time>
      </trkpt>
      <trkpt lat="44.24239" lon="4.57497">
        <ele>168.4</ele>
        <time>2021-10-24T10:22:06Z</time>
      </trkpt>
      <trkpt lat="44.2425" lon="4.57503">
        <ele>167.8</ele>
        <time>2021-10-24T10:22:07Z</time>
      </trkpt>
      <trkpt lat="44.24262" lon="4.57509">
        <ele>167.6</ele>
        <time>2021-10-24T10:22:08Z</time>
      </trkpt>
      <trkpt lat="44.24274" lon="4.57516">
        <ele>166.8</ele>
        <time>2021-10-24T10:22:09Z</time>
      </trkpt>
      <trkpt lat="44.24286" lon="4.57522">
        <ele>166</ele>
        <time>2021-10-24T10:22:10Z</time>
      </trkpt>
      <trkpt lat="44.24298" lon="4.57529">
        <ele>165.2</ele>
        <time>2021-10-24T10:22:11Z</time>
      </trkpt>
      <trkpt lat="44.2431" lon="4.57535">
        <ele>164.8</ele>
        <time>2021-10-24T10:22:12Z</time>
      </trkpt>
      <trkpt lat="44.24322" lon="4.57542">
        <ele>164</ele>
        <time>2021-10-24T10:22:13Z</time>
      </trkpt>
      <trkpt lat="44.24334" lon="4.57548">
        <ele>163.4</ele>
        <time>2021-10-24T10:22:14Z</time>
      </trkpt>
      <trkpt lat="44.24347" lon="4.57554">
        <ele>162.6</ele>
        <time>2021-10-24T10:22:15Z</time>
      </trkpt>
      <trkpt lat="44.24359" lon="4.57558">
        <ele>161.4</ele>
        <time>2021-10-24T10:22:16Z</time>
      </trkpt>
      <trkpt lat="44.24372" lon="4.57562">
        <ele>160.6</ele>
        <time>2021-10-24T10:22:17Z</time>
      </trkpt>
      <trkpt lat="44.24384" lon="4.57564">
        <ele>159.6</ele>
        <time>2021-10-24T10:22:18Z</time>
      </trkpt>
      <trkpt lat="44.24397" lon="4.57566">
        <ele>158.8</ele>
        <time>2021-10-24T10:22:19Z</time>
      </trkpt>
      <trkpt lat="44.24411" lon="4.57567">
        <ele>157.6</ele>
        <time>2021-10-24T10:22:20Z</time>
      </trkpt>
      <trkpt lat="44.24425" lon="4.57567">
        <ele>156.8</ele>
        <time>2021-10-24T10:22:21Z</time>
      </trkpt>
      <trkpt lat="44.24438" lon="4.57568">
        <ele>156</ele>
        <time>2021-10-24T10:22:22Z</time>
      </trkpt>
      <trkpt lat="44.24452" lon="4.57569">
        <ele>155.4</ele>
        <time>2021-10-24T10:22:23Z</time>
      </trkpt>
      <trkpt lat="44.24466" lon="4.57569">
        <ele>154.2</ele>
        <time>2021-10-24T10:22:24Z</time>
      </trkpt>
      <trkpt lat="44.24479" lon="4.57569">
        <ele>153</ele>
        <time>2021-10-24T10:22:25Z</time>
      </trkpt>
      <trkpt lat="44.24492" lon="4.5757">
        <ele>152</ele>
        <time>2021-10-24T10:22:26Z</time>
      </trkpt>
      <trkpt lat="44.24506" lon="4.5757">
        <ele>151.2</ele>
        <time>2021-10-24T10:22:27Z</time>
      </trkpt>
      <trkpt lat="44.24519" lon="4.57571">
        <ele>150.2</ele>
        <time>2021-10-24T10:22:28Z</time>
      </trkpt>
      <trkpt lat="44.24532" lon="4.57572">
        <ele>149.2</ele>
        <time>2021-10-24T10:22:29Z</time>
      </trkpt>
      <trkpt lat="44.24544" lon="4.57572">
        <ele>148.6</ele>
        <time>2021-10-24T10:22:30Z</time>
      </trkpt>
      <trkpt lat="44.24557" lon="4.57573">
        <ele>147.4</ele>
        <time>2021-10-24T10:22:31Z</time>
      </trkpt>
      <trkpt lat="44.24569" lon="4.57575">
        <ele>146.6</ele>
        <time>2021-10-24T10:22:32Z</time>
      </trkpt>
      <trkpt lat="44.24581" lon="4.57579">
        <ele>146.2</ele>
        <time>2021-10-24T10:22:33Z</time>
      </trkpt>
      <trkpt lat="44.2459" lon="4.57589">
        <ele>145</ele>
        <time>2021-10-24T10:22:34Z</time>
      </trkpt>
      <trkpt lat="44.24596" lon="4.57602">
        <ele>143.8</ele>
        <time>2021-10-24T10:22:35Z</time>
      </trkpt>
      <trkpt lat="44.246" lon="4.57618">
        <ele>142.2</ele>
        <time>2021-10-24T10:22:36Z</time>
      </trkpt>
      <trkpt lat="44.24601" lon="4.57634">
        <ele>141</ele>
        <time>2021-10-24T10:22:37Z</time>
      </trkpt>
      <trkpt lat="44.246" lon="4.57651">
        <ele>139.8</ele>
        <time>2021-10-24T10:22:38Z</time>
      </trkpt>
      <trkpt lat="44.246" lon="4.57668">
        <ele>139</ele>
        <time>2021-10-24T10:22:39Z</time>
      </trkpt>
      <trkpt lat="44.24599" lon="4.57684">
        <ele>138.6</ele>
        <time>2021-10-24T10:22:40Z</time>
      </trkpt>
      <trkpt lat="44.24597" lon="4.57701">
        <ele>137.4</ele>
        <time>2021-10-24T10:22:41Z</time>
      </trkpt>
      <trkpt lat="44.24592" lon="4.57715">
        <ele>136.8</ele>
        <time>2021-10-24T10:22:42Z</time>
      </trkpt>
      <trkpt lat="44.24584" lon="4.57729">
        <ele>135.8</ele>
        <time>2021-10-24T10:22:43Z</time>
      </trkpt>
      <trkpt lat="44.24576" lon="4.57739">
        <ele>134.6</ele>
        <time>2021-10-24T10:22:44Z</time>
      </trkpt>
      <trkpt lat="44.24566" lon="4.57746">
        <ele>133.8</ele>
        <time>2021-10-24T10:22:45Z</time>
      </trkpt>
      <trkpt lat="44.24556" lon="4.57751">
        <ele>133</ele>
        <time>2021-10-24T10:22:46Z</time>
      </trkpt>
      <trkpt lat="44.24546" lon="4.57756">
        <ele>132.6</ele>
        <time>2021-10-24T10:22:47Z</time>
      </trkpt>
      <trkpt lat="44.24536" lon="4.5776">
        <ele>131.8</ele>
        <time>2021-10-24T10:22:48Z</time>
      </trkpt>
      <trkpt lat="44.24527" lon="4.57765">
        <ele>131.8</ele>
        <time>2021-10-24T10:22:49Z</time>
      </trkpt>
      <trkpt lat="44.24518" lon="4.57772">
        <ele>131.4</ele>
        <time>2021-10-24T10:22:50Z</time>
      </trkpt>
      <trkpt lat="44.24511" lon="4.5778">
        <ele>131.2</ele>
        <time>2021-10-24T10:22:51Z</time>
      </trkpt>
      <trkpt lat="44.24504" lon="4.5779">
        <ele>131</ele>
        <time>2021-10-24T10:22:52Z</time>
      </trkpt>
      <trkpt lat="44.24498" lon="4.578">
        <ele>131</ele>
        <time>2021-10-24T10:22:53Z</time>
      </trkpt>
      <trkpt lat="44.24492" lon="4.57811">
        <ele>131</ele>
        <time>2021-10-24T10:22:54Z</time>
      </trkpt>
      <trkpt lat="44.24486" lon="4.57821">
        <ele>130.6</ele>
        <time>2021-10-24T10:22:55Z</time>
      </trkpt>
      <trkpt lat="44.2448" lon="4.5783">
        <ele>130.6</ele>
        <time>2021-10-24T10:22:56Z</time>
      </trkpt>
      <trkpt lat="44.24475" lon="4.5784">
        <ele>131</ele>
        <time>2021-10-24T10:22:57Z</time>
      </trkpt>
      <trkpt lat="44.24469" lon="4.57849">
        <ele>131.2</ele>
        <time>2021-10-24T10:22:58Z</time>
      </trkpt>
      <trkpt lat="44.24463" lon="4.57858">
        <ele>131</ele>
        <time>2021-10-24T10:22:59Z</time>
      </trkpt>
      <trkpt lat="44.24458" lon="4.57867">
        <ele>131.6</ele>
        <time>2021-10-24T10:23:00Z</time>
      </trkpt>
      <trkpt lat="44.24453" lon="4.57876">
        <ele>132.2</ele>
        <time>2021-10-24T10:23:01Z</time>
      </trkpt>
      <trkpt lat="44.24448" lon="4.57885">
        <ele>132.8</ele>
        <time>2021-10-24T10:23:02Z</time>
      </trkpt>
      <trkpt lat="44.24443" lon="4.57893">
        <ele>132.6</ele>
        <time>2021-10-24T10:23:03Z</time>
      </trkpt>
      <trkpt lat="44.24438" lon="4.57902">
        <ele>132.4</ele>
        <time>2021-10-24T10:23:04Z</time>
      </trkpt>
      <trkpt lat="44.24434" lon="4.57909">
        <ele>132.4</ele>
        <time>2021-10-24T10:23:05Z</time>
      </trkpt>
      <trkpt lat="44.24429" lon="4.57917">
        <ele>132.6</ele>
        <time>2021-10-24T10:23:06Z</time>
      </trkpt>
      <trkpt lat="44.24425" lon="4.57924">
        <ele>133</ele>
        <time>2021-10-24T10:23:07Z</time>
      </trkpt>
      <trkpt lat="44.24421" lon="4.57932">
        <ele>133.4</ele>
        <time>2021-10-24T10:23:08Z</time>
      </trkpt>
      <trkpt lat="44.24417" lon="4.57938">
        <ele>133.6</ele>
        <time>2021-10-24T10:23:09Z</time>
      </trkpt>
      <trkpt lat="44.24413" lon="4.57945">
        <ele>133.8</ele>
        <time>2021-10-24T10:23:10Z</time>
      </trkpt>
      <trkpt lat="44.24409" lon="4.57951">
        <ele>134.4</ele>
        <time>2021-10-24T10:23:11Z</time>
      </trkpt>
      <trkpt lat="44.24405" lon="4.57958">
        <ele>134.4</ele>
        <time>2021-10-24T10:23:12Z</time>
      </trkpt>
      <trkpt lat="44.24402" lon="4.57964">
        <ele>134.4</ele>
        <time>2021-10-24T10:23:13Z</time>
      </trkpt>
      <trkpt lat="44.24398" lon="4.57971">
        <ele>134.8</ele>
        <time>2021-10-24T10:23:14Z</time>
      </trkpt>
      <trkpt lat="44.24394" lon="4.57977">
        <ele>135</ele>
        <time>2021-10-24T10:23:15Z</time>
      </trkpt>
      <trkpt lat="44.24391" lon="4.57984">
        <ele>135.2</ele>
        <time>2021-10-24T10:23:16Z</time>
      </trkpt>
      <trkpt lat="44.24387" lon="4.57991">
        <ele>135.8</ele>
        <time>2021-10-24T10:23:17Z</time>
      </trkpt>
      <trkpt lat="44.24384" lon="4.57999">
        <ele>136</ele>
        <time>2021-10-24T10:23:18Z</time>
      </trkpt>
      <trkpt lat="44.24382" lon="4.58008">
        <ele>136.2</ele>
        <time>2021-10-24T10:23:19Z</time>
      </trkpt>
      <trkpt lat="44.2438" lon="4.58018">
        <ele>136.2</ele>
        <time>2021-10-24T10:23:20Z</time>
      </trkpt>
      <trkpt lat="44.2438" lon="4.58029">
        <ele>136.2</ele>
        <time>2021-10-24T10:23:21Z</time>
      </trkpt>
      <trkpt lat="44.2438" lon="4.5804">
        <ele>136</ele>
        <time>2021-10-24T10:23:22Z</time>
      </trkpt>
      <trkpt lat="44.24383" lon="4.58051">
        <ele>136</ele>
        <time>2021-10-24T10:23:23Z</time>
      </trkpt>
      <trkpt lat="44.24386" lon="4.58062">
        <ele>135.8</ele>
        <time>2021-10-24T10:23:24Z</time>
      </trkpt>
      <trkpt lat="44.24391" lon="4.58071">
        <ele>135.4</ele>
        <time>2021-10-24T10:23:25Z</time>
      </trkpt>
      <trkpt lat="44.24398" lon="4.5808">
        <ele>135.2</ele>
        <time>2021-10-24T10:23:26Z</time>
      </trkpt>
      <trkpt lat="44.24404" lon="4.58089">
        <ele>135.2</ele>
        <time>2021-10-24T10:23:27Z</time>
      </trkpt>
      <trkpt lat="44.24411" lon="4.58097">
        <ele>135.4</ele>
        <time>2021-10-24T10:23:28Z</time>
      </trkpt>
      <trkpt lat="44.24417" lon="4.58105">
        <ele>135.2</ele>
        <time>2021-10-24T10:23:29Z</time>
      </trkpt>
      <trkpt lat="44.24424" lon="4.58113">
        <ele>134.8</ele>
        <time>2021-10-24T10:23:30Z</time>
      </trkpt>
      <trkpt lat="44.2443" lon="4.5812">
        <ele>134.6</ele>
        <time>2021-10-24T10:23:31Z</time>
      </trkpt>
      <trkpt lat="44.24437" lon="4.58128">
        <ele>134.8</ele>
        <time>2021-10-24T10:23:32Z</time>
      </trkpt>
      <trkpt lat="44.24443" lon="4.58136">
        <ele>134.6</ele>
        <time>2021-10-24T10:23:33Z</time>
      </trkpt>
      <trkpt lat="44.2445" lon="4.58144">
        <ele>134</ele>
        <time>2021-10-24T10:23:34Z</time>
      </trkpt>
      <trkpt lat="44.24456" lon="4.58151">
        <ele>133.4</ele>
        <time>2021-10-24T10:23:35Z</time>
      </trkpt>
      <trkpt lat="44.24463" lon="4.58158">
        <ele>133.2</ele>
        <time>2021-10-24T10:23:36Z</time>
      </trkpt>
      <trkpt lat="44.24469" lon="4.58165">
        <ele>133.2</ele>
        <time>2021-10-24T10:23:37Z</time>
      </trkpt>
      <trkpt lat="44.24475" lon="4.58173">
        <ele>133.2</ele>
        <time>2021-10-24T10:23:38Z</time>
      </trkpt>
      <trkpt lat="44.24481" lon="4.5818">
        <ele>133.2</ele>
        <time>2021-10-24T10:23:39Z</time>
      </trkpt>
      <trkpt lat="44.24487" lon="4.58187">
        <ele>133.6</ele>
        <time>2021-10-24T10:23:40Z</time>
      </trkpt>
      <trkpt lat="44.24493" lon="4.58195">
        <ele>134</ele>
        <time>2021-10-24T10:23:41Z</time>
      </trkpt>
      <trkpt lat="44.245" lon="4.58202">
        <ele>134.2</ele>
        <time>2021-10-24T10:23:42Z</time>
      </trkpt>
      <trkpt lat="44.24506" lon="4.5821">
        <ele>134.4</ele>
        <time>2021-10-24T10:23:43Z</time>
      </trkpt>
      <trkpt lat="44.24513" lon="4.58218">
        <ele>134.2</ele>
        <time>2021-10-24T10:23:44Z</time>
      </trkpt>
      <trkpt lat="44.24519" lon="4.58226">
        <ele>134.2</ele>
        <time>2021-10-24T10:23:45Z</time>
      </trkpt>
      <trkpt lat="44.24526" lon="4.58234">
        <ele>134.4</ele>
        <time>2021-10-24T10:23:46Z</time>
      </trkpt>
      <trkpt lat="44.24533" lon="4.58242">
        <ele>134.4</ele>
        <time>2021-10-24T10:23:47Z</time>
      </trkpt>
      <trkpt lat="44.2454" lon="4.5825">
        <ele>134.4</ele>
        <time>2021-10-24T10:23:48Z</time>
      </trkpt>
      <trkpt lat="44.24547" lon="4.58258">
        <ele>134</ele>
        <time>2021-10-24T10:23:49Z</time>
      </trkpt>
      <trkpt lat="44.24554" lon="4.58266">
        <ele>134</ele>
        <time>2021-10-24T10:23:50Z</time>
      </trkpt>
      <trkpt lat="44.24561" lon="4.58274">
        <ele>134</ele>
        <time>2021-10-24T10:23:51Z</time>
      </trkpt>
      <trkpt lat="44.24568" lon="4.58283">
        <ele>134.2</ele>
        <time>2021-10-24T10:23:52Z</time>
      </trkpt>
      <trkpt lat="44.24574" lon="4.58291">
        <ele>134.6</ele>
        <time>2021-10-24T10:23:53Z</time>
      </trkpt>
      <trkpt lat="44.24581" lon="4.58299">
        <ele>134.2</ele>
        <time>2021-10-24T10:23:54Z</time>
      </trkpt>
      <trkpt lat="44.24588" lon="4.58307">
        <ele>134</ele>
        <time>2021-10-24T10:23:55Z</time>
      </trkpt>
      <trkpt lat="44.24595" lon="4.58316">
        <ele>134</ele>
        <time>2021-10-24T10:23:56Z</time>
      </trkpt>
      <trkpt lat="44.24602" lon="4.58324">
        <ele>133.8</ele>
        <time>2021-10-24T10:23:57Z</time>
      </trkpt>
      <trkpt lat="44.24609" lon="4.58334">
        <ele>133.4</ele>
        <time>2021-10-24T10:23:58Z</time>
      </trkpt>
      <trkpt lat="44.24614" lon="4.58345">
        <ele>133.2</ele>
        <time>2021-10-24T10:23:59Z</time>
      </trkpt>
      <trkpt lat="44.24619" lon="4.58357">
        <ele>132.8</ele>
        <time>2021-10-24T10:24:00Z</time>
      </trkpt>
      <trkpt lat="44.24623" lon="4.5837">
        <ele>132.8</ele>
        <time>2021-10-24T10:24:01Z</time>
      </trkpt>
      <trkpt lat="44.24625" lon="4.58384">
        <ele>132.6</ele>
        <time>2021-10-24T10:24:02Z</time>
      </trkpt>
      <trkpt lat="44.24627" lon="4.58398">
        <ele>132.4</ele>
        <time>2021-10-24T10:24:03Z</time>
      </trkpt>
      <trkpt lat="44.24628" lon="4.58412">
        <ele>131.4</ele>
        <time>2021-10-24T10:24:04Z</time>
      </trkpt>
      <trkpt lat="44.24629" lon="4.58426">
        <ele>131</ele>
        <time>2021-10-24T10:24:05Z</time>
      </trkpt>
      <trkpt lat="44.24629" lon="4.5844">
        <ele>130.8</ele>
        <time>2021-10-24T10:24:06Z</time>
      </trkpt>
      <trkpt lat="44.24628" lon="4.58454">
        <ele>130.6</ele>
        <time>2021-10-24T10:24:07Z</time>
      </trkpt>
      <trkpt lat="44.24627" lon="4.58469">
        <ele>130.2</ele>
        <time>2021-10-24T10:24:08Z</time>
      </trkpt>
      <trkpt lat="44.24626" lon="4.58482">
        <ele>130</ele>
        <time>2021-10-24T10:24:09Z</time>
      </trkpt>
      <trkpt lat="44.24623" lon="4.58496">
        <ele>129.4</ele>
        <time>2021-10-24T10:24:10Z</time>
      </trkpt>
      <trkpt lat="44.24618" lon="4.58508">
        <ele>129</ele>
        <time>2021-10-24T10:24:11Z</time>
      </trkpt>
      <trkpt lat="44.24612" lon="4.58519">
        <ele>129</ele>
        <time>2021-10-24T10:24:12Z</time>
      </trkpt>
      <trkpt lat="44.24607" lon="4.58529">
        <ele>128.8</ele>
        <time>2021-10-24T10:24:13Z</time>
      </trkpt>
      <trkpt lat="44.246" lon="4.58538">
        <ele>128.6</ele>
        <time>2021-10-24T10:24:14Z</time>
      </trkpt>
      <trkpt lat="44.24593" lon="4.58547">
        <ele>128.4</ele>
        <time>2021-10-24T10:24:15Z</time>
      </trkpt>
      <trkpt lat="44.24585" lon="4.58555">
        <ele>128.4</ele>
        <time>2021-10-24T10:24:16Z</time>
      </trkpt>
      <trkpt lat="44.24577" lon="4.58561">
        <ele>128.4</ele>
        <time>2021-10-24T10:24:17Z</time>
      </trkpt>
      <trkpt lat="44.24568" lon="4.58568">
        <ele>128.6</ele>
        <time>2021-10-24T10:24:18Z</time>
      </trkpt>
      <trkpt lat="44.2456" lon="4.58574">
        <ele>128.6</ele>
        <time>2021-10-24T10:24:19Z</time>
      </trkpt>
      <trkpt lat="44.24551" lon="4.58581">
        <ele>128.8</ele>
        <time>2021-10-24T10:24:20Z</time>
      </trkpt>
      <trkpt lat="44.24543" lon="4.58588">
        <ele>128.2</ele>
        <time>2021-10-24T10:24:21Z</time>
      </trkpt>
      <trkpt lat="44.24535" lon="4.58596">
        <ele>127.6</ele>
        <time>2021-10-24T10:24:22Z</time>
      </trkpt>
      <trkpt lat="44.24526" lon="4.58604">
        <ele>127.2</ele>
        <time>2021-10-24T10:24:23Z</time>
      </trkpt>
      <trkpt lat="44.24518" lon="4.58613">
        <ele>126.6</ele>
        <time>2021-10-24T10:24:24Z</time>
      </trkpt>
      <trkpt lat="44.2451" lon="4.58623">
        <ele>126.2</ele>
        <time>2021-10-24T10:24:25Z</time>
      </trkpt>
      <trkpt lat="44.24502" lon="4.58633">
        <ele>125.6</ele>
        <time>2021-10-24T10:24:26Z</time>
      </trkpt>
      <trkpt lat="44.24494" lon="4.58643">
        <ele>125.6</ele>
        <time>2021-10-24T10:24:27Z</time>
      </trkpt>
      <trkpt lat="44.24486" lon="4.58653">
        <ele>125.4</ele>
        <time>2021-10-24T10:24:28Z</time>
      </trkpt>
      <trkpt lat="44.24477" lon="4.58663">
        <ele>125.2</ele>
        <time>2021-10-24T10:24:29Z</time>
      </trkpt>
      <trkpt lat="44.24468" lon="4.58674">
        <ele>125.2</ele>
        <time>2021-10-24T10:24:30Z</time>
      </trkpt>
      <trkpt lat="44.24459" lon="4.58685">
        <ele>125</ele>
        <time>2021-10-24T10:24:31Z</time>
      </trkpt>
      <trkpt lat="44.24451" lon="4.58697">
        <ele>124.4</ele>
        <time>2021-10-24T10:24:32Z</time>
      </trkpt>
      <trkpt lat="44.24444" lon="4.5871">
        <ele>124.4</ele>
        <time>2021-10-24T10:24:33Z</time>
      </trkpt>
      <trkpt lat="44.24439" lon="4.58726">
        <ele>123.6</ele>
        <time>2021-10-24T10:24:34Z</time>
      </trkpt>
      <trkpt lat="44.24436" lon="4.58742">
        <ele>123</ele>
        <time>2021-10-24T10:24:35Z</time>
      </trkpt>
      <trkpt lat="44.24433" lon="4.58759">
        <ele>122.8</ele>
        <time>2021-10-24T10:24:36Z</time>
      </trkpt>
      <trkpt lat="44.24432" lon="4.58776">
        <ele>122.4</ele>
        <time>2021-10-24T10:24:37Z</time>
      </trkpt>
      <trkpt lat="44.24431" lon="4.58794">
        <ele>122</ele>
        <time>2021-10-24T10:24:38Z</time>
      </trkpt>
      <trkpt lat="44.2443" lon="4.58811">
        <ele>121.4</ele>
        <time>2021-10-24T10:24:39Z</time>
      </trkpt>
      <trkpt lat="44.2443" lon="4.58829">
        <ele>121</ele>
        <time>2021-10-24T10:24:40Z</time>
      </trkpt>
      <trkpt lat="44.2443" lon="4.58847">
        <ele>121</ele>
        <time>2021-10-24T10:24:41Z</time>
      </trkpt>
      <trkpt lat="44.24432" lon="4.58865">
        <ele>120.4</ele>
        <time>2021-10-24T10:24:42Z</time>
      </trkpt>
      <trkpt lat="44.24434" lon="4.58883">
        <ele>119.6</ele>
        <time>2021-10-24T10:24:43Z</time>
      </trkpt>
      <trkpt lat="44.24437" lon="4.58901">
        <ele>119.4</ele>
        <time>2021-10-24T10:24:44Z</time>
      </trkpt>
      <trkpt lat="44.2444" lon="4.58918">
        <ele>118.6</ele>
        <time>2021-10-24T10:24:45Z</time>
      </trkpt>
      <trkpt lat="44.24443" lon="4.58936">
        <ele>118</ele>
        <time>2021-10-24T10:24:46Z</time>
      </trkpt>
      <trkpt lat="44.24447" lon="4.58953">
        <ele>117.4</ele>
        <time>2021-10-24T10:24:47Z</time>
      </trkpt>
      <trkpt lat="44.2445" lon="4.5897">
        <ele>117.2</ele>
        <time>2021-10-24T10:24:48Z</time>
      </trkpt>
      <trkpt lat="44.24453" lon="4.58987">
        <ele>116.4</ele>
        <time>2021-10-24T10:24:49Z</time>
      </trkpt>
      <trkpt lat="44.24456" lon="4.59004">
        <ele>115.6</ele>
        <time>2021-10-24T10:24:50Z</time>
      </trkpt>
      <trkpt lat="44.24458" lon="4.59022">
        <ele>114.6</ele>
        <time>2021-10-24T10:24:51Z</time>
      </trkpt>
      <trkpt lat="44.24459" lon="4.59039">
        <ele>113.8</ele>
        <time>2021-10-24T10:24:52Z</time>
      </trkpt>
      <trkpt lat="44.2446" lon="4.59056">
        <ele>113.4</ele>
        <time>2021-10-24T10:24:53Z</time>
      </trkpt>
      <trkpt lat="44.2446" lon="4.59072">
        <ele>112.6</ele>
        <time>2021-10-24T10:24:54Z</time>
      </trkpt>
      <trkpt lat="44.24459" lon="4.59088">
        <ele>112.2</ele>
        <time>2021-10-24T10:24:55Z</time>
      </trkpt>
      <trkpt lat="44.24459" lon="4.59104">
        <ele>111.4</ele>
        <time>2021-10-24T10:24:56Z</time>
      </trkpt>
      <trkpt lat="44.24458" lon="4.59119">
        <ele>111</ele>
        <time>2021-10-24T10:24:57Z</time>
      </trkpt>
      <trkpt lat="44.24458" lon="4.59134">
        <ele>110.4</ele>
        <time>2021-10-24T10:24:58Z</time>
      </trkpt>
      <trkpt lat="44.24457" lon="4.59149">
        <ele>110.2</ele>
        <time>2021-10-24T10:24:59Z</time>
      </trkpt>
      <trkpt lat="44.24456" lon="4.59163">
        <ele>110.4</ele>
        <time>2021-10-24T10:25:00Z</time>
      </trkpt>
      <trkpt lat="44.24456" lon="4.59176">
        <ele>110.4</ele>
        <time>2021-10-24T10:25:01Z</time>
      </trkpt>
      <trkpt lat="44.24455" lon="4.5919">
        <ele>110</ele>
        <time>2021-10-24T10:25:02Z</time>
      </trkpt>
      <trkpt lat="44.24455" lon="4.59203">
        <ele>109.8</ele>
        <time>2021-10-24T10:25:03Z</time>
      </trkpt>
      <trkpt lat="44.24454" lon="4.59215">
        <ele>109</ele>
        <time>2021-10-24T10:25:04Z</time>
      </trkpt>
      <trkpt lat="44.24453" lon="4.59227">
        <ele>109</ele>
        <time>2021-10-24T10:25:05Z</time>
      </trkpt>
      <trkpt lat="44.24453" lon="4.59238">
        <ele>109</ele>
        <time>2021-10-24T10:25:06Z</time>
      </trkpt>
      <trkpt lat="44.24453" lon="4.59249">
        <ele>109</ele>
        <time>2021-10-24T10:25:07Z</time>
      </trkpt>
      <trkpt lat="44.24452" lon="4.5926">
        <ele>109</ele>
        <time>2021-10-24T10:25:08Z</time>
      </trkpt>
      <trkpt lat="44.24452" lon="4.59271">
        <ele>108.8</ele>
        <time>2021-10-24T10:25:09Z</time>
      </trkpt>
      <trkpt lat="44.24451" lon="4.59281">
        <ele>108.8</ele>
        <time>2021-10-24T10:25:10Z</time>
      </trkpt>
      <trkpt lat="44.2445" lon="4.59291">
        <ele>108.8</ele>
        <time>2021-10-24T10:25:11Z</time>
      </trkpt>
      <trkpt lat="44.24449" lon="4.59301">
        <ele>108.6</ele>
        <time>2021-10-24T10:25:12Z</time>
      </trkpt>
      <trkpt lat="44.24448" lon="4.59311">
        <ele>108.8</ele>
        <time>2021-10-24T10:25:13Z</time>
      </trkpt>
      <trkpt lat="44.24446" lon="4.59321">
        <ele>108.6</ele>
        <time>2021-10-24T10:25:14Z</time>
      </trkpt>
      <trkpt lat="44.24445" lon="4.5933">
        <ele>108.6</ele>
        <time>2021-10-24T10:25:15Z</time>
      </trkpt>
      <trkpt lat="44.24443" lon="4.59339">
        <ele>108.6</ele>
        <time>2021-10-24T10:25:16Z</time>
      </trkpt>
      <trkpt lat="44.2444" lon="4.59348">
        <ele>109</ele>
        <time>2021-10-24T10:25:17Z</time>
      </trkpt>
      <trkpt lat="44.24438" lon="4.59357">
        <ele>108.8</ele>
        <time>2021-10-24T10:25:18Z</time>
      </trkpt>
      <trkpt lat="44.24435" lon="4.59366">
        <ele>109</ele>
        <time>2021-10-24T10:25:19Z</time>
      </trkpt>
      <trkpt lat="44.24433" lon="4.59375">
        <ele>108.8</ele>
        <time>2021-10-24T10:25:20Z</time>
      </trkpt>
      <trkpt lat="44.24431" lon="4.59383">
        <ele>109</ele>
        <time>2021-10-24T10:25:21Z</time>
      </trkpt>
      <trkpt lat="44.24429" lon="4.59392">
        <ele>109</ele>
        <time>2021-10-24T10:25:22Z</time>
      </trkpt>
      <trkpt lat="44.24427" lon="4.59401">
        <ele>109.2</ele>
        <time>2021-10-24T10:25:23Z</time>
      </trkpt>
      <trkpt lat="44.24426" lon="4.59409">
        <ele>109.4</ele>
        <time>2021-10-24T10:25:24Z</time>
      </trkpt>
      <trkpt lat="44.24424" lon="4.59418">
        <ele>109.6</ele>
        <time>2021-10-24T10:25:25Z</time>
      </trkpt>
      <trkpt lat="44.24422" lon="4.59427">
        <ele>110</ele>
        <time>2021-10-24T10:25:26Z</time>
      </trkpt>
      <trkpt lat="44.2442" lon="4.59435">
        <ele>110</ele>
        <time>2021-10-24T10:25:27Z</time>
      </trkpt>
      <trkpt lat="44.24418" lon="4.59444">
        <ele>110</ele>
        <time>2021-10-24T10:25:28Z</time>
      </trkpt>
      <trkpt lat="44.24416" lon="4.59453">
        <ele>110</ele>
        <time>2021-10-24T10:25:29Z</time>
      </trkpt>
      <trkpt lat="44.24415" lon="4.59461">
        <ele>110</ele>
        <time>2021-10-24T10:25:30Z</time>
      </trkpt>
      <trkpt lat="44.24413" lon="4.5947">
        <ele>110</ele>
        <time>2021-10-24T10:25:31Z</time>
      </trkpt>
      <trkpt lat="44.24412" lon="4.59479">
        <ele>110.2</ele>
        <time>2021-10-24T10:25:32Z</time>
      </trkpt>
      <trkpt lat="44.24411" lon="4.59488">
        <ele>110.2</ele>
        <time>2021-10-24T10:25:33Z</time>
      </trkpt>
      <trkpt lat="44.2441" lon="4.59498">
        <ele>110.2</ele>
        <time>2021-10-24T10:25:34Z</time>
      </trkpt>
      <trkpt lat="44.2441" lon="4.59508">
        <ele>110.4</ele>
        <time>2021-10-24T10:25:35Z</time>
      </trkpt>
      <trkpt lat="44.24409" lon="4.59517">
        <ele>110.4</ele>
        <time>2021-10-24T10:25:36Z</time>
      </trkpt>
      <trkpt lat="44.24408" lon="4.59528">
        <ele>110.4</ele>
        <time>2021-10-24T10:25:37Z</time>
      </trkpt>
      <trkpt lat="44.24407" lon="4.59538">
        <ele>110.4</ele>
        <time>2021-10-24T10:25:38Z</time>
      </trkpt>
      <trkpt lat="44.24407" lon="4.59548">
        <ele>110.4</ele>
        <time>2021-10-24T10:25:39Z</time>
      </trkpt>
      <trkpt lat="44.24407" lon="4.59559">
        <ele>110.4</ele>
        <time>2021-10-24T10:25:40Z</time>
      </trkpt>
      <trkpt lat="44.24407" lon="4.5957">
        <ele>110.4</ele>
        <time>2021-10-24T10:25:41Z</time>
      </trkpt>
      <trkpt lat="44.24407" lon="4.59581">
        <ele>110.6</ele>
        <time>2021-10-24T10:25:42Z</time>
      </trkpt>
      <trkpt lat="44.24407" lon="4.59592">
        <ele>110.6</ele>
        <time>2021-10-24T10:25:43Z</time>
      </trkpt>
      <trkpt lat="44.24407" lon="4.59603">
        <ele>110.6</ele>
        <time>2021-10-24T10:25:44Z</time>
      </trkpt>
      <trkpt lat="44.24407" lon="4.59614">
        <ele>110.8</ele>
        <time>2021-10-24T10:25:45Z</time>
      </trkpt>
      <trkpt lat="44.24406" lon="4.59625">
        <ele>110.6</ele>
        <time>2021-10-24T10:25:46Z</time>
      </trkpt>
      <trkpt lat="44.24406" lon="4.59636">
        <ele>110.2</ele>
        <time>2021-10-24T10:25:47Z</time>
      </trkpt>
      <trkpt lat="44.24406" lon="4.59647">
        <ele>110</ele>
        <time>2021-10-24T10:25:48Z</time>
      </trkpt>
      <trkpt lat="44.24406" lon="4.59658">
        <ele>110.2</ele>
        <time>2021-10-24T10:25:49Z</time>
      </trkpt>
      <trkpt lat="44.24406" lon="4.59669">
        <ele>110.4</ele>
        <time>2021-10-24T10:25:50Z</time>
      </trkpt>
      <trkpt lat="44.24405" lon="4.5968">
        <ele>110.6</ele>
        <time>2021-10-24T10:25:51Z</time>
      </trkpt>
      <trkpt lat="44.24405" lon="4.59691">
        <ele>110.6</ele>
        <time>2021-10-24T10:25:52Z</time>
      </trkpt>
      <trkpt lat="44.24405" lon="4.59703">
        <ele>110.6</ele>
        <time>2021-10-24T10:25:53Z</time>
      </trkpt>
      <trkpt lat="44.24406" lon="4.59714">
        <ele>110.6</ele>
        <time>2021-10-24T10:25:54Z</time>
      </trkpt>
      <trkpt lat="44.24406" lon="4.59725">
        <ele>110.6</ele>
        <time>2021-10-24T10:25:55Z</time>
      </trkpt>
      <trkpt lat="44.24407" lon="4.59736">
        <ele>110.6</ele>
        <time>2021-10-24T10:25:56Z</time>
      </trkpt>
      <trkpt lat="44.24407" lon="4.59747">
        <ele>110.6</ele>
        <time>2021-10-24T10:25:57Z</time>
      </trkpt>
      <trkpt lat="44.24407" lon="4.59758">
        <ele>110.8</ele>
        <time>2021-10-24T10:25:58Z</time>
      </trkpt>
      <trkpt lat="44.24407" lon="4.59769">
        <ele>111</ele>
        <time>2021-10-24T10:25:59Z</time>
      </trkpt>
      <trkpt lat="44.24407" lon="4.59779">
        <ele>110.8</ele>
        <time>2021-10-24T10:26:00Z</time>
      </trkpt>
      <trkpt lat="44.24407" lon="4.5979">
        <ele>111</ele>
        <time>2021-10-24T10:26:01Z</time>
      </trkpt>
      <trkpt lat="44.24407" lon="4.59801">
        <ele>110.8</ele>
        <time>2021-10-24T10:26:02Z</time>
      </trkpt>
      <trkpt lat="44.24407" lon="4.59811">
        <ele>110.8</ele>
        <time>2021-10-24T10:26:03Z</time>
      </trkpt>
      <trkpt lat="44.24407" lon="4.59822">
        <ele>111</ele>
        <time>2021-10-24T10:26:04Z</time>
      </trkpt>
      <trkpt lat="44.24408" lon="4.59832">
        <ele>111.4</ele>
        <time>2021-10-24T10:26:05Z</time>
      </trkpt>
      <trkpt lat="44.24408" lon="4.59843">
        <ele>111.6</ele>
        <time>2021-10-24T10:26:06Z</time>
      </trkpt>
      <trkpt lat="44.24408" lon="4.59853">
        <ele>111.4</ele>
        <time>2021-10-24T10:26:07Z</time>
      </trkpt>
      <trkpt lat="44.24408" lon="4.59863">
        <ele>111.6</ele>
        <time>2021-10-24T10:26:08Z</time>
      </trkpt>
      <trkpt lat="44.24408" lon="4.59872">
        <ele>111.6</ele>
        <time>2021-10-24T10:26:09Z</time>
      </trkpt>
      <trkpt lat="44.24408" lon="4.59882">
        <ele>111.6</ele>
        <time>2021-10-24T10:26:10Z</time>
      </trkpt>
      <trkpt lat="44.24408" lon="4.59892">
        <ele>111.6</ele>
        <time>2021-10-24T10:26:11Z</time>
      </trkpt>
      <trkpt lat="44.24409" lon="4.59901">
        <ele>112</ele>
        <time>2021-10-24T10:26:12Z</time>
      </trkpt>
      <trkpt lat="44.24409" lon="4.59911">
        <ele>112.2</ele>
        <time>2021-10-24T10:26:13Z</time>
      </trkpt>
      <trkpt lat="44.24409" lon="4.5992">
        <ele>112.2</ele>
        <time>2021-10-24T10:26:14Z</time>
      </trkpt>
      <trkpt lat="44.2441" lon="4.59929">
        <ele>112.2</ele>
        <time>2021-10-24T10:26:15Z</time>
      </trkpt>
      <trkpt lat="44.24409" lon="4.59937">
        <ele>112.4</ele>
        <time>2021-10-24T10:26:16Z</time>
      </trkpt>
      <trkpt lat="44.24407" lon="4.59945">
        <ele>112.4</ele>
        <time>2021-10-24T10:26:17Z</time>
      </trkpt>
      <trkpt lat="44.24403" lon="4.59949">
        <ele>112.6</ele>
        <time>2021-10-24T10:26:18Z</time>
      </trkpt>
      <trkpt lat="44.24398" lon="4.5995">
        <ele>113</ele>
        <time>2021-10-24T10:26:19Z</time>
      </trkpt>
      <trkpt lat="44.24393" lon="4.59949">
        <ele>113</ele>
        <time>2021-10-24T10:26:20Z</time>
      </trkpt>
      <trkpt lat="44.24387" lon="4.59947">
        <ele>113</ele>
        <time>2021-10-24T10:26:21Z</time>
      </trkpt>
      <trkpt lat="44.24382" lon="4.59944">
        <ele>113</ele>
        <time>2021-10-24T10:26:22Z</time>
      </trkpt>
      <trkpt lat="44.24376" lon="4.59942">
        <ele>112.8</ele>
        <time>2021-10-24T10:26:23Z</time>
      </trkpt>
      <trkpt lat="44.2437" lon="4.59938">
        <ele>113.2</ele>
        <time>2021-10-24T10:26:24Z</time>
      </trkpt>
      <trkpt lat="44.24365" lon="4.59935">
        <ele>113.2</ele>
        <time>2021-10-24T10:26:25Z</time>
      </trkpt>
      <trkpt lat="44.24358" lon="4.59932">
        <ele>113.4</ele>
        <time>2021-10-24T10:26:26Z</time>
      </trkpt>
      <trkpt lat="44.24352" lon="4.59928">
        <ele>113.6</ele>
        <time>2021-10-24T10:26:27Z</time>
      </trkpt>
      <trkpt lat="44.24346" lon="4.59924">
        <ele>114</ele>
        <time>2021-10-24T10:26:28Z</time>
      </trkpt>
      <trkpt lat="44.2434" lon="4.5992">
        <ele>114.2</ele>
        <time>2021-10-24T10:26:29Z</time>
      </trkpt>
      <trkpt lat="44.24334" lon="4.59916">
        <ele>114.4</ele>
        <time>2021-10-24T10:26:30Z</time>
      </trkpt>
      <trkpt lat="44.24328" lon="4.59912">
        <ele>114.6</ele>
        <time>2021-10-24T10:26:31Z</time>
      </trkpt>
      <trkpt lat="44.24322" lon="4.59908">
        <ele>114.8</ele>
        <time>2021-10-24T10:26:32Z</time>
      </trkpt>
      <trkpt lat="44.24316" lon="4.59903">
        <ele>115.2</ele>
        <time>2021-10-24T10:26:33Z</time>
      </trkpt>
      <trkpt lat="44.24311" lon="4.59898">
        <ele>115.2</ele>
        <time>2021-10-24T10:26:34Z</time>
      </trkpt>
      <trkpt lat="44.24305" lon="4.59893">
        <ele>115.4</ele>
        <time>2021-10-24T10:26:35Z</time>
      </trkpt>
      <trkpt lat="44.243" lon="4.59887">
        <ele>116</ele>
        <time>2021-10-24T10:26:36Z</time>
      </trkpt>
      <trkpt lat="44.24295" lon="4.59881">
        <ele>116</ele>
        <time>2021-10-24T10:26:37Z</time>
      </trkpt>
      <trkpt lat="44.2429" lon="4.59876">
        <ele>116.2</ele>
        <time>2021-10-24T10:26:38Z</time>
      </trkpt>
      <trkpt lat="44.24285" lon="4.5987">
        <ele>116.4</ele>
        <time>2021-10-24T10:26:39Z</time>
      </trkpt>
      <trkpt lat="44.2428" lon="4.59864">
        <ele>116.4</ele>
        <time>2021-10-24T10:26:40Z</time>
      </trkpt>
      <trkpt lat="44.24275" lon="4.59858">
        <ele>116.6</ele>
        <time>2021-10-24T10:26:41Z</time>
      </trkpt>
      <trkpt lat="44.2427" lon="4.59852">
        <ele>117</ele>
        <time>2021-10-24T10:26:42Z</time>
      </trkpt>
      <trkpt lat="44.24265" lon="4.59846">
        <ele>117.2</ele>
        <time>2021-10-24T10:26:43Z</time>
      </trkpt>
      <trkpt lat="44.24261" lon="4.5984">
        <ele>117.6</ele>
        <time>2021-10-24T10:26:44Z</time>
      </trkpt>
      <trkpt lat="44.24257" lon="4.59834">
        <ele>117.8</ele>
        <time>2021-10-24T10:26:45Z</time>
      </trkpt>
      <trkpt lat="44.24253" lon="4.59827">
        <ele>118.2</ele>
        <time>2021-10-24T10:26:46Z</time>
      </trkpt>
      <trkpt lat="44.24249" lon="4.5982">
        <ele>118.2</ele>
        <time>2021-10-24T10:26:47Z</time>
      </trkpt>
      <trkpt lat="44.24245" lon="4.59813">
        <ele>118.4</ele>
        <time>2021-10-24T10:26:48Z</time>
      </trkpt>
      <trkpt lat="44.24241" lon="4.59806">
        <ele>118.6</ele>
        <time>2021-10-24T10:26:49Z</time>
      </trkpt>
      <trkpt lat="44.24237" lon="4.59799">
        <ele>118.8</ele>
        <time>2021-10-24T10:26:50Z</time>
      </trkpt>
      <trkpt lat="44.24234" lon="4.59792">
        <ele>119</ele>
        <time>2021-10-24T10:26:51Z</time>
      </trkpt>
      <trkpt lat="44.2423" lon="4.59784">
        <ele>119.2</ele>
        <time>2021-10-24T10:26:52Z</time>
      </trkpt>
      <trkpt lat="44.24226" lon="4.59777">
        <ele>119</ele>
        <time>2021-10-24T10:26:53Z</time>
      </trkpt>
      <trkpt lat="44.24223" lon="4.59769">
        <ele>119.4</ele>
        <time>2021-10-24T10:26:54Z</time>
      </trkpt>
      <trkpt lat="44.24219" lon="4.59762">
        <ele>119.6</ele>
        <time>2021-10-24T10:26:55Z</time>
      </trkpt>
      <trkpt lat="44.24216" lon="4.59754">
        <ele>119.8</ele>
        <time>2021-10-24T10:26:56Z</time>
      </trkpt>
      <trkpt lat="44.24212" lon="4.59747">
        <ele>120</ele>
        <time>2021-10-24T10:26:57Z</time>
      </trkpt>
      <trkpt lat="44.24208" lon="4.59739">
        <ele>120.2</ele>
        <time>2021-10-24T10:26:58Z</time>
      </trkpt>
      <trkpt lat="44.24204" lon="4.59731">
        <ele>120.2</ele>
        <time>2021-10-24T10:26:59Z</time>
      </trkpt>
      <trkpt lat="44.24201" lon="4.59723">
        <ele>120.4</ele>
        <time>2021-10-24T10:27:00Z</time>
      </trkpt>
      <trkpt lat="44.24197" lon="4.59715">
        <ele>120.6</ele>
        <time>2021-10-24T10:27:01Z</time>
      </trkpt>
      <trkpt lat="44.24193" lon="4.59707">
        <ele>120.8</ele>
        <time>2021-10-24T10:27:02Z</time>
      </trkpt>
      <trkpt lat="44.2419" lon="4.59699">
        <ele>120.8</ele>
        <time>2021-10-24T10:27:03Z</time>
      </trkpt>
      <trkpt lat="44.24186" lon="4.59691">
        <ele>121</ele>
        <time>2021-10-24T10:27:04Z</time>
      </trkpt>
      <trkpt lat="44.24182" lon="4.59684">
        <ele>121.2</ele>
        <time>2021-10-24T10:27:05Z</time>
      </trkpt>
      <trkpt lat="44.24178" lon="4.59676">
        <ele>121.4</ele>
        <time>2021-10-24T10:27:06Z</time>
      </trkpt>
      <trkpt lat="44.24175" lon="4.59668">
        <ele>121.2</ele>
        <time>2021-10-24T10:27:07Z</time>
      </trkpt>
      <trkpt lat="44.24171" lon="4.5966">
        <ele>121.2</ele>
        <time>2021-10-24T10:27:08Z</time>
      </trkpt>
      <trkpt lat="44.24167" lon="4.59652">
        <ele>121.6</ele>
        <time>2021-10-24T10:27:09Z</time>
      </trkpt>
      <trkpt lat="44.24163" lon="4.59644">
        <ele>121.4</ele>
        <time>2021-10-24T10:27:10Z</time>
      </trkpt>
      <trkpt lat="44.24159" lon="4.59636">
        <ele>121.4</ele>
        <time>2021-10-24T10:27:11Z</time>
      </trkpt>
      <trkpt lat="44.24155" lon="4.59628">
        <ele>121.6</ele>
        <time>2021-10-24T10:27:12Z</time>
      </trkpt>
      <trkpt lat="44.24151" lon="4.5962">
        <ele>121.8</ele>
        <time>2021-10-24T10:27:13Z</time>
      </trkpt>
      <trkpt lat="44.24147" lon="4.59612">
        <ele>121.8</ele>
        <time>2021-10-24T10:27:14Z</time>
      </trkpt>
      <trkpt lat="44.24143" lon="4.59604">
        <ele>122</ele>
        <time>2021-10-24T10:27:15Z</time>
      </trkpt>
      <trkpt lat="44.2414" lon="4.59595">
        <ele>122.2</ele>
        <time>2021-10-24T10:27:16Z</time>
      </trkpt>
      <trkpt lat="44.24136" lon="4.59587">
        <ele>122.2</ele>
        <time>2021-10-24T10:27:17Z</time>
      </trkpt>
      <trkpt lat="44.24132" lon="4.59579">
        <ele>122.4</ele>
        <time>2021-10-24T10:27:18Z</time>
      </trkpt>
      <trkpt lat="44.24128" lon="4.59571">
        <ele>122.4</ele>
        <time>2021-10-24T10:27:19Z</time>
      </trkpt>
      <trkpt lat="44.24124" lon="4.59563">
        <ele>122.6</ele>
        <time>2021-10-24T10:27:20Z</time>
      </trkpt>
      <trkpt lat="44.2412" lon="4.59554">
        <ele>122.8</ele>
        <time>2021-10-24T10:27:21Z</time>
      </trkpt>
      <trkpt lat="44.24116" lon="4.59546">
        <ele>123.2</ele>
        <time>2021-10-24T10:27:22Z</time>
      </trkpt>
      <trkpt lat="44.24112" lon="4.59538">
        <ele>123.6</ele>
        <time>2021-10-24T10:27:23Z</time>
      </trkpt>
      <trkpt lat="44.24108" lon="4.5953">
        <ele>123.6</ele>
        <time>2021-10-24T10:27:24Z</time>
      </trkpt>
      <trkpt lat="44.24104" lon="4.59522">
        <ele>123.6</ele>
        <time>2021-10-24T10:27:25Z</time>
      </trkpt>
      <trkpt lat="44.241" lon="4.59514">
        <ele>123.8</ele>
        <time>2021-10-24T10:27:26Z</time>
      </trkpt>
      <trkpt lat="44.24096" lon="4.59506">
        <ele>124.2</ele>
        <time>2021-10-24T10:27:27Z</time>
      </trkpt>
      <trkpt lat="44.24092" lon="4.59498">
        <ele>124</ele>
        <time>2021-10-24T10:27:28Z</time>
      </trkpt>
      <trkpt lat="44.24088" lon="4.59491">
        <ele>124</ele>
        <time>2021-10-24T10:27:29Z</time>
      </trkpt>
      <trkpt lat="44.24084" lon="4.59483">
        <ele>124</ele>
        <time>2021-10-24T10:27:30Z</time>
      </trkpt>
      <trkpt lat="44.2408" lon="4.59475">
        <ele>124</ele>
        <time>2021-10-24T10:27:31Z</time>
      </trkpt>
      <trkpt lat="44.24076" lon="4.59468">
        <ele>124.4</ele>
        <time>2021-10-24T10:27:32Z</time>
      </trkpt>
      <trkpt lat="44.24071" lon="4.59463">
        <ele>124.4</ele>
        <time>2021-10-24T10:27:33Z</time>
      </trkpt>
      <trkpt lat="44.24066" lon="4.59457">
        <ele>124.6</ele>
        <time>2021-10-24T10:27:34Z</time>
      </trkpt>
      <trkpt lat="44.24063" lon="4.5945">
        <ele>125</ele>
        <time>2021-10-24T10:27:35Z</time>
      </trkpt>
      <trkpt lat="44.24061" lon="4.59442">
        <ele>125</ele>
        <time>2021-10-24T10:27:36Z</time>
      </trkpt>
      <trkpt lat="44.2406" lon="4.59433">
        <ele>125</ele>
        <time>2021-10-24T10:27:37Z</time>
      </trkpt>
      <trkpt lat="44.2406" lon="4.59423">
        <ele>125.2</ele>
        <time>2021-10-24T10:27:38Z</time>
      </trkpt>
      <trkpt lat="44.2406" lon="4.59412">
        <ele>125.2</ele>
        <time>2021-10-24T10:27:39Z</time>
      </trkpt>
      <trkpt lat="44.2406" lon="4.59399">
        <ele>125.4</ele>
        <time>2021-10-24T10:27:40Z</time>
      </trkpt>
      <trkpt lat="44.24061" lon="4.59386">
        <ele>125.2</ele>
        <time>2021-10-24T10:27:41Z</time>
      </trkpt>
      <trkpt lat="44.24063" lon="4.59373">
        <ele>125</ele>
        <time>2021-10-24T10:27:42Z</time>
      </trkpt>
      <trkpt lat="44.24066" lon="4.5936">
        <ele>124.4</ele>
        <time>2021-10-24T10:27:43Z</time>
      </trkpt>
      <trkpt lat="44.24069" lon="4.59347">
        <ele>123.8</ele>
        <time>2021-10-24T10:27:44Z</time>
      </trkpt>
      <trkpt lat="44.24072" lon="4.59334">
        <ele>123.6</ele>
        <time>2021-10-24T10:27:45Z</time>
      </trkpt>
      <trkpt lat="44.24074" lon="4.59322">
        <ele>122.8</ele>
        <time>2021-10-24T10:27:46Z</time>
      </trkpt>
      <trkpt lat="44.24076" lon="4.5931">
        <ele>122.6</ele>
        <time>2021-10-24T10:27:47Z</time>
      </trkpt>
      <trkpt lat="44.24079" lon="4.59298">
        <ele>122.4</ele>
        <time>2021-10-24T10:27:48Z</time>
      </trkpt>
      <trkpt lat="44.24081" lon="4.59287">
        <ele>122</ele>
        <time>2021-10-24T10:27:49Z</time>
      </trkpt>
      <trkpt lat="44.24082" lon="4.59276">
        <ele>121.8</ele>
        <time>2021-10-24T10:27:50Z</time>
      </trkpt>
      <trkpt lat="44.24084" lon="4.59265">
        <ele>121.6</ele>
        <time>2021-10-24T10:27:51Z</time>
      </trkpt>
      <trkpt lat="44.24085" lon="4.59254">
        <ele>121.6</ele>
        <time>2021-10-24T10:27:52Z</time>
      </trkpt>
      <trkpt lat="44.24085" lon="4.59245">
        <ele>121.2</ele>
        <time>2021-10-24T10:27:53Z</time>
      </trkpt>
      <trkpt lat="44.24081" lon="4.59239">
        <ele>121.2</ele>
        <time>2021-10-24T10:27:54Z</time>
      </trkpt>
      <trkpt lat="44.24076" lon="4.59237">
        <ele>120.8</ele>
        <time>2021-10-24T10:27:55Z</time>
      </trkpt>
      <trkpt lat="44.24071" lon="4.59236">
        <ele>120.4</ele>
        <time>2021-10-24T10:27:56Z</time>
      </trkpt>
      <trkpt lat="44.24066" lon="4.59236">
        <ele>120.6</ele>
        <time>2021-10-24T10:27:57Z</time>
      </trkpt>
      <trkpt lat="44.24057" lon="4.59237">
        <ele>120.8</ele>
        <time>2021-10-24T10:27:59Z</time>
      </trkpt>
      <trkpt lat="44.24044" lon="4.59237">
        <ele>121.6</ele>
        <time>2021-10-24T10:28:02Z</time>
      </trkpt>
      <trkpt lat="44.24033" lon="4.59237">
        <ele>123.2</ele>
        <time>2021-10-24T10:28:04Z</time>
      </trkpt>
      <trkpt lat="44.24022" lon="4.59234">
        <ele>124.8</ele>
        <time>2021-10-24T10:28:06Z</time>
      </trkpt>
      <trkpt lat="44.24017" lon="4.59232">
        <ele>125.2</ele>
        <time>2021-10-24T10:28:07Z</time>
      </trkpt>
      <trkpt lat="44.2401" lon="4.59233">
        <ele>125.8</ele>
        <time>2021-10-24T10:28:08Z</time>
      </trkpt>
      <trkpt lat="44.24004" lon="4.59233">
        <ele>126.8</ele>
        <time>2021-10-24T10:28:09Z</time>
      </trkpt>
      <trkpt lat="44.23998" lon="4.59234">
        <ele>127.2</ele>
        <time>2021-10-24T10:28:10Z</time>
      </trkpt>
      <trkpt lat="44.23992" lon="4.59234">
        <ele>127.8</ele>
        <time>2021-10-24T10:28:11Z</time>
      </trkpt>
      <trkpt lat="44.23985" lon="4.59235">
        <ele>128.2</ele>
        <time>2021-10-24T10:28:12Z</time>
      </trkpt>
      <trkpt lat="44.23979" lon="4.59235">
        <ele>128.6</ele>
        <time>2021-10-24T10:28:13Z</time>
      </trkpt>
      <trkpt lat="44.23973" lon="4.59235">
        <ele>128.6</ele>
        <time>2021-10-24T10:28:14Z</time>
      </trkpt>
      <trkpt lat="44.23967" lon="4.59235">
        <ele>129</ele>
        <time>2021-10-24T10:28:15Z</time>
      </trkpt>
      <trkpt lat="44.23962" lon="4.59235">
        <ele>129</ele>
        <time>2021-10-24T10:28:16Z</time>
      </trkpt>
      <trkpt lat="44.23956" lon="4.59234">
        <ele>129</ele>
        <time>2021-10-24T10:28:17Z</time>
      </trkpt>
      <trkpt lat="44.23951" lon="4.59234">
        <ele>129.4</ele>
        <time>2021-10-24T10:28:18Z</time>
      </trkpt>
      <trkpt lat="44.23945" lon="4.59233">
        <ele>129.6</ele>
        <time>2021-10-24T10:28:19Z</time>
      </trkpt>
      <trkpt lat="44.23939" lon="4.59233">
        <ele>129.8</ele>
        <time>2021-10-24T10:28:20Z</time>
      </trkpt>
      <trkpt lat="44.23933" lon="4.59232">
        <ele>130.2</ele>
        <time>2021-10-24T10:28:21Z</time>
      </trkpt>
      <trkpt lat="44.23928" lon="4.5923">
        <ele>130.4</ele>
        <time>2021-10-24T10:28:22Z</time>
      </trkpt>
      <trkpt lat="44.23922" lon="4.59228">
        <ele>130.8</ele>
        <time>2021-10-24T10:28:23Z</time>
      </trkpt>
      <trkpt lat="44.23916" lon="4.59225">
        <ele>130.8</ele>
        <time>2021-10-24T10:28:24Z</time>
      </trkpt>
      <trkpt lat="44.2391" lon="4.59222">
        <ele>131.2</ele>
        <time>2021-10-24T10:28:25Z</time>
      </trkpt>
      <trkpt lat="44.23904" lon="4.59219">
        <ele>131.4</ele>
        <time>2021-10-24T10:28:26Z</time>
      </trkpt>
      <trkpt lat="44.23897" lon="4.59214">
        <ele>131.6</ele>
        <time>2021-10-24T10:28:27Z</time>
      </trkpt>
      <trkpt lat="44.23891" lon="4.5921">
        <ele>131.6</ele>
        <time>2021-10-24T10:28:28Z</time>
      </trkpt>
      <trkpt lat="44.23886" lon="4.59205">
        <ele>131.6</ele>
        <time>2021-10-24T10:28:29Z</time>
      </trkpt>
      <trkpt lat="44.2388" lon="4.592">
        <ele>131.6</ele>
        <time>2021-10-24T10:28:30Z</time>
      </trkpt>
      <trkpt lat="44.23875" lon="4.59195">
        <ele>131.8</ele>
        <time>2021-10-24T10:28:31Z</time>
      </trkpt>
      <trkpt lat="44.2387" lon="4.5919">
        <ele>132.2</ele>
        <time>2021-10-24T10:28:32Z</time>
      </trkpt>
      <trkpt lat="44.23866" lon="4.59185">
        <ele>132.6</ele>
        <time>2021-10-24T10:28:33Z</time>
      </trkpt>
      <trkpt lat="44.23862" lon="4.59182">
        <ele>133.2</ele>
        <time>2021-10-24T10:28:34Z</time>
      </trkpt>
      <trkpt lat="44.23858" lon="4.59178">
        <ele>133.6</ele>
        <time>2021-10-24T10:28:35Z</time>
      </trkpt>
      <trkpt lat="44.23853" lon="4.59175">
        <ele>134</ele>
        <time>2021-10-24T10:28:36Z</time>
      </trkpt>
      <trkpt lat="44.23847" lon="4.59172">
        <ele>134</ele>
        <time>2021-10-24T10:28:37Z</time>
      </trkpt>
      <trkpt lat="44.23841" lon="4.5917">
        <ele>134.4</ele>
        <time>2021-10-24T10:28:38Z</time>
      </trkpt>
      <trkpt lat="44.23835" lon="4.59167">
        <ele>134.8</ele>
        <time>2021-10-24T10:28:39Z</time>
      </trkpt>
      <trkpt lat="44.2383" lon="4.59165">
        <ele>134.6</ele>
        <time>2021-10-24T10:28:40Z</time>
      </trkpt>
      <trkpt lat="44.23824" lon="4.59162">
        <ele>134.8</ele>
        <time>2021-10-24T10:28:41Z</time>
      </trkpt>
      <trkpt lat="44.23818" lon="4.5916">
        <ele>134.6</ele>
        <time>2021-10-24T10:28:42Z</time>
      </trkpt>
      <trkpt lat="44.23812" lon="4.59158">
        <ele>134.8</ele>
        <time>2021-10-24T10:28:43Z</time>
      </trkpt>
      <trkpt lat="44.23805" lon="4.59156">
        <ele>134.8</ele>
        <time>2021-10-24T10:28:44Z</time>
      </trkpt>
      <trkpt lat="44.23798" lon="4.59155">
        <ele>134.8</ele>
        <time>2021-10-24T10:28:45Z</time>
      </trkpt>
      <trkpt lat="44.23791" lon="4.59153">
        <ele>134.8</ele>
        <time>2021-10-24T10:28:46Z</time>
      </trkpt>
      <trkpt lat="44.23784" lon="4.59151">
        <ele>134.8</ele>
        <time>2021-10-24T10:28:47Z</time>
      </trkpt>
      <trkpt lat="44.23778" lon="4.59148">
        <ele>135</ele>
        <time>2021-10-24T10:28:48Z</time>
      </trkpt>
      <trkpt lat="44.23772" lon="4.59146">
        <ele>135</ele>
        <time>2021-10-24T10:28:49Z</time>
      </trkpt>
      <trkpt lat="44.23766" lon="4.59143">
        <ele>135.4</ele>
        <time>2021-10-24T10:28:50Z</time>
      </trkpt>
      <trkpt lat="44.23761" lon="4.5914">
        <ele>135.6</ele>
        <time>2021-10-24T10:28:51Z</time>
      </trkpt>
      <trkpt lat="44.23756" lon="4.59136">
        <ele>135.8</ele>
        <time>2021-10-24T10:28:52Z</time>
      </trkpt>
      <trkpt lat="44.23752" lon="4.59133">
        <ele>135.8</ele>
        <time>2021-10-24T10:28:53Z</time>
      </trkpt>
      <trkpt lat="44.23748" lon="4.5913">
        <ele>136.2</ele>
        <time>2021-10-24T10:28:54Z</time>
      </trkpt>
      <trkpt lat="44.23745" lon="4.59128">
        <ele>136.6</ele>
        <time>2021-10-24T10:28:55Z</time>
      </trkpt>
      <trkpt lat="44.23742" lon="4.59125">
        <ele>136.8</ele>
        <time>2021-10-24T10:28:56Z</time>
      </trkpt>
      <trkpt lat="44.23739" lon="4.59122">
        <ele>136.8</ele>
        <time>2021-10-24T10:28:57Z</time>
      </trkpt>
      <trkpt lat="44.23737" lon="4.59119">
        <ele>137</ele>
        <time>2021-10-24T10:28:58Z</time>
      </trkpt>
      <trkpt lat="44.23734" lon="4.59115">
        <ele>137.2</ele>
        <time>2021-10-24T10:28:59Z</time>
      </trkpt>
      <trkpt lat="44.23732" lon="4.59112">
        <ele>137.2</ele>
        <time>2021-10-24T10:29:00Z</time>
      </trkpt>
      <trkpt lat="44.2373" lon="4.59108">
        <ele>137.6</ele>
        <time>2021-10-24T10:29:01Z</time>
      </trkpt>
      <trkpt lat="44.23728" lon="4.59105">
        <ele>137.8</ele>
        <time>2021-10-24T10:29:02Z</time>
      </trkpt>
      <trkpt lat="44.23727" lon="4.59102">
        <ele>138</ele>
        <time>2021-10-24T10:29:03Z</time>
      </trkpt>
      <trkpt lat="44.23725" lon="4.59099">
        <ele>138.4</ele>
        <time>2021-10-24T10:29:04Z</time>
      </trkpt>
      <trkpt lat="44.23723" lon="4.59095">
        <ele>138.6</ele>
        <time>2021-10-24T10:29:05Z</time>
      </trkpt>
      <trkpt lat="44.23721" lon="4.59092">
        <ele>138.8</ele>
        <time>2021-10-24T10:29:06Z</time>
      </trkpt>
      <trkpt lat="44.2372" lon="4.59089">
        <ele>139</ele>
        <time>2021-10-24T10:29:07Z</time>
      </trkpt>
      <trkpt lat="44.23718" lon="4.59086">
        <ele>139</ele>
        <time>2021-10-24T10:29:08Z</time>
      </trkpt>
      <trkpt lat="44.23717" lon="4.59083">
        <ele>139.4</ele>
        <time>2021-10-24T10:29:09Z</time>
      </trkpt>
      <trkpt lat="44.23716" lon="4.5908">
        <ele>139.6</ele>
        <time>2021-10-24T10:29:10Z</time>
      </trkpt>
      <trkpt lat="44.23714" lon="4.59077">
        <ele>139.6</ele>
        <time>2021-10-24T10:29:11Z</time>
      </trkpt>
      <trkpt lat="44.23713" lon="4.59074">
        <ele>140</ele>
        <time>2021-10-24T10:29:12Z</time>
      </trkpt>
      <trkpt lat="44.23711" lon="4.59071">
        <ele>140.2</ele>
        <time>2021-10-24T10:29:13Z</time>
      </trkpt>
      <trkpt lat="44.2371" lon="4.59069">
        <ele>140.8</ele>
        <time>2021-10-24T10:29:14Z</time>
      </trkpt>
      <trkpt lat="44.23709" lon="4.59066">
        <ele>141</ele>
        <time>2021-10-24T10:29:15Z</time>
      </trkpt>
      <trkpt lat="44.23708" lon="4.59063">
        <ele>141.4</ele>
        <time>2021-10-24T10:29:16Z</time>
      </trkpt>
      <trkpt lat="44.23707" lon="4.5906">
        <ele>142</ele>
        <time>2021-10-24T10:29:17Z</time>
      </trkpt>
      <trkpt lat="44.23705" lon="4.59057">
        <ele>142.6</ele>
        <time>2021-10-24T10:29:18Z</time>
      </trkpt>
      <trkpt lat="44.23704" lon="4.59054">
        <ele>143</ele>
        <time>2021-10-24T10:29:19Z</time>
      </trkpt>
      <trkpt lat="44.23702" lon="4.59052">
        <ele>143.4</ele>
        <time>2021-10-24T10:29:20Z</time>
      </trkpt>
      <trkpt lat="44.237" lon="4.5905">
        <ele>143.6</ele>
        <time>2021-10-24T10:29:21Z</time>
      </trkpt>
      <trkpt lat="44.23698" lon="4.59047">
        <ele>144.2</ele>
        <time>2021-10-24T10:29:22Z</time>
      </trkpt>
      <trkpt lat="44.23696" lon="4.59045">
        <ele>144.6</ele>
        <time>2021-10-24T10:29:23Z</time>
      </trkpt>
      <trkpt lat="44.23694" lon="4.59043">
        <ele>145</ele>
        <time>2021-10-24T10:29:24Z</time>
      </trkpt>
      <trkpt lat="44.23692" lon="4.59041">
        <ele>145.4</ele>
        <time>2021-10-24T10:29:25Z</time>
      </trkpt>
      <trkpt lat="44.2369" lon="4.59039">
        <ele>146</ele>
        <time>2021-10-24T10:29:26Z</time>
      </trkpt>
      <trkpt lat="44.23689" lon="4.59036">
        <ele>146.2</ele>
        <time>2021-10-24T10:29:27Z</time>
      </trkpt>
      <trkpt lat="44.23688" lon="4.59033">
        <ele>146.8</ele>
        <time>2021-10-24T10:29:28Z</time>
      </trkpt>
      <trkpt lat="44.23686" lon="4.5903">
        <ele>147.4</ele>
        <time>2021-10-24T10:29:29Z</time>
      </trkpt>
      <trkpt lat="44.23685" lon="4.59027">
        <ele>147.6</ele>
        <time>2021-10-24T10:29:30Z</time>
      </trkpt>
      <trkpt lat="44.23684" lon="4.59024">
        <ele>148.2</ele>
        <time>2021-10-24T10:29:31Z</time>
      </trkpt>
      <trkpt lat="44.23682" lon="4.59021">
        <ele>148.4</ele>
        <time>2021-10-24T10:29:32Z</time>
      </trkpt>
      <trkpt lat="44.23681" lon="4.59018">
        <ele>148.8</ele>
        <time>2021-10-24T10:29:33Z</time>
      </trkpt>
      <trkpt lat="44.2368" lon="4.59016">
        <ele>149.2</ele>
        <time>2021-10-24T10:29:34Z</time>
      </trkpt>
      <trkpt lat="44.23679" lon="4.59013">
        <ele>149.6</ele>
        <time>2021-10-24T10:29:35Z</time>
      </trkpt>
      <trkpt lat="44.23677" lon="4.5901">
        <ele>150.2</ele>
        <time>2021-10-24T10:29:36Z</time>
      </trkpt>
      <trkpt lat="44.23676" lon="4.59008">
        <ele>150.6</ele>
        <time>2021-10-24T10:29:37Z</time>
      </trkpt>
      <trkpt lat="44.23674" lon="4.59005">
        <ele>150.8</ele>
        <time>2021-10-24T10:29:38Z</time>
      </trkpt>
      <trkpt lat="44.23672" lon="4.59002">
        <ele>151</ele>
        <time>2021-10-24T10:29:39Z</time>
      </trkpt>
      <trkpt lat="44.2367" lon="4.58999">
        <ele>151.4</ele>
        <time>2021-10-24T10:29:40Z</time>
      </trkpt>
      <trkpt lat="44.23668" lon="4.58996">
        <ele>151.8</ele>
        <time>2021-10-24T10:29:41Z</time>
      </trkpt>
      <trkpt lat="44.23667" lon="4.58994">
        <ele>152.2</ele>
        <time>2021-10-24T10:29:42Z</time>
      </trkpt>
      <trkpt lat="44.23665" lon="4.58991">
        <ele>152.6</ele>
        <time>2021-10-24T10:29:43Z</time>
      </trkpt>
      <trkpt lat="44.23663" lon="4.58988">
        <ele>153</ele>
        <time>2021-10-24T10:29:44Z</time>
      </trkpt>
      <trkpt lat="44.23662" lon="4.58985">
        <ele>153.2</ele>
        <time>2021-10-24T10:29:45Z</time>
      </trkpt>
      <trkpt lat="44.23661" lon="4.58982">
        <ele>153.4</ele>
        <time>2021-10-24T10:29:46Z</time>
      </trkpt>
      <trkpt lat="44.2366" lon="4.58979">
        <ele>153.8</ele>
        <time>2021-10-24T10:29:47Z</time>
      </trkpt>
      <trkpt lat="44.23658" lon="4.58976">
        <ele>154.4</ele>
        <time>2021-10-24T10:29:48Z</time>
      </trkpt>
      <trkpt lat="44.23656" lon="4.58973">
        <ele>154.6</ele>
        <time>2021-10-24T10:29:49Z</time>
      </trkpt>
      <trkpt lat="44.23655" lon="4.5897">
        <ele>154.8</ele>
        <time>2021-10-24T10:29:50Z</time>
      </trkpt>
      <trkpt lat="44.23653" lon="4.58967">
        <ele>155.2</ele>
        <time>2021-10-24T10:29:51Z</time>
      </trkpt>
      <trkpt lat="44.23652" lon="4.58964">
        <ele>155.6</ele>
        <time>2021-10-24T10:29:52Z</time>
      </trkpt>
      <trkpt lat="44.2365" lon="4.58961">
        <ele>156</ele>
        <time>2021-10-24T10:29:53Z</time>
      </trkpt>
      <trkpt lat="44.23648" lon="4.58958">
        <ele>156</ele>
        <time>2021-10-24T10:29:54Z</time>
      </trkpt>
      <trkpt lat="44.23646" lon="4.58955">
        <ele>156.2</ele>
        <time>2021-10-24T10:29:55Z</time>
      </trkpt>
      <trkpt lat="44.23644" lon="4.58952">
        <ele>156.6</ele>
        <time>2021-10-24T10:29:56Z</time>
      </trkpt>
      <trkpt lat="44.23642" lon="4.5895">
        <ele>156.8</ele>
        <time>2021-10-24T10:29:57Z</time>
      </trkpt>
      <trkpt lat="44.2364" lon="4.58947">
        <ele>157.2</ele>
        <time>2021-10-24T10:29:58Z</time>
      </trkpt>
      <trkpt lat="44.23638" lon="4.58944">
        <ele>157.6</ele>
        <time>2021-10-24T10:29:59Z</time>
      </trkpt>
      <trkpt lat="44.23636" lon="4.58941">
        <ele>157.8</ele>
        <time>2021-10-24T10:30:00Z</time>
      </trkpt>
      <trkpt lat="44.23634" lon="4.58938">
        <ele>158.2</ele>
        <time>2021-10-24T10:30:01Z</time>
      </trkpt>
      <trkpt lat="44.23632" lon="4.58935">
        <ele>158.6</ele>
        <time>2021-10-24T10:30:02Z</time>
      </trkpt>
      <trkpt lat="44.23631" lon="4.58932">
        <ele>158.8</ele>
        <time>2021-10-24T10:30:03Z</time>
      </trkpt>
      <trkpt lat="44.23629" lon="4.58929">
        <ele>159.4</ele>
        <time>2021-10-24T10:30:04Z</time>
      </trkpt>
      <trkpt lat="44.23628" lon="4.58926">
        <ele>159.8</ele>
        <time>2021-10-24T10:30:05Z</time>
      </trkpt>
      <trkpt lat="44.23626" lon="4.58924">
        <ele>160.2</ele>
        <time>2021-10-24T10:30:06Z</time>
      </trkpt>
      <trkpt lat="44.23624" lon="4.58921">
        <ele>160.4</ele>
        <time>2021-10-24T10:30:07Z</time>
      </trkpt>
      <trkpt lat="44.23622" lon="4.58917">
        <ele>160.8</ele>
        <time>2021-10-24T10:30:08Z</time>
      </trkpt>
      <trkpt lat="44.2362" lon="4.58914">
        <ele>161</ele>
        <time>2021-10-24T10:30:09Z</time>
      </trkpt>
      <trkpt lat="44.23618" lon="4.58911">
        <ele>161</ele>
        <time>2021-10-24T10:30:10Z</time>
      </trkpt>
      <trkpt lat="44.23616" lon="4.58908">
        <ele>161.4</ele>
        <time>2021-10-24T10:30:11Z</time>
      </trkpt>
      <trkpt lat="44.23614" lon="4.58905">
        <ele>161.8</ele>
        <time>2021-10-24T10:30:12Z</time>
      </trkpt>
      <trkpt lat="44.23612" lon="4.58902">
        <ele>162</ele>
        <time>2021-10-24T10:30:13Z</time>
      </trkpt>
      <trkpt lat="44.2361" lon="4.58898">
        <ele>162.2</ele>
        <time>2021-10-24T10:30:14Z</time>
      </trkpt>
      <trkpt lat="44.23609" lon="4.58895">
        <ele>162.8</ele>
        <time>2021-10-24T10:30:15Z</time>
      </trkpt>
      <trkpt lat="44.23607" lon="4.58892">
        <ele>163.2</ele>
        <time>2021-10-24T10:30:16Z</time>
      </trkpt>
      <trkpt lat="44.23605" lon="4.58889">
        <ele>163.4</ele>
        <time>2021-10-24T10:30:17Z</time>
      </trkpt>
      <trkpt lat="44.23603" lon="4.58885">
        <ele>163.8</ele>
        <time>2021-10-24T10:30:18Z</time>
      </trkpt>
      <trkpt lat="44.23601" lon="4.58882">
        <ele>164</ele>
        <time>2021-10-24T10:30:19Z</time>
      </trkpt>
      <trkpt lat="44.23599" lon="4.5888">
        <ele>164.4</ele>
        <time>2021-10-24T10:30:20Z</time>
      </trkpt>
      <trkpt lat="44.23597" lon="4.58876">
        <ele>164.6</ele>
        <time>2021-10-24T10:30:21Z</time>
      </trkpt>
      <trkpt lat="44.23595" lon="4.58873">
        <ele>165</ele>
        <time>2021-10-24T10:30:22Z</time>
      </trkpt>
      <trkpt lat="44.23593" lon="4.5887">
        <ele>165.4</ele>
        <time>2021-10-24T10:30:23Z</time>
      </trkpt>
      <trkpt lat="44.23591" lon="4.58866">
        <ele>165.6</ele>
        <time>2021-10-24T10:30:24Z</time>
      </trkpt>
      <trkpt lat="44.2359" lon="4.58863">
        <ele>165.8</ele>
        <time>2021-10-24T10:30:25Z</time>
      </trkpt>
      <trkpt lat="44.23588" lon="4.5886">
        <ele>166.2</ele>
        <time>2021-10-24T10:30:26Z</time>
      </trkpt>
      <trkpt lat="44.23586" lon="4.58856">
        <ele>166.6</ele>
        <time>2021-10-24T10:30:27Z</time>
      </trkpt>
      <trkpt lat="44.23585" lon="4.58853">
        <ele>166.6</ele>
        <time>2021-10-24T10:30:28Z</time>
      </trkpt>
      <trkpt lat="44.23583" lon="4.5885">
        <ele>167.2</ele>
        <time>2021-10-24T10:30:29Z</time>
      </trkpt>
      <trkpt lat="44.23581" lon="4.58847">
        <ele>167.6</ele>
        <time>2021-10-24T10:30:30Z</time>
      </trkpt>
      <trkpt lat="44.2358" lon="4.58844">
        <ele>168</ele>
        <time>2021-10-24T10:30:31Z</time>
      </trkpt>
      <trkpt lat="44.23578" lon="4.5884">
        <ele>168.2</ele>
        <time>2021-10-24T10:30:32Z</time>
      </trkpt>
      <trkpt lat="44.23577" lon="4.58837">
        <ele>168.6</ele>
        <time>2021-10-24T10:30:33Z</time>
      </trkpt>
      <trkpt lat="44.23575" lon="4.58833">
        <ele>169</ele>
        <time>2021-10-24T10:30:34Z</time>
      </trkpt>
      <trkpt lat="44.23573" lon="4.58831">
        <ele>169.4</ele>
        <time>2021-10-24T10:30:35Z</time>
      </trkpt>
      <trkpt lat="44.23572" lon="4.58828">
        <ele>169.8</ele>
        <time>2021-10-24T10:30:36Z</time>
      </trkpt>
      <trkpt lat="44.2357" lon="4.58825">
        <ele>170.2</ele>
        <time>2021-10-24T10:30:37Z</time>
      </trkpt>
      <trkpt lat="44.23568" lon="4.58821">
        <ele>170.4</ele>
        <time>2021-10-24T10:30:38Z</time>
      </trkpt>
      <trkpt lat="44.23565" lon="4.58818">
        <ele>170.8</ele>
        <time>2021-10-24T10:30:39Z</time>
      </trkpt>
      <trkpt lat="44.23563" lon="4.58815">
        <ele>171</ele>
        <time>2021-10-24T10:30:40Z</time>
      </trkpt>
      <trkpt lat="44.23562" lon="4.58813">
        <ele>171.4</ele>
        <time>2021-10-24T10:30:41Z</time>
      </trkpt>
      <trkpt lat="44.2356" lon="4.5881">
        <ele>171.4</ele>
        <time>2021-10-24T10:30:42Z</time>
      </trkpt>
      <trkpt lat="44.23558" lon="4.58806">
        <ele>171.8</ele>
        <time>2021-10-24T10:30:43Z</time>
      </trkpt>
      <trkpt lat="44.23555" lon="4.58802">
        <ele>172</ele>
        <time>2021-10-24T10:30:44Z</time>
      </trkpt>
      <trkpt lat="44.23552" lon="4.58799">
        <ele>172.2</ele>
        <time>2021-10-24T10:30:45Z</time>
      </trkpt>
      <trkpt lat="44.2355" lon="4.58795">
        <ele>172.4</ele>
        <time>2021-10-24T10:30:46Z</time>
      </trkpt>
      <trkpt lat="44.23547" lon="4.58791">
        <ele>172.4</ele>
        <time>2021-10-24T10:30:47Z</time>
      </trkpt>
      <trkpt lat="44.23545" lon="4.58787">
        <ele>173</ele>
        <time>2021-10-24T10:30:48Z</time>
      </trkpt>
      <trkpt lat="44.23542" lon="4.58783">
        <ele>173.2</ele>
        <time>2021-10-24T10:30:49Z</time>
      </trkpt>
      <trkpt lat="44.2354" lon="4.58779">
        <ele>173.4</ele>
        <time>2021-10-24T10:30:50Z</time>
      </trkpt>
      <trkpt lat="44.23538" lon="4.58775">
        <ele>173.6</ele>
        <time>2021-10-24T10:30:51Z</time>
      </trkpt>
      <trkpt lat="44.23536" lon="4.58772">
        <ele>173.8</ele>
        <time>2021-10-24T10:30:52Z</time>
      </trkpt>
      <trkpt lat="44.23535" lon="4.58768">
        <ele>174</ele>
        <time>2021-10-24T10:30:53Z</time>
      </trkpt>
      <trkpt lat="44.23533" lon="4.58764">
        <ele>174.2</ele>
        <time>2021-10-24T10:30:54Z</time>
      </trkpt>
      <trkpt lat="44.23531" lon="4.5876">
        <ele>174.4</ele>
        <time>2021-10-24T10:30:55Z</time>
      </trkpt>
      <trkpt lat="44.23529" lon="4.58756">
        <ele>174.8</ele>
        <time>2021-10-24T10:30:56Z</time>
      </trkpt>
      <trkpt lat="44.23526" lon="4.58752">
        <ele>175</ele>
        <time>2021-10-24T10:30:57Z</time>
      </trkpt>
      <trkpt lat="44.23524" lon="4.58748">
        <ele>175.4</ele>
        <time>2021-10-24T10:30:58Z</time>
      </trkpt>
      <trkpt lat="44.23522" lon="4.58744">
        <ele>175.6</ele>
        <time>2021-10-24T10:30:59Z</time>
      </trkpt>
      <trkpt lat="44.2352" lon="4.5874">
        <ele>175.8</ele>
        <time>2021-10-24T10:31:00Z</time>
      </trkpt>
      <trkpt lat="44.23518" lon="4.58736">
        <ele>176</ele>
        <time>2021-10-24T10:31:01Z</time>
      </trkpt>
      <trkpt lat="44.23516" lon="4.58731">
        <ele>176.6</ele>
        <time>2021-10-24T10:31:02Z</time>
      </trkpt>
      <trkpt lat="44.23513" lon="4.58727">
        <ele>176.8</ele>
        <time>2021-10-24T10:31:03Z</time>
      </trkpt>
      <trkpt lat="44.23511" lon="4.58723">
        <ele>177</ele>
        <time>2021-10-24T10:31:04Z</time>
      </trkpt>
      <trkpt lat="44.23509" lon="4.58719">
        <ele>177.4</ele>
        <time>2021-10-24T10:31:05Z</time>
      </trkpt>
      <trkpt lat="44.23507" lon="4.58715">
        <ele>177.8</ele>
        <time>2021-10-24T10:31:06Z</time>
      </trkpt>
      <trkpt lat="44.23505" lon="4.58711">
        <ele>178</ele>
        <time>2021-10-24T10:31:07Z</time>
      </trkpt>
      <trkpt lat="44.23503" lon="4.58706">
        <ele>178.4</ele>
        <time>2021-10-24T10:31:08Z</time>
      </trkpt>
      <trkpt lat="44.23502" lon="4.58702">
        <ele>178.6</ele>
        <time>2021-10-24T10:31:09Z</time>
      </trkpt>
      <trkpt lat="44.23499" lon="4.58698">
        <ele>179</ele>
        <time>2021-10-24T10:31:10Z</time>
      </trkpt>
      <trkpt lat="44.23497" lon="4.58694">
        <ele>179.4</ele>
        <time>2021-10-24T10:31:11Z</time>
      </trkpt>
      <trkpt lat="44.23495" lon="4.5869">
        <ele>179.6</ele>
        <time>2021-10-24T10:31:12Z</time>
      </trkpt>
      <trkpt lat="44.23493" lon="4.58686">
        <ele>180</ele>
        <time>2021-10-24T10:31:13Z</time>
      </trkpt>
      <trkpt lat="44.23491" lon="4.58683">
        <ele>180.4</ele>
        <time>2021-10-24T10:31:14Z</time>
      </trkpt>
      <trkpt lat="44.23488" lon="4.58679">
        <ele>181</ele>
        <time>2021-10-24T10:31:15Z</time>
      </trkpt>
      <trkpt lat="44.23486" lon="4.58676">
        <ele>181.4</ele>
        <time>2021-10-24T10:31:16Z</time>
      </trkpt>
      <trkpt lat="44.23484" lon="4.58673">
        <ele>182</ele>
        <time>2021-10-24T10:31:17Z</time>
      </trkpt>
      <trkpt lat="44.23482" lon="4.58669">
        <ele>182.4</ele>
        <time>2021-10-24T10:31:18Z</time>
      </trkpt>
      <trkpt lat="44.23479" lon="4.58666">
        <ele>183.2</ele>
        <time>2021-10-24T10:31:19Z</time>
      </trkpt>
      <trkpt lat="44.23477" lon="4.58662">
        <ele>183.6</ele>
        <time>2021-10-24T10:31:20Z</time>
      </trkpt>
      <trkpt lat="44.23474" lon="4.58659">
        <ele>184.2</ele>
        <time>2021-10-24T10:31:21Z</time>
      </trkpt>
      <trkpt lat="44.23472" lon="4.58656">
        <ele>184.6</ele>
        <time>2021-10-24T10:31:22Z</time>
      </trkpt>
      <trkpt lat="44.23469" lon="4.58653">
        <ele>185</ele>
        <time>2021-10-24T10:31:23Z</time>
      </trkpt>
      <trkpt lat="44.23466" lon="4.58651">
        <ele>185.4</ele>
        <time>2021-10-24T10:31:24Z</time>
      </trkpt>
      <trkpt lat="44.23464" lon="4.58648">
        <ele>186</ele>
        <time>2021-10-24T10:31:25Z</time>
      </trkpt>
      <trkpt lat="44.23462" lon="4.58645">
        <ele>186.6</ele>
        <time>2021-10-24T10:31:26Z</time>
      </trkpt>
    </trkseg>
  </trk>
</gpx>